<?xml version='1.0' encoding='UTF-8'?><gpx version="1.1" creator="JPX - https://github.com/jenetics/jpx" xmlns="http://www.topografix.com/GPX/1/1"><trk><trkseg><trkpt lat="33.9218084" lon="8.1315728"><ele>46.0</ele><time>2026-04-30T08:01:20.706Z</time></trkpt><trkpt lat="33.9218889" lon="8.1315598"><ele>46.0</ele><time>2026-04-30T08:01:33.707Z</time></trkpt><trkpt lat="33.9219557" lon="8.131488"><ele>46.0</ele><time>2026-04-30T08:01:36.685Z</time></trkpt><trkpt lat="33.9220065" lon="8.131436"><ele>46.0</ele><time>2026-04-30T08:01:47.682Z</time></trkpt><trkpt lat="33.9219677" lon="8.1313562"><ele>46.0</ele><time>2026-04-30T08:02:00.695Z</time></trkpt><trkpt lat="33.9219215" lon="8.1312823"><ele>46.0</ele><time>2026-04-30T08:02:05.696Z</time></trkpt><trkpt lat="33.921841" lon="8.1312145"><ele>46.16666666666667</ele><time>2026-04-30T08:02:09.689Z</time></trkpt><trkpt lat="33.9217771" lon="8.1311405"><ele>46.333333333333336</ele><time>2026-04-30T08:02:11.685Z</time></trkpt><trkpt lat="33.9217212" lon="8.1310689"><ele>46.5</ele><time>2026-04-30T08:02:13.699Z</time></trkpt><trkpt lat="33.9216767" lon="8.1309943"><ele>46.666666666666664</ele><time>2026-04-30T08:02:15.699Z</time></trkpt><trkpt lat="33.9216316" lon="8.1309075"><ele>46.83333333333333</ele><time>2026-04-30T08:02:17.709Z</time></trkpt><trkpt lat="33.9215991" lon="8.1307982"><ele>47.0</ele><time>2026-04-30T08:02:19.699Z</time></trkpt><trkpt lat="33.9215947" lon="8.1306697"><ele>46.6</ele><time>2026-04-30T08:02:21.685Z</time></trkpt><trkpt lat="33.9215818" lon="8.1305485"><ele>46.2</ele><time>2026-04-30T08:02:23.682Z</time></trkpt><trkpt lat="33.9215752" lon="8.1304364"><ele>45.8</ele><time>2026-04-30T08:02:25.702Z</time></trkpt><trkpt lat="33.9215703" lon="8.1303358"><ele>45.4</ele><time>2026-04-30T08:02:27.696Z</time></trkpt><trkpt lat="33.9215664" lon="8.1302543"><ele>45.0</ele><time>2026-04-30T08:02:29.685Z</time></trkpt><trkpt lat="33.921546" lon="8.1301241"><ele>45.0</ele><time>2026-04-30T08:02:32.698Z</time></trkpt><trkpt lat="33.9215481" lon="8.1300391"><ele>45.0</ele><time>2026-04-30T08:02:33.692Z</time></trkpt><trkpt lat="33.9215399" lon="8.1299569"><ele>45.0</ele><time>2026-04-30T08:02:34.698Z</time></trkpt><trkpt lat="33.9215341" lon="8.1298228"><ele>45.0</ele><time>2026-04-30T08:02:36.699Z</time></trkpt><trkpt lat="33.9215207" lon="8.1296987"><ele>45.0</ele><time>2026-04-30T08:02:38.697Z</time></trkpt><trkpt lat="33.9215224" lon="8.1295982"><ele>45.0</ele><time>2026-04-30T08:02:40.704Z</time></trkpt><trkpt lat="33.9215118" lon="8.1294981"><ele>45.0</ele><time>2026-04-30T08:02:42.704Z</time></trkpt><trkpt lat="33.9214964" lon="8.1293926"><ele>45.0</ele><time>2026-04-30T08:02:44.696Z</time></trkpt><trkpt lat="33.9214957" lon="8.1292495"><ele>45.0</ele><time>2026-04-30T08:02:46.694Z</time></trkpt><trkpt lat="33.9214968" lon="8.1291683"><ele>45.0</ele><time>2026-04-30T08:02:47.711Z</time></trkpt><trkpt lat="33.9214918" lon="8.1290906"><ele>45.0</ele><time>2026-04-30T08:02:48.685Z</time></trkpt><trkpt lat="33.9214875" lon="8.1289419"><ele>45.0</ele><time>2026-04-30T08:02:50.679Z</time></trkpt><trkpt lat="33.9214796" lon="8.1287942"><ele>45.0</ele><time>2026-04-30T08:02:52.692Z</time></trkpt><trkpt lat="33.9214735" lon="8.1286567"><ele>45.0</ele><time>2026-04-30T08:02:54.695Z</time></trkpt><trkpt lat="33.9214727" lon="8.1285166"><ele>45.0</ele><time>2026-04-30T08:02:56.702Z</time></trkpt><trkpt lat="33.9214702" lon="8.1283723"><ele>45.0</ele><time>2026-04-30T08:02:58.699Z</time></trkpt><trkpt lat="33.9214704" lon="8.1282892"><ele>45.0</ele><time>2026-04-30T08:02:59.697Z</time></trkpt><trkpt lat="33.9214722" lon="8.128193"><ele>45.0</ele><time>2026-04-30T08:03:00.703Z</time></trkpt><trkpt lat="33.9214781" lon="8.1280965"><ele>45.0</ele><time>2026-04-30T08:03:01.697Z</time></trkpt><trkpt lat="33.9214792" lon="8.1279897"><ele>45.0</ele><time>2026-04-30T08:03:02.71Z</time></trkpt><trkpt lat="33.9214782" lon="8.1278819"><ele>45.0</ele><time>2026-04-30T08:03:03.716Z</time></trkpt><trkpt lat="33.9214753" lon="8.1277729"><ele>45.2</ele><time>2026-04-30T08:03:04.71Z</time></trkpt><trkpt lat="33.921469" lon="8.1276632"><ele>45.4</ele><time>2026-04-30T08:03:05.7Z</time></trkpt><trkpt lat="33.9214635" lon="8.1275485"><ele>45.599999999999994</ele><time>2026-04-30T08:03:06.688Z</time></trkpt><trkpt lat="33.9214584" lon="8.1274314"><ele>45.8</ele><time>2026-04-30T08:03:07.718Z</time></trkpt><trkpt lat="33.9214497" lon="8.1273278"><ele>46.0</ele><time>2026-04-30T08:03:08.724Z</time></trkpt><trkpt lat="33.9214427" lon="8.1272268"><ele>46.0</ele><time>2026-04-30T08:03:09.718Z</time></trkpt><trkpt lat="33.9214301" lon="8.1271242"><ele>46.0</ele><time>2026-04-30T08:03:10.714Z</time></trkpt><trkpt lat="33.9214264" lon="8.1270186"><ele>46.0</ele><time>2026-04-30T08:03:11.714Z</time></trkpt><trkpt lat="33.9214248" lon="8.1269219"><ele>46.0</ele><time>2026-04-30T08:03:12.703Z</time></trkpt><trkpt lat="33.9214158" lon="8.1268343"><ele>46.0</ele><time>2026-04-30T08:03:13.709Z</time></trkpt><trkpt lat="33.9214097" lon="8.1267479"><ele>46.0</ele><time>2026-04-30T08:03:14.71Z</time></trkpt><trkpt lat="33.9214046" lon="8.1266646"><ele>46.0</ele><time>2026-04-30T08:03:15.708Z</time></trkpt><trkpt lat="33.9213985" lon="8.1265774"><ele>46.0</ele><time>2026-04-30T08:03:16.696Z</time></trkpt><trkpt lat="33.9213991" lon="8.1264948"><ele>46.0</ele><time>2026-04-30T08:03:17.702Z</time></trkpt><trkpt lat="33.9214005" lon="8.1264168"><ele>46.0</ele><time>2026-04-30T08:03:18.723Z</time></trkpt><trkpt lat="33.9214204" lon="8.126277"><ele>46.0</ele><time>2026-04-30T08:03:20.664Z</time></trkpt><trkpt lat="33.9214232" lon="8.126132"><ele>46.0</ele><time>2026-04-30T08:03:22.715Z</time></trkpt><trkpt lat="33.9214158" lon="8.1260481"><ele>46.16666666666667</ele><time>2026-04-30T08:03:23.727Z</time></trkpt><trkpt lat="33.9214112" lon="8.1259685"><ele>46.333333333333336</ele><time>2026-04-30T08:03:24.712Z</time></trkpt><trkpt lat="33.9214076" lon="8.1258851"><ele>46.5</ele><time>2026-04-30T08:03:25.683Z</time></trkpt><trkpt lat="33.9213954" lon="8.1257465"><ele>46.666666666666664</ele><time>2026-04-30T08:03:27.722Z</time></trkpt><trkpt lat="33.9213911" lon="8.1256355"><ele>46.83333333333333</ele><time>2026-04-30T08:03:29.699Z</time></trkpt><trkpt lat="33.9213908" lon="8.1255364"><ele>47.0</ele><time>2026-04-30T08:03:31.722Z</time></trkpt><trkpt lat="33.9213894" lon="8.1254204"><ele>47.6</ele><time>2026-04-30T08:03:33.712Z</time></trkpt><trkpt lat="33.9213714" lon="8.1252874"><ele>48.2</ele><time>2026-04-30T08:03:35.719Z</time></trkpt><trkpt lat="33.9213631" lon="8.1251381"><ele>48.8</ele><time>2026-04-30T08:03:37.733Z</time></trkpt><trkpt lat="33.9213563" lon="8.1250548"><ele>49.4</ele><time>2026-04-30T08:03:38.715Z</time></trkpt><trkpt lat="33.9213536" lon="8.1249642"><ele>50.0</ele><time>2026-04-30T08:03:39.733Z</time></trkpt><trkpt lat="33.92135" lon="8.1248697"><ele>50.66666666666667</ele><time>2026-04-30T08:03:40.718Z</time></trkpt><trkpt lat="33.921347" lon="8.1247723"><ele>51.333333333333336</ele><time>2026-04-30T08:03:41.703Z</time></trkpt><trkpt lat="33.921345" lon="8.1246764"><ele>52.0</ele><time>2026-04-30T08:03:42.714Z</time></trkpt><trkpt lat="33.9213469" lon="8.1245737"><ele>52.66666666666667</ele><time>2026-04-30T08:03:43.722Z</time></trkpt><trkpt lat="33.9213453" lon="8.1244647"><ele>53.333333333333336</ele><time>2026-04-30T08:03:44.677Z</time></trkpt><trkpt lat="33.9213365" lon="8.1243456"><ele>54.0</ele><time>2026-04-30T08:03:45.714Z</time></trkpt><trkpt lat="33.9213269" lon="8.1242132"><ele>54.0</ele><time>2026-04-30T08:03:46.721Z</time></trkpt><trkpt lat="33.9213218" lon="8.1240649"><ele>54.0</ele><time>2026-04-30T08:03:47.681Z</time></trkpt><trkpt lat="33.9213183" lon="8.1239172"><ele>54.0</ele><time>2026-04-30T08:03:48.721Z</time></trkpt><trkpt lat="33.9213128" lon="8.1237679"><ele>54.0</ele><time>2026-04-30T08:03:49.739Z</time></trkpt><trkpt lat="33.9213123" lon="8.1236103"><ele>54.5</ele><time>2026-04-30T08:03:50.715Z</time></trkpt><trkpt lat="33.9213059" lon="8.1234619"><ele>55.0</ele><time>2026-04-30T08:03:51.723Z</time></trkpt><trkpt lat="33.9212999" lon="8.1233217"><ele>55.5</ele><time>2026-04-30T08:03:52.708Z</time></trkpt><trkpt lat="33.921296" lon="8.1231812"><ele>56.0</ele><time>2026-04-30T08:03:53.745Z</time></trkpt><trkpt lat="33.9212925" lon="8.1230427"><ele>56.75</ele><time>2026-04-30T08:03:54.711Z</time></trkpt><trkpt lat="33.9212909" lon="8.1229024"><ele>57.5</ele><time>2026-04-30T08:03:55.719Z</time></trkpt><trkpt lat="33.9212901" lon="8.1227653"><ele>58.25</ele><time>2026-04-30T08:03:56.692Z</time></trkpt><trkpt lat="33.9212865" lon="8.122627"><ele>59.0</ele><time>2026-04-30T08:03:57.716Z</time></trkpt><trkpt lat="33.9212912" lon="8.1224963"><ele>59.50000000000001</ele><time>2026-04-30T08:03:58.718Z</time></trkpt><trkpt lat="33.9212903" lon="8.1223772"><ele>60.0</ele><time>2026-04-30T08:03:59.689Z</time></trkpt><trkpt lat="33.921284" lon="8.1222853"><ele>60.5</ele><time>2026-04-30T08:04:00.713Z</time></trkpt><trkpt lat="33.9212754" lon="8.1222047"><ele>61.0</ele><time>2026-04-30T08:04:01.717Z</time></trkpt><trkpt lat="33.9212754" lon="8.1221217"><ele>61.50000000000001</ele><time>2026-04-30T08:04:02.696Z</time></trkpt><trkpt lat="33.9212641" lon="8.1220424"><ele>62.0</ele><time>2026-04-30T08:04:03.724Z</time></trkpt><trkpt lat="33.9212624" lon="8.1219497"><ele>62.0</ele><time>2026-04-30T08:04:04.728Z</time></trkpt><trkpt lat="33.9212556" lon="8.12184"><ele>62.0</ele><time>2026-04-30T08:04:05.713Z</time></trkpt><trkpt lat="33.9212529" lon="8.1217135"><ele>62.0</ele><time>2026-04-30T08:04:06.723Z</time></trkpt><trkpt lat="33.9212505" lon="8.121575"><ele>62.0</ele><time>2026-04-30T08:04:07.721Z</time></trkpt><trkpt lat="33.9212441" lon="8.1214343"><ele>62.0</ele><time>2026-04-30T08:04:08.719Z</time></trkpt><trkpt lat="33.9212401" lon="8.1212852"><ele>62.25</ele><time>2026-04-30T08:04:09.717Z</time></trkpt><trkpt lat="33.9212322" lon="8.1211277"><ele>62.5</ele><time>2026-04-30T08:04:10.726Z</time></trkpt><trkpt lat="33.9212256" lon="8.1209682"><ele>62.75</ele><time>2026-04-30T08:04:11.717Z</time></trkpt><trkpt lat="33.9212178" lon="8.1208145"><ele>63.0</ele><time>2026-04-30T08:04:12.72Z</time></trkpt><trkpt lat="33.9212103" lon="8.1206562"><ele>64.5</ele><time>2026-04-30T08:04:13.688Z</time></trkpt><trkpt lat="33.9212039" lon="8.1204988"><ele>66.0</ele><time>2026-04-30T08:04:14.715Z</time></trkpt><trkpt lat="33.9211987" lon="8.1203481"><ele>67.5</ele><time>2026-04-30T08:04:15.724Z</time></trkpt><trkpt lat="33.9211953" lon="8.1201979"><ele>69.0</ele><time>2026-04-30T08:04:16.707Z</time></trkpt><trkpt lat="33.9211901" lon="8.1200578"><ele>69.0</ele><time>2026-04-30T08:04:17.716Z</time></trkpt><trkpt lat="33.9211903" lon="8.1199247"><ele>69.0</ele><time>2026-04-30T08:04:18.712Z</time></trkpt><trkpt lat="33.9211922" lon="8.1197865"><ele>69.0</ele><time>2026-04-30T08:04:19.699Z</time></trkpt><trkpt lat="33.9211883" lon="8.1196506"><ele>69.0</ele><time>2026-04-30T08:04:20.688Z</time></trkpt><trkpt lat="33.9211861" lon="8.1195135"><ele>69.75</ele><time>2026-04-30T08:04:21.72Z</time></trkpt><trkpt lat="33.9211767" lon="8.119373"><ele>70.5</ele><time>2026-04-30T08:04:22.708Z</time></trkpt><trkpt lat="33.9211728" lon="8.1192278"><ele>71.25</ele><time>2026-04-30T08:04:23.727Z</time></trkpt><trkpt lat="33.9211679" lon="8.1190905"><ele>72.0</ele><time>2026-04-30T08:04:24.714Z</time></trkpt><trkpt lat="33.9211635" lon="8.1189393"><ele>72.25</ele><time>2026-04-30T08:04:25.717Z</time></trkpt><trkpt lat="33.9211559" lon="8.1187797"><ele>72.5</ele><time>2026-04-30T08:04:26.722Z</time></trkpt><trkpt lat="33.9211484" lon="8.1186126"><ele>72.75</ele><time>2026-04-30T08:04:27.719Z</time></trkpt><trkpt lat="33.9211404" lon="8.118435"><ele>73.0</ele><time>2026-04-30T08:04:28.679Z</time></trkpt><trkpt lat="33.9211265" lon="8.11825"><ele>74.0</ele><time>2026-04-30T08:04:29.695Z</time></trkpt><trkpt lat="33.9211197" lon="8.1180557"><ele>75.0</ele><time>2026-04-30T08:04:30.738Z</time></trkpt><trkpt lat="33.921116" lon="8.1178631"><ele>76.0</ele><time>2026-04-30T08:04:31.721Z</time></trkpt><trkpt lat="33.9211107" lon="8.11767"><ele>76.0</ele><time>2026-04-30T08:04:32.717Z</time></trkpt><trkpt lat="33.9210953" lon="8.1174704"><ele>76.0</ele><time>2026-04-30T08:04:33.702Z</time></trkpt><trkpt lat="33.9210683" lon="8.117277"><ele>76.0</ele><time>2026-04-30T08:04:34.692Z</time></trkpt><trkpt lat="33.9210398" lon="8.1170799"><ele>77.66666666666666</ele><time>2026-04-30T08:04:35.715Z</time></trkpt><trkpt lat="33.9210103" lon="8.1168831"><ele>79.33333333333333</ele><time>2026-04-30T08:04:36.725Z</time></trkpt><trkpt lat="33.9209753" lon="8.1166855"><ele>81.0</ele><time>2026-04-30T08:04:37.732Z</time></trkpt><trkpt lat="33.9209343" lon="8.1164905"><ele>82.0</ele><time>2026-04-30T08:04:38.695Z</time></trkpt><trkpt lat="33.9208935" lon="8.1162986"><ele>83.0</ele><time>2026-04-30T08:04:39.692Z</time></trkpt><trkpt lat="33.9208541" lon="8.1161115"><ele>84.0</ele><time>2026-04-30T08:04:40.719Z</time></trkpt><trkpt lat="33.9208203" lon="8.115946"><ele>84.0</ele><time>2026-04-30T08:04:41.722Z</time></trkpt><trkpt lat="33.9207941" lon="8.1158013"><ele>84.0</ele><time>2026-04-30T08:04:42.713Z</time></trkpt><trkpt lat="33.9207722" lon="8.1156847"><ele>84.0</ele><time>2026-04-30T08:04:43.719Z</time></trkpt><trkpt lat="33.9207551" lon="8.1155809"><ele>84.0</ele><time>2026-04-30T08:04:44.699Z</time></trkpt><trkpt lat="33.9207338" lon="8.115485"><ele>84.0</ele><time>2026-04-30T08:04:45.733Z</time></trkpt><trkpt lat="33.9207128" lon="8.115407"><ele>84.4</ele><time>2026-04-30T08:04:46.722Z</time></trkpt><trkpt lat="33.920683" lon="8.1152608"><ele>84.80000000000001</ele><time>2026-04-30T08:04:48.723Z</time></trkpt><trkpt lat="33.9206565" lon="8.1151654"><ele>85.19999999999999</ele><time>2026-04-30T08:04:49.712Z</time></trkpt><trkpt lat="33.9206247" lon="8.1150548"><ele>85.6</ele><time>2026-04-30T08:04:50.719Z</time></trkpt><trkpt lat="33.9205948" lon="8.1149256"><ele>86.0</ele><time>2026-04-30T08:04:51.691Z</time></trkpt><trkpt lat="33.9205645" lon="8.1147862"><ele>86.0</ele><time>2026-04-30T08:04:52.711Z</time></trkpt><trkpt lat="33.9205362" lon="8.1146386"><ele>86.0</ele><time>2026-04-30T08:04:53.725Z</time></trkpt><trkpt lat="33.9205063" lon="8.1144872"><ele>86.0</ele><time>2026-04-30T08:04:54.721Z</time></trkpt><trkpt lat="33.920475" lon="8.1143314"><ele>86.0</ele><time>2026-04-30T08:04:55.727Z</time></trkpt><trkpt lat="33.9204388" lon="8.1141811"><ele>86.0</ele><time>2026-04-30T08:04:56.722Z</time></trkpt><trkpt lat="33.9204052" lon="8.1140285"><ele>86.0</ele><time>2026-04-30T08:04:57.717Z</time></trkpt><trkpt lat="33.9203717" lon="8.1138725"><ele>86.0</ele><time>2026-04-30T08:04:58.719Z</time></trkpt><trkpt lat="33.9203376" lon="8.1137135"><ele>86.0</ele><time>2026-04-30T08:04:59.686Z</time></trkpt><trkpt lat="33.9203032" lon="8.1135555"><ele>86.0</ele><time>2026-04-30T08:05:00.691Z</time></trkpt><trkpt lat="33.9202699" lon="8.1133912"><ele>86.0</ele><time>2026-04-30T08:05:01.716Z</time></trkpt><trkpt lat="33.920236" lon="8.113225"><ele>86.0</ele><time>2026-04-30T08:05:02.722Z</time></trkpt><trkpt lat="33.9202014" lon="8.11306"><ele>86.0</ele><time>2026-04-30T08:05:03.72Z</time></trkpt><trkpt lat="33.9201692" lon="8.1128994"><ele>86.25</ele><time>2026-04-30T08:05:04.714Z</time></trkpt><trkpt lat="33.9201375" lon="8.1127326"><ele>86.5</ele><time>2026-04-30T08:05:05.683Z</time></trkpt><trkpt lat="33.920106" lon="8.1125704"><ele>86.75</ele><time>2026-04-30T08:05:06.718Z</time></trkpt><trkpt lat="33.9200731" lon="8.1124068"><ele>87.0</ele><time>2026-04-30T08:05:07.711Z</time></trkpt><trkpt lat="33.9200406" lon="8.1122442"><ele>87.0</ele><time>2026-04-30T08:05:08.724Z</time></trkpt><trkpt lat="33.9200083" lon="8.1120801"><ele>87.0</ele><time>2026-04-30T08:05:09.694Z</time></trkpt><trkpt lat="33.9199782" lon="8.1119224"><ele>87.0</ele><time>2026-04-30T08:05:10.668Z</time></trkpt><trkpt lat="33.9199449" lon="8.1117704"><ele>87.0</ele><time>2026-04-30T08:05:11.714Z</time></trkpt><trkpt lat="33.9199102" lon="8.1116147"><ele>87.0</ele><time>2026-04-30T08:05:12.675Z</time></trkpt><trkpt lat="33.9198827" lon="8.1114663"><ele>87.0</ele><time>2026-04-30T08:05:13.673Z</time></trkpt><trkpt lat="33.9198477" lon="8.1113141"><ele>87.0</ele><time>2026-04-30T08:05:14.682Z</time></trkpt><trkpt lat="33.9198161" lon="8.1111614"><ele>87.0</ele><time>2026-04-30T08:05:15.696Z</time></trkpt><trkpt lat="33.9197846" lon="8.1110134"><ele>87.0</ele><time>2026-04-30T08:05:16.699Z</time></trkpt><trkpt lat="33.919749" lon="8.1108674"><ele>87.0</ele><time>2026-04-30T08:05:17.716Z</time></trkpt><trkpt lat="33.9197146" lon="8.110723"><ele>87.0</ele><time>2026-04-30T08:05:18.697Z</time></trkpt><trkpt lat="33.9196827" lon="8.1105737"><ele>87.0</ele><time>2026-04-30T08:05:19.694Z</time></trkpt><trkpt lat="33.919648" lon="8.1104197"><ele>87.25</ele><time>2026-04-30T08:05:20.721Z</time></trkpt><trkpt lat="33.9196133" lon="8.1102648"><ele>87.5</ele><time>2026-04-30T08:05:21.69Z</time></trkpt><trkpt lat="33.9195806" lon="8.1101206"><ele>87.75</ele><time>2026-04-30T08:05:22.715Z</time></trkpt><trkpt lat="33.9195438" lon="8.1099789"><ele>88.0</ele><time>2026-04-30T08:05:23.716Z</time></trkpt><trkpt lat="33.9195189" lon="8.1098404"><ele>88.0</ele><time>2026-04-30T08:05:24.718Z</time></trkpt><trkpt lat="33.9194903" lon="8.1096963"><ele>88.0</ele><time>2026-04-30T08:05:25.721Z</time></trkpt><trkpt lat="33.9194615" lon="8.1095583"><ele>88.0</ele><time>2026-04-30T08:05:26.693Z</time></trkpt><trkpt lat="33.9194264" lon="8.1094238"><ele>88.0</ele><time>2026-04-30T08:05:27.724Z</time></trkpt><trkpt lat="33.9193976" lon="8.1092852"><ele>88.0</ele><time>2026-04-30T08:05:28.706Z</time></trkpt><trkpt lat="33.9193617" lon="8.1091463"><ele>88.0</ele><time>2026-04-30T08:05:29.708Z</time></trkpt><trkpt lat="33.9193278" lon="8.1090191"><ele>88.0</ele><time>2026-04-30T08:05:30.716Z</time></trkpt><trkpt lat="33.9193041" lon="8.1089158"><ele>88.0</ele><time>2026-04-30T08:05:31.684Z</time></trkpt><trkpt lat="33.9192839" lon="8.1088186"><ele>88.0</ele><time>2026-04-30T08:05:32.709Z</time></trkpt><trkpt lat="33.9192587" lon="8.1087252"><ele>88.25</ele><time>2026-04-30T08:05:33.732Z</time></trkpt><trkpt lat="33.9192355" lon="8.1086165"><ele>88.5</ele><time>2026-04-30T08:05:34.712Z</time></trkpt><trkpt lat="33.9192041" lon="8.1084759"><ele>88.75</ele><time>2026-04-30T08:05:35.724Z</time></trkpt><trkpt lat="33.919167" lon="8.1083016"><ele>89.0</ele><time>2026-04-30T08:05:36.718Z</time></trkpt><trkpt lat="33.9191289" lon="8.1080911"><ele>89.33333333333334</ele><time>2026-04-30T08:05:37.699Z</time></trkpt><trkpt lat="33.9190766" lon="8.1078481"><ele>89.66666666666667</ele><time>2026-04-30T08:05:38.719Z</time></trkpt><trkpt lat="33.9190229" lon="8.1075971"><ele>90.0</ele><time>2026-04-30T08:05:39.725Z</time></trkpt><trkpt lat="33.9189711" lon="8.1073494"><ele>90.66666666666667</ele><time>2026-04-30T08:05:40.734Z</time></trkpt><trkpt lat="33.9189243" lon="8.1071053"><ele>91.33333333333334</ele><time>2026-04-30T08:05:41.686Z</time></trkpt><trkpt lat="33.9188762" lon="8.1068729"><ele>92.0</ele><time>2026-04-30T08:05:42.725Z</time></trkpt><trkpt lat="33.9188355" lon="8.1066553"><ele>92.33333333333334</ele><time>2026-04-30T08:05:43.709Z</time></trkpt><trkpt lat="33.9187939" lon="8.1064349"><ele>92.66666666666667</ele><time>2026-04-30T08:05:44.713Z</time></trkpt><trkpt lat="33.9187611" lon="8.1062369"><ele>93.0</ele><time>2026-04-30T08:05:45.701Z</time></trkpt><trkpt lat="33.9187267" lon="8.1060405"><ele>93.0</ele><time>2026-04-30T08:05:46.71Z</time></trkpt><trkpt lat="33.918688" lon="8.1058457"><ele>93.0</ele><time>2026-04-30T08:05:47.708Z</time></trkpt><trkpt lat="33.9186486" lon="8.1056493"><ele>93.0</ele><time>2026-04-30T08:05:48.709Z</time></trkpt><trkpt lat="33.9186074" lon="8.105458"><ele>93.0</ele><time>2026-04-30T08:05:49.712Z</time></trkpt><trkpt lat="33.9185743" lon="8.1052711"><ele>93.0</ele><time>2026-04-30T08:05:50.709Z</time></trkpt><trkpt lat="33.9185368" lon="8.1050866"><ele>93.0</ele><time>2026-04-30T08:05:51.729Z</time></trkpt><trkpt lat="33.9185013" lon="8.1049044"><ele>93.25</ele><time>2026-04-30T08:05:52.691Z</time></trkpt><trkpt lat="33.9184597" lon="8.1047161"><ele>93.5</ele><time>2026-04-30T08:05:53.714Z</time></trkpt><trkpt lat="33.9184177" lon="8.104535"><ele>93.75</ele><time>2026-04-30T08:05:54.719Z</time></trkpt><trkpt lat="33.9183832" lon="8.1043871"><ele>94.0</ele><time>2026-04-30T08:05:55.714Z</time></trkpt><trkpt lat="33.918355" lon="8.1042644"><ele>93.80000000000001</ele><time>2026-04-30T08:05:56.719Z</time></trkpt><trkpt lat="33.918337" lon="8.104166"><ele>93.60000000000001</ele><time>2026-04-30T08:05:57.718Z</time></trkpt><trkpt lat="33.9183102" lon="8.1040723"><ele>93.4</ele><time>2026-04-30T08:05:58.71Z</time></trkpt><trkpt lat="33.9182771" lon="8.1039633"><ele>93.2</ele><time>2026-04-30T08:05:59.736Z</time></trkpt><trkpt lat="33.9182451" lon="8.1038201"><ele>93.0</ele><time>2026-04-30T08:06:00.678Z</time></trkpt><trkpt lat="33.9182168" lon="8.1036558"><ele>93.0</ele><time>2026-04-30T08:06:01.718Z</time></trkpt><trkpt lat="33.9181748" lon="8.103472"><ele>93.0</ele><time>2026-04-30T08:06:02.718Z</time></trkpt><trkpt lat="33.9181406" lon="8.1032656"><ele>93.0</ele><time>2026-04-30T08:06:03.71Z</time></trkpt><trkpt lat="33.9180962" lon="8.1030531"><ele>94.0</ele><time>2026-04-30T08:06:04.719Z</time></trkpt><trkpt lat="33.918046" lon="8.1028214"><ele>95.0</ele><time>2026-04-30T08:06:05.716Z</time></trkpt><trkpt lat="33.9179948" lon="8.1025902"><ele>96.0</ele><time>2026-04-30T08:06:06.724Z</time></trkpt><trkpt lat="33.9179474" lon="8.1023535"><ele>96.0</ele><time>2026-04-30T08:06:07.722Z</time></trkpt><trkpt lat="33.9178988" lon="8.1021219"><ele>96.0</ele><time>2026-04-30T08:06:08.718Z</time></trkpt><trkpt lat="33.9178485" lon="8.1018873"><ele>96.0</ele><time>2026-04-30T08:06:09.712Z</time></trkpt><trkpt lat="33.917794" lon="8.1016497"><ele>96.66666666666666</ele><time>2026-04-30T08:06:10.725Z</time></trkpt><trkpt lat="33.9177401" lon="8.1014104"><ele>97.33333333333333</ele><time>2026-04-30T08:06:11.713Z</time></trkpt><trkpt lat="33.9176868" lon="8.1011671"><ele>98.0</ele><time>2026-04-30T08:06:12.717Z</time></trkpt><trkpt lat="33.9176376" lon="8.1009205"><ele>98.0</ele><time>2026-04-30T08:06:13.722Z</time></trkpt><trkpt lat="33.9175844" lon="8.1006768"><ele>98.0</ele><time>2026-04-30T08:06:14.708Z</time></trkpt><trkpt lat="33.9175338" lon="8.1004291"><ele>98.0</ele><time>2026-04-30T08:06:15.695Z</time></trkpt><trkpt lat="33.9174857" lon="8.1001873"><ele>98.0</ele><time>2026-04-30T08:06:16.693Z</time></trkpt><trkpt lat="33.9174322" lon="8.0999495"><ele>98.0</ele><time>2026-04-30T08:06:17.717Z</time></trkpt><trkpt lat="33.9173771" lon="8.0997096"><ele>98.0</ele><time>2026-04-30T08:06:18.727Z</time></trkpt><trkpt lat="33.9173271" lon="8.0994744"><ele>99.0</ele><time>2026-04-30T08:06:19.715Z</time></trkpt><trkpt lat="33.9172736" lon="8.099236"><ele>100.0</ele><time>2026-04-30T08:06:20.695Z</time></trkpt><trkpt lat="33.9172237" lon="8.0989952"><ele>101.0</ele><time>2026-04-30T08:06:21.701Z</time></trkpt><trkpt lat="33.9171767" lon="8.0987552"><ele>101.33333333333333</ele><time>2026-04-30T08:06:22.724Z</time></trkpt><trkpt lat="33.9171238" lon="8.0985196"><ele>101.66666666666666</ele><time>2026-04-30T08:06:23.726Z</time></trkpt><trkpt lat="33.917074" lon="8.0982819"><ele>102.0</ele><time>2026-04-30T08:06:24.715Z</time></trkpt><trkpt lat="33.9170248" lon="8.098049"><ele>103.0</ele><time>2026-04-30T08:06:25.697Z</time></trkpt><trkpt lat="33.9169746" lon="8.0978162"><ele>104.0</ele><time>2026-04-30T08:06:26.722Z</time></trkpt><trkpt lat="33.9169259" lon="8.0975904"><ele>105.0</ele><time>2026-04-30T08:06:27.719Z</time></trkpt><trkpt lat="33.9168773" lon="8.0973637"><ele>105.33333333333334</ele><time>2026-04-30T08:06:28.723Z</time></trkpt><trkpt lat="33.9168298" lon="8.097141"><ele>105.66666666666667</ele><time>2026-04-30T08:06:29.723Z</time></trkpt><trkpt lat="33.9167846" lon="8.0969123"><ele>106.0</ele><time>2026-04-30T08:06:30.724Z</time></trkpt><trkpt lat="33.9167363" lon="8.096685"><ele>106.33333333333334</ele><time>2026-04-30T08:06:31.713Z</time></trkpt><trkpt lat="33.9166892" lon="8.0964591"><ele>106.66666666666666</ele><time>2026-04-30T08:06:32.714Z</time></trkpt><trkpt lat="33.9166413" lon="8.0962393"><ele>107.0</ele><time>2026-04-30T08:06:33.714Z</time></trkpt><trkpt lat="33.9165905" lon="8.0960202"><ele>107.0</ele><time>2026-04-30T08:06:34.727Z</time></trkpt><trkpt lat="33.9165394" lon="8.0958104"><ele>107.0</ele><time>2026-04-30T08:06:35.737Z</time></trkpt><trkpt lat="33.9164928" lon="8.095599"><ele>107.0</ele><time>2026-04-30T08:06:36.715Z</time></trkpt><trkpt lat="33.9164509" lon="8.0953795"><ele>107.33333333333333</ele><time>2026-04-30T08:06:37.698Z</time></trkpt><trkpt lat="33.9164059" lon="8.095162"><ele>107.66666666666666</ele><time>2026-04-30T08:06:38.721Z</time></trkpt><trkpt lat="33.9163613" lon="8.0949474"><ele>108.0</ele><time>2026-04-30T08:06:39.728Z</time></trkpt><trkpt lat="33.9163149" lon="8.0947319"><ele>109.0</ele><time>2026-04-30T08:06:40.711Z</time></trkpt><trkpt lat="33.9162681" lon="8.0945089"><ele>110.0</ele><time>2026-04-30T08:06:41.7Z</time></trkpt><trkpt lat="33.9162145" lon="8.0942785"><ele>111.0</ele><time>2026-04-30T08:06:42.722Z</time></trkpt><trkpt lat="33.9161622" lon="8.0940399"><ele>112.0</ele><time>2026-04-30T08:06:43.722Z</time></trkpt><trkpt lat="33.9161101" lon="8.0938023"><ele>113.0</ele><time>2026-04-30T08:06:44.721Z</time></trkpt><trkpt lat="33.9160573" lon="8.0935668"><ele>114.0</ele><time>2026-04-30T08:06:45.725Z</time></trkpt><trkpt lat="33.9160101" lon="8.0933187"><ele>114.33333333333334</ele><time>2026-04-30T08:06:46.71Z</time></trkpt><trkpt lat="33.9159577" lon="8.0930773"><ele>114.66666666666667</ele><time>2026-04-30T08:06:47.728Z</time></trkpt><trkpt lat="33.9159131" lon="8.0928341"><ele>115.0</ele><time>2026-04-30T08:06:48.704Z</time></trkpt><trkpt lat="33.9158627" lon="8.0925962"><ele>116.0</ele><time>2026-04-30T08:06:49.71Z</time></trkpt><trkpt lat="33.9158165" lon="8.0923564"><ele>117.0</ele><time>2026-04-30T08:06:50.708Z</time></trkpt><trkpt lat="33.9157618" lon="8.0921259"><ele>118.0</ele><time>2026-04-30T08:06:51.713Z</time></trkpt><trkpt lat="33.9157136" lon="8.0919028"><ele>118.0</ele><time>2026-04-30T08:06:52.728Z</time></trkpt><trkpt lat="33.9156687" lon="8.0916801"><ele>118.0</ele><time>2026-04-30T08:06:53.724Z</time></trkpt><trkpt lat="33.9156204" lon="8.091457"><ele>118.0</ele><time>2026-04-30T08:06:54.714Z</time></trkpt><trkpt lat="33.9155765" lon="8.0912375"><ele>119.0</ele><time>2026-04-30T08:06:55.737Z</time></trkpt><trkpt lat="33.9155282" lon="8.0910161"><ele>120.0</ele><time>2026-04-30T08:06:56.675Z</time></trkpt><trkpt lat="33.915478" lon="8.0907955"><ele>121.0</ele><time>2026-04-30T08:06:57.716Z</time></trkpt><trkpt lat="33.9154314" lon="8.0905703"><ele>121.0</ele><time>2026-04-30T08:06:58.707Z</time></trkpt><trkpt lat="33.9153832" lon="8.090346"><ele>121.0</ele><time>2026-04-30T08:06:59.724Z</time></trkpt><trkpt lat="33.915339" lon="8.0901207"><ele>121.0</ele><time>2026-04-30T08:07:00.706Z</time></trkpt><trkpt lat="33.9152892" lon="8.0898974"><ele>121.0</ele><time>2026-04-30T08:07:01.729Z</time></trkpt><trkpt lat="33.9152369" lon="8.0896737"><ele>121.0</ele><time>2026-04-30T08:07:02.715Z</time></trkpt><trkpt lat="33.915185" lon="8.0894609"><ele>121.0</ele><time>2026-04-30T08:07:03.693Z</time></trkpt><trkpt lat="33.9151372" lon="8.0892577"><ele>121.66666666666667</ele><time>2026-04-30T08:07:04.712Z</time></trkpt><trkpt lat="33.9150955" lon="8.0890657"><ele>122.33333333333334</ele><time>2026-04-30T08:07:05.718Z</time></trkpt><trkpt lat="33.9150543" lon="8.088888"><ele>123.0</ele><time>2026-04-30T08:07:06.711Z</time></trkpt><trkpt lat="33.9150176" lon="8.0887225"><ele>123.0</ele><time>2026-04-30T08:07:07.718Z</time></trkpt><trkpt lat="33.9150018" lon="8.0885817"><ele>123.00000000000001</ele><time>2026-04-30T08:07:08.734Z</time></trkpt><trkpt lat="33.9149935" lon="8.0884563"><ele>123.00000000000001</ele><time>2026-04-30T08:07:09.722Z</time></trkpt><trkpt lat="33.9149999" lon="8.0883289"><ele>123.0</ele><time>2026-04-30T08:07:10.688Z</time></trkpt><trkpt lat="33.9150105" lon="8.0881982"><ele>123.0</ele><time>2026-04-30T08:07:11.727Z</time></trkpt><trkpt lat="33.9150054" lon="8.0880777"><ele>123.0</ele><time>2026-04-30T08:07:12.696Z</time></trkpt><trkpt lat="33.9149626" lon="8.0879594"><ele>123.0</ele><time>2026-04-30T08:07:13.727Z</time></trkpt><trkpt lat="33.9149013" lon="8.0878325"><ele>123.0</ele><time>2026-04-30T08:07:14.735Z</time></trkpt><trkpt lat="33.9148365" lon="8.0876872"><ele>123.0</ele><time>2026-04-30T08:07:15.726Z</time></trkpt><trkpt lat="33.9147856" lon="8.0875132"><ele>123.0</ele><time>2026-04-30T08:07:16.739Z</time></trkpt><trkpt lat="33.914737" lon="8.0872896"><ele>123.0</ele><time>2026-04-30T08:07:17.721Z</time></trkpt><trkpt lat="33.9146722" lon="8.0870188"><ele>123.0</ele><time>2026-04-30T08:07:18.734Z</time></trkpt><trkpt lat="33.9146085" lon="8.0867312"><ele>123.5</ele><time>2026-04-30T08:07:19.702Z</time></trkpt><trkpt lat="33.9145397" lon="8.0864442"><ele>124.0</ele><time>2026-04-30T08:07:20.693Z</time></trkpt><trkpt lat="33.914486" lon="8.086157"><ele>124.0</ele><time>2026-04-30T08:07:21.724Z</time></trkpt><trkpt lat="33.9144287" lon="8.0858974"><ele>124.0</ele><time>2026-04-30T08:07:22.688Z</time></trkpt><trkpt lat="33.9143617" lon="8.0856223"><ele>123.5</ele><time>2026-04-30T08:07:23.67Z</time></trkpt><trkpt lat="33.9142983" lon="8.0853486"><ele>123.0</ele><time>2026-04-30T08:07:24.69Z</time></trkpt><trkpt lat="33.9142337" lon="8.0850603"><ele>122.0</ele><time>2026-04-30T08:07:25.671Z</time></trkpt><trkpt lat="33.9141643" lon="8.0847681"><ele>121.0</ele><time>2026-04-30T08:07:26.676Z</time></trkpt><trkpt lat="33.9140947" lon="8.0844619"><ele>121.0</ele><time>2026-04-30T08:07:27.682Z</time></trkpt><trkpt lat="33.9140218" lon="8.0841372"><ele>121.0</ele><time>2026-04-30T08:07:28.705Z</time></trkpt><trkpt lat="33.9139608" lon="8.083815"><ele>123.0</ele><time>2026-04-30T08:07:29.67Z</time></trkpt><trkpt lat="33.9139025" lon="8.0834862"><ele>125.0</ele><time>2026-04-30T08:07:30.68Z</time></trkpt><trkpt lat="33.9138315" lon="8.0831573"><ele>125.5</ele><time>2026-04-30T08:07:31.67Z</time></trkpt><trkpt lat="33.9137586" lon="8.0828228"><ele>126.0</ele><time>2026-04-30T08:07:32.681Z</time></trkpt><trkpt lat="33.91368" lon="8.0824923"><ele>128.0</ele><time>2026-04-30T08:07:33.676Z</time></trkpt><trkpt lat="33.9136086" lon="8.0821606"><ele>130.0</ele><time>2026-04-30T08:07:34.671Z</time></trkpt><trkpt lat="33.9135415" lon="8.0818309"><ele>131.0</ele><time>2026-04-30T08:07:35.674Z</time></trkpt><trkpt lat="33.913477" lon="8.0815069"><ele>132.0</ele><time>2026-04-30T08:07:36.681Z</time></trkpt><trkpt lat="33.9134166" lon="8.0811746"><ele>132.0</ele><time>2026-04-30T08:07:37.669Z</time></trkpt><trkpt lat="33.9133454" lon="8.0808548"><ele>132.0</ele><time>2026-04-30T08:07:38.683Z</time></trkpt><trkpt lat="33.9132786" lon="8.0805535"><ele>132.0</ele><time>2026-04-30T08:07:39.675Z</time></trkpt><trkpt lat="33.9132124" lon="8.080264"><ele>132.0</ele><time>2026-04-30T08:07:40.666Z</time></trkpt><trkpt lat="33.9131568" lon="8.0799963"><ele>132.66666666666666</ele><time>2026-04-30T08:07:41.664Z</time></trkpt><trkpt lat="33.9131005" lon="8.079732"><ele>133.33333333333331</ele><time>2026-04-30T08:07:42.663Z</time></trkpt><trkpt lat="33.9130502" lon="8.0794876"><ele>134.0</ele><time>2026-04-30T08:07:43.685Z</time></trkpt><trkpt lat="33.9130018" lon="8.0792487"><ele>134.33333333333331</ele><time>2026-04-30T08:07:44.693Z</time></trkpt><trkpt lat="33.9129508" lon="8.0790256"><ele>134.66666666666666</ele><time>2026-04-30T08:07:45.675Z</time></trkpt><trkpt lat="33.9129097" lon="8.0788186"><ele>135.0</ele><time>2026-04-30T08:07:46.671Z</time></trkpt><trkpt lat="33.9128658" lon="8.0786157"><ele>135.0</ele><time>2026-04-30T08:07:47.678Z</time></trkpt><trkpt lat="33.9128225" lon="8.0784086"><ele>135.0</ele><time>2026-04-30T08:07:48.676Z</time></trkpt><trkpt lat="33.9127833" lon="8.0781954"><ele>135.0</ele><time>2026-04-30T08:07:49.671Z</time></trkpt><trkpt lat="33.9127461" lon="8.077992"><ele>136.33333333333334</ele><time>2026-04-30T08:07:50.679Z</time></trkpt><trkpt lat="33.9127076" lon="8.0777931"><ele>137.66666666666669</ele><time>2026-04-30T08:07:51.679Z</time></trkpt><trkpt lat="33.9126607" lon="8.0775952"><ele>139.0</ele><time>2026-04-30T08:07:52.675Z</time></trkpt><trkpt lat="33.9126145" lon="8.0773953"><ele>139.0</ele><time>2026-04-30T08:07:53.668Z</time></trkpt><trkpt lat="33.9125696" lon="8.0771917"><ele>139.0</ele><time>2026-04-30T08:07:54.671Z</time></trkpt><trkpt lat="33.9125265" lon="8.0769886"><ele>139.0</ele><time>2026-04-30T08:07:55.68Z</time></trkpt><trkpt lat="33.9124833" lon="8.0767804"><ele>139.66666666666669</ele><time>2026-04-30T08:07:56.678Z</time></trkpt><trkpt lat="33.9124398" lon="8.0765756"><ele>140.33333333333334</ele><time>2026-04-30T08:07:57.672Z</time></trkpt><trkpt lat="33.9123976" lon="8.0763701"><ele>141.0</ele><time>2026-04-30T08:07:58.684Z</time></trkpt><trkpt lat="33.9123523" lon="8.0761614"><ele>141.0</ele><time>2026-04-30T08:07:59.697Z</time></trkpt><trkpt lat="33.912303" lon="8.075956"><ele>141.0</ele><time>2026-04-30T08:08:00.666Z</time></trkpt><trkpt lat="33.9122567" lon="8.0757466"><ele>141.0</ele><time>2026-04-30T08:08:01.679Z</time></trkpt><trkpt lat="33.9122126" lon="8.0755352"><ele>141.0</ele><time>2026-04-30T08:08:02.678Z</time></trkpt><trkpt lat="33.9121683" lon="8.07532"><ele>141.0</ele><time>2026-04-30T08:08:03.676Z</time></trkpt><trkpt lat="33.9121197" lon="8.0750973"><ele>141.0</ele><time>2026-04-30T08:08:04.673Z</time></trkpt><trkpt lat="33.9120701" lon="8.0748754"><ele>141.33333333333334</ele><time>2026-04-30T08:08:05.681Z</time></trkpt><trkpt lat="33.9120166" lon="8.0746528"><ele>141.66666666666669</ele><time>2026-04-30T08:08:06.677Z</time></trkpt><trkpt lat="33.9119664" lon="8.0744322"><ele>142.0</ele><time>2026-04-30T08:08:07.666Z</time></trkpt><trkpt lat="33.9119214" lon="8.0742104"><ele>142.0</ele><time>2026-04-30T08:08:08.674Z</time></trkpt><trkpt lat="33.9118752" lon="8.0739821"><ele>142.0</ele><time>2026-04-30T08:08:09.668Z</time></trkpt><trkpt lat="33.9118222" lon="8.0737474"><ele>142.0</ele><time>2026-04-30T08:08:10.678Z</time></trkpt><trkpt lat="33.9117729" lon="8.0735009"><ele>141.66666666666669</ele><time>2026-04-30T08:08:11.675Z</time></trkpt><trkpt lat="33.9117267" lon="8.0732569"><ele>141.33333333333334</ele><time>2026-04-30T08:08:12.676Z</time></trkpt><trkpt lat="33.9116755" lon="8.073003"><ele>141.0</ele><time>2026-04-30T08:08:13.678Z</time></trkpt><trkpt lat="33.9116278" lon="8.0727526"><ele>141.0</ele><time>2026-04-30T08:08:14.668Z</time></trkpt><trkpt lat="33.9115743" lon="8.0725037"><ele>141.0</ele><time>2026-04-30T08:08:15.668Z</time></trkpt><trkpt lat="33.9115181" lon="8.0722565"><ele>141.0</ele><time>2026-04-30T08:08:16.68Z</time></trkpt><trkpt lat="33.9114684" lon="8.0720089"><ele>141.0</ele><time>2026-04-30T08:08:17.678Z</time></trkpt><trkpt lat="33.9114196" lon="8.0717635"><ele>141.0</ele><time>2026-04-30T08:08:18.668Z</time></trkpt><trkpt lat="33.9113668" lon="8.0715242"><ele>141.0</ele><time>2026-04-30T08:08:19.712Z</time></trkpt><trkpt lat="33.9113144" lon="8.0712795"><ele>141.33333333333334</ele><time>2026-04-30T08:08:20.677Z</time></trkpt><trkpt lat="33.9112642" lon="8.0710338"><ele>141.66666666666669</ele><time>2026-04-30T08:08:21.68Z</time></trkpt><trkpt lat="33.9112128" lon="8.0707868"><ele>142.0</ele><time>2026-04-30T08:08:22.677Z</time></trkpt><trkpt lat="33.9111587" lon="8.0705359"><ele>142.0</ele><time>2026-04-30T08:08:23.679Z</time></trkpt><trkpt lat="33.9111094" lon="8.0702907"><ele>142.0</ele><time>2026-04-30T08:08:24.676Z</time></trkpt><trkpt lat="33.9110589" lon="8.0700452"><ele>142.0</ele><time>2026-04-30T08:08:25.672Z</time></trkpt><trkpt lat="33.911007" lon="8.069795"><ele>142.33333333333334</ele><time>2026-04-30T08:08:26.683Z</time></trkpt><trkpt lat="33.9109563" lon="8.0695514"><ele>142.66666666666666</ele><time>2026-04-30T08:08:27.678Z</time></trkpt><trkpt lat="33.9109039" lon="8.0693001"><ele>143.0</ele><time>2026-04-30T08:08:28.673Z</time></trkpt><trkpt lat="33.9108534" lon="8.0690483"><ele>143.0</ele><time>2026-04-30T08:08:29.675Z</time></trkpt><trkpt lat="33.9108018" lon="8.0688023"><ele>143.0</ele><time>2026-04-30T08:08:30.678Z</time></trkpt><trkpt lat="33.9107497" lon="8.0685549"><ele>143.0</ele><time>2026-04-30T08:08:31.674Z</time></trkpt><trkpt lat="33.9106985" lon="8.0683106"><ele>144.0</ele><time>2026-04-30T08:08:32.662Z</time></trkpt><trkpt lat="33.9106421" lon="8.0680628"><ele>145.0</ele><time>2026-04-30T08:08:33.674Z</time></trkpt><trkpt lat="33.910595" lon="8.0678147"><ele>146.0</ele><time>2026-04-30T08:08:34.67Z</time></trkpt><trkpt lat="33.9105461" lon="8.0675717"><ele>146.0</ele><time>2026-04-30T08:08:35.67Z</time></trkpt><trkpt lat="33.9104943" lon="8.0673304"><ele>146.0</ele><time>2026-04-30T08:08:36.667Z</time></trkpt><trkpt lat="33.9104414" lon="8.0670879"><ele>146.0</ele><time>2026-04-30T08:08:37.688Z</time></trkpt><trkpt lat="33.9103919" lon="8.0668468"><ele>146.33333333333331</ele><time>2026-04-30T08:08:38.676Z</time></trkpt><trkpt lat="33.9103354" lon="8.0666051"><ele>146.66666666666666</ele><time>2026-04-30T08:08:39.674Z</time></trkpt><trkpt lat="33.9102826" lon="8.0663664"><ele>147.0</ele><time>2026-04-30T08:08:40.676Z</time></trkpt><trkpt lat="33.9102365" lon="8.0661209"><ele>147.0</ele><time>2026-04-30T08:08:41.676Z</time></trkpt><trkpt lat="33.9101838" lon="8.0658711"><ele>147.0</ele><time>2026-04-30T08:08:42.669Z</time></trkpt><trkpt lat="33.9101315" lon="8.0656238"><ele>147.0</ele><time>2026-04-30T08:08:43.67Z</time></trkpt><trkpt lat="33.9100768" lon="8.0653807"><ele>147.0</ele><time>2026-04-30T08:08:44.678Z</time></trkpt><trkpt lat="33.9100223" lon="8.0651297"><ele>147.0</ele><time>2026-04-30T08:08:45.676Z</time></trkpt><trkpt lat="33.9099674" lon="8.0648817"><ele>147.0</ele><time>2026-04-30T08:08:46.673Z</time></trkpt><trkpt lat="33.9099125" lon="8.0646368"><ele>147.0</ele><time>2026-04-30T08:08:47.682Z</time></trkpt><trkpt lat="33.9098596" lon="8.0643891"><ele>147.0</ele><time>2026-04-30T08:08:48.67Z</time></trkpt><trkpt lat="33.9098086" lon="8.0641365"><ele>147.0</ele><time>2026-04-30T08:08:49.673Z</time></trkpt><trkpt lat="33.9097597" lon="8.0638937"><ele>147.0</ele><time>2026-04-30T08:08:50.701Z</time></trkpt><trkpt lat="33.9097082" lon="8.0636489"><ele>147.0</ele><time>2026-04-30T08:08:51.686Z</time></trkpt><trkpt lat="33.9096552" lon="8.0634021"><ele>147.0</ele><time>2026-04-30T08:08:52.694Z</time></trkpt><trkpt lat="33.9096015" lon="8.0631603"><ele>147.33333333333334</ele><time>2026-04-30T08:08:53.671Z</time></trkpt><trkpt lat="33.9095499" lon="8.0629155"><ele>147.66666666666669</ele><time>2026-04-30T08:08:54.669Z</time></trkpt><trkpt lat="33.9095007" lon="8.0626651"><ele>148.0</ele><time>2026-04-30T08:08:55.666Z</time></trkpt><trkpt lat="33.9094479" lon="8.062416"><ele>148.0</ele><time>2026-04-30T08:08:56.674Z</time></trkpt><trkpt lat="33.9093958" lon="8.0621735"><ele>148.0</ele><time>2026-04-30T08:08:57.673Z</time></trkpt><trkpt lat="33.9093394" lon="8.0619259"><ele>148.0</ele><time>2026-04-30T08:08:58.668Z</time></trkpt><trkpt lat="33.9092809" lon="8.0616857"><ele>149.66666666666669</ele><time>2026-04-30T08:08:59.678Z</time></trkpt><trkpt lat="33.9092282" lon="8.061444"><ele>151.33333333333334</ele><time>2026-04-30T08:09:00.677Z</time></trkpt><trkpt lat="33.9091747" lon="8.0611974"><ele>153.0</ele><time>2026-04-30T08:09:01.716Z</time></trkpt><trkpt lat="33.9091292" lon="8.0609544"><ele>153.33333333333334</ele><time>2026-04-30T08:09:02.671Z</time></trkpt><trkpt lat="33.9090739" lon="8.0607029"><ele>153.66666666666669</ele><time>2026-04-30T08:09:03.671Z</time></trkpt><trkpt lat="33.9090188" lon="8.0604592"><ele>154.0</ele><time>2026-04-30T08:09:04.677Z</time></trkpt><trkpt lat="33.9089674" lon="8.0602149"><ele>154.0</ele><time>2026-04-30T08:09:05.672Z</time></trkpt><trkpt lat="33.9089154" lon="8.0599729"><ele>154.0</ele><time>2026-04-30T08:09:06.671Z</time></trkpt><trkpt lat="33.908862" lon="8.0597244"><ele>154.0</ele><time>2026-04-30T08:09:07.674Z</time></trkpt><trkpt lat="33.9088146" lon="8.0594848"><ele>154.66666666666669</ele><time>2026-04-30T08:09:08.676Z</time></trkpt><trkpt lat="33.9087582" lon="8.0592384"><ele>155.33333333333334</ele><time>2026-04-30T08:09:09.679Z</time></trkpt><trkpt lat="33.9087004" lon="8.0589956"><ele>156.0</ele><time>2026-04-30T08:09:10.685Z</time></trkpt><trkpt lat="33.90865" lon="8.0587537"><ele>156.33333333333334</ele><time>2026-04-30T08:09:11.683Z</time></trkpt><trkpt lat="33.9085986" lon="8.0585051"><ele>156.66666666666669</ele><time>2026-04-30T08:09:12.67Z</time></trkpt><trkpt lat="33.9085447" lon="8.0582548"><ele>157.0</ele><time>2026-04-30T08:09:13.681Z</time></trkpt><trkpt lat="33.908496" lon="8.0580025"><ele>157.0</ele><time>2026-04-30T08:09:14.668Z</time></trkpt><trkpt lat="33.9084414" lon="8.057757"><ele>157.0</ele><time>2026-04-30T08:09:15.686Z</time></trkpt><trkpt lat="33.9083892" lon="8.0575114"><ele>157.0</ele><time>2026-04-30T08:09:16.677Z</time></trkpt><trkpt lat="33.9083331" lon="8.0572676"><ele>157.0</ele><time>2026-04-30T08:09:17.67Z</time></trkpt><trkpt lat="33.9082849" lon="8.0570178"><ele>157.0</ele><time>2026-04-30T08:09:18.676Z</time></trkpt><trkpt lat="33.9082327" lon="8.0567703"><ele>157.0</ele><time>2026-04-30T08:09:19.669Z</time></trkpt><trkpt lat="33.9081779" lon="8.0565228"><ele>156.33333333333334</ele><time>2026-04-30T08:09:20.672Z</time></trkpt><trkpt lat="33.908128" lon="8.056279"><ele>155.66666666666666</ele><time>2026-04-30T08:09:21.666Z</time></trkpt><trkpt lat="33.9080749" lon="8.056037"><ele>155.0</ele><time>2026-04-30T08:09:22.662Z</time></trkpt><trkpt lat="33.9080229" lon="8.0557878"><ele>154.33333333333331</ele><time>2026-04-30T08:09:23.671Z</time></trkpt><trkpt lat="33.9079728" lon="8.0555382"><ele>153.66666666666666</ele><time>2026-04-30T08:09:24.669Z</time></trkpt><trkpt lat="33.9079206" lon="8.0552928"><ele>153.0</ele><time>2026-04-30T08:09:25.671Z</time></trkpt><trkpt lat="33.9078709" lon="8.0550455"><ele>152.66666666666666</ele><time>2026-04-30T08:09:26.658Z</time></trkpt><trkpt lat="33.9078128" lon="8.054795"><ele>152.33333333333331</ele><time>2026-04-30T08:09:27.67Z</time></trkpt><trkpt lat="33.9077609" lon="8.0545518"><ele>152.0</ele><time>2026-04-30T08:09:28.67Z</time></trkpt><trkpt lat="33.907708" lon="8.0543107"><ele>151.33333333333331</ele><time>2026-04-30T08:09:29.672Z</time></trkpt><trkpt lat="33.9076591" lon="8.0540658"><ele>150.66666666666666</ele><time>2026-04-30T08:09:30.67Z</time></trkpt><trkpt lat="33.907606" lon="8.0538171"><ele>150.0</ele><time>2026-04-30T08:09:31.676Z</time></trkpt><trkpt lat="33.9075528" lon="8.0535713"><ele>151.0</ele><time>2026-04-30T08:09:32.674Z</time></trkpt><trkpt lat="33.9074989" lon="8.0533182"><ele>152.0</ele><time>2026-04-30T08:09:33.709Z</time></trkpt><trkpt lat="33.9074459" lon="8.0530692"><ele>153.0</ele><time>2026-04-30T08:09:34.68Z</time></trkpt><trkpt lat="33.9073937" lon="8.0528286"><ele>153.0</ele><time>2026-04-30T08:09:35.673Z</time></trkpt><trkpt lat="33.9073442" lon="8.0525832"><ele>153.0</ele><time>2026-04-30T08:09:36.675Z</time></trkpt><trkpt lat="33.9072943" lon="8.0523393"><ele>153.0</ele><time>2026-04-30T08:09:37.666Z</time></trkpt><trkpt lat="33.907238" lon="8.0520897"><ele>153.33333333333334</ele><time>2026-04-30T08:09:38.672Z</time></trkpt><trkpt lat="33.9071836" lon="8.0518479"><ele>153.66666666666669</ele><time>2026-04-30T08:09:39.664Z</time></trkpt><trkpt lat="33.9071293" lon="8.0516029"><ele>154.0</ele><time>2026-04-30T08:09:40.698Z</time></trkpt><trkpt lat="33.9070782" lon="8.051359"><ele>154.33333333333334</ele><time>2026-04-30T08:09:41.675Z</time></trkpt><trkpt lat="33.9070289" lon="8.0511108"><ele>154.66666666666666</ele><time>2026-04-30T08:09:42.667Z</time></trkpt><trkpt lat="33.9069719" lon="8.0508636"><ele>155.0</ele><time>2026-04-30T08:09:43.669Z</time></trkpt><trkpt lat="33.9069202" lon="8.0506113"><ele>155.0</ele><time>2026-04-30T08:09:44.665Z</time></trkpt><trkpt lat="33.9068681" lon="8.0503706"><ele>155.0</ele><time>2026-04-30T08:09:45.666Z</time></trkpt><trkpt lat="33.9068151" lon="8.0501235"><ele>155.0</ele><time>2026-04-30T08:09:46.672Z</time></trkpt><trkpt lat="33.9067581" lon="8.0498786"><ele>156.0</ele><time>2026-04-30T08:09:47.677Z</time></trkpt><trkpt lat="33.9067076" lon="8.0496389"><ele>157.0</ele><time>2026-04-30T08:09:48.674Z</time></trkpt><trkpt lat="33.9066527" lon="8.049391"><ele>158.0</ele><time>2026-04-30T08:09:49.673Z</time></trkpt><trkpt lat="33.9066025" lon="8.0491492"><ele>158.33333333333331</ele><time>2026-04-30T08:09:50.715Z</time></trkpt><trkpt lat="33.9065432" lon="8.0489034"><ele>158.66666666666666</ele><time>2026-04-30T08:09:51.695Z</time></trkpt><trkpt lat="33.9064923" lon="8.0486561"><ele>159.0</ele><time>2026-04-30T08:09:52.677Z</time></trkpt><trkpt lat="33.9064347" lon="8.0484115"><ele>158.66666666666666</ele><time>2026-04-30T08:09:53.675Z</time></trkpt><trkpt lat="33.9063843" lon="8.0481676"><ele>158.33333333333331</ele><time>2026-04-30T08:09:54.677Z</time></trkpt><trkpt lat="33.9063308" lon="8.0479203"><ele>158.0</ele><time>2026-04-30T08:09:55.675Z</time></trkpt><trkpt lat="33.9062747" lon="8.0476754"><ele>157.0</ele><time>2026-04-30T08:09:56.676Z</time></trkpt><trkpt lat="33.9062215" lon="8.047428"><ele>156.0</ele><time>2026-04-30T08:09:57.685Z</time></trkpt><trkpt lat="33.9061673" lon="8.0471805"><ele>155.0</ele><time>2026-04-30T08:09:58.671Z</time></trkpt><trkpt lat="33.9061145" lon="8.0469383"><ele>155.0</ele><time>2026-04-30T08:09:59.675Z</time></trkpt><trkpt lat="33.9060588" lon="8.0466905"><ele>155.0</ele><time>2026-04-30T08:10:00.666Z</time></trkpt><trkpt lat="33.906009" lon="8.0464455"><ele>155.0</ele><time>2026-04-30T08:10:01.666Z</time></trkpt><trkpt lat="33.9059611" lon="8.0461976"><ele>155.66666666666666</ele><time>2026-04-30T08:10:02.672Z</time></trkpt><trkpt lat="33.9059063" lon="8.0459526"><ele>156.33333333333334</ele><time>2026-04-30T08:10:03.674Z</time></trkpt><trkpt lat="33.9058448" lon="8.0457066"><ele>157.0</ele><time>2026-04-30T08:10:04.661Z</time></trkpt><trkpt lat="33.9057885" lon="8.0454602"><ele>157.33333333333334</ele><time>2026-04-30T08:10:05.692Z</time></trkpt><trkpt lat="33.9057351" lon="8.0452164"><ele>157.66666666666666</ele><time>2026-04-30T08:10:06.664Z</time></trkpt><trkpt lat="33.9056805" lon="8.0449735"><ele>158.0</ele><time>2026-04-30T08:10:07.688Z</time></trkpt><trkpt lat="33.9056298" lon="8.0447299"><ele>158.33333333333331</ele><time>2026-04-30T08:10:08.675Z</time></trkpt><trkpt lat="33.9055748" lon="8.0444809"><ele>158.66666666666666</ele><time>2026-04-30T08:10:09.673Z</time></trkpt><trkpt lat="33.9055234" lon="8.0442316"><ele>159.0</ele><time>2026-04-30T08:10:10.677Z</time></trkpt><trkpt lat="33.9054717" lon="8.0439857"><ele>159.0</ele><time>2026-04-30T08:10:11.668Z</time></trkpt><trkpt lat="33.9054177" lon="8.0437401"><ele>159.0</ele><time>2026-04-30T08:10:12.657Z</time></trkpt><trkpt lat="33.9053655" lon="8.0434905"><ele>159.0</ele><time>2026-04-30T08:10:13.674Z</time></trkpt><trkpt lat="33.9053179" lon="8.0432439"><ele>158.66666666666666</ele><time>2026-04-30T08:10:14.668Z</time></trkpt><trkpt lat="33.9052684" lon="8.0429983"><ele>158.33333333333331</ele><time>2026-04-30T08:10:15.67Z</time></trkpt><trkpt lat="33.905216" lon="8.0427496"><ele>158.0</ele><time>2026-04-30T08:10:16.668Z</time></trkpt><trkpt lat="33.9051669" lon="8.0424978"><ele>158.33333333333331</ele><time>2026-04-30T08:10:17.681Z</time></trkpt><trkpt lat="33.9051166" lon="8.0422492"><ele>158.66666666666666</ele><time>2026-04-30T08:10:18.671Z</time></trkpt><trkpt lat="33.905057" lon="8.0420069"><ele>159.0</ele><time>2026-04-30T08:10:19.677Z</time></trkpt><trkpt lat="33.9050033" lon="8.0417635"><ele>158.66666666666666</ele><time>2026-04-30T08:10:20.674Z</time></trkpt><trkpt lat="33.9049547" lon="8.0415212"><ele>158.33333333333331</ele><time>2026-04-30T08:10:21.668Z</time></trkpt><trkpt lat="33.9049006" lon="8.0412755"><ele>158.0</ele><time>2026-04-30T08:10:22.674Z</time></trkpt><trkpt lat="33.90485" lon="8.0410266"><ele>158.33333333333331</ele><time>2026-04-30T08:10:23.678Z</time></trkpt><trkpt lat="33.9047953" lon="8.0407882"><ele>158.66666666666666</ele><time>2026-04-30T08:10:24.679Z</time></trkpt><trkpt lat="33.904739" lon="8.0405367"><ele>159.0</ele><time>2026-04-30T08:10:25.717Z</time></trkpt><trkpt lat="33.9046903" lon="8.0402886"><ele>159.0</ele><time>2026-04-30T08:10:26.675Z</time></trkpt><trkpt lat="33.9046376" lon="8.0400408"><ele>159.0</ele><time>2026-04-30T08:10:27.672Z</time></trkpt><trkpt lat="33.9045887" lon="8.0397952"><ele>159.0</ele><time>2026-04-30T08:10:28.668Z</time></trkpt><trkpt lat="33.9045365" lon="8.0395449"><ele>159.0</ele><time>2026-04-30T08:10:29.676Z</time></trkpt><trkpt lat="33.904485" lon="8.0393033"><ele>159.0</ele><time>2026-04-30T08:10:30.69Z</time></trkpt><trkpt lat="33.9044318" lon="8.0390547"><ele>159.0</ele><time>2026-04-30T08:10:31.68Z</time></trkpt><trkpt lat="33.9043858" lon="8.0388119"><ele>158.66666666666666</ele><time>2026-04-30T08:10:32.686Z</time></trkpt><trkpt lat="33.9043365" lon="8.0385642"><ele>158.33333333333331</ele><time>2026-04-30T08:10:33.67Z</time></trkpt><trkpt lat="33.9042844" lon="8.0383204"><ele>158.0</ele><time>2026-04-30T08:10:34.673Z</time></trkpt><trkpt lat="33.9042342" lon="8.0380807"><ele>157.0</ele><time>2026-04-30T08:10:35.669Z</time></trkpt><trkpt lat="33.9041805" lon="8.0378385"><ele>156.0</ele><time>2026-04-30T08:10:36.664Z</time></trkpt><trkpt lat="33.9041238" lon="8.0375937"><ele>155.0</ele><time>2026-04-30T08:10:37.673Z</time></trkpt><trkpt lat="33.9040658" lon="8.0373463"><ele>154.66666666666666</ele><time>2026-04-30T08:10:38.69Z</time></trkpt><trkpt lat="33.9040147" lon="8.0371002"><ele>154.33333333333334</ele><time>2026-04-30T08:10:39.67Z</time></trkpt><trkpt lat="33.9039588" lon="8.0368518"><ele>154.0</ele><time>2026-04-30T08:10:40.672Z</time></trkpt><trkpt lat="33.9039075" lon="8.0366052"><ele>153.66666666666669</ele><time>2026-04-30T08:10:41.666Z</time></trkpt><trkpt lat="33.9038554" lon="8.0363647"><ele>153.33333333333334</ele><time>2026-04-30T08:10:42.66Z</time></trkpt><trkpt lat="33.9038017" lon="8.036117"><ele>153.0</ele><time>2026-04-30T08:10:43.673Z</time></trkpt><trkpt lat="33.9037503" lon="8.03587"><ele>152.33333333333334</ele><time>2026-04-30T08:10:44.671Z</time></trkpt><trkpt lat="33.9036973" lon="8.0356232"><ele>151.66666666666669</ele><time>2026-04-30T08:10:45.666Z</time></trkpt><trkpt lat="33.9036431" lon="8.0353755"><ele>151.0</ele><time>2026-04-30T08:10:46.67Z</time></trkpt><trkpt lat="33.9035934" lon="8.0351245"><ele>151.66666666666669</ele><time>2026-04-30T08:10:47.671Z</time></trkpt><trkpt lat="33.9035383" lon="8.0348786"><ele>152.33333333333334</ele><time>2026-04-30T08:10:48.672Z</time></trkpt><trkpt lat="33.9034871" lon="8.0346283"><ele>153.0</ele><time>2026-04-30T08:10:49.671Z</time></trkpt><trkpt lat="33.9034391" lon="8.0343782"><ele>153.0</ele><time>2026-04-30T08:10:50.673Z</time></trkpt><trkpt lat="33.9033807" lon="8.0341345"><ele>153.0</ele><time>2026-04-30T08:10:51.673Z</time></trkpt><trkpt lat="33.9033243" lon="8.0338899"><ele>153.0</ele><time>2026-04-30T08:10:52.672Z</time></trkpt><trkpt lat="33.9032703" lon="8.0336526"><ele>153.0</ele><time>2026-04-30T08:10:53.682Z</time></trkpt><trkpt lat="33.9032173" lon="8.0334079"><ele>153.0</ele><time>2026-04-30T08:10:54.661Z</time></trkpt><trkpt lat="33.9031658" lon="8.0331613"><ele>153.0</ele><time>2026-04-30T08:10:55.671Z</time></trkpt><trkpt lat="33.9031093" lon="8.0329142"><ele>152.66666666666666</ele><time>2026-04-30T08:10:56.684Z</time></trkpt><trkpt lat="33.9030569" lon="8.0326674"><ele>152.33333333333331</ele><time>2026-04-30T08:10:57.666Z</time></trkpt><trkpt lat="33.9030067" lon="8.0324189"><ele>152.0</ele><time>2026-04-30T08:10:58.676Z</time></trkpt><trkpt lat="33.9029539" lon="8.0321739"><ele>152.66666666666666</ele><time>2026-04-30T08:10:59.67Z</time></trkpt><trkpt lat="33.9029027" lon="8.0319233"><ele>153.33333333333334</ele><time>2026-04-30T08:11:00.674Z</time></trkpt><trkpt lat="33.9028529" lon="8.031681"><ele>154.0</ele><time>2026-04-30T08:11:01.67Z</time></trkpt><trkpt lat="33.9027998" lon="8.0314347"><ele>154.33333333333334</ele><time>2026-04-30T08:11:02.668Z</time></trkpt><trkpt lat="33.9027486" lon="8.0311964"><ele>154.66666666666666</ele><time>2026-04-30T08:11:03.672Z</time></trkpt><trkpt lat="33.9026948" lon="8.0309454"><ele>155.0</ele><time>2026-04-30T08:11:04.669Z</time></trkpt><trkpt lat="33.9026426" lon="8.0307013"><ele>155.33333333333331</ele><time>2026-04-30T08:11:05.671Z</time></trkpt><trkpt lat="33.9025944" lon="8.0304558"><ele>155.66666666666666</ele><time>2026-04-30T08:11:06.667Z</time></trkpt><trkpt lat="33.9025405" lon="8.030211"><ele>156.0</ele><time>2026-04-30T08:11:07.669Z</time></trkpt><trkpt lat="33.9024891" lon="8.0299559"><ele>156.0</ele><time>2026-04-30T08:11:08.669Z</time></trkpt><trkpt lat="33.9024395" lon="8.0297096"><ele>156.0</ele><time>2026-04-30T08:11:09.672Z</time></trkpt><trkpt lat="33.9023898" lon="8.0294648"><ele>156.0</ele><time>2026-04-30T08:11:10.676Z</time></trkpt><trkpt lat="33.9023353" lon="8.0292224"><ele>156.0</ele><time>2026-04-30T08:11:11.675Z</time></trkpt><trkpt lat="33.9022789" lon="8.0289745"><ele>156.0</ele><time>2026-04-30T08:11:12.658Z</time></trkpt><trkpt lat="33.9022236" lon="8.028734"><ele>156.0</ele><time>2026-04-30T08:11:13.682Z</time></trkpt><trkpt lat="33.902169" lon="8.0284885"><ele>156.33333333333334</ele><time>2026-04-30T08:11:14.666Z</time></trkpt><trkpt lat="33.9021171" lon="8.0282426"><ele>156.66666666666669</ele><time>2026-04-30T08:11:15.667Z</time></trkpt><trkpt lat="33.9020647" lon="8.0279938"><ele>157.0</ele><time>2026-04-30T08:11:16.667Z</time></trkpt><trkpt lat="33.9020151" lon="8.0277471"><ele>157.0</ele><time>2026-04-30T08:11:17.678Z</time></trkpt><trkpt lat="33.9019654" lon="8.0274948"><ele>157.0</ele><time>2026-04-30T08:11:18.664Z</time></trkpt><trkpt lat="33.9019144" lon="8.0272498"><ele>157.0</ele><time>2026-04-30T08:11:19.664Z</time></trkpt><trkpt lat="33.9018641" lon="8.0270017"><ele>158.0</ele><time>2026-04-30T08:11:20.67Z</time></trkpt><trkpt lat="33.9018123" lon="8.0267588"><ele>159.0</ele><time>2026-04-30T08:11:21.66Z</time></trkpt><trkpt lat="33.9017575" lon="8.0265148"><ele>160.0</ele><time>2026-04-30T08:11:22.679Z</time></trkpt><trkpt lat="33.9017056" lon="8.0262637"><ele>160.33333333333334</ele><time>2026-04-30T08:11:23.68Z</time></trkpt><trkpt lat="33.9016573" lon="8.0260194"><ele>160.66666666666666</ele><time>2026-04-30T08:11:24.678Z</time></trkpt><trkpt lat="33.9016012" lon="8.0257752"><ele>161.0</ele><time>2026-04-30T08:11:25.663Z</time></trkpt><trkpt lat="33.9015495" lon="8.0255274"><ele>161.0</ele><time>2026-04-30T08:11:26.668Z</time></trkpt><trkpt lat="33.9014956" lon="8.0252839"><ele>161.0</ele><time>2026-04-30T08:11:27.679Z</time></trkpt><trkpt lat="33.9014426" lon="8.0250395"><ele>161.0</ele><time>2026-04-30T08:11:28.674Z</time></trkpt><trkpt lat="33.9013885" lon="8.0247946"><ele>161.0</ele><time>2026-04-30T08:11:29.682Z</time></trkpt><trkpt lat="33.9013316" lon="8.0245495"><ele>161.0</ele><time>2026-04-30T08:11:30.672Z</time></trkpt><trkpt lat="33.9012755" lon="8.0243077"><ele>161.0</ele><time>2026-04-30T08:11:31.671Z</time></trkpt><trkpt lat="33.901221" lon="8.0240656"><ele>162.33333333333331</ele><time>2026-04-30T08:11:32.676Z</time></trkpt><trkpt lat="33.9011696" lon="8.0238206"><ele>163.66666666666666</ele><time>2026-04-30T08:11:33.675Z</time></trkpt><trkpt lat="33.9011183" lon="8.0235748"><ele>165.0</ele><time>2026-04-30T08:11:34.671Z</time></trkpt><trkpt lat="33.9010655" lon="8.0233338"><ele>165.0</ele><time>2026-04-30T08:11:35.671Z</time></trkpt><trkpt lat="33.9010108" lon="8.0230846"><ele>165.0</ele><time>2026-04-30T08:11:36.669Z</time></trkpt><trkpt lat="33.9009627" lon="8.0228328"><ele>165.0</ele><time>2026-04-30T08:11:37.673Z</time></trkpt><trkpt lat="33.9009122" lon="8.0225845"><ele>164.0</ele><time>2026-04-30T08:11:38.669Z</time></trkpt><trkpt lat="33.90086" lon="8.0223329"><ele>163.0</ele><time>2026-04-30T08:11:39.661Z</time></trkpt><trkpt lat="33.9008038" lon="8.0220828"><ele>162.0</ele><time>2026-04-30T08:11:40.67Z</time></trkpt><trkpt lat="33.9007507" lon="8.021834"><ele>163.0</ele><time>2026-04-30T08:11:41.669Z</time></trkpt><trkpt lat="33.9007008" lon="8.0215912"><ele>164.0</ele><time>2026-04-30T08:11:42.666Z</time></trkpt><trkpt lat="33.9006471" lon="8.0213461"><ele>165.0</ele><time>2026-04-30T08:11:43.664Z</time></trkpt><trkpt lat="33.9005937" lon="8.0211031"><ele>165.0</ele><time>2026-04-30T08:11:44.669Z</time></trkpt><trkpt lat="33.9005402" lon="8.0208562"><ele>165.0</ele><time>2026-04-30T08:11:45.676Z</time></trkpt><trkpt lat="33.9004881" lon="8.0206133"><ele>165.0</ele><time>2026-04-30T08:11:46.67Z</time></trkpt><trkpt lat="33.9004364" lon="8.0203706"><ele>165.33333333333334</ele><time>2026-04-30T08:11:47.668Z</time></trkpt><trkpt lat="33.9003867" lon="8.020128"><ele>165.66666666666669</ele><time>2026-04-30T08:11:48.673Z</time></trkpt><trkpt lat="33.9003322" lon="8.0198829"><ele>166.0</ele><time>2026-04-30T08:11:49.665Z</time></trkpt><trkpt lat="33.9002816" lon="8.019638"><ele>165.33333333333334</ele><time>2026-04-30T08:11:50.679Z</time></trkpt><trkpt lat="33.9002255" lon="8.0193892"><ele>164.66666666666666</ele><time>2026-04-30T08:11:51.674Z</time></trkpt><trkpt lat="33.9001757" lon="8.0191459"><ele>164.0</ele><time>2026-04-30T08:11:52.675Z</time></trkpt><trkpt lat="33.9001249" lon="8.0189016"><ele>163.66666666666666</ele><time>2026-04-30T08:11:53.67Z</time></trkpt><trkpt lat="33.9000737" lon="8.0186566"><ele>163.33333333333334</ele><time>2026-04-30T08:11:54.67Z</time></trkpt><trkpt lat="33.9000211" lon="8.0184095"><ele>163.0</ele><time>2026-04-30T08:11:55.673Z</time></trkpt><trkpt lat="33.8999674" lon="8.0181627"><ele>163.0</ele><time>2026-04-30T08:11:56.666Z</time></trkpt><trkpt lat="33.8999159" lon="8.0179168"><ele>163.0</ele><time>2026-04-30T08:11:57.675Z</time></trkpt><trkpt lat="33.8998663" lon="8.0176641"><ele>163.0</ele><time>2026-04-30T08:11:58.669Z</time></trkpt><trkpt lat="33.8998121" lon="8.0174138"><ele>163.0</ele><time>2026-04-30T08:11:59.668Z</time></trkpt><trkpt lat="33.8997585" lon="8.0171657"><ele>163.0</ele><time>2026-04-30T08:12:00.675Z</time></trkpt><trkpt lat="33.8997072" lon="8.0169211"><ele>163.0</ele><time>2026-04-30T08:12:01.671Z</time></trkpt><trkpt lat="33.8996498" lon="8.0166724"><ele>163.66666666666669</ele><time>2026-04-30T08:12:02.669Z</time></trkpt><trkpt lat="33.8995998" lon="8.016422"><ele>164.33333333333334</ele><time>2026-04-30T08:12:03.655Z</time></trkpt><trkpt lat="33.8995463" lon="8.0161755"><ele>165.0</ele><time>2026-04-30T08:12:04.663Z</time></trkpt><trkpt lat="33.8994931" lon="8.01593"><ele>165.33333333333334</ele><time>2026-04-30T08:12:05.67Z</time></trkpt><trkpt lat="33.8994386" lon="8.0156867"><ele>165.66666666666669</ele><time>2026-04-30T08:12:06.669Z</time></trkpt><trkpt lat="33.8993838" lon="8.0154439"><ele>166.0</ele><time>2026-04-30T08:12:07.672Z</time></trkpt><trkpt lat="33.8993342" lon="8.0152004"><ele>165.66666666666669</ele><time>2026-04-30T08:12:08.675Z</time></trkpt><trkpt lat="33.8992803" lon="8.0149543"><ele>165.33333333333334</ele><time>2026-04-30T08:12:09.673Z</time></trkpt><trkpt lat="33.899229" lon="8.0147088"><ele>165.0</ele><time>2026-04-30T08:12:10.68Z</time></trkpt><trkpt lat="33.8991825" lon="8.0144674"><ele>164.66666666666666</ele><time>2026-04-30T08:12:11.664Z</time></trkpt><trkpt lat="33.8991339" lon="8.0142211"><ele>164.33333333333331</ele><time>2026-04-30T08:12:12.658Z</time></trkpt><trkpt lat="33.8990834" lon="8.0139732"><ele>164.0</ele><time>2026-04-30T08:12:13.671Z</time></trkpt><trkpt lat="33.8990299" lon="8.0137215"><ele>164.33333333333331</ele><time>2026-04-30T08:12:14.669Z</time></trkpt><trkpt lat="33.8989802" lon="8.0134745"><ele>164.66666666666666</ele><time>2026-04-30T08:12:15.668Z</time></trkpt><trkpt lat="33.8989274" lon="8.0132243"><ele>165.0</ele><time>2026-04-30T08:12:16.663Z</time></trkpt><trkpt lat="33.8988783" lon="8.0129764"><ele>165.0</ele><time>2026-04-30T08:12:17.677Z</time></trkpt><trkpt lat="33.8988261" lon="8.0127321"><ele>165.0</ele><time>2026-04-30T08:12:18.671Z</time></trkpt><trkpt lat="33.8987692" lon="8.0124841"><ele>165.0</ele><time>2026-04-30T08:12:19.691Z</time></trkpt><trkpt lat="33.8987129" lon="8.0122404"><ele>165.0</ele><time>2026-04-30T08:12:20.669Z</time></trkpt><trkpt lat="33.8986596" lon="8.0119931"><ele>165.0</ele><time>2026-04-30T08:12:21.673Z</time></trkpt><trkpt lat="33.898609" lon="8.0117459"><ele>165.0</ele><time>2026-04-30T08:12:22.668Z</time></trkpt><trkpt lat="33.8985562" lon="8.0115045"><ele>164.66666666666666</ele><time>2026-04-30T08:12:23.667Z</time></trkpt><trkpt lat="33.8985021" lon="8.0112594"><ele>164.33333333333331</ele><time>2026-04-30T08:12:24.668Z</time></trkpt><trkpt lat="33.8984521" lon="8.0110153"><ele>164.0</ele><time>2026-04-30T08:12:25.667Z</time></trkpt><trkpt lat="33.8983974" lon="8.0107689"><ele>163.33333333333331</ele><time>2026-04-30T08:12:26.686Z</time></trkpt><trkpt lat="33.8983476" lon="8.010529"><ele>162.66666666666666</ele><time>2026-04-30T08:12:27.665Z</time></trkpt><trkpt lat="33.8982931" lon="8.01028"><ele>162.0</ele><time>2026-04-30T08:12:28.674Z</time></trkpt><trkpt lat="33.8982436" lon="8.0100328"><ele>162.0</ele><time>2026-04-30T08:12:29.669Z</time></trkpt><trkpt lat="33.8981893" lon="8.0097889"><ele>162.0</ele><time>2026-04-30T08:12:30.671Z</time></trkpt><trkpt lat="33.8981363" lon="8.0095401"><ele>162.0</ele><time>2026-04-30T08:12:31.67Z</time></trkpt><trkpt lat="33.8980803" lon="8.0092933"><ele>162.0</ele><time>2026-04-30T08:12:32.672Z</time></trkpt><trkpt lat="33.8980182" lon="8.0090425"><ele>162.0</ele><time>2026-04-30T08:12:33.671Z</time></trkpt><trkpt lat="33.8979651" lon="8.0088008"><ele>162.0</ele><time>2026-04-30T08:12:34.663Z</time></trkpt><trkpt lat="33.897912" lon="8.0085577"><ele>162.0</ele><time>2026-04-30T08:12:35.666Z</time></trkpt><trkpt lat="33.8978563" lon="8.0083142"><ele>162.0</ele><time>2026-04-30T08:12:36.664Z</time></trkpt><trkpt lat="33.8977958" lon="8.0080707"><ele>162.0</ele><time>2026-04-30T08:12:37.669Z</time></trkpt><trkpt lat="33.8977431" lon="8.0078174"><ele>162.0</ele><time>2026-04-30T08:12:38.664Z</time></trkpt><trkpt lat="33.8976844" lon="8.0075732"><ele>162.0</ele><time>2026-04-30T08:12:39.663Z</time></trkpt><trkpt lat="33.897631" lon="8.0073216"><ele>162.0</ele><time>2026-04-30T08:12:40.677Z</time></trkpt><trkpt lat="33.8975818" lon="8.0070767"><ele>162.0</ele><time>2026-04-30T08:12:41.669Z</time></trkpt><trkpt lat="33.8975279" lon="8.0068302"><ele>162.0</ele><time>2026-04-30T08:12:42.664Z</time></trkpt><trkpt lat="33.8974776" lon="8.0065876"><ele>162.0</ele><time>2026-04-30T08:12:43.663Z</time></trkpt><trkpt lat="33.8974207" lon="8.0063455"><ele>162.0</ele><time>2026-04-30T08:12:44.676Z</time></trkpt><trkpt lat="33.8973701" lon="8.0061031"><ele>162.0</ele><time>2026-04-30T08:12:45.663Z</time></trkpt><trkpt lat="33.8973211" lon="8.0058538"><ele>162.0</ele><time>2026-04-30T08:12:46.667Z</time></trkpt><trkpt lat="33.8972731" lon="8.0056055"><ele>161.0</ele><time>2026-04-30T08:12:47.673Z</time></trkpt><trkpt lat="33.8972202" lon="8.0053562"><ele>160.0</ele><time>2026-04-30T08:12:48.677Z</time></trkpt><trkpt lat="33.897169" lon="8.0051047"><ele>159.0</ele><time>2026-04-30T08:12:49.666Z</time></trkpt><trkpt lat="33.8971198" lon="8.0048562"><ele>158.0</ele><time>2026-04-30T08:12:50.662Z</time></trkpt><trkpt lat="33.8970674" lon="8.0046068"><ele>157.0</ele><time>2026-04-30T08:12:51.698Z</time></trkpt><trkpt lat="33.8970146" lon="8.004362"><ele>156.0</ele><time>2026-04-30T08:12:52.671Z</time></trkpt><trkpt lat="33.896968" lon="8.0041112"><ele>156.0</ele><time>2026-04-30T08:12:53.672Z</time></trkpt><trkpt lat="33.8969166" lon="8.0038653"><ele>156.0</ele><time>2026-04-30T08:12:54.672Z</time></trkpt><trkpt lat="33.8968628" lon="8.0036161"><ele>156.0</ele><time>2026-04-30T08:12:55.676Z</time></trkpt><trkpt lat="33.8968078" lon="8.0033698"><ele>155.66666666666666</ele><time>2026-04-30T08:12:56.67Z</time></trkpt><trkpt lat="33.8967488" lon="8.0031245"><ele>155.33333333333331</ele><time>2026-04-30T08:12:57.672Z</time></trkpt><trkpt lat="33.8967015" lon="8.0028802"><ele>155.0</ele><time>2026-04-30T08:12:58.67Z</time></trkpt><trkpt lat="33.8966507" lon="8.0026401"><ele>154.66666666666666</ele><time>2026-04-30T08:12:59.671Z</time></trkpt><trkpt lat="33.896598" lon="8.0023956"><ele>154.33333333333334</ele><time>2026-04-30T08:13:00.675Z</time></trkpt><trkpt lat="33.8965415" lon="8.002154"><ele>154.0</ele><time>2026-04-30T08:13:01.676Z</time></trkpt><trkpt lat="33.896486" lon="8.001902"><ele>154.33333333333334</ele><time>2026-04-30T08:13:02.67Z</time></trkpt><trkpt lat="33.8964273" lon="8.0016558"><ele>154.66666666666666</ele><time>2026-04-30T08:13:03.676Z</time></trkpt><trkpt lat="33.8963702" lon="8.0014107"><ele>155.0</ele><time>2026-04-30T08:13:04.666Z</time></trkpt><trkpt lat="33.8963176" lon="8.0011691"><ele>155.0</ele><time>2026-04-30T08:13:05.667Z</time></trkpt><trkpt lat="33.8962674" lon="8.0009266"><ele>155.0</ele><time>2026-04-30T08:13:06.663Z</time></trkpt><trkpt lat="33.8962189" lon="8.0006859"><ele>155.0</ele><time>2026-04-30T08:13:07.671Z</time></trkpt><trkpt lat="33.8961674" lon="8.0004425"><ele>155.33333333333331</ele><time>2026-04-30T08:13:08.674Z</time></trkpt><trkpt lat="33.8961146" lon="8.000191"><ele>155.66666666666666</ele><time>2026-04-30T08:13:09.673Z</time></trkpt><trkpt lat="33.8960599" lon="7.9999402"><ele>156.0</ele><time>2026-04-30T08:13:10.677Z</time></trkpt><trkpt lat="33.8960084" lon="7.9996951"><ele>156.0</ele><time>2026-04-30T08:13:11.668Z</time></trkpt><trkpt lat="33.8959552" lon="7.9994524"><ele>156.0</ele><time>2026-04-30T08:13:12.665Z</time></trkpt><trkpt lat="33.8959006" lon="7.9992056"><ele>156.0</ele><time>2026-04-30T08:13:13.666Z</time></trkpt><trkpt lat="33.8958449" lon="7.9989581"><ele>155.66666666666666</ele><time>2026-04-30T08:13:14.671Z</time></trkpt><trkpt lat="33.8957947" lon="7.9987149"><ele>155.33333333333331</ele><time>2026-04-30T08:13:15.665Z</time></trkpt><trkpt lat="33.8957434" lon="7.9984662"><ele>155.0</ele><time>2026-04-30T08:13:16.665Z</time></trkpt><trkpt lat="33.8956956" lon="7.9982216"><ele>154.33333333333331</ele><time>2026-04-30T08:13:17.668Z</time></trkpt><trkpt lat="33.8956399" lon="7.9979743"><ele>153.66666666666666</ele><time>2026-04-30T08:13:18.669Z</time></trkpt><trkpt lat="33.8955843" lon="7.9977268"><ele>153.0</ele><time>2026-04-30T08:13:19.673Z</time></trkpt><trkpt lat="33.8955324" lon="7.9974828"><ele>153.0</ele><time>2026-04-30T08:13:20.668Z</time></trkpt><trkpt lat="33.8954774" lon="7.997241"><ele>153.0</ele><time>2026-04-30T08:13:21.679Z</time></trkpt><trkpt lat="33.8954256" lon="7.9969972"><ele>153.0</ele><time>2026-04-30T08:13:22.676Z</time></trkpt><trkpt lat="33.8953774" lon="7.9967517"><ele>153.33333333333334</ele><time>2026-04-30T08:13:23.678Z</time></trkpt><trkpt lat="33.8953266" lon="7.9965054"><ele>153.66666666666669</ele><time>2026-04-30T08:13:24.67Z</time></trkpt><trkpt lat="33.8952732" lon="7.9962573"><ele>154.0</ele><time>2026-04-30T08:13:25.707Z</time></trkpt><trkpt lat="33.8952243" lon="7.9960114"><ele>154.66666666666669</ele><time>2026-04-30T08:13:26.683Z</time></trkpt><trkpt lat="33.8951736" lon="7.9957637"><ele>155.33333333333334</ele><time>2026-04-30T08:13:27.669Z</time></trkpt><trkpt lat="33.8951157" lon="7.9955207"><ele>156.0</ele><time>2026-04-30T08:13:28.676Z</time></trkpt><trkpt lat="33.8950599" lon="7.9952782"><ele>155.33333333333334</ele><time>2026-04-30T08:13:29.676Z</time></trkpt><trkpt lat="33.8950028" lon="7.9950322"><ele>154.66666666666669</ele><time>2026-04-30T08:13:30.682Z</time></trkpt><trkpt lat="33.8949506" lon="7.9947907"><ele>154.0</ele><time>2026-04-30T08:13:31.68Z</time></trkpt><trkpt lat="33.8948971" lon="7.994547"><ele>154.0</ele><time>2026-04-30T08:13:32.67Z</time></trkpt><trkpt lat="33.8948447" lon="7.9942987"><ele>154.0</ele><time>2026-04-30T08:13:33.672Z</time></trkpt><trkpt lat="33.8947859" lon="7.9940492"><ele>154.0</ele><time>2026-04-30T08:13:34.667Z</time></trkpt><trkpt lat="33.8947348" lon="7.9937967"><ele>153.66666666666669</ele><time>2026-04-30T08:13:35.696Z</time></trkpt><trkpt lat="33.8946838" lon="7.993547"><ele>153.33333333333334</ele><time>2026-04-30T08:13:36.672Z</time></trkpt><trkpt lat="33.8946339" lon="7.9933016"><ele>153.0</ele><time>2026-04-30T08:13:37.671Z</time></trkpt><trkpt lat="33.8945807" lon="7.9930509"><ele>153.0</ele><time>2026-04-30T08:13:38.679Z</time></trkpt><trkpt lat="33.8945293" lon="7.9928009"><ele>153.0</ele><time>2026-04-30T08:13:39.675Z</time></trkpt><trkpt lat="33.8944789" lon="7.9925528"><ele>153.0</ele><time>2026-04-30T08:13:40.674Z</time></trkpt><trkpt lat="33.8944248" lon="7.9923035"><ele>152.66666666666666</ele><time>2026-04-30T08:13:41.671Z</time></trkpt><trkpt lat="33.8943731" lon="7.9920545"><ele>152.33333333333331</ele><time>2026-04-30T08:13:42.666Z</time></trkpt><trkpt lat="33.8943165" lon="7.9918104"><ele>152.0</ele><time>2026-04-30T08:13:43.677Z</time></trkpt><trkpt lat="33.8942607" lon="7.9915646"><ele>150.66666666666666</ele><time>2026-04-30T08:13:44.679Z</time></trkpt><trkpt lat="33.8942063" lon="7.9913245"><ele>149.33333333333334</ele><time>2026-04-30T08:13:45.673Z</time></trkpt><trkpt lat="33.8941549" lon="7.9910813"><ele>148.0</ele><time>2026-04-30T08:13:46.663Z</time></trkpt><trkpt lat="33.8941042" lon="7.9908415"><ele>148.0</ele><time>2026-04-30T08:13:47.68Z</time></trkpt><trkpt lat="33.8940546" lon="7.9905941"><ele>148.0</ele><time>2026-04-30T08:13:48.666Z</time></trkpt><trkpt lat="33.8939987" lon="7.9903494"><ele>148.0</ele><time>2026-04-30T08:13:49.663Z</time></trkpt><trkpt lat="33.8939481" lon="7.9901002"><ele>147.66666666666669</ele><time>2026-04-30T08:13:50.665Z</time></trkpt><trkpt lat="33.8938953" lon="7.9898508"><ele>147.33333333333334</ele><time>2026-04-30T08:13:51.681Z</time></trkpt><trkpt lat="33.8938412" lon="7.9896079"><ele>147.0</ele><time>2026-04-30T08:13:52.678Z</time></trkpt><trkpt lat="33.8937882" lon="7.9893581"><ele>147.0</ele><time>2026-04-30T08:13:53.665Z</time></trkpt><trkpt lat="33.8937363" lon="7.9891088"><ele>147.0</ele><time>2026-04-30T08:13:54.675Z</time></trkpt><trkpt lat="33.8936822" lon="7.9888598"><ele>147.0</ele><time>2026-04-30T08:13:55.673Z</time></trkpt><trkpt lat="33.8936261" lon="7.9886135"><ele>147.0</ele><time>2026-04-30T08:13:56.665Z</time></trkpt><trkpt lat="33.8935736" lon="7.9883719"><ele>147.0</ele><time>2026-04-30T08:13:57.669Z</time></trkpt><trkpt lat="33.8935125" lon="7.9881243"><ele>147.0</ele><time>2026-04-30T08:13:58.668Z</time></trkpt><trkpt lat="33.8934641" lon="7.9878824"><ele>146.0</ele><time>2026-04-30T08:13:59.675Z</time></trkpt><trkpt lat="33.8934063" lon="7.9876334"><ele>145.0</ele><time>2026-04-30T08:14:00.668Z</time></trkpt><trkpt lat="33.8933541" lon="7.9873848"><ele>144.0</ele><time>2026-04-30T08:14:01.675Z</time></trkpt><trkpt lat="33.8933041" lon="7.9871386"><ele>144.0</ele><time>2026-04-30T08:14:02.67Z</time></trkpt><trkpt lat="33.8932539" lon="7.9868918"><ele>144.0</ele><time>2026-04-30T08:14:03.681Z</time></trkpt><trkpt lat="33.8931986" lon="7.9866447"><ele>144.0</ele><time>2026-04-30T08:14:04.679Z</time></trkpt><trkpt lat="33.8931461" lon="7.9863979"><ele>143.66666666666666</ele><time>2026-04-30T08:14:05.68Z</time></trkpt><trkpt lat="33.8930909" lon="7.9861477"><ele>143.33333333333331</ele><time>2026-04-30T08:14:06.683Z</time></trkpt><trkpt lat="33.8930409" lon="7.9858998"><ele>143.0</ele><time>2026-04-30T08:14:07.672Z</time></trkpt><trkpt lat="33.8929842" lon="7.9856493"><ele>143.0</ele><time>2026-04-30T08:14:08.678Z</time></trkpt><trkpt lat="33.8929363" lon="7.9854017"><ele>143.0</ele><time>2026-04-30T08:14:09.678Z</time></trkpt><trkpt lat="33.892883" lon="7.9851622"><ele>143.0</ele><time>2026-04-30T08:14:10.674Z</time></trkpt><trkpt lat="33.8928272" lon="7.9849217"><ele>143.0</ele><time>2026-04-30T08:14:11.675Z</time></trkpt><trkpt lat="33.8927704" lon="7.9846762"><ele>143.0</ele><time>2026-04-30T08:14:12.671Z</time></trkpt><trkpt lat="33.892721" lon="7.9844296"><ele>143.0</ele><time>2026-04-30T08:14:13.678Z</time></trkpt><trkpt lat="33.8926708" lon="7.9841846"><ele>142.66666666666666</ele><time>2026-04-30T08:14:14.676Z</time></trkpt><trkpt lat="33.892616" lon="7.9839423"><ele>142.33333333333334</ele><time>2026-04-30T08:14:15.672Z</time></trkpt><trkpt lat="33.8925688" lon="7.9836988"><ele>142.0</ele><time>2026-04-30T08:14:16.66Z</time></trkpt><trkpt lat="33.8925179" lon="7.9834538"><ele>142.0</ele><time>2026-04-30T08:14:17.676Z</time></trkpt><trkpt lat="33.8924649" lon="7.9832131"><ele>142.0</ele><time>2026-04-30T08:14:18.671Z</time></trkpt><trkpt lat="33.892414" lon="7.9829662"><ele>142.0</ele><time>2026-04-30T08:14:19.677Z</time></trkpt><trkpt lat="33.8923616" lon="7.9827217"><ele>142.66666666666669</ele><time>2026-04-30T08:14:20.674Z</time></trkpt><trkpt lat="33.8923039" lon="7.9824782"><ele>143.33333333333334</ele><time>2026-04-30T08:14:21.676Z</time></trkpt><trkpt lat="33.8922511" lon="7.9822324"><ele>144.0</ele><time>2026-04-30T08:14:22.671Z</time></trkpt><trkpt lat="33.8921958" lon="7.9819912"><ele>144.0</ele><time>2026-04-30T08:14:23.667Z</time></trkpt><trkpt lat="33.8921445" lon="7.981742"><ele>144.0</ele><time>2026-04-30T08:14:24.667Z</time></trkpt><trkpt lat="33.8920938" lon="7.9814961"><ele>144.0</ele><time>2026-04-30T08:14:25.664Z</time></trkpt><trkpt lat="33.8920452" lon="7.9812563"><ele>144.66666666666666</ele><time>2026-04-30T08:14:26.67Z</time></trkpt><trkpt lat="33.8919911" lon="7.9810146"><ele>145.33333333333331</ele><time>2026-04-30T08:14:27.666Z</time></trkpt><trkpt lat="33.8919403" lon="7.9807709"><ele>146.0</ele><time>2026-04-30T08:14:28.681Z</time></trkpt><trkpt lat="33.8918883" lon="7.9805264"><ele>146.33333333333331</ele><time>2026-04-30T08:14:29.666Z</time></trkpt><trkpt lat="33.8918423" lon="7.9802856"><ele>146.66666666666666</ele><time>2026-04-30T08:14:30.679Z</time></trkpt><trkpt lat="33.8917905" lon="7.9800403"><ele>147.0</ele><time>2026-04-30T08:14:31.673Z</time></trkpt><trkpt lat="33.8917388" lon="7.9797958"><ele>145.66666666666666</ele><time>2026-04-30T08:14:32.671Z</time></trkpt><trkpt lat="33.8916895" lon="7.9795523"><ele>144.33333333333331</ele><time>2026-04-30T08:14:33.675Z</time></trkpt><trkpt lat="33.8916395" lon="7.9793047"><ele>143.0</ele><time>2026-04-30T08:14:34.675Z</time></trkpt><trkpt lat="33.8915859" lon="7.9790578"><ele>143.0</ele><time>2026-04-30T08:14:35.679Z</time></trkpt><trkpt lat="33.8915316" lon="7.9788099"><ele>143.0</ele><time>2026-04-30T08:14:36.672Z</time></trkpt><trkpt lat="33.8914779" lon="7.9785597"><ele>143.0</ele><time>2026-04-30T08:14:37.677Z</time></trkpt><trkpt lat="33.8914191" lon="7.9783114"><ele>142.66666666666666</ele><time>2026-04-30T08:14:38.67Z</time></trkpt><trkpt lat="33.8913653" lon="7.978059"><ele>142.33333333333334</ele><time>2026-04-30T08:14:39.674Z</time></trkpt><trkpt lat="33.8913105" lon="7.9778115"><ele>142.0</ele><time>2026-04-30T08:14:40.674Z</time></trkpt><trkpt lat="33.8912563" lon="7.9775648"><ele>142.0</ele><time>2026-04-30T08:14:41.668Z</time></trkpt><trkpt lat="33.8912" lon="7.9773176"><ele>142.0</ele><time>2026-04-30T08:14:42.675Z</time></trkpt><trkpt lat="33.8911464" lon="7.9770681"><ele>142.0</ele><time>2026-04-30T08:14:43.668Z</time></trkpt><trkpt lat="33.891092" lon="7.9768222"><ele>142.66666666666669</ele><time>2026-04-30T08:14:44.667Z</time></trkpt><trkpt lat="33.8910368" lon="7.9765767"><ele>143.33333333333334</ele><time>2026-04-30T08:14:45.685Z</time></trkpt><trkpt lat="33.8909852" lon="7.9763299"><ele>144.0</ele><time>2026-04-30T08:14:46.665Z</time></trkpt><trkpt lat="33.8909331" lon="7.9760838"><ele>142.66666666666666</ele><time>2026-04-30T08:14:47.673Z</time></trkpt><trkpt lat="33.8908812" lon="7.9758311"><ele>141.33333333333331</ele><time>2026-04-30T08:14:48.671Z</time></trkpt><trkpt lat="33.8908239" lon="7.9755848"><ele>140.0</ele><time>2026-04-30T08:14:49.673Z</time></trkpt><trkpt lat="33.8907727" lon="7.9753364"><ele>140.0</ele><time>2026-04-30T08:14:50.673Z</time></trkpt><trkpt lat="33.8907195" lon="7.9750924"><ele>140.0</ele><time>2026-04-30T08:14:51.678Z</time></trkpt><trkpt lat="33.8906644" lon="7.9748475"><ele>140.0</ele><time>2026-04-30T08:14:52.679Z</time></trkpt><trkpt lat="33.8906138" lon="7.9746099"><ele>140.66666666666666</ele><time>2026-04-30T08:14:53.682Z</time></trkpt><trkpt lat="33.89056" lon="7.9743651"><ele>141.33333333333334</ele><time>2026-04-30T08:14:54.672Z</time></trkpt><trkpt lat="33.8905096" lon="7.9741144"><ele>142.0</ele><time>2026-04-30T08:14:55.671Z</time></trkpt><trkpt lat="33.8904536" lon="7.9738684"><ele>142.0</ele><time>2026-04-30T08:14:56.671Z</time></trkpt><trkpt lat="33.8904001" lon="7.9736226"><ele>142.0</ele><time>2026-04-30T08:14:57.677Z</time></trkpt><trkpt lat="33.8903449" lon="7.9733738"><ele>142.0</ele><time>2026-04-30T08:14:58.683Z</time></trkpt><trkpt lat="33.8902907" lon="7.9731235"><ele>142.33333333333334</ele><time>2026-04-30T08:14:59.67Z</time></trkpt><trkpt lat="33.8902374" lon="7.972879"><ele>142.66666666666666</ele><time>2026-04-30T08:15:00.673Z</time></trkpt><trkpt lat="33.8901887" lon="7.9726308"><ele>143.0</ele><time>2026-04-30T08:15:01.674Z</time></trkpt><trkpt lat="33.8901326" lon="7.9723828"><ele>141.66666666666666</ele><time>2026-04-30T08:15:02.678Z</time></trkpt><trkpt lat="33.8900752" lon="7.9721418"><ele>140.33333333333334</ele><time>2026-04-30T08:15:03.66Z</time></trkpt><trkpt lat="33.8900215" lon="7.9718959"><ele>139.0</ele><time>2026-04-30T08:15:04.666Z</time></trkpt><trkpt lat="33.8899671" lon="7.9716487"><ele>139.0</ele><time>2026-04-30T08:15:05.661Z</time></trkpt><trkpt lat="33.8899179" lon="7.9714046"><ele>139.0</ele><time>2026-04-30T08:15:06.668Z</time></trkpt><trkpt lat="33.8898646" lon="7.971161"><ele>139.0</ele><time>2026-04-30T08:15:07.67Z</time></trkpt><trkpt lat="33.8898107" lon="7.9709188"><ele>139.33333333333334</ele><time>2026-04-30T08:15:08.672Z</time></trkpt><trkpt lat="33.8897563" lon="7.97067"><ele>139.66666666666666</ele><time>2026-04-30T08:15:09.679Z</time></trkpt><trkpt lat="33.8897093" lon="7.9704182"><ele>140.0</ele><time>2026-04-30T08:15:10.672Z</time></trkpt><trkpt lat="33.8896568" lon="7.9701687"><ele>140.33333333333331</ele><time>2026-04-30T08:15:11.672Z</time></trkpt><trkpt lat="33.8895983" lon="7.9699213"><ele>140.66666666666666</ele><time>2026-04-30T08:15:12.67Z</time></trkpt><trkpt lat="33.8895503" lon="7.9696778"><ele>141.0</ele><time>2026-04-30T08:15:13.673Z</time></trkpt><trkpt lat="33.8894993" lon="7.9694335"><ele>140.66666666666666</ele><time>2026-04-30T08:15:14.676Z</time></trkpt><trkpt lat="33.8894486" lon="7.9691885"><ele>140.33333333333331</ele><time>2026-04-30T08:15:15.672Z</time></trkpt><trkpt lat="33.889398" lon="7.9689382"><ele>140.0</ele><time>2026-04-30T08:15:16.669Z</time></trkpt><trkpt lat="33.8893403" lon="7.9686916"><ele>140.0</ele><time>2026-04-30T08:15:17.672Z</time></trkpt><trkpt lat="33.8892811" lon="7.96845"><ele>140.0</ele><time>2026-04-30T08:15:18.695Z</time></trkpt><trkpt lat="33.889229" lon="7.96821"><ele>140.0</ele><time>2026-04-30T08:15:19.67Z</time></trkpt><trkpt lat="33.8891762" lon="7.9679662"><ele>139.66666666666666</ele><time>2026-04-30T08:15:20.677Z</time></trkpt><trkpt lat="33.8891261" lon="7.9677199"><ele>139.33333333333334</ele><time>2026-04-30T08:15:21.675Z</time></trkpt><trkpt lat="33.889072" lon="7.9674756"><ele>139.0</ele><time>2026-04-30T08:15:22.689Z</time></trkpt><trkpt lat="33.8890201" lon="7.9672297"><ele>139.33333333333334</ele><time>2026-04-30T08:15:23.678Z</time></trkpt><trkpt lat="33.8889695" lon="7.9669802"><ele>139.66666666666666</ele><time>2026-04-30T08:15:24.68Z</time></trkpt><trkpt lat="33.8889186" lon="7.9667328"><ele>140.0</ele><time>2026-04-30T08:15:25.676Z</time></trkpt><trkpt lat="33.8888651" lon="7.9664884"><ele>140.0</ele><time>2026-04-30T08:15:26.674Z</time></trkpt><trkpt lat="33.8888109" lon="7.9662442"><ele>140.0</ele><time>2026-04-30T08:15:27.674Z</time></trkpt><trkpt lat="33.8887624" lon="7.9659992"><ele>140.0</ele><time>2026-04-30T08:15:28.675Z</time></trkpt><trkpt lat="33.8887076" lon="7.9657525"><ele>140.0</ele><time>2026-04-30T08:15:29.671Z</time></trkpt><trkpt lat="33.8886547" lon="7.9655061"><ele>140.0</ele><time>2026-04-30T08:15:30.667Z</time></trkpt><trkpt lat="33.8886028" lon="7.9652585"><ele>140.0</ele><time>2026-04-30T08:15:31.664Z</time></trkpt><trkpt lat="33.8885485" lon="7.9650165"><ele>140.5</ele><time>2026-04-30T08:15:32.714Z</time></trkpt><trkpt lat="33.888493" lon="7.9647694"><ele>141.0</ele><time>2026-04-30T08:15:33.66Z</time></trkpt><trkpt lat="33.8882647" lon="7.9635506"><ele>139.0</ele><time>2026-04-30T08:15:38.508Z</time></trkpt><trkpt lat="33.8882087" lon="7.9632638"><ele>137.0</ele><time>2026-04-30T08:15:39.653Z</time></trkpt><trkpt lat="33.8881471" lon="7.9629942"><ele>137.0</ele><time>2026-04-30T08:15:40.703Z</time></trkpt><trkpt lat="33.8880874" lon="7.9627998"><ele>137.0</ele><time>2026-04-30T08:15:41.705Z</time></trkpt><trkpt lat="33.8880345" lon="7.9625655"><ele>137.0</ele><time>2026-04-30T08:15:42.658Z</time></trkpt><trkpt lat="33.8879922" lon="7.9623159"><ele>137.0</ele><time>2026-04-30T08:15:43.652Z</time></trkpt><trkpt lat="33.8879382" lon="7.9620637"><ele>137.0</ele><time>2026-04-30T08:15:44.655Z</time></trkpt><trkpt lat="33.8878927" lon="7.9618155"><ele>137.0</ele><time>2026-04-30T08:15:45.651Z</time></trkpt><trkpt lat="33.8878394" lon="7.9615727"><ele>136.66666666666666</ele><time>2026-04-30T08:15:46.681Z</time></trkpt><trkpt lat="33.8877868" lon="7.9613343"><ele>136.33333333333334</ele><time>2026-04-30T08:15:47.658Z</time></trkpt><trkpt lat="33.8877362" lon="7.9610887"><ele>136.0</ele><time>2026-04-30T08:15:48.668Z</time></trkpt><trkpt lat="33.8876803" lon="7.9608435"><ele>135.66666666666669</ele><time>2026-04-30T08:15:49.668Z</time></trkpt><trkpt lat="33.8876248" lon="7.9606019"><ele>135.33333333333334</ele><time>2026-04-30T08:15:50.667Z</time></trkpt><trkpt lat="33.8875735" lon="7.9603532"><ele>135.0</ele><time>2026-04-30T08:15:51.655Z</time></trkpt><trkpt lat="33.8875166" lon="7.9600987"><ele>133.66666666666666</ele><time>2026-04-30T08:15:52.669Z</time></trkpt><trkpt lat="33.887461" lon="7.9598512"><ele>132.33333333333331</ele><time>2026-04-30T08:15:53.664Z</time></trkpt><trkpt lat="33.8874049" lon="7.959605"><ele>131.0</ele><time>2026-04-30T08:15:54.659Z</time></trkpt><trkpt lat="33.8873527" lon="7.9593564"><ele>131.33333333333331</ele><time>2026-04-30T08:15:55.673Z</time></trkpt><trkpt lat="33.8872994" lon="7.9591079"><ele>131.66666666666666</ele><time>2026-04-30T08:15:56.657Z</time></trkpt><trkpt lat="33.8872476" lon="7.9588601"><ele>132.0</ele><time>2026-04-30T08:15:57.664Z</time></trkpt><trkpt lat="33.887193" lon="7.9586136"><ele>132.0</ele><time>2026-04-30T08:15:58.664Z</time></trkpt><trkpt lat="33.8871369" lon="7.9583672"><ele>132.0</ele><time>2026-04-30T08:15:59.663Z</time></trkpt><trkpt lat="33.8870837" lon="7.9581215"><ele>132.0</ele><time>2026-04-30T08:16:00.67Z</time></trkpt><trkpt lat="33.8870304" lon="7.9578767"><ele>132.0</ele><time>2026-04-30T08:16:01.668Z</time></trkpt><trkpt lat="33.8869758" lon="7.9576312"><ele>132.0</ele><time>2026-04-30T08:16:02.67Z</time></trkpt><trkpt lat="33.886921" lon="7.957384"><ele>132.0</ele><time>2026-04-30T08:16:03.68Z</time></trkpt><trkpt lat="33.886867" lon="7.9571427"><ele>132.0</ele><time>2026-04-30T08:16:04.665Z</time></trkpt><trkpt lat="33.8868139" lon="7.9568992"><ele>132.0</ele><time>2026-04-30T08:16:05.661Z</time></trkpt><trkpt lat="33.8867614" lon="7.9566503"><ele>132.0</ele><time>2026-04-30T08:16:06.668Z</time></trkpt><trkpt lat="33.8867068" lon="7.9564039"><ele>131.66666666666666</ele><time>2026-04-30T08:16:07.658Z</time></trkpt><trkpt lat="33.8866568" lon="7.9561507"><ele>131.33333333333331</ele><time>2026-04-30T08:16:08.667Z</time></trkpt><trkpt lat="33.8866086" lon="7.9559012"><ele>131.0</ele><time>2026-04-30T08:16:09.662Z</time></trkpt><trkpt lat="33.8865532" lon="7.9556525"><ele>131.0</ele><time>2026-04-30T08:16:10.671Z</time></trkpt><trkpt lat="33.8864973" lon="7.9554072"><ele>131.0</ele><time>2026-04-30T08:16:11.669Z</time></trkpt><trkpt lat="33.8864456" lon="7.955159"><ele>131.0</ele><time>2026-04-30T08:16:12.658Z</time></trkpt><trkpt lat="33.8863983" lon="7.9549117"><ele>131.0</ele><time>2026-04-30T08:16:13.665Z</time></trkpt><trkpt lat="33.8863488" lon="7.9546694"><ele>131.0</ele><time>2026-04-30T08:16:14.661Z</time></trkpt><trkpt lat="33.8862967" lon="7.9544212"><ele>131.0</ele><time>2026-04-30T08:16:15.671Z</time></trkpt><trkpt lat="33.8862422" lon="7.9541715"><ele>131.33333333333331</ele><time>2026-04-30T08:16:16.733Z</time></trkpt><trkpt lat="33.8861891" lon="7.9539391"><ele>131.66666666666666</ele><time>2026-04-30T08:16:17.669Z</time></trkpt><trkpt lat="33.8861348" lon="7.953696"><ele>132.0</ele><time>2026-04-30T08:16:18.66Z</time></trkpt><trkpt lat="33.886082" lon="7.9534521"><ele>131.33333333333334</ele><time>2026-04-30T08:16:19.665Z</time></trkpt><trkpt lat="33.8860284" lon="7.9532053"><ele>130.66666666666669</ele><time>2026-04-30T08:16:20.665Z</time></trkpt><trkpt lat="33.8859755" lon="7.9529567"><ele>130.0</ele><time>2026-04-30T08:16:21.669Z</time></trkpt><trkpt lat="33.8859223" lon="7.9527072"><ele>128.0</ele><time>2026-04-30T08:16:22.67Z</time></trkpt><trkpt lat="33.8858707" lon="7.9524611"><ele>126.0</ele><time>2026-04-30T08:16:23.66Z</time></trkpt><trkpt lat="33.8858186" lon="7.9522149"><ele>124.0</ele><time>2026-04-30T08:16:24.66Z</time></trkpt><trkpt lat="33.8857677" lon="7.9519681"><ele>124.0</ele><time>2026-04-30T08:16:25.696Z</time></trkpt><trkpt lat="33.8857186" lon="7.9517253"><ele>124.0</ele><time>2026-04-30T08:16:26.657Z</time></trkpt><trkpt lat="33.8856668" lon="7.9514731"><ele>124.0</ele><time>2026-04-30T08:16:27.669Z</time></trkpt><trkpt lat="33.8856133" lon="7.9512301"><ele>124.33333333333334</ele><time>2026-04-30T08:16:28.659Z</time></trkpt><trkpt lat="33.8855591" lon="7.950985"><ele>124.66666666666666</ele><time>2026-04-30T08:16:29.675Z</time></trkpt><trkpt lat="33.8855073" lon="7.9507382"><ele>125.0</ele><time>2026-04-30T08:16:30.674Z</time></trkpt><trkpt lat="33.8854525" lon="7.9504912"><ele>125.33333333333333</ele><time>2026-04-30T08:16:31.667Z</time></trkpt><trkpt lat="33.885399" lon="7.9502439"><ele>125.66666666666666</ele><time>2026-04-30T08:16:32.66Z</time></trkpt><trkpt lat="33.8853475" lon="7.9499976"><ele>126.0</ele><time>2026-04-30T08:16:33.664Z</time></trkpt><trkpt lat="33.8852931" lon="7.9497533"><ele>126.0</ele><time>2026-04-30T08:16:34.663Z</time></trkpt><trkpt lat="33.8852384" lon="7.9495073"><ele>126.0</ele><time>2026-04-30T08:16:35.668Z</time></trkpt><trkpt lat="33.8851832" lon="7.9492623"><ele>126.0</ele><time>2026-04-30T08:16:36.661Z</time></trkpt><trkpt lat="33.8851281" lon="7.9490184"><ele>126.0</ele><time>2026-04-30T08:16:37.659Z</time></trkpt><trkpt lat="33.8850722" lon="7.9487724"><ele>126.0</ele><time>2026-04-30T08:16:38.666Z</time></trkpt><trkpt lat="33.8850198" lon="7.9485276"><ele>126.0</ele><time>2026-04-30T08:16:39.675Z</time></trkpt><trkpt lat="33.8849667" lon="7.9482822"><ele>126.66666666666666</ele><time>2026-04-30T08:16:40.664Z</time></trkpt><trkpt lat="33.8849123" lon="7.9480368"><ele>127.33333333333333</ele><time>2026-04-30T08:16:41.671Z</time></trkpt><trkpt lat="33.8848583" lon="7.9477929"><ele>128.0</ele><time>2026-04-30T08:16:42.677Z</time></trkpt><trkpt lat="33.8848023" lon="7.947548"><ele>128.0</ele><time>2026-04-30T08:16:43.684Z</time></trkpt><trkpt lat="33.8847466" lon="7.9473029"><ele>128.0</ele><time>2026-04-30T08:16:44.665Z</time></trkpt><trkpt lat="33.8846958" lon="7.947057"><ele>128.0</ele><time>2026-04-30T08:16:45.662Z</time></trkpt><trkpt lat="33.8846437" lon="7.9468101"><ele>128.0</ele><time>2026-04-30T08:16:46.659Z</time></trkpt><trkpt lat="33.884593" lon="7.9465661"><ele>128.0</ele><time>2026-04-30T08:16:47.668Z</time></trkpt><trkpt lat="33.8845421" lon="7.9463178"><ele>128.0</ele><time>2026-04-30T08:16:48.672Z</time></trkpt><trkpt lat="33.8844929" lon="7.9460767"><ele>127.66666666666666</ele><time>2026-04-30T08:16:49.665Z</time></trkpt><trkpt lat="33.8844349" lon="7.9458358"><ele>127.33333333333334</ele><time>2026-04-30T08:16:50.672Z</time></trkpt><trkpt lat="33.8843817" lon="7.9455845"><ele>127.0</ele><time>2026-04-30T08:16:51.669Z</time></trkpt><trkpt lat="33.8843298" lon="7.9453379"><ele>127.0</ele><time>2026-04-30T08:16:52.675Z</time></trkpt><trkpt lat="33.8842778" lon="7.9450926"><ele>127.0</ele><time>2026-04-30T08:16:53.673Z</time></trkpt><trkpt lat="33.8842279" lon="7.9448469"><ele>127.0</ele><time>2026-04-30T08:16:54.669Z</time></trkpt><trkpt lat="33.8841735" lon="7.9445961"><ele>126.0</ele><time>2026-04-30T08:16:55.674Z</time></trkpt><trkpt lat="33.8841171" lon="7.9443496"><ele>125.0</ele><time>2026-04-30T08:16:56.671Z</time></trkpt><trkpt lat="33.8840647" lon="7.9441013"><ele>124.0</ele><time>2026-04-30T08:16:57.665Z</time></trkpt><trkpt lat="33.8840129" lon="7.943853"><ele>124.0</ele><time>2026-04-30T08:16:58.67Z</time></trkpt><trkpt lat="33.8839549" lon="7.9436024"><ele>124.0</ele><time>2026-04-30T08:16:59.668Z</time></trkpt><trkpt lat="33.8839043" lon="7.9433566"><ele>124.0</ele><time>2026-04-30T08:17:00.689Z</time></trkpt><trkpt lat="33.8838455" lon="7.9431069"><ele>124.33333333333334</ele><time>2026-04-30T08:17:01.674Z</time></trkpt><trkpt lat="33.8837924" lon="7.9428608"><ele>124.66666666666666</ele><time>2026-04-30T08:17:02.673Z</time></trkpt><trkpt lat="33.8837434" lon="7.9426131"><ele>125.0</ele><time>2026-04-30T08:17:03.663Z</time></trkpt><trkpt lat="33.8836908" lon="7.9423692"><ele>125.0</ele><time>2026-04-30T08:17:04.668Z</time></trkpt><trkpt lat="33.8836414" lon="7.9421243"><ele>125.0</ele><time>2026-04-30T08:17:05.663Z</time></trkpt><trkpt lat="33.8835884" lon="7.941875"><ele>125.0</ele><time>2026-04-30T08:17:06.665Z</time></trkpt><trkpt lat="33.883536" lon="7.9416311"><ele>124.0</ele><time>2026-04-30T08:17:07.668Z</time></trkpt><trkpt lat="33.8834837" lon="7.9413809"><ele>123.0</ele><time>2026-04-30T08:17:08.662Z</time></trkpt><trkpt lat="33.8834264" lon="7.9411374"><ele>122.0</ele><time>2026-04-30T08:17:09.673Z</time></trkpt><trkpt lat="33.8833739" lon="7.9408934"><ele>121.33333333333333</ele><time>2026-04-30T08:17:10.664Z</time></trkpt><trkpt lat="33.8833222" lon="7.9406503"><ele>120.66666666666666</ele><time>2026-04-30T08:17:11.665Z</time></trkpt><trkpt lat="33.8832731" lon="7.940406"><ele>120.0</ele><time>2026-04-30T08:17:12.671Z</time></trkpt><trkpt lat="33.8832216" lon="7.9401665"><ele>120.0</ele><time>2026-04-30T08:17:13.711Z</time></trkpt><trkpt lat="33.8831716" lon="7.9399284"><ele>120.0</ele><time>2026-04-30T08:17:14.657Z</time></trkpt><trkpt lat="33.8831185" lon="7.9396844"><ele>120.0</ele><time>2026-04-30T08:17:15.669Z</time></trkpt><trkpt lat="33.8830626" lon="7.9394436"><ele>119.66666666666666</ele><time>2026-04-30T08:17:16.67Z</time></trkpt><trkpt lat="33.8830131" lon="7.9391967"><ele>119.33333333333333</ele><time>2026-04-30T08:17:17.669Z</time></trkpt><trkpt lat="33.8829597" lon="7.9389534"><ele>119.0</ele><time>2026-04-30T08:17:18.666Z</time></trkpt><trkpt lat="33.8829091" lon="7.9387087"><ele>119.0</ele><time>2026-04-30T08:17:19.672Z</time></trkpt><trkpt lat="33.8828565" lon="7.9384614"><ele>119.0</ele><time>2026-04-30T08:17:20.667Z</time></trkpt><trkpt lat="33.8828065" lon="7.9382188"><ele>119.0</ele><time>2026-04-30T08:17:21.665Z</time></trkpt><trkpt lat="33.8827557" lon="7.9379786"><ele>119.0</ele><time>2026-04-30T08:17:22.669Z</time></trkpt><trkpt lat="33.8827056" lon="7.9377408"><ele>119.0</ele><time>2026-04-30T08:17:23.667Z</time></trkpt><trkpt lat="33.8826527" lon="7.9374992"><ele>119.0</ele><time>2026-04-30T08:17:24.657Z</time></trkpt><trkpt lat="33.8826019" lon="7.937257"><ele>117.66666666666666</ele><time>2026-04-30T08:17:25.675Z</time></trkpt><trkpt lat="33.8825549" lon="7.937015"><ele>116.33333333333334</ele><time>2026-04-30T08:17:26.66Z</time></trkpt><trkpt lat="33.8825042" lon="7.936778"><ele>115.0</ele><time>2026-04-30T08:17:27.665Z</time></trkpt><trkpt lat="33.8824548" lon="7.936547"><ele>114.66666666666667</ele><time>2026-04-30T08:17:28.687Z</time></trkpt><trkpt lat="33.8824016" lon="7.9363102"><ele>114.33333333333334</ele><time>2026-04-30T08:17:29.67Z</time></trkpt><trkpt lat="33.882343" lon="7.9360668"><ele>114.0</ele><time>2026-04-30T08:17:30.679Z</time></trkpt><trkpt lat="33.8822935" lon="7.935826"><ele>113.0</ele><time>2026-04-30T08:17:31.659Z</time></trkpt><trkpt lat="33.8822404" lon="7.9355889"><ele>112.0</ele><time>2026-04-30T08:17:32.669Z</time></trkpt><trkpt lat="33.8821905" lon="7.9353507"><ele>111.0</ele><time>2026-04-30T08:17:33.67Z</time></trkpt><trkpt lat="33.882138" lon="7.9351072"><ele>111.0</ele><time>2026-04-30T08:17:34.667Z</time></trkpt><trkpt lat="33.8820845" lon="7.9348699"><ele>111.0</ele><time>2026-04-30T08:17:35.669Z</time></trkpt><trkpt lat="33.882034" lon="7.9346337"><ele>111.0</ele><time>2026-04-30T08:17:36.669Z</time></trkpt><trkpt lat="33.8819771" lon="7.934389"><ele>110.66666666666666</ele><time>2026-04-30T08:17:37.661Z</time></trkpt><trkpt lat="33.8819235" lon="7.9341505"><ele>110.33333333333333</ele><time>2026-04-30T08:17:38.664Z</time></trkpt><trkpt lat="33.8818713" lon="7.9339107"><ele>110.0</ele><time>2026-04-30T08:17:39.669Z</time></trkpt><trkpt lat="33.8818221" lon="7.9336722"><ele>110.0</ele><time>2026-04-30T08:17:40.659Z</time></trkpt><trkpt lat="33.8817736" lon="7.9334418"><ele>110.0</ele><time>2026-04-30T08:17:41.668Z</time></trkpt><trkpt lat="33.8817217" lon="7.9332031"><ele>110.0</ele><time>2026-04-30T08:17:42.676Z</time></trkpt><trkpt lat="33.8816718" lon="7.9329599"><ele>110.0</ele><time>2026-04-30T08:17:43.673Z</time></trkpt><trkpt lat="33.8816183" lon="7.9327145"><ele>110.0</ele><time>2026-04-30T08:17:44.668Z</time></trkpt><trkpt lat="33.8815627" lon="7.9324659"><ele>110.0</ele><time>2026-04-30T08:17:45.709Z</time></trkpt><trkpt lat="33.8815059" lon="7.9322127"><ele>110.0</ele><time>2026-04-30T08:17:46.672Z</time></trkpt><trkpt lat="33.8814486" lon="7.9319657"><ele>110.0</ele><time>2026-04-30T08:17:47.673Z</time></trkpt><trkpt lat="33.881395" lon="7.9317238"><ele>110.0</ele><time>2026-04-30T08:17:48.671Z</time></trkpt><trkpt lat="33.8813423" lon="7.9314759"><ele>110.0</ele><time>2026-04-30T08:17:49.674Z</time></trkpt><trkpt lat="33.8812925" lon="7.9312325"><ele>110.0</ele><time>2026-04-30T08:17:50.672Z</time></trkpt><trkpt lat="33.8812407" lon="7.9309889"><ele>110.0</ele><time>2026-04-30T08:17:51.672Z</time></trkpt><trkpt lat="33.881191" lon="7.9307469"><ele>110.33333333333333</ele><time>2026-04-30T08:17:52.68Z</time></trkpt><trkpt lat="33.8811391" lon="7.9305043"><ele>110.66666666666666</ele><time>2026-04-30T08:17:53.667Z</time></trkpt><trkpt lat="33.8810896" lon="7.9302607"><ele>111.0</ele><time>2026-04-30T08:17:54.674Z</time></trkpt><trkpt lat="33.8810335" lon="7.9300204"><ele>111.0</ele><time>2026-04-30T08:17:55.677Z</time></trkpt><trkpt lat="33.8809782" lon="7.92978"><ele>111.0</ele><time>2026-04-30T08:17:56.686Z</time></trkpt><trkpt lat="33.8809312" lon="7.9295373"><ele>111.0</ele><time>2026-04-30T08:17:57.664Z</time></trkpt><trkpt lat="33.8808832" lon="7.9292915"><ele>110.66666666666666</ele><time>2026-04-30T08:17:58.664Z</time></trkpt><trkpt lat="33.8808364" lon="7.9290533"><ele>110.33333333333333</ele><time>2026-04-30T08:17:59.67Z</time></trkpt><trkpt lat="33.8807874" lon="7.928803"><ele>110.0</ele><time>2026-04-30T08:18:00.661Z</time></trkpt><trkpt lat="33.8807329" lon="7.9285586"><ele>110.0</ele><time>2026-04-30T08:18:01.665Z</time></trkpt><trkpt lat="33.88068" lon="7.9283151"><ele>110.0</ele><time>2026-04-30T08:18:02.671Z</time></trkpt><trkpt lat="33.8806249" lon="7.9280716"><ele>110.0</ele><time>2026-04-30T08:18:03.659Z</time></trkpt><trkpt lat="33.8805707" lon="7.9278263"><ele>110.0</ele><time>2026-04-30T08:18:04.671Z</time></trkpt><trkpt lat="33.8805214" lon="7.9275765"><ele>110.0</ele><time>2026-04-30T08:18:05.666Z</time></trkpt><trkpt lat="33.8804691" lon="7.9273306"><ele>110.0</ele><time>2026-04-30T08:18:06.673Z</time></trkpt><trkpt lat="33.8804175" lon="7.9270875"><ele>110.0</ele><time>2026-04-30T08:18:07.669Z</time></trkpt><trkpt lat="33.8803661" lon="7.926842"><ele>110.0</ele><time>2026-04-30T08:18:08.672Z</time></trkpt><trkpt lat="33.8803128" lon="7.9266026"><ele>110.0</ele><time>2026-04-30T08:18:09.679Z</time></trkpt><trkpt lat="33.8802599" lon="7.9263594"><ele>109.0</ele><time>2026-04-30T08:18:10.668Z</time></trkpt><trkpt lat="33.8802089" lon="7.9261161"><ele>108.0</ele><time>2026-04-30T08:18:11.662Z</time></trkpt><trkpt lat="33.8801563" lon="7.9258743"><ele>107.0</ele><time>2026-04-30T08:18:12.671Z</time></trkpt><trkpt lat="33.8801039" lon="7.9256344"><ele>106.0</ele><time>2026-04-30T08:18:13.667Z</time></trkpt><trkpt lat="33.88005" lon="7.9253876"><ele>105.0</ele><time>2026-04-30T08:18:14.67Z</time></trkpt><trkpt lat="33.8800015" lon="7.9251468"><ele>104.0</ele><time>2026-04-30T08:18:15.665Z</time></trkpt><trkpt lat="33.8799462" lon="7.9249055"><ele>103.66666666666666</ele><time>2026-04-30T08:18:16.661Z</time></trkpt><trkpt lat="33.8798919" lon="7.9246674"><ele>103.33333333333334</ele><time>2026-04-30T08:18:17.668Z</time></trkpt><trkpt lat="33.8798356" lon="7.9244247"><ele>103.0</ele><time>2026-04-30T08:18:18.674Z</time></trkpt><trkpt lat="33.8797826" lon="7.9241809"><ele>103.0</ele><time>2026-04-30T08:18:19.669Z</time></trkpt><trkpt lat="33.8797323" lon="7.9239395"><ele>103.0</ele><time>2026-04-30T08:18:20.668Z</time></trkpt><trkpt lat="33.8796802" lon="7.9236988"><ele>103.0</ele><time>2026-04-30T08:18:21.668Z</time></trkpt><trkpt lat="33.8796268" lon="7.9234615"><ele>102.33333333333334</ele><time>2026-04-30T08:18:22.671Z</time></trkpt><trkpt lat="33.8795724" lon="7.9232237"><ele>101.66666666666666</ele><time>2026-04-30T08:18:23.672Z</time></trkpt><trkpt lat="33.8795178" lon="7.9229798"><ele>101.0</ele><time>2026-04-30T08:18:24.659Z</time></trkpt><trkpt lat="33.8794583" lon="7.9227371"><ele>102.0</ele><time>2026-04-30T08:18:25.659Z</time></trkpt><trkpt lat="33.879401" lon="7.9224988"><ele>103.0</ele><time>2026-04-30T08:18:26.677Z</time></trkpt><trkpt lat="33.8793427" lon="7.9222556"><ele>104.0</ele><time>2026-04-30T08:18:27.665Z</time></trkpt><trkpt lat="33.8792906" lon="7.9220117"><ele>104.0</ele><time>2026-04-30T08:18:28.674Z</time></trkpt><trkpt lat="33.8792456" lon="7.9217669"><ele>104.0</ele><time>2026-04-30T08:18:29.669Z</time></trkpt><trkpt lat="33.8791966" lon="7.9215193"><ele>104.0</ele><time>2026-04-30T08:18:30.668Z</time></trkpt><trkpt lat="33.8791446" lon="7.9212728"><ele>104.33333333333333</ele><time>2026-04-30T08:18:31.683Z</time></trkpt><trkpt lat="33.8790922" lon="7.9210264"><ele>104.66666666666666</ele><time>2026-04-30T08:18:32.682Z</time></trkpt><trkpt lat="33.8790409" lon="7.920786"><ele>105.0</ele><time>2026-04-30T08:18:33.674Z</time></trkpt><trkpt lat="33.8789895" lon="7.9205468"><ele>104.33333333333334</ele><time>2026-04-30T08:18:34.666Z</time></trkpt><trkpt lat="33.8789377" lon="7.9202999"><ele>103.66666666666667</ele><time>2026-04-30T08:18:35.679Z</time></trkpt><trkpt lat="33.8788837" lon="7.9200609"><ele>103.0</ele><time>2026-04-30T08:18:36.689Z</time></trkpt><trkpt lat="33.8788267" lon="7.9198202"><ele>102.66666666666667</ele><time>2026-04-30T08:18:37.675Z</time></trkpt><trkpt lat="33.8787747" lon="7.919582"><ele>102.33333333333334</ele><time>2026-04-30T08:18:38.68Z</time></trkpt><trkpt lat="33.8787245" lon="7.9193369"><ele>102.0</ele><time>2026-04-30T08:18:39.695Z</time></trkpt><trkpt lat="33.8786703" lon="7.9190966"><ele>101.66666666666666</ele><time>2026-04-30T08:18:40.701Z</time></trkpt><trkpt lat="33.8786173" lon="7.9188536"><ele>101.33333333333333</ele><time>2026-04-30T08:18:41.666Z</time></trkpt><trkpt lat="33.8785663" lon="7.9186112"><ele>101.0</ele><time>2026-04-30T08:18:42.688Z</time></trkpt><trkpt lat="33.8785116" lon="7.918375"><ele>101.0</ele><time>2026-04-30T08:18:43.705Z</time></trkpt><trkpt lat="33.8784583" lon="7.9181346"><ele>101.0</ele><time>2026-04-30T08:18:44.683Z</time></trkpt><trkpt lat="33.8784064" lon="7.9178922"><ele>101.0</ele><time>2026-04-30T08:18:45.702Z</time></trkpt><trkpt lat="33.8783561" lon="7.9176477"><ele>100.0</ele><time>2026-04-30T08:18:46.726Z</time></trkpt><trkpt lat="33.8783015" lon="7.9174015"><ele>99.0</ele><time>2026-04-30T08:18:47.693Z</time></trkpt><trkpt lat="33.8782507" lon="7.9171541"><ele>98.0</ele><time>2026-04-30T08:18:48.7Z</time></trkpt><trkpt lat="33.8781955" lon="7.9169056"><ele>97.66666666666666</ele><time>2026-04-30T08:18:49.701Z</time></trkpt><trkpt lat="33.8781389" lon="7.9166578"><ele>97.33333333333334</ele><time>2026-04-30T08:18:50.717Z</time></trkpt><trkpt lat="33.8780834" lon="7.9164116"><ele>97.0</ele><time>2026-04-30T08:18:51.695Z</time></trkpt><trkpt lat="33.8780285" lon="7.9161669"><ele>97.0</ele><time>2026-04-30T08:18:52.709Z</time></trkpt><trkpt lat="33.8779768" lon="7.9159274"><ele>97.0</ele><time>2026-04-30T08:18:53.693Z</time></trkpt><trkpt lat="33.877924" lon="7.915684"><ele>97.0</ele><time>2026-04-30T08:18:54.719Z</time></trkpt><trkpt lat="33.8778721" lon="7.91544"><ele>97.0</ele><time>2026-04-30T08:18:55.704Z</time></trkpt><trkpt lat="33.8778161" lon="7.9151906"><ele>97.0</ele><time>2026-04-30T08:18:56.705Z</time></trkpt><trkpt lat="33.8777674" lon="7.9149442"><ele>97.0</ele><time>2026-04-30T08:18:57.677Z</time></trkpt><trkpt lat="33.8777174" lon="7.9147026"><ele>96.66666666666667</ele><time>2026-04-30T08:18:58.699Z</time></trkpt><trkpt lat="33.8776658" lon="7.9144569"><ele>96.33333333333334</ele><time>2026-04-30T08:18:59.675Z</time></trkpt><trkpt lat="33.8776074" lon="7.9142186"><ele>96.0</ele><time>2026-04-30T08:19:00.677Z</time></trkpt><trkpt lat="33.8775594" lon="7.9139726"><ele>96.0</ele><time>2026-04-30T08:19:01.687Z</time></trkpt><trkpt lat="33.8775079" lon="7.913734"><ele>96.0</ele><time>2026-04-30T08:19:02.672Z</time></trkpt><trkpt lat="33.8774503" lon="7.9134937"><ele>96.0</ele><time>2026-04-30T08:19:03.653Z</time></trkpt><trkpt lat="33.8773994" lon="7.9132523"><ele>96.33333333333334</ele><time>2026-04-30T08:19:04.663Z</time></trkpt><trkpt lat="33.8773516" lon="7.9130073"><ele>96.66666666666667</ele><time>2026-04-30T08:19:05.655Z</time></trkpt><trkpt lat="33.8773009" lon="7.9127647"><ele>97.0</ele><time>2026-04-30T08:19:06.669Z</time></trkpt><trkpt lat="33.8772478" lon="7.9125211"><ele>96.33333333333334</ele><time>2026-04-30T08:19:07.706Z</time></trkpt><trkpt lat="33.8771949" lon="7.91228"><ele>95.66666666666667</ele><time>2026-04-30T08:19:08.686Z</time></trkpt><trkpt lat="33.8771436" lon="7.912043"><ele>95.0</ele><time>2026-04-30T08:19:09.699Z</time></trkpt><trkpt lat="33.8770926" lon="7.9117973"><ele>95.66666666666667</ele><time>2026-04-30T08:19:10.708Z</time></trkpt><trkpt lat="33.8770414" lon="7.911556"><ele>96.33333333333334</ele><time>2026-04-30T08:19:11.697Z</time></trkpt><trkpt lat="33.8769915" lon="7.9113162"><ele>97.0</ele><time>2026-04-30T08:19:12.701Z</time></trkpt><trkpt lat="33.876935" lon="7.9110721"><ele>96.33333333333334</ele><time>2026-04-30T08:19:13.697Z</time></trkpt><trkpt lat="33.8768837" lon="7.9108246"><ele>95.66666666666667</ele><time>2026-04-30T08:19:14.705Z</time></trkpt><trkpt lat="33.8768384" lon="7.9105723"><ele>95.0</ele><time>2026-04-30T08:19:15.671Z</time></trkpt><trkpt lat="33.8767854" lon="7.9103293"><ele>94.66666666666667</ele><time>2026-04-30T08:19:16.694Z</time></trkpt><trkpt lat="33.8767309" lon="7.9100858"><ele>94.33333333333333</ele><time>2026-04-30T08:19:17.691Z</time></trkpt><trkpt lat="33.8766765" lon="7.9098429"><ele>94.0</ele><time>2026-04-30T08:19:18.698Z</time></trkpt><trkpt lat="33.8766243" lon="7.9095997"><ele>94.0</ele><time>2026-04-30T08:19:19.679Z</time></trkpt><trkpt lat="33.8765689" lon="7.9093567"><ele>94.0</ele><time>2026-04-30T08:19:20.67Z</time></trkpt><trkpt lat="33.876511" lon="7.9091107"><ele>94.0</ele><time>2026-04-30T08:19:21.699Z</time></trkpt><trkpt lat="33.876456" lon="7.9088661"><ele>94.0</ele><time>2026-04-30T08:19:22.707Z</time></trkpt><trkpt lat="33.8764016" lon="7.908625"><ele>94.0</ele><time>2026-04-30T08:19:23.691Z</time></trkpt><trkpt lat="33.8763481" lon="7.9083836"><ele>94.0</ele><time>2026-04-30T08:19:24.7Z</time></trkpt><trkpt lat="33.8762957" lon="7.9081386"><ele>94.0</ele><time>2026-04-30T08:19:25.697Z</time></trkpt><trkpt lat="33.876243" lon="7.9078924"><ele>94.0</ele><time>2026-04-30T08:19:26.699Z</time></trkpt><trkpt lat="33.87619" lon="7.9076521"><ele>94.0</ele><time>2026-04-30T08:19:27.696Z</time></trkpt><trkpt lat="33.8761409" lon="7.9074121"><ele>93.33333333333333</ele><time>2026-04-30T08:19:28.686Z</time></trkpt><trkpt lat="33.876092" lon="7.9071743"><ele>92.66666666666667</ele><time>2026-04-30T08:19:29.696Z</time></trkpt><trkpt lat="33.8760367" lon="7.9069292"><ele>92.0</ele><time>2026-04-30T08:19:30.692Z</time></trkpt><trkpt lat="33.8759847" lon="7.9066818"><ele>91.66666666666667</ele><time>2026-04-30T08:19:31.686Z</time></trkpt><trkpt lat="33.8759314" lon="7.9064383"><ele>91.33333333333333</ele><time>2026-04-30T08:19:32.692Z</time></trkpt><trkpt lat="33.875879" lon="7.9061895"><ele>91.0</ele><time>2026-04-30T08:19:33.677Z</time></trkpt><trkpt lat="33.8758281" lon="7.905942"><ele>90.0</ele><time>2026-04-30T08:19:34.689Z</time></trkpt><trkpt lat="33.875777" lon="7.9057024"><ele>89.0</ele><time>2026-04-30T08:19:35.683Z</time></trkpt><trkpt lat="33.8757215" lon="7.9054577"><ele>88.0</ele><time>2026-04-30T08:19:36.702Z</time></trkpt><trkpt lat="33.8756658" lon="7.905216"><ele>88.66666666666666</ele><time>2026-04-30T08:19:37.696Z</time></trkpt><trkpt lat="33.8756136" lon="7.9049773"><ele>89.33333333333333</ele><time>2026-04-30T08:19:38.717Z</time></trkpt><trkpt lat="33.8755597" lon="7.904735"><ele>90.0</ele><time>2026-04-30T08:19:39.706Z</time></trkpt><trkpt lat="33.8755147" lon="7.9044949"><ele>90.0</ele><time>2026-04-30T08:19:40.7Z</time></trkpt><trkpt lat="33.8754671" lon="7.9042494"><ele>90.0</ele><time>2026-04-30T08:19:41.701Z</time></trkpt><trkpt lat="33.8754209" lon="7.9040062"><ele>90.0</ele><time>2026-04-30T08:19:42.696Z</time></trkpt><trkpt lat="33.8753708" lon="7.903757"><ele>90.0</ele><time>2026-04-30T08:19:43.693Z</time></trkpt><trkpt lat="33.875317" lon="7.9035117"><ele>90.0</ele><time>2026-04-30T08:19:44.669Z</time></trkpt><trkpt lat="33.875262" lon="7.9032697"><ele>90.0</ele><time>2026-04-30T08:19:45.697Z</time></trkpt><trkpt lat="33.8752178" lon="7.9030336"><ele>90.0</ele><time>2026-04-30T08:19:46.719Z</time></trkpt><trkpt lat="33.8751744" lon="7.9028102"><ele>90.0</ele><time>2026-04-30T08:19:47.706Z</time></trkpt><trkpt lat="33.8751297" lon="7.9026098"><ele>90.0</ele><time>2026-04-30T08:19:48.711Z</time></trkpt><trkpt lat="33.8750922" lon="7.902412"><ele>88.33333333333333</ele><time>2026-04-30T08:19:49.704Z</time></trkpt><trkpt lat="33.8750493" lon="7.902222"><ele>86.66666666666666</ele><time>2026-04-30T08:19:50.72Z</time></trkpt><trkpt lat="33.8750122" lon="7.9020406"><ele>85.0</ele><time>2026-04-30T08:19:51.698Z</time></trkpt><trkpt lat="33.8749789" lon="7.9018634"><ele>85.0</ele><time>2026-04-30T08:19:52.713Z</time></trkpt><trkpt lat="33.8749396" lon="7.9016927"><ele>85.0</ele><time>2026-04-30T08:19:53.701Z</time></trkpt><trkpt lat="33.8749052" lon="7.9015258"><ele>85.0</ele><time>2026-04-30T08:19:54.69Z</time></trkpt><trkpt lat="33.8748726" lon="7.9013603"><ele>85.0</ele><time>2026-04-30T08:19:55.701Z</time></trkpt><trkpt lat="33.8748386" lon="7.9011918"><ele>85.0</ele><time>2026-04-30T08:19:56.693Z</time></trkpt><trkpt lat="33.8748003" lon="7.9010238"><ele>85.0</ele><time>2026-04-30T08:19:57.693Z</time></trkpt><trkpt lat="33.8747615" lon="7.90086"><ele>85.0</ele><time>2026-04-30T08:19:58.697Z</time></trkpt><trkpt lat="33.874725" lon="7.9006926"><ele>85.0</ele><time>2026-04-30T08:19:59.675Z</time></trkpt><trkpt lat="33.8746924" lon="7.9005306"><ele>85.0</ele><time>2026-04-30T08:20:00.707Z</time></trkpt><trkpt lat="33.8746548" lon="7.9003653"><ele>85.0</ele><time>2026-04-30T08:20:01.696Z</time></trkpt><trkpt lat="33.8746207" lon="7.9002031"><ele>85.0</ele><time>2026-04-30T08:20:02.687Z</time></trkpt><trkpt lat="33.8745866" lon="7.9000335"><ele>85.0</ele><time>2026-04-30T08:20:03.707Z</time></trkpt><trkpt lat="33.8745551" lon="7.8998695"><ele>85.25</ele><time>2026-04-30T08:20:04.705Z</time></trkpt><trkpt lat="33.8745159" lon="7.8997049"><ele>85.5</ele><time>2026-04-30T08:20:05.688Z</time></trkpt><trkpt lat="33.8744796" lon="7.8995521"><ele>85.75</ele><time>2026-04-30T08:20:06.696Z</time></trkpt><trkpt lat="33.8744427" lon="7.899403"><ele>86.0</ele><time>2026-04-30T08:20:07.709Z</time></trkpt><trkpt lat="33.8744137" lon="7.8992594"><ele>85.75</ele><time>2026-04-30T08:20:08.692Z</time></trkpt><trkpt lat="33.8743857" lon="7.8991159"><ele>85.5</ele><time>2026-04-30T08:20:09.716Z</time></trkpt><trkpt lat="33.8743565" lon="7.8989855"><ele>85.25</ele><time>2026-04-30T08:20:10.696Z</time></trkpt><trkpt lat="33.8743286" lon="7.8988586"><ele>85.0</ele><time>2026-04-30T08:20:11.702Z</time></trkpt><trkpt lat="33.8742983" lon="7.8987361"><ele>84.5</ele><time>2026-04-30T08:20:12.71Z</time></trkpt><trkpt lat="33.8742697" lon="7.8986278"><ele>84.0</ele><time>2026-04-30T08:20:13.699Z</time></trkpt><trkpt lat="33.874244" lon="7.8985235"><ele>83.5</ele><time>2026-04-30T08:20:14.662Z</time></trkpt><trkpt lat="33.8742262" lon="7.8984243"><ele>83.0</ele><time>2026-04-30T08:20:15.668Z</time></trkpt><trkpt lat="33.8742022" lon="7.8983191"><ele>82.5</ele><time>2026-04-30T08:20:16.671Z</time></trkpt><trkpt lat="33.8741829" lon="7.8982139"><ele>82.0</ele><time>2026-04-30T08:20:17.684Z</time></trkpt><trkpt lat="33.8741637" lon="7.8981116"><ele>82.0</ele><time>2026-04-30T08:20:18.692Z</time></trkpt><trkpt lat="33.8741404" lon="7.8980174"><ele>82.0</ele><time>2026-04-30T08:20:19.669Z</time></trkpt><trkpt lat="33.874117" lon="7.8979295"><ele>82.0</ele><time>2026-04-30T08:20:20.7Z</time></trkpt><trkpt lat="33.8740782" lon="7.8978045"><ele>82.0</ele><time>2026-04-30T08:20:22.705Z</time></trkpt><trkpt lat="33.874046" lon="7.8976849"><ele>82.0</ele><time>2026-04-30T08:20:24.701Z</time></trkpt><trkpt lat="33.8740295" lon="7.8976111"><ele>82.0</ele><time>2026-04-30T08:20:25.702Z</time></trkpt><trkpt lat="33.8740099" lon="7.8975319"><ele>81.8</ele><time>2026-04-30T08:20:26.702Z</time></trkpt><trkpt lat="33.8739888" lon="7.8974347"><ele>81.6</ele><time>2026-04-30T08:20:27.698Z</time></trkpt><trkpt lat="33.8739728" lon="7.8973327"><ele>81.39999999999999</ele><time>2026-04-30T08:20:28.705Z</time></trkpt><trkpt lat="33.8739524" lon="7.8972298"><ele>81.19999999999999</ele><time>2026-04-30T08:20:29.707Z</time></trkpt><trkpt lat="33.8739264" lon="7.8971125"><ele>81.0</ele><time>2026-04-30T08:20:30.697Z</time></trkpt><trkpt lat="33.8738986" lon="7.8969918"><ele>81.0</ele><time>2026-04-30T08:20:31.698Z</time></trkpt><trkpt lat="33.8738685" lon="7.8968712"><ele>81.0</ele><time>2026-04-30T08:20:32.711Z</time></trkpt><trkpt lat="33.8738418" lon="7.8967414"><ele>81.0</ele><time>2026-04-30T08:20:33.686Z</time></trkpt><trkpt lat="33.873816" lon="7.8966018"><ele>81.0</ele><time>2026-04-30T08:20:34.681Z</time></trkpt><trkpt lat="33.8737929" lon="7.8964617"><ele>81.19999999999999</ele><time>2026-04-30T08:20:35.671Z</time></trkpt><trkpt lat="33.8737664" lon="7.8963291"><ele>81.39999999999999</ele><time>2026-04-30T08:20:36.7Z</time></trkpt><trkpt lat="33.8737377" lon="7.8962008"><ele>81.6</ele><time>2026-04-30T08:20:37.688Z</time></trkpt><trkpt lat="33.8737132" lon="7.8960773"><ele>81.8</ele><time>2026-04-30T08:20:38.682Z</time></trkpt><trkpt lat="33.8736904" lon="7.895955"><ele>82.0</ele><time>2026-04-30T08:20:39.683Z</time></trkpt><trkpt lat="33.8736676" lon="7.8958307"><ele>82.0</ele><time>2026-04-30T08:20:40.665Z</time></trkpt><trkpt lat="33.8736459" lon="7.8957013"><ele>82.0</ele><time>2026-04-30T08:20:41.652Z</time></trkpt><trkpt lat="33.8736174" lon="7.8955731"><ele>82.0</ele><time>2026-04-30T08:20:42.69Z</time></trkpt><trkpt lat="33.8735893" lon="7.8954448"><ele>82.0</ele><time>2026-04-30T08:20:43.663Z</time></trkpt><trkpt lat="33.8735582" lon="7.8953127"><ele>82.0</ele><time>2026-04-30T08:20:44.675Z</time></trkpt><trkpt lat="33.8735275" lon="7.8951806"><ele>81.0</ele><time>2026-04-30T08:20:45.699Z</time></trkpt><trkpt lat="33.8734975" lon="7.8950454"><ele>80.0</ele><time>2026-04-30T08:20:46.653Z</time></trkpt><trkpt lat="33.8734677" lon="7.8949172"><ele>79.0</ele><time>2026-04-30T08:20:47.663Z</time></trkpt><trkpt lat="33.8734426" lon="7.8947835"><ele>78.0</ele><time>2026-04-30T08:20:48.676Z</time></trkpt><trkpt lat="33.8734176" lon="7.8946531"><ele>77.6</ele><time>2026-04-30T08:20:49.674Z</time></trkpt><trkpt lat="33.8733929" lon="7.8945211"><ele>77.19999999999999</ele><time>2026-04-30T08:20:50.672Z</time></trkpt><trkpt lat="33.8733637" lon="7.8943944"><ele>76.8</ele><time>2026-04-30T08:20:51.669Z</time></trkpt><trkpt lat="33.8733339" lon="7.8942607"><ele>76.39999999999999</ele><time>2026-04-30T08:20:52.681Z</time></trkpt><trkpt lat="33.8733053" lon="7.8941305"><ele>76.0</ele><time>2026-04-30T08:20:53.664Z</time></trkpt><trkpt lat="33.8732773" lon="7.8939967"><ele>75.39999999999999</ele><time>2026-04-30T08:20:54.676Z</time></trkpt><trkpt lat="33.8732512" lon="7.8938612"><ele>74.8</ele><time>2026-04-30T08:20:55.709Z</time></trkpt><trkpt lat="33.873225" lon="7.8937342"><ele>74.19999999999999</ele><time>2026-04-30T08:20:56.679Z</time></trkpt><trkpt lat="33.8732057" lon="7.8936198"><ele>73.6</ele><time>2026-04-30T08:20:57.679Z</time></trkpt><trkpt lat="33.8731823" lon="7.8935139"><ele>73.0</ele><time>2026-04-30T08:20:58.686Z</time></trkpt><trkpt lat="33.873164" lon="7.8934296"><ele>72.83333333333333</ele><time>2026-04-30T08:20:59.715Z</time></trkpt><trkpt lat="33.8731495" lon="7.8933489"><ele>72.66666666666666</ele><time>2026-04-30T08:21:00.69Z</time></trkpt><trkpt lat="33.8731294" lon="7.8932603"><ele>72.5</ele><time>2026-04-30T08:21:01.692Z</time></trkpt><trkpt lat="33.8731069" lon="7.8931572"><ele>72.33333333333333</ele><time>2026-04-30T08:21:02.682Z</time></trkpt><trkpt lat="33.8730825" lon="7.8930534"><ele>72.16666666666667</ele><time>2026-04-30T08:21:03.703Z</time></trkpt><trkpt lat="33.873049" lon="7.8929397"><ele>72.0</ele><time>2026-04-30T08:21:04.706Z</time></trkpt><trkpt lat="33.8730219" lon="7.892816"><ele>72.0</ele><time>2026-04-30T08:21:05.67Z</time></trkpt><trkpt lat="33.8729928" lon="7.8926903"><ele>72.0</ele><time>2026-04-30T08:21:06.664Z</time></trkpt><trkpt lat="33.8729585" lon="7.8925577"><ele>72.0</ele><time>2026-04-30T08:21:07.701Z</time></trkpt><trkpt lat="33.8729235" lon="7.8924219"><ele>72.0</ele><time>2026-04-30T08:21:08.689Z</time></trkpt><trkpt lat="33.8728906" lon="7.8922852"><ele>71.75</ele><time>2026-04-30T08:21:09.696Z</time></trkpt><trkpt lat="33.8728612" lon="7.8921492"><ele>71.5</ele><time>2026-04-30T08:21:10.678Z</time></trkpt><trkpt lat="33.8728304" lon="7.892013"><ele>71.25</ele><time>2026-04-30T08:21:11.709Z</time></trkpt><trkpt lat="33.8728026" lon="7.8918739"><ele>71.0</ele><time>2026-04-30T08:21:12.692Z</time></trkpt><trkpt lat="33.8727775" lon="7.8917387"><ele>71.0</ele><time>2026-04-30T08:21:13.692Z</time></trkpt><trkpt lat="33.8727499" lon="7.8916099"><ele>71.0</ele><time>2026-04-30T08:21:14.686Z</time></trkpt><trkpt lat="33.8727247" lon="7.8914818"><ele>71.0</ele><time>2026-04-30T08:21:15.689Z</time></trkpt><trkpt lat="33.8727018" lon="7.8913546"><ele>71.0</ele><time>2026-04-30T08:21:16.685Z</time></trkpt><trkpt lat="33.8726848" lon="7.8912405"><ele>71.0</ele><time>2026-04-30T08:21:17.67Z</time></trkpt><trkpt lat="33.8726721" lon="7.8911319"><ele>71.0</ele><time>2026-04-30T08:21:18.679Z</time></trkpt><trkpt lat="33.872665" lon="7.8910185"><ele>71.0</ele><time>2026-04-30T08:21:19.688Z</time></trkpt><trkpt lat="33.8726646" lon="7.8909066"><ele>71.0</ele><time>2026-04-30T08:21:20.665Z</time></trkpt><trkpt lat="33.8726618" lon="7.8907892"><ele>71.0</ele><time>2026-04-30T08:21:21.687Z</time></trkpt><trkpt lat="33.8726586" lon="7.8906739"><ele>71.0</ele><time>2026-04-30T08:21:22.666Z</time></trkpt><trkpt lat="33.8726593" lon="7.8905462"><ele>71.0</ele><time>2026-04-30T08:21:23.697Z</time></trkpt><trkpt lat="33.8726575" lon="7.8904259"><ele>71.0</ele><time>2026-04-30T08:21:24.671Z</time></trkpt><trkpt lat="33.8726541" lon="7.8903061"><ele>71.0</ele><time>2026-04-30T08:21:25.666Z</time></trkpt><trkpt lat="33.8726538" lon="7.8901726"><ele>71.0</ele><time>2026-04-30T08:21:26.673Z</time></trkpt><trkpt lat="33.8726582" lon="7.8900387"><ele>71.0</ele><time>2026-04-30T08:21:27.688Z</time></trkpt><trkpt lat="33.8726648" lon="7.8899109"><ele>71.0</ele><time>2026-04-30T08:21:28.662Z</time></trkpt><trkpt lat="33.8726652" lon="7.8897763"><ele>71.0</ele><time>2026-04-30T08:21:29.665Z</time></trkpt><trkpt lat="33.8726636" lon="7.889641"><ele>71.0</ele><time>2026-04-30T08:21:30.682Z</time></trkpt><trkpt lat="33.8726627" lon="7.8895014"><ele>71.0</ele><time>2026-04-30T08:21:31.681Z</time></trkpt><trkpt lat="33.8726663" lon="7.8893712"><ele>71.0</ele><time>2026-04-30T08:21:32.667Z</time></trkpt><trkpt lat="33.8726681" lon="7.8892466"><ele>70.8</ele><time>2026-04-30T08:21:33.675Z</time></trkpt><trkpt lat="33.8726692" lon="7.8891159"><ele>70.6</ele><time>2026-04-30T08:21:34.662Z</time></trkpt><trkpt lat="33.8726668" lon="7.8889819"><ele>70.4</ele><time>2026-04-30T08:21:35.677Z</time></trkpt><trkpt lat="33.8726657" lon="7.8888495"><ele>70.2</ele><time>2026-04-30T08:21:36.662Z</time></trkpt><trkpt lat="33.8726706" lon="7.8887234"><ele>70.0</ele><time>2026-04-30T08:21:37.662Z</time></trkpt><trkpt lat="33.8726692" lon="7.8885983"><ele>70.0</ele><time>2026-04-30T08:21:38.673Z</time></trkpt><trkpt lat="33.8726707" lon="7.8884755"><ele>70.0</ele><time>2026-04-30T08:21:39.679Z</time></trkpt><trkpt lat="33.8726707" lon="7.8883526"><ele>70.0</ele><time>2026-04-30T08:21:40.678Z</time></trkpt><trkpt lat="33.8726743" lon="7.8882302"><ele>70.0</ele><time>2026-04-30T08:21:41.669Z</time></trkpt><trkpt lat="33.8726756" lon="7.8881145"><ele>70.0</ele><time>2026-04-30T08:21:42.669Z</time></trkpt><trkpt lat="33.8726814" lon="7.8880068"><ele>69.6</ele><time>2026-04-30T08:21:43.67Z</time></trkpt><trkpt lat="33.8726822" lon="7.8878986"><ele>69.2</ele><time>2026-04-30T08:21:44.684Z</time></trkpt><trkpt lat="33.8726893" lon="7.8877927"><ele>68.8</ele><time>2026-04-30T08:21:45.667Z</time></trkpt><trkpt lat="33.8726963" lon="7.887682"><ele>68.4</ele><time>2026-04-30T08:21:46.657Z</time></trkpt><trkpt lat="33.8727008" lon="7.887567"><ele>68.0</ele><time>2026-04-30T08:21:47.67Z</time></trkpt><trkpt lat="33.8727032" lon="7.8874457"><ele>68.0</ele><time>2026-04-30T08:21:48.664Z</time></trkpt><trkpt lat="33.8727096" lon="7.8873242"><ele>68.0</ele><time>2026-04-30T08:21:49.664Z</time></trkpt><trkpt lat="33.8727147" lon="7.8872039"><ele>68.0</ele><time>2026-04-30T08:21:50.665Z</time></trkpt><trkpt lat="33.8727163" lon="7.8870882"><ele>68.0</ele><time>2026-04-30T08:21:51.671Z</time></trkpt><trkpt lat="33.8727189" lon="7.8869752"><ele>68.0</ele><time>2026-04-30T08:21:52.664Z</time></trkpt><trkpt lat="33.8727189" lon="7.8868641"><ele>68.33333333333334</ele><time>2026-04-30T08:21:53.67Z</time></trkpt><trkpt lat="33.872718" lon="7.8867481"><ele>68.66666666666667</ele><time>2026-04-30T08:21:54.661Z</time></trkpt><trkpt lat="33.8727168" lon="7.886637"><ele>69.0</ele><time>2026-04-30T08:21:55.67Z</time></trkpt><trkpt lat="33.8727141" lon="7.8865397"><ele>69.33333333333333</ele><time>2026-04-30T08:21:56.661Z</time></trkpt><trkpt lat="33.8727133" lon="7.8864428"><ele>69.66666666666666</ele><time>2026-04-30T08:21:57.672Z</time></trkpt><trkpt lat="33.8727107" lon="7.8863501"><ele>70.0</ele><time>2026-04-30T08:21:58.694Z</time></trkpt><trkpt lat="33.8727124" lon="7.8862712"><ele>70.0</ele><time>2026-04-30T08:21:59.667Z</time></trkpt><trkpt lat="33.8727078" lon="7.8861139"><ele>70.0</ele><time>2026-04-30T08:22:01.673Z</time></trkpt><trkpt lat="33.8727052" lon="7.8860144"><ele>70.0</ele><time>2026-04-30T08:22:02.664Z</time></trkpt><trkpt lat="33.8726967" lon="7.8859142"><ele>70.0</ele><time>2026-04-30T08:22:03.668Z</time></trkpt><trkpt lat="33.8726871" lon="7.8858186"><ele>70.0</ele><time>2026-04-30T08:22:04.667Z</time></trkpt><trkpt lat="33.8726809" lon="7.8857132"><ele>70.16666666666666</ele><time>2026-04-30T08:22:05.664Z</time></trkpt><trkpt lat="33.8726739" lon="7.8856126"><ele>70.33333333333333</ele><time>2026-04-30T08:22:06.66Z</time></trkpt><trkpt lat="33.8726707" lon="7.8855145"><ele>70.5</ele><time>2026-04-30T08:22:07.655Z</time></trkpt><trkpt lat="33.8726614" lon="7.8854127"><ele>70.66666666666667</ele><time>2026-04-30T08:22:08.668Z</time></trkpt><trkpt lat="33.8726527" lon="7.8853104"><ele>70.83333333333334</ele><time>2026-04-30T08:22:09.668Z</time></trkpt><trkpt lat="33.8726419" lon="7.8851982"><ele>71.0</ele><time>2026-04-30T08:22:10.671Z</time></trkpt><trkpt lat="33.8726339" lon="7.8850908"><ele>71.0</ele><time>2026-04-30T08:22:11.669Z</time></trkpt><trkpt lat="33.8726281" lon="7.8849824"><ele>71.0</ele><time>2026-04-30T08:22:12.665Z</time></trkpt><trkpt lat="33.87262" lon="7.8848874"><ele>71.0</ele><time>2026-04-30T08:22:13.652Z</time></trkpt><trkpt lat="33.8726098" lon="7.8847858"><ele>71.0</ele><time>2026-04-30T08:22:14.654Z</time></trkpt><trkpt lat="33.872599" lon="7.8846759"><ele>71.0</ele><time>2026-04-30T08:22:15.657Z</time></trkpt><trkpt lat="33.8725794" lon="7.8845608"><ele>71.0</ele><time>2026-04-30T08:22:16.653Z</time></trkpt><trkpt lat="33.8725675" lon="7.8844465"><ele>70.2</ele><time>2026-04-30T08:22:17.666Z</time></trkpt><trkpt lat="33.8725575" lon="7.8843243"><ele>69.39999999999999</ele><time>2026-04-30T08:22:18.662Z</time></trkpt><trkpt lat="33.8725478" lon="7.8841995"><ele>68.6</ele><time>2026-04-30T08:22:19.651Z</time></trkpt><trkpt lat="33.8725362" lon="7.8840838"><ele>67.8</ele><time>2026-04-30T08:22:20.669Z</time></trkpt><trkpt lat="33.8725202" lon="7.8839765"><ele>67.0</ele><time>2026-04-30T08:22:21.67Z</time></trkpt><trkpt lat="33.8725031" lon="7.8838576"><ele>66.8</ele><time>2026-04-30T08:22:22.666Z</time></trkpt><trkpt lat="33.8724887" lon="7.8837446"><ele>66.6</ele><time>2026-04-30T08:22:23.676Z</time></trkpt><trkpt lat="33.8724754" lon="7.8836271"><ele>66.39999999999999</ele><time>2026-04-30T08:22:24.667Z</time></trkpt><trkpt lat="33.8724637" lon="7.8835111"><ele>66.2</ele><time>2026-04-30T08:22:25.669Z</time></trkpt><trkpt lat="33.8724484" lon="7.8833946"><ele>66.0</ele><time>2026-04-30T08:22:26.667Z</time></trkpt><trkpt lat="33.8724329" lon="7.8832869"><ele>65.57142857142857</ele><time>2026-04-30T08:22:27.663Z</time></trkpt><trkpt lat="33.8724177" lon="7.8831965"><ele>65.14285714285714</ele><time>2026-04-30T08:22:28.672Z</time></trkpt><trkpt lat="33.8724086" lon="7.8831144"><ele>64.71428571428572</ele><time>2026-04-30T08:22:29.693Z</time></trkpt><trkpt lat="33.8723962" lon="7.8830308"><ele>64.28571428571428</ele><time>2026-04-30T08:22:30.668Z</time></trkpt><trkpt lat="33.8723868" lon="7.8829475"><ele>63.85714285714286</ele><time>2026-04-30T08:22:31.672Z</time></trkpt><trkpt lat="33.8723713" lon="7.882857"><ele>63.42857142857143</ele><time>2026-04-30T08:22:32.659Z</time></trkpt><trkpt lat="33.8723589" lon="7.882762"><ele>63.0</ele><time>2026-04-30T08:22:33.671Z</time></trkpt><trkpt lat="33.8723516" lon="7.8826636"><ele>62.833333333333336</ele><time>2026-04-30T08:22:34.687Z</time></trkpt><trkpt lat="33.8723413" lon="7.8825663"><ele>62.66666666666667</ele><time>2026-04-30T08:22:35.66Z</time></trkpt><trkpt lat="33.8723257" lon="7.8824577"><ele>62.5</ele><time>2026-04-30T08:22:36.7Z</time></trkpt><trkpt lat="33.8723094" lon="7.8823547"><ele>62.333333333333336</ele><time>2026-04-30T08:22:37.706Z</time></trkpt><trkpt lat="33.8722999" lon="7.8822434"><ele>62.16666666666667</ele><time>2026-04-30T08:22:38.699Z</time></trkpt><trkpt lat="33.8722872" lon="7.8821345"><ele>62.0</ele><time>2026-04-30T08:22:39.693Z</time></trkpt><trkpt lat="33.8722766" lon="7.8820335"><ele>62.00000000000001</ele><time>2026-04-30T08:22:40.697Z</time></trkpt><trkpt lat="33.8722613" lon="7.8819313"><ele>62.0</ele><time>2026-04-30T08:22:41.691Z</time></trkpt><trkpt lat="33.8722486" lon="7.8818383"><ele>62.0</ele><time>2026-04-30T08:22:42.686Z</time></trkpt><trkpt lat="33.8722353" lon="7.8817454"><ele>62.0</ele><time>2026-04-30T08:22:43.697Z</time></trkpt><trkpt lat="33.8722227" lon="7.8816557"><ele>62.00000000000001</ele><time>2026-04-30T08:22:44.662Z</time></trkpt><trkpt lat="33.872214" lon="7.8815607"><ele>62.0</ele><time>2026-04-30T08:22:45.663Z</time></trkpt><trkpt lat="33.8722052" lon="7.8814689"><ele>60.833333333333336</ele><time>2026-04-30T08:22:46.67Z</time></trkpt><trkpt lat="33.8721902" lon="7.8813772"><ele>59.66666666666667</ele><time>2026-04-30T08:22:47.668Z</time></trkpt><trkpt lat="33.8721732" lon="7.8812777"><ele>58.5</ele><time>2026-04-30T08:22:48.669Z</time></trkpt><trkpt lat="33.8721491" lon="7.8811702"><ele>57.33333333333333</ele><time>2026-04-30T08:22:49.658Z</time></trkpt><trkpt lat="33.8721262" lon="7.8810797"><ele>56.166666666666664</ele><time>2026-04-30T08:22:50.663Z</time></trkpt><trkpt lat="33.8721057" lon="7.8809936"><ele>55.0</ele><time>2026-04-30T08:22:51.663Z</time></trkpt><trkpt lat="33.8720848" lon="7.8809137"><ele>54.666666666666664</ele><time>2026-04-30T08:22:52.659Z</time></trkpt><trkpt lat="33.8720617" lon="7.8808384"><ele>54.33333333333333</ele><time>2026-04-30T08:22:53.665Z</time></trkpt><trkpt lat="33.8720078" lon="7.880718"><ele>54.0</ele><time>2026-04-30T08:22:55.664Z</time></trkpt><trkpt lat="33.8719444" lon="7.8805858"><ele>53.66666666666667</ele><time>2026-04-30T08:22:57.669Z</time></trkpt><trkpt lat="33.8719029" lon="7.8805168"><ele>53.333333333333336</ele><time>2026-04-30T08:22:58.66Z</time></trkpt><trkpt lat="33.8718625" lon="7.8804466"><ele>53.0</ele><time>2026-04-30T08:22:59.666Z</time></trkpt><trkpt lat="33.8718162" lon="7.880379"><ele>53.16666666666667</ele><time>2026-04-30T08:23:00.669Z</time></trkpt><trkpt lat="33.8717691" lon="7.8803204"><ele>53.333333333333336</ele><time>2026-04-30T08:23:01.658Z</time></trkpt><trkpt lat="33.8717134" lon="7.8802569"><ele>53.5</ele><time>2026-04-30T08:23:02.672Z</time></trkpt><trkpt lat="33.8716552" lon="7.8801921"><ele>53.66666666666667</ele><time>2026-04-30T08:23:03.667Z</time></trkpt><trkpt lat="33.8715985" lon="7.8801359"><ele>53.833333333333336</ele><time>2026-04-30T08:23:04.678Z</time></trkpt><trkpt lat="33.8715404" lon="7.8800688"><ele>54.0</ele><time>2026-04-30T08:23:05.656Z</time></trkpt><trkpt lat="33.8714863" lon="7.8799973"><ele>54.333333333333336</ele><time>2026-04-30T08:23:06.663Z</time></trkpt><trkpt lat="33.8714348" lon="7.8799247"><ele>54.66666666666667</ele><time>2026-04-30T08:23:07.655Z</time></trkpt><trkpt lat="33.8713819" lon="7.8798392"><ele>55.0</ele><time>2026-04-30T08:23:08.656Z</time></trkpt><trkpt lat="33.8713322" lon="7.8797531"><ele>55.333333333333336</ele><time>2026-04-30T08:23:09.66Z</time></trkpt><trkpt lat="33.8712802" lon="7.8796675"><ele>55.66666666666667</ele><time>2026-04-30T08:23:10.672Z</time></trkpt><trkpt lat="33.8712214" lon="7.8795861"><ele>56.0</ele><time>2026-04-30T08:23:11.665Z</time></trkpt><trkpt lat="33.8711583" lon="7.8795019"><ele>56.0</ele><time>2026-04-30T08:23:12.664Z</time></trkpt><trkpt lat="33.8711021" lon="7.8794195"><ele>55.99999999999999</ele><time>2026-04-30T08:23:13.674Z</time></trkpt><trkpt lat="33.8710512" lon="7.8793349"><ele>55.99999999999999</ele><time>2026-04-30T08:23:14.662Z</time></trkpt><trkpt lat="33.870999" lon="7.8792542"><ele>56.0</ele><time>2026-04-30T08:23:15.666Z</time></trkpt><trkpt lat="33.8709526" lon="7.8791564"><ele>56.0</ele><time>2026-04-30T08:23:16.666Z</time></trkpt><trkpt lat="33.8709009" lon="7.8790558"><ele>56.599999999999994</ele><time>2026-04-30T08:23:17.659Z</time></trkpt><trkpt lat="33.8708585" lon="7.8789397"><ele>57.199999999999996</ele><time>2026-04-30T08:23:18.66Z</time></trkpt><trkpt lat="33.8708081" lon="7.8788351"><ele>57.800000000000004</ele><time>2026-04-30T08:23:19.663Z</time></trkpt><trkpt lat="33.870757" lon="7.878728"><ele>58.400000000000006</ele><time>2026-04-30T08:23:20.67Z</time></trkpt><trkpt lat="33.8706988" lon="7.8786141"><ele>59.0</ele><time>2026-04-30T08:23:21.67Z</time></trkpt><trkpt lat="33.870643" lon="7.8784966"><ele>59.0</ele><time>2026-04-30T08:23:22.671Z</time></trkpt><trkpt lat="33.8705875" lon="7.8783689"><ele>59.0</ele><time>2026-04-30T08:23:23.676Z</time></trkpt><trkpt lat="33.8705321" lon="7.8782313"><ele>59.0</ele><time>2026-04-30T08:23:24.662Z</time></trkpt><trkpt lat="33.8704869" lon="7.8780959"><ele>59.0</ele><time>2026-04-30T08:23:25.666Z</time></trkpt><trkpt lat="33.8704407" lon="7.8779466"><ele>59.0</ele><time>2026-04-30T08:23:26.66Z</time></trkpt><trkpt lat="33.870396" lon="7.877806"><ele>59.0</ele><time>2026-04-30T08:23:27.659Z</time></trkpt><trkpt lat="33.8703607" lon="7.8776713"><ele>59.0</ele><time>2026-04-30T08:23:28.658Z</time></trkpt><trkpt lat="33.8703391" lon="7.8775295"><ele>59.0</ele><time>2026-04-30T08:23:29.658Z</time></trkpt><trkpt lat="33.8703191" lon="7.8773872"><ele>58.25</ele><time>2026-04-30T08:23:30.659Z</time></trkpt><trkpt lat="33.8703052" lon="7.8772429"><ele>57.5</ele><time>2026-04-30T08:23:31.659Z</time></trkpt><trkpt lat="33.8702964" lon="7.876986"><ele>56.75</ele><time>2026-04-30T08:23:33.651Z</time></trkpt><trkpt lat="33.8702946" lon="7.8768727"><ele>56.0</ele><time>2026-04-30T08:23:34.658Z</time></trkpt><trkpt lat="33.8702921" lon="7.8767809"><ele>56.0</ele><time>2026-04-30T08:23:35.666Z</time></trkpt><trkpt lat="33.8702897" lon="7.8766928"><ele>55.99999999999999</ele><time>2026-04-30T08:23:36.66Z</time></trkpt><trkpt lat="33.8702876" lon="7.8765957"><ele>55.99999999999999</ele><time>2026-04-30T08:23:37.656Z</time></trkpt><trkpt lat="33.8702816" lon="7.8764843"><ele>56.0</ele><time>2026-04-30T08:23:38.666Z</time></trkpt><trkpt lat="33.8702691" lon="7.8763644"><ele>56.0</ele><time>2026-04-30T08:23:39.671Z</time></trkpt><trkpt lat="33.8702684" lon="7.8762371"><ele>56.0</ele><time>2026-04-30T08:23:40.67Z</time></trkpt><trkpt lat="33.8702671" lon="7.8760997"><ele>56.0</ele><time>2026-04-30T08:23:41.672Z</time></trkpt><trkpt lat="33.8702608" lon="7.8759601"><ele>56.0</ele><time>2026-04-30T08:23:42.656Z</time></trkpt><trkpt lat="33.8702565" lon="7.8758159"><ele>56.0</ele><time>2026-04-30T08:23:43.668Z</time></trkpt><trkpt lat="33.8702462" lon="7.8756747"><ele>55.75</ele><time>2026-04-30T08:23:44.664Z</time></trkpt><trkpt lat="33.8702388" lon="7.8755363"><ele>55.5</ele><time>2026-04-30T08:23:45.66Z</time></trkpt><trkpt lat="33.8702303" lon="7.8753892"><ele>55.25</ele><time>2026-04-30T08:23:46.661Z</time></trkpt><trkpt lat="33.8702239" lon="7.8752465"><ele>55.0</ele><time>2026-04-30T08:23:47.663Z</time></trkpt><trkpt lat="33.8702192" lon="7.8751074"><ele>55.75</ele><time>2026-04-30T08:23:48.666Z</time></trkpt><trkpt lat="33.8702136" lon="7.8749664"><ele>56.5</ele><time>2026-04-30T08:23:49.662Z</time></trkpt><trkpt lat="33.8702047" lon="7.8748274"><ele>57.25</ele><time>2026-04-30T08:23:50.663Z</time></trkpt><trkpt lat="33.8701986" lon="7.8746837"><ele>58.0</ele><time>2026-04-30T08:23:51.668Z</time></trkpt><trkpt lat="33.8701864" lon="7.8745336"><ele>58.0</ele><time>2026-04-30T08:23:52.653Z</time></trkpt><trkpt lat="33.8701666" lon="7.874384"><ele>58.0</ele><time>2026-04-30T08:23:53.66Z</time></trkpt><trkpt lat="33.8701549" lon="7.8742162"><ele>58.0</ele><time>2026-04-30T08:23:54.661Z</time></trkpt><trkpt lat="33.8701431" lon="7.8740531"><ele>58.0</ele><time>2026-04-30T08:23:55.652Z</time></trkpt><trkpt lat="33.8701315" lon="7.8738949"><ele>58.5</ele><time>2026-04-30T08:23:56.669Z</time></trkpt><trkpt lat="33.8701212" lon="7.8737375"><ele>59.0</ele><time>2026-04-30T08:23:57.667Z</time></trkpt><trkpt lat="33.8701207" lon="7.873577"><ele>59.5</ele><time>2026-04-30T08:23:58.66Z</time></trkpt><trkpt lat="33.8701124" lon="7.8734147"><ele>60.0</ele><time>2026-04-30T08:23:59.674Z</time></trkpt><trkpt lat="33.8701137" lon="7.8732553"><ele>60.0</ele><time>2026-04-30T08:24:00.659Z</time></trkpt><trkpt lat="33.8701191" lon="7.8730987"><ele>60.0</ele><time>2026-04-30T08:24:01.664Z</time></trkpt><trkpt lat="33.8701268" lon="7.8729496"><ele>60.0</ele><time>2026-04-30T08:24:02.67Z</time></trkpt><trkpt lat="33.8701377" lon="7.8728031"><ele>60.0</ele><time>2026-04-30T08:24:03.668Z</time></trkpt><trkpt lat="33.8701504" lon="7.8726614"><ele>59.5</ele><time>2026-04-30T08:24:04.658Z</time></trkpt><trkpt lat="33.870166" lon="7.8725216"><ele>59.0</ele><time>2026-04-30T08:24:05.676Z</time></trkpt><trkpt lat="33.8701794" lon="7.872384"><ele>58.5</ele><time>2026-04-30T08:24:06.669Z</time></trkpt><trkpt lat="33.8701936" lon="7.8722463"><ele>58.0</ele><time>2026-04-30T08:24:07.662Z</time></trkpt><trkpt lat="33.8702091" lon="7.8721149"><ele>57.99999999999999</ele><time>2026-04-30T08:24:08.663Z</time></trkpt><trkpt lat="33.8702203" lon="7.8719902"><ele>58.0</ele><time>2026-04-30T08:24:09.667Z</time></trkpt><trkpt lat="33.8702301" lon="7.871883"><ele>58.0</ele><time>2026-04-30T08:24:10.66Z</time></trkpt><trkpt lat="33.8702409" lon="7.8717843"><ele>58.0</ele><time>2026-04-30T08:24:11.662Z</time></trkpt><trkpt lat="33.8702491" lon="7.871696"><ele>57.99999999999999</ele><time>2026-04-30T08:24:12.658Z</time></trkpt><trkpt lat="33.8702619" lon="7.8715959"><ele>58.0</ele><time>2026-04-30T08:24:13.654Z</time></trkpt><trkpt lat="33.8702708" lon="7.8714813"><ele>58.4</ele><time>2026-04-30T08:24:14.685Z</time></trkpt><trkpt lat="33.8702766" lon="7.8713664"><ele>58.8</ele><time>2026-04-30T08:24:15.669Z</time></trkpt><trkpt lat="33.8702864" lon="7.8712322"><ele>59.2</ele><time>2026-04-30T08:24:16.659Z</time></trkpt><trkpt lat="33.8703015" lon="7.8710938"><ele>59.6</ele><time>2026-04-30T08:24:17.66Z</time></trkpt><trkpt lat="33.8703168" lon="7.8709606"><ele>60.0</ele><time>2026-04-30T08:24:18.651Z</time></trkpt><trkpt lat="33.8703331" lon="7.8708331"><ele>60.4</ele><time>2026-04-30T08:24:19.658Z</time></trkpt><trkpt lat="33.8703448" lon="7.8707273"><ele>60.8</ele><time>2026-04-30T08:24:20.666Z</time></trkpt><trkpt lat="33.8703526" lon="7.8706347"><ele>61.2</ele><time>2026-04-30T08:24:21.654Z</time></trkpt><trkpt lat="33.8703568" lon="7.8705495"><ele>61.6</ele><time>2026-04-30T08:24:22.66Z</time></trkpt><trkpt lat="33.8703695" lon="7.8703866"><ele>62.0</ele><time>2026-04-30T08:24:24.657Z</time></trkpt><trkpt lat="33.8703824" lon="7.8702749"><ele>62.0</ele><time>2026-04-30T08:24:25.666Z</time></trkpt><trkpt lat="33.8703874" lon="7.8701528"><ele>62.0</ele><time>2026-04-30T08:24:26.666Z</time></trkpt><trkpt lat="33.8703967" lon="7.8700172"><ele>62.0</ele><time>2026-04-30T08:24:27.667Z</time></trkpt><trkpt lat="33.8704055" lon="7.8698675"><ele>62.0</ele><time>2026-04-30T08:24:28.66Z</time></trkpt><trkpt lat="33.870418" lon="7.8697194"><ele>62.400000000000006</ele><time>2026-04-30T08:24:29.677Z</time></trkpt><trkpt lat="33.8704386" lon="7.869581"><ele>62.800000000000004</ele><time>2026-04-30T08:24:30.682Z</time></trkpt><trkpt lat="33.8704546" lon="7.8694762"><ele>63.2</ele><time>2026-04-30T08:24:31.67Z</time></trkpt><trkpt lat="33.8704829" lon="7.8693915"><ele>63.6</ele><time>2026-04-30T08:24:32.669Z</time></trkpt><trkpt lat="33.8705532" lon="7.8692853"><ele>64.0</ele><time>2026-04-30T08:24:34.665Z</time></trkpt><trkpt lat="33.8706784" lon="7.8692899"><ele>63.99999999999999</ele><time>2026-04-30T08:24:36.667Z</time></trkpt><trkpt lat="33.8707629" lon="7.8693065"><ele>64.0</ele><time>2026-04-30T08:24:37.645Z</time></trkpt><trkpt lat="33.8708389" lon="7.8693308"><ele>64.0</ele><time>2026-04-30T08:24:38.668Z</time></trkpt><trkpt lat="33.870923" lon="7.8693598"><ele>64.0</ele><time>2026-04-30T08:24:39.658Z</time></trkpt><trkpt lat="33.8710056" lon="7.8693822"><ele>63.99999999999999</ele><time>2026-04-30T08:24:40.663Z</time></trkpt><trkpt lat="33.8710893" lon="7.8694089"><ele>64.0</ele><time>2026-04-30T08:24:41.658Z</time></trkpt><trkpt lat="33.8711764" lon="7.8694319"><ele>64.4</ele><time>2026-04-30T08:24:42.665Z</time></trkpt><trkpt lat="33.871262" lon="7.8694453"><ele>64.80000000000001</ele><time>2026-04-30T08:24:43.654Z</time></trkpt><trkpt lat="33.8713563" lon="7.8694587"><ele>65.19999999999999</ele><time>2026-04-30T08:24:44.661Z</time></trkpt><trkpt lat="33.8714541" lon="7.8694598"><ele>65.6</ele><time>2026-04-30T08:24:45.652Z</time></trkpt><trkpt lat="33.8715523" lon="7.8694459"><ele>66.0</ele><time>2026-04-30T08:24:46.658Z</time></trkpt><trkpt lat="33.8716471" lon="7.8694225"><ele>66.0</ele><time>2026-04-30T08:24:47.663Z</time></trkpt><trkpt lat="33.8717429" lon="7.8694018"><ele>66.0</ele><time>2026-04-30T08:24:48.661Z</time></trkpt><trkpt lat="33.8718319" lon="7.8693817"><ele>66.0</ele><time>2026-04-30T08:24:49.656Z</time></trkpt><trkpt lat="33.871924" lon="7.8693593"><ele>66.0</ele><time>2026-04-30T08:24:50.661Z</time></trkpt><trkpt lat="33.8720203" lon="7.8693367"><ele>66.0</ele><time>2026-04-30T08:24:51.651Z</time></trkpt><trkpt lat="33.8721201" lon="7.8693136"><ele>66.39999999999999</ele><time>2026-04-30T08:24:52.664Z</time></trkpt><trkpt lat="33.8722195" lon="7.8692889"><ele>66.8</ele><time>2026-04-30T08:24:53.663Z</time></trkpt><trkpt lat="33.8723231" lon="7.8692702"><ele>67.19999999999999</ele><time>2026-04-30T08:24:54.659Z</time></trkpt><trkpt lat="33.872429" lon="7.8692451"><ele>67.6</ele><time>2026-04-30T08:24:55.663Z</time></trkpt><trkpt lat="33.8725359" lon="7.8692215"><ele>68.0</ele><time>2026-04-30T08:24:56.661Z</time></trkpt><trkpt lat="33.8726447" lon="7.8691924"><ele>68.75</ele><time>2026-04-30T08:24:57.659Z</time></trkpt><trkpt lat="33.8727589" lon="7.8691661"><ele>69.5</ele><time>2026-04-30T08:24:58.662Z</time></trkpt><trkpt lat="33.8728814" lon="7.8691383"><ele>70.25</ele><time>2026-04-30T08:24:59.668Z</time></trkpt><trkpt lat="33.873002" lon="7.8691115"><ele>71.0</ele><time>2026-04-30T08:25:00.663Z</time></trkpt><trkpt lat="33.8731229" lon="7.8690883"><ele>71.0</ele><time>2026-04-30T08:25:01.655Z</time></trkpt><trkpt lat="33.8732354" lon="7.8690594"><ele>71.0</ele><time>2026-04-30T08:25:02.655Z</time></trkpt><trkpt lat="33.8733471" lon="7.8690273"><ele>71.0</ele><time>2026-04-30T08:25:03.657Z</time></trkpt><trkpt lat="33.87346" lon="7.8689981"><ele>71.0</ele><time>2026-04-30T08:25:04.671Z</time></trkpt><trkpt lat="33.8735633" lon="7.8689722"><ele>71.5</ele><time>2026-04-30T08:25:05.652Z</time></trkpt><trkpt lat="33.8736588" lon="7.8689501"><ele>72.0</ele><time>2026-04-30T08:25:06.678Z</time></trkpt><trkpt lat="33.8737424" lon="7.8689446"><ele>72.5</ele><time>2026-04-30T08:25:07.679Z</time></trkpt><trkpt lat="33.8738215" lon="7.8689324"><ele>73.0</ele><time>2026-04-30T08:25:08.652Z</time></trkpt><trkpt lat="33.8739062" lon="7.8689159"><ele>73.5</ele><time>2026-04-30T08:25:09.651Z</time></trkpt><trkpt lat="33.8739884" lon="7.8688969"><ele>74.0</ele><time>2026-04-30T08:25:10.649Z</time></trkpt><trkpt lat="33.8740642" lon="7.8688832"><ele>74.0</ele><time>2026-04-30T08:25:11.664Z</time></trkpt><trkpt lat="33.8741466" lon="7.868861"><ele>74.0</ele><time>2026-04-30T08:25:12.686Z</time></trkpt><trkpt lat="33.874236" lon="7.8688453"><ele>74.0</ele><time>2026-04-30T08:25:13.678Z</time></trkpt><trkpt lat="33.8743258" lon="7.8688238"><ele>74.0</ele><time>2026-04-30T08:25:14.655Z</time></trkpt><trkpt lat="33.8744164" lon="7.8688069"><ele>74.0</ele><time>2026-04-30T08:25:15.655Z</time></trkpt><trkpt lat="33.874504" lon="7.8687928"><ele>74.0</ele><time>2026-04-30T08:25:16.662Z</time></trkpt><trkpt lat="33.8746012" lon="7.868771"><ele>74.60000000000001</ele><time>2026-04-30T08:25:17.662Z</time></trkpt><trkpt lat="33.874698" lon="7.8687533"><ele>75.2</ele><time>2026-04-30T08:25:18.665Z</time></trkpt><trkpt lat="33.8747965" lon="7.8687395"><ele>75.80000000000001</ele><time>2026-04-30T08:25:19.663Z</time></trkpt><trkpt lat="33.8748833" lon="7.868722"><ele>76.4</ele><time>2026-04-30T08:25:20.655Z</time></trkpt><trkpt lat="33.8749722" lon="7.8687093"><ele>77.0</ele><time>2026-04-30T08:25:21.664Z</time></trkpt><trkpt lat="33.8750494" lon="7.8686958"><ele>77.66666666666667</ele><time>2026-04-30T08:25:22.663Z</time></trkpt><trkpt lat="33.8751134" lon="7.8686794"><ele>78.33333333333334</ele><time>2026-04-30T08:25:23.664Z</time></trkpt><trkpt lat="33.8752369" lon="7.8686626"><ele>79.0</ele><time>2026-04-30T08:25:25.663Z</time></trkpt><trkpt lat="33.8753027" lon="7.8686532"><ele>79.66666666666667</ele><time>2026-04-30T08:25:26.672Z</time></trkpt><trkpt lat="33.8753805" lon="7.8686388"><ele>80.33333333333333</ele><time>2026-04-30T08:25:27.667Z</time></trkpt><trkpt lat="33.8754656" lon="7.8686343"><ele>81.0</ele><time>2026-04-30T08:25:28.661Z</time></trkpt><trkpt lat="33.8755481" lon="7.8686358"><ele>81.0</ele><time>2026-04-30T08:25:29.672Z</time></trkpt><trkpt lat="33.8756361" lon="7.8686362"><ele>81.0</ele><time>2026-04-30T08:25:30.666Z</time></trkpt><trkpt lat="33.875719" lon="7.8686497"><ele>81.0</ele><time>2026-04-30T08:25:31.663Z</time></trkpt><trkpt lat="33.8757992" lon="7.8686767"><ele>81.0</ele><time>2026-04-30T08:25:32.663Z</time></trkpt><trkpt lat="33.8758771" lon="7.8687068"><ele>81.0</ele><time>2026-04-30T08:25:33.673Z</time></trkpt><trkpt lat="33.875951" lon="7.868752"><ele>81.0</ele><time>2026-04-30T08:25:34.679Z</time></trkpt><trkpt lat="33.8760222" lon="7.868807"><ele>81.33333333333333</ele><time>2026-04-30T08:25:35.668Z</time></trkpt><trkpt lat="33.8760886" lon="7.8688641"><ele>81.66666666666667</ele><time>2026-04-30T08:25:36.665Z</time></trkpt><trkpt lat="33.8761527" lon="7.8689197"><ele>82.0</ele><time>2026-04-30T08:25:37.672Z</time></trkpt><trkpt lat="33.8762196" lon="7.8689867"><ele>82.33333333333334</ele><time>2026-04-30T08:25:38.665Z</time></trkpt><trkpt lat="33.876285" lon="7.8690554"><ele>82.66666666666667</ele><time>2026-04-30T08:25:39.669Z</time></trkpt><trkpt lat="33.8763457" lon="7.8691358"><ele>83.0</ele><time>2026-04-30T08:25:40.667Z</time></trkpt><trkpt lat="33.8764018" lon="7.8692192"><ele>82.83333333333334</ele><time>2026-04-30T08:25:41.662Z</time></trkpt><trkpt lat="33.8764546" lon="7.869293"><ele>82.66666666666667</ele><time>2026-04-30T08:25:42.669Z</time></trkpt><trkpt lat="33.8765048" lon="7.8693567"><ele>82.5</ele><time>2026-04-30T08:25:43.672Z</time></trkpt><trkpt lat="33.8765459" lon="7.8694208"><ele>82.33333333333333</ele><time>2026-04-30T08:25:44.659Z</time></trkpt><trkpt lat="33.8765871" lon="7.8694868"><ele>82.16666666666666</ele><time>2026-04-30T08:25:45.684Z</time></trkpt><trkpt lat="33.8766343" lon="7.869558"><ele>82.0</ele><time>2026-04-30T08:25:46.665Z</time></trkpt><trkpt lat="33.8767032" lon="7.8696638"><ele>82.0</ele><time>2026-04-30T08:25:47.655Z</time></trkpt><trkpt lat="33.8767814" lon="7.8697745"><ele>82.0</ele><time>2026-04-30T08:25:48.663Z</time></trkpt><trkpt lat="33.8768662" lon="7.8698868"><ele>82.0</ele><time>2026-04-30T08:25:49.653Z</time></trkpt><trkpt lat="33.8769518" lon="7.8699942"><ele>82.0</ele><time>2026-04-30T08:25:50.662Z</time></trkpt><trkpt lat="33.8770385" lon="7.8701004"><ele>83.0</ele><time>2026-04-30T08:25:51.676Z</time></trkpt><trkpt lat="33.87713" lon="7.8701974"><ele>84.0</ele><time>2026-04-30T08:25:52.671Z</time></trkpt><trkpt lat="33.877223" lon="7.870283"><ele>85.0</ele><time>2026-04-30T08:25:53.662Z</time></trkpt><trkpt lat="33.877317" lon="7.8703582"><ele>86.0</ele><time>2026-04-30T08:25:54.667Z</time></trkpt><trkpt lat="33.8774156" lon="7.8704254"><ele>86.0</ele><time>2026-04-30T08:25:55.669Z</time></trkpt><trkpt lat="33.8775111" lon="7.8704873"><ele>86.0</ele><time>2026-04-30T08:25:56.689Z</time></trkpt><trkpt lat="33.8776113" lon="7.8705393"><ele>86.0</ele><time>2026-04-30T08:25:57.688Z</time></trkpt><trkpt lat="33.8777079" lon="7.870587"><ele>86.0</ele><time>2026-04-30T08:25:58.678Z</time></trkpt><trkpt lat="33.8777987" lon="7.8706381"><ele>86.0</ele><time>2026-04-30T08:25:59.669Z</time></trkpt><trkpt lat="33.8778909" lon="7.87068"><ele>86.19999999999999</ele><time>2026-04-30T08:26:00.662Z</time></trkpt><trkpt lat="33.8779871" lon="7.8707234"><ele>86.39999999999999</ele><time>2026-04-30T08:26:01.67Z</time></trkpt><trkpt lat="33.8780821" lon="7.8707662"><ele>86.6</ele><time>2026-04-30T08:26:02.666Z</time></trkpt><trkpt lat="33.8781737" lon="7.8708065"><ele>86.8</ele><time>2026-04-30T08:26:03.663Z</time></trkpt><trkpt lat="33.878257" lon="7.8708478"><ele>87.0</ele><time>2026-04-30T08:26:04.667Z</time></trkpt><trkpt lat="33.8783339" lon="7.8708815"><ele>87.0</ele><time>2026-04-30T08:26:05.662Z</time></trkpt><trkpt lat="33.878402" lon="7.8709172"><ele>87.0</ele><time>2026-04-30T08:26:06.688Z</time></trkpt><trkpt lat="33.8784717" lon="7.8709512"><ele>87.0</ele><time>2026-04-30T08:26:07.669Z</time></trkpt><trkpt lat="33.8785494" lon="7.8709844"><ele>87.0</ele><time>2026-04-30T08:26:08.662Z</time></trkpt><trkpt lat="33.8786231" lon="7.8710183"><ele>87.0</ele><time>2026-04-30T08:26:09.661Z</time></trkpt><trkpt lat="33.8786968" lon="7.8710484"><ele>87.0</ele><time>2026-04-30T08:26:10.668Z</time></trkpt><trkpt lat="33.8787549" lon="7.8710808"><ele>87.39999999999999</ele><time>2026-04-30T08:26:11.665Z</time></trkpt><trkpt lat="33.8788503" lon="7.8711306"><ele>87.8</ele><time>2026-04-30T08:26:13.67Z</time></trkpt><trkpt lat="33.8789515" lon="7.8711618"><ele>88.2</ele><time>2026-04-30T08:26:15.662Z</time></trkpt><trkpt lat="33.8790607" lon="7.871192"><ele>88.6</ele><time>2026-04-30T08:26:17.674Z</time></trkpt><trkpt lat="33.8791316" lon="7.8712077"><ele>89.0</ele><time>2026-04-30T08:26:18.657Z</time></trkpt><trkpt lat="33.8792106" lon="7.8712375"><ele>88.75</ele><time>2026-04-30T08:26:19.672Z</time></trkpt><trkpt lat="33.8793015" lon="7.8712784"><ele>88.5</ele><time>2026-04-30T08:26:20.662Z</time></trkpt><trkpt lat="33.8794045" lon="7.8713297"><ele>88.25</ele><time>2026-04-30T08:26:21.685Z</time></trkpt><trkpt lat="33.8795284" lon="7.871391"><ele>88.0</ele><time>2026-04-30T08:26:22.669Z</time></trkpt><trkpt lat="33.8796657" lon="7.8714595"><ele>88.0</ele><time>2026-04-30T08:26:23.667Z</time></trkpt><trkpt lat="33.8798042" lon="7.8715176"><ele>88.0</ele><time>2026-04-30T08:26:24.664Z</time></trkpt><trkpt lat="33.8799526" lon="7.8715869"><ele>88.0</ele><time>2026-04-30T08:26:25.67Z</time></trkpt><trkpt lat="33.8801112" lon="7.8716594"><ele>88.0</ele><time>2026-04-30T08:26:26.689Z</time></trkpt><trkpt lat="33.880257" lon="7.8717271"><ele>88.0</ele><time>2026-04-30T08:26:27.661Z</time></trkpt><trkpt lat="33.8804051" lon="7.8718085"><ele>88.0</ele><time>2026-04-30T08:26:28.666Z</time></trkpt><trkpt lat="33.880553" lon="7.8718883"><ele>89.0</ele><time>2026-04-30T08:26:29.663Z</time></trkpt><trkpt lat="33.8806947" lon="7.8719705"><ele>90.0</ele><time>2026-04-30T08:26:30.665Z</time></trkpt><trkpt lat="33.8808399" lon="7.87205"><ele>91.0</ele><time>2026-04-30T08:26:31.668Z</time></trkpt><trkpt lat="33.8809822" lon="7.872131"><ele>92.0</ele><time>2026-04-30T08:26:32.666Z</time></trkpt><trkpt lat="33.8811196" lon="7.8722119"><ele>93.0</ele><time>2026-04-30T08:26:33.667Z</time></trkpt><trkpt lat="33.8812609" lon="7.8722915"><ele>94.0</ele><time>2026-04-30T08:26:34.66Z</time></trkpt><trkpt lat="33.8813987" lon="7.8723726"><ele>94.0</ele><time>2026-04-30T08:26:35.659Z</time></trkpt><trkpt lat="33.8815346" lon="7.8724508"><ele>94.0</ele><time>2026-04-30T08:26:36.668Z</time></trkpt><trkpt lat="33.8816733" lon="7.8725284"><ele>94.0</ele><time>2026-04-30T08:26:37.664Z</time></trkpt><trkpt lat="33.8818111" lon="7.8726045"><ele>94.75</ele><time>2026-04-30T08:26:38.667Z</time></trkpt><trkpt lat="33.8819527" lon="7.8726789"><ele>95.5</ele><time>2026-04-30T08:26:39.714Z</time></trkpt><trkpt lat="33.8820903" lon="7.8727361"><ele>96.25</ele><time>2026-04-30T08:26:40.664Z</time></trkpt><trkpt lat="33.8822286" lon="7.8727621"><ele>97.0</ele><time>2026-04-30T08:26:41.662Z</time></trkpt><trkpt lat="33.8823737" lon="7.8727663"><ele>97.0</ele><time>2026-04-30T08:26:42.668Z</time></trkpt><trkpt lat="33.8825292" lon="7.8727425"><ele>97.0</ele><time>2026-04-30T08:26:43.667Z</time></trkpt><trkpt lat="33.8826741" lon="7.8726758"><ele>97.0</ele><time>2026-04-30T08:26:44.661Z</time></trkpt><trkpt lat="33.8828215" lon="7.8726046"><ele>96.66666666666667</ele><time>2026-04-30T08:26:45.668Z</time></trkpt><trkpt lat="33.8829636" lon="7.872529"><ele>96.33333333333334</ele><time>2026-04-30T08:26:46.658Z</time></trkpt><trkpt lat="33.8831158" lon="7.8724726"><ele>96.0</ele><time>2026-04-30T08:26:47.687Z</time></trkpt><trkpt lat="33.8832669" lon="7.8724061"><ele>96.0</ele><time>2026-04-30T08:26:48.66Z</time></trkpt><trkpt lat="33.8834174" lon="7.8723437"><ele>96.0</ele><time>2026-04-30T08:26:49.654Z</time></trkpt><trkpt lat="33.8835674" lon="7.8722711"><ele>96.0</ele><time>2026-04-30T08:26:50.667Z</time></trkpt><trkpt lat="33.8837151" lon="7.8721973"><ele>96.33333333333334</ele><time>2026-04-30T08:26:51.665Z</time></trkpt><trkpt lat="33.8838582" lon="7.872124"><ele>96.66666666666667</ele><time>2026-04-30T08:26:52.673Z</time></trkpt><trkpt lat="33.8839896" lon="7.8720271"><ele>97.0</ele><time>2026-04-30T08:26:53.67Z</time></trkpt><trkpt lat="33.8841084" lon="7.8719161"><ele>97.0</ele><time>2026-04-30T08:26:54.677Z</time></trkpt><trkpt lat="33.8842237" lon="7.8717872"><ele>97.0</ele><time>2026-04-30T08:26:55.671Z</time></trkpt><trkpt lat="33.8843338" lon="7.8716369"><ele>97.0</ele><time>2026-04-30T08:26:56.664Z</time></trkpt><trkpt lat="33.8844404" lon="7.8714736"><ele>97.0</ele><time>2026-04-30T08:26:57.689Z</time></trkpt><trkpt lat="33.8845473" lon="7.8713019"><ele>97.0</ele><time>2026-04-30T08:26:58.673Z</time></trkpt><trkpt lat="33.8846649" lon="7.8711438"><ele>97.0</ele><time>2026-04-30T08:26:59.666Z</time></trkpt><trkpt lat="33.8847809" lon="7.8709703"><ele>97.0</ele><time>2026-04-30T08:27:00.677Z</time></trkpt><trkpt lat="33.8848996" lon="7.8708057"><ele>97.0</ele><time>2026-04-30T08:27:01.674Z</time></trkpt><trkpt lat="33.8850182" lon="7.8706355"><ele>97.0</ele><time>2026-04-30T08:27:02.682Z</time></trkpt><trkpt lat="33.8851421" lon="7.8704657"><ele>97.0</ele><time>2026-04-30T08:27:03.664Z</time></trkpt><trkpt lat="33.8852668" lon="7.8702912"><ele>97.0</ele><time>2026-04-30T08:27:04.674Z</time></trkpt><trkpt lat="33.8853918" lon="7.8701152"><ele>97.0</ele><time>2026-04-30T08:27:05.665Z</time></trkpt><trkpt lat="33.8855147" lon="7.8699336"><ele>96.0</ele><time>2026-04-30T08:27:06.664Z</time></trkpt><trkpt lat="33.8856352" lon="7.8697524"><ele>95.0</ele><time>2026-04-30T08:27:07.67Z</time></trkpt><trkpt lat="33.8857636" lon="7.8695781"><ele>94.0</ele><time>2026-04-30T08:27:08.712Z</time></trkpt><trkpt lat="33.8859015" lon="7.8694067"><ele>92.33333333333333</ele><time>2026-04-30T08:27:09.671Z</time></trkpt><trkpt lat="33.8860552" lon="7.8692473"><ele>90.66666666666667</ele><time>2026-04-30T08:27:10.672Z</time></trkpt><trkpt lat="33.8862117" lon="7.8691069"><ele>89.0</ele><time>2026-04-30T08:27:11.665Z</time></trkpt><trkpt lat="33.8863772" lon="7.8689835"><ele>89.0</ele><time>2026-04-30T08:27:12.674Z</time></trkpt><trkpt lat="33.8865487" lon="7.8688712"><ele>89.0</ele><time>2026-04-30T08:27:13.661Z</time></trkpt><trkpt lat="33.8867305" lon="7.8687669"><ele>89.0</ele><time>2026-04-30T08:27:14.665Z</time></trkpt><trkpt lat="33.8869178" lon="7.8686667"><ele>89.66666666666667</ele><time>2026-04-30T08:27:15.66Z</time></trkpt><trkpt lat="33.8871043" lon="7.8685736"><ele>90.33333333333333</ele><time>2026-04-30T08:27:16.669Z</time></trkpt><trkpt lat="33.887291" lon="7.8684738"><ele>91.0</ele><time>2026-04-30T08:27:17.661Z</time></trkpt><trkpt lat="33.8874833" lon="7.8683753"><ele>91.33333333333333</ele><time>2026-04-30T08:27:18.665Z</time></trkpt><trkpt lat="33.8876767" lon="7.86827"><ele>91.66666666666667</ele><time>2026-04-30T08:27:19.66Z</time></trkpt><trkpt lat="33.887874" lon="7.8681655"><ele>92.0</ele><time>2026-04-30T08:27:20.669Z</time></trkpt><trkpt lat="33.8880714" lon="7.868054"><ele>92.0</ele><time>2026-04-30T08:27:21.666Z</time></trkpt><trkpt lat="33.8882709" lon="7.8679461"><ele>92.0</ele><time>2026-04-30T08:27:22.659Z</time></trkpt><trkpt lat="33.8884702" lon="7.8678395"><ele>92.0</ele><time>2026-04-30T08:27:23.665Z</time></trkpt><trkpt lat="33.8886657" lon="7.8677308"><ele>92.33333333333334</ele><time>2026-04-30T08:27:24.701Z</time></trkpt><trkpt lat="33.8888572" lon="7.8676151"><ele>92.66666666666667</ele><time>2026-04-30T08:27:25.655Z</time></trkpt><trkpt lat="33.8890491" lon="7.8674964"><ele>93.0</ele><time>2026-04-30T08:27:26.668Z</time></trkpt><trkpt lat="33.8892439" lon="7.8673851"><ele>92.33333333333333</ele><time>2026-04-30T08:27:27.666Z</time></trkpt><trkpt lat="33.8894312" lon="7.8672686"><ele>91.66666666666666</ele><time>2026-04-30T08:27:28.662Z</time></trkpt><trkpt lat="33.8896196" lon="7.8671488"><ele>91.0</ele><time>2026-04-30T08:27:29.663Z</time></trkpt><trkpt lat="33.8898002" lon="7.8670279"><ele>91.0</ele><time>2026-04-30T08:27:30.668Z</time></trkpt><trkpt lat="33.8899777" lon="7.866901"><ele>91.0</ele><time>2026-04-30T08:27:31.671Z</time></trkpt><trkpt lat="33.8901406" lon="7.866775"><ele>91.0</ele><time>2026-04-30T08:27:32.669Z</time></trkpt><trkpt lat="33.8902901" lon="7.8666672"><ele>90.66666666666666</ele><time>2026-04-30T08:27:33.666Z</time></trkpt><trkpt lat="33.8904361" lon="7.8665869"><ele>90.33333333333333</ele><time>2026-04-30T08:27:34.666Z</time></trkpt><trkpt lat="33.8905832" lon="7.8665383"><ele>90.0</ele><time>2026-04-30T08:27:35.67Z</time></trkpt><trkpt lat="33.8907328" lon="7.8665181"><ele>90.0</ele><time>2026-04-30T08:27:36.669Z</time></trkpt><trkpt lat="33.8908944" lon="7.8665448"><ele>90.0</ele><time>2026-04-30T08:27:37.666Z</time></trkpt><trkpt lat="33.8910511" lon="7.866582"><ele>90.0</ele><time>2026-04-30T08:27:38.659Z</time></trkpt><trkpt lat="33.8912202" lon="7.8666152"><ele>91.0</ele><time>2026-04-30T08:27:39.679Z</time></trkpt><trkpt lat="33.8913895" lon="7.8666467"><ele>92.0</ele><time>2026-04-30T08:27:40.661Z</time></trkpt><trkpt lat="33.8915513" lon="7.8666802"><ele>93.0</ele><time>2026-04-30T08:27:41.667Z</time></trkpt><trkpt lat="33.8917157" lon="7.866703"><ele>93.33333333333333</ele><time>2026-04-30T08:27:42.666Z</time></trkpt><trkpt lat="33.8918809" lon="7.8667311"><ele>93.66666666666666</ele><time>2026-04-30T08:27:43.668Z</time></trkpt><trkpt lat="33.8920434" lon="7.8667505"><ele>94.0</ele><time>2026-04-30T08:27:44.664Z</time></trkpt><trkpt lat="33.892202" lon="7.8667586"><ele>94.0</ele><time>2026-04-30T08:27:45.663Z</time></trkpt><trkpt lat="33.8923591" lon="7.8667643"><ele>94.0</ele><time>2026-04-30T08:27:46.665Z</time></trkpt><trkpt lat="33.8925161" lon="7.8667502"><ele>94.0</ele><time>2026-04-30T08:27:47.67Z</time></trkpt><trkpt lat="33.8926725" lon="7.8667331"><ele>92.66666666666666</ele><time>2026-04-30T08:27:48.665Z</time></trkpt><trkpt lat="33.8928289" lon="7.8667137"><ele>91.33333333333333</ele><time>2026-04-30T08:27:49.662Z</time></trkpt><trkpt lat="33.8929903" lon="7.8666799"><ele>90.0</ele><time>2026-04-30T08:27:50.669Z</time></trkpt><trkpt lat="33.8931594" lon="7.8666372"><ele>90.0</ele><time>2026-04-30T08:27:51.662Z</time></trkpt><trkpt lat="33.8933265" lon="7.8665899"><ele>90.0</ele><time>2026-04-30T08:27:52.668Z</time></trkpt><trkpt lat="33.8934936" lon="7.8665243"><ele>90.0</ele><time>2026-04-30T08:27:53.675Z</time></trkpt><trkpt lat="33.8936612" lon="7.8664476"><ele>90.66666666666667</ele><time>2026-04-30T08:27:54.677Z</time></trkpt><trkpt lat="33.8938269" lon="7.8663658"><ele>91.33333333333334</ele><time>2026-04-30T08:27:55.671Z</time></trkpt><trkpt lat="33.8939993" lon="7.8662851"><ele>92.0</ele><time>2026-04-30T08:27:56.682Z</time></trkpt><trkpt lat="33.8941704" lon="7.8662048"><ele>92.33333333333334</ele><time>2026-04-30T08:27:57.664Z</time></trkpt><trkpt lat="33.8943473" lon="7.8661342"><ele>92.66666666666667</ele><time>2026-04-30T08:27:58.669Z</time></trkpt><trkpt lat="33.8945246" lon="7.8660716"><ele>93.0</ele><time>2026-04-30T08:27:59.661Z</time></trkpt><trkpt lat="33.8947009" lon="7.8660141"><ele>93.0</ele><time>2026-04-30T08:28:00.671Z</time></trkpt><trkpt lat="33.8948796" lon="7.8659609"><ele>93.0</ele><time>2026-04-30T08:28:01.667Z</time></trkpt><trkpt lat="33.8950608" lon="7.8659082"><ele>93.0</ele><time>2026-04-30T08:28:02.659Z</time></trkpt><trkpt lat="33.8952407" lon="7.8658575"><ele>92.33333333333333</ele><time>2026-04-30T08:28:03.673Z</time></trkpt><trkpt lat="33.8954228" lon="7.8657995"><ele>91.66666666666666</ele><time>2026-04-30T08:28:04.666Z</time></trkpt><trkpt lat="33.8956038" lon="7.865739"><ele>91.0</ele><time>2026-04-30T08:28:05.67Z</time></trkpt><trkpt lat="33.8957857" lon="7.8656706"><ele>90.0</ele><time>2026-04-30T08:28:06.67Z</time></trkpt><trkpt lat="33.8959659" lon="7.8655914"><ele>89.0</ele><time>2026-04-30T08:28:07.671Z</time></trkpt><trkpt lat="33.8961442" lon="7.8655075"><ele>88.0</ele><time>2026-04-30T08:28:08.674Z</time></trkpt><trkpt lat="33.8963255" lon="7.8654265"><ele>88.0</ele><time>2026-04-30T08:28:09.658Z</time></trkpt><trkpt lat="33.8965084" lon="7.8653552"><ele>88.0</ele><time>2026-04-30T08:28:10.679Z</time></trkpt><trkpt lat="33.8966923" lon="7.865294"><ele>88.0</ele><time>2026-04-30T08:28:11.664Z</time></trkpt><trkpt lat="33.8968835" lon="7.8652689"><ele>88.33333333333333</ele><time>2026-04-30T08:28:12.665Z</time></trkpt><trkpt lat="33.8970736" lon="7.8652607"><ele>88.66666666666667</ele><time>2026-04-30T08:28:13.659Z</time></trkpt><trkpt lat="33.8972594" lon="7.8652685"><ele>89.0</ele><time>2026-04-30T08:28:14.696Z</time></trkpt><trkpt lat="33.8974472" lon="7.865282"><ele>87.66666666666667</ele><time>2026-04-30T08:28:15.667Z</time></trkpt><trkpt lat="33.8976377" lon="7.8652884"><ele>86.33333333333333</ele><time>2026-04-30T08:28:16.675Z</time></trkpt><trkpt lat="33.8978271" lon="7.8652744"><ele>85.0</ele><time>2026-04-30T08:28:17.667Z</time></trkpt><trkpt lat="33.8980201" lon="7.8652425"><ele>85.0</ele><time>2026-04-30T08:28:18.663Z</time></trkpt><trkpt lat="33.8982175" lon="7.8651944"><ele>85.0</ele><time>2026-04-30T08:28:19.665Z</time></trkpt><trkpt lat="33.8984122" lon="7.8651391"><ele>85.0</ele><time>2026-04-30T08:28:20.669Z</time></trkpt><trkpt lat="33.8986" lon="7.8650723"><ele>84.0</ele><time>2026-04-30T08:28:21.675Z</time></trkpt><trkpt lat="33.8987824" lon="7.8649967"><ele>83.0</ele><time>2026-04-30T08:28:22.666Z</time></trkpt><trkpt lat="33.8989678" lon="7.8649273"><ele>82.0</ele><time>2026-04-30T08:28:23.668Z</time></trkpt><trkpt lat="33.8991555" lon="7.8648586"><ele>82.33333333333333</ele><time>2026-04-30T08:28:24.669Z</time></trkpt><trkpt lat="33.8993465" lon="7.8647947"><ele>82.66666666666667</ele><time>2026-04-30T08:28:25.669Z</time></trkpt><trkpt lat="33.8995376" lon="7.864737"><ele>83.0</ele><time>2026-04-30T08:28:26.657Z</time></trkpt><trkpt lat="33.8997258" lon="7.864692"><ele>83.0</ele><time>2026-04-30T08:28:27.707Z</time></trkpt><trkpt lat="33.899921" lon="7.8646558"><ele>83.0</ele><time>2026-04-30T08:28:28.651Z</time></trkpt><trkpt lat="33.9001155" lon="7.8646289"><ele>83.0</ele><time>2026-04-30T08:28:29.651Z</time></trkpt><trkpt lat="33.9003099" lon="7.8646087"><ele>83.0</ele><time>2026-04-30T08:28:30.656Z</time></trkpt><trkpt lat="33.9005009" lon="7.8645748"><ele>83.0</ele><time>2026-04-30T08:28:31.661Z</time></trkpt><trkpt lat="33.9006809" lon="7.8645159"><ele>83.0</ele><time>2026-04-30T08:28:32.665Z</time></trkpt><trkpt lat="33.9008602" lon="7.8644398"><ele>83.0</ele><time>2026-04-30T08:28:33.669Z</time></trkpt><trkpt lat="33.901042" lon="7.8643559"><ele>83.0</ele><time>2026-04-30T08:28:34.665Z</time></trkpt><trkpt lat="33.9012275" lon="7.8642681"><ele>83.0</ele><time>2026-04-30T08:28:35.675Z</time></trkpt><trkpt lat="33.9014098" lon="7.8641766"><ele>83.0</ele><time>2026-04-30T08:28:36.677Z</time></trkpt><trkpt lat="33.9015963" lon="7.8640901"><ele>83.0</ele><time>2026-04-30T08:28:37.662Z</time></trkpt><trkpt lat="33.9017835" lon="7.8640047"><ele>83.0</ele><time>2026-04-30T08:28:38.667Z</time></trkpt><trkpt lat="33.9019693" lon="7.8639245"><ele>83.0</ele><time>2026-04-30T08:28:39.664Z</time></trkpt><trkpt lat="33.9021577" lon="7.8638462"><ele>83.0</ele><time>2026-04-30T08:28:40.683Z</time></trkpt><trkpt lat="33.9023492" lon="7.8637649"><ele>83.0</ele><time>2026-04-30T08:28:41.657Z</time></trkpt><trkpt lat="33.9025385" lon="7.8636889"><ele>82.66666666666667</ele><time>2026-04-30T08:28:42.66Z</time></trkpt><trkpt lat="33.9027314" lon="7.8636114"><ele>82.33333333333333</ele><time>2026-04-30T08:28:43.661Z</time></trkpt><trkpt lat="33.902922" lon="7.8635332"><ele>82.0</ele><time>2026-04-30T08:28:44.665Z</time></trkpt><trkpt lat="33.9031114" lon="7.8634641"><ele>82.0</ele><time>2026-04-30T08:28:45.67Z</time></trkpt><trkpt lat="33.9033117" lon="7.8634083"><ele>82.0</ele><time>2026-04-30T08:28:46.668Z</time></trkpt><trkpt lat="33.9035086" lon="7.8633743"><ele>82.0</ele><time>2026-04-30T08:28:47.672Z</time></trkpt><trkpt lat="33.9037044" lon="7.86335"><ele>82.0</ele><time>2026-04-30T08:28:48.665Z</time></trkpt><trkpt lat="33.903893" lon="7.8633314"><ele>82.0</ele><time>2026-04-30T08:28:49.667Z</time></trkpt><trkpt lat="33.9040854" lon="7.863294"><ele>82.0</ele><time>2026-04-30T08:28:50.672Z</time></trkpt><trkpt lat="33.904266" lon="7.8632309"><ele>82.33333333333333</ele><time>2026-04-30T08:28:51.688Z</time></trkpt><trkpt lat="33.9044496" lon="7.8631559"><ele>82.66666666666667</ele><time>2026-04-30T08:28:52.666Z</time></trkpt><trkpt lat="33.9046306" lon="7.8630778"><ele>83.0</ele><time>2026-04-30T08:28:53.666Z</time></trkpt><trkpt lat="33.9048037" lon="7.8629937"><ele>83.0</ele><time>2026-04-30T08:28:54.667Z</time></trkpt><trkpt lat="33.90498" lon="7.8629034"><ele>83.0</ele><time>2026-04-30T08:28:55.664Z</time></trkpt><trkpt lat="33.9051559" lon="7.8628091"><ele>83.0</ele><time>2026-04-30T08:28:56.665Z</time></trkpt><trkpt lat="33.9053309" lon="7.8627055"><ele>82.66666666666667</ele><time>2026-04-30T08:28:57.658Z</time></trkpt><trkpt lat="33.9055093" lon="7.8625998"><ele>82.33333333333333</ele><time>2026-04-30T08:28:58.663Z</time></trkpt><trkpt lat="33.9056885" lon="7.8624871"><ele>82.0</ele><time>2026-04-30T08:28:59.665Z</time></trkpt><trkpt lat="33.9058677" lon="7.8623729"><ele>82.0</ele><time>2026-04-30T08:29:00.659Z</time></trkpt><trkpt lat="33.9060403" lon="7.8622558"><ele>82.0</ele><time>2026-04-30T08:29:01.666Z</time></trkpt><trkpt lat="33.9062131" lon="7.862146"><ele>82.0</ele><time>2026-04-30T08:29:02.658Z</time></trkpt><trkpt lat="33.9063808" lon="7.8620373"><ele>82.0</ele><time>2026-04-30T08:29:03.668Z</time></trkpt><trkpt lat="33.9065472" lon="7.8619312"><ele>82.0</ele><time>2026-04-30T08:29:04.663Z</time></trkpt><trkpt lat="33.9067151" lon="7.8618253"><ele>82.0</ele><time>2026-04-30T08:29:05.702Z</time></trkpt><trkpt lat="33.9068729" lon="7.8617235"><ele>81.33333333333333</ele><time>2026-04-30T08:29:06.671Z</time></trkpt><trkpt lat="33.9070278" lon="7.8616257"><ele>80.66666666666667</ele><time>2026-04-30T08:29:07.667Z</time></trkpt><trkpt lat="33.9071801" lon="7.8615267"><ele>80.0</ele><time>2026-04-30T08:29:08.671Z</time></trkpt><trkpt lat="33.9073257" lon="7.8614267"><ele>80.0</ele><time>2026-04-30T08:29:09.667Z</time></trkpt><trkpt lat="33.9074697" lon="7.8613344"><ele>80.0</ele><time>2026-04-30T08:29:10.664Z</time></trkpt><trkpt lat="33.9076119" lon="7.8612395"><ele>80.0</ele><time>2026-04-30T08:29:11.669Z</time></trkpt><trkpt lat="33.9077559" lon="7.861147"><ele>79.66666666666667</ele><time>2026-04-30T08:29:12.671Z</time></trkpt><trkpt lat="33.9078963" lon="7.8610523"><ele>79.33333333333333</ele><time>2026-04-30T08:29:13.668Z</time></trkpt><trkpt lat="33.90804" lon="7.8609485"><ele>79.0</ele><time>2026-04-30T08:29:14.67Z</time></trkpt><trkpt lat="33.9081835" lon="7.8608369"><ele>79.0</ele><time>2026-04-30T08:29:15.656Z</time></trkpt><trkpt lat="33.908333" lon="7.8607246"><ele>79.0</ele><time>2026-04-30T08:29:16.694Z</time></trkpt><trkpt lat="33.9084895" lon="7.8606137"><ele>79.0</ele><time>2026-04-30T08:29:17.666Z</time></trkpt><trkpt lat="33.9086506" lon="7.8605029"><ele>79.0</ele><time>2026-04-30T08:29:18.665Z</time></trkpt><trkpt lat="33.908811" lon="7.8603931"><ele>79.0</ele><time>2026-04-30T08:29:19.664Z</time></trkpt><trkpt lat="33.9089744" lon="7.860278"><ele>79.0</ele><time>2026-04-30T08:29:20.662Z</time></trkpt><trkpt lat="33.9091375" lon="7.8601572"><ele>78.0</ele><time>2026-04-30T08:29:21.662Z</time></trkpt><trkpt lat="33.9092988" lon="7.8600368"><ele>77.0</ele><time>2026-04-30T08:29:22.667Z</time></trkpt><trkpt lat="33.9094606" lon="7.8599186"><ele>76.0</ele><time>2026-04-30T08:29:23.664Z</time></trkpt><trkpt lat="33.9096205" lon="7.8598052"><ele>76.0</ele><time>2026-04-30T08:29:24.671Z</time></trkpt><trkpt lat="33.9097766" lon="7.8596878"><ele>76.0</ele><time>2026-04-30T08:29:25.668Z</time></trkpt><trkpt lat="33.9099336" lon="7.8595711"><ele>76.0</ele><time>2026-04-30T08:29:26.696Z</time></trkpt><trkpt lat="33.9100904" lon="7.8594575"><ele>76.0</ele><time>2026-04-30T08:29:27.66Z</time></trkpt><trkpt lat="33.9102392" lon="7.8593563"><ele>76.0</ele><time>2026-04-30T08:29:28.668Z</time></trkpt><trkpt lat="33.910384" lon="7.8592576"><ele>76.0</ele><time>2026-04-30T08:29:29.67Z</time></trkpt><trkpt lat="33.9105231" lon="7.859152"><ele>76.0</ele><time>2026-04-30T08:29:30.664Z</time></trkpt><trkpt lat="33.9106526" lon="7.8590506"><ele>76.0</ele><time>2026-04-30T08:29:31.656Z</time></trkpt><trkpt lat="33.9107786" lon="7.8589447"><ele>76.0</ele><time>2026-04-30T08:29:32.668Z</time></trkpt><trkpt lat="33.9108939" lon="7.85884"><ele>75.25</ele><time>2026-04-30T08:29:33.668Z</time></trkpt><trkpt lat="33.9110084" lon="7.8587322"><ele>74.5</ele><time>2026-04-30T08:29:34.674Z</time></trkpt><trkpt lat="33.911112" lon="7.8586173"><ele>73.75</ele><time>2026-04-30T08:29:35.657Z</time></trkpt><trkpt lat="33.9112102" lon="7.8585004"><ele>73.0</ele><time>2026-04-30T08:29:36.676Z</time></trkpt><trkpt lat="33.9113025" lon="7.8583657"><ele>72.0</ele><time>2026-04-30T08:29:37.662Z</time></trkpt><trkpt lat="33.911392" lon="7.8582387"><ele>71.0</ele><time>2026-04-30T08:29:38.667Z</time></trkpt><trkpt lat="33.9114836" lon="7.858108"><ele>70.0</ele><time>2026-04-30T08:29:39.659Z</time></trkpt><trkpt lat="33.9115824" lon="7.8579792"><ele>69.0</ele><time>2026-04-30T08:29:40.663Z</time></trkpt><trkpt lat="33.9116802" lon="7.8578478"><ele>68.33333333333333</ele><time>2026-04-30T08:29:41.657Z</time></trkpt><trkpt lat="33.9117778" lon="7.8577105"><ele>67.66666666666666</ele><time>2026-04-30T08:29:42.665Z</time></trkpt><trkpt lat="33.9118765" lon="7.8575727"><ele>67.0</ele><time>2026-04-30T08:29:43.657Z</time></trkpt><trkpt lat="33.9119813" lon="7.8574327"><ele>66.0</ele><time>2026-04-30T08:29:44.66Z</time></trkpt><trkpt lat="33.9120859" lon="7.8572897"><ele>65.0</ele><time>2026-04-30T08:29:45.665Z</time></trkpt><trkpt lat="33.9121957" lon="7.8571487"><ele>64.0</ele><time>2026-04-30T08:29:46.667Z</time></trkpt><trkpt lat="33.9123081" lon="7.8570019"><ele>64.0</ele><time>2026-04-30T08:29:47.756Z</time></trkpt><trkpt lat="33.9124211" lon="7.8568566"><ele>64.0</ele><time>2026-04-30T08:29:48.663Z</time></trkpt><trkpt lat="33.9125407" lon="7.8567045"><ele>64.0</ele><time>2026-04-30T08:29:49.657Z</time></trkpt><trkpt lat="33.9126609" lon="7.8565575"><ele>63.0</ele><time>2026-04-30T08:29:50.659Z</time></trkpt><trkpt lat="33.9127854" lon="7.8564106"><ele>62.0</ele><time>2026-04-30T08:29:51.667Z</time></trkpt><trkpt lat="33.9129035" lon="7.8562666"><ele>61.0</ele><time>2026-04-30T08:29:52.668Z</time></trkpt><trkpt lat="33.9130226" lon="7.8561221"><ele>61.0</ele><time>2026-04-30T08:29:53.669Z</time></trkpt><trkpt lat="33.9131369" lon="7.8559646"><ele>61.0</ele><time>2026-04-30T08:29:54.668Z</time></trkpt><trkpt lat="33.9132506" lon="7.8558101"><ele>61.0</ele><time>2026-04-30T08:29:55.665Z</time></trkpt><trkpt lat="33.9133686" lon="7.8556598"><ele>59.0</ele><time>2026-04-30T08:29:56.666Z</time></trkpt><trkpt lat="33.9134868" lon="7.8555176"><ele>57.0</ele><time>2026-04-30T08:29:57.673Z</time></trkpt><trkpt lat="33.9136126" lon="7.8553746"><ele>55.0</ele><time>2026-04-30T08:29:58.665Z</time></trkpt><trkpt lat="33.9137635" lon="7.8552197"><ele>54.0</ele><time>2026-04-30T08:29:59.666Z</time></trkpt><trkpt lat="33.9139322" lon="7.8550633"><ele>53.0</ele><time>2026-04-30T08:30:00.669Z</time></trkpt><trkpt lat="33.9141237" lon="7.854901"><ele>52.0</ele><time>2026-04-30T08:30:01.666Z</time></trkpt><trkpt lat="33.9143342" lon="7.85474"><ele>52.0</ele><time>2026-04-30T08:30:02.68Z</time></trkpt><trkpt lat="33.9145612" lon="7.8545636"><ele>52.0</ele><time>2026-04-30T08:30:03.664Z</time></trkpt><trkpt lat="33.9147851" lon="7.854373"><ele>51.5</ele><time>2026-04-30T08:30:04.671Z</time></trkpt><trkpt lat="33.915009" lon="7.854157"><ele>51.0</ele><time>2026-04-30T08:30:05.661Z</time></trkpt><trkpt lat="33.9152135" lon="7.8539408"><ele>49.5</ele><time>2026-04-30T08:30:06.669Z</time></trkpt><trkpt lat="33.9154123" lon="7.853727"><ele>48.0</ele><time>2026-04-30T08:30:07.666Z</time></trkpt><trkpt lat="33.9156043" lon="7.8534977"><ele>47.0</ele><time>2026-04-30T08:30:08.666Z</time></trkpt><trkpt lat="33.9157855" lon="7.8532567"><ele>46.0</ele><time>2026-04-30T08:30:09.669Z</time></trkpt><trkpt lat="33.9159658" lon="7.8530009"><ele>45.0</ele><time>2026-04-30T08:30:10.663Z</time></trkpt><trkpt lat="33.9161434" lon="7.8527427"><ele>44.0</ele><time>2026-04-30T08:30:11.671Z</time></trkpt><trkpt lat="33.916307" lon="7.8524962"><ele>42.0</ele><time>2026-04-30T08:30:12.66Z</time></trkpt><trkpt lat="33.9164658" lon="7.8522611"><ele>40.0</ele><time>2026-04-30T08:30:13.667Z</time></trkpt><trkpt lat="33.916614" lon="7.8520375"><ele>41.0</ele><time>2026-04-30T08:30:14.666Z</time></trkpt><trkpt lat="33.9167599" lon="7.8518137"><ele>42.0</ele><time>2026-04-30T08:30:15.66Z</time></trkpt><trkpt lat="33.9169107" lon="7.8515801"><ele>42.0</ele><time>2026-04-30T08:30:16.663Z</time></trkpt><trkpt lat="33.9170641" lon="7.8513445"><ele>42.0</ele><time>2026-04-30T08:30:17.662Z</time></trkpt><trkpt lat="33.9172292" lon="7.8511109"><ele>41.5</ele><time>2026-04-30T08:30:18.668Z</time></trkpt><trkpt lat="33.9173882" lon="7.8508808"><ele>41.0</ele><time>2026-04-30T08:30:19.668Z</time></trkpt><trkpt lat="33.9175573" lon="7.850654"><ele>41.33333333333333</ele><time>2026-04-30T08:30:20.661Z</time></trkpt><trkpt lat="33.9177144" lon="7.8504506"><ele>41.666666666666664</ele><time>2026-04-30T08:30:21.664Z</time></trkpt><trkpt lat="33.9178591" lon="7.8502588"><ele>42.0</ele><time>2026-04-30T08:30:22.664Z</time></trkpt><trkpt lat="33.9179997" lon="7.8500884"><ele>42.0</ele><time>2026-04-30T08:30:23.662Z</time></trkpt><trkpt lat="33.9181365" lon="7.849922"><ele>42.0</ele><time>2026-04-30T08:30:24.665Z</time></trkpt><trkpt lat="33.9182646" lon="7.849776"><ele>42.0</ele><time>2026-04-30T08:30:25.676Z</time></trkpt><trkpt lat="33.9183848" lon="7.8496494"><ele>41.5</ele><time>2026-04-30T08:30:26.661Z</time></trkpt><trkpt lat="33.9184977" lon="7.8495414"><ele>41.0</ele><time>2026-04-30T08:30:27.675Z</time></trkpt><trkpt lat="33.9186235" lon="7.8494574"><ele>40.5</ele><time>2026-04-30T08:30:28.661Z</time></trkpt><trkpt lat="33.9187517" lon="7.8493936"><ele>40.0</ele><time>2026-04-30T08:30:29.669Z</time></trkpt><trkpt lat="33.9188922" lon="7.8493301"><ele>39.333333333333336</ele><time>2026-04-30T08:30:30.662Z</time></trkpt><trkpt lat="33.919043" lon="7.8492728"><ele>38.666666666666664</ele><time>2026-04-30T08:30:31.669Z</time></trkpt><trkpt lat="33.9191939" lon="7.8492156"><ele>38.0</ele><time>2026-04-30T08:30:32.668Z</time></trkpt><trkpt lat="33.9193284" lon="7.849151"><ele>37.666666666666664</ele><time>2026-04-30T08:30:33.688Z</time></trkpt><trkpt lat="33.9194599" lon="7.8490552"><ele>37.333333333333336</ele><time>2026-04-30T08:30:34.671Z</time></trkpt><trkpt lat="33.9195726" lon="7.8489198"><ele>37.0</ele><time>2026-04-30T08:30:35.67Z</time></trkpt><trkpt lat="33.9196839" lon="7.8487303"><ele>37.0</ele><time>2026-04-30T08:30:36.668Z</time></trkpt><trkpt lat="33.9197873" lon="7.8485131"><ele>37.0</ele><time>2026-04-30T08:30:37.667Z</time></trkpt><trkpt lat="33.919877" lon="7.8482851"><ele>37.0</ele><time>2026-04-30T08:30:38.691Z</time></trkpt><trkpt lat="33.9199708" lon="7.8480397"><ele>38.0</ele><time>2026-04-30T08:30:39.661Z</time></trkpt><trkpt lat="33.920091" lon="7.847763"><ele>39.0</ele><time>2026-04-30T08:30:40.662Z</time></trkpt><trkpt lat="33.9202318" lon="7.8474676"><ele>39.5</ele><time>2026-04-30T08:30:41.665Z</time></trkpt><trkpt lat="33.9203859" lon="7.847165"><ele>40.0</ele><time>2026-04-30T08:30:42.671Z</time></trkpt><trkpt lat="33.9205249" lon="7.8468805"><ele>40.0</ele><time>2026-04-30T08:30:43.661Z</time></trkpt><trkpt lat="33.9206588" lon="7.8466168"><ele>40.0</ele><time>2026-04-30T08:30:44.664Z</time></trkpt><trkpt lat="33.92079" lon="7.8463669"><ele>39.333333333333336</ele><time>2026-04-30T08:30:45.668Z</time></trkpt><trkpt lat="33.9209064" lon="7.8461483"><ele>38.666666666666664</ele><time>2026-04-30T08:30:46.654Z</time></trkpt><trkpt lat="33.9209987" lon="7.845989"><ele>38.0</ele><time>2026-04-30T08:30:47.659Z</time></trkpt><trkpt lat="33.9210955" lon="7.8458514"><ele>38.0</ele><time>2026-04-30T08:30:48.657Z</time></trkpt><trkpt lat="33.9212088" lon="7.8457377"><ele>38.0</ele><time>2026-04-30T08:30:49.662Z</time></trkpt><trkpt lat="33.9213382" lon="7.8456412"><ele>38.0</ele><time>2026-04-30T08:30:50.662Z</time></trkpt><trkpt lat="33.9215017" lon="7.8455512"><ele>38.0</ele><time>2026-04-30T08:30:51.654Z</time></trkpt><trkpt lat="33.921689" lon="7.8454449"><ele>38.0</ele><time>2026-04-30T08:30:52.662Z</time></trkpt><trkpt lat="33.9218698" lon="7.8453424"><ele>38.0</ele><time>2026-04-30T08:30:53.655Z</time></trkpt><trkpt lat="33.9220283" lon="7.8452532"><ele>38.33333333333333</ele><time>2026-04-30T08:30:54.681Z</time></trkpt><trkpt lat="33.9221784" lon="7.8451674"><ele>38.666666666666664</ele><time>2026-04-30T08:30:55.66Z</time></trkpt><trkpt lat="33.9223148" lon="7.8450968"><ele>39.0</ele><time>2026-04-30T08:30:56.663Z</time></trkpt><trkpt lat="33.922437" lon="7.8450223"><ele>39.25</ele><time>2026-04-30T08:30:57.66Z</time></trkpt><trkpt lat="33.9225463" lon="7.8449569"><ele>39.5</ele><time>2026-04-30T08:30:58.664Z</time></trkpt><trkpt lat="33.9226499" lon="7.8448959"><ele>39.75</ele><time>2026-04-30T08:30:59.661Z</time></trkpt><trkpt lat="33.9227545" lon="7.8448466"><ele>40.0</ele><time>2026-04-30T08:31:00.655Z</time></trkpt><trkpt lat="33.9228456" lon="7.8447969"><ele>40.0</ele><time>2026-04-30T08:31:01.67Z</time></trkpt><trkpt lat="33.9229424" lon="7.844743"><ele>40.0</ele><time>2026-04-30T08:31:02.679Z</time></trkpt><trkpt lat="33.923037" lon="7.8446953"><ele>40.0</ele><time>2026-04-30T08:31:03.662Z</time></trkpt><trkpt lat="33.9231337" lon="7.8446491"><ele>40.0</ele><time>2026-04-30T08:31:04.668Z</time></trkpt><trkpt lat="33.9232292" lon="7.844612"><ele>40.0</ele><time>2026-04-30T08:31:05.666Z</time></trkpt><trkpt lat="33.923318" lon="7.8445767"><ele>40.4</ele><time>2026-04-30T08:31:06.656Z</time></trkpt><trkpt lat="33.923416" lon="7.8445411"><ele>40.8</ele><time>2026-04-30T08:31:07.658Z</time></trkpt><trkpt lat="33.9235138" lon="7.8445108"><ele>41.2</ele><time>2026-04-30T08:31:08.662Z</time></trkpt><trkpt lat="33.9236152" lon="7.8444763"><ele>41.6</ele><time>2026-04-30T08:31:09.666Z</time></trkpt><trkpt lat="33.9237213" lon="7.8444478"><ele>42.0</ele><time>2026-04-30T08:31:10.664Z</time></trkpt><trkpt lat="33.9238298" lon="7.844425"><ele>42.0</ele><time>2026-04-30T08:31:11.672Z</time></trkpt><trkpt lat="33.9239343" lon="7.8444014"><ele>42.0</ele><time>2026-04-30T08:31:12.66Z</time></trkpt><trkpt lat="33.9240424" lon="7.8443856"><ele>42.0</ele><time>2026-04-30T08:31:13.657Z</time></trkpt><trkpt lat="33.924148" lon="7.8443712"><ele>42.0</ele><time>2026-04-30T08:31:14.666Z</time></trkpt><trkpt lat="33.9242531" lon="7.8443664"><ele>42.0</ele><time>2026-04-30T08:31:15.66Z</time></trkpt><trkpt lat="33.9243626" lon="7.8443543"><ele>42.25</ele><time>2026-04-30T08:31:16.665Z</time></trkpt><trkpt lat="33.9244737" lon="7.8443443"><ele>42.5</ele><time>2026-04-30T08:31:17.674Z</time></trkpt><trkpt lat="33.9245874" lon="7.8443454"><ele>42.75</ele><time>2026-04-30T08:31:18.683Z</time></trkpt><trkpt lat="33.9247025" lon="7.8443397"><ele>43.0</ele><time>2026-04-30T08:31:19.66Z</time></trkpt><trkpt lat="33.9248157" lon="7.8443304"><ele>43.0</ele><time>2026-04-30T08:31:20.666Z</time></trkpt><trkpt lat="33.9249251" lon="7.8443223"><ele>43.0</ele><time>2026-04-30T08:31:21.659Z</time></trkpt><trkpt lat="33.925042" lon="7.8443195"><ele>43.0</ele><time>2026-04-30T08:31:22.665Z</time></trkpt><trkpt lat="33.9251614" lon="7.8443249"><ele>43.0</ele><time>2026-04-30T08:31:23.665Z</time></trkpt><trkpt lat="33.9252817" lon="7.8443389"><ele>43.25</ele><time>2026-04-30T08:31:24.662Z</time></trkpt><trkpt lat="33.9254042" lon="7.8443567"><ele>43.5</ele><time>2026-04-30T08:31:25.659Z</time></trkpt><trkpt lat="33.9255334" lon="7.8443696"><ele>43.75</ele><time>2026-04-30T08:31:26.66Z</time></trkpt><trkpt lat="33.9256628" lon="7.8443786"><ele>44.0</ele><time>2026-04-30T08:31:27.697Z</time></trkpt><trkpt lat="33.925793" lon="7.8443884"><ele>44.25</ele><time>2026-04-30T08:31:28.653Z</time></trkpt><trkpt lat="33.9259248" lon="7.8443924"><ele>44.5</ele><time>2026-04-30T08:31:29.668Z</time></trkpt><trkpt lat="33.9260526" lon="7.8443971"><ele>44.75</ele><time>2026-04-30T08:31:30.649Z</time></trkpt><trkpt lat="33.9261714" lon="7.8444081"><ele>45.0</ele><time>2026-04-30T08:31:31.655Z</time></trkpt><trkpt lat="33.9262877" lon="7.8444222"><ele>45.0</ele><time>2026-04-30T08:31:32.655Z</time></trkpt><trkpt lat="33.9263983" lon="7.8444233"><ele>45.0</ele><time>2026-04-30T08:31:33.656Z</time></trkpt><trkpt lat="33.9265025" lon="7.844427"><ele>45.0</ele><time>2026-04-30T08:31:34.654Z</time></trkpt><trkpt lat="33.9266026" lon="7.8444286"><ele>45.0</ele><time>2026-04-30T08:31:35.673Z</time></trkpt><trkpt lat="33.9267047" lon="7.844419"><ele>45.0</ele><time>2026-04-30T08:31:36.658Z</time></trkpt><trkpt lat="33.9268106" lon="7.8444038"><ele>45.25</ele><time>2026-04-30T08:31:37.674Z</time></trkpt><trkpt lat="33.9269237" lon="7.8443817"><ele>45.5</ele><time>2026-04-30T08:31:38.664Z</time></trkpt><trkpt lat="33.9270405" lon="7.8443535"><ele>45.75</ele><time>2026-04-30T08:31:39.663Z</time></trkpt><trkpt lat="33.9271596" lon="7.8443184"><ele>46.0</ele><time>2026-04-30T08:31:40.692Z</time></trkpt><trkpt lat="33.9272757" lon="7.8442675"><ele>46.0</ele><time>2026-04-30T08:31:41.673Z</time></trkpt><trkpt lat="33.9273972" lon="7.8442024"><ele>46.0</ele><time>2026-04-30T08:31:42.661Z</time></trkpt><trkpt lat="33.9275215" lon="7.8441312"><ele>46.0</ele><time>2026-04-30T08:31:43.666Z</time></trkpt><trkpt lat="33.9276459" lon="7.8440497"><ele>46.0</ele><time>2026-04-30T08:31:44.665Z</time></trkpt><trkpt lat="33.9277646" lon="7.8439433"><ele>46.333333333333336</ele><time>2026-04-30T08:31:45.661Z</time></trkpt><trkpt lat="33.9278814" lon="7.8438204"><ele>46.666666666666664</ele><time>2026-04-30T08:31:46.66Z</time></trkpt><trkpt lat="33.9279893" lon="7.8436961"><ele>47.0</ele><time>2026-04-30T08:31:47.666Z</time></trkpt><trkpt lat="33.9280992" lon="7.8435655"><ele>47.0</ele><time>2026-04-30T08:31:48.662Z</time></trkpt><trkpt lat="33.9282139" lon="7.8434398"><ele>47.0</ele><time>2026-04-30T08:31:49.666Z</time></trkpt><trkpt lat="33.9283301" lon="7.8433174"><ele>47.0</ele><time>2026-04-30T08:31:50.689Z</time></trkpt><trkpt lat="33.928451" lon="7.8431884"><ele>47.0</ele><time>2026-04-30T08:31:51.666Z</time></trkpt><trkpt lat="33.9285767" lon="7.8430587"><ele>47.0</ele><time>2026-04-30T08:31:52.673Z</time></trkpt><trkpt lat="33.928709" lon="7.8429331"><ele>47.0</ele><time>2026-04-30T08:31:53.659Z</time></trkpt><trkpt lat="33.928852" lon="7.8428021"><ele>47.0</ele><time>2026-04-30T08:31:54.664Z</time></trkpt><trkpt lat="33.9289963" lon="7.842671"><ele>47.0</ele><time>2026-04-30T08:31:55.668Z</time></trkpt><trkpt lat="33.9291483" lon="7.842541"><ele>47.0</ele><time>2026-04-30T08:31:56.657Z</time></trkpt><trkpt lat="33.929304" lon="7.8424213"><ele>47.666666666666664</ele><time>2026-04-30T08:31:57.669Z</time></trkpt><trkpt lat="33.9294584" lon="7.8423114"><ele>48.33333333333333</ele><time>2026-04-30T08:31:58.66Z</time></trkpt><trkpt lat="33.9296096" lon="7.8422072"><ele>49.0</ele><time>2026-04-30T08:31:59.682Z</time></trkpt><trkpt lat="33.9297585" lon="7.8420977"><ele>49.0</ele><time>2026-04-30T08:32:00.691Z</time></trkpt><trkpt lat="33.9298985" lon="7.8419962"><ele>49.0</ele><time>2026-04-30T08:32:01.659Z</time></trkpt><trkpt lat="33.9300372" lon="7.841909"><ele>49.0</ele><time>2026-04-30T08:32:02.658Z</time></trkpt><trkpt lat="33.9301799" lon="7.8418335"><ele>48.666666666666664</ele><time>2026-04-30T08:32:03.658Z</time></trkpt><trkpt lat="33.9303337" lon="7.8417751"><ele>48.33333333333333</ele><time>2026-04-30T08:32:04.661Z</time></trkpt><trkpt lat="33.9304979" lon="7.841739"><ele>48.0</ele><time>2026-04-30T08:32:05.675Z</time></trkpt><trkpt lat="33.9306716" lon="7.8416848"><ele>48.0</ele><time>2026-04-30T08:32:06.671Z</time></trkpt><trkpt lat="33.9308392" lon="7.8416121"><ele>48.0</ele><time>2026-04-30T08:32:07.669Z</time></trkpt><trkpt lat="33.9310037" lon="7.8415333"><ele>48.0</ele><time>2026-04-30T08:32:08.662Z</time></trkpt><trkpt lat="33.9311635" lon="7.8414404"><ele>48.33333333333333</ele><time>2026-04-30T08:32:09.692Z</time></trkpt><trkpt lat="33.9313332" lon="7.8413481"><ele>48.666666666666664</ele><time>2026-04-30T08:32:10.688Z</time></trkpt><trkpt lat="33.931498" lon="7.8412548"><ele>49.0</ele><time>2026-04-30T08:32:11.681Z</time></trkpt><trkpt lat="33.9316591" lon="7.8411708"><ele>48.666666666666664</ele><time>2026-04-30T08:32:12.664Z</time></trkpt><trkpt lat="33.9318197" lon="7.8410921"><ele>48.33333333333333</ele><time>2026-04-30T08:32:13.679Z</time></trkpt><trkpt lat="33.9319775" lon="7.8410478"><ele>48.0</ele><time>2026-04-30T08:32:14.669Z</time></trkpt><trkpt lat="33.9321424" lon="7.841024"><ele>48.0</ele><time>2026-04-30T08:32:15.66Z</time></trkpt><trkpt lat="33.9323002" lon="7.8410146"><ele>48.0</ele><time>2026-04-30T08:32:16.662Z</time></trkpt><trkpt lat="33.9324581" lon="7.8409971"><ele>48.0</ele><time>2026-04-30T08:32:17.662Z</time></trkpt><trkpt lat="33.9326125" lon="7.8409679"><ele>46.666666666666664</ele><time>2026-04-30T08:32:18.668Z</time></trkpt><trkpt lat="33.9327676" lon="7.8409224"><ele>45.33333333333333</ele><time>2026-04-30T08:32:19.659Z</time></trkpt><trkpt lat="33.932928" lon="7.8408651"><ele>44.0</ele><time>2026-04-30T08:32:20.691Z</time></trkpt><trkpt lat="33.9330803" lon="7.8407952"><ele>44.0</ele><time>2026-04-30T08:32:21.661Z</time></trkpt><trkpt lat="33.9332317" lon="7.8407068"><ele>44.0</ele><time>2026-04-30T08:32:22.667Z</time></trkpt><trkpt lat="33.9333896" lon="7.8406086"><ele>44.0</ele><time>2026-04-30T08:32:23.668Z</time></trkpt><trkpt lat="33.9335402" lon="7.8405072"><ele>43.666666666666664</ele><time>2026-04-30T08:32:24.666Z</time></trkpt><trkpt lat="33.9336933" lon="7.8404169"><ele>43.333333333333336</ele><time>2026-04-30T08:32:25.675Z</time></trkpt><trkpt lat="33.9338459" lon="7.8403356"><ele>43.0</ele><time>2026-04-30T08:32:26.668Z</time></trkpt><trkpt lat="33.9340005" lon="7.8402653"><ele>43.0</ele><time>2026-04-30T08:32:27.684Z</time></trkpt><trkpt lat="33.9341565" lon="7.8402203"><ele>43.0</ele><time>2026-04-30T08:32:28.661Z</time></trkpt><trkpt lat="33.9343225" lon="7.8401938"><ele>43.0</ele><time>2026-04-30T08:32:29.661Z</time></trkpt><trkpt lat="33.9344952" lon="7.8401813"><ele>41.333333333333336</ele><time>2026-04-30T08:32:30.661Z</time></trkpt><trkpt lat="33.9346778" lon="7.8401732"><ele>39.666666666666664</ele><time>2026-04-30T08:32:31.668Z</time></trkpt><trkpt lat="33.9348436" lon="7.8401652"><ele>38.0</ele><time>2026-04-30T08:32:32.666Z</time></trkpt><trkpt lat="33.935013" lon="7.8401505"><ele>37.33333333333333</ele><time>2026-04-30T08:32:33.668Z</time></trkpt><trkpt lat="33.9351824" lon="7.8401188"><ele>36.666666666666664</ele><time>2026-04-30T08:32:34.654Z</time></trkpt><trkpt lat="33.9353499" lon="7.8400721"><ele>36.0</ele><time>2026-04-30T08:32:35.667Z</time></trkpt><trkpt lat="33.9355199" lon="7.8400222"><ele>36.0</ele><time>2026-04-30T08:32:36.667Z</time></trkpt><trkpt lat="33.9356887" lon="7.8399687"><ele>36.0</ele><time>2026-04-30T08:32:37.662Z</time></trkpt><trkpt lat="33.9358532" lon="7.8399162"><ele>36.0</ele><time>2026-04-30T08:32:38.67Z</time></trkpt><trkpt lat="33.9360187" lon="7.8398702"><ele>35.666666666666664</ele><time>2026-04-30T08:32:39.668Z</time></trkpt><trkpt lat="33.9361803" lon="7.8398425"><ele>35.33333333333333</ele><time>2026-04-30T08:32:40.668Z</time></trkpt><trkpt lat="33.9363377" lon="7.8398298"><ele>35.0</ele><time>2026-04-30T08:32:41.664Z</time></trkpt><trkpt lat="33.9364942" lon="7.8397983"><ele>35.0</ele><time>2026-04-30T08:32:42.655Z</time></trkpt><trkpt lat="33.9366434" lon="7.8397582"><ele>35.0</ele><time>2026-04-30T08:32:43.666Z</time></trkpt><trkpt lat="33.9367908" lon="7.8396962"><ele>35.0</ele><time>2026-04-30T08:32:44.662Z</time></trkpt><trkpt lat="33.9369437" lon="7.8396064"><ele>34.0</ele><time>2026-04-30T08:32:45.66Z</time></trkpt><trkpt lat="33.9371034" lon="7.839489"><ele>33.0</ele><time>2026-04-30T08:32:46.665Z</time></trkpt><trkpt lat="33.9372688" lon="7.8393786"><ele>32.0</ele><time>2026-04-30T08:32:47.659Z</time></trkpt><trkpt lat="33.9374331" lon="7.839276"><ele>31.0</ele><time>2026-04-30T08:32:48.659Z</time></trkpt><trkpt lat="33.9376038" lon="7.8391823"><ele>30.0</ele><time>2026-04-30T08:32:49.659Z</time></trkpt><trkpt lat="33.9377735" lon="7.8390874"><ele>29.0</ele><time>2026-04-30T08:32:50.654Z</time></trkpt><trkpt lat="33.9379471" lon="7.8389993"><ele>29.0</ele><time>2026-04-30T08:32:51.665Z</time></trkpt><trkpt lat="33.93812" lon="7.8389228"><ele>29.0</ele><time>2026-04-30T08:32:52.662Z</time></trkpt><trkpt lat="33.9383012" lon="7.8388597"><ele>29.0</ele><time>2026-04-30T08:32:53.668Z</time></trkpt><trkpt lat="33.9384785" lon="7.8388149"><ele>28.666666666666664</ele><time>2026-04-30T08:32:54.664Z</time></trkpt><trkpt lat="33.9386533" lon="7.8387842"><ele>28.333333333333336</ele><time>2026-04-30T08:32:55.659Z</time></trkpt><trkpt lat="33.9388299" lon="7.8387638"><ele>28.0</ele><time>2026-04-30T08:32:56.662Z</time></trkpt><trkpt lat="33.9390011" lon="7.8387361"><ele>28.0</ele><time>2026-04-30T08:32:57.666Z</time></trkpt><trkpt lat="33.9391728" lon="7.8387076"><ele>28.0</ele><time>2026-04-30T08:32:58.651Z</time></trkpt><trkpt lat="33.9393494" lon="7.8386617"><ele>28.0</ele><time>2026-04-30T08:32:59.657Z</time></trkpt><trkpt lat="33.9395215" lon="7.8386059"><ele>27.333333333333336</ele><time>2026-04-30T08:33:00.667Z</time></trkpt><trkpt lat="33.9396954" lon="7.838541"><ele>26.666666666666664</ele><time>2026-04-30T08:33:01.654Z</time></trkpt><trkpt lat="33.9398711" lon="7.8384725"><ele>26.0</ele><time>2026-04-30T08:33:02.672Z</time></trkpt><trkpt lat="33.9400445" lon="7.8384046"><ele>25.0</ele><time>2026-04-30T08:33:03.661Z</time></trkpt><trkpt lat="33.9402198" lon="7.8383267"><ele>24.0</ele><time>2026-04-30T08:33:04.658Z</time></trkpt><trkpt lat="33.9404008" lon="7.8382536"><ele>23.0</ele><time>2026-04-30T08:33:05.66Z</time></trkpt><trkpt lat="33.9405782" lon="7.8381741"><ele>23.0</ele><time>2026-04-30T08:33:06.663Z</time></trkpt><trkpt lat="33.9407509" lon="7.8380922"><ele>23.0</ele><time>2026-04-30T08:33:07.665Z</time></trkpt><trkpt lat="33.9409209" lon="7.8380083"><ele>23.0</ele><time>2026-04-30T08:33:08.656Z</time></trkpt><trkpt lat="33.9410966" lon="7.8379258"><ele>22.333333333333336</ele><time>2026-04-30T08:33:09.652Z</time></trkpt><trkpt lat="33.9412705" lon="7.8378344"><ele>21.666666666666668</ele><time>2026-04-30T08:33:10.649Z</time></trkpt><trkpt lat="33.9414438" lon="7.8377322"><ele>21.0</ele><time>2026-04-30T08:33:11.651Z</time></trkpt><trkpt lat="33.9416175" lon="7.8376245"><ele>20.333333333333332</ele><time>2026-04-30T08:33:12.657Z</time></trkpt><trkpt lat="33.9417961" lon="7.8375261"><ele>19.666666666666664</ele><time>2026-04-30T08:33:13.657Z</time></trkpt><trkpt lat="33.941971" lon="7.8374292"><ele>19.0</ele><time>2026-04-30T08:33:14.667Z</time></trkpt><trkpt lat="33.9421315" lon="7.8373494"><ele>19.0</ele><time>2026-04-30T08:33:15.658Z</time></trkpt><trkpt lat="33.942305" lon="7.8372832"><ele>19.0</ele><time>2026-04-30T08:33:16.654Z</time></trkpt><trkpt lat="33.9424804" lon="7.8372308"><ele>19.0</ele><time>2026-04-30T08:33:17.664Z</time></trkpt><trkpt lat="33.9426673" lon="7.8372032"><ele>18.333333333333332</ele><time>2026-04-30T08:33:18.662Z</time></trkpt><trkpt lat="33.942854" lon="7.8371757"><ele>17.666666666666668</ele><time>2026-04-30T08:33:19.661Z</time></trkpt><trkpt lat="33.9430361" lon="7.8371365"><ele>17.0</ele><time>2026-04-30T08:33:20.663Z</time></trkpt><trkpt lat="33.9432226" lon="7.8370792"><ele>17.0</ele><time>2026-04-30T08:33:21.665Z</time></trkpt><trkpt lat="33.9434116" lon="7.8370187"><ele>17.0</ele><time>2026-04-30T08:33:22.656Z</time></trkpt><trkpt lat="33.9435981" lon="7.8369589"><ele>17.0</ele><time>2026-04-30T08:33:23.66Z</time></trkpt><trkpt lat="33.9437816" lon="7.8368993"><ele>17.0</ele><time>2026-04-30T08:33:24.656Z</time></trkpt><trkpt lat="33.9439652" lon="7.8368482"><ele>17.0</ele><time>2026-04-30T08:33:25.651Z</time></trkpt><trkpt lat="33.9441513" lon="7.8367944"><ele>17.0</ele><time>2026-04-30T08:33:26.661Z</time></trkpt><trkpt lat="33.9443328" lon="7.8367468"><ele>17.666666666666668</ele><time>2026-04-30T08:33:27.665Z</time></trkpt><trkpt lat="33.9445189" lon="7.8366948"><ele>18.333333333333332</ele><time>2026-04-30T08:33:28.655Z</time></trkpt><trkpt lat="33.9446966" lon="7.8366455"><ele>19.0</ele><time>2026-04-30T08:33:29.653Z</time></trkpt><trkpt lat="33.9448744" lon="7.8365883"><ele>19.0</ele><time>2026-04-30T08:33:30.659Z</time></trkpt><trkpt lat="33.9450525" lon="7.8365304"><ele>19.0</ele><time>2026-04-30T08:33:31.659Z</time></trkpt><trkpt lat="33.9452289" lon="7.8364781"><ele>19.0</ele><time>2026-04-30T08:33:32.654Z</time></trkpt><trkpt lat="33.9454083" lon="7.8364233"><ele>19.0</ele><time>2026-04-30T08:33:33.664Z</time></trkpt><trkpt lat="33.9455775" lon="7.8363703"><ele>19.0</ele><time>2026-04-30T08:33:34.663Z</time></trkpt><trkpt lat="33.9457535" lon="7.8363176"><ele>19.0</ele><time>2026-04-30T08:33:35.669Z</time></trkpt><trkpt lat="33.9459252" lon="7.8362642"><ele>18.0</ele><time>2026-04-30T08:33:36.663Z</time></trkpt><trkpt lat="33.9461038" lon="7.8362221"><ele>17.0</ele><time>2026-04-30T08:33:37.655Z</time></trkpt><trkpt lat="33.946281" lon="7.8361853"><ele>16.0</ele><time>2026-04-30T08:33:38.656Z</time></trkpt><trkpt lat="33.9464616" lon="7.8361532"><ele>16.0</ele><time>2026-04-30T08:33:39.657Z</time></trkpt><trkpt lat="33.9466374" lon="7.8361202"><ele>16.0</ele><time>2026-04-30T08:33:40.666Z</time></trkpt><trkpt lat="33.9468185" lon="7.8360882"><ele>16.0</ele><time>2026-04-30T08:33:41.664Z</time></trkpt><trkpt lat="33.9469971" lon="7.8360523"><ele>16.0</ele><time>2026-04-30T08:33:42.66Z</time></trkpt><trkpt lat="33.9471747" lon="7.836014"><ele>16.0</ele><time>2026-04-30T08:33:43.668Z</time></trkpt><trkpt lat="33.947352" lon="7.8359752"><ele>16.0</ele><time>2026-04-30T08:33:44.659Z</time></trkpt><trkpt lat="33.9475248" lon="7.8359374"><ele>16.333333333333332</ele><time>2026-04-30T08:33:45.664Z</time></trkpt><trkpt lat="33.9477002" lon="7.8358993"><ele>16.666666666666668</ele><time>2026-04-30T08:33:46.663Z</time></trkpt><trkpt lat="33.9478715" lon="7.8358708"><ele>17.0</ele><time>2026-04-30T08:33:47.657Z</time></trkpt><trkpt lat="33.9480404" lon="7.8358369"><ele>17.0</ele><time>2026-04-30T08:33:48.662Z</time></trkpt><trkpt lat="33.9482032" lon="7.8358027"><ele>17.0</ele><time>2026-04-30T08:33:49.669Z</time></trkpt><trkpt lat="33.9483645" lon="7.8357603"><ele>17.0</ele><time>2026-04-30T08:33:50.665Z</time></trkpt><trkpt lat="33.9485191" lon="7.8357092"><ele>17.0</ele><time>2026-04-30T08:33:51.66Z</time></trkpt><trkpt lat="33.9486712" lon="7.8356521"><ele>17.0</ele><time>2026-04-30T08:33:52.66Z</time></trkpt><trkpt lat="33.9488206" lon="7.8355886"><ele>17.0</ele><time>2026-04-30T08:33:53.663Z</time></trkpt><trkpt lat="33.948966" lon="7.8355191"><ele>17.0</ele><time>2026-04-30T08:33:54.665Z</time></trkpt><trkpt lat="33.9490994" lon="7.835452"><ele>17.0</ele><time>2026-04-30T08:33:55.659Z</time></trkpt><trkpt lat="33.9492255" lon="7.8353956"><ele>17.0</ele><time>2026-04-30T08:33:56.659Z</time></trkpt><trkpt lat="33.9493502" lon="7.8353411"><ele>17.0</ele><time>2026-04-30T08:33:57.668Z</time></trkpt><trkpt lat="33.9494854" lon="7.8353034"><ele>16.333333333333336</ele><time>2026-04-30T08:33:58.657Z</time></trkpt><trkpt lat="33.9496341" lon="7.835284"><ele>15.666666666666668</ele><time>2026-04-30T08:33:59.66Z</time></trkpt><trkpt lat="33.9497795" lon="7.8352705"><ele>15.0</ele><time>2026-04-30T08:34:00.655Z</time></trkpt><trkpt lat="33.949936" lon="7.8352716"><ele>13.666666666666666</ele><time>2026-04-30T08:34:01.668Z</time></trkpt><trkpt lat="33.9501021" lon="7.8353116"><ele>12.333333333333332</ele><time>2026-04-30T08:34:02.658Z</time></trkpt><trkpt lat="33.9502839" lon="7.835383"><ele>11.0</ele><time>2026-04-30T08:34:03.656Z</time></trkpt><trkpt lat="33.9504815" lon="7.8355006"><ele>11.0</ele><time>2026-04-30T08:34:04.664Z</time></trkpt><trkpt lat="33.950705" lon="7.8356448"><ele>11.0</ele><time>2026-04-30T08:34:05.659Z</time></trkpt><trkpt lat="33.9509407" lon="7.8358114"><ele>11.0</ele><time>2026-04-30T08:34:06.664Z</time></trkpt><trkpt lat="33.9511876" lon="7.8359867"><ele>11.0</ele><time>2026-04-30T08:34:07.663Z</time></trkpt><trkpt lat="33.9514171" lon="7.8361616"><ele>11.0</ele><time>2026-04-30T08:34:08.659Z</time></trkpt><trkpt lat="33.951628" lon="7.8363321"><ele>11.0</ele><time>2026-04-30T08:34:09.655Z</time></trkpt><trkpt lat="33.9518353" lon="7.8364944"><ele>10.666666666666666</ele><time>2026-04-30T08:34:10.675Z</time></trkpt><trkpt lat="33.9520335" lon="7.8366173"><ele>10.333333333333334</ele><time>2026-04-30T08:34:11.664Z</time></trkpt><trkpt lat="33.9522239" lon="7.836727"><ele>10.0</ele><time>2026-04-30T08:34:12.653Z</time></trkpt><trkpt lat="33.9524088" lon="7.8368277"><ele>10.0</ele><time>2026-04-30T08:34:13.664Z</time></trkpt><trkpt lat="33.9525869" lon="7.8369389"><ele>10.0</ele><time>2026-04-30T08:34:14.682Z</time></trkpt><trkpt lat="33.9527565" lon="7.8370572"><ele>10.0</ele><time>2026-04-30T08:34:15.664Z</time></trkpt><trkpt lat="33.9529137" lon="7.8371793"><ele>10.0</ele><time>2026-04-30T08:34:16.664Z</time></trkpt><trkpt lat="33.9530755" lon="7.8373018"><ele>10.0</ele><time>2026-04-30T08:34:17.658Z</time></trkpt><trkpt lat="33.9532323" lon="7.8374194"><ele>10.0</ele><time>2026-04-30T08:34:18.652Z</time></trkpt><trkpt lat="33.953389" lon="7.837528"><ele>9.333333333333334</ele><time>2026-04-30T08:34:19.662Z</time></trkpt><trkpt lat="33.9535562" lon="7.8376354"><ele>8.666666666666666</ele><time>2026-04-30T08:34:20.659Z</time></trkpt><trkpt lat="33.9537207" lon="7.8377307"><ele>8.0</ele><time>2026-04-30T08:34:21.659Z</time></trkpt><trkpt lat="33.9538959" lon="7.8378192"><ele>8.0</ele><time>2026-04-30T08:34:22.663Z</time></trkpt><trkpt lat="33.9540663" lon="7.8379104"><ele>8.0</ele><time>2026-04-30T08:34:23.658Z</time></trkpt><trkpt lat="33.9542345" lon="7.8380058"><ele>8.0</ele><time>2026-04-30T08:34:24.651Z</time></trkpt><trkpt lat="33.9543998" lon="7.8380933"><ele>8.0</ele><time>2026-04-30T08:34:25.656Z</time></trkpt><trkpt lat="33.9545633" lon="7.8381803"><ele>8.0</ele><time>2026-04-30T08:34:26.654Z</time></trkpt><trkpt lat="33.9547195" lon="7.8382682"><ele>8.0</ele><time>2026-04-30T08:34:27.651Z</time></trkpt><trkpt lat="33.9548777" lon="7.8383713"><ele>8.0</ele><time>2026-04-30T08:34:28.659Z</time></trkpt><trkpt lat="33.9550285" lon="7.8384874"><ele>8.0</ele><time>2026-04-30T08:34:29.668Z</time></trkpt><trkpt lat="33.9551762" lon="7.8386129"><ele>8.0</ele><time>2026-04-30T08:34:30.65Z</time></trkpt><trkpt lat="33.9553278" lon="7.8387355"><ele>8.0</ele><time>2026-04-30T08:34:31.65Z</time></trkpt><trkpt lat="33.9554769" lon="7.8388408"><ele>8.0</ele><time>2026-04-30T08:34:32.657Z</time></trkpt><trkpt lat="33.9556447" lon="7.8389514"><ele>8.0</ele><time>2026-04-30T08:34:33.655Z</time></trkpt><trkpt lat="33.9558165" lon="7.8390352"><ele>7.666666666666666</ele><time>2026-04-30T08:34:34.657Z</time></trkpt><trkpt lat="33.9559925" lon="7.8391097"><ele>7.333333333333334</ele><time>2026-04-30T08:34:35.649Z</time></trkpt><trkpt lat="33.9561693" lon="7.8391687"><ele>7.0</ele><time>2026-04-30T08:34:36.666Z</time></trkpt><trkpt lat="33.9563506" lon="7.8392283"><ele>7.0</ele><time>2026-04-30T08:34:37.661Z</time></trkpt><trkpt lat="33.956528" lon="7.8392906"><ele>7.0</ele><time>2026-04-30T08:34:38.66Z</time></trkpt><trkpt lat="33.956693" lon="7.8393472"><ele>7.0</ele><time>2026-04-30T08:34:39.661Z</time></trkpt><trkpt lat="33.9568535" lon="7.8394141"><ele>7.0</ele><time>2026-04-30T08:34:40.661Z</time></trkpt><trkpt lat="33.9569978" lon="7.8394867"><ele>7.0</ele><time>2026-04-30T08:34:41.663Z</time></trkpt><trkpt lat="33.9571276" lon="7.8395743"><ele>7.0</ele><time>2026-04-30T08:34:42.661Z</time></trkpt><trkpt lat="33.957252" lon="7.8396744"><ele>7.0</ele><time>2026-04-30T08:34:43.665Z</time></trkpt><trkpt lat="33.9573633" lon="7.8397711"><ele>7.0</ele><time>2026-04-30T08:34:44.656Z</time></trkpt><trkpt lat="33.9574736" lon="7.8398661"><ele>7.0</ele><time>2026-04-30T08:34:45.665Z</time></trkpt><trkpt lat="33.9575697" lon="7.8399459"><ele>7.0</ele><time>2026-04-30T08:34:46.657Z</time></trkpt><trkpt lat="33.9576728" lon="7.8400167"><ele>7.25</ele><time>2026-04-30T08:34:47.654Z</time></trkpt><trkpt lat="33.9577909" lon="7.8400711"><ele>7.5</ele><time>2026-04-30T08:34:48.661Z</time></trkpt><trkpt lat="33.9579119" lon="7.8401388"><ele>7.75</ele><time>2026-04-30T08:34:49.655Z</time></trkpt><trkpt lat="33.958045" lon="7.8402034"><ele>8.0</ele><time>2026-04-30T08:34:50.668Z</time></trkpt><trkpt lat="33.9581787" lon="7.8402813"><ele>8.0</ele><time>2026-04-30T08:34:51.661Z</time></trkpt><trkpt lat="33.9583145" lon="7.8403569"><ele>8.0</ele><time>2026-04-30T08:34:52.662Z</time></trkpt><trkpt lat="33.9584478" lon="7.8404394"><ele>8.0</ele><time>2026-04-30T08:34:53.664Z</time></trkpt><trkpt lat="33.9585864" lon="7.8405302"><ele>7.666666666666666</ele><time>2026-04-30T08:34:54.661Z</time></trkpt><trkpt lat="33.9587355" lon="7.8406183"><ele>7.333333333333334</ele><time>2026-04-30T08:34:55.661Z</time></trkpt><trkpt lat="33.9588803" lon="7.840718"><ele>7.0</ele><time>2026-04-30T08:34:56.666Z</time></trkpt><trkpt lat="33.9590194" lon="7.8408266"><ele>7.0</ele><time>2026-04-30T08:34:57.664Z</time></trkpt><trkpt lat="33.9591551" lon="7.8409444"><ele>7.0</ele><time>2026-04-30T08:34:58.659Z</time></trkpt><trkpt lat="33.9592861" lon="7.841075"><ele>7.0</ele><time>2026-04-30T08:34:59.649Z</time></trkpt><trkpt lat="33.9594031" lon="7.8412058"><ele>7.333333333333334</ele><time>2026-04-30T08:35:00.662Z</time></trkpt><trkpt lat="33.9595142" lon="7.8413411"><ele>7.666666666666666</ele><time>2026-04-30T08:35:01.654Z</time></trkpt><trkpt lat="33.9596183" lon="7.8414848"><ele>8.0</ele><time>2026-04-30T08:35:02.647Z</time></trkpt><trkpt lat="33.9597189" lon="7.8416355"><ele>8.0</ele><time>2026-04-30T08:35:03.652Z</time></trkpt><trkpt lat="33.9598199" lon="7.8417866"><ele>8.0</ele><time>2026-04-30T08:35:04.661Z</time></trkpt><trkpt lat="33.9599236" lon="7.8419355"><ele>8.0</ele><time>2026-04-30T08:35:05.663Z</time></trkpt><trkpt lat="33.9600345" lon="7.8420763"><ele>7.25</ele><time>2026-04-30T08:35:06.655Z</time></trkpt><trkpt lat="33.9601514" lon="7.8421923"><ele>6.5</ele><time>2026-04-30T08:35:07.667Z</time></trkpt><trkpt lat="33.9602569" lon="7.8422867"><ele>5.75</ele><time>2026-04-30T08:35:08.658Z</time></trkpt><trkpt lat="33.9603547" lon="7.8423615"><ele>5.0</ele><time>2026-04-30T08:35:09.656Z</time></trkpt><trkpt lat="33.960432" lon="7.8424227"><ele>5.0</ele><time>2026-04-30T08:35:10.651Z</time></trkpt><trkpt lat="33.9604891" lon="7.842472"><ele>5.0</ele><time>2026-04-30T08:35:11.654Z</time></trkpt><trkpt lat="33.9605482" lon="7.8425192"><ele>5.0</ele><time>2026-04-30T08:35:13.657Z</time></trkpt><trkpt lat="33.9606055" lon="7.8425604"><ele>5.0</ele><time>2026-04-30T08:35:41.659Z</time></trkpt><trkpt lat="33.9606638" lon="7.8425954"><ele>5.0</ele><time>2026-04-30T08:36:24.66Z</time></trkpt><trkpt lat="33.9607724" lon="7.8426427"><ele>5.0</ele><time>2026-04-30T08:36:26.666Z</time></trkpt><trkpt lat="33.9608842" lon="7.8427144"><ele>5.142857142857142</ele><time>2026-04-30T08:36:28.666Z</time></trkpt><trkpt lat="33.96094" lon="7.8427587"><ele>5.285714285714286</ele><time>2026-04-30T08:36:29.664Z</time></trkpt><trkpt lat="33.9609989" lon="7.8428063"><ele>5.428571428571429</ele><time>2026-04-30T08:36:30.664Z</time></trkpt><trkpt lat="33.9610594" lon="7.8428566"><ele>5.571428571428571</ele><time>2026-04-30T08:36:31.656Z</time></trkpt><trkpt lat="33.9611177" lon="7.8428978"><ele>5.714285714285714</ele><time>2026-04-30T08:36:32.681Z</time></trkpt><trkpt lat="33.961178" lon="7.8429434"><ele>5.857142857142857</ele><time>2026-04-30T08:36:33.657Z</time></trkpt><trkpt lat="33.9612417" lon="7.8429849"><ele>6.0</ele><time>2026-04-30T08:36:34.655Z</time></trkpt><trkpt lat="33.961309" lon="7.8430297"><ele>6.0</ele><time>2026-04-30T08:36:35.669Z</time></trkpt><trkpt lat="33.9613836" lon="7.8430706"><ele>6.0</ele><time>2026-04-30T08:36:36.663Z</time></trkpt><trkpt lat="33.9614696" lon="7.8431284"><ele>6.0</ele><time>2026-04-30T08:36:37.659Z</time></trkpt><trkpt lat="33.9615543" lon="7.8431839"><ele>6.0</ele><time>2026-04-30T08:36:38.661Z</time></trkpt><trkpt lat="33.961642" lon="7.8432366"><ele>6.0</ele><time>2026-04-30T08:36:39.661Z</time></trkpt><trkpt lat="33.9617399" lon="7.8432989"><ele>6.0</ele><time>2026-04-30T08:36:40.662Z</time></trkpt><trkpt lat="33.9618468" lon="7.8433627"><ele>6.0</ele><time>2026-04-30T08:36:41.659Z</time></trkpt><trkpt lat="33.9619648" lon="7.8434341"><ele>6.0</ele><time>2026-04-30T08:36:42.657Z</time></trkpt><trkpt lat="33.962087" lon="7.8435036"><ele>6.0</ele><time>2026-04-30T08:36:43.66Z</time></trkpt><trkpt lat="33.9622087" lon="7.8435759"><ele>6.0</ele><time>2026-04-30T08:36:44.656Z</time></trkpt><trkpt lat="33.962334" lon="7.8436475"><ele>6.0</ele><time>2026-04-30T08:36:45.661Z</time></trkpt><trkpt lat="33.962458" lon="7.8437183"><ele>6.0</ele><time>2026-04-30T08:36:46.661Z</time></trkpt><trkpt lat="33.9625839" lon="7.843794"><ele>6.0</ele><time>2026-04-30T08:36:47.667Z</time></trkpt><trkpt lat="33.9627144" lon="7.8438696"><ele>6.0</ele><time>2026-04-30T08:36:48.666Z</time></trkpt><trkpt lat="33.9628516" lon="7.8439412"><ele>6.0</ele><time>2026-04-30T08:36:49.665Z</time></trkpt><trkpt lat="33.9629843" lon="7.8440106"><ele>6.0</ele><time>2026-04-30T08:36:50.666Z</time></trkpt><trkpt lat="33.9631204" lon="7.8440823"><ele>6.0</ele><time>2026-04-30T08:36:51.662Z</time></trkpt><trkpt lat="33.9632624" lon="7.8441597"><ele>5.666666666666667</ele><time>2026-04-30T08:36:52.686Z</time></trkpt><trkpt lat="33.9634067" lon="7.8442402"><ele>5.333333333333334</ele><time>2026-04-30T08:36:53.666Z</time></trkpt><trkpt lat="33.9635507" lon="7.8443187"><ele>5.0</ele><time>2026-04-30T08:36:54.665Z</time></trkpt><trkpt lat="33.9636959" lon="7.8443952"><ele>4.666666666666667</ele><time>2026-04-30T08:36:55.664Z</time></trkpt><trkpt lat="33.9638414" lon="7.8444772"><ele>4.333333333333333</ele><time>2026-04-30T08:36:56.659Z</time></trkpt><trkpt lat="33.9639836" lon="7.8445568"><ele>4.0</ele><time>2026-04-30T08:36:57.666Z</time></trkpt><trkpt lat="33.9641258" lon="7.8446408"><ele>3.6666666666666665</ele><time>2026-04-30T08:36:58.661Z</time></trkpt><trkpt lat="33.9642646" lon="7.8447274"><ele>3.333333333333333</ele><time>2026-04-30T08:36:59.666Z</time></trkpt><trkpt lat="33.9644002" lon="7.8448218"><ele>3.0</ele><time>2026-04-30T08:37:00.662Z</time></trkpt><trkpt lat="33.964532" lon="7.8449184"><ele>3.0</ele><time>2026-04-30T08:37:01.663Z</time></trkpt><trkpt lat="33.9646631" lon="7.8450205"><ele>3.0</ele><time>2026-04-30T08:37:02.663Z</time></trkpt><trkpt lat="33.9647915" lon="7.8451171"><ele>3.0</ele><time>2026-04-30T08:37:03.665Z</time></trkpt><trkpt lat="33.9649155" lon="7.8452105"><ele>3.5</ele><time>2026-04-30T08:37:04.657Z</time></trkpt><trkpt lat="33.9650441" lon="7.8453011"><ele>4.0</ele><time>2026-04-30T08:37:05.667Z</time></trkpt><trkpt lat="33.9651666" lon="7.8453858"><ele>4.5</ele><time>2026-04-30T08:37:06.661Z</time></trkpt><trkpt lat="33.965293" lon="7.8454701"><ele>5.0</ele><time>2026-04-30T08:37:07.663Z</time></trkpt><trkpt lat="33.9654212" lon="7.845549"><ele>5.0</ele><time>2026-04-30T08:37:08.658Z</time></trkpt><trkpt lat="33.9655573" lon="7.8456273"><ele>5.0</ele><time>2026-04-30T08:37:09.666Z</time></trkpt><trkpt lat="33.9656998" lon="7.8457032"><ele>5.0</ele><time>2026-04-30T08:37:10.653Z</time></trkpt><trkpt lat="33.9658481" lon="7.8457743"><ele>5.333333333333334</ele><time>2026-04-30T08:37:11.647Z</time></trkpt><trkpt lat="33.9659932" lon="7.8458479"><ele>5.666666666666667</ele><time>2026-04-30T08:37:12.661Z</time></trkpt><trkpt lat="33.9661381" lon="7.8459181"><ele>6.0</ele><time>2026-04-30T08:37:13.65Z</time></trkpt><trkpt lat="33.9662847" lon="7.8459941"><ele>6.0</ele><time>2026-04-30T08:37:14.657Z</time></trkpt><trkpt lat="33.9664406" lon="7.8460746"><ele>6.0</ele><time>2026-04-30T08:37:15.655Z</time></trkpt><trkpt lat="33.9665955" lon="7.846154"><ele>6.0</ele><time>2026-04-30T08:37:16.664Z</time></trkpt><trkpt lat="33.9667548" lon="7.8462336"><ele>5.333333333333333</ele><time>2026-04-30T08:37:17.659Z</time></trkpt><trkpt lat="33.9669206" lon="7.8463115"><ele>4.666666666666666</ele><time>2026-04-30T08:37:18.664Z</time></trkpt><trkpt lat="33.9670815" lon="7.8463834"><ele>4.0</ele><time>2026-04-30T08:37:19.66Z</time></trkpt><trkpt lat="33.9672515" lon="7.8464636"><ele>4.0</ele><time>2026-04-30T08:37:20.66Z</time></trkpt><trkpt lat="33.967419" lon="7.8465407"><ele>4.0</ele><time>2026-04-30T08:37:21.662Z</time></trkpt><trkpt lat="33.9675857" lon="7.8466187"><ele>4.0</ele><time>2026-04-30T08:37:22.668Z</time></trkpt><trkpt lat="33.9677578" lon="7.8466995"><ele>4.0</ele><time>2026-04-30T08:37:23.677Z</time></trkpt><trkpt lat="33.9679292" lon="7.8467801"><ele>4.0</ele><time>2026-04-30T08:37:24.662Z</time></trkpt><trkpt lat="33.9681056" lon="7.846857"><ele>4.0</ele><time>2026-04-30T08:37:25.652Z</time></trkpt><trkpt lat="33.9682853" lon="7.8469422"><ele>3.6666666666666665</ele><time>2026-04-30T08:37:26.656Z</time></trkpt><trkpt lat="33.9684608" lon="7.8470248"><ele>3.333333333333333</ele><time>2026-04-30T08:37:27.665Z</time></trkpt><trkpt lat="33.9686393" lon="7.8471053"><ele>3.0</ele><time>2026-04-30T08:37:28.659Z</time></trkpt><trkpt lat="33.9688198" lon="7.8471932"><ele>3.0</ele><time>2026-04-30T08:37:29.67Z</time></trkpt><trkpt lat="33.9689955" lon="7.8472888"><ele>3.0</ele><time>2026-04-30T08:37:30.659Z</time></trkpt><trkpt lat="33.9691639" lon="7.8473903"><ele>3.0</ele><time>2026-04-30T08:37:31.652Z</time></trkpt><trkpt lat="33.9693369" lon="7.8475024"><ele>3.0</ele><time>2026-04-30T08:37:32.662Z</time></trkpt><trkpt lat="33.9695062" lon="7.847612"><ele>3.0</ele><time>2026-04-30T08:37:33.661Z</time></trkpt><trkpt lat="33.9696758" lon="7.8477148"><ele>3.0</ele><time>2026-04-30T08:37:34.658Z</time></trkpt><trkpt lat="33.9698472" lon="7.8478185"><ele>3.0</ele><time>2026-04-30T08:37:35.661Z</time></trkpt><trkpt lat="33.9700216" lon="7.8479141"><ele>3.0</ele><time>2026-04-30T08:37:36.656Z</time></trkpt><trkpt lat="33.9702034" lon="7.8480099"><ele>3.0</ele><time>2026-04-30T08:37:37.664Z</time></trkpt><trkpt lat="33.9703829" lon="7.848111"><ele>3.0</ele><time>2026-04-30T08:37:38.661Z</time></trkpt><trkpt lat="33.9705635" lon="7.8482107"><ele>3.0</ele><time>2026-04-30T08:37:39.665Z</time></trkpt><trkpt lat="33.9707418" lon="7.8483111"><ele>3.0</ele><time>2026-04-30T08:37:40.649Z</time></trkpt><trkpt lat="33.9709194" lon="7.8484185"><ele>2.6666666666666665</ele><time>2026-04-30T08:37:41.655Z</time></trkpt><trkpt lat="33.9710967" lon="7.8485293"><ele>2.333333333333333</ele><time>2026-04-30T08:37:42.651Z</time></trkpt><trkpt lat="33.9712787" lon="7.8486418"><ele>2.0</ele><time>2026-04-30T08:37:43.653Z</time></trkpt><trkpt lat="33.9714637" lon="7.8487525"><ele>2.0</ele><time>2026-04-30T08:37:44.653Z</time></trkpt><trkpt lat="33.9716447" lon="7.8488618"><ele>2.0</ele><time>2026-04-30T08:37:45.662Z</time></trkpt><trkpt lat="33.9718306" lon="7.8489803"><ele>2.0</ele><time>2026-04-30T08:37:46.67Z</time></trkpt><trkpt lat="33.9720171" lon="7.8490977"><ele>2.0</ele><time>2026-04-30T08:37:47.66Z</time></trkpt><trkpt lat="33.9721923" lon="7.8492213"><ele>2.0</ele><time>2026-04-30T08:37:48.655Z</time></trkpt><trkpt lat="33.9723691" lon="7.8493435"><ele>2.0</ele><time>2026-04-30T08:37:49.658Z</time></trkpt><trkpt lat="33.9725436" lon="7.8494718"><ele>2.0</ele><time>2026-04-30T08:37:50.66Z</time></trkpt><trkpt lat="33.9727181" lon="7.8495997"><ele>2.0</ele><time>2026-04-30T08:37:51.651Z</time></trkpt><trkpt lat="33.9728927" lon="7.8497169"><ele>2.0</ele><time>2026-04-30T08:37:52.658Z</time></trkpt><trkpt lat="33.9730712" lon="7.8498296"><ele>2.0</ele><time>2026-04-30T08:37:53.679Z</time></trkpt><trkpt lat="33.9732508" lon="7.8499299"><ele>2.0</ele><time>2026-04-30T08:37:54.66Z</time></trkpt><trkpt lat="33.9734332" lon="7.8500335"><ele>2.0</ele><time>2026-04-30T08:37:55.654Z</time></trkpt><trkpt lat="33.9736144" lon="7.8501383"><ele>2.0</ele><time>2026-04-30T08:37:56.655Z</time></trkpt><trkpt lat="33.9737958" lon="7.8502332"><ele>2.0</ele><time>2026-04-30T08:37:57.667Z</time></trkpt><trkpt lat="33.9739772" lon="7.8503344"><ele>2.0</ele><time>2026-04-30T08:37:58.666Z</time></trkpt><trkpt lat="33.9741568" lon="7.8504466"><ele>2.333333333333333</ele><time>2026-04-30T08:37:59.736Z</time></trkpt><trkpt lat="33.9743293" lon="7.8505707"><ele>2.6666666666666665</ele><time>2026-04-30T08:38:00.661Z</time></trkpt><trkpt lat="33.9744996" lon="7.8507067"><ele>3.0</ele><time>2026-04-30T08:38:01.652Z</time></trkpt><trkpt lat="33.9746614" lon="7.8508508"><ele>2.3333333333333335</ele><time>2026-04-30T08:38:02.655Z</time></trkpt><trkpt lat="33.9748249" lon="7.8509979"><ele>1.6666666666666665</ele><time>2026-04-30T08:38:03.654Z</time></trkpt><trkpt lat="33.9749873" lon="7.8511397"><ele>1.0</ele><time>2026-04-30T08:38:04.656Z</time></trkpt><trkpt lat="33.9751517" lon="7.8512844"><ele>0.6666666666666666</ele><time>2026-04-30T08:38:05.657Z</time></trkpt><trkpt lat="33.9753174" lon="7.8514239"><ele>0.3333333333333333</ele><time>2026-04-30T08:38:06.666Z</time></trkpt><trkpt lat="33.9754853" lon="7.8515621"><ele>0.0</ele><time>2026-04-30T08:38:07.661Z</time></trkpt><trkpt lat="33.975648" lon="7.8516947"><ele>-0.3333333333333333</ele><time>2026-04-30T08:38:08.684Z</time></trkpt><trkpt lat="33.9758132" lon="7.8518279"><ele>-0.6666666666666666</ele><time>2026-04-30T08:38:09.659Z</time></trkpt><trkpt lat="33.9759784" lon="7.8519574"><ele>-1.0</ele><time>2026-04-30T08:38:10.652Z</time></trkpt><trkpt lat="33.9761448" lon="7.8520875"><ele>-1.0</ele><time>2026-04-30T08:38:11.663Z</time></trkpt><trkpt lat="33.9763095" lon="7.8522152"><ele>-1.0</ele><time>2026-04-30T08:38:12.656Z</time></trkpt><trkpt lat="33.9764699" lon="7.8523433"><ele>-1.0</ele><time>2026-04-30T08:38:13.665Z</time></trkpt><trkpt lat="33.9766292" lon="7.8524655"><ele>0.0</ele><time>2026-04-30T08:38:14.661Z</time></trkpt><trkpt lat="33.9767926" lon="7.8525855"><ele>1.0</ele><time>2026-04-30T08:38:15.663Z</time></trkpt><trkpt lat="33.9769592" lon="7.8526983"><ele>2.0</ele><time>2026-04-30T08:38:16.667Z</time></trkpt><trkpt lat="33.977128" lon="7.8527963"><ele>2.0</ele><time>2026-04-30T08:38:17.663Z</time></trkpt><trkpt lat="33.9772984" lon="7.8528903"><ele>2.0</ele><time>2026-04-30T08:38:18.663Z</time></trkpt><trkpt lat="33.977464" lon="7.8529882"><ele>2.0</ele><time>2026-04-30T08:38:19.665Z</time></trkpt><trkpt lat="33.9776272" lon="7.8530878"><ele>2.0</ele><time>2026-04-30T08:38:20.655Z</time></trkpt><trkpt lat="33.9777901" lon="7.853184"><ele>2.0</ele><time>2026-04-30T08:38:21.666Z</time></trkpt><trkpt lat="33.9779499" lon="7.8532834"><ele>2.0</ele><time>2026-04-30T08:38:22.657Z</time></trkpt><trkpt lat="33.9781044" lon="7.8533927"><ele>1.0</ele><time>2026-04-30T08:38:23.668Z</time></trkpt><trkpt lat="33.978263" lon="7.8535052"><ele>0.0</ele><time>2026-04-30T08:38:24.662Z</time></trkpt><trkpt lat="33.9784175" lon="7.8536207"><ele>-1.0</ele><time>2026-04-30T08:38:25.662Z</time></trkpt><trkpt lat="33.9785755" lon="7.8537325"><ele>-1.0</ele><time>2026-04-30T08:38:26.664Z</time></trkpt><trkpt lat="33.9787326" lon="7.8538408"><ele>-1.0</ele><time>2026-04-30T08:38:27.656Z</time></trkpt><trkpt lat="33.9788905" lon="7.8539465"><ele>-1.0</ele><time>2026-04-30T08:38:28.66Z</time></trkpt><trkpt lat="33.9790518" lon="7.8540475"><ele>-1.0</ele><time>2026-04-30T08:38:29.654Z</time></trkpt><trkpt lat="33.9792228" lon="7.8541405"><ele>-1.0</ele><time>2026-04-30T08:38:30.655Z</time></trkpt><trkpt lat="33.9793956" lon="7.8542197"><ele>-1.0</ele><time>2026-04-30T08:38:31.654Z</time></trkpt><trkpt lat="33.9795742" lon="7.8542898"><ele>-1.0</ele><time>2026-04-30T08:38:32.656Z</time></trkpt><trkpt lat="33.9797517" lon="7.854352"><ele>-1.0</ele><time>2026-04-30T08:38:33.657Z</time></trkpt><trkpt lat="33.9799244" lon="7.8544163"><ele>-1.0</ele><time>2026-04-30T08:38:34.658Z</time></trkpt><trkpt lat="33.9800995" lon="7.8544835"><ele>-1.0</ele><time>2026-04-30T08:38:35.657Z</time></trkpt><trkpt lat="33.9802661" lon="7.8545634"><ele>-1.0</ele><time>2026-04-30T08:38:36.664Z</time></trkpt><trkpt lat="33.9804284" lon="7.8546471"><ele>-1.0</ele><time>2026-04-30T08:38:37.686Z</time></trkpt><trkpt lat="33.9805927" lon="7.8547346"><ele>-1.0</ele><time>2026-04-30T08:38:38.658Z</time></trkpt><trkpt lat="33.9807683" lon="7.8548162"><ele>-1.0</ele><time>2026-04-30T08:38:39.666Z</time></trkpt><trkpt lat="33.9809448" lon="7.8548766"><ele>-1.0</ele><time>2026-04-30T08:38:40.662Z</time></trkpt><trkpt lat="33.9811278" lon="7.8549284"><ele>-0.3333333333333333</ele><time>2026-04-30T08:38:41.657Z</time></trkpt><trkpt lat="33.9813158" lon="7.8549817"><ele>0.3333333333333333</ele><time>2026-04-30T08:38:42.656Z</time></trkpt><trkpt lat="33.9815065" lon="7.8550364"><ele>1.0</ele><time>2026-04-30T08:38:43.664Z</time></trkpt><trkpt lat="33.9816996" lon="7.8550788"><ele>1.0</ele><time>2026-04-30T08:38:44.665Z</time></trkpt><trkpt lat="33.9818968" lon="7.8551129"><ele>1.0</ele><time>2026-04-30T08:38:45.659Z</time></trkpt><trkpt lat="33.9820942" lon="7.8551419"><ele>1.0</ele><time>2026-04-30T08:38:46.656Z</time></trkpt><trkpt lat="33.9823" lon="7.8551707"><ele>0.6666666666666666</ele><time>2026-04-30T08:38:47.668Z</time></trkpt><trkpt lat="33.9825145" lon="7.8551853"><ele>0.3333333333333333</ele><time>2026-04-30T08:38:48.673Z</time></trkpt><trkpt lat="33.9827244" lon="7.8551952"><ele>0.0</ele><time>2026-04-30T08:38:49.661Z</time></trkpt><trkpt lat="33.9829377" lon="7.8551985"><ele>1.0</ele><time>2026-04-30T08:38:50.671Z</time></trkpt><trkpt lat="33.9831533" lon="7.8552015"><ele>2.0</ele><time>2026-04-30T08:38:51.67Z</time></trkpt><trkpt lat="33.9833643" lon="7.8552115"><ele>3.0</ele><time>2026-04-30T08:38:52.662Z</time></trkpt><trkpt lat="33.9835593" lon="7.8552307"><ele>3.666666666666667</ele><time>2026-04-30T08:38:53.666Z</time></trkpt><trkpt lat="33.9837417" lon="7.8552654"><ele>4.333333333333334</ele><time>2026-04-30T08:38:54.663Z</time></trkpt><trkpt lat="33.9839126" lon="7.8553106"><ele>5.0</ele><time>2026-04-30T08:38:55.669Z</time></trkpt><trkpt lat="33.9840744" lon="7.8553514"><ele>4.666666666666667</ele><time>2026-04-30T08:38:56.662Z</time></trkpt><trkpt lat="33.9842262" lon="7.8553765"><ele>4.333333333333333</ele><time>2026-04-30T08:38:57.71Z</time></trkpt><trkpt lat="33.9843785" lon="7.8553689"><ele>4.0</ele><time>2026-04-30T08:38:58.659Z</time></trkpt><trkpt lat="33.9845386" lon="7.8553356"><ele>4.0</ele><time>2026-04-30T08:38:59.665Z</time></trkpt><trkpt lat="33.9847032" lon="7.8552804"><ele>4.0</ele><time>2026-04-30T08:39:00.667Z</time></trkpt><trkpt lat="33.9848625" lon="7.8551853"><ele>4.0</ele><time>2026-04-30T08:39:01.664Z</time></trkpt><trkpt lat="33.9850262" lon="7.855045"><ele>3.0</ele><time>2026-04-30T08:39:02.661Z</time></trkpt><trkpt lat="33.9852014" lon="7.8548929"><ele>2.0</ele><time>2026-04-30T08:39:03.654Z</time></trkpt><trkpt lat="33.985392" lon="7.8547486"><ele>1.0</ele><time>2026-04-30T08:39:04.658Z</time></trkpt><trkpt lat="33.9855946" lon="7.8546043"><ele>1.0</ele><time>2026-04-30T08:39:05.651Z</time></trkpt><trkpt lat="33.9857952" lon="7.8544666"><ele>1.0</ele><time>2026-04-30T08:39:06.656Z</time></trkpt><trkpt lat="33.9859834" lon="7.8543495"><ele>1.0</ele><time>2026-04-30T08:39:07.668Z</time></trkpt><trkpt lat="33.9861595" lon="7.8542406"><ele>0.0</ele><time>2026-04-30T08:39:08.65Z</time></trkpt><trkpt lat="33.9863318" lon="7.8541344"><ele>-1.0</ele><time>2026-04-30T08:39:09.657Z</time></trkpt><trkpt lat="33.9864963" lon="7.8540173"><ele>-2.0</ele><time>2026-04-30T08:39:10.649Z</time></trkpt><trkpt lat="33.9866463" lon="7.8538858"><ele>-1.6666666666666665</ele><time>2026-04-30T08:39:11.672Z</time></trkpt><trkpt lat="33.9867857" lon="7.8537341"><ele>-1.3333333333333333</ele><time>2026-04-30T08:39:12.653Z</time></trkpt><trkpt lat="33.9869117" lon="7.8535568"><ele>-1.0</ele><time>2026-04-30T08:39:13.762Z</time></trkpt><trkpt lat="33.9870312" lon="7.8533488"><ele>-0.6666666666666666</ele><time>2026-04-30T08:39:14.715Z</time></trkpt><trkpt lat="33.9871217" lon="7.8531199"><ele>-0.3333333333333333</ele><time>2026-04-30T08:39:15.715Z</time></trkpt><trkpt lat="33.9872002" lon="7.8528729"><ele>0.0</ele><time>2026-04-30T08:39:16.715Z</time></trkpt><trkpt lat="33.987262" lon="7.8526104"><ele>0.3333333333333333</ele><time>2026-04-30T08:39:17.715Z</time></trkpt><trkpt lat="33.9873052" lon="7.8523463"><ele>0.6666666666666666</ele><time>2026-04-30T08:39:18.703Z</time></trkpt><trkpt lat="33.9873457" lon="7.8520882"><ele>1.0</ele><time>2026-04-30T08:39:19.704Z</time></trkpt><trkpt lat="33.9873926" lon="7.8518337"><ele>1.0</ele><time>2026-04-30T08:39:20.707Z</time></trkpt><trkpt lat="33.9874419" lon="7.8515777"><ele>1.0</ele><time>2026-04-30T08:39:21.713Z</time></trkpt><trkpt lat="33.9874928" lon="7.8513306"><ele>1.0</ele><time>2026-04-30T08:39:22.715Z</time></trkpt><trkpt lat="33.9875482" lon="7.8510983"><ele>0.0</ele><time>2026-04-30T08:39:23.715Z</time></trkpt><trkpt lat="33.9876167" lon="7.8508875"><ele>-1.0</ele><time>2026-04-30T08:39:24.716Z</time></trkpt><trkpt lat="33.9877048" lon="7.8506953"><ele>-2.0</ele><time>2026-04-30T08:39:25.717Z</time></trkpt><trkpt lat="33.9878079" lon="7.850526"><ele>-2.0</ele><time>2026-04-30T08:39:26.708Z</time></trkpt><trkpt lat="33.9879131" lon="7.8503831"><ele>-2.0</ele><time>2026-04-30T08:39:27.708Z</time></trkpt><trkpt lat="33.9880313" lon="7.8502588"><ele>-2.0</ele><time>2026-04-30T08:39:28.71Z</time></trkpt><trkpt lat="33.9881548" lon="7.8501422"><ele>-2.0</ele><time>2026-04-30T08:39:29.716Z</time></trkpt><trkpt lat="33.9882961" lon="7.8500143"><ele>-2.0</ele><time>2026-04-30T08:39:30.717Z</time></trkpt><trkpt lat="33.9884359" lon="7.8498703"><ele>-2.0</ele><time>2026-04-30T08:39:31.701Z</time></trkpt><trkpt lat="33.9885705" lon="7.8497329"><ele>-2.0</ele><time>2026-04-30T08:39:32.711Z</time></trkpt><trkpt lat="33.9887073" lon="7.8495802"><ele>-2.0</ele><time>2026-04-30T08:39:33.71Z</time></trkpt><trkpt lat="33.9888281" lon="7.8494313"><ele>-2.0</ele><time>2026-04-30T08:39:34.711Z</time></trkpt><trkpt lat="33.9889457" lon="7.8492833"><ele>-3.333333333333333</ele><time>2026-04-30T08:39:35.706Z</time></trkpt><trkpt lat="33.9890637" lon="7.8491471"><ele>-4.666666666666667</ele><time>2026-04-30T08:39:36.713Z</time></trkpt><trkpt lat="33.9891745" lon="7.8490167"><ele>-6.0</ele><time>2026-04-30T08:39:37.703Z</time></trkpt><trkpt lat="33.9892788" lon="7.8489032"><ele>-6.0</ele><time>2026-04-30T08:39:38.713Z</time></trkpt><trkpt lat="33.9893792" lon="7.8487969"><ele>-6.0</ele><time>2026-04-30T08:39:39.719Z</time></trkpt><trkpt lat="33.9894719" lon="7.8486957"><ele>-6.0</ele><time>2026-04-30T08:39:40.713Z</time></trkpt><trkpt lat="33.9895572" lon="7.8485954"><ele>-6.0</ele><time>2026-04-30T08:39:41.712Z</time></trkpt><trkpt lat="33.9896373" lon="7.8485023"><ele>-5.333333333333333</ele><time>2026-04-30T08:39:42.706Z</time></trkpt><trkpt lat="33.9897122" lon="7.8484198"><ele>-4.666666666666667</ele><time>2026-04-30T08:39:43.722Z</time></trkpt><trkpt lat="33.9897791" lon="7.848351"><ele>-4.0</ele><time>2026-04-30T08:39:44.725Z</time></trkpt><trkpt lat="33.9898344" lon="7.8482928"><ele>-3.333333333333333</ele><time>2026-04-30T08:39:45.71Z</time></trkpt><trkpt lat="33.9898834" lon="7.8482351"><ele>-2.6666666666666665</ele><time>2026-04-30T08:39:46.72Z</time></trkpt><trkpt lat="33.9899321" lon="7.8481798"><ele>-2.0</ele><time>2026-04-30T08:39:47.711Z</time></trkpt><trkpt lat="33.9899802" lon="7.8481227"><ele>-2.7142857142857144</ele><time>2026-04-30T08:39:48.719Z</time></trkpt><trkpt lat="33.9900272" lon="7.8480657"><ele>-3.4285714285714284</ele><time>2026-04-30T08:39:49.727Z</time></trkpt><trkpt lat="33.9900792" lon="7.8480054"><ele>-4.142857142857142</ele><time>2026-04-30T08:39:50.725Z</time></trkpt><trkpt lat="33.9901347" lon="7.8479357"><ele>-4.857142857142857</ele><time>2026-04-30T08:39:51.717Z</time></trkpt><trkpt lat="33.9901928" lon="7.8478671"><ele>-5.571428571428571</ele><time>2026-04-30T08:39:52.712Z</time></trkpt><trkpt lat="33.9902461" lon="7.8478008"><ele>-6.285714285714286</ele><time>2026-04-30T08:39:53.724Z</time></trkpt><trkpt lat="33.9902969" lon="7.8477401"><ele>-7.0</ele><time>2026-04-30T08:39:54.714Z</time></trkpt><trkpt lat="33.9903572" lon="7.8476842"><ele>-7.0</ele><time>2026-04-30T08:39:55.711Z</time></trkpt><trkpt lat="33.990413" lon="7.8476389"><ele>-6.999999999999999</ele><time>2026-04-30T08:39:56.717Z</time></trkpt><trkpt lat="33.9905096" lon="7.8475538"><ele>-6.999999999999999</ele><time>2026-04-30T08:39:58.714Z</time></trkpt><trkpt lat="33.9905572" lon="7.8475036"><ele>-7.0</ele><time>2026-04-30T08:39:59.737Z</time></trkpt><trkpt lat="33.9906224" lon="7.8473973"><ele>-7.0</ele><time>2026-04-30T08:40:01.716Z</time></trkpt><trkpt lat="33.9906941" lon="7.8472869"><ele>-6.8</ele><time>2026-04-30T08:40:03.715Z</time></trkpt><trkpt lat="33.9907376" lon="7.8472306"><ele>-6.6</ele><time>2026-04-30T08:40:04.706Z</time></trkpt><trkpt lat="33.9907798" lon="7.847173"><ele>-6.3999999999999995</ele><time>2026-04-30T08:40:05.71Z</time></trkpt><trkpt lat="33.9908633" lon="7.8470688"><ele>-6.199999999999999</ele><time>2026-04-30T08:40:07.709Z</time></trkpt><trkpt lat="33.9909331" lon="7.8469617"><ele>-6.0</ele><time>2026-04-30T08:40:09.719Z</time></trkpt><trkpt lat="33.9910245" lon="7.8468458"><ele>-6.0</ele><time>2026-04-30T08:40:11.716Z</time></trkpt><trkpt lat="33.9910806" lon="7.8467617"><ele>-6.0</ele><time>2026-04-30T08:40:12.719Z</time></trkpt><trkpt lat="33.9911397" lon="7.8466721"><ele>-6.0</ele><time>2026-04-30T08:40:13.723Z</time></trkpt><trkpt lat="33.9911938" lon="7.8465857"><ele>-6.0</ele><time>2026-04-30T08:40:14.723Z</time></trkpt><trkpt lat="33.9912468" lon="7.8464988"><ele>-6.0</ele><time>2026-04-30T08:40:15.715Z</time></trkpt><trkpt lat="33.9912981" lon="7.8464215"><ele>-6.0</ele><time>2026-04-30T08:40:16.712Z</time></trkpt><trkpt lat="33.991345" lon="7.8463391"><ele>-6.0</ele><time>2026-04-30T08:40:17.734Z</time></trkpt><trkpt lat="33.9914077" lon="7.8462562"><ele>-6.0</ele><time>2026-04-30T08:40:18.659Z</time></trkpt><trkpt lat="33.9914748" lon="7.8461721"><ele>-6.0</ele><time>2026-04-30T08:40:19.652Z</time></trkpt><trkpt lat="33.9915297" lon="7.8460835"><ele>-6.0</ele><time>2026-04-30T08:40:20.664Z</time></trkpt><trkpt lat="33.9915892" lon="7.8459992"><ele>-6.0</ele><time>2026-04-30T08:40:21.666Z</time></trkpt><trkpt lat="33.9916595" lon="7.8459137"><ele>-6.6</ele><time>2026-04-30T08:40:22.664Z</time></trkpt><trkpt lat="33.9917351" lon="7.8458399"><ele>-7.199999999999999</ele><time>2026-04-30T08:40:23.669Z</time></trkpt><trkpt lat="33.9918003" lon="7.8457605"><ele>-7.800000000000001</ele><time>2026-04-30T08:40:24.657Z</time></trkpt><trkpt lat="33.9918695" lon="7.845679"><ele>-8.4</ele><time>2026-04-30T08:40:25.666Z</time></trkpt><trkpt lat="33.9919295" lon="7.845604"><ele>-9.0</ele><time>2026-04-30T08:40:26.655Z</time></trkpt><trkpt lat="33.9919767" lon="7.8455271"><ele>-9.0</ele><time>2026-04-30T08:40:27.659Z</time></trkpt><trkpt lat="33.9920245" lon="7.8454531"><ele>-9.0</ele><time>2026-04-30T08:40:28.658Z</time></trkpt><trkpt lat="33.9920676" lon="7.8453849"><ele>-9.0</ele><time>2026-04-30T08:40:29.657Z</time></trkpt><trkpt lat="33.9921058" lon="7.8453219"><ele>-9.0</ele><time>2026-04-30T08:40:30.659Z</time></trkpt><trkpt lat="33.9921433" lon="7.8452594"><ele>-9.0</ele><time>2026-04-30T08:40:31.658Z</time></trkpt><trkpt lat="33.9922011" lon="7.8451346"><ele>-9.0</ele><time>2026-04-30T08:40:33.654Z</time></trkpt><trkpt lat="33.9922669" lon="7.8450089"><ele>-9.0</ele><time>2026-04-30T08:40:35.645Z</time></trkpt><trkpt lat="33.9923214" lon="7.844918"><ele>-9.0</ele><time>2026-04-30T08:40:37.651Z</time></trkpt><trkpt lat="33.9923475" lon="7.8448285"><ele>-9.0</ele><time>2026-04-30T08:41:01.66Z</time></trkpt><trkpt lat="33.9924007" lon="7.8447378"><ele>-9.0</ele><time>2026-04-30T08:41:03.662Z</time></trkpt><trkpt lat="33.992454" lon="7.844644"><ele>-9.0</ele><time>2026-04-30T08:41:05.652Z</time></trkpt><trkpt lat="33.9925122" lon="7.8445491"><ele>-9.0</ele><time>2026-04-30T08:41:07.652Z</time></trkpt><trkpt lat="33.9925579" lon="7.84447"><ele>-9.0</ele><time>2026-04-30T08:41:09.659Z</time></trkpt><trkpt lat="33.9925974" lon="7.8444084"><ele>-9.0</ele><time>2026-04-30T08:41:34.667Z</time></trkpt><trkpt lat="33.9926771" lon="7.844333"><ele>-9.0</ele><time>2026-04-30T08:41:37.654Z</time></trkpt><trkpt lat="33.9927387" lon="7.8442521"><ele>-9.0</ele><time>2026-04-30T08:41:39.651Z</time></trkpt><trkpt lat="33.9928094" lon="7.8441654"><ele>-9.0</ele><time>2026-04-30T08:41:41.651Z</time></trkpt><trkpt lat="33.9928907" lon="7.8440918"><ele>-9.2</ele><time>2026-04-30T08:41:43.648Z</time></trkpt><trkpt lat="33.9929804" lon="7.8440162"><ele>-9.4</ele><time>2026-04-30T08:41:45.651Z</time></trkpt><trkpt lat="33.9930726" lon="7.8439499"><ele>-9.6</ele><time>2026-04-30T08:41:47.656Z</time></trkpt><trkpt lat="33.993156" lon="7.8438821"><ele>-9.8</ele><time>2026-04-30T08:41:49.655Z</time></trkpt><trkpt lat="33.9932338" lon="7.843822"><ele>-10.0</ele><time>2026-04-30T08:41:51.655Z</time></trkpt><trkpt lat="33.9933105" lon="7.8437662"><ele>-10.0</ele><time>2026-04-30T08:41:53.66Z</time></trkpt><trkpt lat="33.9933792" lon="7.8437203"><ele>-10.0</ele><time>2026-04-30T08:41:55.661Z</time></trkpt><trkpt lat="33.9934344" lon="7.8436787"><ele>-10.0</ele><time>2026-04-30T08:41:57.658Z</time></trkpt><trkpt lat="33.9934928" lon="7.8436381"><ele>-10.0</ele><time>2026-04-30T08:41:59.664Z</time></trkpt><trkpt lat="33.9935546" lon="7.8435908"><ele>-10.0</ele><time>2026-04-30T08:42:01.656Z</time></trkpt><trkpt lat="33.9936223" lon="7.84354"><ele>-10.0</ele><time>2026-04-30T08:42:03.687Z</time></trkpt><trkpt lat="33.9936826" lon="7.8435035"><ele>-10.0</ele><time>2026-04-30T08:42:05.657Z</time></trkpt><trkpt lat="33.993765" lon="7.8434568"><ele>-9.666666666666668</ele><time>2026-04-30T08:42:08.652Z</time></trkpt><trkpt lat="33.9938347" lon="7.8434314"><ele>-9.333333333333334</ele><time>2026-04-30T08:42:10.676Z</time></trkpt><trkpt lat="33.9939215" lon="7.8434099"><ele>-9.0</ele><time>2026-04-30T08:42:12.657Z</time></trkpt><trkpt lat="33.9940085" lon="7.8433909"><ele>-8.666666666666666</ele><time>2026-04-30T08:42:14.659Z</time></trkpt><trkpt lat="33.9940821" lon="7.8433612"><ele>-8.333333333333332</ele><time>2026-04-30T08:42:16.658Z</time></trkpt><trkpt lat="33.9941561" lon="7.8433447"><ele>-8.0</ele><time>2026-04-30T08:42:18.661Z</time></trkpt><trkpt lat="33.9942292" lon="7.8433335"><ele>-7.999999999999999</ele><time>2026-04-30T08:42:20.677Z</time></trkpt><trkpt lat="33.9943023" lon="7.8433362"><ele>-8.0</ele><time>2026-04-30T08:42:22.659Z</time></trkpt><trkpt lat="33.9943689" lon="7.8433185"><ele>-8.0</ele><time>2026-04-30T08:42:24.657Z</time></trkpt><trkpt lat="33.9944336" lon="7.8432867"><ele>-8.0</ele><time>2026-04-30T08:42:26.662Z</time></trkpt><trkpt lat="33.9945177" lon="7.8432476"><ele>-7.999999999999999</ele><time>2026-04-30T08:42:29.659Z</time></trkpt><trkpt lat="33.99461" lon="7.8432304"><ele>-8.0</ele><time>2026-04-30T08:42:32.656Z</time></trkpt><trkpt lat="33.9946986" lon="7.8432534"><ele>-7.999999999999999</ele><time>2026-04-30T08:42:35.655Z</time></trkpt><trkpt lat="33.9947646" lon="7.843285"><ele>-8.0</ele><time>2026-04-30T08:42:38.66Z</time></trkpt><trkpt lat="33.9948376" lon="7.8433298"><ele>-8.0</ele><time>2026-04-30T08:42:42.665Z</time></trkpt><trkpt lat="33.9949116" lon="7.8433774"><ele>-8.0</ele><time>2026-04-30T08:42:44.676Z</time></trkpt><trkpt lat="33.9949933" lon="7.8434212"><ele>-7.999999999999999</ele><time>2026-04-30T08:42:46.665Z</time></trkpt><trkpt lat="33.9950828" lon="7.8434586"><ele>-8.0</ele><time>2026-04-30T08:42:48.665Z</time></trkpt><trkpt lat="33.9951642" lon="7.8435089"><ele>-7.333333333333333</ele><time>2026-04-30T08:42:50.656Z</time></trkpt><trkpt lat="33.9952202" lon="7.843584"><ele>-6.666666666666666</ele><time>2026-04-30T08:42:52.665Z</time></trkpt><trkpt lat="33.9952565" lon="7.8436628"><ele>-6.0</ele><time>2026-04-30T08:42:54.663Z</time></trkpt><trkpt lat="33.9952499" lon="7.8437617"><ele>-5.333333333333333</ele><time>2026-04-30T08:42:56.683Z</time></trkpt><trkpt lat="33.9952167" lon="7.8438402"><ele>-4.666666666666666</ele><time>2026-04-30T08:42:58.664Z</time></trkpt><trkpt lat="33.9951457" lon="7.8438874"><ele>-4.0</ele><time>2026-04-30T08:43:00.66Z</time></trkpt><trkpt lat="33.9950662" lon="7.8438997"><ele>-4.5</ele><time>2026-04-30T08:43:02.652Z</time></trkpt><trkpt lat="33.9949905" lon="7.8439012"><ele>-5.0</ele><time>2026-04-30T08:43:05.658Z</time></trkpt><trkpt lat="33.9949215" lon="7.8438639"><ele>-5.5</ele><time>2026-04-30T08:44:58.722Z</time></trkpt><trkpt lat="33.994844" lon="7.8438343"><ele>-6.0</ele><time>2026-04-30T08:45:01.696Z</time></trkpt><trkpt lat="33.9947731" lon="7.8437971"><ele>-6.500000000000001</ele><time>2026-04-30T08:45:05.672Z</time></trkpt><trkpt lat="33.9947039" lon="7.8437539"><ele>-7.0</ele><time>2026-04-30T08:45:10.703Z</time></trkpt><trkpt lat="33.9946576" lon="7.8436852"><ele>-7.000000000000001</ele><time>2026-04-30T08:45:14.688Z</time></trkpt><trkpt lat="33.9946478" lon="7.8436008"><ele>-7.0</ele><time>2026-04-30T08:45:20.698Z</time></trkpt><trkpt lat="33.994704" lon="7.8435663"><ele>-7.0</ele><time>2026-04-30T08:45:22.682Z</time></trkpt><trkpt lat="33.9948002" lon="7.8436076"><ele>-7.0</ele><time>2026-04-30T08:45:24.717Z</time></trkpt><trkpt lat="33.9948981" lon="7.8437058"><ele>-7.000000000000001</ele><time>2026-04-30T08:45:26.706Z</time></trkpt><trkpt lat="33.9949608" lon="7.8437513"><ele>-7.0</ele><time>2026-04-30T08:45:27.724Z</time></trkpt><trkpt lat="33.9950183" lon="7.8437919"><ele>-6.500000000000001</ele><time>2026-04-30T08:45:28.664Z</time></trkpt><trkpt lat="33.9950816" lon="7.8438344"><ele>-6.0</ele><time>2026-04-30T08:45:29.694Z</time></trkpt><trkpt lat="33.9951548" lon="7.8438821"><ele>-5.5</ele><time>2026-04-30T08:45:30.685Z</time></trkpt><trkpt lat="33.9952351" lon="7.8439303"><ele>-5.0</ele><time>2026-04-30T08:45:31.719Z</time></trkpt><trkpt lat="33.9953273" lon="7.8439791"><ele>-4.5</ele><time>2026-04-30T08:45:32.669Z</time></trkpt><trkpt lat="33.9954194" lon="7.8440337"><ele>-4.0</ele><time>2026-04-30T08:45:33.69Z</time></trkpt><trkpt lat="33.9954859" lon="7.8440683"><ele>-4.0</ele><time>2026-04-30T08:45:34.705Z</time></trkpt><trkpt lat="33.9955572" lon="7.8441076"><ele>-3.9999999999999996</ele><time>2026-04-30T08:45:37.689Z</time></trkpt><trkpt lat="33.9956109" lon="7.8440609"><ele>-4.0</ele><time>2026-04-30T08:45:42.691Z</time></trkpt><trkpt lat="33.9955971" lon="7.8439847"><ele>-4.0</ele><time>2026-04-30T08:45:48.684Z</time></trkpt><trkpt lat="33.9955191" lon="7.8439497"><ele>-3.9999999999999996</ele><time>2026-04-30T08:45:51.699Z</time></trkpt><trkpt lat="33.9954576" lon="7.84392"><ele>-4.0</ele><time>2026-04-30T08:45:56.665Z</time></trkpt><trkpt lat="33.995386" lon="7.8438814"><ele>-4.0</ele><time>2026-04-30T08:45:59.684Z</time></trkpt><trkpt lat="33.9953064" lon="7.8438229"><ele>-4.0</ele><time>2026-04-30T08:46:01.701Z</time></trkpt><trkpt lat="33.9952109" lon="7.8437501"><ele>-4.0</ele><time>2026-04-30T08:46:03.703Z</time></trkpt><trkpt lat="33.9951044" lon="7.8436991"><ele>-4.0</ele><time>2026-04-30T08:46:05.69Z</time></trkpt><trkpt lat="33.9950285" lon="7.8436809"><ele>-4.0</ele><time>2026-04-30T08:46:06.707Z</time></trkpt><trkpt lat="33.9949187" lon="7.8436869"><ele>-4.0</ele><time>2026-04-30T08:46:07.733Z</time></trkpt><trkpt lat="33.99478" lon="7.8437295"><ele>-5.0</ele><time>2026-04-30T08:46:08.69Z</time></trkpt><trkpt lat="33.9946035" lon="7.8437758"><ele>-6.0</ele><time>2026-04-30T08:46:09.674Z</time></trkpt><trkpt lat="33.9944425" lon="7.8438328"><ele>-7.0</ele><time>2026-04-30T08:46:10.698Z</time></trkpt><trkpt lat="33.9943061" lon="7.8438926"><ele>-7.0</ele><time>2026-04-30T08:46:11.717Z</time></trkpt><trkpt lat="33.9942093" lon="7.8439339"><ele>-6.999999999999999</ele><time>2026-04-30T08:46:12.66Z</time></trkpt><trkpt lat="33.9941254" lon="7.843978"><ele>-6.999999999999999</ele><time>2026-04-30T08:46:13.701Z</time></trkpt><trkpt lat="33.9940495" lon="7.8440153"><ele>-7.0</ele><time>2026-04-30T08:46:14.689Z</time></trkpt><trkpt lat="33.9939712" lon="7.844099"><ele>-7.0</ele><time>2026-04-30T08:46:16.714Z</time></trkpt><trkpt lat="33.9939592" lon="7.8442128"><ele>-7.000000000000001</ele><time>2026-04-30T08:46:18.693Z</time></trkpt><trkpt lat="33.9940123" lon="7.8442644"><ele>-7.0</ele><time>2026-04-30T08:46:20.703Z</time></trkpt><trkpt lat="33.9940772" lon="7.8442975"><ele>-7.0</ele><time>2026-04-30T08:46:22.706Z</time></trkpt><trkpt lat="33.9941451" lon="7.844315"><ele>-7.0</ele><time>2026-04-30T08:46:24.722Z</time></trkpt><trkpt lat="33.9942184" lon="7.8442755"><ele>-7.000000000000001</ele><time>2026-04-30T08:46:27.693Z</time></trkpt><trkpt lat="33.9942536" lon="7.8442047"><ele>-7.0</ele><time>2026-04-30T08:46:31.698Z</time></trkpt><trkpt lat="33.9942921" lon="7.8441029"><ele>-7.0</ele><time>2026-04-30T08:46:59.686Z</time></trkpt><trkpt lat="33.9943466" lon="7.8440121"><ele>-6.999999999999999</ele><time>2026-04-30T08:47:01.679Z</time></trkpt><trkpt lat="33.9944007" lon="7.843908"><ele>-6.999999999999999</ele><time>2026-04-30T08:47:03.689Z</time></trkpt><trkpt lat="33.9944496" lon="7.8437986"><ele>-7.0</ele><time>2026-04-30T08:47:05.702Z</time></trkpt><trkpt lat="33.9944893" lon="7.8437369"><ele>-7.0</ele><time>2026-04-30T08:47:06.698Z</time></trkpt><trkpt lat="33.994568" lon="7.8436374"><ele>-7.0</ele><time>2026-04-30T08:47:08.679Z</time></trkpt><trkpt lat="33.9946545" lon="7.8435539"><ele>-6.999999999999999</ele><time>2026-04-30T08:47:10.706Z</time></trkpt><trkpt lat="33.9947398" lon="7.8434687"><ele>-6.999999999999999</ele><time>2026-04-30T08:47:12.708Z</time></trkpt><trkpt lat="33.9948192" lon="7.8433723"><ele>-7.0</ele><time>2026-04-30T08:47:14.701Z</time></trkpt><trkpt lat="33.9948808" lon="7.843266"><ele>-7.0</ele><time>2026-04-30T08:47:16.722Z</time></trkpt><trkpt lat="33.9949369" lon="7.8431563"><ele>-7.0</ele><time>2026-04-30T08:47:18.7Z</time></trkpt><trkpt lat="33.9949703" lon="7.8430216"><ele>-6.999999999999999</ele><time>2026-04-30T08:47:20.704Z</time></trkpt><trkpt lat="33.9949834" lon="7.8428792"><ele>-6.999999999999999</ele><time>2026-04-30T08:47:22.708Z</time></trkpt><trkpt lat="33.9949812" lon="7.8427319"><ele>-7.0</ele><time>2026-04-30T08:47:24.696Z</time></trkpt><trkpt lat="33.9949722" lon="7.8426566"><ele>-7.0</ele><time>2026-04-30T08:47:25.704Z</time></trkpt><trkpt lat="33.9949263" lon="7.84252"><ele>-7.0</ele><time>2026-04-30T08:47:27.726Z</time></trkpt><trkpt lat="33.9948707" lon="7.8423893"><ele>-7.0</ele><time>2026-04-30T08:47:29.701Z</time></trkpt><trkpt lat="33.9948051" lon="7.842273"><ele>-7.0</ele><time>2026-04-30T08:47:31.685Z</time></trkpt><trkpt lat="33.9947249" lon="7.842166"><ele>-7.0</ele><time>2026-04-30T08:47:33.708Z</time></trkpt><trkpt lat="33.9946248" lon="7.8420804"><ele>-7.0</ele><time>2026-04-30T08:47:35.712Z</time></trkpt><trkpt lat="33.994512" lon="7.842024"><ele>-6.999999999999999</ele><time>2026-04-30T08:47:37.708Z</time></trkpt><trkpt lat="33.9943952" lon="7.8420104"><ele>-6.999999999999999</ele><time>2026-04-30T08:47:39.726Z</time></trkpt><trkpt lat="33.9942864" lon="7.8419998"><ele>-7.0</ele><time>2026-04-30T08:47:41.718Z</time></trkpt><trkpt lat="33.9942103" lon="7.8420239"><ele>-7.0</ele><time>2026-04-30T08:47:43.664Z</time></trkpt><trkpt lat="33.9941414" lon="7.8420437"><ele>-7.5</ele><time>2026-04-30T08:47:45.691Z</time></trkpt><trkpt lat="33.9940352" lon="7.8420683"><ele>-8.0</ele><time>2026-04-30T08:47:47.684Z</time></trkpt><trkpt lat="33.9939164" lon="7.8421099"><ele>-8.5</ele><time>2026-04-30T08:47:49.683Z</time></trkpt><trkpt lat="33.9938183" lon="7.8421593"><ele>-9.0</ele><time>2026-04-30T08:47:51.71Z</time></trkpt><trkpt lat="33.9937167" lon="7.8422236"><ele>-9.0</ele><time>2026-04-30T08:47:53.718Z</time></trkpt><trkpt lat="33.9936322" lon="7.8422695"><ele>-9.0</ele><time>2026-04-30T08:47:55.696Z</time></trkpt><trkpt lat="33.9935833" lon="7.8423394"><ele>-9.0</ele><time>2026-04-30T08:47:57.695Z</time></trkpt><trkpt lat="33.9935416" lon="7.842436"><ele>-9.0</ele><time>2026-04-30T08:47:59.694Z</time></trkpt><trkpt lat="33.993517" lon="7.8425377"><ele>-9.0</ele><time>2026-04-30T08:48:01.693Z</time></trkpt><trkpt lat="33.9934998" lon="7.8426407"><ele>-9.0</ele><time>2026-04-30T08:48:03.705Z</time></trkpt><trkpt lat="33.9934993" lon="7.8427457"><ele>-8.75</ele><time>2026-04-30T08:48:05.697Z</time></trkpt><trkpt lat="33.9934991" lon="7.8428666"><ele>-8.5</ele><time>2026-04-30T08:48:07.688Z</time></trkpt><trkpt lat="33.9935041" lon="7.8430403"><ele>-8.25</ele><time>2026-04-30T08:48:09.702Z</time></trkpt><trkpt lat="33.9935138" lon="7.8431791"><ele>-8.0</ele><time>2026-04-30T08:48:10.695Z</time></trkpt><trkpt lat="33.9935219" lon="7.8433717"><ele>-8.666666666666666</ele><time>2026-04-30T08:48:11.681Z</time></trkpt><trkpt lat="33.9935369" lon="7.8435821"><ele>-9.333333333333334</ele><time>2026-04-30T08:48:12.714Z</time></trkpt><trkpt lat="33.9935473" lon="7.8437722"><ele>-10.0</ele><time>2026-04-30T08:48:13.672Z</time></trkpt><trkpt lat="33.9935535" lon="7.8439246"><ele>-10.0</ele><time>2026-04-30T08:48:14.672Z</time></trkpt><trkpt lat="33.9935539" lon="7.8440576"><ele>-10.0</ele><time>2026-04-30T08:48:15.679Z</time></trkpt><trkpt lat="33.9935626" lon="7.8441729"><ele>-10.0</ele><time>2026-04-30T08:48:16.726Z</time></trkpt><trkpt lat="33.9935669" lon="7.8442763"><ele>-10.0</ele><time>2026-04-30T08:48:17.69Z</time></trkpt><trkpt lat="33.9935867" lon="7.8443755"><ele>-10.0</ele><time>2026-04-30T08:48:18.712Z</time></trkpt><trkpt lat="33.9936023" lon="7.8444633"><ele>-9.333333333333334</ele><time>2026-04-30T08:48:19.71Z</time></trkpt><trkpt lat="33.993619" lon="7.8445479"><ele>-8.666666666666668</ele><time>2026-04-30T08:48:20.721Z</time></trkpt><trkpt lat="33.993667" lon="7.8446756"><ele>-8.0</ele><time>2026-04-30T08:48:22.697Z</time></trkpt><trkpt lat="33.9937139" lon="7.8447772"><ele>-7.333333333333334</ele><time>2026-04-30T08:48:24.678Z</time></trkpt><trkpt lat="33.9937599" lon="7.8448536"><ele>-6.666666666666667</ele><time>2026-04-30T08:48:26.716Z</time></trkpt><trkpt lat="33.9938086" lon="7.8449191"><ele>-6.0</ele><time>2026-04-30T08:48:29.655Z</time></trkpt><trkpt lat="33.9938581" lon="7.8449784"><ele>-6.0</ele><time>2026-04-30T08:48:32.705Z</time></trkpt><trkpt lat="33.9939162" lon="7.845054"><ele>-6.0</ele><time>2026-04-30T08:48:34.698Z</time></trkpt><trkpt lat="33.9939901" lon="7.8451351"><ele>-6.0</ele><time>2026-04-30T08:48:36.703Z</time></trkpt><trkpt lat="33.9940495" lon="7.8452062"><ele>-6.0</ele><time>2026-04-30T08:48:38.699Z</time></trkpt><trkpt lat="33.9940964" lon="7.8452595"><ele>-6.0</ele><time>2026-04-30T08:48:40.678Z</time></trkpt><trkpt lat="33.9941467" lon="7.8453327"><ele>-6.0</ele><time>2026-04-30T08:48:43.692Z</time></trkpt><trkpt lat="33.9941954" lon="7.8453823"><ele>-6.0</ele><time>2026-04-30T08:48:46.707Z</time></trkpt><trkpt lat="33.9942429" lon="7.8453322"><ele>-6.0</ele><time>2026-04-30T08:48:49.676Z</time></trkpt><trkpt lat="33.9942166" lon="7.8452382"><ele>-6.0</ele><time>2026-04-30T08:50:01.701Z</time></trkpt><trkpt lat="33.9942171" lon="7.8451339"><ele>-6.0</ele><time>2026-04-30T08:50:04.695Z</time></trkpt><trkpt lat="33.9941814" lon="7.8450698"><ele>-6.0</ele><time>2026-04-30T08:50:08.73Z</time></trkpt><trkpt lat="33.994088" lon="7.8450831"><ele>-6.0</ele><time>2026-04-30T08:50:28.69Z</time></trkpt><trkpt lat="33.9939979" lon="7.8450249"><ele>-6.0</ele><time>2026-04-30T08:50:30.708Z</time></trkpt><trkpt lat="33.9939433" lon="7.8449258"><ele>-6.0</ele><time>2026-04-30T08:50:32.703Z</time></trkpt><trkpt lat="33.9938861" lon="7.8448269"><ele>-6.0</ele><time>2026-04-30T08:50:34.652Z</time></trkpt><trkpt lat="33.9938282" lon="7.8447299"><ele>-6.0</ele><time>2026-04-30T08:50:36.719Z</time></trkpt><trkpt lat="33.9937554" lon="7.8446304"><ele>-6.0</ele><time>2026-04-30T08:50:38.71Z</time></trkpt><trkpt lat="33.9936767" lon="7.8445503"><ele>-6.0</ele><time>2026-04-30T08:50:40.704Z</time></trkpt><trkpt lat="33.9935769" lon="7.8444703"><ele>-6.0</ele><time>2026-04-30T08:50:42.653Z</time></trkpt><trkpt lat="33.9934696" lon="7.844395"><ele>-6.0</ele><time>2026-04-30T08:50:44.725Z</time></trkpt><trkpt lat="33.9934045" lon="7.8443555"><ele>-6.0</ele><time>2026-04-30T08:50:45.698Z</time></trkpt><trkpt lat="33.993337" lon="7.8443213"><ele>-6.0</ele><time>2026-04-30T08:50:46.678Z</time></trkpt><trkpt lat="33.9932681" lon="7.8442882"><ele>-6.428571428571428</ele><time>2026-04-30T08:50:47.648Z</time></trkpt><trkpt lat="33.9932049" lon="7.8442703"><ele>-6.857142857142858</ele><time>2026-04-30T08:50:48.656Z</time></trkpt><trkpt lat="33.9931397" lon="7.8442615"><ele>-7.2857142857142865</ele><time>2026-04-30T08:50:49.653Z</time></trkpt><trkpt lat="33.9930746" lon="7.8442575"><ele>-7.714285714285714</ele><time>2026-04-30T08:50:50.649Z</time></trkpt><trkpt lat="33.9930061" lon="7.8442652"><ele>-8.142857142857142</ele><time>2026-04-30T08:50:51.658Z</time></trkpt><trkpt lat="33.9929405" lon="7.8442843"><ele>-8.571428571428573</ele><time>2026-04-30T08:50:52.666Z</time></trkpt><trkpt lat="33.9928709" lon="7.8443028"><ele>-9.0</ele><time>2026-04-30T08:50:53.702Z</time></trkpt><trkpt lat="33.9927561" lon="7.8443434"><ele>-9.0</ele><time>2026-04-30T08:50:55.678Z</time></trkpt><trkpt lat="33.992647" lon="7.8444022"><ele>-9.0</ele><time>2026-04-30T08:50:57.664Z</time></trkpt><trkpt lat="33.992535" lon="7.844492"><ele>-9.0</ele><time>2026-04-30T08:50:59.654Z</time></trkpt><trkpt lat="33.9924846" lon="7.8445527"><ele>-9.0</ele><time>2026-04-30T08:51:00.666Z</time></trkpt><trkpt lat="33.9924419" lon="7.8446239"><ele>-9.0</ele><time>2026-04-30T08:51:01.648Z</time></trkpt><trkpt lat="33.992402" lon="7.8446956"><ele>-9.0</ele><time>2026-04-30T08:51:02.658Z</time></trkpt><trkpt lat="33.9923649" lon="7.8447632"><ele>-9.0</ele><time>2026-04-30T08:51:03.658Z</time></trkpt><trkpt lat="33.9923313" lon="7.8448304"><ele>-9.0</ele><time>2026-04-30T08:51:04.668Z</time></trkpt><trkpt lat="33.9923002" lon="7.8449008"><ele>-9.0</ele><time>2026-04-30T08:51:05.653Z</time></trkpt><trkpt lat="33.9922373" lon="7.8450272"><ele>-9.0</ele><time>2026-04-30T08:51:07.66Z</time></trkpt><trkpt lat="33.9921789" lon="7.8451383"><ele>-9.0</ele><time>2026-04-30T08:51:09.651Z</time></trkpt><trkpt lat="33.9921254" lon="7.8452337"><ele>-9.0</ele><time>2026-04-30T08:51:11.653Z</time></trkpt><trkpt lat="33.9920975" lon="7.8453024"><ele>-9.0</ele><time>2026-04-30T08:51:13.65Z</time></trkpt><trkpt lat="33.9920562" lon="7.8453771"><ele>-9.0</ele><time>2026-04-30T08:51:16.649Z</time></trkpt><trkpt lat="33.9920129" lon="7.8454577"><ele>-9.0</ele><time>2026-04-30T08:51:20.666Z</time></trkpt><trkpt lat="33.9920129" lon="7.8455901"><ele>-9.0</ele><time>2026-04-30T08:51:23.651Z</time></trkpt><trkpt lat="33.9920443" lon="7.8456936"><ele>-9.0</ele><time>2026-04-30T08:51:25.664Z</time></trkpt><trkpt lat="33.9921085" lon="7.8457868"><ele>-9.0</ele><time>2026-04-30T08:51:27.662Z</time></trkpt><trkpt lat="33.9921803" lon="7.8458712"><ele>-9.0</ele><time>2026-04-30T08:51:29.656Z</time></trkpt><trkpt lat="33.9922351" lon="7.8459613"><ele>-9.0</ele><time>2026-04-30T08:51:31.654Z</time></trkpt><trkpt lat="33.9922601" lon="7.8460838"><ele>-9.0</ele><time>2026-04-30T08:51:33.648Z</time></trkpt><trkpt lat="33.9922608" lon="7.8461599"><ele>-9.0</ele><time>2026-04-30T08:51:34.657Z</time></trkpt><trkpt lat="33.992264" lon="7.8462485"><ele>-9.0</ele><time>2026-04-30T08:51:35.659Z</time></trkpt><trkpt lat="33.9922686" lon="7.8463406"><ele>-8.666666666666666</ele><time>2026-04-30T08:51:36.659Z</time></trkpt><trkpt lat="33.9922788" lon="7.8464411"><ele>-8.333333333333334</ele><time>2026-04-30T08:51:37.656Z</time></trkpt><trkpt lat="33.9922947" lon="7.846541"><ele>-8.0</ele><time>2026-04-30T08:51:38.659Z</time></trkpt><trkpt lat="33.9923157" lon="7.8466441"><ele>-7.666666666666667</ele><time>2026-04-30T08:51:39.652Z</time></trkpt><trkpt lat="33.9923356" lon="7.8467449"><ele>-7.333333333333334</ele><time>2026-04-30T08:51:40.651Z</time></trkpt><trkpt lat="33.9923573" lon="7.8468475"><ele>-7.0</ele><time>2026-04-30T08:51:41.66Z</time></trkpt><trkpt lat="33.9923721" lon="7.8469435"><ele>-6.857142857142857</ele><time>2026-04-30T08:51:42.656Z</time></trkpt><trkpt lat="33.9923872" lon="7.8470382"><ele>-6.714285714285714</ele><time>2026-04-30T08:51:43.646Z</time></trkpt><trkpt lat="33.9924043" lon="7.8471344"><ele>-6.571428571428571</ele><time>2026-04-30T08:51:44.657Z</time></trkpt><trkpt lat="33.9924243" lon="7.847219"><ele>-6.428571428571429</ele><time>2026-04-30T08:51:45.648Z</time></trkpt><trkpt lat="33.9924409" lon="7.8473041"><ele>-6.285714285714286</ele><time>2026-04-30T08:51:46.691Z</time></trkpt><trkpt lat="33.9924546" lon="7.8473843"><ele>-6.142857142857142</ele><time>2026-04-30T08:51:47.644Z</time></trkpt><trkpt lat="33.9924673" lon="7.8474638"><ele>-6.0</ele><time>2026-04-30T08:51:48.66Z</time></trkpt><trkpt lat="33.9924862" lon="7.8475563"><ele>-6.166666666666667</ele><time>2026-04-30T08:51:49.662Z</time></trkpt><trkpt lat="33.9925129" lon="7.8476449"><ele>-6.333333333333334</ele><time>2026-04-30T08:51:50.661Z</time></trkpt><trkpt lat="33.9925365" lon="7.8477381"><ele>-6.5</ele><time>2026-04-30T08:51:51.654Z</time></trkpt><trkpt lat="33.9925651" lon="7.8478247"><ele>-6.666666666666667</ele><time>2026-04-30T08:51:52.653Z</time></trkpt><trkpt lat="33.9925961" lon="7.8479161"><ele>-6.833333333333334</ele><time>2026-04-30T08:51:53.652Z</time></trkpt><trkpt lat="33.992632" lon="7.8480024"><ele>-7.0</ele><time>2026-04-30T08:51:54.655Z</time></trkpt><trkpt lat="33.9926626" lon="7.8480914"><ele>-7.000000000000001</ele><time>2026-04-30T08:51:55.664Z</time></trkpt><trkpt lat="33.9926907" lon="7.8481813"><ele>-7.0</ele><time>2026-04-30T08:51:56.654Z</time></trkpt><trkpt lat="33.9927182" lon="7.848268"><ele>-7.0</ele><time>2026-04-30T08:51:57.648Z</time></trkpt><trkpt lat="33.992747" lon="7.8483468"><ele>-7.0</ele><time>2026-04-30T08:51:58.654Z</time></trkpt><trkpt lat="33.9927766" lon="7.8484308"><ele>-7.000000000000001</ele><time>2026-04-30T08:51:59.644Z</time></trkpt><trkpt lat="33.9928054" lon="7.8485142"><ele>-7.0</ele><time>2026-04-30T08:52:00.659Z</time></trkpt><trkpt lat="33.9928323" lon="7.8486083"><ele>-7.166666666666667</ele><time>2026-04-30T08:52:01.656Z</time></trkpt><trkpt lat="33.9928655" lon="7.8486952"><ele>-7.333333333333334</ele><time>2026-04-30T08:52:02.662Z</time></trkpt><trkpt lat="33.9928963" lon="7.8487852"><ele>-7.5</ele><time>2026-04-30T08:52:03.648Z</time></trkpt><trkpt lat="33.9929256" lon="7.8488705"><ele>-7.666666666666666</ele><time>2026-04-30T08:52:04.662Z</time></trkpt><trkpt lat="33.9929552" lon="7.8489523"><ele>-7.833333333333333</ele><time>2026-04-30T08:52:05.658Z</time></trkpt><trkpt lat="33.9929792" lon="7.8490396"><ele>-8.0</ele><time>2026-04-30T08:52:06.654Z</time></trkpt><trkpt lat="33.9930045" lon="7.8491305"><ele>-8.0</ele><time>2026-04-30T08:52:07.651Z</time></trkpt><trkpt lat="33.9930341" lon="7.8492248"><ele>-8.0</ele><time>2026-04-30T08:52:08.653Z</time></trkpt><trkpt lat="33.993065" lon="7.8493304"><ele>-8.0</ele><time>2026-04-30T08:52:09.655Z</time></trkpt><trkpt lat="33.9931023" lon="7.849441"><ele>-8.0</ele><time>2026-04-30T08:52:10.657Z</time></trkpt><trkpt lat="33.9931404" lon="7.849562"><ele>-8.0</ele><time>2026-04-30T08:52:11.66Z</time></trkpt><trkpt lat="33.9931728" lon="7.8496701"><ele>-7.833333333333333</ele><time>2026-04-30T08:52:12.66Z</time></trkpt><trkpt lat="33.9931993" lon="7.849775"><ele>-7.666666666666666</ele><time>2026-04-30T08:52:13.655Z</time></trkpt><trkpt lat="33.9932242" lon="7.8498758"><ele>-7.5</ele><time>2026-04-30T08:52:14.658Z</time></trkpt><trkpt lat="33.9932478" lon="7.8499642"><ele>-7.333333333333334</ele><time>2026-04-30T08:52:15.657Z</time></trkpt><trkpt lat="33.9932767" lon="7.850042"><ele>-7.166666666666667</ele><time>2026-04-30T08:52:16.676Z</time></trkpt><trkpt lat="33.9933002" lon="7.8501253"><ele>-7.0</ele><time>2026-04-30T08:52:17.653Z</time></trkpt><trkpt lat="33.993323" lon="7.8502208"><ele>-7.0</ele><time>2026-04-30T08:52:18.659Z</time></trkpt><trkpt lat="33.9933462" lon="7.8503197"><ele>-6.999999999999999</ele><time>2026-04-30T08:52:19.649Z</time></trkpt><trkpt lat="33.9933767" lon="7.8504203"><ele>-6.999999999999999</ele><time>2026-04-30T08:52:20.658Z</time></trkpt><trkpt lat="33.9934028" lon="7.8505194"><ele>-7.0</ele><time>2026-04-30T08:52:21.662Z</time></trkpt><trkpt lat="33.9934331" lon="7.8506265"><ele>-7.0</ele><time>2026-04-30T08:52:22.654Z</time></trkpt><trkpt lat="33.9934664" lon="7.8507389"><ele>-7.0</ele><time>2026-04-30T08:52:23.649Z</time></trkpt><trkpt lat="33.9934986" lon="7.8508586"><ele>-7.0</ele><time>2026-04-30T08:52:24.659Z</time></trkpt><trkpt lat="33.9935371" lon="7.8509969"><ele>-7.0</ele><time>2026-04-30T08:52:25.67Z</time></trkpt><trkpt lat="33.9935838" lon="7.8511734"><ele>-7.0</ele><time>2026-04-30T08:52:26.646Z</time></trkpt><trkpt lat="33.9936298" lon="7.8513717"><ele>-6.666666666666667</ele><time>2026-04-30T08:52:27.649Z</time></trkpt><trkpt lat="33.9936755" lon="7.851576"><ele>-6.333333333333334</ele><time>2026-04-30T08:52:28.66Z</time></trkpt><trkpt lat="33.9937232" lon="7.8517705"><ele>-6.0</ele><time>2026-04-30T08:52:29.651Z</time></trkpt><trkpt lat="33.993774" lon="7.8519527"><ele>-6.75</ele><time>2026-04-30T08:52:30.664Z</time></trkpt><trkpt lat="33.9938229" lon="7.8521313"><ele>-7.5</ele><time>2026-04-30T08:52:31.661Z</time></trkpt><trkpt lat="33.9938653" lon="7.8522945"><ele>-8.25</ele><time>2026-04-30T08:52:32.665Z</time></trkpt><trkpt lat="33.9939103" lon="7.8524532"><ele>-9.0</ele><time>2026-04-30T08:52:33.659Z</time></trkpt><trkpt lat="33.993947" lon="7.8526172"><ele>-9.75</ele><time>2026-04-30T08:52:34.652Z</time></trkpt><trkpt lat="33.993984" lon="7.8527757"><ele>-10.5</ele><time>2026-04-30T08:52:35.645Z</time></trkpt><trkpt lat="33.9940248" lon="7.8529332"><ele>-11.25</ele><time>2026-04-30T08:52:36.654Z</time></trkpt><trkpt lat="33.9940659" lon="7.8530886"><ele>-12.0</ele><time>2026-04-30T08:52:37.657Z</time></trkpt><trkpt lat="33.9940962" lon="7.8532363"><ele>-12.0</ele><time>2026-04-30T08:52:38.648Z</time></trkpt><trkpt lat="33.9941381" lon="7.8533862"><ele>-12.0</ele><time>2026-04-30T08:52:39.659Z</time></trkpt><trkpt lat="33.9941728" lon="7.8535327"><ele>-12.0</ele><time>2026-04-30T08:52:40.66Z</time></trkpt><trkpt lat="33.9942065" lon="7.8536845"><ele>-12.0</ele><time>2026-04-30T08:52:41.65Z</time></trkpt><trkpt lat="33.9942386" lon="7.853831"><ele>-12.0</ele><time>2026-04-30T08:52:42.677Z</time></trkpt><trkpt lat="33.9942632" lon="7.8539822"><ele>-12.0</ele><time>2026-04-30T08:52:43.658Z</time></trkpt><trkpt lat="33.9942791" lon="7.8541344"><ele>-12.0</ele><time>2026-04-30T08:52:44.65Z</time></trkpt><trkpt lat="33.9942868" lon="7.8542809"><ele>-12.0</ele><time>2026-04-30T08:52:45.649Z</time></trkpt><trkpt lat="33.9943062" lon="7.8544246"><ele>-11.5</ele><time>2026-04-30T08:52:46.651Z</time></trkpt><trkpt lat="33.9943244" lon="7.8545676"><ele>-11.0</ele><time>2026-04-30T08:52:47.652Z</time></trkpt><trkpt lat="33.9943395" lon="7.8547043"><ele>-10.5</ele><time>2026-04-30T08:52:48.654Z</time></trkpt><trkpt lat="33.9943528" lon="7.8548392"><ele>-10.0</ele><time>2026-04-30T08:52:49.661Z</time></trkpt><trkpt lat="33.9943602" lon="7.8549748"><ele>-10.0</ele><time>2026-04-30T08:52:50.662Z</time></trkpt><trkpt lat="33.994362" lon="7.8551099"><ele>-10.0</ele><time>2026-04-30T08:52:51.682Z</time></trkpt><trkpt lat="33.9943665" lon="7.8552398"><ele>-10.0</ele><time>2026-04-30T08:52:52.671Z</time></trkpt><trkpt lat="33.9943688" lon="7.8553623"><ele>-10.0</ele><time>2026-04-30T08:52:53.672Z</time></trkpt><trkpt lat="33.9943681" lon="7.855488"><ele>-10.0</ele><time>2026-04-30T08:52:54.659Z</time></trkpt><trkpt lat="33.9943673" lon="7.8556129"><ele>-9.8</ele><time>2026-04-30T08:52:55.653Z</time></trkpt><trkpt lat="33.9943613" lon="7.8557397"><ele>-9.6</ele><time>2026-04-30T08:52:56.653Z</time></trkpt><trkpt lat="33.9943546" lon="7.855868"><ele>-9.4</ele><time>2026-04-30T08:52:57.651Z</time></trkpt><trkpt lat="33.9943479" lon="7.855991"><ele>-9.2</ele><time>2026-04-30T08:52:58.655Z</time></trkpt><trkpt lat="33.9943358" lon="7.8561035"><ele>-9.0</ele><time>2026-04-30T08:52:59.667Z</time></trkpt><trkpt lat="33.9943197" lon="7.8562025"><ele>-8.5</ele><time>2026-04-30T08:53:00.65Z</time></trkpt><trkpt lat="33.9943025" lon="7.8562952"><ele>-8.0</ele><time>2026-04-30T08:53:01.659Z</time></trkpt><trkpt lat="33.9942842" lon="7.8563868"><ele>-7.5</ele><time>2026-04-30T08:53:02.663Z</time></trkpt><trkpt lat="33.9942609" lon="7.8564785"><ele>-7.0</ele><time>2026-04-30T08:53:03.667Z</time></trkpt><trkpt lat="33.9942389" lon="7.8565725"><ele>-6.5</ele><time>2026-04-30T08:53:04.664Z</time></trkpt><trkpt lat="33.9942157" lon="7.8566601"><ele>-6.0</ele><time>2026-04-30T08:53:05.665Z</time></trkpt><trkpt lat="33.994193" lon="7.8567552"><ele>-7.166666666666666</ele><time>2026-04-30T08:53:06.654Z</time></trkpt><trkpt lat="33.994171" lon="7.8568604"><ele>-8.333333333333332</ele><time>2026-04-30T08:53:07.657Z</time></trkpt><trkpt lat="33.9941488" lon="7.8569693"><ele>-9.5</ele><time>2026-04-30T08:53:08.657Z</time></trkpt><trkpt lat="33.99413" lon="7.8570733"><ele>-10.666666666666666</ele><time>2026-04-30T08:53:09.65Z</time></trkpt><trkpt lat="33.9941077" lon="7.8571743"><ele>-11.833333333333332</ele><time>2026-04-30T08:53:10.651Z</time></trkpt><trkpt lat="33.9940852" lon="7.8572787"><ele>-13.0</ele><time>2026-04-30T08:53:11.655Z</time></trkpt><trkpt lat="33.9940715" lon="7.8573921"><ele>-13.0</ele><time>2026-04-30T08:53:12.659Z</time></trkpt><trkpt lat="33.9940515" lon="7.8575017"><ele>-13.0</ele><time>2026-04-30T08:53:13.659Z</time></trkpt><trkpt lat="33.9940275" lon="7.8576082"><ele>-13.0</ele><time>2026-04-30T08:53:14.652Z</time></trkpt><trkpt lat="33.994007" lon="7.8577197"><ele>-13.0</ele><time>2026-04-30T08:53:15.651Z</time></trkpt><trkpt lat="33.9939865" lon="7.8578315"><ele>-13.0</ele><time>2026-04-30T08:53:16.651Z</time></trkpt><trkpt lat="33.9939592" lon="7.8579414"><ele>-12.8</ele><time>2026-04-30T08:53:17.656Z</time></trkpt><trkpt lat="33.9939331" lon="7.8580578"><ele>-12.600000000000001</ele><time>2026-04-30T08:53:18.653Z</time></trkpt><trkpt lat="33.9939066" lon="7.8581779"><ele>-12.399999999999999</ele><time>2026-04-30T08:53:19.653Z</time></trkpt><trkpt lat="33.99388" lon="7.8582983"><ele>-12.2</ele><time>2026-04-30T08:53:20.663Z</time></trkpt><trkpt lat="33.9938499" lon="7.858418"><ele>-12.0</ele><time>2026-04-30T08:53:21.649Z</time></trkpt><trkpt lat="33.9938193" lon="7.8585347"><ele>-11.6</ele><time>2026-04-30T08:53:22.675Z</time></trkpt><trkpt lat="33.9937869" lon="7.8586498"><ele>-11.2</ele><time>2026-04-30T08:53:23.65Z</time></trkpt><trkpt lat="33.9937577" lon="7.8587639"><ele>-10.8</ele><time>2026-04-30T08:53:24.648Z</time></trkpt><trkpt lat="33.9937252" lon="7.8588796"><ele>-10.4</ele><time>2026-04-30T08:53:25.649Z</time></trkpt><trkpt lat="33.9936892" lon="7.858998"><ele>-10.0</ele><time>2026-04-30T08:53:26.649Z</time></trkpt><trkpt lat="33.9936556" lon="7.8591155"><ele>-10.0</ele><time>2026-04-30T08:53:27.658Z</time></trkpt><trkpt lat="33.9936221" lon="7.8592356"><ele>-10.0</ele><time>2026-04-30T08:53:28.655Z</time></trkpt><trkpt lat="33.9935905" lon="7.8593559"><ele>-10.0</ele><time>2026-04-30T08:53:29.655Z</time></trkpt><trkpt lat="33.9935577" lon="7.8594736"><ele>-10.0</ele><time>2026-04-30T08:53:30.653Z</time></trkpt><trkpt lat="33.9935292" lon="7.8595849"><ele>-10.0</ele><time>2026-04-30T08:53:31.657Z</time></trkpt><trkpt lat="33.9935025" lon="7.8596993"><ele>-9.8</ele><time>2026-04-30T08:53:32.655Z</time></trkpt><trkpt lat="33.9934768" lon="7.8598078"><ele>-9.6</ele><time>2026-04-30T08:53:33.647Z</time></trkpt><trkpt lat="33.9934497" lon="7.8599155"><ele>-9.4</ele><time>2026-04-30T08:53:34.646Z</time></trkpt><trkpt lat="33.9934268" lon="7.8600248"><ele>-9.2</ele><time>2026-04-30T08:53:35.656Z</time></trkpt><trkpt lat="33.9934049" lon="7.8601374"><ele>-9.0</ele><time>2026-04-30T08:53:36.66Z</time></trkpt><trkpt lat="33.9933903" lon="7.8602525"><ele>-8.8</ele><time>2026-04-30T08:53:37.644Z</time></trkpt><trkpt lat="33.9933772" lon="7.8603668"><ele>-8.600000000000001</ele><time>2026-04-30T08:53:38.652Z</time></trkpt><trkpt lat="33.9933672" lon="7.8604896"><ele>-8.4</ele><time>2026-04-30T08:53:39.657Z</time></trkpt><trkpt lat="33.993356" lon="7.8606117"><ele>-8.200000000000001</ele><time>2026-04-30T08:53:40.665Z</time></trkpt><trkpt lat="33.9933499" lon="7.8607316"><ele>-8.0</ele><time>2026-04-30T08:53:41.655Z</time></trkpt><trkpt lat="33.9933457" lon="7.8608645"><ele>-8.200000000000001</ele><time>2026-04-30T08:53:42.66Z</time></trkpt><trkpt lat="33.9933439" lon="7.8609955"><ele>-8.4</ele><time>2026-04-30T08:53:43.658Z</time></trkpt><trkpt lat="33.9933375" lon="7.8611312"><ele>-8.600000000000001</ele><time>2026-04-30T08:53:44.656Z</time></trkpt><trkpt lat="33.9933343" lon="7.8612678"><ele>-8.8</ele><time>2026-04-30T08:53:45.652Z</time></trkpt><trkpt lat="33.9933336" lon="7.8614014"><ele>-9.0</ele><time>2026-04-30T08:53:46.652Z</time></trkpt><trkpt lat="33.9933352" lon="7.8615364"><ele>-9.25</ele><time>2026-04-30T08:53:47.715Z</time></trkpt><trkpt lat="33.9933364" lon="7.8616762"><ele>-9.5</ele><time>2026-04-30T08:53:48.658Z</time></trkpt><trkpt lat="33.9933354" lon="7.8618122"><ele>-9.75</ele><time>2026-04-30T08:53:49.659Z</time></trkpt><trkpt lat="33.9933348" lon="7.8619508"><ele>-10.0</ele><time>2026-04-30T08:53:50.654Z</time></trkpt><trkpt lat="33.9933361" lon="7.8620836"><ele>-10.0</ele><time>2026-04-30T08:53:51.675Z</time></trkpt><trkpt lat="33.9933387" lon="7.8622118"><ele>-10.0</ele><time>2026-04-30T08:53:52.654Z</time></trkpt><trkpt lat="33.9933417" lon="7.8623363"><ele>-10.0</ele><time>2026-04-30T08:53:53.645Z</time></trkpt><trkpt lat="33.9933491" lon="7.8624592"><ele>-10.0</ele><time>2026-04-30T08:53:54.663Z</time></trkpt><trkpt lat="33.9933589" lon="7.8625799"><ele>-10.0</ele><time>2026-04-30T08:53:55.651Z</time></trkpt><trkpt lat="33.9933688" lon="7.8626932"><ele>-10.0</ele><time>2026-04-30T08:53:56.645Z</time></trkpt><trkpt lat="33.9933825" lon="7.8628005"><ele>-10.0</ele><time>2026-04-30T08:53:57.654Z</time></trkpt><trkpt lat="33.993392" lon="7.8629086"><ele>-10.0</ele><time>2026-04-30T08:53:58.664Z</time></trkpt><trkpt lat="33.9934001" lon="7.8630233"><ele>-10.0</ele><time>2026-04-30T08:53:59.681Z</time></trkpt><trkpt lat="33.9934032" lon="7.8631412"><ele>-10.0</ele><time>2026-04-30T08:54:00.654Z</time></trkpt><trkpt lat="33.9934059" lon="7.8632577"><ele>-10.0</ele><time>2026-04-30T08:54:01.67Z</time></trkpt><trkpt lat="33.993408" lon="7.8633681"><ele>-10.0</ele><time>2026-04-30T08:54:02.659Z</time></trkpt><trkpt lat="33.9934116" lon="7.8634758"><ele>-10.0</ele><time>2026-04-30T08:54:03.66Z</time></trkpt><trkpt lat="33.9934159" lon="7.8635743"><ele>-10.0</ele><time>2026-04-30T08:54:04.656Z</time></trkpt><trkpt lat="33.9934199" lon="7.8636762"><ele>-10.0</ele><time>2026-04-30T08:54:05.653Z</time></trkpt><trkpt lat="33.9934234" lon="7.863784"><ele>-10.0</ele><time>2026-04-30T08:54:06.669Z</time></trkpt><trkpt lat="33.9934289" lon="7.8638963"><ele>-10.0</ele><time>2026-04-30T08:54:07.669Z</time></trkpt><trkpt lat="33.9934356" lon="7.8640085"><ele>-10.0</ele><time>2026-04-30T08:54:08.645Z</time></trkpt><trkpt lat="33.9934375" lon="7.8641283"><ele>-10.0</ele><time>2026-04-30T08:54:09.67Z</time></trkpt><trkpt lat="33.9934393" lon="7.8642428"><ele>-10.0</ele><time>2026-04-30T08:54:10.664Z</time></trkpt><trkpt lat="33.9934445" lon="7.8643605"><ele>-10.0</ele><time>2026-04-30T08:54:11.662Z</time></trkpt><trkpt lat="33.9934552" lon="7.8644733"><ele>-10.0</ele><time>2026-04-30T08:54:12.685Z</time></trkpt><trkpt lat="33.993468" lon="7.8645931"><ele>-10.0</ele><time>2026-04-30T08:54:13.663Z</time></trkpt><trkpt lat="33.9934743" lon="7.8647094"><ele>-10.0</ele><time>2026-04-30T08:54:14.665Z</time></trkpt><trkpt lat="33.9934818" lon="7.8648281"><ele>-10.0</ele><time>2026-04-30T08:54:15.652Z</time></trkpt><trkpt lat="33.9934873" lon="7.8649456"><ele>-10.0</ele><time>2026-04-30T08:54:16.657Z</time></trkpt><trkpt lat="33.9934958" lon="7.865074"><ele>-10.0</ele><time>2026-04-30T08:54:17.655Z</time></trkpt><trkpt lat="33.9935072" lon="7.865199"><ele>-10.0</ele><time>2026-04-30T08:54:18.672Z</time></trkpt><trkpt lat="33.993525" lon="7.8653151"><ele>-10.0</ele><time>2026-04-30T08:54:19.65Z</time></trkpt><trkpt lat="33.9935389" lon="7.8654286"><ele>-10.0</ele><time>2026-04-30T08:54:20.72Z</time></trkpt><trkpt lat="33.9935486" lon="7.865539"><ele>-10.0</ele><time>2026-04-30T08:54:21.651Z</time></trkpt><trkpt lat="33.9935678" lon="7.865645"><ele>-10.0</ele><time>2026-04-30T08:54:22.663Z</time></trkpt><trkpt lat="33.9935888" lon="7.8657498"><ele>-10.0</ele><time>2026-04-30T08:54:23.655Z</time></trkpt><trkpt lat="33.9936045" lon="7.865857"><ele>-10.0</ele><time>2026-04-30T08:54:24.664Z</time></trkpt><trkpt lat="33.9936284" lon="7.8659705"><ele>-10.0</ele><time>2026-04-30T08:54:25.658Z</time></trkpt><trkpt lat="33.9936499" lon="7.8660834"><ele>-10.0</ele><time>2026-04-30T08:54:26.656Z</time></trkpt><trkpt lat="33.9936679" lon="7.8662021"><ele>-10.0</ele><time>2026-04-30T08:54:27.646Z</time></trkpt><trkpt lat="33.9936928" lon="7.8663046"><ele>-10.0</ele><time>2026-04-30T08:54:28.656Z</time></trkpt><trkpt lat="33.9937137" lon="7.8664077"><ele>-10.0</ele><time>2026-04-30T08:54:29.656Z</time></trkpt><trkpt lat="33.9937388" lon="7.8665091"><ele>-10.0</ele><time>2026-04-30T08:54:30.658Z</time></trkpt><trkpt lat="33.9937575" lon="7.8666004"><ele>-10.0</ele><time>2026-04-30T08:54:31.662Z</time></trkpt><trkpt lat="33.9937783" lon="7.8666861"><ele>-10.0</ele><time>2026-04-30T08:54:32.648Z</time></trkpt><trkpt lat="33.9937962" lon="7.8667684"><ele>-9.857142857142858</ele><time>2026-04-30T08:54:33.647Z</time></trkpt><trkpt lat="33.9938166" lon="7.8668563"><ele>-9.714285714285715</ele><time>2026-04-30T08:54:34.659Z</time></trkpt><trkpt lat="33.9938414" lon="7.8669411"><ele>-9.571428571428573</ele><time>2026-04-30T08:54:35.709Z</time></trkpt><trkpt lat="33.9938646" lon="7.8670269"><ele>-9.428571428571429</ele><time>2026-04-30T08:54:36.679Z</time></trkpt><trkpt lat="33.9938975" lon="7.8671107"><ele>-9.285714285714286</ele><time>2026-04-30T08:54:37.666Z</time></trkpt><trkpt lat="33.9939242" lon="7.8671929"><ele>-9.142857142857144</ele><time>2026-04-30T08:54:38.656Z</time></trkpt><trkpt lat="33.9939526" lon="7.8672697"><ele>-9.0</ele><time>2026-04-30T08:54:39.657Z</time></trkpt><trkpt lat="33.9939822" lon="7.8673379"><ele>-9.0</ele><time>2026-04-30T08:54:40.648Z</time></trkpt><trkpt lat="33.9940066" lon="7.8674086"><ele>-9.0</ele><time>2026-04-30T08:54:41.652Z</time></trkpt><trkpt lat="33.9940342" lon="7.8674783"><ele>-9.0</ele><time>2026-04-30T08:54:42.662Z</time></trkpt><trkpt lat="33.9940903" lon="7.8676173"><ele>-9.0</ele><time>2026-04-30T08:54:44.683Z</time></trkpt><trkpt lat="33.9941225" lon="7.8676923"><ele>-9.0</ele><time>2026-04-30T08:54:45.653Z</time></trkpt><trkpt lat="33.9941558" lon="7.8677644"><ele>-9.0</ele><time>2026-04-30T08:54:46.67Z</time></trkpt><trkpt lat="33.9941865" lon="7.8678415"><ele>-9.5</ele><time>2026-04-30T08:54:47.648Z</time></trkpt><trkpt lat="33.9942222" lon="7.8679255"><ele>-10.0</ele><time>2026-04-30T08:54:48.654Z</time></trkpt><trkpt lat="33.9942596" lon="7.8680068"><ele>-10.5</ele><time>2026-04-30T08:54:49.662Z</time></trkpt><trkpt lat="33.9942935" lon="7.868093"><ele>-11.0</ele><time>2026-04-30T08:54:50.668Z</time></trkpt><trkpt lat="33.9943274" lon="7.8681742"><ele>-11.5</ele><time>2026-04-30T08:54:51.651Z</time></trkpt><trkpt lat="33.9943667" lon="7.8682537"><ele>-12.0</ele><time>2026-04-30T08:54:52.653Z</time></trkpt><trkpt lat="33.9944055" lon="7.8683275"><ele>-12.0</ele><time>2026-04-30T08:54:53.66Z</time></trkpt><trkpt lat="33.9944381" lon="7.8684032"><ele>-12.0</ele><time>2026-04-30T08:54:54.653Z</time></trkpt><trkpt lat="33.9944693" lon="7.8684792"><ele>-12.0</ele><time>2026-04-30T08:54:55.659Z</time></trkpt><trkpt lat="33.9944952" lon="7.8685521"><ele>-12.0</ele><time>2026-04-30T08:54:56.66Z</time></trkpt><trkpt lat="33.9945205" lon="7.8686241"><ele>-12.0</ele><time>2026-04-30T08:54:57.654Z</time></trkpt><trkpt lat="33.9945927" lon="7.8687522"><ele>-12.0</ele><time>2026-04-30T08:54:59.658Z</time></trkpt><trkpt lat="33.9946319" lon="7.8688216"><ele>-12.0</ele><time>2026-04-30T08:55:00.655Z</time></trkpt><trkpt lat="33.9946782" lon="7.868906"><ele>-12.0</ele><time>2026-04-30T08:55:01.661Z</time></trkpt><trkpt lat="33.9947178" lon="7.8689885"><ele>-12.0</ele><time>2026-04-30T08:55:02.658Z</time></trkpt><trkpt lat="33.9947556" lon="7.8690726"><ele>-12.0</ele><time>2026-04-30T08:55:03.66Z</time></trkpt><trkpt lat="33.9947954" lon="7.8691586"><ele>-12.0</ele><time>2026-04-30T08:55:04.652Z</time></trkpt><trkpt lat="33.9948369" lon="7.8692415"><ele>-12.0</ele><time>2026-04-30T08:55:05.654Z</time></trkpt><trkpt lat="33.9948714" lon="7.8693272"><ele>-11.999999999999998</ele><time>2026-04-30T08:55:06.656Z</time></trkpt><trkpt lat="33.9949093" lon="7.8694068"><ele>-12.0</ele><time>2026-04-30T08:55:07.673Z</time></trkpt><trkpt lat="33.9949419" lon="7.8694881"><ele>-12.0</ele><time>2026-04-30T08:55:08.66Z</time></trkpt><trkpt lat="33.9949763" lon="7.8695707"><ele>-12.0</ele><time>2026-04-30T08:55:09.65Z</time></trkpt><trkpt lat="33.9950132" lon="7.8696454"><ele>-12.0</ele><time>2026-04-30T08:55:10.653Z</time></trkpt><trkpt lat="33.9950546" lon="7.869711"><ele>-11.999999999999998</ele><time>2026-04-30T08:55:11.659Z</time></trkpt><trkpt lat="33.9950929" lon="7.869779"><ele>-12.0</ele><time>2026-04-30T08:55:12.655Z</time></trkpt><trkpt lat="33.9951316" lon="7.8698507"><ele>-12.0</ele><time>2026-04-30T08:55:13.663Z</time></trkpt><trkpt lat="33.9951761" lon="7.8699195"><ele>-12.0</ele><time>2026-04-30T08:55:14.669Z</time></trkpt><trkpt lat="33.9952253" lon="7.8699907"><ele>-12.0</ele><time>2026-04-30T08:55:15.667Z</time></trkpt><trkpt lat="33.9952777" lon="7.8700618"><ele>-12.0</ele><time>2026-04-30T08:55:16.667Z</time></trkpt><trkpt lat="33.9953357" lon="7.8701306"><ele>-12.0</ele><time>2026-04-30T08:55:17.662Z</time></trkpt><trkpt lat="33.9953932" lon="7.870198"><ele>-12.0</ele><time>2026-04-30T08:55:18.66Z</time></trkpt><trkpt lat="33.9954511" lon="7.8702646"><ele>-12.0</ele><time>2026-04-30T08:55:19.667Z</time></trkpt><trkpt lat="33.9955094" lon="7.8703317"><ele>-12.0</ele><time>2026-04-30T08:55:20.662Z</time></trkpt><trkpt lat="33.9955673" lon="7.8704011"><ele>-12.0</ele><time>2026-04-30T08:55:21.66Z</time></trkpt><trkpt lat="33.9956147" lon="7.8704734"><ele>-12.0</ele><time>2026-04-30T08:55:22.662Z</time></trkpt><trkpt lat="33.9956729" lon="7.8705486"><ele>-12.0</ele><time>2026-04-30T08:55:23.664Z</time></trkpt><trkpt lat="33.9957332" lon="7.8706207"><ele>-12.0</ele><time>2026-04-30T08:55:24.663Z</time></trkpt><trkpt lat="33.9957994" lon="7.8706983"><ele>-12.166666666666666</ele><time>2026-04-30T08:55:25.665Z</time></trkpt><trkpt lat="33.9958589" lon="7.8707678"><ele>-12.333333333333332</ele><time>2026-04-30T08:55:26.661Z</time></trkpt><trkpt lat="33.9959163" lon="7.8708332"><ele>-12.5</ele><time>2026-04-30T08:55:27.663Z</time></trkpt><trkpt lat="33.9959775" lon="7.8709036"><ele>-12.666666666666666</ele><time>2026-04-30T08:55:28.654Z</time></trkpt><trkpt lat="33.9960359" lon="7.870973"><ele>-12.833333333333332</ele><time>2026-04-30T08:55:29.651Z</time></trkpt><trkpt lat="33.9960866" lon="7.8710345"><ele>-13.0</ele><time>2026-04-30T08:55:30.66Z</time></trkpt><trkpt lat="33.996129" lon="7.8710927"><ele>-13.4</ele><time>2026-04-30T08:55:31.662Z</time></trkpt><trkpt lat="33.9962112" lon="7.8711905"><ele>-13.8</ele><time>2026-04-30T08:55:33.663Z</time></trkpt><trkpt lat="33.9963008" lon="7.8712951"><ele>-14.2</ele><time>2026-04-30T08:55:35.655Z</time></trkpt><trkpt lat="33.9963526" lon="7.8713563"><ele>-14.6</ele><time>2026-04-30T08:55:36.665Z</time></trkpt><trkpt lat="33.9964071" lon="7.871421"><ele>-15.0</ele><time>2026-04-30T08:55:37.663Z</time></trkpt><trkpt lat="33.996463" lon="7.8714942"><ele>-15.0</ele><time>2026-04-30T08:55:38.661Z</time></trkpt><trkpt lat="33.996515" lon="7.8715645"><ele>-15.0</ele><time>2026-04-30T08:55:39.66Z</time></trkpt><trkpt lat="33.9965689" lon="7.8716317"><ele>-15.0</ele><time>2026-04-30T08:55:40.664Z</time></trkpt><trkpt lat="33.9966301" lon="7.8716983"><ele>-15.0</ele><time>2026-04-30T08:55:41.658Z</time></trkpt><trkpt lat="33.9966951" lon="7.8717683"><ele>-15.0</ele><time>2026-04-30T08:55:42.658Z</time></trkpt><trkpt lat="33.9967534" lon="7.8718358"><ele>-15.0</ele><time>2026-04-30T08:55:43.662Z</time></trkpt><trkpt lat="33.9968173" lon="7.8718994"><ele>-14.5</ele><time>2026-04-30T08:55:44.658Z</time></trkpt><trkpt lat="33.9968702" lon="7.8719658"><ele>-14.0</ele><time>2026-04-30T08:55:45.655Z</time></trkpt><trkpt lat="33.9969233" lon="7.8720355"><ele>-13.5</ele><time>2026-04-30T08:55:46.654Z</time></trkpt><trkpt lat="33.9969726" lon="7.8721025"><ele>-13.0</ele><time>2026-04-30T08:55:47.662Z</time></trkpt><trkpt lat="33.99702" lon="7.8721739"><ele>-12.5</ele><time>2026-04-30T08:55:48.664Z</time></trkpt><trkpt lat="33.9970704" lon="7.8722444"><ele>-12.0</ele><time>2026-04-30T08:55:49.656Z</time></trkpt><trkpt lat="33.997126" lon="7.8723154"><ele>-12.0</ele><time>2026-04-30T08:55:50.654Z</time></trkpt><trkpt lat="33.9971861" lon="7.8723823"><ele>-12.0</ele><time>2026-04-30T08:55:51.659Z</time></trkpt><trkpt lat="33.9972511" lon="7.8724503"><ele>-12.0</ele><time>2026-04-30T08:55:52.661Z</time></trkpt><trkpt lat="33.9973038" lon="7.8725206"><ele>-12.0</ele><time>2026-04-30T08:55:53.664Z</time></trkpt><trkpt lat="33.9973578" lon="7.8725927"><ele>-12.0</ele><time>2026-04-30T08:55:54.707Z</time></trkpt><trkpt lat="33.9974143" lon="7.8726662"><ele>-12.0</ele><time>2026-04-30T08:55:55.662Z</time></trkpt><trkpt lat="33.9974725" lon="7.8727371"><ele>-11.8</ele><time>2026-04-30T08:55:56.659Z</time></trkpt><trkpt lat="33.9975317" lon="7.8728043"><ele>-11.6</ele><time>2026-04-30T08:55:57.673Z</time></trkpt><trkpt lat="33.9975885" lon="7.8728656"><ele>-11.4</ele><time>2026-04-30T08:55:58.658Z</time></trkpt><trkpt lat="33.9976384" lon="7.8729142"><ele>-11.200000000000001</ele><time>2026-04-30T08:55:59.664Z</time></trkpt><trkpt lat="33.9977343" lon="7.8730176"><ele>-11.0</ele><time>2026-04-30T08:56:01.673Z</time></trkpt><trkpt lat="33.9978157" lon="7.8731185"><ele>-11.0</ele><time>2026-04-30T08:56:03.664Z</time></trkpt><trkpt lat="33.9978883" lon="7.8732167"><ele>-11.0</ele><time>2026-04-30T08:56:05.663Z</time></trkpt><trkpt lat="33.9979526" lon="7.8733139"><ele>-11.0</ele><time>2026-04-30T08:56:07.659Z</time></trkpt><trkpt lat="33.9980408" lon="7.8734366"><ele>-11.0</ele><time>2026-04-30T08:56:09.661Z</time></trkpt><trkpt lat="33.9980908" lon="7.8735015"><ele>-11.0</ele><time>2026-04-30T08:56:10.656Z</time></trkpt><trkpt lat="33.9981447" lon="7.8735685"><ele>-11.0</ele><time>2026-04-30T08:56:11.663Z</time></trkpt><trkpt lat="33.9981985" lon="7.8736402"><ele>-11.0</ele><time>2026-04-30T08:56:12.659Z</time></trkpt><trkpt lat="33.9982562" lon="7.8737111"><ele>-11.0</ele><time>2026-04-30T08:56:13.655Z</time></trkpt><trkpt lat="33.9983125" lon="7.8737878"><ele>-11.0</ele><time>2026-04-30T08:56:14.662Z</time></trkpt><trkpt lat="33.9983714" lon="7.8738623"><ele>-11.0</ele><time>2026-04-30T08:56:15.657Z</time></trkpt><trkpt lat="33.9984324" lon="7.8739336"><ele>-11.0</ele><time>2026-04-30T08:56:16.653Z</time></trkpt><trkpt lat="33.9984985" lon="7.8740069"><ele>-11.0</ele><time>2026-04-30T08:56:17.665Z</time></trkpt><trkpt lat="33.9985647" lon="7.8740748"><ele>-11.0</ele><time>2026-04-30T08:56:18.659Z</time></trkpt><trkpt lat="33.9986339" lon="7.8741373"><ele>-11.0</ele><time>2026-04-30T08:56:19.655Z</time></trkpt><trkpt lat="33.9986953" lon="7.8741969"><ele>-11.0</ele><time>2026-04-30T08:56:20.658Z</time></trkpt><trkpt lat="33.9987632" lon="7.8742534"><ele>-11.0</ele><time>2026-04-30T08:56:21.657Z</time></trkpt><trkpt lat="33.9988313" lon="7.874316"><ele>-11.0</ele><time>2026-04-30T08:56:22.662Z</time></trkpt><trkpt lat="33.9988994" lon="7.8743693"><ele>-11.285714285714286</ele><time>2026-04-30T08:56:23.658Z</time></trkpt><trkpt lat="33.9989679" lon="7.874414"><ele>-11.571428571428571</ele><time>2026-04-30T08:56:24.653Z</time></trkpt><trkpt lat="33.9990352" lon="7.8744528"><ele>-11.857142857142858</ele><time>2026-04-30T08:56:25.663Z</time></trkpt><trkpt lat="33.9990985" lon="7.8744883"><ele>-12.142857142857142</ele><time>2026-04-30T08:56:26.651Z</time></trkpt><trkpt lat="33.9991636" lon="7.8745246"><ele>-12.428571428571429</ele><time>2026-04-30T08:56:27.674Z</time></trkpt><trkpt lat="33.9992256" lon="7.8745673"><ele>-12.714285714285714</ele><time>2026-04-30T08:56:28.661Z</time></trkpt><trkpt lat="33.9992897" lon="7.8746199"><ele>-13.0</ele><time>2026-04-30T08:56:29.657Z</time></trkpt><trkpt lat="33.999355" lon="7.8746737"><ele>-12.999999999999998</ele><time>2026-04-30T08:56:30.645Z</time></trkpt><trkpt lat="33.9994185" lon="7.8747416"><ele>-13.0</ele><time>2026-04-30T08:56:31.657Z</time></trkpt><trkpt lat="33.9994754" lon="7.8748143"><ele>-13.0</ele><time>2026-04-30T08:56:32.659Z</time></trkpt><trkpt lat="33.9995224" lon="7.8748907"><ele>-13.0</ele><time>2026-04-30T08:56:33.664Z</time></trkpt><trkpt lat="33.9995695" lon="7.8749706"><ele>-12.999999999999998</ele><time>2026-04-30T08:56:34.657Z</time></trkpt><trkpt lat="33.999608" lon="7.875046"><ele>-13.0</ele><time>2026-04-30T08:56:35.668Z</time></trkpt><trkpt lat="33.9996443" lon="7.8751222"><ele>-12.833333333333332</ele><time>2026-04-30T08:56:36.651Z</time></trkpt><trkpt lat="33.9996783" lon="7.8751948"><ele>-12.666666666666666</ele><time>2026-04-30T08:56:37.66Z</time></trkpt><trkpt lat="33.999717" lon="7.8752679"><ele>-12.5</ele><time>2026-04-30T08:56:38.648Z</time></trkpt><trkpt lat="33.9997574" lon="7.8753517"><ele>-12.333333333333332</ele><time>2026-04-30T08:56:39.661Z</time></trkpt><trkpt lat="33.9997986" lon="7.875429"><ele>-12.166666666666666</ele><time>2026-04-30T08:56:40.652Z</time></trkpt><trkpt lat="33.99984" lon="7.8755071"><ele>-12.0</ele><time>2026-04-30T08:56:41.661Z</time></trkpt><trkpt lat="33.9998857" lon="7.8755874"><ele>-12.0</ele><time>2026-04-30T08:56:42.667Z</time></trkpt><trkpt lat="33.9999292" lon="7.8756669"><ele>-12.0</ele><time>2026-04-30T08:56:43.657Z</time></trkpt><trkpt lat="33.9999707" lon="7.8757444"><ele>-12.0</ele><time>2026-04-30T08:56:44.659Z</time></trkpt><trkpt lat="34.0000163" lon="7.8758304"><ele>-12.0</ele><time>2026-04-30T08:56:45.652Z</time></trkpt><trkpt lat="34.0000612" lon="7.875917"><ele>-12.0</ele><time>2026-04-30T08:56:46.659Z</time></trkpt><trkpt lat="34.0001056" lon="7.8759976"><ele>-12.0</ele><time>2026-04-30T08:56:47.651Z</time></trkpt><trkpt lat="34.0001468" lon="7.8760753"><ele>-12.333333333333334</ele><time>2026-04-30T08:56:48.658Z</time></trkpt><trkpt lat="34.0001876" lon="7.8761484"><ele>-12.666666666666668</ele><time>2026-04-30T08:56:49.67Z</time></trkpt><trkpt lat="34.0002265" lon="7.8762271"><ele>-13.0</ele><time>2026-04-30T08:56:50.662Z</time></trkpt><trkpt lat="34.0002646" lon="7.8763058"><ele>-13.333333333333334</ele><time>2026-04-30T08:56:51.65Z</time></trkpt><trkpt lat="34.0003113" lon="7.8763876"><ele>-13.666666666666668</ele><time>2026-04-30T08:56:52.66Z</time></trkpt><trkpt lat="34.0003547" lon="7.8764701"><ele>-14.0</ele><time>2026-04-30T08:56:53.653Z</time></trkpt><trkpt lat="34.0003968" lon="7.8765513"><ele>-14.000000000000002</ele><time>2026-04-30T08:56:54.663Z</time></trkpt><trkpt lat="34.0004358" lon="7.8766309"><ele>-14.0</ele><time>2026-04-30T08:56:55.651Z</time></trkpt><trkpt lat="34.0004766" lon="7.8767157"><ele>-14.0</ele><time>2026-04-30T08:56:56.66Z</time></trkpt><trkpt lat="34.0005197" lon="7.8767992"><ele>-14.0</ele><time>2026-04-30T08:56:57.657Z</time></trkpt><trkpt lat="34.0005609" lon="7.876886"><ele>-14.000000000000002</ele><time>2026-04-30T08:56:58.661Z</time></trkpt><trkpt lat="34.0005987" lon="7.8769713"><ele>-14.0</ele><time>2026-04-30T08:56:59.649Z</time></trkpt><trkpt lat="34.0006394" lon="7.8770531"><ele>-14.000000000000002</ele><time>2026-04-30T08:57:00.662Z</time></trkpt><trkpt lat="34.000679" lon="7.8771319"><ele>-14.0</ele><time>2026-04-30T08:57:01.662Z</time></trkpt><trkpt lat="34.0007179" lon="7.8772067"><ele>-14.0</ele><time>2026-04-30T08:57:02.656Z</time></trkpt><trkpt lat="34.0007575" lon="7.8772831"><ele>-14.0</ele><time>2026-04-30T08:57:03.663Z</time></trkpt><trkpt lat="34.0007998" lon="7.8773642"><ele>-14.000000000000002</ele><time>2026-04-30T08:57:04.66Z</time></trkpt><trkpt lat="34.000842" lon="7.8774421"><ele>-14.0</ele><time>2026-04-30T08:57:05.655Z</time></trkpt><trkpt lat="34.0008874" lon="7.877517"><ele>-13.714285714285714</ele><time>2026-04-30T08:57:06.662Z</time></trkpt><trkpt lat="34.0009322" lon="7.8775962"><ele>-13.428571428571429</ele><time>2026-04-30T08:57:07.644Z</time></trkpt><trkpt lat="34.0009793" lon="7.877677"><ele>-13.142857142857142</ele><time>2026-04-30T08:57:08.65Z</time></trkpt><trkpt lat="34.0010182" lon="7.8777472"><ele>-12.857142857142858</ele><time>2026-04-30T08:57:09.654Z</time></trkpt><trkpt lat="34.0010574" lon="7.877815"><ele>-12.571428571428571</ele><time>2026-04-30T08:57:10.657Z</time></trkpt><trkpt lat="34.0010937" lon="7.8778796"><ele>-12.285714285714285</ele><time>2026-04-30T08:57:11.67Z</time></trkpt><trkpt lat="34.0011289" lon="7.8779427"><ele>-12.0</ele><time>2026-04-30T08:57:12.658Z</time></trkpt><trkpt lat="34.0011708" lon="7.8780075"><ele>-11.999999999999998</ele><time>2026-04-30T08:57:13.658Z</time></trkpt><trkpt lat="34.0012121" lon="7.8780759"><ele>-12.0</ele><time>2026-04-30T08:57:14.65Z</time></trkpt><trkpt lat="34.0012464" lon="7.8781447"><ele>-12.0</ele><time>2026-04-30T08:57:15.655Z</time></trkpt><trkpt lat="34.0012848" lon="7.878214"><ele>-12.0</ele><time>2026-04-30T08:57:16.656Z</time></trkpt><trkpt lat="34.001321" lon="7.8782858"><ele>-12.0</ele><time>2026-04-30T08:57:17.653Z</time></trkpt><trkpt lat="34.0013553" lon="7.8783567"><ele>-11.999999999999998</ele><time>2026-04-30T08:57:18.65Z</time></trkpt><trkpt lat="34.0013873" lon="7.8784303"><ele>-12.0</ele><time>2026-04-30T08:57:19.66Z</time></trkpt><trkpt lat="34.0014182" lon="7.878502"><ele>-11.999999999999998</ele><time>2026-04-30T08:57:20.657Z</time></trkpt><trkpt lat="34.0014498" lon="7.8785759"><ele>-12.0</ele><time>2026-04-30T08:57:21.664Z</time></trkpt><trkpt lat="34.0014842" lon="7.8786558"><ele>-12.0</ele><time>2026-04-30T08:57:22.644Z</time></trkpt><trkpt lat="34.001513" lon="7.8787345"><ele>-12.0</ele><time>2026-04-30T08:57:23.661Z</time></trkpt><trkpt lat="34.001541" lon="7.8788149"><ele>-12.0</ele><time>2026-04-30T08:57:24.651Z</time></trkpt><trkpt lat="34.0015703" lon="7.8788926"><ele>-11.999999999999998</ele><time>2026-04-30T08:57:25.663Z</time></trkpt><trkpt lat="34.0016029" lon="7.8789676"><ele>-12.0</ele><time>2026-04-30T08:57:26.648Z</time></trkpt><trkpt lat="34.0016399" lon="7.8790422"><ele>-11.666666666666666</ele><time>2026-04-30T08:57:27.657Z</time></trkpt><trkpt lat="34.0016803" lon="7.8791184"><ele>-11.333333333333334</ele><time>2026-04-30T08:57:28.658Z</time></trkpt><trkpt lat="34.001726" lon="7.879197"><ele>-11.0</ele><time>2026-04-30T08:57:29.657Z</time></trkpt><trkpt lat="34.0017586" lon="7.8792797"><ele>-10.666666666666668</ele><time>2026-04-30T08:57:30.663Z</time></trkpt><trkpt lat="34.0017978" lon="7.8793575"><ele>-10.333333333333334</ele><time>2026-04-30T08:57:31.647Z</time></trkpt><trkpt lat="34.0018329" lon="7.8794315"><ele>-10.0</ele><time>2026-04-30T08:57:32.66Z</time></trkpt><trkpt lat="34.0018712" lon="7.8795098"><ele>-10.0</ele><time>2026-04-30T08:57:33.668Z</time></trkpt><trkpt lat="34.0019061" lon="7.8795892"><ele>-10.0</ele><time>2026-04-30T08:57:34.651Z</time></trkpt><trkpt lat="34.001943" lon="7.8796636"><ele>-10.0</ele><time>2026-04-30T08:57:35.656Z</time></trkpt><trkpt lat="34.0019777" lon="7.8797353"><ele>-10.0</ele><time>2026-04-30T08:57:36.657Z</time></trkpt><trkpt lat="34.0020125" lon="7.8798087"><ele>-10.0</ele><time>2026-04-30T08:57:37.666Z</time></trkpt><trkpt lat="34.0020473" lon="7.8798806"><ele>-10.0</ele><time>2026-04-30T08:57:38.655Z</time></trkpt><trkpt lat="34.0020835" lon="7.8799542"><ele>-10.0</ele><time>2026-04-30T08:57:39.66Z</time></trkpt><trkpt lat="34.0021165" lon="7.8800241"><ele>-10.0</ele><time>2026-04-30T08:57:40.649Z</time></trkpt><trkpt lat="34.0021509" lon="7.8800974"><ele>-10.0</ele><time>2026-04-30T08:57:41.659Z</time></trkpt><trkpt lat="34.0021855" lon="7.8801718"><ele>-10.0</ele><time>2026-04-30T08:57:42.651Z</time></trkpt><trkpt lat="34.0022429" lon="7.8802986"><ele>-10.0</ele><time>2026-04-30T08:57:44.659Z</time></trkpt><trkpt lat="34.0023021" lon="7.8804041"><ele>-10.0</ele><time>2026-04-30T08:57:46.648Z</time></trkpt><trkpt lat="34.0023496" lon="7.8804966"><ele>-10.0</ele><time>2026-04-30T08:57:48.658Z</time></trkpt><trkpt lat="34.0023881" lon="7.8805789"><ele>-10.0</ele><time>2026-04-30T08:57:50.654Z</time></trkpt><trkpt lat="34.0024187" lon="7.8806646"><ele>-10.0</ele><time>2026-04-30T08:57:52.661Z</time></trkpt><trkpt lat="34.0024545" lon="7.8807426"><ele>-10.0</ele><time>2026-04-30T08:57:54.662Z</time></trkpt><trkpt lat="34.0024931" lon="7.8808281"><ele>-10.0</ele><time>2026-04-30T08:57:57.655Z</time></trkpt><trkpt lat="34.002527" lon="7.8808936"><ele>-10.0</ele><time>2026-04-30T08:59:06.66Z</time></trkpt><trkpt lat="34.0025807" lon="7.8810267"><ele>-10.166666666666668</ele><time>2026-04-30T08:59:08.654Z</time></trkpt><trkpt lat="34.0026509" lon="7.8811507"><ele>-10.333333333333334</ele><time>2026-04-30T08:59:10.689Z</time></trkpt><trkpt lat="34.0026909" lon="7.8812212"><ele>-10.5</ele><time>2026-04-30T08:59:11.668Z</time></trkpt><trkpt lat="34.0027306" lon="7.881299"><ele>-10.666666666666666</ele><time>2026-04-30T08:59:12.656Z</time></trkpt><trkpt lat="34.002774" lon="7.8813847"><ele>-10.833333333333332</ele><time>2026-04-30T08:59:13.663Z</time></trkpt><trkpt lat="34.0028175" lon="7.8814651"><ele>-11.0</ele><time>2026-04-30T08:59:14.649Z</time></trkpt><trkpt lat="34.0028628" lon="7.8815497"><ele>-11.0</ele><time>2026-04-30T08:59:15.646Z</time></trkpt><trkpt lat="34.0029059" lon="7.8816439"><ele>-11.0</ele><time>2026-04-30T08:59:16.661Z</time></trkpt><trkpt lat="34.0029445" lon="7.8817324"><ele>-11.0</ele><time>2026-04-30T08:59:17.683Z</time></trkpt><trkpt lat="34.0029907" lon="7.8818308"><ele>-11.0</ele><time>2026-04-30T08:59:18.674Z</time></trkpt><trkpt lat="34.0030389" lon="7.8819178"><ele>-11.0</ele><time>2026-04-30T08:59:19.673Z</time></trkpt><trkpt lat="34.003081" lon="7.8820011"><ele>-11.0</ele><time>2026-04-30T08:59:20.664Z</time></trkpt><trkpt lat="34.0031269" lon="7.8820905"><ele>-11.0</ele><time>2026-04-30T08:59:21.651Z</time></trkpt><trkpt lat="34.0031719" lon="7.8821864"><ele>-11.0</ele><time>2026-04-30T08:59:22.653Z</time></trkpt><trkpt lat="34.0032151" lon="7.8822858"><ele>-11.0</ele><time>2026-04-30T08:59:23.66Z</time></trkpt><trkpt lat="34.0032683" lon="7.8823924"><ele>-11.0</ele><time>2026-04-30T08:59:24.653Z</time></trkpt><trkpt lat="34.0033201" lon="7.8824979"><ele>-11.0</ele><time>2026-04-30T08:59:25.672Z</time></trkpt><trkpt lat="34.0033628" lon="7.882607"><ele>-11.0</ele><time>2026-04-30T08:59:26.665Z</time></trkpt><trkpt lat="34.0034043" lon="7.8827174"><ele>-11.0</ele><time>2026-04-30T08:59:27.657Z</time></trkpt><trkpt lat="34.003439" lon="7.8828308"><ele>-11.0</ele><time>2026-04-30T08:59:28.658Z</time></trkpt><trkpt lat="34.0034657" lon="7.8829452"><ele>-11.0</ele><time>2026-04-30T08:59:29.653Z</time></trkpt><trkpt lat="34.0034948" lon="7.8830617"><ele>-11.0</ele><time>2026-04-30T08:59:30.669Z</time></trkpt><trkpt lat="34.0035241" lon="7.8831742"><ele>-11.0</ele><time>2026-04-30T08:59:31.656Z</time></trkpt><trkpt lat="34.0035546" lon="7.8832909"><ele>-11.0</ele><time>2026-04-30T08:59:32.66Z</time></trkpt><trkpt lat="34.0035871" lon="7.8834357"><ele>-11.0</ele><time>2026-04-30T08:59:33.655Z</time></trkpt><trkpt lat="34.0036219" lon="7.8836049"><ele>-11.0</ele><time>2026-04-30T08:59:34.673Z</time></trkpt><trkpt lat="34.0036613" lon="7.883773"><ele>-11.0</ele><time>2026-04-30T08:59:35.665Z</time></trkpt><trkpt lat="34.0036962" lon="7.8839455"><ele>-11.0</ele><time>2026-04-30T08:59:36.658Z</time></trkpt><trkpt lat="34.003728" lon="7.884108"><ele>-11.0</ele><time>2026-04-30T08:59:37.657Z</time></trkpt><trkpt lat="34.0037574" lon="7.8842573"><ele>-11.0</ele><time>2026-04-30T08:59:38.753Z</time></trkpt><trkpt lat="34.0037892" lon="7.8844068"><ele>-11.0</ele><time>2026-04-30T08:59:39.667Z</time></trkpt><trkpt lat="34.0038202" lon="7.8845506"><ele>-11.0</ele><time>2026-04-30T08:59:40.653Z</time></trkpt><trkpt lat="34.0038444" lon="7.8846838"><ele>-11.0</ele><time>2026-04-30T08:59:41.655Z</time></trkpt><trkpt lat="34.003869" lon="7.8848079"><ele>-11.0</ele><time>2026-04-30T08:59:42.667Z</time></trkpt><trkpt lat="34.0038868" lon="7.8849232"><ele>-11.0</ele><time>2026-04-30T08:59:43.656Z</time></trkpt><trkpt lat="34.0039039" lon="7.8850284"><ele>-10.8</ele><time>2026-04-30T08:59:44.703Z</time></trkpt><trkpt lat="34.0039253" lon="7.88513"><ele>-10.600000000000001</ele><time>2026-04-30T08:59:45.66Z</time></trkpt><trkpt lat="34.0039499" lon="7.8852381"><ele>-10.4</ele><time>2026-04-30T08:59:46.654Z</time></trkpt><trkpt lat="34.0039702" lon="7.8853512"><ele>-10.2</ele><time>2026-04-30T08:59:47.666Z</time></trkpt><trkpt lat="34.0039961" lon="7.885469"><ele>-10.0</ele><time>2026-04-30T08:59:48.662Z</time></trkpt><trkpt lat="34.0040235" lon="7.8855933"><ele>-10.0</ele><time>2026-04-30T08:59:49.66Z</time></trkpt><trkpt lat="34.0040502" lon="7.8857186"><ele>-10.0</ele><time>2026-04-30T08:59:50.655Z</time></trkpt><trkpt lat="34.0040738" lon="7.8858411"><ele>-10.0</ele><time>2026-04-30T08:59:51.653Z</time></trkpt><trkpt lat="34.0040969" lon="7.8859626"><ele>-10.0</ele><time>2026-04-30T08:59:52.67Z</time></trkpt><trkpt lat="34.0041209" lon="7.8860828"><ele>-10.0</ele><time>2026-04-30T08:59:53.655Z</time></trkpt><trkpt lat="34.0041421" lon="7.8861989"><ele>-9.75</ele><time>2026-04-30T08:59:54.667Z</time></trkpt><trkpt lat="34.0041649" lon="7.8863127"><ele>-9.5</ele><time>2026-04-30T08:59:55.656Z</time></trkpt><trkpt lat="34.0041846" lon="7.8864241"><ele>-9.25</ele><time>2026-04-30T08:59:56.663Z</time></trkpt><trkpt lat="34.0042366" lon="7.8866438"><ele>-9.0</ele><time>2026-04-30T08:59:58.674Z</time></trkpt><trkpt lat="34.004264" lon="7.8867577"><ele>-9.2</ele><time>2026-04-30T08:59:59.662Z</time></trkpt><trkpt lat="34.0042875" lon="7.8868639"><ele>-9.4</ele><time>2026-04-30T09:00:00.664Z</time></trkpt><trkpt lat="34.004311" lon="7.8869755"><ele>-9.6</ele><time>2026-04-30T09:00:01.655Z</time></trkpt><trkpt lat="34.004334" lon="7.8870852"><ele>-9.8</ele><time>2026-04-30T09:00:02.66Z</time></trkpt><trkpt lat="34.0043579" lon="7.8871922"><ele>-10.0</ele><time>2026-04-30T09:00:03.662Z</time></trkpt><trkpt lat="34.0043808" lon="7.8872995"><ele>-10.0</ele><time>2026-04-30T09:00:04.673Z</time></trkpt><trkpt lat="34.0044095" lon="7.8874002"><ele>-10.0</ele><time>2026-04-30T09:00:05.663Z</time></trkpt><trkpt lat="34.0044363" lon="7.8875024"><ele>-10.0</ele><time>2026-04-30T09:00:06.658Z</time></trkpt><trkpt lat="34.0044665" lon="7.8876025"><ele>-10.0</ele><time>2026-04-30T09:00:07.645Z</time></trkpt><trkpt lat="34.0044897" lon="7.8877049"><ele>-10.0</ele><time>2026-04-30T09:00:08.655Z</time></trkpt><trkpt lat="34.004516" lon="7.8878069"><ele>-10.0</ele><time>2026-04-30T09:00:09.661Z</time></trkpt><trkpt lat="34.0045456" lon="7.8879134"><ele>-9.666666666666668</ele><time>2026-04-30T09:00:10.662Z</time></trkpt><trkpt lat="34.0045675" lon="7.8880145"><ele>-9.333333333333334</ele><time>2026-04-30T09:00:11.651Z</time></trkpt><trkpt lat="34.0045908" lon="7.8881181"><ele>-9.0</ele><time>2026-04-30T09:00:12.667Z</time></trkpt><trkpt lat="34.0046108" lon="7.8882242"><ele>-8.666666666666666</ele><time>2026-04-30T09:00:13.654Z</time></trkpt><trkpt lat="34.0046319" lon="7.8883291"><ele>-8.333333333333332</ele><time>2026-04-30T09:00:14.692Z</time></trkpt><trkpt lat="34.0046475" lon="7.8884366"><ele>-8.0</ele><time>2026-04-30T09:00:15.666Z</time></trkpt><trkpt lat="34.0046636" lon="7.8885399"><ele>-8.0</ele><time>2026-04-30T09:00:16.664Z</time></trkpt><trkpt lat="34.0046775" lon="7.8886449"><ele>-8.0</ele><time>2026-04-30T09:00:17.655Z</time></trkpt><trkpt lat="34.0046912" lon="7.8887549"><ele>-8.0</ele><time>2026-04-30T09:00:18.663Z</time></trkpt><trkpt lat="34.004703" lon="7.8888633"><ele>-8.0</ele><time>2026-04-30T09:00:19.665Z</time></trkpt><trkpt lat="34.0047083" lon="7.8889741"><ele>-8.0</ele><time>2026-04-30T09:00:20.658Z</time></trkpt><trkpt lat="34.0047094" lon="7.8890869"><ele>-8.0</ele><time>2026-04-30T09:00:21.666Z</time></trkpt><trkpt lat="34.0047065" lon="7.8891976"><ele>-8.0</ele><time>2026-04-30T09:00:22.654Z</time></trkpt><trkpt lat="34.0047108" lon="7.8893115"><ele>-8.0</ele><time>2026-04-30T09:00:23.661Z</time></trkpt><trkpt lat="34.0047112" lon="7.8894225"><ele>-8.0</ele><time>2026-04-30T09:00:24.662Z</time></trkpt><trkpt lat="34.0047092" lon="7.8895351"><ele>-8.0</ele><time>2026-04-30T09:00:25.67Z</time></trkpt><trkpt lat="34.0047122" lon="7.8896595"><ele>-8.4</ele><time>2026-04-30T09:00:26.66Z</time></trkpt><trkpt lat="34.0047191" lon="7.8897774"><ele>-8.8</ele><time>2026-04-30T09:00:27.664Z</time></trkpt><trkpt lat="34.0047301" lon="7.8898997"><ele>-9.2</ele><time>2026-04-30T09:00:28.654Z</time></trkpt><trkpt lat="34.0047454" lon="7.8900155"><ele>-9.6</ele><time>2026-04-30T09:00:29.663Z</time></trkpt><trkpt lat="34.004757" lon="7.8901366"><ele>-10.0</ele><time>2026-04-30T09:00:30.656Z</time></trkpt><trkpt lat="34.0047662" lon="7.890261"><ele>-10.4</ele><time>2026-04-30T09:00:31.693Z</time></trkpt><trkpt lat="34.0047726" lon="7.8903786"><ele>-10.8</ele><time>2026-04-30T09:00:32.656Z</time></trkpt><trkpt lat="34.0047716" lon="7.8904974"><ele>-11.2</ele><time>2026-04-30T09:00:33.655Z</time></trkpt><trkpt lat="34.0047664" lon="7.8906207"><ele>-11.6</ele><time>2026-04-30T09:00:34.664Z</time></trkpt><trkpt lat="34.0047576" lon="7.8907483"><ele>-12.0</ele><time>2026-04-30T09:00:35.662Z</time></trkpt><trkpt lat="34.004748" lon="7.8908749"><ele>-11.6</ele><time>2026-04-30T09:00:36.664Z</time></trkpt><trkpt lat="34.0047416" lon="7.8910014"><ele>-11.2</ele><time>2026-04-30T09:00:37.66Z</time></trkpt><trkpt lat="34.0047402" lon="7.8911311"><ele>-10.8</ele><time>2026-04-30T09:00:38.66Z</time></trkpt><trkpt lat="34.0047368" lon="7.8912625"><ele>-10.4</ele><time>2026-04-30T09:00:39.658Z</time></trkpt><trkpt lat="34.0047415" lon="7.8913978"><ele>-10.0</ele><time>2026-04-30T09:00:40.654Z</time></trkpt><trkpt lat="34.0047511" lon="7.8915285"><ele>-10.0</ele><time>2026-04-30T09:00:41.657Z</time></trkpt><trkpt lat="34.0047644" lon="7.8916532"><ele>-10.0</ele><time>2026-04-30T09:00:42.666Z</time></trkpt><trkpt lat="34.0047708" lon="7.891768"><ele>-10.0</ele><time>2026-04-30T09:00:43.667Z</time></trkpt><trkpt lat="34.0047874" lon="7.8918899"><ele>-10.0</ele><time>2026-04-30T09:00:44.659Z</time></trkpt><trkpt lat="34.0048088" lon="7.8920089"><ele>-10.0</ele><time>2026-04-30T09:00:45.692Z</time></trkpt><trkpt lat="34.0048354" lon="7.8921264"><ele>-9.8</ele><time>2026-04-30T09:00:46.657Z</time></trkpt><trkpt lat="34.0048591" lon="7.8922399"><ele>-9.6</ele><time>2026-04-30T09:00:47.656Z</time></trkpt><trkpt lat="34.0048837" lon="7.8923563"><ele>-9.4</ele><time>2026-04-30T09:00:48.665Z</time></trkpt><trkpt lat="34.0049077" lon="7.8924712"><ele>-9.2</ele><time>2026-04-30T09:00:49.656Z</time></trkpt><trkpt lat="34.0049411" lon="7.8925787"><ele>-9.0</ele><time>2026-04-30T09:00:50.652Z</time></trkpt><trkpt lat="34.0049806" lon="7.8926853"><ele>-9.2</ele><time>2026-04-30T09:00:51.659Z</time></trkpt><trkpt lat="34.0050286" lon="7.8927911"><ele>-9.4</ele><time>2026-04-30T09:00:52.658Z</time></trkpt><trkpt lat="34.0050762" lon="7.8928954"><ele>-9.6</ele><time>2026-04-30T09:00:53.659Z</time></trkpt><trkpt lat="34.0051258" lon="7.8930023"><ele>-9.8</ele><time>2026-04-30T09:00:54.657Z</time></trkpt><trkpt lat="34.0051713" lon="7.893108"><ele>-10.0</ele><time>2026-04-30T09:00:55.654Z</time></trkpt><trkpt lat="34.0052156" lon="7.8932126"><ele>-10.0</ele><time>2026-04-30T09:00:56.658Z</time></trkpt><trkpt lat="34.0052593" lon="7.8933233"><ele>-10.0</ele><time>2026-04-30T09:00:57.681Z</time></trkpt><trkpt lat="34.0053042" lon="7.8934324"><ele>-10.0</ele><time>2026-04-30T09:00:58.662Z</time></trkpt><trkpt lat="34.0053535" lon="7.8935411"><ele>-10.0</ele><time>2026-04-30T09:00:59.661Z</time></trkpt><trkpt lat="34.0054015" lon="7.8936457"><ele>-10.0</ele><time>2026-04-30T09:01:00.662Z</time></trkpt><trkpt lat="34.0054478" lon="7.8937456"><ele>-10.166666666666668</ele><time>2026-04-30T09:01:01.666Z</time></trkpt><trkpt lat="34.0054986" lon="7.8938416"><ele>-10.333333333333334</ele><time>2026-04-30T09:01:02.659Z</time></trkpt><trkpt lat="34.0055453" lon="7.8939263"><ele>-10.5</ele><time>2026-04-30T09:01:03.664Z</time></trkpt><trkpt lat="34.0055927" lon="7.894001"><ele>-10.666666666666666</ele><time>2026-04-30T09:01:04.661Z</time></trkpt><trkpt lat="34.005649" lon="7.8940701"><ele>-10.833333333333332</ele><time>2026-04-30T09:01:05.704Z</time></trkpt><trkpt lat="34.0057091" lon="7.8941311"><ele>-11.0</ele><time>2026-04-30T09:01:06.666Z</time></trkpt><trkpt lat="34.0057732" lon="7.8941963"><ele>-10.5</ele><time>2026-04-30T09:01:07.655Z</time></trkpt><trkpt lat="34.0058319" lon="7.894265"><ele>-10.0</ele><time>2026-04-30T09:01:08.668Z</time></trkpt><trkpt lat="34.0058956" lon="7.8943346"><ele>-9.5</ele><time>2026-04-30T09:01:09.658Z</time></trkpt><trkpt lat="34.0059547" lon="7.8944073"><ele>-9.0</ele><time>2026-04-30T09:01:10.672Z</time></trkpt><trkpt lat="34.0060162" lon="7.8944842"><ele>-8.5</ele><time>2026-04-30T09:01:11.658Z</time></trkpt><trkpt lat="34.0060776" lon="7.8945598"><ele>-8.0</ele><time>2026-04-30T09:01:12.662Z</time></trkpt><trkpt lat="34.006144" lon="7.8946331"><ele>-7.999999999999999</ele><time>2026-04-30T09:01:13.654Z</time></trkpt><trkpt lat="34.0062117" lon="7.8947118"><ele>-8.0</ele><time>2026-04-30T09:01:14.662Z</time></trkpt><trkpt lat="34.0062788" lon="7.8947884"><ele>-8.0</ele><time>2026-04-30T09:01:15.654Z</time></trkpt><trkpt lat="34.0063422" lon="7.8948583"><ele>-8.0</ele><time>2026-04-30T09:01:16.667Z</time></trkpt><trkpt lat="34.006408" lon="7.8949137"><ele>-7.999999999999999</ele><time>2026-04-30T09:01:17.664Z</time></trkpt><trkpt lat="34.0064758" lon="7.8949604"><ele>-8.0</ele><time>2026-04-30T09:01:18.659Z</time></trkpt><trkpt lat="34.0065367" lon="7.8949983"><ele>-7.999999999999999</ele><time>2026-04-30T09:01:19.684Z</time></trkpt><trkpt lat="34.0065984" lon="7.8950346"><ele>-8.0</ele><time>2026-04-30T09:01:20.664Z</time></trkpt><trkpt lat="34.0066667" lon="7.8950827"><ele>-8.0</ele><time>2026-04-30T09:01:21.699Z</time></trkpt><trkpt lat="34.006734" lon="7.8951185"><ele>-8.0</ele><time>2026-04-30T09:01:22.664Z</time></trkpt><trkpt lat="34.0067922" lon="7.8951579"><ele>-7.999999999999999</ele><time>2026-04-30T09:01:23.659Z</time></trkpt><trkpt lat="34.0068972" lon="7.8952368"><ele>-8.0</ele><time>2026-04-30T09:01:25.661Z</time></trkpt><trkpt lat="34.0069938" lon="7.8953275"><ele>-7.7142857142857135</ele><time>2026-04-30T09:01:27.65Z</time></trkpt><trkpt lat="34.0070402" lon="7.8953807"><ele>-7.428571428571428</ele><time>2026-04-30T09:01:28.661Z</time></trkpt><trkpt lat="34.0070917" lon="7.8954385"><ele>-7.142857142857142</ele><time>2026-04-30T09:01:29.665Z</time></trkpt><trkpt lat="34.0071487" lon="7.8954961"><ele>-6.857142857142857</ele><time>2026-04-30T09:01:30.663Z</time></trkpt><trkpt lat="34.0072078" lon="7.895547"><ele>-6.571428571428571</ele><time>2026-04-30T09:01:31.66Z</time></trkpt><trkpt lat="34.007264" lon="7.8956037"><ele>-6.285714285714285</ele><time>2026-04-30T09:01:32.662Z</time></trkpt><trkpt lat="34.0073171" lon="7.8956709"><ele>-6.0</ele><time>2026-04-30T09:01:33.648Z</time></trkpt><trkpt lat="34.0073647" lon="7.8957337"><ele>-6.0</ele><time>2026-04-30T09:01:34.653Z</time></trkpt><trkpt lat="34.0074101" lon="7.8957967"><ele>-6.0</ele><time>2026-04-30T09:01:35.664Z</time></trkpt><trkpt lat="34.0074591" lon="7.8958519"><ele>-6.0</ele><time>2026-04-30T09:01:36.696Z</time></trkpt><trkpt lat="34.0075634" lon="7.8959766"><ele>-6.0</ele><time>2026-04-30T09:01:38.687Z</time></trkpt><trkpt lat="34.0076098" lon="7.8960438"><ele>-6.0</ele><time>2026-04-30T09:01:39.656Z</time></trkpt><trkpt lat="34.0077393" lon="7.8962642"><ele>-6.285714285714285</ele><time>2026-04-30T09:01:42.657Z</time></trkpt><trkpt lat="34.0077758" lon="7.8963306"><ele>-6.571428571428571</ele><time>2026-04-30T09:01:43.672Z</time></trkpt><trkpt lat="34.0078029" lon="7.8964039"><ele>-6.857142857142857</ele><time>2026-04-30T09:01:44.688Z</time></trkpt><trkpt lat="34.0078207" lon="7.8964866"><ele>-7.142857142857142</ele><time>2026-04-30T09:01:45.645Z</time></trkpt><trkpt lat="34.007834" lon="7.896573"><ele>-7.428571428571428</ele><time>2026-04-30T09:01:46.655Z</time></trkpt><trkpt lat="34.0078465" lon="7.8966617"><ele>-7.7142857142857135</ele><time>2026-04-30T09:01:47.652Z</time></trkpt><trkpt lat="34.007865" lon="7.8967507"><ele>-8.0</ele><time>2026-04-30T09:01:48.661Z</time></trkpt><trkpt lat="34.0078723" lon="7.896853"><ele>-8.166666666666666</ele><time>2026-04-30T09:01:49.661Z</time></trkpt><trkpt lat="34.0078859" lon="7.8969533"><ele>-8.333333333333332</ele><time>2026-04-30T09:01:50.674Z</time></trkpt><trkpt lat="34.007895" lon="7.8970522"><ele>-8.5</ele><time>2026-04-30T09:01:51.691Z</time></trkpt><trkpt lat="34.0079037" lon="7.8971494"><ele>-8.666666666666666</ele><time>2026-04-30T09:01:52.669Z</time></trkpt><trkpt lat="34.0079128" lon="7.8972476"><ele>-8.833333333333334</ele><time>2026-04-30T09:01:53.668Z</time></trkpt><trkpt lat="34.0079227" lon="7.8973478"><ele>-9.0</ele><time>2026-04-30T09:01:54.66Z</time></trkpt><trkpt lat="34.0079351" lon="7.89745"><ele>-9.0</ele><time>2026-04-30T09:01:55.663Z</time></trkpt><trkpt lat="34.0079503" lon="7.897554"><ele>-9.0</ele><time>2026-04-30T09:01:56.643Z</time></trkpt><trkpt lat="34.0079652" lon="7.897663"><ele>-9.0</ele><time>2026-04-30T09:01:57.651Z</time></trkpt><trkpt lat="34.0079812" lon="7.8977779"><ele>-9.0</ele><time>2026-04-30T09:01:58.648Z</time></trkpt><trkpt lat="34.0079961" lon="7.8978897"><ele>-9.0</ele><time>2026-04-30T09:01:59.652Z</time></trkpt><trkpt lat="34.0080113" lon="7.898002"><ele>-8.8</ele><time>2026-04-30T09:02:00.651Z</time></trkpt><trkpt lat="34.0080303" lon="7.8981123"><ele>-8.600000000000001</ele><time>2026-04-30T09:02:01.648Z</time></trkpt><trkpt lat="34.0080448" lon="7.898229"><ele>-8.4</ele><time>2026-04-30T09:02:02.655Z</time></trkpt><trkpt lat="34.0080617" lon="7.8983513"><ele>-8.200000000000001</ele><time>2026-04-30T09:02:03.663Z</time></trkpt><trkpt lat="34.0080778" lon="7.8984737"><ele>-8.0</ele><time>2026-04-30T09:02:04.705Z</time></trkpt><trkpt lat="34.0080983" lon="7.8985944"><ele>-7.999999999999999</ele><time>2026-04-30T09:02:05.686Z</time></trkpt><trkpt lat="34.0081258" lon="7.8987087"><ele>-8.0</ele><time>2026-04-30T09:02:06.665Z</time></trkpt><trkpt lat="34.0081538" lon="7.8988154"><ele>-8.0</ele><time>2026-04-30T09:02:07.681Z</time></trkpt><trkpt lat="34.008188" lon="7.8989052"><ele>-8.0</ele><time>2026-04-30T09:02:08.701Z</time></trkpt><trkpt lat="34.0082218" lon="7.8989952"><ele>-7.999999999999999</ele><time>2026-04-30T09:02:09.711Z</time></trkpt><trkpt lat="34.0082476" lon="7.8990879"><ele>-8.0</ele><time>2026-04-30T09:02:10.713Z</time></trkpt><trkpt lat="34.0082845" lon="7.8991744"><ele>-8.333333333333332</ele><time>2026-04-30T09:02:11.697Z</time></trkpt><trkpt lat="34.0083178" lon="7.8992571"><ele>-8.666666666666666</ele><time>2026-04-30T09:02:12.702Z</time></trkpt><trkpt lat="34.0083476" lon="7.8993481"><ele>-9.0</ele><time>2026-04-30T09:02:13.709Z</time></trkpt><trkpt lat="34.0083722" lon="7.8994523"><ele>-9.333333333333334</ele><time>2026-04-30T09:02:14.694Z</time></trkpt><trkpt lat="34.0083882" lon="7.8995629"><ele>-9.666666666666668</ele><time>2026-04-30T09:02:15.677Z</time></trkpt><trkpt lat="34.0084106" lon="7.8996776"><ele>-10.0</ele><time>2026-04-30T09:02:16.67Z</time></trkpt><trkpt lat="34.0084354" lon="7.8997945"><ele>-10.0</ele><time>2026-04-30T09:02:17.688Z</time></trkpt><trkpt lat="34.008458" lon="7.8999142"><ele>-10.0</ele><time>2026-04-30T09:02:18.709Z</time></trkpt><trkpt lat="34.0084792" lon="7.9000338"><ele>-10.0</ele><time>2026-04-30T09:02:19.685Z</time></trkpt><trkpt lat="34.008499" lon="7.900164"><ele>-10.0</ele><time>2026-04-30T09:02:20.712Z</time></trkpt><trkpt lat="34.0085211" lon="7.9002875"><ele>-10.0</ele><time>2026-04-30T09:02:21.701Z</time></trkpt><trkpt lat="34.0085381" lon="7.9004118"><ele>-10.0</ele><time>2026-04-30T09:02:22.682Z</time></trkpt><trkpt lat="34.0085609" lon="7.9005379"><ele>-10.0</ele><time>2026-04-30T09:02:23.681Z</time></trkpt><trkpt lat="34.008582" lon="7.9006642"><ele>-10.0</ele><time>2026-04-30T09:02:24.703Z</time></trkpt><trkpt lat="34.0086022" lon="7.900788"><ele>-10.0</ele><time>2026-04-30T09:02:25.707Z</time></trkpt><trkpt lat="34.0086227" lon="7.9009156"><ele>-10.0</ele><time>2026-04-30T09:02:26.691Z</time></trkpt><trkpt lat="34.0086429" lon="7.901046"><ele>-9.8</ele><time>2026-04-30T09:02:27.701Z</time></trkpt><trkpt lat="34.0086596" lon="7.9011736"><ele>-9.6</ele><time>2026-04-30T09:02:28.704Z</time></trkpt><trkpt lat="34.0086788" lon="7.901305"><ele>-9.4</ele><time>2026-04-30T09:02:29.705Z</time></trkpt><trkpt lat="34.0087005" lon="7.9014388"><ele>-9.2</ele><time>2026-04-30T09:02:30.709Z</time></trkpt><trkpt lat="34.0087231" lon="7.9015733"><ele>-9.0</ele><time>2026-04-30T09:02:31.702Z</time></trkpt><trkpt lat="34.0087463" lon="7.9017027"><ele>-8.8</ele><time>2026-04-30T09:02:32.691Z</time></trkpt><trkpt lat="34.0087643" lon="7.9018314"><ele>-8.600000000000001</ele><time>2026-04-30T09:02:33.696Z</time></trkpt><trkpt lat="34.0087892" lon="7.9019604"><ele>-8.4</ele><time>2026-04-30T09:02:34.698Z</time></trkpt><trkpt lat="34.0088153" lon="7.9020936"><ele>-8.200000000000001</ele><time>2026-04-30T09:02:35.7Z</time></trkpt><trkpt lat="34.0088357" lon="7.9022246"><ele>-8.0</ele><time>2026-04-30T09:02:36.666Z</time></trkpt><trkpt lat="34.0088552" lon="7.9023551"><ele>-8.0</ele><time>2026-04-30T09:02:37.66Z</time></trkpt><trkpt lat="34.0088744" lon="7.9024808"><ele>-8.0</ele><time>2026-04-30T09:02:38.709Z</time></trkpt><trkpt lat="34.0088961" lon="7.9026121"><ele>-8.0</ele><time>2026-04-30T09:02:39.672Z</time></trkpt><trkpt lat="34.008916" lon="7.9027443"><ele>-8.0</ele><time>2026-04-30T09:02:40.666Z</time></trkpt><trkpt lat="34.0089308" lon="7.9028802"><ele>-8.0</ele><time>2026-04-30T09:02:41.745Z</time></trkpt><trkpt lat="34.0089505" lon="7.9030151"><ele>-8.0</ele><time>2026-04-30T09:02:42.706Z</time></trkpt><trkpt lat="34.0089685" lon="7.903153"><ele>-8.0</ele><time>2026-04-30T09:02:43.691Z</time></trkpt><trkpt lat="34.0089883" lon="7.9032862"><ele>-8.0</ele><time>2026-04-30T09:02:44.714Z</time></trkpt><trkpt lat="34.0090092" lon="7.903421"><ele>-8.0</ele><time>2026-04-30T09:02:45.674Z</time></trkpt><trkpt lat="34.009032" lon="7.9035546"><ele>-8.0</ele><time>2026-04-30T09:02:46.654Z</time></trkpt><trkpt lat="34.0090526" lon="7.9036925"><ele>-8.0</ele><time>2026-04-30T09:02:47.685Z</time></trkpt><trkpt lat="34.0090713" lon="7.9038263"><ele>-8.0</ele><time>2026-04-30T09:02:48.665Z</time></trkpt><trkpt lat="34.0090928" lon="7.9039583"><ele>-8.0</ele><time>2026-04-30T09:02:49.69Z</time></trkpt><trkpt lat="34.0091158" lon="7.9040868"><ele>-8.0</ele><time>2026-04-30T09:02:50.659Z</time></trkpt><trkpt lat="34.0091365" lon="7.9042141"><ele>-8.0</ele><time>2026-04-30T09:02:51.699Z</time></trkpt><trkpt lat="34.0091575" lon="7.9043445"><ele>-8.0</ele><time>2026-04-30T09:02:52.681Z</time></trkpt><trkpt lat="34.0091753" lon="7.9044755"><ele>-8.0</ele><time>2026-04-30T09:02:53.704Z</time></trkpt><trkpt lat="34.0091961" lon="7.9046077"><ele>-8.0</ele><time>2026-04-30T09:02:54.705Z</time></trkpt><trkpt lat="34.0092165" lon="7.9047399"><ele>-8.0</ele><time>2026-04-30T09:02:55.649Z</time></trkpt><trkpt lat="34.0092359" lon="7.9048773"><ele>-8.0</ele><time>2026-04-30T09:02:56.703Z</time></trkpt><trkpt lat="34.0092531" lon="7.9050119"><ele>-8.0</ele><time>2026-04-30T09:02:57.688Z</time></trkpt><trkpt lat="34.0092749" lon="7.9051464"><ele>-8.0</ele><time>2026-04-30T09:02:58.71Z</time></trkpt><trkpt lat="34.0092961" lon="7.9052739"><ele>-8.0</ele><time>2026-04-30T09:02:59.696Z</time></trkpt><trkpt lat="34.0093227" lon="7.905404"><ele>-8.0</ele><time>2026-04-30T09:03:00.672Z</time></trkpt><trkpt lat="34.009344" lon="7.9055367"><ele>-8.0</ele><time>2026-04-30T09:03:01.705Z</time></trkpt><trkpt lat="34.0093637" lon="7.9056726"><ele>-8.0</ele><time>2026-04-30T09:03:02.665Z</time></trkpt><trkpt lat="34.0093804" lon="7.9058008"><ele>-8.0</ele><time>2026-04-30T09:03:03.673Z</time></trkpt><trkpt lat="34.0093962" lon="7.9059404"><ele>-8.0</ele><time>2026-04-30T09:03:04.68Z</time></trkpt><trkpt lat="34.0094153" lon="7.9060785"><ele>-8.5</ele><time>2026-04-30T09:03:05.666Z</time></trkpt><trkpt lat="34.0094373" lon="7.9062128"><ele>-9.0</ele><time>2026-04-30T09:03:06.684Z</time></trkpt><trkpt lat="34.0094549" lon="7.9063466"><ele>-9.5</ele><time>2026-04-30T09:03:07.654Z</time></trkpt><trkpt lat="34.0094747" lon="7.9064813"><ele>-10.0</ele><time>2026-04-30T09:03:08.656Z</time></trkpt><trkpt lat="34.0094948" lon="7.9066133"><ele>-10.0</ele><time>2026-04-30T09:03:09.666Z</time></trkpt><trkpt lat="34.0095091" lon="7.9067425"><ele>-10.0</ele><time>2026-04-30T09:03:10.658Z</time></trkpt><trkpt lat="34.0095232" lon="7.9068692"><ele>-10.0</ele><time>2026-04-30T09:03:11.646Z</time></trkpt><trkpt lat="34.00954" lon="7.9069984"><ele>-10.0</ele><time>2026-04-30T09:03:12.659Z</time></trkpt><trkpt lat="34.0095626" lon="7.9071312"><ele>-10.0</ele><time>2026-04-30T09:03:13.666Z</time></trkpt><trkpt lat="34.0095848" lon="7.9072672"><ele>-9.75</ele><time>2026-04-30T09:03:14.651Z</time></trkpt><trkpt lat="34.0096018" lon="7.9074053"><ele>-9.5</ele><time>2026-04-30T09:03:15.653Z</time></trkpt><trkpt lat="34.0096214" lon="7.9075468"><ele>-9.25</ele><time>2026-04-30T09:03:16.657Z</time></trkpt><trkpt lat="34.0096417" lon="7.9076912"><ele>-9.0</ele><time>2026-04-30T09:03:17.65Z</time></trkpt><trkpt lat="34.009662" lon="7.9078311"><ele>-8.75</ele><time>2026-04-30T09:03:18.657Z</time></trkpt><trkpt lat="34.0096777" lon="7.9079712"><ele>-8.5</ele><time>2026-04-30T09:03:19.652Z</time></trkpt><trkpt lat="34.0097022" lon="7.9081099"><ele>-8.25</ele><time>2026-04-30T09:03:20.662Z</time></trkpt><trkpt lat="34.0097201" lon="7.9082463"><ele>-8.0</ele><time>2026-04-30T09:03:21.667Z</time></trkpt><trkpt lat="34.0097388" lon="7.9083876"><ele>-8.0</ele><time>2026-04-30T09:03:22.657Z</time></trkpt><trkpt lat="34.0097572" lon="7.9085313"><ele>-8.0</ele><time>2026-04-30T09:03:23.655Z</time></trkpt><trkpt lat="34.0097709" lon="7.9086738"><ele>-8.0</ele><time>2026-04-30T09:03:24.657Z</time></trkpt><trkpt lat="34.0097891" lon="7.9088171"><ele>-8.0</ele><time>2026-04-30T09:03:25.65Z</time></trkpt><trkpt lat="34.0098076" lon="7.9089612"><ele>-8.0</ele><time>2026-04-30T09:03:26.663Z</time></trkpt><trkpt lat="34.0098286" lon="7.9091077"><ele>-8.0</ele><time>2026-04-30T09:03:27.654Z</time></trkpt><trkpt lat="34.0098497" lon="7.9092541"><ele>-8.0</ele><time>2026-04-30T09:03:28.657Z</time></trkpt><trkpt lat="34.0098698" lon="7.9093954"><ele>-8.0</ele><time>2026-04-30T09:03:29.655Z</time></trkpt><trkpt lat="34.00989" lon="7.9095369"><ele>-8.25</ele><time>2026-04-30T09:03:30.679Z</time></trkpt><trkpt lat="34.0099118" lon="7.9096761"><ele>-8.5</ele><time>2026-04-30T09:03:31.669Z</time></trkpt><trkpt lat="34.0099293" lon="7.9098159"><ele>-8.75</ele><time>2026-04-30T09:03:32.657Z</time></trkpt><trkpt lat="34.0099446" lon="7.9099619"><ele>-9.0</ele><time>2026-04-30T09:03:33.658Z</time></trkpt><trkpt lat="34.0099623" lon="7.9101112"><ele>-9.0</ele><time>2026-04-30T09:03:34.655Z</time></trkpt><trkpt lat="34.0099799" lon="7.9102537"><ele>-9.0</ele><time>2026-04-30T09:03:35.661Z</time></trkpt><trkpt lat="34.0100002" lon="7.9103938"><ele>-9.0</ele><time>2026-04-30T09:03:36.665Z</time></trkpt><trkpt lat="34.0100121" lon="7.9105393"><ele>-9.0</ele><time>2026-04-30T09:03:37.659Z</time></trkpt><trkpt lat="34.0100221" lon="7.9106823"><ele>-9.0</ele><time>2026-04-30T09:03:38.658Z</time></trkpt><trkpt lat="34.0100318" lon="7.9108291"><ele>-9.0</ele><time>2026-04-30T09:03:39.657Z</time></trkpt><trkpt lat="34.0100496" lon="7.9109766"><ele>-9.0</ele><time>2026-04-30T09:03:40.661Z</time></trkpt><trkpt lat="34.0100771" lon="7.9111241"><ele>-9.0</ele><time>2026-04-30T09:03:41.66Z</time></trkpt><trkpt lat="34.0100991" lon="7.9112741"><ele>-9.0</ele><time>2026-04-30T09:03:42.661Z</time></trkpt><trkpt lat="34.0101195" lon="7.9114241"><ele>-9.0</ele><time>2026-04-30T09:03:43.65Z</time></trkpt><trkpt lat="34.0101407" lon="7.9115752"><ele>-9.0</ele><time>2026-04-30T09:03:44.665Z</time></trkpt><trkpt lat="34.010164" lon="7.9117192"><ele>-9.0</ele><time>2026-04-30T09:03:45.68Z</time></trkpt><trkpt lat="34.0101817" lon="7.9118644"><ele>-9.25</ele><time>2026-04-30T09:03:46.652Z</time></trkpt><trkpt lat="34.0102008" lon="7.9120088"><ele>-9.5</ele><time>2026-04-30T09:03:47.655Z</time></trkpt><trkpt lat="34.0102163" lon="7.9121511"><ele>-9.75</ele><time>2026-04-30T09:03:48.653Z</time></trkpt><trkpt lat="34.0102348" lon="7.9122939"><ele>-10.0</ele><time>2026-04-30T09:03:49.656Z</time></trkpt><trkpt lat="34.0102473" lon="7.9124439"><ele>-10.0</ele><time>2026-04-30T09:03:50.66Z</time></trkpt><trkpt lat="34.0102609" lon="7.9125862"><ele>-10.0</ele><time>2026-04-30T09:03:51.641Z</time></trkpt><trkpt lat="34.0102744" lon="7.9127251"><ele>-10.0</ele><time>2026-04-30T09:03:52.656Z</time></trkpt><trkpt lat="34.0102902" lon="7.9128614"><ele>-10.0</ele><time>2026-04-30T09:03:53.657Z</time></trkpt><trkpt lat="34.0103107" lon="7.9129958"><ele>-10.0</ele><time>2026-04-30T09:03:54.661Z</time></trkpt><trkpt lat="34.0103296" lon="7.9131288"><ele>-10.0</ele><time>2026-04-30T09:03:55.651Z</time></trkpt><trkpt lat="34.0103517" lon="7.9132603"><ele>-10.0</ele><time>2026-04-30T09:03:56.672Z</time></trkpt><trkpt lat="34.0103765" lon="7.9133919"><ele>-10.0</ele><time>2026-04-30T09:03:57.65Z</time></trkpt><trkpt lat="34.0103966" lon="7.9135279"><ele>-10.0</ele><time>2026-04-30T09:03:58.656Z</time></trkpt><trkpt lat="34.010417" lon="7.9136654"><ele>-9.5</ele><time>2026-04-30T09:03:59.657Z</time></trkpt><trkpt lat="34.0104425" lon="7.9137971"><ele>-9.0</ele><time>2026-04-30T09:04:00.651Z</time></trkpt><trkpt lat="34.0104694" lon="7.9139267"><ele>-8.5</ele><time>2026-04-30T09:04:01.658Z</time></trkpt><trkpt lat="34.0104945" lon="7.9140609"><ele>-8.0</ele><time>2026-04-30T09:04:02.656Z</time></trkpt><trkpt lat="34.0105147" lon="7.9141959"><ele>-7.6000000000000005</ele><time>2026-04-30T09:04:03.654Z</time></trkpt><trkpt lat="34.010538" lon="7.9143265"><ele>-7.200000000000001</ele><time>2026-04-30T09:04:04.653Z</time></trkpt><trkpt lat="34.0105574" lon="7.9144547"><ele>-6.8</ele><time>2026-04-30T09:04:05.676Z</time></trkpt><trkpt lat="34.0105822" lon="7.914585"><ele>-6.4</ele><time>2026-04-30T09:04:06.693Z</time></trkpt><trkpt lat="34.0106093" lon="7.9147094"><ele>-6.0</ele><time>2026-04-30T09:04:07.655Z</time></trkpt><trkpt lat="34.0106291" lon="7.9148334"><ele>-6.0</ele><time>2026-04-30T09:04:08.661Z</time></trkpt><trkpt lat="34.0106526" lon="7.9149589"><ele>-6.0</ele><time>2026-04-30T09:04:09.664Z</time></trkpt><trkpt lat="34.0106764" lon="7.9150832"><ele>-6.0</ele><time>2026-04-30T09:04:10.658Z</time></trkpt><trkpt lat="34.0106993" lon="7.915215"><ele>-6.0</ele><time>2026-04-30T09:04:11.661Z</time></trkpt><trkpt lat="34.0107206" lon="7.915336"><ele>-6.0</ele><time>2026-04-30T09:04:12.65Z</time></trkpt><trkpt lat="34.0107478" lon="7.9154553"><ele>-6.0</ele><time>2026-04-30T09:04:13.654Z</time></trkpt><trkpt lat="34.010767" lon="7.9155715"><ele>-6.0</ele><time>2026-04-30T09:04:14.661Z</time></trkpt><trkpt lat="34.0107856" lon="7.9156883"><ele>-6.0</ele><time>2026-04-30T09:04:15.655Z</time></trkpt><trkpt lat="34.0108046" lon="7.9157943"><ele>-6.0</ele><time>2026-04-30T09:04:16.653Z</time></trkpt><trkpt lat="34.0108195" lon="7.9158957"><ele>-6.0</ele><time>2026-04-30T09:04:17.649Z</time></trkpt><trkpt lat="34.0108336" lon="7.9159883"><ele>-6.333333333333333</ele><time>2026-04-30T09:04:18.656Z</time></trkpt><trkpt lat="34.0108457" lon="7.9160745"><ele>-6.666666666666666</ele><time>2026-04-30T09:04:19.658Z</time></trkpt><trkpt lat="34.0108523" lon="7.916161"><ele>-7.0</ele><time>2026-04-30T09:04:20.658Z</time></trkpt><trkpt lat="34.0108644" lon="7.9162414"><ele>-7.333333333333333</ele><time>2026-04-30T09:04:21.658Z</time></trkpt><trkpt lat="34.0108722" lon="7.9163176"><ele>-7.666666666666666</ele><time>2026-04-30T09:04:22.66Z</time></trkpt><trkpt lat="34.0108956" lon="7.916461"><ele>-8.0</ele><time>2026-04-30T09:04:24.656Z</time></trkpt><trkpt lat="34.0109209" lon="7.9165947"><ele>-8.0</ele><time>2026-04-30T09:04:26.677Z</time></trkpt><trkpt lat="34.0109419" lon="7.9167355"><ele>-8.0</ele><time>2026-04-30T09:04:28.653Z</time></trkpt><trkpt lat="34.0109616" lon="7.9168601"><ele>-8.0</ele><time>2026-04-30T09:04:30.649Z</time></trkpt><trkpt lat="34.0109801" lon="7.9169743"><ele>-8.0</ele><time>2026-04-30T09:04:32.665Z</time></trkpt><trkpt lat="34.0110056" lon="7.9170518"><ele>-8.0</ele><time>2026-04-30T09:04:34.655Z</time></trkpt><trkpt lat="34.0110663" lon="7.9170793"><ele>-8.166666666666666</ele><time>2026-04-30T09:04:38.65Z</time></trkpt><trkpt lat="34.0111435" lon="7.9170658"><ele>-8.333333333333332</ele><time>2026-04-30T09:05:01.665Z</time></trkpt><trkpt lat="34.0112587" lon="7.9170354"><ele>-8.5</ele><time>2026-04-30T09:05:03.671Z</time></trkpt><trkpt lat="34.0113284" lon="7.9170223"><ele>-8.666666666666666</ele><time>2026-04-30T09:05:04.682Z</time></trkpt><trkpt lat="34.0114124" lon="7.9170118"><ele>-8.833333333333334</ele><time>2026-04-30T09:05:05.665Z</time></trkpt><trkpt lat="34.0114987" lon="7.9169932"><ele>-9.0</ele><time>2026-04-30T09:05:06.663Z</time></trkpt><trkpt lat="34.0115804" lon="7.9169781"><ele>-9.166666666666666</ele><time>2026-04-30T09:05:07.658Z</time></trkpt><trkpt lat="34.0116613" lon="7.9169498"><ele>-9.333333333333334</ele><time>2026-04-30T09:05:08.658Z</time></trkpt><trkpt lat="34.011744" lon="7.9169246"><ele>-9.5</ele><time>2026-04-30T09:05:09.668Z</time></trkpt><trkpt lat="34.0118233" lon="7.9169121"><ele>-9.666666666666668</ele><time>2026-04-30T09:05:10.659Z</time></trkpt><trkpt lat="34.0119065" lon="7.9169007"><ele>-9.833333333333334</ele><time>2026-04-30T09:05:11.662Z</time></trkpt><trkpt lat="34.0119873" lon="7.9168793"><ele>-10.0</ele><time>2026-04-30T09:05:12.664Z</time></trkpt><trkpt lat="34.0120644" lon="7.9168634"><ele>-10.0</ele><time>2026-04-30T09:05:13.657Z</time></trkpt><trkpt lat="34.0121393" lon="7.9168479"><ele>-10.0</ele><time>2026-04-30T09:05:14.659Z</time></trkpt><trkpt lat="34.0122205" lon="7.9168207"><ele>-10.0</ele><time>2026-04-30T09:05:15.661Z</time></trkpt><trkpt lat="34.0122985" lon="7.9168013"><ele>-10.0</ele><time>2026-04-30T09:05:16.654Z</time></trkpt><trkpt lat="34.0123709" lon="7.9167753"><ele>-10.0</ele><time>2026-04-30T09:05:17.672Z</time></trkpt><trkpt lat="34.0124368" lon="7.916749"><ele>-10.0</ele><time>2026-04-30T09:05:18.669Z</time></trkpt><trkpt lat="34.0125003" lon="7.9167189"><ele>-10.5</ele><time>2026-04-30T09:05:19.658Z</time></trkpt><trkpt lat="34.0125725" lon="7.9166999"><ele>-11.0</ele><time>2026-04-30T09:05:20.667Z</time></trkpt><trkpt lat="34.0126424" lon="7.9166951"><ele>-11.5</ele><time>2026-04-30T09:05:21.655Z</time></trkpt><trkpt lat="34.0127655" lon="7.9167147"><ele>-12.0</ele><time>2026-04-30T09:05:23.66Z</time></trkpt><trkpt lat="34.0128314" lon="7.9167298"><ele>-12.499999999999998</ele><time>2026-04-30T09:05:24.661Z</time></trkpt><trkpt lat="34.0129021" lon="7.9167332"><ele>-13.0</ele><time>2026-04-30T09:05:25.66Z</time></trkpt><trkpt lat="34.0129781" lon="7.9167221"><ele>-12.999999999999998</ele><time>2026-04-30T09:05:26.662Z</time></trkpt><trkpt lat="34.0130531" lon="7.9167056"><ele>-13.0</ele><time>2026-04-30T09:05:27.655Z</time></trkpt><trkpt lat="34.013132" lon="7.9166835"><ele>-13.0</ele><time>2026-04-30T09:05:28.662Z</time></trkpt><trkpt lat="34.0132095" lon="7.916669"><ele>-13.0</ele><time>2026-04-30T09:05:29.666Z</time></trkpt><trkpt lat="34.013287" lon="7.9166613"><ele>-12.999999999999998</ele><time>2026-04-30T09:05:30.681Z</time></trkpt><trkpt lat="34.0133544" lon="7.9166616"><ele>-13.0</ele><time>2026-04-30T09:05:31.654Z</time></trkpt><trkpt lat="34.0134264" lon="7.9166713"><ele>-12.833333333333332</ele><time>2026-04-30T09:05:32.673Z</time></trkpt><trkpt lat="34.0135021" lon="7.9166797"><ele>-12.666666666666666</ele><time>2026-04-30T09:05:33.662Z</time></trkpt><trkpt lat="34.0135857" lon="7.9166762"><ele>-12.5</ele><time>2026-04-30T09:05:34.659Z</time></trkpt><trkpt lat="34.01367" lon="7.916678"><ele>-12.333333333333332</ele><time>2026-04-30T09:05:35.658Z</time></trkpt><trkpt lat="34.0137525" lon="7.9166662"><ele>-12.166666666666666</ele><time>2026-04-30T09:05:36.65Z</time></trkpt><trkpt lat="34.0138272" lon="7.9166536"><ele>-12.0</ele><time>2026-04-30T09:05:37.656Z</time></trkpt><trkpt lat="34.0139094" lon="7.9166396"><ele>-12.0</ele><time>2026-04-30T09:05:38.662Z</time></trkpt><trkpt lat="34.0139862" lon="7.9166246"><ele>-12.0</ele><time>2026-04-30T09:05:39.656Z</time></trkpt><trkpt lat="34.0140718" lon="7.9166202"><ele>-12.0</ele><time>2026-04-30T09:05:40.651Z</time></trkpt><trkpt lat="34.0141574" lon="7.9166199"><ele>-12.0</ele><time>2026-04-30T09:05:41.661Z</time></trkpt><trkpt lat="34.0142356" lon="7.9166189"><ele>-12.0</ele><time>2026-04-30T09:05:42.661Z</time></trkpt><trkpt lat="34.0143084" lon="7.9166152"><ele>-12.0</ele><time>2026-04-30T09:05:43.659Z</time></trkpt><trkpt lat="34.0143765" lon="7.9166056"><ele>-11.666666666666666</ele><time>2026-04-30T09:05:44.655Z</time></trkpt><trkpt lat="34.0144822" lon="7.9165683"><ele>-11.333333333333334</ele><time>2026-04-30T09:05:46.66Z</time></trkpt><trkpt lat="34.0145351" lon="7.9165193"><ele>-11.0</ele><time>2026-04-30T09:05:48.65Z</time></trkpt><trkpt lat="34.014551" lon="7.916427"><ele>-10.666666666666668</ele><time>2026-04-30T09:05:51.679Z</time></trkpt><trkpt lat="34.0145642" lon="7.9163366"><ele>-10.333333333333334</ele><time>2026-04-30T09:05:54.654Z</time></trkpt><trkpt lat="34.0145661" lon="7.9162385"><ele>-10.0</ele><time>2026-04-30T09:06:12.649Z</time></trkpt><trkpt lat="34.0145777" lon="7.9161619"><ele>-10.0</ele><time>2026-04-30T09:06:14.664Z</time></trkpt><trkpt lat="34.0145914" lon="7.916048"><ele>-10.0</ele><time>2026-04-30T09:06:16.662Z</time></trkpt><trkpt lat="34.0146234" lon="7.915929"><ele>-10.0</ele><time>2026-04-30T09:06:18.685Z</time></trkpt><trkpt lat="34.0146816" lon="7.9158055"><ele>-10.0</ele><time>2026-04-30T09:06:20.648Z</time></trkpt><trkpt lat="34.014773" lon="7.9157105"><ele>-10.0</ele><time>2026-04-30T09:06:22.663Z</time></trkpt><trkpt lat="34.0148435" lon="7.9156777"><ele>-10.0</ele><time>2026-04-30T09:06:23.667Z</time></trkpt><trkpt lat="34.0149276" lon="7.915678"><ele>-10.0</ele><time>2026-04-30T09:06:24.658Z</time></trkpt><trkpt lat="34.0150183" lon="7.9157053"><ele>-10.0</ele><time>2026-04-30T09:06:25.665Z</time></trkpt><trkpt lat="34.0151027" lon="7.9157456"><ele>-10.0</ele><time>2026-04-30T09:06:26.66Z</time></trkpt><trkpt lat="34.0151764" lon="7.9157979"><ele>-10.0</ele><time>2026-04-30T09:06:27.66Z</time></trkpt><trkpt lat="34.0152452" lon="7.9158576"><ele>-10.0</ele><time>2026-04-30T09:06:28.667Z</time></trkpt><trkpt lat="34.0153113" lon="7.9158952"><ele>-10.0</ele><time>2026-04-30T09:06:29.659Z</time></trkpt><trkpt lat="34.0153757" lon="7.9159199"><ele>-10.0</ele><time>2026-04-30T09:06:30.657Z</time></trkpt><trkpt lat="34.0154423" lon="7.9159374"><ele>-10.0</ele><time>2026-04-30T09:06:31.657Z</time></trkpt><trkpt lat="34.0155068" lon="7.9159353"><ele>-10.0</ele><time>2026-04-30T09:06:32.667Z</time></trkpt><trkpt lat="34.0156225" lon="7.9158968"><ele>-10.0</ele><time>2026-04-30T09:06:34.652Z</time></trkpt><trkpt lat="34.0157159" lon="7.9158114"><ele>-10.0</ele><time>2026-04-30T09:06:36.664Z</time></trkpt><trkpt lat="34.0157535" lon="7.9157445"><ele>-10.0</ele><time>2026-04-30T09:06:37.661Z</time></trkpt><trkpt lat="34.0157738" lon="7.9156684"><ele>-10.0</ele><time>2026-04-30T09:06:38.66Z</time></trkpt><trkpt lat="34.0157922" lon="7.9155834"><ele>-10.0</ele><time>2026-04-30T09:06:39.662Z</time></trkpt><trkpt lat="34.0158051" lon="7.9154858"><ele>-10.0</ele><time>2026-04-30T09:06:40.667Z</time></trkpt><trkpt lat="34.0158228" lon="7.9153716"><ele>-10.0</ele><time>2026-04-30T09:06:41.672Z</time></trkpt><trkpt lat="34.0158345" lon="7.9152478"><ele>-10.0</ele><time>2026-04-30T09:06:42.681Z</time></trkpt><trkpt lat="34.0158382" lon="7.9151223"><ele>-11.8</ele><time>2026-04-30T09:06:43.657Z</time></trkpt><trkpt lat="34.0158487" lon="7.9150018"><ele>-13.6</ele><time>2026-04-30T09:06:44.66Z</time></trkpt><trkpt lat="34.0158606" lon="7.9148784"><ele>-15.399999999999999</ele><time>2026-04-30T09:06:45.657Z</time></trkpt><trkpt lat="34.0158748" lon="7.91475"><ele>-17.2</ele><time>2026-04-30T09:06:46.653Z</time></trkpt><trkpt lat="34.015893" lon="7.9146254"><ele>-19.0</ele><time>2026-04-30T09:06:47.653Z</time></trkpt><trkpt lat="34.0159116" lon="7.9145048"><ele>-19.0</ele><time>2026-04-30T09:06:48.655Z</time></trkpt><trkpt lat="34.0159349" lon="7.9143866"><ele>-19.0</ele><time>2026-04-30T09:06:49.67Z</time></trkpt><trkpt lat="34.0159508" lon="7.9142689"><ele>-19.0</ele><time>2026-04-30T09:06:50.663Z</time></trkpt><trkpt lat="34.0159726" lon="7.9141507"><ele>-19.0</ele><time>2026-04-30T09:06:51.663Z</time></trkpt><trkpt lat="34.0159986" lon="7.9140427"><ele>-19.0</ele><time>2026-04-30T09:06:52.66Z</time></trkpt><trkpt lat="34.016023" lon="7.9139336"><ele>-18.599999999999998</ele><time>2026-04-30T09:06:53.66Z</time></trkpt><trkpt lat="34.0160511" lon="7.913821"><ele>-18.2</ele><time>2026-04-30T09:06:54.654Z</time></trkpt><trkpt lat="34.0160746" lon="7.91371"><ele>-17.799999999999997</ele><time>2026-04-30T09:06:55.652Z</time></trkpt><trkpt lat="34.016096" lon="7.9136034"><ele>-17.4</ele><time>2026-04-30T09:06:56.658Z</time></trkpt><trkpt lat="34.0161135" lon="7.9134997"><ele>-17.0</ele><time>2026-04-30T09:06:57.658Z</time></trkpt><trkpt lat="34.016137" lon="7.9133913"><ele>-16.833333333333336</ele><time>2026-04-30T09:06:58.661Z</time></trkpt><trkpt lat="34.0161607" lon="7.9132851"><ele>-16.666666666666668</ele><time>2026-04-30T09:06:59.673Z</time></trkpt><trkpt lat="34.0161884" lon="7.9131848"><ele>-16.5</ele><time>2026-04-30T09:07:00.669Z</time></trkpt><trkpt lat="34.0162113" lon="7.9130837"><ele>-16.333333333333332</ele><time>2026-04-30T09:07:01.662Z</time></trkpt><trkpt lat="34.0162279" lon="7.91298"><ele>-16.166666666666664</ele><time>2026-04-30T09:07:02.659Z</time></trkpt><trkpt lat="34.016238" lon="7.9128849"><ele>-16.0</ele><time>2026-04-30T09:07:03.665Z</time></trkpt><trkpt lat="34.0162547" lon="7.9127859"><ele>-15.999999999999998</ele><time>2026-04-30T09:07:04.654Z</time></trkpt><trkpt lat="34.016266" lon="7.912694"><ele>-16.0</ele><time>2026-04-30T09:07:05.653Z</time></trkpt><trkpt lat="34.0162775" lon="7.9126059"><ele>-16.0</ele><time>2026-04-30T09:07:06.689Z</time></trkpt><trkpt lat="34.0162873" lon="7.9125163"><ele>-16.0</ele><time>2026-04-30T09:07:07.66Z</time></trkpt><trkpt lat="34.0162882" lon="7.9124381"><ele>-15.999999999999998</ele><time>2026-04-30T09:07:08.664Z</time></trkpt><trkpt lat="34.0162794" lon="7.9122969"><ele>-16.0</ele><time>2026-04-30T09:07:10.662Z</time></trkpt><trkpt lat="34.0162552" lon="7.9121682"><ele>-15.8</ele><time>2026-04-30T09:07:12.665Z</time></trkpt><trkpt lat="34.0162325" lon="7.9120509"><ele>-15.600000000000001</ele><time>2026-04-30T09:07:14.665Z</time></trkpt><trkpt lat="34.0162171" lon="7.9119382"><ele>-15.4</ele><time>2026-04-30T09:07:16.657Z</time></trkpt><trkpt lat="34.0162059" lon="7.911827"><ele>-15.2</ele><time>2026-04-30T09:07:18.684Z</time></trkpt><trkpt lat="34.0161975" lon="7.9117115"><ele>-15.0</ele><time>2026-04-30T09:07:20.656Z</time></trkpt><trkpt lat="34.0162095" lon="7.911595"><ele>-15.5</ele><time>2026-04-30T09:07:22.663Z</time></trkpt><trkpt lat="34.0162255" lon="7.911501"><ele>-16.0</ele><time>2026-04-30T09:07:24.655Z</time></trkpt><trkpt lat="34.0162162" lon="7.9114097"><ele>-16.5</ele><time>2026-04-30T09:07:26.652Z</time></trkpt><trkpt lat="34.0161706" lon="7.9113212"><ele>-17.0</ele><time>2026-04-30T09:07:29.66Z</time></trkpt><trkpt lat="34.016105" lon="7.9112996"><ele>-17.5</ele><time>2026-04-30T09:07:31.658Z</time></trkpt><trkpt lat="34.0160314" lon="7.9113015"><ele>-18.0</ele><time>2026-04-30T09:07:33.654Z</time></trkpt><trkpt lat="34.0159652" lon="7.9113171"><ele>-18.0</ele><time>2026-04-30T09:07:35.654Z</time></trkpt><trkpt lat="34.0159067" lon="7.9113474"><ele>-18.0</ele><time>2026-04-30T09:07:37.654Z</time></trkpt><trkpt lat="34.0158381" lon="7.911389"><ele>-18.0</ele><time>2026-04-30T09:07:40.657Z</time></trkpt><trkpt lat="34.0158092" lon="7.911471"><ele>-18.0</ele><time>2026-04-30T09:08:00.673Z</time></trkpt><trkpt lat="34.0158119" lon="7.9115711"><ele>-18.0</ele><time>2026-04-30T09:08:03.645Z</time></trkpt><trkpt lat="34.0158792" lon="7.9116329"><ele>-18.0</ele><time>2026-04-30T09:08:06.654Z</time></trkpt><trkpt lat="34.0159609" lon="7.9116585"><ele>-18.000000000000004</ele><time>2026-04-30T09:08:09.651Z</time></trkpt><trkpt lat="34.0160288" lon="7.9116537"><ele>-18.0</ele><time>2026-04-30T09:08:13.659Z</time></trkpt><trkpt lat="34.0161048" lon="7.911663"><ele>-18.0</ele><time>2026-04-30T09:08:17.699Z</time></trkpt><trkpt lat="34.0161455" lon="7.911723"><ele>-18.0</ele><time>2026-04-30T09:09:36.65Z</time></trkpt><trkpt lat="34.0161954" lon="7.9118181"><ele>-18.0</ele><time>2026-04-30T09:09:40.654Z</time></trkpt><trkpt lat="34.0162262" lon="7.911894"><ele>-18.000000000000004</ele><time>2026-04-30T09:09:42.651Z</time></trkpt><trkpt lat="34.016244" lon="7.9119786"><ele>-18.0</ele><time>2026-04-30T09:09:44.71Z</time></trkpt><trkpt lat="34.016288" lon="7.9120848"><ele>-17.6</ele><time>2026-04-30T09:09:46.658Z</time></trkpt><trkpt lat="34.0163375" lon="7.9122142"><ele>-17.200000000000003</ele><time>2026-04-30T09:09:48.649Z</time></trkpt><trkpt lat="34.0163732" lon="7.9123355"><ele>-16.8</ele><time>2026-04-30T09:09:50.654Z</time></trkpt><trkpt lat="34.0163941" lon="7.9124282"><ele>-16.400000000000002</ele><time>2026-04-30T09:09:52.654Z</time></trkpt><trkpt lat="34.0163912" lon="7.912512"><ele>-16.0</ele><time>2026-04-30T09:09:54.659Z</time></trkpt><trkpt lat="34.0163836" lon="7.9126121"><ele>-16.0</ele><time>2026-04-30T09:09:56.639Z</time></trkpt><trkpt lat="34.0163784" lon="7.9127405"><ele>-16.0</ele><time>2026-04-30T09:09:58.651Z</time></trkpt><trkpt lat="34.0163778" lon="7.9128883"><ele>-16.0</ele><time>2026-04-30T09:10:00.651Z</time></trkpt><trkpt lat="34.0163792" lon="7.9129713"><ele>-16.0</ele><time>2026-04-30T09:10:01.642Z</time></trkpt><trkpt lat="34.0163779" lon="7.9130536"><ele>-16.0</ele><time>2026-04-30T09:10:02.639Z</time></trkpt><trkpt lat="34.0163703" lon="7.9132094"><ele>-15.999999999999998</ele><time>2026-04-30T09:10:04.664Z</time></trkpt><trkpt lat="34.0163688" lon="7.9132988"><ele>-16.0</ele><time>2026-04-30T09:10:05.652Z</time></trkpt><trkpt lat="34.0163678" lon="7.9133876"><ele>-16.0</ele><time>2026-04-30T09:10:06.66Z</time></trkpt><trkpt lat="34.0163633" lon="7.9134816"><ele>-16.0</ele><time>2026-04-30T09:10:07.661Z</time></trkpt><trkpt lat="34.0163557" lon="7.9135772"><ele>-15.999999999999998</ele><time>2026-04-30T09:10:08.649Z</time></trkpt><trkpt lat="34.0163485" lon="7.9136741"><ele>-16.0</ele><time>2026-04-30T09:10:09.645Z</time></trkpt><trkpt lat="34.0163431" lon="7.9137663"><ele>-16.166666666666664</ele><time>2026-04-30T09:10:10.685Z</time></trkpt><trkpt lat="34.0163349" lon="7.913857"><ele>-16.333333333333332</ele><time>2026-04-30T09:10:11.68Z</time></trkpt><trkpt lat="34.0163193" lon="7.9139501"><ele>-16.5</ele><time>2026-04-30T09:10:12.65Z</time></trkpt><trkpt lat="34.0163059" lon="7.9140438"><ele>-16.666666666666668</ele><time>2026-04-30T09:10:13.659Z</time></trkpt><trkpt lat="34.0162934" lon="7.9141428"><ele>-16.833333333333336</ele><time>2026-04-30T09:10:14.661Z</time></trkpt><trkpt lat="34.0162761" lon="7.9142361"><ele>-17.0</ele><time>2026-04-30T09:10:15.658Z</time></trkpt><trkpt lat="34.0162596" lon="7.914334"><ele>-17.333333333333336</ele><time>2026-04-30T09:10:16.657Z</time></trkpt><trkpt lat="34.0162465" lon="7.9144341"><ele>-17.666666666666668</ele><time>2026-04-30T09:10:17.66Z</time></trkpt><trkpt lat="34.0162357" lon="7.9145291"><ele>-18.0</ele><time>2026-04-30T09:10:18.648Z</time></trkpt><trkpt lat="34.0162248" lon="7.9146179"><ele>-18.333333333333332</ele><time>2026-04-30T09:10:19.659Z</time></trkpt><trkpt lat="34.0162137" lon="7.9147097"><ele>-18.666666666666664</ele><time>2026-04-30T09:10:20.654Z</time></trkpt><trkpt lat="34.0161994" lon="7.914802"><ele>-19.0</ele><time>2026-04-30T09:10:21.656Z</time></trkpt><trkpt lat="34.0161766" lon="7.9148836"><ele>-19.0</ele><time>2026-04-30T09:10:22.648Z</time></trkpt><trkpt lat="34.0161577" lon="7.9149566"><ele>-19.0</ele><time>2026-04-30T09:10:23.657Z</time></trkpt><trkpt lat="34.0161316" lon="7.9150329"><ele>-19.0</ele><time>2026-04-30T09:10:24.65Z</time></trkpt><trkpt lat="34.0161069" lon="7.9151063"><ele>-19.0</ele><time>2026-04-30T09:10:25.651Z</time></trkpt><trkpt lat="34.01608" lon="7.9151792"><ele>-19.0</ele><time>2026-04-30T09:10:26.664Z</time></trkpt><trkpt lat="34.0160482" lon="7.9152571"><ele>-19.0</ele><time>2026-04-30T09:10:27.676Z</time></trkpt><trkpt lat="34.0160124" lon="7.9153269"><ele>-19.0</ele><time>2026-04-30T09:10:28.671Z</time></trkpt><trkpt lat="34.015974" lon="7.9153989"><ele>-19.2</ele><time>2026-04-30T09:10:29.658Z</time></trkpt><trkpt lat="34.0159325" lon="7.9154663"><ele>-19.4</ele><time>2026-04-30T09:10:30.648Z</time></trkpt><trkpt lat="34.0158611" lon="7.9155698"><ele>-19.6</ele><time>2026-04-30T09:10:32.654Z</time></trkpt><trkpt lat="34.0157919" lon="7.9156783"><ele>-19.8</ele><time>2026-04-30T09:10:34.65Z</time></trkpt><trkpt lat="34.0157329" lon="7.915771"><ele>-20.0</ele><time>2026-04-30T09:10:36.645Z</time></trkpt><trkpt lat="34.0156946" lon="7.9158513"><ele>-18.6</ele><time>2026-04-30T09:10:38.656Z</time></trkpt><trkpt lat="34.015679" lon="7.9159528"><ele>-17.2</ele><time>2026-04-30T09:10:40.654Z</time></trkpt><trkpt lat="34.0156642" lon="7.916064"><ele>-15.8</ele><time>2026-04-30T09:10:42.647Z</time></trkpt><trkpt lat="34.0156366" lon="7.9162101"><ele>-14.4</ele><time>2026-04-30T09:10:44.642Z</time></trkpt><trkpt lat="34.0156177" lon="7.9162932"><ele>-13.0</ele><time>2026-04-30T09:10:45.654Z</time></trkpt><trkpt lat="34.0156042" lon="7.9163825"><ele>-12.999999999999998</ele><time>2026-04-30T09:10:46.659Z</time></trkpt><trkpt lat="34.0155926" lon="7.9164803"><ele>-13.0</ele><time>2026-04-30T09:10:47.688Z</time></trkpt><trkpt lat="34.0155838" lon="7.9165752"><ele>-13.0</ele><time>2026-04-30T09:10:48.644Z</time></trkpt><trkpt lat="34.0155821" lon="7.9166752"><ele>-13.0</ele><time>2026-04-30T09:10:49.645Z</time></trkpt><trkpt lat="34.0155799" lon="7.9167749"><ele>-12.999999999999998</ele><time>2026-04-30T09:10:50.649Z</time></trkpt><trkpt lat="34.0155848" lon="7.9168629"><ele>-13.0</ele><time>2026-04-30T09:10:51.651Z</time></trkpt><trkpt lat="34.0155891" lon="7.9169567"><ele>-12.666666666666666</ele><time>2026-04-30T09:10:52.649Z</time></trkpt><trkpt lat="34.0155878" lon="7.9170514"><ele>-12.333333333333332</ele><time>2026-04-30T09:10:53.655Z</time></trkpt><trkpt lat="34.0155869" lon="7.9171489"><ele>-12.0</ele><time>2026-04-30T09:10:54.651Z</time></trkpt><trkpt lat="34.015584" lon="7.9172465"><ele>-11.666666666666666</ele><time>2026-04-30T09:10:55.656Z</time></trkpt><trkpt lat="34.0155775" lon="7.9173483"><ele>-11.333333333333332</ele><time>2026-04-30T09:10:56.656Z</time></trkpt><trkpt lat="34.0155684" lon="7.9174434"><ele>-11.0</ele><time>2026-04-30T09:10:57.66Z</time></trkpt><trkpt lat="34.0155616" lon="7.9175436"><ele>-10.666666666666666</ele><time>2026-04-30T09:10:58.656Z</time></trkpt><trkpt lat="34.0155599" lon="7.9176395"><ele>-10.333333333333332</ele><time>2026-04-30T09:10:59.652Z</time></trkpt><trkpt lat="34.0155627" lon="7.9177399"><ele>-10.0</ele><time>2026-04-30T09:11:00.648Z</time></trkpt><trkpt lat="34.0155637" lon="7.9178357"><ele>-9.666666666666666</ele><time>2026-04-30T09:11:01.655Z</time></trkpt><trkpt lat="34.0155661" lon="7.9179388"><ele>-9.333333333333334</ele><time>2026-04-30T09:11:02.657Z</time></trkpt><trkpt lat="34.015572" lon="7.9180422"><ele>-9.0</ele><time>2026-04-30T09:11:03.66Z</time></trkpt><trkpt lat="34.0155819" lon="7.9181414"><ele>-9.0</ele><time>2026-04-30T09:11:04.652Z</time></trkpt><trkpt lat="34.0155911" lon="7.9182388"><ele>-9.0</ele><time>2026-04-30T09:11:05.652Z</time></trkpt><trkpt lat="34.0156036" lon="7.918341"><ele>-9.0</ele><time>2026-04-30T09:11:06.653Z</time></trkpt><trkpt lat="34.0156208" lon="7.9184416"><ele>-9.0</ele><time>2026-04-30T09:11:07.66Z</time></trkpt><trkpt lat="34.0156418" lon="7.9185443"><ele>-9.0</ele><time>2026-04-30T09:11:08.652Z</time></trkpt><trkpt lat="34.0156677" lon="7.9186448"><ele>-9.0</ele><time>2026-04-30T09:11:09.657Z</time></trkpt><trkpt lat="34.0156951" lon="7.9187523"><ele>-8.8</ele><time>2026-04-30T09:11:10.668Z</time></trkpt><trkpt lat="34.0157276" lon="7.9188685"><ele>-8.600000000000001</ele><time>2026-04-30T09:11:11.657Z</time></trkpt><trkpt lat="34.0157646" lon="7.9190085"><ele>-8.4</ele><time>2026-04-30T09:11:12.655Z</time></trkpt><trkpt lat="34.0157927" lon="7.9191434"><ele>-8.200000000000001</ele><time>2026-04-30T09:11:13.652Z</time></trkpt><trkpt lat="34.0158163" lon="7.9192681"><ele>-8.0</ele><time>2026-04-30T09:11:14.652Z</time></trkpt><trkpt lat="34.0158351" lon="7.9193731"><ele>-9.600000000000001</ele><time>2026-04-30T09:11:15.692Z</time></trkpt><trkpt lat="34.0158651" lon="7.9194764"><ele>-11.200000000000001</ele><time>2026-04-30T09:11:16.649Z</time></trkpt><trkpt lat="34.0158884" lon="7.9195846"><ele>-12.8</ele><time>2026-04-30T09:11:17.655Z</time></trkpt><trkpt lat="34.0159149" lon="7.9196966"><ele>-14.4</ele><time>2026-04-30T09:11:18.651Z</time></trkpt><trkpt lat="34.0159422" lon="7.9197985"><ele>-16.0</ele><time>2026-04-30T09:11:19.648Z</time></trkpt><trkpt lat="34.0159611" lon="7.9199043"><ele>-15.999999999999998</ele><time>2026-04-30T09:11:20.654Z</time></trkpt><trkpt lat="34.0159809" lon="7.9200031"><ele>-16.0</ele><time>2026-04-30T09:11:21.653Z</time></trkpt><trkpt lat="34.0160025" lon="7.9201026"><ele>-16.0</ele><time>2026-04-30T09:11:22.651Z</time></trkpt><trkpt lat="34.0160168" lon="7.9201995"><ele>-16.0</ele><time>2026-04-30T09:11:23.655Z</time></trkpt><trkpt lat="34.0160333" lon="7.9202991"><ele>-15.999999999999998</ele><time>2026-04-30T09:11:24.656Z</time></trkpt><trkpt lat="34.0160427" lon="7.9204018"><ele>-16.0</ele><time>2026-04-30T09:11:25.654Z</time></trkpt><trkpt lat="34.016054" lon="7.9205015"><ele>-15.833333333333332</ele><time>2026-04-30T09:11:26.653Z</time></trkpt><trkpt lat="34.0160597" lon="7.9205985"><ele>-15.666666666666666</ele><time>2026-04-30T09:11:27.648Z</time></trkpt><trkpt lat="34.0160683" lon="7.9207112"><ele>-15.5</ele><time>2026-04-30T09:11:28.655Z</time></trkpt><trkpt lat="34.0160796" lon="7.9208368"><ele>-15.333333333333332</ele><time>2026-04-30T09:11:29.651Z</time></trkpt><trkpt lat="34.0160903" lon="7.9209496"><ele>-15.166666666666666</ele><time>2026-04-30T09:11:30.654Z</time></trkpt><trkpt lat="34.0160997" lon="7.9210395"><ele>-15.0</ele><time>2026-04-30T09:11:31.663Z</time></trkpt><trkpt lat="34.0161045" lon="7.9211383"><ele>-14.8</ele><time>2026-04-30T09:11:32.638Z</time></trkpt><trkpt lat="34.0161126" lon="7.9212468"><ele>-14.6</ele><time>2026-04-30T09:11:33.651Z</time></trkpt><trkpt lat="34.0161238" lon="7.9213782"><ele>-14.399999999999999</ele><time>2026-04-30T09:11:34.656Z</time></trkpt><trkpt lat="34.0161382" lon="7.9215047"><ele>-14.2</ele><time>2026-04-30T09:11:35.654Z</time></trkpt><trkpt lat="34.0161408" lon="7.9216559"><ele>-14.0</ele><time>2026-04-30T09:11:36.661Z</time></trkpt><trkpt lat="34.0161519" lon="7.9218246"><ele>-13.0</ele><time>2026-04-30T09:11:37.655Z</time></trkpt><trkpt lat="34.0161646" lon="7.9219756"><ele>-12.0</ele><time>2026-04-30T09:11:38.658Z</time></trkpt><trkpt lat="34.0161706" lon="7.9221333"><ele>-11.0</ele><time>2026-04-30T09:11:39.654Z</time></trkpt><trkpt lat="34.0161883" lon="7.9223029"><ele>-10.0</ele><time>2026-04-30T09:11:40.648Z</time></trkpt><trkpt lat="34.0162078" lon="7.9224692"><ele>-10.0</ele><time>2026-04-30T09:11:41.685Z</time></trkpt><trkpt lat="34.0162202" lon="7.9226285"><ele>-10.0</ele><time>2026-04-30T09:11:42.648Z</time></trkpt><trkpt lat="34.0162343" lon="7.9227825"><ele>-10.0</ele><time>2026-04-30T09:11:43.656Z</time></trkpt><trkpt lat="34.0162448" lon="7.9229316"><ele>-10.0</ele><time>2026-04-30T09:11:44.646Z</time></trkpt><trkpt lat="34.0162536" lon="7.9230702"><ele>-10.0</ele><time>2026-04-30T09:11:45.657Z</time></trkpt><trkpt lat="34.0162744" lon="7.9232183"><ele>-10.0</ele><time>2026-04-30T09:11:46.654Z</time></trkpt><trkpt lat="34.0162963" lon="7.9233648"><ele>-10.0</ele><time>2026-04-30T09:11:47.65Z</time></trkpt><trkpt lat="34.016325" lon="7.9235185"><ele>-10.0</ele><time>2026-04-30T09:11:48.65Z</time></trkpt><trkpt lat="34.0163605" lon="7.9236696"><ele>-10.0</ele><time>2026-04-30T09:11:49.653Z</time></trkpt><trkpt lat="34.0163949" lon="7.9238098"><ele>-10.0</ele><time>2026-04-30T09:11:50.655Z</time></trkpt><trkpt lat="34.0164275" lon="7.9239544"><ele>-10.0</ele><time>2026-04-30T09:11:51.647Z</time></trkpt><trkpt lat="34.016458" lon="7.9241014"><ele>-10.0</ele><time>2026-04-30T09:11:52.651Z</time></trkpt><trkpt lat="34.0164828" lon="7.924241"><ele>-10.0</ele><time>2026-04-30T09:11:53.65Z</time></trkpt><trkpt lat="34.0165053" lon="7.9243763"><ele>-10.0</ele><time>2026-04-30T09:11:54.656Z</time></trkpt><trkpt lat="34.0165228" lon="7.9245083"><ele>-10.0</ele><time>2026-04-30T09:11:55.652Z</time></trkpt><trkpt lat="34.0165408" lon="7.9246346"><ele>-10.0</ele><time>2026-04-30T09:11:56.658Z</time></trkpt><trkpt lat="34.0165595" lon="7.9247613"><ele>-10.0</ele><time>2026-04-30T09:11:57.66Z</time></trkpt><trkpt lat="34.0165758" lon="7.924882"><ele>-10.0</ele><time>2026-04-30T09:11:58.657Z</time></trkpt><trkpt lat="34.0165901" lon="7.9250072"><ele>-10.0</ele><time>2026-04-30T09:11:59.651Z</time></trkpt><trkpt lat="34.0166078" lon="7.9251293"><ele>-10.0</ele><time>2026-04-30T09:12:00.658Z</time></trkpt><trkpt lat="34.0166194" lon="7.9252412"><ele>-10.0</ele><time>2026-04-30T09:12:01.655Z</time></trkpt><trkpt lat="34.0166327" lon="7.9253475"><ele>-10.0</ele><time>2026-04-30T09:12:02.664Z</time></trkpt><trkpt lat="34.0166459" lon="7.9254486"><ele>-11.0</ele><time>2026-04-30T09:12:03.654Z</time></trkpt><trkpt lat="34.016653" lon="7.9255501"><ele>-12.0</ele><time>2026-04-30T09:12:04.649Z</time></trkpt><trkpt lat="34.0166677" lon="7.9256509"><ele>-13.0</ele><time>2026-04-30T09:12:05.656Z</time></trkpt><trkpt lat="34.0166783" lon="7.9257654"><ele>-14.0</ele><time>2026-04-30T09:12:06.66Z</time></trkpt><trkpt lat="34.0166879" lon="7.925893"><ele>-15.0</ele><time>2026-04-30T09:12:07.658Z</time></trkpt><trkpt lat="34.0166943" lon="7.9260099"><ele>-15.5</ele><time>2026-04-30T09:12:08.65Z</time></trkpt><trkpt lat="34.0166984" lon="7.9261252"><ele>-16.0</ele><time>2026-04-30T09:12:09.658Z</time></trkpt><trkpt lat="34.0167041" lon="7.926227"><ele>-16.5</ele><time>2026-04-30T09:12:10.652Z</time></trkpt><trkpt lat="34.0167155" lon="7.9263318"><ele>-17.0</ele><time>2026-04-30T09:12:11.638Z</time></trkpt><trkpt lat="34.0167233" lon="7.9264378"><ele>-17.5</ele><time>2026-04-30T09:12:12.653Z</time></trkpt><trkpt lat="34.016733" lon="7.9265378"><ele>-18.0</ele><time>2026-04-30T09:12:13.658Z</time></trkpt><trkpt lat="34.0167418" lon="7.9266426"><ele>-17.666666666666668</ele><time>2026-04-30T09:12:14.662Z</time></trkpt><trkpt lat="34.0167468" lon="7.926745"><ele>-17.333333333333332</ele><time>2026-04-30T09:12:15.668Z</time></trkpt><trkpt lat="34.0167473" lon="7.9268491"><ele>-17.0</ele><time>2026-04-30T09:12:16.655Z</time></trkpt><trkpt lat="34.0167486" lon="7.9269541"><ele>-16.666666666666664</ele><time>2026-04-30T09:12:17.656Z</time></trkpt><trkpt lat="34.0167504" lon="7.9270581"><ele>-16.333333333333332</ele><time>2026-04-30T09:12:18.652Z</time></trkpt><trkpt lat="34.0167536" lon="7.9271713"><ele>-16.0</ele><time>2026-04-30T09:12:19.65Z</time></trkpt><trkpt lat="34.0167557" lon="7.9272856"><ele>-15.999999999999998</ele><time>2026-04-30T09:12:20.655Z</time></trkpt><trkpt lat="34.0167593" lon="7.9274"><ele>-16.0</ele><time>2026-04-30T09:12:21.661Z</time></trkpt><trkpt lat="34.0167612" lon="7.9275049"><ele>-16.0</ele><time>2026-04-30T09:12:22.654Z</time></trkpt><trkpt lat="34.0167686" lon="7.9276065"><ele>-16.0</ele><time>2026-04-30T09:12:23.657Z</time></trkpt><trkpt lat="34.0167749" lon="7.9277142"><ele>-15.999999999999998</ele><time>2026-04-30T09:12:24.655Z</time></trkpt><trkpt lat="34.0167835" lon="7.9278262"><ele>-16.0</ele><time>2026-04-30T09:12:25.652Z</time></trkpt><trkpt lat="34.0167944" lon="7.927942"><ele>-15.75</ele><time>2026-04-30T09:12:26.658Z</time></trkpt><trkpt lat="34.0168016" lon="7.928076"><ele>-15.5</ele><time>2026-04-30T09:12:27.668Z</time></trkpt><trkpt lat="34.01681" lon="7.9282151"><ele>-15.25</ele><time>2026-04-30T09:12:28.653Z</time></trkpt><trkpt lat="34.01682" lon="7.9283573"><ele>-15.0</ele><time>2026-04-30T09:12:29.656Z</time></trkpt><trkpt lat="34.0168286" lon="7.9284911"><ele>-14.5</ele><time>2026-04-30T09:12:30.651Z</time></trkpt><trkpt lat="34.0168337" lon="7.9286342"><ele>-14.0</ele><time>2026-04-30T09:12:31.674Z</time></trkpt><trkpt lat="34.0168432" lon="7.9287745"><ele>-13.5</ele><time>2026-04-30T09:12:32.653Z</time></trkpt><trkpt lat="34.0168526" lon="7.9289134"><ele>-13.0</ele><time>2026-04-30T09:12:33.647Z</time></trkpt><trkpt lat="34.016868" lon="7.9290518"><ele>-13.0</ele><time>2026-04-30T09:12:34.65Z</time></trkpt><trkpt lat="34.016885" lon="7.9291868"><ele>-13.0</ele><time>2026-04-30T09:12:35.653Z</time></trkpt><trkpt lat="34.0168998" lon="7.9293176"><ele>-13.0</ele><time>2026-04-30T09:12:36.658Z</time></trkpt><trkpt lat="34.0169194" lon="7.9294474"><ele>-13.0</ele><time>2026-04-30T09:12:37.661Z</time></trkpt><trkpt lat="34.0169373" lon="7.9295735"><ele>-13.0</ele><time>2026-04-30T09:12:38.654Z</time></trkpt><trkpt lat="34.0169619" lon="7.9296969"><ele>-12.600000000000001</ele><time>2026-04-30T09:12:39.653Z</time></trkpt><trkpt lat="34.0169856" lon="7.9298126"><ele>-12.200000000000001</ele><time>2026-04-30T09:12:40.656Z</time></trkpt><trkpt lat="34.0170057" lon="7.9299393"><ele>-11.8</ele><time>2026-04-30T09:12:41.654Z</time></trkpt><trkpt lat="34.0170204" lon="7.9300637"><ele>-11.4</ele><time>2026-04-30T09:12:42.65Z</time></trkpt><trkpt lat="34.0170321" lon="7.9301932"><ele>-11.0</ele><time>2026-04-30T09:12:43.657Z</time></trkpt><trkpt lat="34.0170495" lon="7.9303192"><ele>-10.8</ele><time>2026-04-30T09:12:44.647Z</time></trkpt><trkpt lat="34.0170677" lon="7.9304472"><ele>-10.600000000000001</ele><time>2026-04-30T09:12:45.67Z</time></trkpt><trkpt lat="34.0170806" lon="7.93057"><ele>-10.4</ele><time>2026-04-30T09:12:46.652Z</time></trkpt><trkpt lat="34.0170956" lon="7.9306795"><ele>-10.2</ele><time>2026-04-30T09:12:47.65Z</time></trkpt><trkpt lat="34.0171092" lon="7.930781"><ele>-10.0</ele><time>2026-04-30T09:12:48.654Z</time></trkpt><trkpt lat="34.0171235" lon="7.9308884"><ele>-10.166666666666668</ele><time>2026-04-30T09:12:49.654Z</time></trkpt><trkpt lat="34.0171414" lon="7.9309971"><ele>-10.333333333333334</ele><time>2026-04-30T09:12:50.648Z</time></trkpt><trkpt lat="34.017158" lon="7.9311022"><ele>-10.5</ele><time>2026-04-30T09:12:51.652Z</time></trkpt><trkpt lat="34.017176" lon="7.9312002"><ele>-10.666666666666666</ele><time>2026-04-30T09:12:52.657Z</time></trkpt><trkpt lat="34.0171873" lon="7.9312897"><ele>-10.833333333333332</ele><time>2026-04-30T09:12:53.649Z</time></trkpt><trkpt lat="34.0172055" lon="7.9313817"><ele>-11.0</ele><time>2026-04-30T09:12:54.653Z</time></trkpt><trkpt lat="34.0172274" lon="7.931503"><ele>-11.0</ele><time>2026-04-30T09:12:55.654Z</time></trkpt><trkpt lat="34.0172508" lon="7.9316314"><ele>-11.0</ele><time>2026-04-30T09:12:56.654Z</time></trkpt><trkpt lat="34.017272" lon="7.9317476"><ele>-11.0</ele><time>2026-04-30T09:12:57.655Z</time></trkpt><trkpt lat="34.0172838" lon="7.9318561"><ele>-11.0</ele><time>2026-04-30T09:12:58.65Z</time></trkpt><trkpt lat="34.0172895" lon="7.9319637"><ele>-11.0</ele><time>2026-04-30T09:12:59.648Z</time></trkpt><trkpt lat="34.0172964" lon="7.9320859"><ele>-10.666666666666666</ele><time>2026-04-30T09:13:00.653Z</time></trkpt><trkpt lat="34.0173012" lon="7.9322084"><ele>-10.333333333333332</ele><time>2026-04-30T09:13:01.655Z</time></trkpt><trkpt lat="34.0173101" lon="7.9323209"><ele>-10.0</ele><time>2026-04-30T09:13:02.668Z</time></trkpt><trkpt lat="34.0173152" lon="7.9324187"><ele>-9.666666666666666</ele><time>2026-04-30T09:13:03.648Z</time></trkpt><trkpt lat="34.0173294" lon="7.932525"><ele>-9.333333333333334</ele><time>2026-04-30T09:13:04.652Z</time></trkpt><trkpt lat="34.0173474" lon="7.9326227"><ele>-9.0</ele><time>2026-04-30T09:13:05.657Z</time></trkpt><trkpt lat="34.0173699" lon="7.9327332"><ele>-9.0</ele><time>2026-04-30T09:13:06.656Z</time></trkpt><trkpt lat="34.0174037" lon="7.93287"><ele>-9.0</ele><time>2026-04-30T09:13:07.658Z</time></trkpt><trkpt lat="34.0174509" lon="7.9330312"><ele>-9.0</ele><time>2026-04-30T09:13:08.656Z</time></trkpt><trkpt lat="34.0174849" lon="7.9331825"><ele>-9.0</ele><time>2026-04-30T09:13:09.654Z</time></trkpt><trkpt lat="34.017522" lon="7.9333561"><ele>-11.0</ele><time>2026-04-30T09:13:10.655Z</time></trkpt><trkpt lat="34.0175579" lon="7.9335382"><ele>-13.0</ele><time>2026-04-30T09:13:11.661Z</time></trkpt><trkpt lat="34.0175939" lon="7.9337016"><ele>-15.0</ele><time>2026-04-30T09:13:12.651Z</time></trkpt><trkpt lat="34.0176192" lon="7.9338359"><ele>-17.0</ele><time>2026-04-30T09:13:13.659Z</time></trkpt><trkpt lat="34.0176468" lon="7.9339507"><ele>-17.0</ele><time>2026-04-30T09:13:14.659Z</time></trkpt><trkpt lat="34.0176704" lon="7.9340572"><ele>-17.0</ele><time>2026-04-30T09:13:15.663Z</time></trkpt><trkpt lat="34.0176902" lon="7.9341615"><ele>-17.0</ele><time>2026-04-30T09:13:16.66Z</time></trkpt><trkpt lat="34.0177067" lon="7.9342593"><ele>-17.0</ele><time>2026-04-30T09:13:17.656Z</time></trkpt><trkpt lat="34.0177259" lon="7.9343705"><ele>-17.0</ele><time>2026-04-30T09:13:18.672Z</time></trkpt><trkpt lat="34.0177411" lon="7.9344773"><ele>-17.0</ele><time>2026-04-30T09:13:19.684Z</time></trkpt><trkpt lat="34.0177509" lon="7.9345803"><ele>-17.166666666666668</ele><time>2026-04-30T09:13:20.656Z</time></trkpt><trkpt lat="34.0177606" lon="7.9346715"><ele>-17.333333333333336</ele><time>2026-04-30T09:13:21.656Z</time></trkpt><trkpt lat="34.0177684" lon="7.9347503"><ele>-17.5</ele><time>2026-04-30T09:13:22.659Z</time></trkpt><trkpt lat="34.017784" lon="7.9348756"><ele>-17.666666666666668</ele><time>2026-04-30T09:13:24.658Z</time></trkpt><trkpt lat="34.0177862" lon="7.9349954"><ele>-17.833333333333332</ele><time>2026-04-30T09:13:26.65Z</time></trkpt><trkpt lat="34.0177912" lon="7.9351109"><ele>-18.0</ele><time>2026-04-30T09:13:28.649Z</time></trkpt><trkpt lat="34.0177923" lon="7.935206"><ele>-18.166666666666668</ele><time>2026-04-30T09:13:30.65Z</time></trkpt><trkpt lat="34.0177877" lon="7.9352876"><ele>-18.333333333333332</ele><time>2026-04-30T09:13:32.657Z</time></trkpt><trkpt lat="34.0177851" lon="7.9353897"><ele>-18.5</ele><time>2026-04-30T09:13:34.651Z</time></trkpt><trkpt lat="34.017775" lon="7.9355201"><ele>-18.666666666666664</ele><time>2026-04-30T09:13:36.721Z</time></trkpt><trkpt lat="34.0177712" lon="7.9356565"><ele>-18.833333333333332</ele><time>2026-04-30T09:13:38.657Z</time></trkpt><trkpt lat="34.017766" lon="7.9357352"><ele>-19.0</ele><time>2026-04-30T09:13:39.655Z</time></trkpt><trkpt lat="34.017765" lon="7.9358189"><ele>-19.0</ele><time>2026-04-30T09:13:40.654Z</time></trkpt><trkpt lat="34.0177609" lon="7.9359017"><ele>-19.0</ele><time>2026-04-30T09:13:41.649Z</time></trkpt><trkpt lat="34.0177542" lon="7.9359884"><ele>-19.0</ele><time>2026-04-30T09:13:42.649Z</time></trkpt><trkpt lat="34.0177505" lon="7.936075"><ele>-19.0</ele><time>2026-04-30T09:13:43.658Z</time></trkpt><trkpt lat="34.0177407" lon="7.9361617"><ele>-19.0</ele><time>2026-04-30T09:13:44.654Z</time></trkpt><trkpt lat="34.0177246" lon="7.9362536"><ele>-19.0</ele><time>2026-04-30T09:13:45.677Z</time></trkpt><trkpt lat="34.0177126" lon="7.9363398"><ele>-19.0</ele><time>2026-04-30T09:13:46.658Z</time></trkpt><trkpt lat="34.0177027" lon="7.9364304"><ele>-19.0</ele><time>2026-04-30T09:13:47.656Z</time></trkpt><trkpt lat="34.0176943" lon="7.9365271"><ele>-19.0</ele><time>2026-04-30T09:13:48.652Z</time></trkpt><trkpt lat="34.0176905" lon="7.9366307"><ele>-19.0</ele><time>2026-04-30T09:13:49.653Z</time></trkpt><trkpt lat="34.0176912" lon="7.9367374"><ele>-19.0</ele><time>2026-04-30T09:13:50.652Z</time></trkpt><trkpt lat="34.0176902" lon="7.9368417"><ele>-19.0</ele><time>2026-04-30T09:13:51.659Z</time></trkpt><trkpt lat="34.0176873" lon="7.9369375"><ele>-19.0</ele><time>2026-04-30T09:13:52.654Z</time></trkpt><trkpt lat="34.0176838" lon="7.9370363"><ele>-19.0</ele><time>2026-04-30T09:13:53.654Z</time></trkpt><trkpt lat="34.0176796" lon="7.9371337"><ele>-19.0</ele><time>2026-04-30T09:13:54.648Z</time></trkpt><trkpt lat="34.0176779" lon="7.9372327"><ele>-19.0</ele><time>2026-04-30T09:13:55.654Z</time></trkpt><trkpt lat="34.0176738" lon="7.937333"><ele>-19.0</ele><time>2026-04-30T09:13:56.654Z</time></trkpt><trkpt lat="34.0176669" lon="7.9374374"><ele>-19.0</ele><time>2026-04-30T09:13:57.652Z</time></trkpt><trkpt lat="34.0176629" lon="7.9375367"><ele>-19.0</ele><time>2026-04-30T09:13:58.66Z</time></trkpt><trkpt lat="34.017662" lon="7.9376427"><ele>-18.666666666666664</ele><time>2026-04-30T09:13:59.661Z</time></trkpt><trkpt lat="34.0176622" lon="7.937746"><ele>-18.333333333333332</ele><time>2026-04-30T09:14:00.682Z</time></trkpt><trkpt lat="34.0176635" lon="7.9378477"><ele>-18.0</ele><time>2026-04-30T09:14:01.649Z</time></trkpt><trkpt lat="34.0176614" lon="7.9379481"><ele>-17.666666666666668</ele><time>2026-04-30T09:14:02.66Z</time></trkpt><trkpt lat="34.0176597" lon="7.938047"><ele>-17.333333333333336</ele><time>2026-04-30T09:14:03.654Z</time></trkpt><trkpt lat="34.0176635" lon="7.9381466"><ele>-17.0</ele><time>2026-04-30T09:14:04.644Z</time></trkpt><trkpt lat="34.0176661" lon="7.9382487"><ele>-17.0</ele><time>2026-04-30T09:14:05.64Z</time></trkpt><trkpt lat="34.0176683" lon="7.9383467"><ele>-17.0</ele><time>2026-04-30T09:14:06.652Z</time></trkpt><trkpt lat="34.017673" lon="7.9384411"><ele>-17.0</ele><time>2026-04-30T09:14:07.651Z</time></trkpt><trkpt lat="34.0176776" lon="7.9385288"><ele>-17.0</ele><time>2026-04-30T09:14:08.648Z</time></trkpt><trkpt lat="34.0176788" lon="7.9386146"><ele>-17.0</ele><time>2026-04-30T09:14:09.658Z</time></trkpt><trkpt lat="34.0176739" lon="7.9387078"><ele>-17.0</ele><time>2026-04-30T09:14:10.643Z</time></trkpt><trkpt lat="34.0176716" lon="7.9387986"><ele>-17.333333333333336</ele><time>2026-04-30T09:14:11.647Z</time></trkpt><trkpt lat="34.0176641" lon="7.9388928"><ele>-17.666666666666668</ele><time>2026-04-30T09:14:12.683Z</time></trkpt><trkpt lat="34.0176549" lon="7.9389825"><ele>-18.0</ele><time>2026-04-30T09:14:13.656Z</time></trkpt><trkpt lat="34.0176458" lon="7.9390749"><ele>-18.333333333333332</ele><time>2026-04-30T09:14:14.66Z</time></trkpt><trkpt lat="34.0176384" lon="7.9391695"><ele>-18.666666666666664</ele><time>2026-04-30T09:14:15.657Z</time></trkpt><trkpt lat="34.0176287" lon="7.9392864"><ele>-19.0</ele><time>2026-04-30T09:14:16.666Z</time></trkpt><trkpt lat="34.0176167" lon="7.9394107"><ele>-19.333333333333332</ele><time>2026-04-30T09:14:17.659Z</time></trkpt><trkpt lat="34.0176049" lon="7.9395249"><ele>-19.666666666666664</ele><time>2026-04-30T09:14:18.651Z</time></trkpt><trkpt lat="34.0175943" lon="7.939616"><ele>-20.0</ele><time>2026-04-30T09:14:19.656Z</time></trkpt><trkpt lat="34.0175793" lon="7.9397126"><ele>-20.333333333333332</ele><time>2026-04-30T09:14:20.655Z</time></trkpt><trkpt lat="34.0175595" lon="7.9398037"><ele>-20.666666666666668</ele><time>2026-04-30T09:14:21.661Z</time></trkpt><trkpt lat="34.0175447" lon="7.9398907"><ele>-21.0</ele><time>2026-04-30T09:14:22.653Z</time></trkpt><trkpt lat="34.0175241" lon="7.9399652"><ele>-21.0</ele><time>2026-04-30T09:14:23.655Z</time></trkpt><trkpt lat="34.0175034" lon="7.9400381"><ele>-21.0</ele><time>2026-04-30T09:14:24.659Z</time></trkpt><trkpt lat="34.0174721" lon="7.9401682"><ele>-21.0</ele><time>2026-04-30T09:14:26.671Z</time></trkpt><trkpt lat="34.0174355" lon="7.9402989"><ele>-21.0</ele><time>2026-04-30T09:14:28.675Z</time></trkpt><trkpt lat="34.0173911" lon="7.9404131"><ele>-21.0</ele><time>2026-04-30T09:14:30.652Z</time></trkpt><trkpt lat="34.0173671" lon="7.9405025"><ele>-20.5</ele><time>2026-04-30T09:14:32.651Z</time></trkpt><trkpt lat="34.0173466" lon="7.9405769"><ele>-20.0</ele><time>2026-04-30T09:14:35.65Z</time></trkpt><trkpt lat="34.0172766" lon="7.9406448"><ele>-19.5</ele><time>2026-04-30T09:14:48.659Z</time></trkpt><trkpt lat="34.0172138" lon="7.940719"><ele>-19.0</ele><time>2026-04-30T09:14:50.659Z</time></trkpt><trkpt lat="34.0171471" lon="7.9408069"><ele>-18.5</ele><time>2026-04-30T09:14:52.66Z</time></trkpt><trkpt lat="34.0170954" lon="7.9408991"><ele>-18.0</ele><time>2026-04-30T09:14:54.657Z</time></trkpt><trkpt lat="34.0170388" lon="7.940995"><ele>-18.2</ele><time>2026-04-30T09:14:56.647Z</time></trkpt><trkpt lat="34.0169668" lon="7.9410886"><ele>-18.4</ele><time>2026-04-30T09:14:58.654Z</time></trkpt><trkpt lat="34.0168829" lon="7.9411637"><ele>-18.599999999999998</ele><time>2026-04-30T09:15:00.654Z</time></trkpt><trkpt lat="34.0167953" lon="7.9412191"><ele>-18.8</ele><time>2026-04-30T09:15:02.644Z</time></trkpt><trkpt lat="34.0167221" lon="7.9412429"><ele>-19.0</ele><time>2026-04-30T09:15:05.652Z</time></trkpt><trkpt lat="34.0166359" lon="7.9412943"><ele>-19.0</ele><time>2026-04-30T09:15:08.659Z</time></trkpt><trkpt lat="34.0165689" lon="7.9413414"><ele>-19.0</ele><time>2026-04-30T09:15:11.649Z</time></trkpt><trkpt lat="34.0165359" lon="7.941409"><ele>-19.0</ele><time>2026-04-30T09:15:14.645Z</time></trkpt><trkpt lat="34.016509" lon="7.9415028"><ele>-19.0</ele><time>2026-04-30T09:15:16.651Z</time></trkpt><trkpt lat="34.0164778" lon="7.9416077"><ele>-19.0</ele><time>2026-04-30T09:15:18.65Z</time></trkpt><trkpt lat="34.0164586" lon="7.9416842"><ele>-19.0</ele><time>2026-04-30T09:15:20.651Z</time></trkpt><trkpt lat="34.0164465" lon="7.9417589"><ele>-19.0</ele><time>2026-04-30T09:15:24.656Z</time></trkpt><trkpt lat="34.0164426" lon="7.9418349"><ele>-18.5</ele><time>2026-04-30T09:15:27.65Z</time></trkpt><trkpt lat="34.0163807" lon="7.9419157"><ele>-18.0</ele><time>2026-04-30T09:26:23.659Z</time></trkpt><trkpt lat="34.0163269" lon="7.9419672"><ele>-17.5</ele><time>2026-04-30T09:26:25.684Z</time></trkpt><trkpt lat="34.0162846" lon="7.9420518"><ele>-17.0</ele><time>2026-04-30T09:26:28.706Z</time></trkpt><trkpt lat="34.0162181" lon="7.9420374"><ele>-16.5</ele><time>2026-04-30T09:26:32.699Z</time></trkpt><trkpt lat="34.0162091" lon="7.9419516"><ele>-16.0</ele><time>2026-04-30T09:26:35.653Z</time></trkpt><trkpt lat="34.0162682" lon="7.9418794"><ele>-16.0</ele><time>2026-04-30T09:26:38.676Z</time></trkpt><trkpt lat="34.016348" lon="7.9417855"><ele>-16.0</ele><time>2026-04-30T09:26:40.692Z</time></trkpt><trkpt lat="34.0164264" lon="7.9416906"><ele>-16.0</ele><time>2026-04-30T09:26:42.707Z</time></trkpt><trkpt lat="34.0165058" lon="7.941577"><ele>-16.0</ele><time>2026-04-30T09:26:44.7Z</time></trkpt><trkpt lat="34.0165572" lon="7.9414619"><ele>-16.0</ele><time>2026-04-30T09:26:46.697Z</time></trkpt><trkpt lat="34.0166045" lon="7.9413642"><ele>-15.999999999999998</ele><time>2026-04-30T09:26:48.694Z</time></trkpt><trkpt lat="34.0166355" lon="7.9412918"><ele>-16.0</ele><time>2026-04-30T09:26:50.687Z</time></trkpt><trkpt lat="34.0166813" lon="7.9412283"><ele>-16.0</ele><time>2026-04-30T09:26:52.722Z</time></trkpt><trkpt lat="34.0167428" lon="7.9412054"><ele>-15.999999999999998</ele><time>2026-04-30T09:27:04.644Z</time></trkpt><trkpt lat="34.016805" lon="7.9411671"><ele>-16.0</ele><time>2026-04-30T09:27:06.682Z</time></trkpt><trkpt lat="34.0168736" lon="7.9411327"><ele>-16.0</ele><time>2026-04-30T09:27:08.718Z</time></trkpt><trkpt lat="34.0169522" lon="7.941092"><ele>-15.999999999999998</ele><time>2026-04-30T09:27:11.717Z</time></trkpt><trkpt lat="34.0170137" lon="7.941043"><ele>-16.0</ele><time>2026-04-30T09:27:20.672Z</time></trkpt><trkpt lat="34.0170614" lon="7.9409828"><ele>-16.0</ele><time>2026-04-30T09:27:22.716Z</time></trkpt><trkpt lat="34.0171298" lon="7.9408579"><ele>-16.0</ele><time>2026-04-30T09:27:24.668Z</time></trkpt><trkpt lat="34.017163" lon="7.9407902"><ele>-15.999999999999998</ele><time>2026-04-30T09:27:25.709Z</time></trkpt><trkpt lat="34.0171968" lon="7.9407142"><ele>-16.0</ele><time>2026-04-30T09:27:26.708Z</time></trkpt><trkpt lat="34.0172349" lon="7.9406432"><ele>-16.285714285714285</ele><time>2026-04-30T09:27:27.684Z</time></trkpt><trkpt lat="34.0172794" lon="7.9405697"><ele>-16.57142857142857</ele><time>2026-04-30T09:27:28.701Z</time></trkpt><trkpt lat="34.0173202" lon="7.9404993"><ele>-16.857142857142858</ele><time>2026-04-30T09:27:29.683Z</time></trkpt><trkpt lat="34.0173582" lon="7.9404274"><ele>-17.142857142857142</ele><time>2026-04-30T09:27:30.706Z</time></trkpt><trkpt lat="34.0173913" lon="7.9403474"><ele>-17.42857142857143</ele><time>2026-04-30T09:27:31.696Z</time></trkpt><trkpt lat="34.0174202" lon="7.940266"><ele>-17.714285714285715</ele><time>2026-04-30T09:27:32.702Z</time></trkpt><trkpt lat="34.0174458" lon="7.9401823"><ele>-18.0</ele><time>2026-04-30T09:27:33.7Z</time></trkpt><trkpt lat="34.0174742" lon="7.9400988"><ele>-18.5</ele><time>2026-04-30T09:27:34.66Z</time></trkpt><trkpt lat="34.0174997" lon="7.9400125"><ele>-19.0</ele><time>2026-04-30T09:27:35.7Z</time></trkpt><trkpt lat="34.017518" lon="7.9399205"><ele>-19.5</ele><time>2026-04-30T09:27:36.679Z</time></trkpt><trkpt lat="34.0175395" lon="7.9398286"><ele>-20.0</ele><time>2026-04-30T09:27:37.696Z</time></trkpt><trkpt lat="34.0175615" lon="7.9397429"><ele>-20.5</ele><time>2026-04-30T09:27:38.7Z</time></trkpt><trkpt lat="34.0175832" lon="7.9396448"><ele>-21.0</ele><time>2026-04-30T09:27:39.693Z</time></trkpt><trkpt lat="34.0175956" lon="7.9395457"><ele>-21.0</ele><time>2026-04-30T09:27:40.667Z</time></trkpt><trkpt lat="34.0176048" lon="7.9394501"><ele>-21.0</ele><time>2026-04-30T09:27:41.671Z</time></trkpt><trkpt lat="34.0176156" lon="7.9393471"><ele>-21.0</ele><time>2026-04-30T09:27:42.719Z</time></trkpt><trkpt lat="34.0176236" lon="7.9392394"><ele>-21.0</ele><time>2026-04-30T09:27:43.683Z</time></trkpt><trkpt lat="34.0176379" lon="7.9391323"><ele>-21.0</ele><time>2026-04-30T09:27:44.712Z</time></trkpt><trkpt lat="34.0176534" lon="7.9390282"><ele>-21.0</ele><time>2026-04-30T09:27:45.683Z</time></trkpt><trkpt lat="34.0176627" lon="7.9389247"><ele>-20.6</ele><time>2026-04-30T09:27:46.67Z</time></trkpt><trkpt lat="34.0176737" lon="7.938824"><ele>-20.200000000000003</ele><time>2026-04-30T09:27:47.709Z</time></trkpt><trkpt lat="34.0176775" lon="7.9387162"><ele>-19.799999999999997</ele><time>2026-04-30T09:27:48.7Z</time></trkpt><trkpt lat="34.0176785" lon="7.9386047"><ele>-19.4</ele><time>2026-04-30T09:27:49.708Z</time></trkpt><trkpt lat="34.0176778" lon="7.9384853"><ele>-19.0</ele><time>2026-04-30T09:27:50.675Z</time></trkpt><trkpt lat="34.0176672" lon="7.9383707"><ele>-18.599999999999998</ele><time>2026-04-30T09:27:51.679Z</time></trkpt><trkpt lat="34.0176619" lon="7.938254"><ele>-18.2</ele><time>2026-04-30T09:27:52.693Z</time></trkpt><trkpt lat="34.0176617" lon="7.9381376"><ele>-17.799999999999997</ele><time>2026-04-30T09:27:53.682Z</time></trkpt><trkpt lat="34.0176607" lon="7.9380183"><ele>-17.4</ele><time>2026-04-30T09:27:54.658Z</time></trkpt><trkpt lat="34.017659" lon="7.9378958"><ele>-17.0</ele><time>2026-04-30T09:27:55.672Z</time></trkpt><trkpt lat="34.0176583" lon="7.937775"><ele>-17.0</ele><time>2026-04-30T09:27:56.698Z</time></trkpt><trkpt lat="34.0176612" lon="7.9376688"><ele>-17.0</ele><time>2026-04-30T09:27:57.694Z</time></trkpt><trkpt lat="34.0176615" lon="7.9375742"><ele>-17.0</ele><time>2026-04-30T09:27:58.691Z</time></trkpt><trkpt lat="34.0176604" lon="7.9374771"><ele>-17.0</ele><time>2026-04-30T09:27:59.713Z</time></trkpt><trkpt lat="34.0176579" lon="7.9373794"><ele>-17.0</ele><time>2026-04-30T09:28:00.698Z</time></trkpt><trkpt lat="34.0176573" lon="7.9372746"><ele>-17.0</ele><time>2026-04-30T09:28:01.67Z</time></trkpt><trkpt lat="34.0176583" lon="7.9371685"><ele>-17.333333333333336</ele><time>2026-04-30T09:28:02.713Z</time></trkpt><trkpt lat="34.0176645" lon="7.937071"><ele>-17.666666666666668</ele><time>2026-04-30T09:28:03.696Z</time></trkpt><trkpt lat="34.0176684" lon="7.9369689"><ele>-18.0</ele><time>2026-04-30T09:28:04.707Z</time></trkpt><trkpt lat="34.0176722" lon="7.9368594"><ele>-18.333333333333332</ele><time>2026-04-30T09:28:05.667Z</time></trkpt><trkpt lat="34.0176754" lon="7.9367575"><ele>-18.666666666666664</ele><time>2026-04-30T09:28:06.718Z</time></trkpt><trkpt lat="34.0176794" lon="7.9366638"><ele>-19.0</ele><time>2026-04-30T09:28:07.694Z</time></trkpt><trkpt lat="34.0176857" lon="7.9365749"><ele>-19.0</ele><time>2026-04-30T09:28:08.693Z</time></trkpt><trkpt lat="34.0176958" lon="7.9364806"><ele>-19.0</ele><time>2026-04-30T09:28:09.701Z</time></trkpt><trkpt lat="34.0176994" lon="7.9363852"><ele>-19.0</ele><time>2026-04-30T09:28:10.707Z</time></trkpt><trkpt lat="34.0177068" lon="7.9362873"><ele>-19.0</ele><time>2026-04-30T09:28:11.666Z</time></trkpt><trkpt lat="34.0177206" lon="7.9361883"><ele>-19.0</ele><time>2026-04-30T09:28:12.709Z</time></trkpt><trkpt lat="34.0177358" lon="7.9360931"><ele>-19.0</ele><time>2026-04-30T09:28:13.708Z</time></trkpt><trkpt lat="34.0177472" lon="7.9360006"><ele>-19.0</ele><time>2026-04-30T09:28:14.689Z</time></trkpt><trkpt lat="34.0177579" lon="7.9359052"><ele>-19.0</ele><time>2026-04-30T09:28:15.704Z</time></trkpt><trkpt lat="34.0177648" lon="7.9357995"><ele>-19.0</ele><time>2026-04-30T09:28:16.673Z</time></trkpt><trkpt lat="34.0177694" lon="7.935694"><ele>-19.0</ele><time>2026-04-30T09:28:17.693Z</time></trkpt><trkpt lat="34.0177781" lon="7.9355851"><ele>-19.0</ele><time>2026-04-30T09:28:18.681Z</time></trkpt><trkpt lat="34.0177808" lon="7.9354729"><ele>-19.0</ele><time>2026-04-30T09:28:19.685Z</time></trkpt><trkpt lat="34.0177772" lon="7.9353545"><ele>-19.0</ele><time>2026-04-30T09:28:20.665Z</time></trkpt><trkpt lat="34.0177744" lon="7.9352366"><ele>-19.0</ele><time>2026-04-30T09:28:21.687Z</time></trkpt><trkpt lat="34.0177767" lon="7.935109"><ele>-19.0</ele><time>2026-04-30T09:28:22.721Z</time></trkpt><trkpt lat="34.0177802" lon="7.9349769"><ele>-19.0</ele><time>2026-04-30T09:28:23.706Z</time></trkpt><trkpt lat="34.0177855" lon="7.9348498"><ele>-19.0</ele><time>2026-04-30T09:28:24.702Z</time></trkpt><trkpt lat="34.0177906" lon="7.9347154"><ele>-18.8</ele><time>2026-04-30T09:28:25.722Z</time></trkpt><trkpt lat="34.0177967" lon="7.9345827"><ele>-18.599999999999998</ele><time>2026-04-30T09:28:26.688Z</time></trkpt><trkpt lat="34.0177987" lon="7.9344534"><ele>-18.4</ele><time>2026-04-30T09:28:27.699Z</time></trkpt><trkpt lat="34.017799" lon="7.9343252"><ele>-18.2</ele><time>2026-04-30T09:28:28.65Z</time></trkpt><trkpt lat="34.0177963" lon="7.9341997"><ele>-18.0</ele><time>2026-04-30T09:28:29.708Z</time></trkpt><trkpt lat="34.0177966" lon="7.9340725"><ele>-17.8</ele><time>2026-04-30T09:28:30.722Z</time></trkpt><trkpt lat="34.0177999" lon="7.9339541"><ele>-17.6</ele><time>2026-04-30T09:28:31.708Z</time></trkpt><trkpt lat="34.0178034" lon="7.9338355"><ele>-17.4</ele><time>2026-04-30T09:28:32.662Z</time></trkpt><trkpt lat="34.0178028" lon="7.9337181"><ele>-17.2</ele><time>2026-04-30T09:28:33.681Z</time></trkpt><trkpt lat="34.0178034" lon="7.9335975"><ele>-17.0</ele><time>2026-04-30T09:28:34.653Z</time></trkpt><trkpt lat="34.0178048" lon="7.9334709"><ele>-16.6</ele><time>2026-04-30T09:28:35.676Z</time></trkpt><trkpt lat="34.0178058" lon="7.9333444"><ele>-16.2</ele><time>2026-04-30T09:28:36.696Z</time></trkpt><trkpt lat="34.0178043" lon="7.9332194"><ele>-15.8</ele><time>2026-04-30T09:28:37.69Z</time></trkpt><trkpt lat="34.0178039" lon="7.9331008"><ele>-15.4</ele><time>2026-04-30T09:28:38.669Z</time></trkpt><trkpt lat="34.0178011" lon="7.9329766"><ele>-15.0</ele><time>2026-04-30T09:28:39.692Z</time></trkpt><trkpt lat="34.0177931" lon="7.9328446"><ele>-15.0</ele><time>2026-04-30T09:28:40.693Z</time></trkpt><trkpt lat="34.0177869" lon="7.9327037"><ele>-15.0</ele><time>2026-04-30T09:28:41.711Z</time></trkpt><trkpt lat="34.0177759" lon="7.9325526"><ele>-15.0</ele><time>2026-04-30T09:28:42.698Z</time></trkpt><trkpt lat="34.0177648" lon="7.9323805"><ele>-15.0</ele><time>2026-04-30T09:28:43.69Z</time></trkpt><trkpt lat="34.0177496" lon="7.9322087"><ele>-15.666666666666668</ele><time>2026-04-30T09:28:44.706Z</time></trkpt><trkpt lat="34.0177354" lon="7.9320193"><ele>-16.333333333333336</ele><time>2026-04-30T09:28:45.702Z</time></trkpt><trkpt lat="34.0177203" lon="7.9318258"><ele>-17.0</ele><time>2026-04-30T09:28:46.706Z</time></trkpt><trkpt lat="34.0177063" lon="7.9316369"><ele>-17.0</ele><time>2026-04-30T09:28:47.713Z</time></trkpt><trkpt lat="34.0176954" lon="7.9314502"><ele>-17.0</ele><time>2026-04-30T09:28:48.694Z</time></trkpt><trkpt lat="34.0176808" lon="7.9312602"><ele>-17.0</ele><time>2026-04-30T09:28:49.701Z</time></trkpt><trkpt lat="34.0176645" lon="7.9310724"><ele>-17.0</ele><time>2026-04-30T09:28:50.687Z</time></trkpt><trkpt lat="34.0176456" lon="7.9308845"><ele>-17.0</ele><time>2026-04-30T09:28:51.691Z</time></trkpt><trkpt lat="34.0176291" lon="7.9307005"><ele>-17.0</ele><time>2026-04-30T09:28:52.697Z</time></trkpt><trkpt lat="34.0176124" lon="7.9305157"><ele>-17.0</ele><time>2026-04-30T09:28:53.698Z</time></trkpt><trkpt lat="34.0176009" lon="7.9303411"><ele>-17.0</ele><time>2026-04-30T09:28:54.685Z</time></trkpt><trkpt lat="34.0175888" lon="7.930167"><ele>-17.0</ele><time>2026-04-30T09:28:55.73Z</time></trkpt><trkpt lat="34.0175755" lon="7.9299945"><ele>-17.0</ele><time>2026-04-30T09:28:56.706Z</time></trkpt><trkpt lat="34.0175662" lon="7.9298329"><ele>-17.5</ele><time>2026-04-30T09:28:57.669Z</time></trkpt><trkpt lat="34.0175531" lon="7.92967"><ele>-18.0</ele><time>2026-04-30T09:28:58.705Z</time></trkpt><trkpt lat="34.0175401" lon="7.9295112"><ele>-18.5</ele><time>2026-04-30T09:28:59.707Z</time></trkpt><trkpt lat="34.0175283" lon="7.9293503"><ele>-19.0</ele><time>2026-04-30T09:29:00.647Z</time></trkpt><trkpt lat="34.017518" lon="7.9291918"><ele>-19.0</ele><time>2026-04-30T09:29:01.708Z</time></trkpt><trkpt lat="34.0175104" lon="7.9290393"><ele>-19.0</ele><time>2026-04-30T09:29:02.681Z</time></trkpt><trkpt lat="34.0175028" lon="7.9288875"><ele>-19.0</ele><time>2026-04-30T09:29:03.694Z</time></trkpt><trkpt lat="34.0174946" lon="7.928726"><ele>-19.0</ele><time>2026-04-30T09:29:04.649Z</time></trkpt><trkpt lat="34.0174875" lon="7.9285692"><ele>-18.0</ele><time>2026-04-30T09:29:05.688Z</time></trkpt><trkpt lat="34.0174777" lon="7.9284176"><ele>-17.0</ele><time>2026-04-30T09:29:06.693Z</time></trkpt><trkpt lat="34.0174656" lon="7.9282578"><ele>-16.0</ele><time>2026-04-30T09:29:07.643Z</time></trkpt><trkpt lat="34.0174536" lon="7.9281023"><ele>-15.0</ele><time>2026-04-30T09:29:08.666Z</time></trkpt><trkpt lat="34.0174423" lon="7.9279373"><ele>-15.0</ele><time>2026-04-30T09:29:09.692Z</time></trkpt><trkpt lat="34.0174293" lon="7.9277781"><ele>-15.0</ele><time>2026-04-30T09:29:10.654Z</time></trkpt><trkpt lat="34.0174153" lon="7.9276161"><ele>-15.0</ele><time>2026-04-30T09:29:11.657Z</time></trkpt><trkpt lat="34.0174025" lon="7.927451"><ele>-15.0</ele><time>2026-04-30T09:29:12.693Z</time></trkpt><trkpt lat="34.0173881" lon="7.9272887"><ele>-15.25</ele><time>2026-04-30T09:29:13.696Z</time></trkpt><trkpt lat="34.0173728" lon="7.9271223"><ele>-15.5</ele><time>2026-04-30T09:29:14.687Z</time></trkpt><trkpt lat="34.017356" lon="7.9269605"><ele>-15.75</ele><time>2026-04-30T09:29:15.676Z</time></trkpt><trkpt lat="34.0173413" lon="7.9267936"><ele>-16.0</ele><time>2026-04-30T09:29:16.679Z</time></trkpt><trkpt lat="34.0173287" lon="7.9266264"><ele>-16.5</ele><time>2026-04-30T09:29:17.702Z</time></trkpt><trkpt lat="34.0173172" lon="7.926466"><ele>-17.0</ele><time>2026-04-30T09:29:18.714Z</time></trkpt><trkpt lat="34.0173014" lon="7.9263142"><ele>-17.5</ele><time>2026-04-30T09:29:19.665Z</time></trkpt><trkpt lat="34.0172894" lon="7.926158"><ele>-18.0</ele><time>2026-04-30T09:29:20.701Z</time></trkpt><trkpt lat="34.0172779" lon="7.9260037"><ele>-17.25</ele><time>2026-04-30T09:29:21.721Z</time></trkpt><trkpt lat="34.0172653" lon="7.9258534"><ele>-16.5</ele><time>2026-04-30T09:29:22.661Z</time></trkpt><trkpt lat="34.0172451" lon="7.9256975"><ele>-15.75</ele><time>2026-04-30T09:29:23.694Z</time></trkpt><trkpt lat="34.0172286" lon="7.925542"><ele>-15.0</ele><time>2026-04-30T09:29:24.7Z</time></trkpt><trkpt lat="34.0172148" lon="7.9253867"><ele>-15.0</ele><time>2026-04-30T09:29:25.702Z</time></trkpt><trkpt lat="34.0172061" lon="7.9252353"><ele>-15.0</ele><time>2026-04-30T09:29:26.673Z</time></trkpt><trkpt lat="34.017189" lon="7.9250835"><ele>-15.0</ele><time>2026-04-30T09:29:27.681Z</time></trkpt><trkpt lat="34.0171769" lon="7.9249423"><ele>-15.0</ele><time>2026-04-30T09:29:28.691Z</time></trkpt><trkpt lat="34.0171651" lon="7.9247885"><ele>-15.25</ele><time>2026-04-30T09:29:29.708Z</time></trkpt><trkpt lat="34.0171531" lon="7.9246321"><ele>-15.5</ele><time>2026-04-30T09:29:30.704Z</time></trkpt><trkpt lat="34.0171389" lon="7.9244725"><ele>-15.75</ele><time>2026-04-30T09:29:31.695Z</time></trkpt><trkpt lat="34.0171269" lon="7.9243157"><ele>-16.0</ele><time>2026-04-30T09:29:32.686Z</time></trkpt><trkpt lat="34.0171157" lon="7.924156"><ele>-17.0</ele><time>2026-04-30T09:29:33.73Z</time></trkpt><trkpt lat="34.0171021" lon="7.9239988"><ele>-18.0</ele><time>2026-04-30T09:29:34.701Z</time></trkpt><trkpt lat="34.0170827" lon="7.9238397"><ele>-19.0</ele><time>2026-04-30T09:29:35.678Z</time></trkpt><trkpt lat="34.0170654" lon="7.9236807"><ele>-20.0</ele><time>2026-04-30T09:29:36.702Z</time></trkpt><trkpt lat="34.0170491" lon="7.9235199"><ele>-19.75</ele><time>2026-04-30T09:29:37.684Z</time></trkpt><trkpt lat="34.0170316" lon="7.9233489"><ele>-19.5</ele><time>2026-04-30T09:29:38.692Z</time></trkpt><trkpt lat="34.0170132" lon="7.9231791"><ele>-19.25</ele><time>2026-04-30T09:29:39.667Z</time></trkpt><trkpt lat="34.0169982" lon="7.9230076"><ele>-19.0</ele><time>2026-04-30T09:29:40.692Z</time></trkpt><trkpt lat="34.016982" lon="7.9228344"><ele>-19.0</ele><time>2026-04-30T09:29:41.696Z</time></trkpt><trkpt lat="34.0169657" lon="7.9226568"><ele>-19.0</ele><time>2026-04-30T09:29:42.714Z</time></trkpt><trkpt lat="34.0169487" lon="7.9224833"><ele>-19.0</ele><time>2026-04-30T09:29:43.708Z</time></trkpt><trkpt lat="34.0169354" lon="7.9223071"><ele>-19.0</ele><time>2026-04-30T09:29:44.666Z</time></trkpt><trkpt lat="34.0169234" lon="7.9221348"><ele>-19.5</ele><time>2026-04-30T09:29:45.716Z</time></trkpt><trkpt lat="34.0169103" lon="7.9219703"><ele>-20.0</ele><time>2026-04-30T09:29:46.717Z</time></trkpt><trkpt lat="34.0168935" lon="7.9218068"><ele>-20.5</ele><time>2026-04-30T09:29:47.676Z</time></trkpt><trkpt lat="34.0168801" lon="7.9216474"><ele>-21.0</ele><time>2026-04-30T09:29:48.651Z</time></trkpt><trkpt lat="34.0168661" lon="7.921486"><ele>-21.5</ele><time>2026-04-30T09:29:49.712Z</time></trkpt><trkpt lat="34.0168547" lon="7.9213301"><ele>-22.0</ele><time>2026-04-30T09:29:50.671Z</time></trkpt><trkpt lat="34.0168461" lon="7.9211679"><ele>-22.5</ele><time>2026-04-30T09:29:51.66Z</time></trkpt><trkpt lat="34.0168379" lon="7.9210077"><ele>-23.0</ele><time>2026-04-30T09:29:52.701Z</time></trkpt><trkpt lat="34.0168316" lon="7.9208467"><ele>-23.25</ele><time>2026-04-30T09:29:53.68Z</time></trkpt><trkpt lat="34.0168269" lon="7.9206848"><ele>-23.5</ele><time>2026-04-30T09:29:54.653Z</time></trkpt><trkpt lat="34.0168201" lon="7.920521"><ele>-23.75</ele><time>2026-04-30T09:29:55.677Z</time></trkpt><trkpt lat="34.0168136" lon="7.9203616"><ele>-24.0</ele><time>2026-04-30T09:29:56.664Z</time></trkpt><trkpt lat="34.0168092" lon="7.9201969"><ele>-23.25</ele><time>2026-04-30T09:29:57.708Z</time></trkpt><trkpt lat="34.0168004" lon="7.9200306"><ele>-22.5</ele><time>2026-04-30T09:29:58.707Z</time></trkpt><trkpt lat="34.0167874" lon="7.9198642"><ele>-21.75</ele><time>2026-04-30T09:29:59.664Z</time></trkpt><trkpt lat="34.016771" lon="7.919701"><ele>-21.0</ele><time>2026-04-30T09:30:00.696Z</time></trkpt><trkpt lat="34.0167569" lon="7.9195394"><ele>-21.0</ele><time>2026-04-30T09:30:01.704Z</time></trkpt><trkpt lat="34.0167415" lon="7.9193846"><ele>-21.0</ele><time>2026-04-30T09:30:02.698Z</time></trkpt><trkpt lat="34.0167239" lon="7.9192277"><ele>-21.0</ele><time>2026-04-30T09:30:03.704Z</time></trkpt><trkpt lat="34.0166994" lon="7.919084"><ele>-21.0</ele><time>2026-04-30T09:30:04.656Z</time></trkpt><trkpt lat="34.0166658" lon="7.9189387"><ele>-20.5</ele><time>2026-04-30T09:30:05.646Z</time></trkpt><trkpt lat="34.0166249" lon="7.9187906"><ele>-20.0</ele><time>2026-04-30T09:30:06.677Z</time></trkpt><trkpt lat="34.0165811" lon="7.9186473"><ele>-19.5</ele><time>2026-04-30T09:30:07.649Z</time></trkpt><trkpt lat="34.0165407" lon="7.9185097"><ele>-19.0</ele><time>2026-04-30T09:30:08.698Z</time></trkpt><trkpt lat="34.0165058" lon="7.9183762"><ele>-19.0</ele><time>2026-04-30T09:30:09.687Z</time></trkpt><trkpt lat="34.0164784" lon="7.9182448"><ele>-19.0</ele><time>2026-04-30T09:30:10.686Z</time></trkpt><trkpt lat="34.0164564" lon="7.9181203"><ele>-19.0</ele><time>2026-04-30T09:30:11.714Z</time></trkpt><trkpt lat="34.016435" lon="7.9180111"><ele>-19.0</ele><time>2026-04-30T09:30:12.701Z</time></trkpt><trkpt lat="34.0164089" lon="7.9179112"><ele>-19.0</ele><time>2026-04-30T09:30:13.707Z</time></trkpt><trkpt lat="34.0163782" lon="7.9178189"><ele>-19.0</ele><time>2026-04-30T09:30:14.67Z</time></trkpt><trkpt lat="34.0163403" lon="7.9177409"><ele>-19.0</ele><time>2026-04-30T09:30:15.707Z</time></trkpt><trkpt lat="34.0162989" lon="7.9176707"><ele>-19.0</ele><time>2026-04-30T09:30:16.709Z</time></trkpt><trkpt lat="34.0162597" lon="7.9176025"><ele>-19.0</ele><time>2026-04-30T09:30:17.722Z</time></trkpt><trkpt lat="34.0162038" lon="7.9174778"><ele>-19.0</ele><time>2026-04-30T09:30:19.718Z</time></trkpt><trkpt lat="34.0161548" lon="7.9173293"><ele>-19.2</ele><time>2026-04-30T09:30:21.715Z</time></trkpt><trkpt lat="34.0161338" lon="7.9172297"><ele>-19.4</ele><time>2026-04-30T09:30:22.738Z</time></trkpt><trkpt lat="34.0161114" lon="7.9171204"><ele>-19.6</ele><time>2026-04-30T09:30:23.708Z</time></trkpt><trkpt lat="34.0160858" lon="7.9170105"><ele>-19.8</ele><time>2026-04-30T09:30:24.699Z</time></trkpt><trkpt lat="34.01605" lon="7.9169077"><ele>-20.0</ele><time>2026-04-30T09:30:25.689Z</time></trkpt><trkpt lat="34.0160012" lon="7.9168195"><ele>-20.0</ele><time>2026-04-30T09:30:26.678Z</time></trkpt><trkpt lat="34.0159492" lon="7.9167265"><ele>-20.0</ele><time>2026-04-30T09:30:27.725Z</time></trkpt><trkpt lat="34.0159003" lon="7.916636"><ele>-20.0</ele><time>2026-04-30T09:30:28.725Z</time></trkpt><trkpt lat="34.0158584" lon="7.9165571"><ele>-20.0</ele><time>2026-04-30T09:30:29.681Z</time></trkpt><trkpt lat="34.0158303" lon="7.9164832"><ele>-20.0</ele><time>2026-04-30T09:30:30.694Z</time></trkpt><trkpt lat="34.0158039" lon="7.9164138"><ele>-20.0</ele><time>2026-04-30T09:30:31.707Z</time></trkpt><trkpt lat="34.0157589" lon="7.9162851"><ele>-18.6</ele><time>2026-04-30T09:30:33.718Z</time></trkpt><trkpt lat="34.0157451" lon="7.9161672"><ele>-17.2</ele><time>2026-04-30T09:30:35.692Z</time></trkpt><trkpt lat="34.0157071" lon="7.9160795"><ele>-15.8</ele><time>2026-04-30T09:30:37.674Z</time></trkpt><trkpt lat="34.0156416" lon="7.9160213"><ele>-14.4</ele><time>2026-04-30T09:30:39.675Z</time></trkpt><trkpt lat="34.0155516" lon="7.9159686"><ele>-13.0</ele><time>2026-04-30T09:30:41.68Z</time></trkpt><trkpt lat="34.0154415" lon="7.9159329"><ele>-13.0</ele><time>2026-04-30T09:30:43.716Z</time></trkpt><trkpt lat="34.0153386" lon="7.9159668"><ele>-13.0</ele><time>2026-04-30T09:30:45.668Z</time></trkpt><trkpt lat="34.0152126" lon="7.916032"><ele>-13.0</ele><time>2026-04-30T09:30:47.693Z</time></trkpt><trkpt lat="34.0151401" lon="7.9160725"><ele>-13.0</ele><time>2026-04-30T09:30:48.722Z</time></trkpt><trkpt lat="34.0150715" lon="7.9161116"><ele>-13.0</ele><time>2026-04-30T09:30:49.697Z</time></trkpt><trkpt lat="34.0150017" lon="7.9161579"><ele>-12.499999999999998</ele><time>2026-04-30T09:30:50.712Z</time></trkpt><trkpt lat="34.0149341" lon="7.916212"><ele>-12.0</ele><time>2026-04-30T09:30:51.71Z</time></trkpt><trkpt lat="34.0148654" lon="7.9162637"><ele>-11.5</ele><time>2026-04-30T09:30:52.724Z</time></trkpt><trkpt lat="34.0147997" lon="7.9163006"><ele>-11.0</ele><time>2026-04-30T09:30:53.717Z</time></trkpt><trkpt lat="34.0147282" lon="7.9163421"><ele>-10.5</ele><time>2026-04-30T09:30:54.686Z</time></trkpt><trkpt lat="34.0146616" lon="7.9163784"><ele>-10.0</ele><time>2026-04-30T09:30:55.713Z</time></trkpt><trkpt lat="34.0145964" lon="7.91642"><ele>-10.0</ele><time>2026-04-30T09:30:56.705Z</time></trkpt><trkpt lat="34.0145346" lon="7.916462"><ele>-10.0</ele><time>2026-04-30T09:30:57.701Z</time></trkpt><trkpt lat="34.0144778" lon="7.916519"><ele>-10.0</ele><time>2026-04-30T09:30:59.715Z</time></trkpt><trkpt lat="34.0144164" lon="7.9165609"><ele>-10.0</ele><time>2026-04-30T09:31:01.666Z</time></trkpt><trkpt lat="34.0143312" lon="7.9165913"><ele>-10.0</ele><time>2026-04-30T09:31:03.717Z</time></trkpt><trkpt lat="34.0142253" lon="7.9165897"><ele>-10.0</ele><time>2026-04-30T09:31:05.721Z</time></trkpt><trkpt lat="34.014161" lon="7.9165905"><ele>-10.333333333333334</ele><time>2026-04-30T09:31:06.709Z</time></trkpt><trkpt lat="34.0140838" lon="7.9165923"><ele>-10.666666666666668</ele><time>2026-04-30T09:31:07.648Z</time></trkpt><trkpt lat="34.0140025" lon="7.9166023"><ele>-11.0</ele><time>2026-04-30T09:31:08.692Z</time></trkpt><trkpt lat="34.0139139" lon="7.9166152"><ele>-11.333333333333334</ele><time>2026-04-30T09:31:09.711Z</time></trkpt><trkpt lat="34.0138163" lon="7.9166329"><ele>-11.666666666666666</ele><time>2026-04-30T09:31:10.726Z</time></trkpt><trkpt lat="34.0137156" lon="7.9166509"><ele>-12.0</ele><time>2026-04-30T09:31:11.695Z</time></trkpt><trkpt lat="34.0136132" lon="7.9166675"><ele>-12.0</ele><time>2026-04-30T09:31:12.724Z</time></trkpt><trkpt lat="34.0135118" lon="7.9166723"><ele>-12.0</ele><time>2026-04-30T09:31:13.661Z</time></trkpt><trkpt lat="34.0134175" lon="7.9166754"><ele>-12.0</ele><time>2026-04-30T09:31:14.698Z</time></trkpt><trkpt lat="34.0133345" lon="7.9166849"><ele>-12.0</ele><time>2026-04-30T09:31:15.659Z</time></trkpt><trkpt lat="34.013255" lon="7.9166979"><ele>-12.0</ele><time>2026-04-30T09:31:16.676Z</time></trkpt><trkpt lat="34.013177" lon="7.9167057"><ele>-12.0</ele><time>2026-04-30T09:31:17.714Z</time></trkpt><trkpt lat="34.013095" lon="7.9167127"><ele>-12.0</ele><time>2026-04-30T09:31:18.682Z</time></trkpt><trkpt lat="34.0130103" lon="7.9167231"><ele>-12.0</ele><time>2026-04-30T09:31:19.7Z</time></trkpt><trkpt lat="34.0129317" lon="7.9167325"><ele>-12.0</ele><time>2026-04-30T09:31:20.698Z</time></trkpt><trkpt lat="34.0128546" lon="7.9167428"><ele>-12.0</ele><time>2026-04-30T09:31:21.699Z</time></trkpt><trkpt lat="34.01278" lon="7.9167403"><ele>-12.0</ele><time>2026-04-30T09:31:22.689Z</time></trkpt><trkpt lat="34.0127009" lon="7.9167253"><ele>-12.0</ele><time>2026-04-30T09:31:23.701Z</time></trkpt><trkpt lat="34.0126259" lon="7.9167059"><ele>-11.999999999999998</ele><time>2026-04-30T09:31:24.712Z</time></trkpt><trkpt lat="34.0125526" lon="7.9166948"><ele>-12.0</ele><time>2026-04-30T09:31:25.701Z</time></trkpt><trkpt lat="34.012488" lon="7.9167055"><ele>-12.0</ele><time>2026-04-30T09:31:26.691Z</time></trkpt><trkpt lat="34.0124257" lon="7.9167247"><ele>-12.0</ele><time>2026-04-30T09:31:27.695Z</time></trkpt><trkpt lat="34.0123581" lon="7.9167434"><ele>-12.0</ele><time>2026-04-30T09:31:28.669Z</time></trkpt><trkpt lat="34.0122879" lon="7.9167748"><ele>-11.999999999999998</ele><time>2026-04-30T09:31:29.701Z</time></trkpt><trkpt lat="34.0122138" lon="7.9168076"><ele>-12.0</ele><time>2026-04-30T09:31:30.671Z</time></trkpt><trkpt lat="34.0121392" lon="7.9168365"><ele>-11.666666666666666</ele><time>2026-04-30T09:31:31.706Z</time></trkpt><trkpt lat="34.0120564" lon="7.9168642"><ele>-11.333333333333334</ele><time>2026-04-30T09:31:32.715Z</time></trkpt><trkpt lat="34.0119693" lon="7.9168841"><ele>-11.0</ele><time>2026-04-30T09:31:33.692Z</time></trkpt><trkpt lat="34.0118787" lon="7.9169022"><ele>-10.666666666666668</ele><time>2026-04-30T09:31:34.688Z</time></trkpt><trkpt lat="34.0117885" lon="7.9169173"><ele>-10.333333333333334</ele><time>2026-04-30T09:31:35.7Z</time></trkpt><trkpt lat="34.011699" lon="7.9169336"><ele>-10.0</ele><time>2026-04-30T09:31:36.692Z</time></trkpt><trkpt lat="34.0116126" lon="7.9169461"><ele>-9.833333333333334</ele><time>2026-04-30T09:31:37.695Z</time></trkpt><trkpt lat="34.0115338" lon="7.9169624"><ele>-9.666666666666668</ele><time>2026-04-30T09:31:38.697Z</time></trkpt><trkpt lat="34.011457" lon="7.9169778"><ele>-9.5</ele><time>2026-04-30T09:31:39.705Z</time></trkpt><trkpt lat="34.0113798" lon="7.9169954"><ele>-9.333333333333334</ele><time>2026-04-30T09:31:40.71Z</time></trkpt><trkpt lat="34.0113102" lon="7.9170095"><ele>-9.166666666666666</ele><time>2026-04-30T09:31:41.715Z</time></trkpt><trkpt lat="34.0111937" lon="7.9170406"><ele>-9.0</ele><time>2026-04-30T09:31:43.711Z</time></trkpt><trkpt lat="34.0111086" lon="7.917069"><ele>-9.0</ele><time>2026-04-30T09:31:45.717Z</time></trkpt><trkpt lat="34.0110377" lon="7.9171209"><ele>-9.0</ele><time>2026-04-30T09:31:47.709Z</time></trkpt><trkpt lat="34.011002" lon="7.9172214"><ele>-9.0</ele><time>2026-04-30T09:31:49.666Z</time></trkpt><trkpt lat="34.0110086" lon="7.9173892"><ele>-9.0</ele><time>2026-04-30T09:31:51.665Z</time></trkpt><trkpt lat="34.0110211" lon="7.9174832"><ele>-9.0</ele><time>2026-04-30T09:31:52.649Z</time></trkpt><trkpt lat="34.0110374" lon="7.9175759"><ele>-8.833333333333334</ele><time>2026-04-30T09:31:53.698Z</time></trkpt><trkpt lat="34.0110585" lon="7.9176719"><ele>-8.666666666666666</ele><time>2026-04-30T09:31:54.69Z</time></trkpt><trkpt lat="34.0110793" lon="7.9177677"><ele>-8.5</ele><time>2026-04-30T09:31:55.692Z</time></trkpt><trkpt lat="34.0110995" lon="7.9178687"><ele>-8.333333333333332</ele><time>2026-04-30T09:31:56.646Z</time></trkpt><trkpt lat="34.0111177" lon="7.9179719"><ele>-8.166666666666666</ele><time>2026-04-30T09:31:57.709Z</time></trkpt><trkpt lat="34.0111324" lon="7.9180735"><ele>-8.0</ele><time>2026-04-30T09:31:58.698Z</time></trkpt><trkpt lat="34.0111462" lon="7.9181712"><ele>-7.999999999999999</ele><time>2026-04-30T09:31:59.661Z</time></trkpt><trkpt lat="34.0111591" lon="7.9182673"><ele>-8.0</ele><time>2026-04-30T09:32:00.682Z</time></trkpt><trkpt lat="34.0111726" lon="7.9183607"><ele>-8.0</ele><time>2026-04-30T09:32:01.672Z</time></trkpt><trkpt lat="34.0111879" lon="7.9184547"><ele>-8.0</ele><time>2026-04-30T09:32:02.683Z</time></trkpt><trkpt lat="34.0112022" lon="7.9185449"><ele>-7.999999999999999</ele><time>2026-04-30T09:32:03.724Z</time></trkpt><trkpt lat="34.0112119" lon="7.9186401"><ele>-8.0</ele><time>2026-04-30T09:32:04.679Z</time></trkpt><trkpt lat="34.0112246" lon="7.9187434"><ele>-7.999999999999999</ele><time>2026-04-30T09:32:05.645Z</time></trkpt><trkpt lat="34.0112368" lon="7.9188438"><ele>-8.0</ele><time>2026-04-30T09:32:06.659Z</time></trkpt><trkpt lat="34.0112537" lon="7.9189444"><ele>-8.0</ele><time>2026-04-30T09:32:07.648Z</time></trkpt><trkpt lat="34.0112752" lon="7.9190482"><ele>-8.0</ele><time>2026-04-30T09:32:08.635Z</time></trkpt><trkpt lat="34.0112985" lon="7.9191521"><ele>-7.999999999999999</ele><time>2026-04-30T09:32:09.635Z</time></trkpt><trkpt lat="34.011315" lon="7.919253"><ele>-8.0</ele><time>2026-04-30T09:32:10.648Z</time></trkpt><trkpt lat="34.0113316" lon="7.9193486"><ele>-7.999999999999999</ele><time>2026-04-30T09:32:11.655Z</time></trkpt><trkpt lat="34.0113482" lon="7.9194367"><ele>-8.0</ele><time>2026-04-30T09:32:12.662Z</time></trkpt><trkpt lat="34.0113654" lon="7.9195312"><ele>-8.0</ele><time>2026-04-30T09:32:13.657Z</time></trkpt><trkpt lat="34.0113827" lon="7.9196294"><ele>-8.0</ele><time>2026-04-30T09:32:14.663Z</time></trkpt><trkpt lat="34.0113972" lon="7.9197295"><ele>-7.999999999999999</ele><time>2026-04-30T09:32:15.656Z</time></trkpt><trkpt lat="34.011414" lon="7.9198233"><ele>-8.0</ele><time>2026-04-30T09:32:16.672Z</time></trkpt><trkpt lat="34.0114288" lon="7.9199184"><ele>-8.0</ele><time>2026-04-30T09:32:17.675Z</time></trkpt><trkpt lat="34.011449" lon="7.9200165"><ele>-8.0</ele><time>2026-04-30T09:32:18.659Z</time></trkpt><trkpt lat="34.0114684" lon="7.9201207"><ele>-8.0</ele><time>2026-04-30T09:32:19.65Z</time></trkpt><trkpt lat="34.0114882" lon="7.9202285"><ele>-8.0</ele><time>2026-04-30T09:32:20.652Z</time></trkpt><trkpt lat="34.0115093" lon="7.9203396"><ele>-8.0</ele><time>2026-04-30T09:32:21.651Z</time></trkpt><trkpt lat="34.0115341" lon="7.9204593"><ele>-8.0</ele><time>2026-04-30T09:32:22.667Z</time></trkpt><trkpt lat="34.0115517" lon="7.9205824"><ele>-8.0</ele><time>2026-04-30T09:32:23.681Z</time></trkpt><trkpt lat="34.0115703" lon="7.9207042"><ele>-8.0</ele><time>2026-04-30T09:32:24.671Z</time></trkpt><trkpt lat="34.0115924" lon="7.9208291"><ele>-8.0</ele><time>2026-04-30T09:32:25.667Z</time></trkpt><trkpt lat="34.0116166" lon="7.9209468"><ele>-8.0</ele><time>2026-04-30T09:32:26.653Z</time></trkpt><trkpt lat="34.011639" lon="7.9210623"><ele>-8.0</ele><time>2026-04-30T09:32:27.667Z</time></trkpt><trkpt lat="34.0116629" lon="7.9211793"><ele>-8.0</ele><time>2026-04-30T09:32:28.669Z</time></trkpt><trkpt lat="34.0116812" lon="7.9213079"><ele>-8.0</ele><time>2026-04-30T09:32:29.657Z</time></trkpt><trkpt lat="34.0116982" lon="7.9214431"><ele>-8.0</ele><time>2026-04-30T09:32:30.663Z</time></trkpt><trkpt lat="34.0117241" lon="7.9215892"><ele>-8.0</ele><time>2026-04-30T09:32:31.673Z</time></trkpt><trkpt lat="34.0117477" lon="7.9217331"><ele>-8.25</ele><time>2026-04-30T09:32:32.67Z</time></trkpt><trkpt lat="34.0117747" lon="7.9218781"><ele>-8.5</ele><time>2026-04-30T09:32:33.666Z</time></trkpt><trkpt lat="34.0118004" lon="7.9220275"><ele>-8.75</ele><time>2026-04-30T09:32:34.672Z</time></trkpt><trkpt lat="34.0118228" lon="7.922178"><ele>-9.0</ele><time>2026-04-30T09:32:35.669Z</time></trkpt><trkpt lat="34.0118443" lon="7.9223356"><ele>-9.0</ele><time>2026-04-30T09:32:36.672Z</time></trkpt><trkpt lat="34.0118692" lon="7.9224886"><ele>-9.0</ele><time>2026-04-30T09:32:37.653Z</time></trkpt><trkpt lat="34.0118952" lon="7.9226447"><ele>-9.0</ele><time>2026-04-30T09:32:38.671Z</time></trkpt><trkpt lat="34.0119264" lon="7.9228006"><ele>-9.0</ele><time>2026-04-30T09:32:39.671Z</time></trkpt><trkpt lat="34.0119521" lon="7.9229561"><ele>-9.0</ele><time>2026-04-30T09:32:40.675Z</time></trkpt><trkpt lat="34.0119839" lon="7.9231141"><ele>-9.0</ele><time>2026-04-30T09:32:41.679Z</time></trkpt><trkpt lat="34.0120124" lon="7.9232693"><ele>-9.0</ele><time>2026-04-30T09:32:42.667Z</time></trkpt><trkpt lat="34.0120399" lon="7.9234239"><ele>-9.0</ele><time>2026-04-30T09:32:43.691Z</time></trkpt><trkpt lat="34.0120724" lon="7.9235886"><ele>-8.75</ele><time>2026-04-30T09:32:44.671Z</time></trkpt><trkpt lat="34.0120979" lon="7.9237523"><ele>-8.5</ele><time>2026-04-30T09:32:45.674Z</time></trkpt><trkpt lat="34.0121247" lon="7.9239111"><ele>-8.25</ele><time>2026-04-30T09:32:46.684Z</time></trkpt><trkpt lat="34.0121488" lon="7.9240757"><ele>-8.0</ele><time>2026-04-30T09:32:47.671Z</time></trkpt><trkpt lat="34.0121741" lon="7.9242424"><ele>-8.5</ele><time>2026-04-30T09:32:48.679Z</time></trkpt><trkpt lat="34.0122029" lon="7.9244062"><ele>-9.0</ele><time>2026-04-30T09:32:49.679Z</time></trkpt><trkpt lat="34.0122286" lon="7.9245794"><ele>-9.5</ele><time>2026-04-30T09:32:50.672Z</time></trkpt><trkpt lat="34.0122572" lon="7.9247553"><ele>-10.0</ele><time>2026-04-30T09:32:51.66Z</time></trkpt><trkpt lat="34.0122859" lon="7.9249311"><ele>-10.0</ele><time>2026-04-30T09:32:52.661Z</time></trkpt><trkpt lat="34.0123169" lon="7.9251008"><ele>-10.0</ele><time>2026-04-30T09:32:53.663Z</time></trkpt><trkpt lat="34.0123496" lon="7.9252645"><ele>-10.0</ele><time>2026-04-30T09:32:54.673Z</time></trkpt><trkpt lat="34.0123752" lon="7.9254225"><ele>-10.0</ele><time>2026-04-30T09:32:55.674Z</time></trkpt><trkpt lat="34.0124052" lon="7.9255861"><ele>-10.0</ele><time>2026-04-30T09:32:56.678Z</time></trkpt><trkpt lat="34.012429" lon="7.9257474"><ele>-10.0</ele><time>2026-04-30T09:32:57.675Z</time></trkpt><trkpt lat="34.012456" lon="7.9259116"><ele>-10.0</ele><time>2026-04-30T09:32:58.683Z</time></trkpt><trkpt lat="34.0124763" lon="7.9260716"><ele>-10.0</ele><time>2026-04-30T09:32:59.683Z</time></trkpt><trkpt lat="34.0124993" lon="7.9262333"><ele>-9.75</ele><time>2026-04-30T09:33:00.669Z</time></trkpt><trkpt lat="34.0125239" lon="7.9263962"><ele>-9.5</ele><time>2026-04-30T09:33:01.664Z</time></trkpt><trkpt lat="34.012548" lon="7.92656"><ele>-9.25</ele><time>2026-04-30T09:33:02.675Z</time></trkpt><trkpt lat="34.0125687" lon="7.926728"><ele>-9.0</ele><time>2026-04-30T09:33:03.671Z</time></trkpt><trkpt lat="34.0125906" lon="7.9268935"><ele>-9.0</ele><time>2026-04-30T09:33:04.669Z</time></trkpt><trkpt lat="34.0126123" lon="7.9270627"><ele>-9.0</ele><time>2026-04-30T09:33:05.666Z</time></trkpt><trkpt lat="34.0126372" lon="7.9272376"><ele>-9.0</ele><time>2026-04-30T09:33:06.659Z</time></trkpt><trkpt lat="34.0126563" lon="7.9274095"><ele>-9.0</ele><time>2026-04-30T09:33:07.694Z</time></trkpt><trkpt lat="34.012675" lon="7.9275842"><ele>-9.0</ele><time>2026-04-30T09:33:08.658Z</time></trkpt><trkpt lat="34.0126932" lon="7.9277553"><ele>-9.0</ele><time>2026-04-30T09:33:09.656Z</time></trkpt><trkpt lat="34.0127073" lon="7.9279306"><ele>-9.0</ele><time>2026-04-30T09:33:10.669Z</time></trkpt><trkpt lat="34.0127254" lon="7.9281037"><ele>-9.0</ele><time>2026-04-30T09:33:11.659Z</time></trkpt><trkpt lat="34.0127428" lon="7.9282826"><ele>-9.25</ele><time>2026-04-30T09:33:12.667Z</time></trkpt><trkpt lat="34.0127588" lon="7.92846"><ele>-9.5</ele><time>2026-04-30T09:33:13.672Z</time></trkpt><trkpt lat="34.0127673" lon="7.9286322"><ele>-9.75</ele><time>2026-04-30T09:33:14.672Z</time></trkpt><trkpt lat="34.0127777" lon="7.9288074"><ele>-10.0</ele><time>2026-04-30T09:33:15.673Z</time></trkpt><trkpt lat="34.0127999" lon="7.9289814"><ele>-10.0</ele><time>2026-04-30T09:33:16.669Z</time></trkpt><trkpt lat="34.0128256" lon="7.9291537"><ele>-10.0</ele><time>2026-04-30T09:33:17.68Z</time></trkpt><trkpt lat="34.0128375" lon="7.9293272"><ele>-10.0</ele><time>2026-04-30T09:33:18.657Z</time></trkpt><trkpt lat="34.0128512" lon="7.9294982"><ele>-10.0</ele><time>2026-04-30T09:33:19.666Z</time></trkpt><trkpt lat="34.0128649" lon="7.9296707"><ele>-9.5</ele><time>2026-04-30T09:33:20.668Z</time></trkpt><trkpt lat="34.0128814" lon="7.9298396"><ele>-9.0</ele><time>2026-04-30T09:33:21.697Z</time></trkpt><trkpt lat="34.0128944" lon="7.93001"><ele>-8.5</ele><time>2026-04-30T09:33:22.657Z</time></trkpt><trkpt lat="34.012908" lon="7.930173"><ele>-8.0</ele><time>2026-04-30T09:33:23.682Z</time></trkpt><trkpt lat="34.0129211" lon="7.9303197"><ele>-8.0</ele><time>2026-04-30T09:33:24.675Z</time></trkpt><trkpt lat="34.0129395" lon="7.930458"><ele>-8.0</ele><time>2026-04-30T09:33:25.677Z</time></trkpt><trkpt lat="34.0129522" lon="7.9306109"><ele>-8.0</ele><time>2026-04-30T09:33:26.668Z</time></trkpt><trkpt lat="34.0129643" lon="7.9307657"><ele>-8.0</ele><time>2026-04-30T09:33:27.663Z</time></trkpt><trkpt lat="34.0129723" lon="7.9309166"><ele>-8.0</ele><time>2026-04-30T09:33:28.668Z</time></trkpt><trkpt lat="34.0129812" lon="7.9310643"><ele>-8.0</ele><time>2026-04-30T09:33:29.667Z</time></trkpt><trkpt lat="34.012984" lon="7.9312121"><ele>-8.0</ele><time>2026-04-30T09:33:30.674Z</time></trkpt><trkpt lat="34.01299" lon="7.9313661"><ele>-8.0</ele><time>2026-04-30T09:33:31.657Z</time></trkpt><trkpt lat="34.0129998" lon="7.9315257"><ele>-8.0</ele><time>2026-04-30T09:33:32.677Z</time></trkpt><trkpt lat="34.0130047" lon="7.931685"><ele>-8.0</ele><time>2026-04-30T09:33:33.678Z</time></trkpt><trkpt lat="34.0130134" lon="7.9318403"><ele>-8.0</ele><time>2026-04-30T09:33:34.671Z</time></trkpt><trkpt lat="34.0130148" lon="7.9319945"><ele>-8.0</ele><time>2026-04-30T09:33:35.669Z</time></trkpt><trkpt lat="34.013018" lon="7.9321447"><ele>-8.0</ele><time>2026-04-30T09:33:36.668Z</time></trkpt><trkpt lat="34.0130253" lon="7.9322913"><ele>-8.0</ele><time>2026-04-30T09:33:37.66Z</time></trkpt><trkpt lat="34.0130286" lon="7.9324437"><ele>-8.0</ele><time>2026-04-30T09:33:38.67Z</time></trkpt><trkpt lat="34.0130328" lon="7.9325904"><ele>-8.0</ele><time>2026-04-30T09:33:39.668Z</time></trkpt><trkpt lat="34.013037" lon="7.9327347"><ele>-8.0</ele><time>2026-04-30T09:33:40.667Z</time></trkpt><trkpt lat="34.013047" lon="7.9328832"><ele>-8.0</ele><time>2026-04-30T09:33:41.676Z</time></trkpt><trkpt lat="34.0130591" lon="7.9330318"><ele>-8.0</ele><time>2026-04-30T09:33:42.656Z</time></trkpt><trkpt lat="34.0130664" lon="7.9331845"><ele>-8.0</ele><time>2026-04-30T09:33:43.655Z</time></trkpt><trkpt lat="34.013072" lon="7.9333299"><ele>-8.25</ele><time>2026-04-30T09:33:44.678Z</time></trkpt><trkpt lat="34.0130776" lon="7.9334785"><ele>-8.5</ele><time>2026-04-30T09:33:45.674Z</time></trkpt><trkpt lat="34.0130844" lon="7.9336245"><ele>-8.75</ele><time>2026-04-30T09:33:46.667Z</time></trkpt><trkpt lat="34.013092" lon="7.933773"><ele>-9.0</ele><time>2026-04-30T09:33:47.676Z</time></trkpt><trkpt lat="34.013103" lon="7.9339234"><ele>-9.0</ele><time>2026-04-30T09:33:48.674Z</time></trkpt><trkpt lat="34.0131083" lon="7.9340697"><ele>-9.0</ele><time>2026-04-30T09:33:49.68Z</time></trkpt><trkpt lat="34.0131163" lon="7.9342098"><ele>-9.0</ele><time>2026-04-30T09:33:50.681Z</time></trkpt><trkpt lat="34.0131229" lon="7.9343397"><ele>-9.0</ele><time>2026-04-30T09:33:51.668Z</time></trkpt><trkpt lat="34.0131303" lon="7.9344768"><ele>-9.0</ele><time>2026-04-30T09:33:52.677Z</time></trkpt><trkpt lat="34.0131412" lon="7.9346171"><ele>-9.0</ele><time>2026-04-30T09:33:53.672Z</time></trkpt><trkpt lat="34.0131467" lon="7.9347507"><ele>-9.0</ele><time>2026-04-30T09:33:54.679Z</time></trkpt><trkpt lat="34.0131528" lon="7.9348838"><ele>-9.0</ele><time>2026-04-30T09:33:55.675Z</time></trkpt><trkpt lat="34.013153" lon="7.9350222"><ele>-9.2</ele><time>2026-04-30T09:33:56.68Z</time></trkpt><trkpt lat="34.0131529" lon="7.9351523"><ele>-9.4</ele><time>2026-04-30T09:33:57.664Z</time></trkpt><trkpt lat="34.013156" lon="7.9352846"><ele>-9.6</ele><time>2026-04-30T09:33:58.68Z</time></trkpt><trkpt lat="34.0131569" lon="7.9354115"><ele>-9.8</ele><time>2026-04-30T09:33:59.682Z</time></trkpt><trkpt lat="34.0131555" lon="7.9355336"><ele>-10.0</ele><time>2026-04-30T09:34:00.68Z</time></trkpt><trkpt lat="34.0131568" lon="7.9356614"><ele>-10.0</ele><time>2026-04-30T09:34:01.672Z</time></trkpt><trkpt lat="34.0131566" lon="7.9357911"><ele>-10.0</ele><time>2026-04-30T09:34:02.672Z</time></trkpt><trkpt lat="34.0131543" lon="7.9359227"><ele>-10.0</ele><time>2026-04-30T09:34:03.667Z</time></trkpt><trkpt lat="34.0131568" lon="7.9360582"><ele>-10.0</ele><time>2026-04-30T09:34:04.669Z</time></trkpt><trkpt lat="34.0131592" lon="7.9361908"><ele>-10.0</ele><time>2026-04-30T09:34:05.659Z</time></trkpt><trkpt lat="34.0131632" lon="7.9363254"><ele>-10.0</ele><time>2026-04-30T09:34:06.673Z</time></trkpt><trkpt lat="34.0131631" lon="7.9364659"><ele>-10.0</ele><time>2026-04-30T09:34:07.662Z</time></trkpt><trkpt lat="34.0131645" lon="7.9366012"><ele>-10.0</ele><time>2026-04-30T09:34:08.669Z</time></trkpt><trkpt lat="34.0131698" lon="7.9367398"><ele>-10.0</ele><time>2026-04-30T09:34:09.668Z</time></trkpt><trkpt lat="34.0131754" lon="7.9368785"><ele>-10.25</ele><time>2026-04-30T09:34:10.675Z</time></trkpt><trkpt lat="34.0131841" lon="7.9370259"><ele>-10.5</ele><time>2026-04-30T09:34:11.677Z</time></trkpt><trkpt lat="34.0131875" lon="7.9371661"><ele>-10.75</ele><time>2026-04-30T09:34:12.674Z</time></trkpt><trkpt lat="34.013189" lon="7.9373056"><ele>-11.0</ele><time>2026-04-30T09:34:13.679Z</time></trkpt><trkpt lat="34.0131932" lon="7.9374408"><ele>-10.4</ele><time>2026-04-30T09:34:14.691Z</time></trkpt><trkpt lat="34.0132005" lon="7.937573"><ele>-9.8</ele><time>2026-04-30T09:34:15.669Z</time></trkpt><trkpt lat="34.0132065" lon="7.9377077"><ele>-9.200000000000001</ele><time>2026-04-30T09:34:16.639Z</time></trkpt><trkpt lat="34.0132115" lon="7.9378443"><ele>-8.600000000000001</ele><time>2026-04-30T09:34:17.647Z</time></trkpt><trkpt lat="34.0132154" lon="7.9379805"><ele>-8.0</ele><time>2026-04-30T09:34:18.702Z</time></trkpt><trkpt lat="34.0132177" lon="7.9381189"><ele>-8.0</ele><time>2026-04-30T09:34:19.661Z</time></trkpt><trkpt lat="34.0132357" lon="7.9386827"><ele>-8.0</ele><time>2026-04-30T09:34:23.637Z</time></trkpt><trkpt lat="34.0132397" lon="7.9388115"><ele>-8.0</ele><time>2026-04-30T09:34:24.64Z</time></trkpt><trkpt lat="34.0132488" lon="7.9389461"><ele>-8.0</ele><time>2026-04-30T09:34:25.67Z</time></trkpt><trkpt lat="34.0132624" lon="7.9390754"><ele>-8.0</ele><time>2026-04-30T09:34:26.668Z</time></trkpt><trkpt lat="34.0132766" lon="7.9392045"><ele>-8.0</ele><time>2026-04-30T09:34:27.657Z</time></trkpt><trkpt lat="34.0132877" lon="7.9393347"><ele>-8.5</ele><time>2026-04-30T09:34:28.66Z</time></trkpt><trkpt lat="34.0133004" lon="7.9394696"><ele>-9.0</ele><time>2026-04-30T09:34:29.659Z</time></trkpt><trkpt lat="34.0133101" lon="7.9396053"><ele>-9.5</ele><time>2026-04-30T09:34:30.651Z</time></trkpt><trkpt lat="34.0133149" lon="7.9397494"><ele>-10.0</ele><time>2026-04-30T09:34:31.653Z</time></trkpt><trkpt lat="34.0133177" lon="7.9398958"><ele>-9.75</ele><time>2026-04-30T09:34:32.69Z</time></trkpt><trkpt lat="34.0133228" lon="7.9400403"><ele>-9.5</ele><time>2026-04-30T09:34:33.64Z</time></trkpt><trkpt lat="34.0133302" lon="7.9401849"><ele>-9.25</ele><time>2026-04-30T09:34:34.638Z</time></trkpt><trkpt lat="34.0133382" lon="7.9403198"><ele>-9.0</ele><time>2026-04-30T09:34:35.652Z</time></trkpt><trkpt lat="34.0133452" lon="7.9404493"><ele>-9.0</ele><time>2026-04-30T09:34:36.682Z</time></trkpt><trkpt lat="34.0133514" lon="7.9405729"><ele>-9.0</ele><time>2026-04-30T09:34:37.658Z</time></trkpt><trkpt lat="34.0133616" lon="7.9406924"><ele>-9.0</ele><time>2026-04-30T09:34:38.663Z</time></trkpt><trkpt lat="34.0133772" lon="7.9408179"><ele>-9.0</ele><time>2026-04-30T09:34:39.664Z</time></trkpt><trkpt lat="34.0133961" lon="7.9409429"><ele>-9.0</ele><time>2026-04-30T09:34:40.678Z</time></trkpt><trkpt lat="34.0134164" lon="7.9410683"><ele>-9.0</ele><time>2026-04-30T09:34:41.684Z</time></trkpt><trkpt lat="34.0134381" lon="7.9411947"><ele>-9.0</ele><time>2026-04-30T09:34:42.652Z</time></trkpt><trkpt lat="34.0134618" lon="7.9413234"><ele>-9.0</ele><time>2026-04-30T09:34:43.664Z</time></trkpt><trkpt lat="34.0134803" lon="7.9414474"><ele>-9.0</ele><time>2026-04-30T09:34:44.67Z</time></trkpt><trkpt lat="34.0134928" lon="7.941574"><ele>-9.0</ele><time>2026-04-30T09:34:45.66Z</time></trkpt><trkpt lat="34.0135075" lon="7.9417081"><ele>-8.75</ele><time>2026-04-30T09:34:46.681Z</time></trkpt><trkpt lat="34.0135137" lon="7.9418547"><ele>-8.5</ele><time>2026-04-30T09:34:47.661Z</time></trkpt><trkpt lat="34.0135156" lon="7.9420019"><ele>-8.25</ele><time>2026-04-30T09:34:48.671Z</time></trkpt><trkpt lat="34.013513" lon="7.9421489"><ele>-8.0</ele><time>2026-04-30T09:34:49.683Z</time></trkpt><trkpt lat="34.0135111" lon="7.9422968"><ele>-8.0</ele><time>2026-04-30T09:34:50.675Z</time></trkpt><trkpt lat="34.0135084" lon="7.9424482"><ele>-8.0</ele><time>2026-04-30T09:34:51.664Z</time></trkpt><trkpt lat="34.0135091" lon="7.942594"><ele>-8.0</ele><time>2026-04-30T09:34:52.675Z</time></trkpt><trkpt lat="34.0135104" lon="7.9427399"><ele>-8.0</ele><time>2026-04-30T09:34:53.669Z</time></trkpt><trkpt lat="34.0135112" lon="7.9428875"><ele>-8.0</ele><time>2026-04-30T09:34:54.648Z</time></trkpt><trkpt lat="34.0135137" lon="7.9430328"><ele>-8.0</ele><time>2026-04-30T09:34:55.699Z</time></trkpt><trkpt lat="34.0135192" lon="7.9431734"><ele>-8.0</ele><time>2026-04-30T09:34:56.667Z</time></trkpt><trkpt lat="34.0135204" lon="7.9433134"><ele>-8.0</ele><time>2026-04-30T09:34:57.684Z</time></trkpt><trkpt lat="34.013523" lon="7.9434503"><ele>-8.0</ele><time>2026-04-30T09:34:58.667Z</time></trkpt><trkpt lat="34.0135294" lon="7.9435826"><ele>-8.0</ele><time>2026-04-30T09:34:59.671Z</time></trkpt><trkpt lat="34.0135332" lon="7.9437205"><ele>-8.0</ele><time>2026-04-30T09:35:00.673Z</time></trkpt><trkpt lat="34.013539" lon="7.9438577"><ele>-8.0</ele><time>2026-04-30T09:35:01.665Z</time></trkpt><trkpt lat="34.0135483" lon="7.9439925"><ele>-8.0</ele><time>2026-04-30T09:35:02.676Z</time></trkpt><trkpt lat="34.0135562" lon="7.9441263"><ele>-8.0</ele><time>2026-04-30T09:35:03.663Z</time></trkpt><trkpt lat="34.0135655" lon="7.9442583"><ele>-8.0</ele><time>2026-04-30T09:35:04.65Z</time></trkpt><trkpt lat="34.0135734" lon="7.9443911"><ele>-8.0</ele><time>2026-04-30T09:35:05.667Z</time></trkpt><trkpt lat="34.0135833" lon="7.9445249"><ele>-8.0</ele><time>2026-04-30T09:35:06.693Z</time></trkpt><trkpt lat="34.0135897" lon="7.9446597"><ele>-8.25</ele><time>2026-04-30T09:35:07.686Z</time></trkpt><trkpt lat="34.0135979" lon="7.9448004"><ele>-8.5</ele><time>2026-04-30T09:35:08.673Z</time></trkpt><trkpt lat="34.013604" lon="7.9449426"><ele>-8.75</ele><time>2026-04-30T09:35:09.652Z</time></trkpt><trkpt lat="34.0136136" lon="7.9450847"><ele>-9.0</ele><time>2026-04-30T09:35:10.67Z</time></trkpt><trkpt lat="34.013621" lon="7.9452268"><ele>-8.0</ele><time>2026-04-30T09:35:11.68Z</time></trkpt><trkpt lat="34.0136243" lon="7.9453675"><ele>-7.0</ele><time>2026-04-30T09:35:12.663Z</time></trkpt><trkpt lat="34.0136273" lon="7.9455092"><ele>-6.0</ele><time>2026-04-30T09:35:13.662Z</time></trkpt><trkpt lat="34.0136324" lon="7.9456479"><ele>-5.0</ele><time>2026-04-30T09:35:14.666Z</time></trkpt><trkpt lat="34.0136411" lon="7.9457847"><ele>-5.5</ele><time>2026-04-30T09:35:15.675Z</time></trkpt><trkpt lat="34.0136525" lon="7.9459248"><ele>-6.0</ele><time>2026-04-30T09:35:16.67Z</time></trkpt><trkpt lat="34.0136603" lon="7.9460686"><ele>-6.5</ele><time>2026-04-30T09:35:17.665Z</time></trkpt><trkpt lat="34.013666" lon="7.9462111"><ele>-7.0</ele><time>2026-04-30T09:35:18.693Z</time></trkpt><trkpt lat="34.0136769" lon="7.9463546"><ele>-7.0</ele><time>2026-04-30T09:35:19.699Z</time></trkpt><trkpt lat="34.0136915" lon="7.9464956"><ele>-7.0</ele><time>2026-04-30T09:35:20.646Z</time></trkpt><trkpt lat="34.0137014" lon="7.9466383"><ele>-7.0</ele><time>2026-04-30T09:35:21.69Z</time></trkpt><trkpt lat="34.0137086" lon="7.9467811"><ele>-7.0</ele><time>2026-04-30T09:35:22.657Z</time></trkpt><trkpt lat="34.0137192" lon="7.9469263"><ele>-7.0</ele><time>2026-04-30T09:35:23.754Z</time></trkpt><trkpt lat="34.0137335" lon="7.9470701"><ele>-7.0</ele><time>2026-04-30T09:35:24.662Z</time></trkpt><trkpt lat="34.0137427" lon="7.9472141"><ele>-7.0</ele><time>2026-04-30T09:35:25.686Z</time></trkpt><trkpt lat="34.0137519" lon="7.9473585"><ele>-7.0</ele><time>2026-04-30T09:35:26.657Z</time></trkpt><trkpt lat="34.013758" lon="7.9475043"><ele>-7.5</ele><time>2026-04-30T09:35:27.675Z</time></trkpt><trkpt lat="34.0137657" lon="7.9476588"><ele>-8.0</ele><time>2026-04-30T09:35:28.67Z</time></trkpt><trkpt lat="34.0137744" lon="7.947811"><ele>-8.5</ele><time>2026-04-30T09:35:29.666Z</time></trkpt><trkpt lat="34.0137787" lon="7.9479622"><ele>-9.0</ele><time>2026-04-30T09:35:30.679Z</time></trkpt><trkpt lat="34.0137875" lon="7.9481115"><ele>-9.0</ele><time>2026-04-30T09:35:31.657Z</time></trkpt><trkpt lat="34.0137938" lon="7.9482601"><ele>-9.0</ele><time>2026-04-30T09:35:32.67Z</time></trkpt><trkpt lat="34.0138005" lon="7.9484094"><ele>-9.0</ele><time>2026-04-30T09:35:33.662Z</time></trkpt><trkpt lat="34.0138095" lon="7.9485529"><ele>-9.0</ele><time>2026-04-30T09:35:34.697Z</time></trkpt><trkpt lat="34.0138166" lon="7.9486979"><ele>-9.0</ele><time>2026-04-30T09:35:35.669Z</time></trkpt><trkpt lat="34.0138234" lon="7.948843"><ele>-9.0</ele><time>2026-04-30T09:35:36.675Z</time></trkpt><trkpt lat="34.0138339" lon="7.9489887"><ele>-9.0</ele><time>2026-04-30T09:35:37.662Z</time></trkpt><trkpt lat="34.0138465" lon="7.9491318"><ele>-9.0</ele><time>2026-04-30T09:35:38.677Z</time></trkpt><trkpt lat="34.0138524" lon="7.9492743"><ele>-9.0</ele><time>2026-04-30T09:35:39.669Z</time></trkpt><trkpt lat="34.0138606" lon="7.9494174"><ele>-9.0</ele><time>2026-04-30T09:35:40.663Z</time></trkpt><trkpt lat="34.0138666" lon="7.949559"><ele>-9.0</ele><time>2026-04-30T09:35:41.677Z</time></trkpt><trkpt lat="34.0138723" lon="7.9496982"><ele>-9.0</ele><time>2026-04-30T09:35:42.683Z</time></trkpt><trkpt lat="34.0138786" lon="7.9498376"><ele>-9.0</ele><time>2026-04-30T09:35:43.696Z</time></trkpt><trkpt lat="34.013886" lon="7.9499785"><ele>-9.0</ele><time>2026-04-30T09:35:44.665Z</time></trkpt><trkpt lat="34.0138919" lon="7.9501232"><ele>-9.0</ele><time>2026-04-30T09:35:45.665Z</time></trkpt><trkpt lat="34.0139023" lon="7.9502609"><ele>-9.0</ele><time>2026-04-30T09:35:46.679Z</time></trkpt><trkpt lat="34.013914" lon="7.9503962"><ele>-9.0</ele><time>2026-04-30T09:35:47.674Z</time></trkpt><trkpt lat="34.0139207" lon="7.9505313"><ele>-9.0</ele><time>2026-04-30T09:35:48.662Z</time></trkpt><trkpt lat="34.013928" lon="7.9506688"><ele>-9.0</ele><time>2026-04-30T09:35:49.67Z</time></trkpt><trkpt lat="34.013934" lon="7.9508114"><ele>-9.0</ele><time>2026-04-30T09:35:50.677Z</time></trkpt><trkpt lat="34.013942" lon="7.9509485"><ele>-9.0</ele><time>2026-04-30T09:35:51.661Z</time></trkpt><trkpt lat="34.013945" lon="7.9510933"><ele>-9.0</ele><time>2026-04-30T09:35:52.675Z</time></trkpt><trkpt lat="34.0139486" lon="7.9512378"><ele>-9.0</ele><time>2026-04-30T09:35:53.676Z</time></trkpt><trkpt lat="34.0139531" lon="7.9513825"><ele>-9.0</ele><time>2026-04-30T09:35:54.655Z</time></trkpt><trkpt lat="34.0139549" lon="7.9515228"><ele>-9.0</ele><time>2026-04-30T09:35:55.654Z</time></trkpt><trkpt lat="34.0139562" lon="7.9516422"><ele>-9.0</ele><time>2026-04-30T09:35:56.681Z</time></trkpt><trkpt lat="34.0139582" lon="7.9517437"><ele>-9.0</ele><time>2026-04-30T09:35:57.666Z</time></trkpt><trkpt lat="34.0139564" lon="7.9518202"><ele>-9.0</ele><time>2026-04-30T09:35:58.649Z</time></trkpt><trkpt lat="34.01396" lon="7.9519136"><ele>-9.0</ele><time>2026-04-30T09:36:00.67Z</time></trkpt><trkpt lat="34.0139622" lon="7.9520062"><ele>-9.0</ele><time>2026-04-30T09:36:03.654Z</time></trkpt><trkpt lat="34.0139603" lon="7.9520835"><ele>-9.5</ele><time>2026-04-30T09:36:07.656Z</time></trkpt><trkpt lat="34.0139551" lon="7.9521897"><ele>-10.0</ele><time>2026-04-30T09:36:11.658Z</time></trkpt><trkpt lat="34.0139595" lon="7.9523087"><ele>-10.5</ele><time>2026-04-30T09:36:13.665Z</time></trkpt><trkpt lat="34.0139684" lon="7.9524454"><ele>-11.0</ele><time>2026-04-30T09:36:15.672Z</time></trkpt><trkpt lat="34.0139723" lon="7.9525239"><ele>-11.5</ele><time>2026-04-30T09:36:16.678Z</time></trkpt><trkpt lat="34.013979" lon="7.9526128"><ele>-12.0</ele><time>2026-04-30T09:36:17.677Z</time></trkpt><trkpt lat="34.0139835" lon="7.9527013"><ele>-12.285714285714285</ele><time>2026-04-30T09:36:18.665Z</time></trkpt><trkpt lat="34.0139946" lon="7.9527942"><ele>-12.571428571428571</ele><time>2026-04-30T09:36:19.664Z</time></trkpt><trkpt lat="34.0139992" lon="7.9528836"><ele>-12.857142857142858</ele><time>2026-04-30T09:36:20.681Z</time></trkpt><trkpt lat="34.0140002" lon="7.9529709"><ele>-13.142857142857142</ele><time>2026-04-30T09:36:21.684Z</time></trkpt><trkpt lat="34.0140025" lon="7.9530582"><ele>-13.428571428571429</ele><time>2026-04-30T09:36:22.669Z</time></trkpt><trkpt lat="34.0140072" lon="7.9531468"><ele>-13.714285714285714</ele><time>2026-04-30T09:36:23.661Z</time></trkpt><trkpt lat="34.0140165" lon="7.9532343"><ele>-14.0</ele><time>2026-04-30T09:36:24.683Z</time></trkpt><trkpt lat="34.014024" lon="7.9533153"><ele>-13.833333333333334</ele><time>2026-04-30T09:36:25.675Z</time></trkpt><trkpt lat="34.0140335" lon="7.9534002"><ele>-13.666666666666668</ele><time>2026-04-30T09:36:26.671Z</time></trkpt><trkpt lat="34.0140401" lon="7.9534856"><ele>-13.5</ele><time>2026-04-30T09:36:27.676Z</time></trkpt><trkpt lat="34.014047" lon="7.9535753"><ele>-13.333333333333332</ele><time>2026-04-30T09:36:28.667Z</time></trkpt><trkpt lat="34.0140518" lon="7.9536738"><ele>-13.166666666666666</ele><time>2026-04-30T09:36:29.682Z</time></trkpt><trkpt lat="34.0140602" lon="7.9537729"><ele>-13.0</ele><time>2026-04-30T09:36:30.676Z</time></trkpt><trkpt lat="34.0140742" lon="7.9538771"><ele>-13.0</ele><time>2026-04-30T09:36:31.69Z</time></trkpt><trkpt lat="34.014088" lon="7.9539825"><ele>-13.0</ele><time>2026-04-30T09:36:32.671Z</time></trkpt><trkpt lat="34.0141027" lon="7.9540986"><ele>-13.0</ele><time>2026-04-30T09:36:33.678Z</time></trkpt><trkpt lat="34.0141158" lon="7.9542286"><ele>-13.0</ele><time>2026-04-30T09:36:34.663Z</time></trkpt><trkpt lat="34.0141284" lon="7.9543561"><ele>-13.0</ele><time>2026-04-30T09:36:35.675Z</time></trkpt><trkpt lat="34.0141387" lon="7.954484"><ele>-12.600000000000001</ele><time>2026-04-30T09:36:36.671Z</time></trkpt><trkpt lat="34.0141473" lon="7.9546119"><ele>-12.200000000000001</ele><time>2026-04-30T09:36:37.665Z</time></trkpt><trkpt lat="34.0141545" lon="7.954745"><ele>-11.8</ele><time>2026-04-30T09:36:38.665Z</time></trkpt><trkpt lat="34.0141623" lon="7.9548823"><ele>-11.4</ele><time>2026-04-30T09:36:39.668Z</time></trkpt><trkpt lat="34.0141644" lon="7.9550167"><ele>-11.0</ele><time>2026-04-30T09:36:40.676Z</time></trkpt><trkpt lat="34.014166" lon="7.9551558"><ele>-10.25</ele><time>2026-04-30T09:36:41.682Z</time></trkpt><trkpt lat="34.0141672" lon="7.9552959"><ele>-9.5</ele><time>2026-04-30T09:36:42.658Z</time></trkpt><trkpt lat="34.0141701" lon="7.9554329"><ele>-8.75</ele><time>2026-04-30T09:36:43.67Z</time></trkpt><trkpt lat="34.0141725" lon="7.9555691"><ele>-8.0</ele><time>2026-04-30T09:36:44.679Z</time></trkpt><trkpt lat="34.0141714" lon="7.9557058"><ele>-7.999999999999999</ele><time>2026-04-30T09:36:45.657Z</time></trkpt><trkpt lat="34.0141672" lon="7.955825"><ele>-8.0</ele><time>2026-04-30T09:36:46.703Z</time></trkpt><trkpt lat="34.0141652" lon="7.955931"><ele>-8.0</ele><time>2026-04-30T09:36:47.66Z</time></trkpt><trkpt lat="34.0141646" lon="7.9560288"><ele>-8.0</ele><time>2026-04-30T09:36:48.665Z</time></trkpt><trkpt lat="34.0141646" lon="7.9561158"><ele>-7.999999999999999</ele><time>2026-04-30T09:36:49.677Z</time></trkpt><trkpt lat="34.0141605" lon="7.9561934"><ele>-8.0</ele><time>2026-04-30T09:36:50.673Z</time></trkpt><trkpt lat="34.0141573" lon="7.9563343"><ele>-8.333333333333332</ele><time>2026-04-30T09:36:52.676Z</time></trkpt><trkpt lat="34.0141615" lon="7.9564143"><ele>-8.666666666666666</ele><time>2026-04-30T09:36:53.673Z</time></trkpt><trkpt lat="34.0141658" lon="7.9564932"><ele>-9.0</ele><time>2026-04-30T09:36:54.672Z</time></trkpt><trkpt lat="34.0141706" lon="7.9565751"><ele>-9.333333333333334</ele><time>2026-04-30T09:36:55.692Z</time></trkpt><trkpt lat="34.014174" lon="7.9566553"><ele>-9.666666666666668</ele><time>2026-04-30T09:36:56.677Z</time></trkpt><trkpt lat="34.0141776" lon="7.9567357"><ele>-10.0</ele><time>2026-04-30T09:36:57.677Z</time></trkpt><trkpt lat="34.014182" lon="7.9568885"><ele>-10.333333333333334</ele><time>2026-04-30T09:36:59.681Z</time></trkpt><trkpt lat="34.0141822" lon="7.9569755"><ele>-10.666666666666668</ele><time>2026-04-30T09:37:00.671Z</time></trkpt><trkpt lat="34.0141859" lon="7.9570708"><ele>-11.0</ele><time>2026-04-30T09:37:01.674Z</time></trkpt><trkpt lat="34.0141878" lon="7.9571705"><ele>-11.333333333333334</ele><time>2026-04-30T09:37:02.672Z</time></trkpt><trkpt lat="34.0141958" lon="7.9572824"><ele>-11.666666666666666</ele><time>2026-04-30T09:37:03.657Z</time></trkpt><trkpt lat="34.014201" lon="7.9573919"><ele>-12.0</ele><time>2026-04-30T09:37:04.681Z</time></trkpt><trkpt lat="34.0142046" lon="7.9575007"><ele>-11.8</ele><time>2026-04-30T09:37:05.692Z</time></trkpt><trkpt lat="34.0142116" lon="7.957617"><ele>-11.6</ele><time>2026-04-30T09:37:06.691Z</time></trkpt><trkpt lat="34.0142141" lon="7.9577348"><ele>-11.4</ele><time>2026-04-30T09:37:07.667Z</time></trkpt><trkpt lat="34.0142196" lon="7.9578625"><ele>-11.200000000000001</ele><time>2026-04-30T09:37:08.671Z</time></trkpt><trkpt lat="34.0142268" lon="7.958007"><ele>-11.0</ele><time>2026-04-30T09:37:09.662Z</time></trkpt><trkpt lat="34.014239" lon="7.9581614"><ele>-11.0</ele><time>2026-04-30T09:37:10.654Z</time></trkpt><trkpt lat="34.0142418" lon="7.958329"><ele>-11.0</ele><time>2026-04-30T09:37:11.679Z</time></trkpt><trkpt lat="34.0142496" lon="7.9584989"><ele>-11.0</ele><time>2026-04-30T09:37:12.677Z</time></trkpt><trkpt lat="34.0142592" lon="7.9586707"><ele>-11.0</ele><time>2026-04-30T09:37:13.676Z</time></trkpt><trkpt lat="34.0142643" lon="7.9588506"><ele>-11.0</ele><time>2026-04-30T09:37:14.673Z</time></trkpt><trkpt lat="34.0142739" lon="7.9590224"><ele>-11.0</ele><time>2026-04-30T09:37:15.659Z</time></trkpt><trkpt lat="34.0142833" lon="7.9591925"><ele>-11.0</ele><time>2026-04-30T09:37:16.671Z</time></trkpt><trkpt lat="34.0142891" lon="7.959362"><ele>-11.0</ele><time>2026-04-30T09:37:17.674Z</time></trkpt><trkpt lat="34.0142948" lon="7.9595288"><ele>-10.75</ele><time>2026-04-30T09:37:18.661Z</time></trkpt><trkpt lat="34.0143053" lon="7.9596971"><ele>-10.5</ele><time>2026-04-30T09:37:19.658Z</time></trkpt><trkpt lat="34.0143148" lon="7.9598602"><ele>-10.25</ele><time>2026-04-30T09:37:20.673Z</time></trkpt><trkpt lat="34.0143236" lon="7.9600213"><ele>-10.0</ele><time>2026-04-30T09:37:21.676Z</time></trkpt><trkpt lat="34.0143268" lon="7.9601787"><ele>-10.0</ele><time>2026-04-30T09:37:22.671Z</time></trkpt><trkpt lat="34.0143294" lon="7.9603345"><ele>-10.0</ele><time>2026-04-30T09:37:23.683Z</time></trkpt><trkpt lat="34.0143303" lon="7.9604927"><ele>-10.0</ele><time>2026-04-30T09:37:24.673Z</time></trkpt><trkpt lat="34.0143322" lon="7.9606459"><ele>-10.0</ele><time>2026-04-30T09:37:25.678Z</time></trkpt><trkpt lat="34.0143334" lon="7.9607982"><ele>-10.6</ele><time>2026-04-30T09:37:26.681Z</time></trkpt><trkpt lat="34.0143352" lon="7.9609417"><ele>-11.2</ele><time>2026-04-30T09:37:27.681Z</time></trkpt><trkpt lat="34.014338" lon="7.9610812"><ele>-11.8</ele><time>2026-04-30T09:37:28.667Z</time></trkpt><trkpt lat="34.0143421" lon="7.9611991"><ele>-12.4</ele><time>2026-04-30T09:37:29.674Z</time></trkpt><trkpt lat="34.0143407" lon="7.9613066"><ele>-13.0</ele><time>2026-04-30T09:37:30.675Z</time></trkpt><trkpt lat="34.0143392" lon="7.961413"><ele>-13.0</ele><time>2026-04-30T09:37:31.671Z</time></trkpt><trkpt lat="34.0143402" lon="7.9615237"><ele>-13.0</ele><time>2026-04-30T09:37:32.667Z</time></trkpt><trkpt lat="34.014345" lon="7.9616428"><ele>-13.0</ele><time>2026-04-30T09:37:33.679Z</time></trkpt><trkpt lat="34.0143497" lon="7.9617639"><ele>-13.0</ele><time>2026-04-30T09:37:34.681Z</time></trkpt><trkpt lat="34.014354" lon="7.9618853"><ele>-13.0</ele><time>2026-04-30T09:37:35.664Z</time></trkpt><trkpt lat="34.0143572" lon="7.9620072"><ele>-12.8</ele><time>2026-04-30T09:37:36.665Z</time></trkpt><trkpt lat="34.0143589" lon="7.9621286"><ele>-12.600000000000001</ele><time>2026-04-30T09:37:37.672Z</time></trkpt><trkpt lat="34.0143626" lon="7.9622503"><ele>-12.399999999999999</ele><time>2026-04-30T09:37:38.681Z</time></trkpt><trkpt lat="34.0143687" lon="7.9623674"><ele>-12.2</ele><time>2026-04-30T09:37:39.669Z</time></trkpt><trkpt lat="34.0143739" lon="7.9624844"><ele>-12.0</ele><time>2026-04-30T09:37:40.679Z</time></trkpt><trkpt lat="34.014377" lon="7.9626037"><ele>-11.4</ele><time>2026-04-30T09:37:41.66Z</time></trkpt><trkpt lat="34.0143751" lon="7.9627262"><ele>-10.799999999999999</ele><time>2026-04-30T09:37:42.669Z</time></trkpt><trkpt lat="34.0143647" lon="7.9628518"><ele>-10.2</ele><time>2026-04-30T09:37:43.669Z</time></trkpt><trkpt lat="34.0143531" lon="7.9629729"><ele>-9.6</ele><time>2026-04-30T09:37:44.681Z</time></trkpt><trkpt lat="34.0143408" lon="7.9630886"><ele>-9.0</ele><time>2026-04-30T09:37:45.672Z</time></trkpt><trkpt lat="34.014329" lon="7.9632"><ele>-9.0</ele><time>2026-04-30T09:37:46.679Z</time></trkpt><trkpt lat="34.0143204" lon="7.9633159"><ele>-9.0</ele><time>2026-04-30T09:37:47.687Z</time></trkpt><trkpt lat="34.0143133" lon="7.9634264"><ele>-9.0</ele><time>2026-04-30T09:37:48.677Z</time></trkpt><trkpt lat="34.0142992" lon="7.9635329"><ele>-9.0</ele><time>2026-04-30T09:37:49.677Z</time></trkpt><trkpt lat="34.0142822" lon="7.9636448"><ele>-9.0</ele><time>2026-04-30T09:37:50.672Z</time></trkpt><trkpt lat="34.0142688" lon="7.9637558"><ele>-9.0</ele><time>2026-04-30T09:37:51.667Z</time></trkpt><trkpt lat="34.0142608" lon="7.9638717"><ele>-9.0</ele><time>2026-04-30T09:37:52.667Z</time></trkpt><trkpt lat="34.014253" lon="7.9639822"><ele>-9.0</ele><time>2026-04-30T09:37:53.676Z</time></trkpt><trkpt lat="34.0142416" lon="7.964092"><ele>-9.0</ele><time>2026-04-30T09:37:54.674Z</time></trkpt><trkpt lat="34.0142325" lon="7.9641919"><ele>-9.0</ele><time>2026-04-30T09:37:55.675Z</time></trkpt><trkpt lat="34.0142296" lon="7.9642849"><ele>-9.0</ele><time>2026-04-30T09:37:56.659Z</time></trkpt><trkpt lat="34.0142362" lon="7.9643808"><ele>-9.333333333333334</ele><time>2026-04-30T09:37:57.663Z</time></trkpt><trkpt lat="34.0142494" lon="7.9644824"><ele>-9.666666666666666</ele><time>2026-04-30T09:37:58.68Z</time></trkpt><trkpt lat="34.0142613" lon="7.9645847"><ele>-10.0</ele><time>2026-04-30T09:37:59.723Z</time></trkpt><trkpt lat="34.0142731" lon="7.9646903"><ele>-10.333333333333332</ele><time>2026-04-30T09:38:00.687Z</time></trkpt><trkpt lat="34.0142877" lon="7.9648022"><ele>-10.666666666666666</ele><time>2026-04-30T09:38:01.67Z</time></trkpt><trkpt lat="34.0143001" lon="7.9649074"><ele>-11.0</ele><time>2026-04-30T09:38:02.673Z</time></trkpt><trkpt lat="34.014305" lon="7.9650152"><ele>-11.0</ele><time>2026-04-30T09:38:03.663Z</time></trkpt><trkpt lat="34.0143135" lon="7.9651301"><ele>-11.0</ele><time>2026-04-30T09:38:04.662Z</time></trkpt><trkpt lat="34.014327" lon="7.9652423"><ele>-11.0</ele><time>2026-04-30T09:38:05.677Z</time></trkpt><trkpt lat="34.014347" lon="7.965354"><ele>-11.0</ele><time>2026-04-30T09:38:06.669Z</time></trkpt><trkpt lat="34.0143611" lon="7.9654638"><ele>-11.0</ele><time>2026-04-30T09:38:07.665Z</time></trkpt><trkpt lat="34.0143712" lon="7.9655774"><ele>-11.0</ele><time>2026-04-30T09:38:08.688Z</time></trkpt><trkpt lat="34.0143837" lon="7.9656959"><ele>-11.0</ele><time>2026-04-30T09:38:09.657Z</time></trkpt><trkpt lat="34.0143935" lon="7.9658175"><ele>-11.0</ele><time>2026-04-30T09:38:10.661Z</time></trkpt><trkpt lat="34.0144045" lon="7.965937"><ele>-11.0</ele><time>2026-04-30T09:38:11.665Z</time></trkpt><trkpt lat="34.0144133" lon="7.9660563"><ele>-11.0</ele><time>2026-04-30T09:38:12.687Z</time></trkpt><trkpt lat="34.0144227" lon="7.9661697"><ele>-11.0</ele><time>2026-04-30T09:38:13.689Z</time></trkpt><trkpt lat="34.0144384" lon="7.9662743"><ele>-11.0</ele><time>2026-04-30T09:38:14.641Z</time></trkpt><trkpt lat="34.0144567" lon="7.9663708"><ele>-11.0</ele><time>2026-04-30T09:38:15.674Z</time></trkpt><trkpt lat="34.0144737" lon="7.9664668"><ele>-11.0</ele><time>2026-04-30T09:38:16.683Z</time></trkpt><trkpt lat="34.0144874" lon="7.9665738"><ele>-11.0</ele><time>2026-04-30T09:38:17.676Z</time></trkpt><trkpt lat="34.0145052" lon="7.9666786"><ele>-11.0</ele><time>2026-04-30T09:38:18.683Z</time></trkpt><trkpt lat="34.0145256" lon="7.966788"><ele>-10.8</ele><time>2026-04-30T09:38:19.673Z</time></trkpt><trkpt lat="34.0145448" lon="7.9668914"><ele>-10.600000000000001</ele><time>2026-04-30T09:38:20.677Z</time></trkpt><trkpt lat="34.0145631" lon="7.967002"><ele>-10.4</ele><time>2026-04-30T09:38:21.661Z</time></trkpt><trkpt lat="34.0145763" lon="7.9671109"><ele>-10.2</ele><time>2026-04-30T09:38:22.674Z</time></trkpt><trkpt lat="34.0145812" lon="7.9672156"><ele>-10.0</ele><time>2026-04-30T09:38:23.675Z</time></trkpt><trkpt lat="34.014583" lon="7.9673299"><ele>-10.0</ele><time>2026-04-30T09:38:24.66Z</time></trkpt><trkpt lat="34.0145796" lon="7.9674473"><ele>-10.0</ele><time>2026-04-30T09:38:25.671Z</time></trkpt><trkpt lat="34.0145676" lon="7.9675653"><ele>-10.0</ele><time>2026-04-30T09:38:26.671Z</time></trkpt><trkpt lat="34.0145525" lon="7.9676868"><ele>-10.0</ele><time>2026-04-30T09:38:27.653Z</time></trkpt><trkpt lat="34.014548" lon="7.967815"><ele>-10.0</ele><time>2026-04-30T09:38:28.67Z</time></trkpt><trkpt lat="34.01455" lon="7.9679304"><ele>-10.2</ele><time>2026-04-30T09:38:29.676Z</time></trkpt><trkpt lat="34.0145563" lon="7.9680461"><ele>-10.4</ele><time>2026-04-30T09:38:30.666Z</time></trkpt><trkpt lat="34.0145636" lon="7.9681693"><ele>-10.600000000000001</ele><time>2026-04-30T09:38:31.662Z</time></trkpt><trkpt lat="34.0145767" lon="7.9682886"><ele>-10.8</ele><time>2026-04-30T09:38:32.664Z</time></trkpt><trkpt lat="34.0146" lon="7.9684001"><ele>-11.0</ele><time>2026-04-30T09:38:33.683Z</time></trkpt><trkpt lat="34.0146193" lon="7.968504"><ele>-11.285714285714286</ele><time>2026-04-30T09:38:34.662Z</time></trkpt><trkpt lat="34.0146418" lon="7.9686059"><ele>-11.571428571428571</ele><time>2026-04-30T09:38:35.68Z</time></trkpt><trkpt lat="34.0146604" lon="7.9686938"><ele>-11.857142857142858</ele><time>2026-04-30T09:38:36.664Z</time></trkpt><trkpt lat="34.0146839" lon="7.9687775"><ele>-12.142857142857142</ele><time>2026-04-30T09:38:37.682Z</time></trkpt><trkpt lat="34.0147044" lon="7.9688507"><ele>-12.428571428571429</ele><time>2026-04-30T09:38:38.673Z</time></trkpt><trkpt lat="34.0147183" lon="7.9689271"><ele>-12.714285714285714</ele><time>2026-04-30T09:38:39.661Z</time></trkpt><trkpt lat="34.0147304" lon="7.969003"><ele>-13.0</ele><time>2026-04-30T09:38:40.66Z</time></trkpt><trkpt lat="34.014739" lon="7.9690818"><ele>-13.0</ele><time>2026-04-30T09:38:41.671Z</time></trkpt><trkpt lat="34.0147507" lon="7.9691687"><ele>-13.0</ele><time>2026-04-30T09:38:42.683Z</time></trkpt><trkpt lat="34.0147599" lon="7.969259"><ele>-13.0</ele><time>2026-04-30T09:38:43.683Z</time></trkpt><trkpt lat="34.0147657" lon="7.9693469"><ele>-13.0</ele><time>2026-04-30T09:38:44.659Z</time></trkpt><trkpt lat="34.014773" lon="7.9694363"><ele>-13.0</ele><time>2026-04-30T09:38:45.67Z</time></trkpt><trkpt lat="34.0147796" lon="7.9695229"><ele>-13.0</ele><time>2026-04-30T09:38:46.665Z</time></trkpt><trkpt lat="34.0147779" lon="7.969608"><ele>-13.0</ele><time>2026-04-30T09:38:47.672Z</time></trkpt><trkpt lat="34.014773" lon="7.9696967"><ele>-13.0</ele><time>2026-04-30T09:38:48.673Z</time></trkpt><trkpt lat="34.0147652" lon="7.9697785"><ele>-13.0</ele><time>2026-04-30T09:38:49.678Z</time></trkpt><trkpt lat="34.0147573" lon="7.9698573"><ele>-13.0</ele><time>2026-04-30T09:38:50.679Z</time></trkpt><trkpt lat="34.0147455" lon="7.9699374"><ele>-13.0</ele><time>2026-04-30T09:38:51.668Z</time></trkpt><trkpt lat="34.0147329" lon="7.9700165"><ele>-13.0</ele><time>2026-04-30T09:38:52.675Z</time></trkpt><trkpt lat="34.0147255" lon="7.9700937"><ele>-13.0</ele><time>2026-04-30T09:38:53.666Z</time></trkpt><trkpt lat="34.0147205" lon="7.9701709"><ele>-13.0</ele><time>2026-04-30T09:38:54.692Z</time></trkpt><trkpt lat="34.0147177" lon="7.9702479"><ele>-12.999999999999998</ele><time>2026-04-30T09:38:55.664Z</time></trkpt><trkpt lat="34.0147054" lon="7.9704041"><ele>-13.0</ele><time>2026-04-30T09:38:57.673Z</time></trkpt><trkpt lat="34.0146966" lon="7.9704863"><ele>-13.0</ele><time>2026-04-30T09:38:58.667Z</time></trkpt><trkpt lat="34.0146896" lon="7.9705674"><ele>-13.0</ele><time>2026-04-30T09:38:59.661Z</time></trkpt><trkpt lat="34.0146825" lon="7.9706473"><ele>-12.999999999999998</ele><time>2026-04-30T09:39:00.662Z</time></trkpt><trkpt lat="34.0146714" lon="7.9707238"><ele>-13.0</ele><time>2026-04-30T09:39:01.661Z</time></trkpt><trkpt lat="34.0146603" lon="7.9708072"><ele>-13.0</ele><time>2026-04-30T09:39:02.658Z</time></trkpt><trkpt lat="34.0146524" lon="7.9708907"><ele>-13.0</ele><time>2026-04-30T09:39:03.667Z</time></trkpt><trkpt lat="34.0146484" lon="7.970967"><ele>-13.0</ele><time>2026-04-30T09:39:04.669Z</time></trkpt><trkpt lat="34.0146407" lon="7.9710424"><ele>-13.0</ele><time>2026-04-30T09:39:05.685Z</time></trkpt><trkpt lat="34.0146373" lon="7.9711259"><ele>-13.0</ele><time>2026-04-30T09:39:06.653Z</time></trkpt><trkpt lat="34.0146306" lon="7.9712257"><ele>-13.0</ele><time>2026-04-30T09:39:07.665Z</time></trkpt><trkpt lat="34.014621" lon="7.9713428"><ele>-13.0</ele><time>2026-04-30T09:39:08.655Z</time></trkpt><trkpt lat="34.0146113" lon="7.9714675"><ele>-13.0</ele><time>2026-04-30T09:39:09.668Z</time></trkpt><trkpt lat="34.0146004" lon="7.9715923"><ele>-13.0</ele><time>2026-04-30T09:39:10.664Z</time></trkpt><trkpt lat="34.0145892" lon="7.9717137"><ele>-13.0</ele><time>2026-04-30T09:39:11.671Z</time></trkpt><trkpt lat="34.0145752" lon="7.9718414"><ele>-13.0</ele><time>2026-04-30T09:39:12.66Z</time></trkpt><trkpt lat="34.0145601" lon="7.9719662"><ele>-13.0</ele><time>2026-04-30T09:39:13.674Z</time></trkpt><trkpt lat="34.0145471" lon="7.9720855"><ele>-13.0</ele><time>2026-04-30T09:39:14.665Z</time></trkpt><trkpt lat="34.0145386" lon="7.9722023"><ele>-13.0</ele><time>2026-04-30T09:39:15.679Z</time></trkpt><trkpt lat="34.0145316" lon="7.9723191"><ele>-13.0</ele><time>2026-04-30T09:39:16.675Z</time></trkpt><trkpt lat="34.0145271" lon="7.9724304"><ele>-13.0</ele><time>2026-04-30T09:39:17.662Z</time></trkpt><trkpt lat="34.0145234" lon="7.9725436"><ele>-13.0</ele><time>2026-04-30T09:39:18.67Z</time></trkpt><trkpt lat="34.0145223" lon="7.9726506"><ele>-13.166666666666666</ele><time>2026-04-30T09:39:19.671Z</time></trkpt><trkpt lat="34.0145248" lon="7.9727572"><ele>-13.333333333333332</ele><time>2026-04-30T09:39:20.68Z</time></trkpt><trkpt lat="34.0145224" lon="7.9728653"><ele>-13.5</ele><time>2026-04-30T09:39:21.664Z</time></trkpt><trkpt lat="34.0145223" lon="7.972972"><ele>-13.666666666666668</ele><time>2026-04-30T09:39:22.678Z</time></trkpt><trkpt lat="34.0145262" lon="7.9730761"><ele>-13.833333333333334</ele><time>2026-04-30T09:39:23.673Z</time></trkpt><trkpt lat="34.0145278" lon="7.973182"><ele>-14.0</ele><time>2026-04-30T09:39:24.687Z</time></trkpt><trkpt lat="34.0145258" lon="7.9732871"><ele>-14.2</ele><time>2026-04-30T09:39:25.695Z</time></trkpt><trkpt lat="34.014522" lon="7.9733933"><ele>-14.399999999999999</ele><time>2026-04-30T09:39:26.675Z</time></trkpt><trkpt lat="34.0145179" lon="7.9735047"><ele>-14.6</ele><time>2026-04-30T09:39:27.71Z</time></trkpt><trkpt lat="34.0145123" lon="7.9736249"><ele>-14.8</ele><time>2026-04-30T09:39:28.668Z</time></trkpt><trkpt lat="34.0145088" lon="7.9737412"><ele>-15.0</ele><time>2026-04-30T09:39:29.657Z</time></trkpt><trkpt lat="34.0144996" lon="7.9738576"><ele>-15.0</ele><time>2026-04-30T09:39:30.661Z</time></trkpt><trkpt lat="34.0144856" lon="7.9739748"><ele>-15.0</ele><time>2026-04-30T09:39:31.664Z</time></trkpt><trkpt lat="34.01447" lon="7.9740918"><ele>-15.0</ele><time>2026-04-30T09:39:32.668Z</time></trkpt><trkpt lat="34.0144547" lon="7.9742064"><ele>-15.0</ele><time>2026-04-30T09:39:33.673Z</time></trkpt><trkpt lat="34.0144361" lon="7.9743242"><ele>-15.0</ele><time>2026-04-30T09:39:34.665Z</time></trkpt><trkpt lat="34.014415" lon="7.9744367"><ele>-14.8</ele><time>2026-04-30T09:39:35.68Z</time></trkpt><trkpt lat="34.0143879" lon="7.9745505"><ele>-14.6</ele><time>2026-04-30T09:39:36.673Z</time></trkpt><trkpt lat="34.0143606" lon="7.9746631"><ele>-14.399999999999999</ele><time>2026-04-30T09:39:37.68Z</time></trkpt><trkpt lat="34.0143376" lon="7.9747724"><ele>-14.2</ele><time>2026-04-30T09:39:38.662Z</time></trkpt><trkpt lat="34.0143105" lon="7.9748807"><ele>-14.0</ele><time>2026-04-30T09:39:39.671Z</time></trkpt><trkpt lat="34.01429" lon="7.9749908"><ele>-14.166666666666668</ele><time>2026-04-30T09:39:40.679Z</time></trkpt><trkpt lat="34.0142696" lon="7.9751003"><ele>-14.333333333333334</ele><time>2026-04-30T09:39:41.684Z</time></trkpt><trkpt lat="34.0142542" lon="7.9752043"><ele>-14.5</ele><time>2026-04-30T09:39:42.656Z</time></trkpt><trkpt lat="34.0142416" lon="7.9753075"><ele>-14.666666666666668</ele><time>2026-04-30T09:39:43.67Z</time></trkpt><trkpt lat="34.0142274" lon="7.9754116"><ele>-14.833333333333334</ele><time>2026-04-30T09:39:44.668Z</time></trkpt><trkpt lat="34.0142125" lon="7.9755182"><ele>-15.0</ele><time>2026-04-30T09:39:45.671Z</time></trkpt><trkpt lat="34.0141959" lon="7.9756196"><ele>-15.0</ele><time>2026-04-30T09:39:46.679Z</time></trkpt><trkpt lat="34.0141831" lon="7.975726"><ele>-15.0</ele><time>2026-04-30T09:39:47.673Z</time></trkpt><trkpt lat="34.0141693" lon="7.9758249"><ele>-15.0</ele><time>2026-04-30T09:39:48.658Z</time></trkpt><trkpt lat="34.0141626" lon="7.9759209"><ele>-15.0</ele><time>2026-04-30T09:39:49.665Z</time></trkpt><trkpt lat="34.0141596" lon="7.9760176"><ele>-15.0</ele><time>2026-04-30T09:39:50.67Z</time></trkpt><trkpt lat="34.0141527" lon="7.9761085"><ele>-15.0</ele><time>2026-04-30T09:39:51.668Z</time></trkpt><trkpt lat="34.0141402" lon="7.9762093"><ele>-14.6</ele><time>2026-04-30T09:39:52.677Z</time></trkpt><trkpt lat="34.0141247" lon="7.9763172"><ele>-14.2</ele><time>2026-04-30T09:39:53.67Z</time></trkpt><trkpt lat="34.0141035" lon="7.9764323"><ele>-13.8</ele><time>2026-04-30T09:39:54.673Z</time></trkpt><trkpt lat="34.0140831" lon="7.976547"><ele>-13.4</ele><time>2026-04-30T09:39:55.679Z</time></trkpt><trkpt lat="34.0140622" lon="7.9766627"><ele>-13.0</ele><time>2026-04-30T09:39:56.676Z</time></trkpt><trkpt lat="34.0140415" lon="7.9767703"><ele>-12.999999999999998</ele><time>2026-04-30T09:39:57.682Z</time></trkpt><trkpt lat="34.0140157" lon="7.9768775"><ele>-13.0</ele><time>2026-04-30T09:39:58.689Z</time></trkpt><trkpt lat="34.0139919" lon="7.9769796"><ele>-13.0</ele><time>2026-04-30T09:39:59.668Z</time></trkpt><trkpt lat="34.0139728" lon="7.9770831"><ele>-13.0</ele><time>2026-04-30T09:40:00.679Z</time></trkpt><trkpt lat="34.0139514" lon="7.9771852"><ele>-12.999999999999998</ele><time>2026-04-30T09:40:01.677Z</time></trkpt><trkpt lat="34.0139295" lon="7.9772917"><ele>-13.0</ele><time>2026-04-30T09:40:02.654Z</time></trkpt><trkpt lat="34.0139048" lon="7.9773982"><ele>-13.0</ele><time>2026-04-30T09:40:03.659Z</time></trkpt><trkpt lat="34.0138788" lon="7.9775083"><ele>-13.0</ele><time>2026-04-30T09:40:04.67Z</time></trkpt><trkpt lat="34.0138524" lon="7.9776178"><ele>-13.0</ele><time>2026-04-30T09:40:05.676Z</time></trkpt><trkpt lat="34.0138276" lon="7.9777366"><ele>-13.0</ele><time>2026-04-30T09:40:06.666Z</time></trkpt><trkpt lat="34.013806" lon="7.9778508"><ele>-13.0</ele><time>2026-04-30T09:40:07.676Z</time></trkpt><trkpt lat="34.0137855" lon="7.9779662"><ele>-13.4</ele><time>2026-04-30T09:40:08.658Z</time></trkpt><trkpt lat="34.0137635" lon="7.9780874"><ele>-13.8</ele><time>2026-04-30T09:40:09.689Z</time></trkpt><trkpt lat="34.0137427" lon="7.9782071"><ele>-14.2</ele><time>2026-04-30T09:40:10.68Z</time></trkpt><trkpt lat="34.0137226" lon="7.9783222"><ele>-14.6</ele><time>2026-04-30T09:40:11.665Z</time></trkpt><trkpt lat="34.0136966" lon="7.9784277"><ele>-15.0</ele><time>2026-04-30T09:40:12.668Z</time></trkpt><trkpt lat="34.013673" lon="7.9785331"><ele>-15.2</ele><time>2026-04-30T09:40:13.667Z</time></trkpt><trkpt lat="34.0136466" lon="7.9786382"><ele>-15.4</ele><time>2026-04-30T09:40:14.669Z</time></trkpt><trkpt lat="34.0136199" lon="7.9787403"><ele>-15.600000000000001</ele><time>2026-04-30T09:40:15.649Z</time></trkpt><trkpt lat="34.013598" lon="7.9788446"><ele>-15.8</ele><time>2026-04-30T09:40:16.681Z</time></trkpt><trkpt lat="34.0135739" lon="7.9789471"><ele>-16.0</ele><time>2026-04-30T09:40:17.676Z</time></trkpt><trkpt lat="34.0135449" lon="7.979053"><ele>-15.999999999999998</ele><time>2026-04-30T09:40:18.674Z</time></trkpt><trkpt lat="34.0135201" lon="7.9791567"><ele>-16.0</ele><time>2026-04-30T09:40:19.665Z</time></trkpt><trkpt lat="34.0134934" lon="7.9792576"><ele>-16.0</ele><time>2026-04-30T09:40:20.667Z</time></trkpt><trkpt lat="34.0134671" lon="7.9793516"><ele>-16.0</ele><time>2026-04-30T09:40:21.668Z</time></trkpt><trkpt lat="34.013442" lon="7.9794508"><ele>-15.999999999999998</ele><time>2026-04-30T09:40:22.679Z</time></trkpt><trkpt lat="34.0134092" lon="7.9795494"><ele>-16.0</ele><time>2026-04-30T09:40:23.665Z</time></trkpt><trkpt lat="34.0133814" lon="7.9796385"><ele>-15.833333333333332</ele><time>2026-04-30T09:40:24.677Z</time></trkpt><trkpt lat="34.0133538" lon="7.9797279"><ele>-15.666666666666666</ele><time>2026-04-30T09:40:25.674Z</time></trkpt><trkpt lat="34.0133257" lon="7.9798154"><ele>-15.5</ele><time>2026-04-30T09:40:26.686Z</time></trkpt><trkpt lat="34.0133022" lon="7.9799084"><ele>-15.333333333333332</ele><time>2026-04-30T09:40:27.676Z</time></trkpt><trkpt lat="34.013279" lon="7.9799936"><ele>-15.166666666666666</ele><time>2026-04-30T09:40:28.656Z</time></trkpt><trkpt lat="34.0132573" lon="7.9800756"><ele>-15.0</ele><time>2026-04-30T09:40:29.69Z</time></trkpt><trkpt lat="34.0132351" lon="7.9801558"><ele>-15.0</ele><time>2026-04-30T09:40:30.667Z</time></trkpt><trkpt lat="34.0132007" lon="7.9803021"><ele>-15.0</ele><time>2026-04-30T09:40:32.665Z</time></trkpt><trkpt lat="34.0131695" lon="7.9804341"><ele>-15.0</ele><time>2026-04-30T09:40:34.691Z</time></trkpt><trkpt lat="34.0131309" lon="7.9805683"><ele>-15.0</ele><time>2026-04-30T09:40:36.693Z</time></trkpt><trkpt lat="34.0131088" lon="7.9806403"><ele>-15.0</ele><time>2026-04-30T09:40:37.69Z</time></trkpt><trkpt lat="34.0130851" lon="7.9807151"><ele>-14.8</ele><time>2026-04-30T09:40:38.67Z</time></trkpt><trkpt lat="34.0130457" lon="7.9808529"><ele>-14.6</ele><time>2026-04-30T09:40:40.675Z</time></trkpt><trkpt lat="34.0130135" lon="7.980991"><ele>-14.399999999999999</ele><time>2026-04-30T09:40:42.695Z</time></trkpt><trkpt lat="34.0129944" lon="7.9810679"><ele>-14.2</ele><time>2026-04-30T09:40:43.682Z</time></trkpt><trkpt lat="34.0129619" lon="7.9811969"><ele>-14.0</ele><time>2026-04-30T09:40:45.667Z</time></trkpt><trkpt lat="34.0129317" lon="7.981297"><ele>-14.000000000000002</ele><time>2026-04-30T09:40:47.669Z</time></trkpt><trkpt lat="34.0129092" lon="7.9814024"><ele>-14.0</ele><time>2026-04-30T09:40:50.663Z</time></trkpt><trkpt lat="34.0128853" lon="7.98149"><ele>-14.0</ele><time>2026-04-30T09:40:54.678Z</time></trkpt><trkpt lat="34.0128762" lon="7.9815874"><ele>-14.0</ele><time>2026-04-30T09:41:07.671Z</time></trkpt><trkpt lat="34.0128516" lon="7.9817028"><ele>-14.000000000000002</ele><time>2026-04-30T09:41:09.674Z</time></trkpt><trkpt lat="34.0128379" lon="7.9817772"><ele>-14.0</ele><time>2026-04-30T09:41:10.671Z</time></trkpt><trkpt lat="34.0128249" lon="7.9818579"><ele>-13.833333333333334</ele><time>2026-04-30T09:41:11.672Z</time></trkpt><trkpt lat="34.0128074" lon="7.9819498"><ele>-13.666666666666668</ele><time>2026-04-30T09:41:12.678Z</time></trkpt><trkpt lat="34.0127897" lon="7.9820435"><ele>-13.5</ele><time>2026-04-30T09:41:13.682Z</time></trkpt><trkpt lat="34.0127716" lon="7.982125"><ele>-13.333333333333332</ele><time>2026-04-30T09:41:14.67Z</time></trkpt><trkpt lat="34.0127548" lon="7.9822166"><ele>-13.166666666666666</ele><time>2026-04-30T09:41:15.666Z</time></trkpt><trkpt lat="34.0127348" lon="7.9823076"><ele>-13.0</ele><time>2026-04-30T09:41:16.666Z</time></trkpt><trkpt lat="34.0127168" lon="7.9823997"><ele>-13.0</ele><time>2026-04-30T09:41:17.678Z</time></trkpt><trkpt lat="34.0127046" lon="7.9824921"><ele>-13.0</ele><time>2026-04-30T09:41:18.658Z</time></trkpt><trkpt lat="34.012693" lon="7.9825822"><ele>-13.0</ele><time>2026-04-30T09:41:19.665Z</time></trkpt><trkpt lat="34.0126781" lon="7.9826643"><ele>-13.0</ele><time>2026-04-30T09:41:20.673Z</time></trkpt><trkpt lat="34.0126613" lon="7.9827448"><ele>-13.0</ele><time>2026-04-30T09:41:21.681Z</time></trkpt><trkpt lat="34.0126462" lon="7.9828337"><ele>-13.0</ele><time>2026-04-30T09:41:22.688Z</time></trkpt><trkpt lat="34.0126318" lon="7.9829192"><ele>-13.0</ele><time>2026-04-30T09:41:23.694Z</time></trkpt><trkpt lat="34.0126179" lon="7.983005"><ele>-13.142857142857142</ele><time>2026-04-30T09:41:24.673Z</time></trkpt><trkpt lat="34.0126075" lon="7.983086"><ele>-13.285714285714286</ele><time>2026-04-30T09:41:25.664Z</time></trkpt><trkpt lat="34.012599" lon="7.9831706"><ele>-13.428571428571429</ele><time>2026-04-30T09:41:26.674Z</time></trkpt><trkpt lat="34.0125932" lon="7.9832517"><ele>-13.571428571428571</ele><time>2026-04-30T09:41:27.684Z</time></trkpt><trkpt lat="34.0125811" lon="7.983336"><ele>-13.714285714285715</ele><time>2026-04-30T09:41:28.673Z</time></trkpt><trkpt lat="34.012572" lon="7.9834233"><ele>-13.857142857142858</ele><time>2026-04-30T09:41:29.66Z</time></trkpt><trkpt lat="34.0125641" lon="7.9835075"><ele>-14.0</ele><time>2026-04-30T09:41:30.678Z</time></trkpt><trkpt lat="34.0125605" lon="7.98359"><ele>-14.0</ele><time>2026-04-30T09:41:31.68Z</time></trkpt><trkpt lat="34.0125544" lon="7.9836744"><ele>-14.0</ele><time>2026-04-30T09:41:32.673Z</time></trkpt><trkpt lat="34.0125473" lon="7.9837615"><ele>-14.0</ele><time>2026-04-30T09:41:33.675Z</time></trkpt><trkpt lat="34.01254" lon="7.9838432"><ele>-14.0</ele><time>2026-04-30T09:41:34.687Z</time></trkpt><trkpt lat="34.0125284" lon="7.9839301"><ele>-14.0</ele><time>2026-04-30T09:41:35.681Z</time></trkpt><trkpt lat="34.0125155" lon="7.9840188"><ele>-14.0</ele><time>2026-04-30T09:41:36.674Z</time></trkpt><trkpt lat="34.0125046" lon="7.9841072"><ele>-14.0</ele><time>2026-04-30T09:41:37.673Z</time></trkpt><trkpt lat="34.0124938" lon="7.9841987"><ele>-13.857142857142858</ele><time>2026-04-30T09:41:38.669Z</time></trkpt><trkpt lat="34.0124839" lon="7.9842869"><ele>-13.714285714285715</ele><time>2026-04-30T09:41:39.675Z</time></trkpt><trkpt lat="34.0124717" lon="7.984369"><ele>-13.571428571428571</ele><time>2026-04-30T09:41:40.679Z</time></trkpt><trkpt lat="34.0124606" lon="7.9844563"><ele>-13.428571428571429</ele><time>2026-04-30T09:41:41.668Z</time></trkpt><trkpt lat="34.0124482" lon="7.9845448"><ele>-13.285714285714286</ele><time>2026-04-30T09:41:42.66Z</time></trkpt><trkpt lat="34.0124386" lon="7.9846317"><ele>-13.142857142857142</ele><time>2026-04-30T09:41:43.673Z</time></trkpt><trkpt lat="34.01243" lon="7.9847242"><ele>-13.0</ele><time>2026-04-30T09:41:44.665Z</time></trkpt><trkpt lat="34.0124219" lon="7.984817"><ele>-12.999999999999998</ele><time>2026-04-30T09:41:45.673Z</time></trkpt><trkpt lat="34.0124101" lon="7.9849146"><ele>-13.0</ele><time>2026-04-30T09:41:46.661Z</time></trkpt><trkpt lat="34.0123977" lon="7.9850175"><ele>-13.0</ele><time>2026-04-30T09:41:47.67Z</time></trkpt><trkpt lat="34.012396" lon="7.9851196"><ele>-13.0</ele><time>2026-04-30T09:41:48.668Z</time></trkpt><trkpt lat="34.0123919" lon="7.9852319"><ele>-12.999999999999998</ele><time>2026-04-30T09:41:49.666Z</time></trkpt><trkpt lat="34.0123921" lon="7.9853492"><ele>-13.0</ele><time>2026-04-30T09:41:50.669Z</time></trkpt><trkpt lat="34.0123995" lon="7.9854652"><ele>-13.0</ele><time>2026-04-30T09:41:51.679Z</time></trkpt><trkpt lat="34.0124027" lon="7.9855811"><ele>-13.0</ele><time>2026-04-30T09:41:52.689Z</time></trkpt><trkpt lat="34.012403" lon="7.9856941"><ele>-13.0</ele><time>2026-04-30T09:41:53.697Z</time></trkpt><trkpt lat="34.0124119" lon="7.9858116"><ele>-13.0</ele><time>2026-04-30T09:41:54.678Z</time></trkpt><trkpt lat="34.0124189" lon="7.9859283"><ele>-13.0</ele><time>2026-04-30T09:41:55.666Z</time></trkpt><trkpt lat="34.012429" lon="7.9860478"><ele>-12.999999999999998</ele><time>2026-04-30T09:41:56.675Z</time></trkpt><trkpt lat="34.0124413" lon="7.9861618"><ele>-13.0</ele><time>2026-04-30T09:41:57.656Z</time></trkpt><trkpt lat="34.0124539" lon="7.9862685"><ele>-13.0</ele><time>2026-04-30T09:41:58.654Z</time></trkpt><trkpt lat="34.0124677" lon="7.9863575"><ele>-13.0</ele><time>2026-04-30T09:41:59.674Z</time></trkpt><trkpt lat="34.0124813" lon="7.986437"><ele>-12.999999999999998</ele><time>2026-04-30T09:42:00.674Z</time></trkpt><trkpt lat="34.012509" lon="7.9865648"><ele>-13.0</ele><time>2026-04-30T09:42:02.669Z</time></trkpt><trkpt lat="34.0125372" lon="7.9867178"><ele>-13.285714285714285</ele><time>2026-04-30T09:42:04.652Z</time></trkpt><trkpt lat="34.0125539" lon="7.9868065"><ele>-13.571428571428573</ele><time>2026-04-30T09:42:05.657Z</time></trkpt><trkpt lat="34.0125732" lon="7.9868933"><ele>-13.857142857142858</ele><time>2026-04-30T09:42:06.664Z</time></trkpt><trkpt lat="34.0125912" lon="7.986973"><ele>-14.142857142857142</ele><time>2026-04-30T09:42:07.668Z</time></trkpt><trkpt lat="34.012606" lon="7.9870568"><ele>-14.428571428571427</ele><time>2026-04-30T09:42:08.668Z</time></trkpt><trkpt lat="34.0126217" lon="7.9871411"><ele>-14.714285714285715</ele><time>2026-04-30T09:42:09.659Z</time></trkpt><trkpt lat="34.012634" lon="7.9872221"><ele>-15.0</ele><time>2026-04-30T09:42:10.658Z</time></trkpt><trkpt lat="34.0126378" lon="7.9873079"><ele>-15.0</ele><time>2026-04-30T09:42:11.656Z</time></trkpt><trkpt lat="34.01264" lon="7.9873872"><ele>-15.0</ele><time>2026-04-30T09:42:12.666Z</time></trkpt><trkpt lat="34.012645" lon="7.9875069"><ele>-15.0</ele><time>2026-04-30T09:42:14.665Z</time></trkpt><trkpt lat="34.0126464" lon="7.9876366"><ele>-15.0</ele><time>2026-04-30T09:42:16.677Z</time></trkpt><trkpt lat="34.0126447" lon="7.9877233"><ele>-15.0</ele><time>2026-04-30T09:42:17.681Z</time></trkpt><trkpt lat="34.0126324" lon="7.9878112"><ele>-15.0</ele><time>2026-04-30T09:42:18.663Z</time></trkpt><trkpt lat="34.0126185" lon="7.9879027"><ele>-15.166666666666666</ele><time>2026-04-30T09:42:19.66Z</time></trkpt><trkpt lat="34.0126075" lon="7.9879914"><ele>-15.333333333333332</ele><time>2026-04-30T09:42:20.677Z</time></trkpt><trkpt lat="34.0125875" lon="7.9880841"><ele>-15.5</ele><time>2026-04-30T09:42:21.673Z</time></trkpt><trkpt lat="34.012562" lon="7.9881763"><ele>-15.666666666666666</ele><time>2026-04-30T09:42:22.657Z</time></trkpt><trkpt lat="34.0125339" lon="7.9882693"><ele>-15.833333333333332</ele><time>2026-04-30T09:42:23.661Z</time></trkpt><trkpt lat="34.012514" lon="7.9883638"><ele>-16.0</ele><time>2026-04-30T09:42:24.658Z</time></trkpt><trkpt lat="34.0124947" lon="7.9884639"><ele>-15.714285714285714</ele><time>2026-04-30T09:42:25.676Z</time></trkpt><trkpt lat="34.0124697" lon="7.9885512"><ele>-15.428571428571427</ele><time>2026-04-30T09:42:26.666Z</time></trkpt><trkpt lat="34.0124459" lon="7.9886404"><ele>-15.142857142857142</ele><time>2026-04-30T09:42:27.676Z</time></trkpt><trkpt lat="34.0124257" lon="7.9887304"><ele>-14.857142857142858</ele><time>2026-04-30T09:42:28.676Z</time></trkpt><trkpt lat="34.0124073" lon="7.9888183"><ele>-14.571428571428571</ele><time>2026-04-30T09:42:29.68Z</time></trkpt><trkpt lat="34.0123858" lon="7.9889011"><ele>-14.285714285714285</ele><time>2026-04-30T09:42:30.665Z</time></trkpt><trkpt lat="34.0123609" lon="7.9889789"><ele>-14.0</ele><time>2026-04-30T09:42:31.667Z</time></trkpt><trkpt lat="34.0123195" lon="7.9891156"><ele>-14.0</ele><time>2026-04-30T09:42:33.673Z</time></trkpt><trkpt lat="34.0122378" lon="7.9892181"><ele>-14.0</ele><time>2026-04-30T09:42:35.664Z</time></trkpt><trkpt lat="34.0121497" lon="7.989299"><ele>-14.0</ele><time>2026-04-30T09:42:37.675Z</time></trkpt><trkpt lat="34.0120486" lon="7.9893595"><ele>-14.0</ele><time>2026-04-30T09:42:39.67Z</time></trkpt><trkpt lat="34.0119403" lon="7.9894181"><ele>-14.000000000000002</ele><time>2026-04-30T09:42:41.66Z</time></trkpt><trkpt lat="34.0118282" lon="7.9894646"><ele>-14.0</ele><time>2026-04-30T09:42:43.655Z</time></trkpt><trkpt lat="34.0117581" lon="7.9894885"><ele>-14.0</ele><time>2026-04-30T09:42:44.662Z</time></trkpt><trkpt lat="34.0116787" lon="7.9895111"><ele>-14.0</ele><time>2026-04-30T09:42:45.662Z</time></trkpt><trkpt lat="34.0115963" lon="7.9895308"><ele>-14.000000000000002</ele><time>2026-04-30T09:42:46.674Z</time></trkpt><trkpt lat="34.0115142" lon="7.9895463"><ele>-14.0</ele><time>2026-04-30T09:42:47.689Z</time></trkpt><trkpt lat="34.01143" lon="7.9895588"><ele>-14.166666666666668</ele><time>2026-04-30T09:42:48.662Z</time></trkpt><trkpt lat="34.0113419" lon="7.9895737"><ele>-14.333333333333334</ele><time>2026-04-30T09:42:49.698Z</time></trkpt><trkpt lat="34.0112537" lon="7.9895882"><ele>-14.5</ele><time>2026-04-30T09:42:50.666Z</time></trkpt><trkpt lat="34.0111651" lon="7.9896032"><ele>-14.666666666666668</ele><time>2026-04-30T09:42:51.667Z</time></trkpt><trkpt lat="34.0110791" lon="7.9896148"><ele>-14.833333333333334</ele><time>2026-04-30T09:42:52.662Z</time></trkpt><trkpt lat="34.0109992" lon="7.9896269"><ele>-15.0</ele><time>2026-04-30T09:42:53.674Z</time></trkpt><trkpt lat="34.0109225" lon="7.9896392"><ele>-15.0</ele><time>2026-04-30T09:42:54.668Z</time></trkpt><trkpt lat="34.010847" lon="7.9896572"><ele>-15.0</ele><time>2026-04-30T09:42:55.672Z</time></trkpt><trkpt lat="34.0107713" lon="7.9896771"><ele>-15.0</ele><time>2026-04-30T09:42:56.669Z</time></trkpt><trkpt lat="34.0106991" lon="7.9896947"><ele>-15.0</ele><time>2026-04-30T09:42:57.664Z</time></trkpt><trkpt lat="34.0106296" lon="7.9897053"><ele>-15.0</ele><time>2026-04-30T09:42:58.67Z</time></trkpt><trkpt lat="34.0105611" lon="7.989709"><ele>-15.0</ele><time>2026-04-30T09:42:59.672Z</time></trkpt><trkpt lat="34.010496" lon="7.9897173"><ele>-15.0</ele><time>2026-04-30T09:43:00.674Z</time></trkpt><trkpt lat="34.0103902" lon="7.9897592"><ele>-14.166666666666666</ele><time>2026-04-30T09:43:02.661Z</time></trkpt><trkpt lat="34.0103281" lon="7.9898149"><ele>-13.333333333333334</ele><time>2026-04-30T09:43:04.664Z</time></trkpt><trkpt lat="34.0102762" lon="7.9898967"><ele>-12.5</ele><time>2026-04-30T09:43:26.665Z</time></trkpt><trkpt lat="34.0102753" lon="7.9900147"><ele>-11.666666666666668</ele><time>2026-04-30T09:43:29.659Z</time></trkpt><trkpt lat="34.0102862" lon="7.9900895"><ele>-10.833333333333334</ele><time>2026-04-30T09:43:31.662Z</time></trkpt><trkpt lat="34.0102511" lon="7.9901733"><ele>-10.0</ele><time>2026-04-30T09:43:34.669Z</time></trkpt><trkpt lat="34.0101528" lon="7.9901916"><ele>-9.666666666666668</ele><time>2026-04-30T09:43:37.662Z</time></trkpt><trkpt lat="34.0100719" lon="7.9902276"><ele>-9.333333333333334</ele><time>2026-04-30T09:43:40.662Z</time></trkpt><trkpt lat="34.0099924" lon="7.9902385"><ele>-9.0</ele><time>2026-04-30T09:43:44.664Z</time></trkpt><trkpt lat="34.0098987" lon="7.9902358"><ele>-8.666666666666666</ele><time>2026-04-30T09:43:47.671Z</time></trkpt><trkpt lat="34.0098243" lon="7.9902342"><ele>-8.333333333333332</ele><time>2026-04-30T09:43:51.675Z</time></trkpt><trkpt lat="34.0098699" lon="7.9902868"><ele>-8.0</ele><time>2026-04-30T09:43:54.667Z</time></trkpt><trkpt lat="34.0099339" lon="7.9902677"><ele>-7.999999999999999</ele><time>2026-04-30T09:43:56.669Z</time></trkpt><trkpt lat="34.0100101" lon="7.9902387"><ele>-8.0</ele><time>2026-04-30T09:43:58.65Z</time></trkpt><trkpt lat="34.010096" lon="7.9902057"><ele>-8.0</ele><time>2026-04-30T09:44:00.656Z</time></trkpt><trkpt lat="34.0101584" lon="7.9901525"><ele>-8.0</ele><time>2026-04-30T09:44:02.677Z</time></trkpt><trkpt lat="34.01021" lon="7.9900901"><ele>-7.999999999999999</ele><time>2026-04-30T09:44:05.673Z</time></trkpt><trkpt lat="34.0102579" lon="7.9900348"><ele>-8.0</ele><time>2026-04-30T09:44:08.671Z</time></trkpt><trkpt lat="34.0103003" lon="7.9899425"><ele>-8.333333333333332</ele><time>2026-04-30T09:44:10.657Z</time></trkpt><trkpt lat="34.0103491" lon="7.989847"><ele>-8.666666666666666</ele><time>2026-04-30T09:44:12.664Z</time></trkpt><trkpt lat="34.0104047" lon="7.9897789"><ele>-9.0</ele><time>2026-04-30T09:44:14.665Z</time></trkpt><trkpt lat="34.010478" lon="7.9897224"><ele>-9.333333333333334</ele><time>2026-04-30T09:44:16.685Z</time></trkpt><trkpt lat="34.0105568" lon="7.9896988"><ele>-9.666666666666668</ele><time>2026-04-30T09:44:18.658Z</time></trkpt><trkpt lat="34.0106389" lon="7.9896971"><ele>-10.0</ele><time>2026-04-30T09:44:20.667Z</time></trkpt><trkpt lat="34.0107208" lon="7.9896851"><ele>-10.0</ele><time>2026-04-30T09:44:22.658Z</time></trkpt><trkpt lat="34.010818" lon="7.9896543"><ele>-10.0</ele><time>2026-04-30T09:44:24.658Z</time></trkpt><trkpt lat="34.0109253" lon="7.9896296"><ele>-10.0</ele><time>2026-04-30T09:44:26.661Z</time></trkpt><trkpt lat="34.0110246" lon="7.9896118"><ele>-10.0</ele><time>2026-04-30T09:44:28.664Z</time></trkpt><trkpt lat="34.011127" lon="7.9895966"><ele>-10.0</ele><time>2026-04-30T09:44:30.66Z</time></trkpt><trkpt lat="34.0112402" lon="7.9895818"><ele>-10.666666666666668</ele><time>2026-04-30T09:44:32.66Z</time></trkpt><trkpt lat="34.0113523" lon="7.9895602"><ele>-11.333333333333334</ele><time>2026-04-30T09:44:34.665Z</time></trkpt><trkpt lat="34.0114749" lon="7.9895406"><ele>-12.0</ele><time>2026-04-30T09:44:36.677Z</time></trkpt><trkpt lat="34.0115403" lon="7.9895232"><ele>-12.666666666666668</ele><time>2026-04-30T09:44:37.665Z</time></trkpt><trkpt lat="34.0116028" lon="7.9895083"><ele>-13.333333333333334</ele><time>2026-04-30T09:44:38.662Z</time></trkpt><trkpt lat="34.0116671" lon="7.9894962"><ele>-14.0</ele><time>2026-04-30T09:44:39.703Z</time></trkpt><trkpt lat="34.0117305" lon="7.9894791"><ele>-14.000000000000002</ele><time>2026-04-30T09:44:40.68Z</time></trkpt><trkpt lat="34.0118401" lon="7.9894517"><ele>-14.0</ele><time>2026-04-30T09:44:42.689Z</time></trkpt><trkpt lat="34.0119242" lon="7.9894107"><ele>-14.0</ele><time>2026-04-30T09:44:44.674Z</time></trkpt><trkpt lat="34.0119951" lon="7.9893715"><ele>-14.0</ele><time>2026-04-30T09:44:46.655Z</time></trkpt><trkpt lat="34.0120562" lon="7.9893394"><ele>-14.000000000000002</ele><time>2026-04-30T09:44:48.697Z</time></trkpt><trkpt lat="34.0121266" lon="7.9893128"><ele>-14.0</ele><time>2026-04-30T09:44:52.688Z</time></trkpt><trkpt lat="34.0121935" lon="7.9892624"><ele>-14.000000000000002</ele><time>2026-04-30T09:44:56.649Z</time></trkpt><trkpt lat="34.0122446" lon="7.9891934"><ele>-14.0</ele><time>2026-04-30T09:45:00.665Z</time></trkpt><trkpt lat="34.0122623" lon="7.9893136"><ele>-14.0</ele><time>2026-04-30T09:45:04.687Z</time></trkpt><trkpt lat="34.0122349" lon="7.9894558"><ele>-14.0</ele><time>2026-04-30T09:45:06.683Z</time></trkpt><trkpt lat="34.0122174" lon="7.9895422"><ele>-14.000000000000002</ele><time>2026-04-30T09:45:07.67Z</time></trkpt><trkpt lat="34.0122005" lon="7.9896243"><ele>-14.0</ele><time>2026-04-30T09:45:08.682Z</time></trkpt><trkpt lat="34.0121791" lon="7.989709"><ele>-14.000000000000002</ele><time>2026-04-30T09:45:09.698Z</time></trkpt><trkpt lat="34.0121594" lon="7.9897956"><ele>-14.0</ele><time>2026-04-30T09:45:10.665Z</time></trkpt><trkpt lat="34.0121404" lon="7.9898876"><ele>-14.0</ele><time>2026-04-30T09:45:11.691Z</time></trkpt><trkpt lat="34.0121213" lon="7.9899753"><ele>-14.0</ele><time>2026-04-30T09:45:12.666Z</time></trkpt><trkpt lat="34.0120981" lon="7.9900618"><ele>-14.000000000000002</ele><time>2026-04-30T09:45:13.693Z</time></trkpt><trkpt lat="34.0120759" lon="7.9901599"><ele>-14.0</ele><time>2026-04-30T09:45:14.696Z</time></trkpt><trkpt lat="34.0120565" lon="7.9902502"><ele>-14.333333333333334</ele><time>2026-04-30T09:45:15.678Z</time></trkpt><trkpt lat="34.0120375" lon="7.9903441"><ele>-14.666666666666668</ele><time>2026-04-30T09:45:16.679Z</time></trkpt><trkpt lat="34.0120179" lon="7.9904323"><ele>-15.0</ele><time>2026-04-30T09:45:17.685Z</time></trkpt><trkpt lat="34.0119947" lon="7.9905223"><ele>-15.333333333333332</ele><time>2026-04-30T09:45:18.672Z</time></trkpt><trkpt lat="34.0119701" lon="7.9906222"><ele>-15.666666666666666</ele><time>2026-04-30T09:45:19.673Z</time></trkpt><trkpt lat="34.0119406" lon="7.9907212"><ele>-16.0</ele><time>2026-04-30T09:45:20.69Z</time></trkpt><trkpt lat="34.0119111" lon="7.990829"><ele>-16.0</ele><time>2026-04-30T09:45:21.696Z</time></trkpt><trkpt lat="34.0118787" lon="7.9909397"><ele>-16.0</ele><time>2026-04-30T09:45:22.675Z</time></trkpt><trkpt lat="34.0118472" lon="7.991056"><ele>-16.0</ele><time>2026-04-30T09:45:23.661Z</time></trkpt><trkpt lat="34.0118158" lon="7.9911799"><ele>-16.0</ele><time>2026-04-30T09:45:24.698Z</time></trkpt><trkpt lat="34.0117787" lon="7.9913064"><ele>-16.0</ele><time>2026-04-30T09:45:25.699Z</time></trkpt><trkpt lat="34.0117395" lon="7.9914362"><ele>-16.0</ele><time>2026-04-30T09:45:26.677Z</time></trkpt><trkpt lat="34.0117091" lon="7.9915677"><ele>-16.0</ele><time>2026-04-30T09:45:27.683Z</time></trkpt><trkpt lat="34.0116871" lon="7.9917053"><ele>-16.0</ele><time>2026-04-30T09:45:28.655Z</time></trkpt><trkpt lat="34.0116603" lon="7.99185"><ele>-16.0</ele><time>2026-04-30T09:45:29.688Z</time></trkpt><trkpt lat="34.0116316" lon="7.9919946"><ele>-15.0</ele><time>2026-04-30T09:45:30.694Z</time></trkpt><trkpt lat="34.0115999" lon="7.9921364"><ele>-14.0</ele><time>2026-04-30T09:45:31.69Z</time></trkpt><trkpt lat="34.0115709" lon="7.9922802"><ele>-13.0</ele><time>2026-04-30T09:45:32.636Z</time></trkpt><trkpt lat="34.0115394" lon="7.9924241"><ele>-12.0</ele><time>2026-04-30T09:45:33.683Z</time></trkpt><trkpt lat="34.0115116" lon="7.9925693"><ele>-11.75</ele><time>2026-04-30T09:45:34.648Z</time></trkpt><trkpt lat="34.0114849" lon="7.9927099"><ele>-11.5</ele><time>2026-04-30T09:45:35.657Z</time></trkpt><trkpt lat="34.0114577" lon="7.9928545"><ele>-11.25</ele><time>2026-04-30T09:45:36.651Z</time></trkpt><trkpt lat="34.0114292" lon="7.9929995"><ele>-11.0</ele><time>2026-04-30T09:45:37.637Z</time></trkpt><trkpt lat="34.0114019" lon="7.9931386"><ele>-11.0</ele><time>2026-04-30T09:45:38.645Z</time></trkpt><trkpt lat="34.0113743" lon="7.9932809"><ele>-11.0</ele><time>2026-04-30T09:45:39.636Z</time></trkpt><trkpt lat="34.0113507" lon="7.9934178"><ele>-11.0</ele><time>2026-04-30T09:45:40.642Z</time></trkpt><trkpt lat="34.0113231" lon="7.9935517"><ele>-11.0</ele><time>2026-04-30T09:45:41.643Z</time></trkpt><trkpt lat="34.0112938" lon="7.9936885"><ele>-11.200000000000001</ele><time>2026-04-30T09:45:42.638Z</time></trkpt><trkpt lat="34.0112684" lon="7.9938174"><ele>-11.4</ele><time>2026-04-30T09:45:43.638Z</time></trkpt><trkpt lat="34.0112402" lon="7.9939454"><ele>-11.6</ele><time>2026-04-30T09:45:44.639Z</time></trkpt><trkpt lat="34.0112142" lon="7.9940723"><ele>-11.8</ele><time>2026-04-30T09:45:45.669Z</time></trkpt><trkpt lat="34.0111898" lon="7.9941993"><ele>-12.0</ele><time>2026-04-30T09:45:46.634Z</time></trkpt><trkpt lat="34.011165" lon="7.9943279"><ele>-12.8</ele><time>2026-04-30T09:45:47.648Z</time></trkpt><trkpt lat="34.0111394" lon="7.9944598"><ele>-13.6</ele><time>2026-04-30T09:45:48.647Z</time></trkpt><trkpt lat="34.0111123" lon="7.9945903"><ele>-14.400000000000002</ele><time>2026-04-30T09:45:49.644Z</time></trkpt><trkpt lat="34.0110859" lon="7.9947184"><ele>-15.200000000000001</ele><time>2026-04-30T09:45:50.644Z</time></trkpt><trkpt lat="34.0110584" lon="7.9948479"><ele>-16.0</ele><time>2026-04-30T09:45:51.665Z</time></trkpt><trkpt lat="34.0110339" lon="7.9949862"><ele>-16.0</ele><time>2026-04-30T09:45:52.644Z</time></trkpt><trkpt lat="34.0110051" lon="7.9951198"><ele>-16.0</ele><time>2026-04-30T09:45:53.648Z</time></trkpt><trkpt lat="34.0109824" lon="7.9952471"><ele>-16.0</ele><time>2026-04-30T09:45:54.648Z</time></trkpt><trkpt lat="34.0109607" lon="7.9953752"><ele>-16.0</ele><time>2026-04-30T09:45:55.648Z</time></trkpt><trkpt lat="34.0109387" lon="7.9955031"><ele>-16.0</ele><time>2026-04-30T09:45:56.644Z</time></trkpt><trkpt lat="34.0109169" lon="7.9956259"><ele>-16.0</ele><time>2026-04-30T09:45:57.645Z</time></trkpt><trkpt lat="34.0108939" lon="7.9957445"><ele>-16.0</ele><time>2026-04-30T09:45:58.645Z</time></trkpt><trkpt lat="34.0108706" lon="7.9958543"><ele>-16.0</ele><time>2026-04-30T09:45:59.645Z</time></trkpt><trkpt lat="34.010854" lon="7.9959646"><ele>-16.0</ele><time>2026-04-30T09:46:00.64Z</time></trkpt><trkpt lat="34.0108351" lon="7.9960727"><ele>-16.0</ele><time>2026-04-30T09:46:01.641Z</time></trkpt><trkpt lat="34.010812" lon="7.9961811"><ele>-15.8</ele><time>2026-04-30T09:46:02.644Z</time></trkpt><trkpt lat="34.0107877" lon="7.9962915"><ele>-15.600000000000001</ele><time>2026-04-30T09:46:03.643Z</time></trkpt><trkpt lat="34.0107621" lon="7.9964068"><ele>-15.4</ele><time>2026-04-30T09:46:04.637Z</time></trkpt><trkpt lat="34.0107416" lon="7.9965193"><ele>-15.2</ele><time>2026-04-30T09:46:05.642Z</time></trkpt><trkpt lat="34.0107228" lon="7.9966408"><ele>-15.0</ele><time>2026-04-30T09:46:06.648Z</time></trkpt><trkpt lat="34.0107026" lon="7.9967607"><ele>-14.6</ele><time>2026-04-30T09:46:07.639Z</time></trkpt><trkpt lat="34.0106807" lon="7.9968908"><ele>-14.2</ele><time>2026-04-30T09:46:08.664Z</time></trkpt><trkpt lat="34.0106642" lon="7.9970173"><ele>-13.8</ele><time>2026-04-30T09:46:09.652Z</time></trkpt><trkpt lat="34.0106506" lon="7.9971521"><ele>-13.4</ele><time>2026-04-30T09:46:10.643Z</time></trkpt><trkpt lat="34.0106367" lon="7.9972813"><ele>-13.0</ele><time>2026-04-30T09:46:11.639Z</time></trkpt><trkpt lat="34.0106204" lon="7.9974054"><ele>-13.333333333333332</ele><time>2026-04-30T09:46:12.638Z</time></trkpt><trkpt lat="34.0106064" lon="7.9975166"><ele>-13.666666666666666</ele><time>2026-04-30T09:46:13.642Z</time></trkpt><trkpt lat="34.0105996" lon="7.9976199"><ele>-14.0</ele><time>2026-04-30T09:46:14.644Z</time></trkpt><trkpt lat="34.0105909" lon="7.9977227"><ele>-14.333333333333332</ele><time>2026-04-30T09:46:15.647Z</time></trkpt><trkpt lat="34.0105847" lon="7.9978268"><ele>-14.666666666666666</ele><time>2026-04-30T09:46:16.639Z</time></trkpt><trkpt lat="34.0105767" lon="7.997932"><ele>-15.0</ele><time>2026-04-30T09:46:17.639Z</time></trkpt><trkpt lat="34.0105689" lon="7.9980353"><ele>-15.0</ele><time>2026-04-30T09:46:18.643Z</time></trkpt><trkpt lat="34.0105575" lon="7.9981389"><ele>-15.0</ele><time>2026-04-30T09:46:19.647Z</time></trkpt><trkpt lat="34.010549" lon="7.9982461"><ele>-15.0</ele><time>2026-04-30T09:46:20.636Z</time></trkpt><trkpt lat="34.0105442" lon="7.9983601"><ele>-15.0</ele><time>2026-04-30T09:46:21.652Z</time></trkpt><trkpt lat="34.0105353" lon="7.9984726"><ele>-15.0</ele><time>2026-04-30T09:46:22.645Z</time></trkpt><trkpt lat="34.0105255" lon="7.9985946"><ele>-15.0</ele><time>2026-04-30T09:46:23.647Z</time></trkpt><trkpt lat="34.010515" lon="7.9987167"><ele>-15.0</ele><time>2026-04-30T09:46:24.648Z</time></trkpt><trkpt lat="34.0105034" lon="7.9988339"><ele>-15.0</ele><time>2026-04-30T09:46:25.642Z</time></trkpt><trkpt lat="34.0104959" lon="7.9989495"><ele>-15.0</ele><time>2026-04-30T09:46:26.651Z</time></trkpt><trkpt lat="34.0104866" lon="7.9990619"><ele>-15.0</ele><time>2026-04-30T09:46:27.687Z</time></trkpt><trkpt lat="34.0104793" lon="7.9991707"><ele>-15.0</ele><time>2026-04-30T09:46:28.642Z</time></trkpt><trkpt lat="34.0104772" lon="7.9992834"><ele>-15.0</ele><time>2026-04-30T09:46:29.641Z</time></trkpt><trkpt lat="34.0104782" lon="7.9993975"><ele>-15.0</ele><time>2026-04-30T09:46:30.649Z</time></trkpt><trkpt lat="34.0104855" lon="7.9995144"><ele>-15.0</ele><time>2026-04-30T09:46:31.644Z</time></trkpt><trkpt lat="34.0105037" lon="7.9996275"><ele>-15.0</ele><time>2026-04-30T09:46:32.644Z</time></trkpt><trkpt lat="34.0105189" lon="7.9997442"><ele>-15.0</ele><time>2026-04-30T09:46:33.651Z</time></trkpt><trkpt lat="34.0105353" lon="7.9998584"><ele>-15.0</ele><time>2026-04-30T09:46:34.638Z</time></trkpt><trkpt lat="34.0105514" lon="7.9999708"><ele>-15.0</ele><time>2026-04-30T09:46:35.645Z</time></trkpt><trkpt lat="34.0105608" lon="8.0000803"><ele>-15.0</ele><time>2026-04-30T09:46:36.649Z</time></trkpt><trkpt lat="34.0105663" lon="8.0002039"><ele>-15.0</ele><time>2026-04-30T09:46:37.643Z</time></trkpt><trkpt lat="34.0105717" lon="8.0003251"><ele>-15.0</ele><time>2026-04-30T09:46:38.652Z</time></trkpt><trkpt lat="34.0105782" lon="8.0004358"><ele>-15.0</ele><time>2026-04-30T09:46:39.659Z</time></trkpt><trkpt lat="34.010579" lon="8.0005453"><ele>-15.0</ele><time>2026-04-30T09:46:40.645Z</time></trkpt><trkpt lat="34.0105836" lon="8.0006537"><ele>-15.0</ele><time>2026-04-30T09:46:41.656Z</time></trkpt><trkpt lat="34.0105915" lon="8.0007725"><ele>-15.0</ele><time>2026-04-30T09:46:42.645Z</time></trkpt><trkpt lat="34.0106003" lon="8.0009061"><ele>-15.5</ele><time>2026-04-30T09:46:43.639Z</time></trkpt><trkpt lat="34.0106145" lon="8.0010491"><ele>-16.0</ele><time>2026-04-30T09:46:44.641Z</time></trkpt><trkpt lat="34.0106305" lon="8.0011925"><ele>-16.5</ele><time>2026-04-30T09:46:45.642Z</time></trkpt><trkpt lat="34.0106422" lon="8.0013342"><ele>-17.0</ele><time>2026-04-30T09:46:46.648Z</time></trkpt><trkpt lat="34.0106562" lon="8.0014812"><ele>-17.0</ele><time>2026-04-30T09:46:47.647Z</time></trkpt><trkpt lat="34.0106769" lon="8.0016296"><ele>-17.0</ele><time>2026-04-30T09:46:48.672Z</time></trkpt><trkpt lat="34.0107012" lon="8.001777"><ele>-17.0</ele><time>2026-04-30T09:46:49.643Z</time></trkpt><trkpt lat="34.0107175" lon="8.0019166"><ele>-17.0</ele><time>2026-04-30T09:46:50.636Z</time></trkpt><trkpt lat="34.0107356" lon="8.0020599"><ele>-16.5</ele><time>2026-04-30T09:46:51.644Z</time></trkpt><trkpt lat="34.0107521" lon="8.0022064"><ele>-16.0</ele><time>2026-04-30T09:46:52.646Z</time></trkpt><trkpt lat="34.0107706" lon="8.0023517"><ele>-15.5</ele><time>2026-04-30T09:46:53.647Z</time></trkpt><trkpt lat="34.010791" lon="8.0025008"><ele>-15.0</ele><time>2026-04-30T09:46:54.647Z</time></trkpt><trkpt lat="34.0108087" lon="8.0026511"><ele>-15.0</ele><time>2026-04-30T09:46:55.65Z</time></trkpt><trkpt lat="34.0108229" lon="8.0027956"><ele>-15.0</ele><time>2026-04-30T09:46:56.65Z</time></trkpt><trkpt lat="34.0108432" lon="8.0029366"><ele>-15.0</ele><time>2026-04-30T09:46:57.641Z</time></trkpt><trkpt lat="34.010867" lon="8.0030746"><ele>-15.0</ele><time>2026-04-30T09:46:58.641Z</time></trkpt><trkpt lat="34.0108881" lon="8.0032126"><ele>-14.8</ele><time>2026-04-30T09:46:59.655Z</time></trkpt><trkpt lat="34.0109068" lon="8.0033459"><ele>-14.6</ele><time>2026-04-30T09:47:00.647Z</time></trkpt><trkpt lat="34.0109255" lon="8.0034741"><ele>-14.399999999999999</ele><time>2026-04-30T09:47:01.651Z</time></trkpt><trkpt lat="34.0109432" lon="8.0036056"><ele>-14.2</ele><time>2026-04-30T09:47:02.648Z</time></trkpt><trkpt lat="34.0109612" lon="8.0037442"><ele>-14.0</ele><time>2026-04-30T09:47:03.646Z</time></trkpt><trkpt lat="34.0109792" lon="8.0038848"><ele>-14.0</ele><time>2026-04-30T09:47:04.649Z</time></trkpt><trkpt lat="34.0109987" lon="8.0040269"><ele>-14.0</ele><time>2026-04-30T09:47:05.648Z</time></trkpt><trkpt lat="34.0110124" lon="8.0041647"><ele>-14.0</ele><time>2026-04-30T09:47:06.64Z</time></trkpt><trkpt lat="34.0110326" lon="8.0043069"><ele>-14.0</ele><time>2026-04-30T09:47:07.704Z</time></trkpt><trkpt lat="34.0110521" lon="8.0044481"><ele>-14.25</ele><time>2026-04-30T09:47:08.645Z</time></trkpt><trkpt lat="34.011071" lon="8.004591"><ele>-14.5</ele><time>2026-04-30T09:47:09.663Z</time></trkpt><trkpt lat="34.0110858" lon="8.0047353"><ele>-14.75</ele><time>2026-04-30T09:47:10.64Z</time></trkpt><trkpt lat="34.0111046" lon="8.0048805"><ele>-15.0</ele><time>2026-04-30T09:47:11.649Z</time></trkpt><trkpt lat="34.011119" lon="8.0050251"><ele>-15.0</ele><time>2026-04-30T09:47:12.649Z</time></trkpt><trkpt lat="34.0111302" lon="8.0051727"><ele>-15.0</ele><time>2026-04-30T09:47:13.634Z</time></trkpt><trkpt lat="34.0111411" lon="8.0053309"><ele>-15.0</ele><time>2026-04-30T09:47:14.639Z</time></trkpt><trkpt lat="34.0111483" lon="8.0054882"><ele>-15.0</ele><time>2026-04-30T09:47:15.651Z</time></trkpt><trkpt lat="34.0111535" lon="8.0056436"><ele>-15.0</ele><time>2026-04-30T09:47:16.661Z</time></trkpt><trkpt lat="34.0111641" lon="8.0057936"><ele>-15.0</ele><time>2026-04-30T09:47:17.662Z</time></trkpt><trkpt lat="34.0111771" lon="8.0059393"><ele>-15.0</ele><time>2026-04-30T09:47:18.709Z</time></trkpt><trkpt lat="34.0111869" lon="8.0060807"><ele>-15.0</ele><time>2026-04-30T09:47:19.642Z</time></trkpt><trkpt lat="34.0111855" lon="8.0062269"><ele>-15.25</ele><time>2026-04-30T09:47:20.637Z</time></trkpt><trkpt lat="34.0111911" lon="8.0063788"><ele>-15.5</ele><time>2026-04-30T09:47:21.642Z</time></trkpt><trkpt lat="34.0111961" lon="8.0065319"><ele>-15.75</ele><time>2026-04-30T09:47:22.633Z</time></trkpt><trkpt lat="34.0112069" lon="8.0066903"><ele>-16.0</ele><time>2026-04-30T09:47:23.633Z</time></trkpt><trkpt lat="34.0112138" lon="8.0068476"><ele>-16.25</ele><time>2026-04-30T09:47:24.66Z</time></trkpt><trkpt lat="34.0112195" lon="8.0070044"><ele>-16.5</ele><time>2026-04-30T09:47:25.729Z</time></trkpt><trkpt lat="34.0112206" lon="8.0071541"><ele>-16.75</ele><time>2026-04-30T09:47:26.653Z</time></trkpt><trkpt lat="34.0112144" lon="8.0073068"><ele>-17.0</ele><time>2026-04-30T09:47:27.64Z</time></trkpt><trkpt lat="34.0112037" lon="8.0074504"><ele>-16.5</ele><time>2026-04-30T09:47:28.64Z</time></trkpt><trkpt lat="34.0111903" lon="8.0076001"><ele>-16.0</ele><time>2026-04-30T09:47:29.643Z</time></trkpt><trkpt lat="34.011177" lon="8.0077468"><ele>-15.5</ele><time>2026-04-30T09:47:30.643Z</time></trkpt><trkpt lat="34.0111667" lon="8.0078957"><ele>-15.0</ele><time>2026-04-30T09:47:31.686Z</time></trkpt><trkpt lat="34.0111575" lon="8.0080384"><ele>-15.0</ele><time>2026-04-30T09:47:32.667Z</time></trkpt><trkpt lat="34.0111503" lon="8.00819"><ele>-15.0</ele><time>2026-04-30T09:47:33.644Z</time></trkpt><trkpt lat="34.0111462" lon="8.0083398"><ele>-15.0</ele><time>2026-04-30T09:47:34.655Z</time></trkpt><trkpt lat="34.0111439" lon="8.0084897"><ele>-15.0</ele><time>2026-04-30T09:47:35.647Z</time></trkpt><trkpt lat="34.0111374" lon="8.0086449"><ele>-15.0</ele><time>2026-04-30T09:47:36.638Z</time></trkpt><trkpt lat="34.0111358" lon="8.0088012"><ele>-15.0</ele><time>2026-04-30T09:47:37.64Z</time></trkpt><trkpt lat="34.0111362" lon="8.0089563"><ele>-15.0</ele><time>2026-04-30T09:47:38.627Z</time></trkpt><trkpt lat="34.0111413" lon="8.0091074"><ele>-15.0</ele><time>2026-04-30T09:47:39.641Z</time></trkpt><trkpt lat="34.0111492" lon="8.0092619"><ele>-14.75</ele><time>2026-04-30T09:47:40.643Z</time></trkpt><trkpt lat="34.0111589" lon="8.0094254"><ele>-14.5</ele><time>2026-04-30T09:47:41.633Z</time></trkpt><trkpt lat="34.0111644" lon="8.0095888"><ele>-14.25</ele><time>2026-04-30T09:47:42.635Z</time></trkpt><trkpt lat="34.0111744" lon="8.0097489"><ele>-14.0</ele><time>2026-04-30T09:47:43.651Z</time></trkpt><trkpt lat="34.0111897" lon="8.0099098"><ele>-13.5</ele><time>2026-04-30T09:47:44.641Z</time></trkpt><trkpt lat="34.0112058" lon="8.0100725"><ele>-13.0</ele><time>2026-04-30T09:47:45.684Z</time></trkpt><trkpt lat="34.0112252" lon="8.010239"><ele>-12.5</ele><time>2026-04-30T09:47:46.643Z</time></trkpt><trkpt lat="34.0112482" lon="8.0104028"><ele>-12.0</ele><time>2026-04-30T09:47:47.64Z</time></trkpt><trkpt lat="34.0112735" lon="8.0105648"><ele>-12.0</ele><time>2026-04-30T09:47:48.645Z</time></trkpt><trkpt lat="34.0112982" lon="8.010727"><ele>-12.0</ele><time>2026-04-30T09:47:49.638Z</time></trkpt><trkpt lat="34.0113215" lon="8.01088"><ele>-12.0</ele><time>2026-04-30T09:47:50.649Z</time></trkpt><trkpt lat="34.0113472" lon="8.0110366"><ele>-12.0</ele><time>2026-04-30T09:47:51.638Z</time></trkpt><trkpt lat="34.0113695" lon="8.0111949"><ele>-12.0</ele><time>2026-04-30T09:47:52.65Z</time></trkpt><trkpt lat="34.0113958" lon="8.0113453"><ele>-12.0</ele><time>2026-04-30T09:47:53.65Z</time></trkpt><trkpt lat="34.0114158" lon="8.0114866"><ele>-12.0</ele><time>2026-04-30T09:47:54.646Z</time></trkpt><trkpt lat="34.0114277" lon="8.0116131"><ele>-12.0</ele><time>2026-04-30T09:47:55.646Z</time></trkpt><trkpt lat="34.0114407" lon="8.0117368"><ele>-12.0</ele><time>2026-04-30T09:47:56.644Z</time></trkpt><trkpt lat="34.0114577" lon="8.0118501"><ele>-12.0</ele><time>2026-04-30T09:47:57.643Z</time></trkpt><trkpt lat="34.0114719" lon="8.0119602"><ele>-12.0</ele><time>2026-04-30T09:47:58.651Z</time></trkpt><trkpt lat="34.011487" lon="8.012074"><ele>-12.0</ele><time>2026-04-30T09:47:59.647Z</time></trkpt><trkpt lat="34.0115028" lon="8.0121784"><ele>-12.0</ele><time>2026-04-30T09:48:00.652Z</time></trkpt><trkpt lat="34.011516" lon="8.0122842"><ele>-12.0</ele><time>2026-04-30T09:48:01.648Z</time></trkpt><trkpt lat="34.0115324" lon="8.0123874"><ele>-12.0</ele><time>2026-04-30T09:48:02.656Z</time></trkpt><trkpt lat="34.0115527" lon="8.0124872"><ele>-12.0</ele><time>2026-04-30T09:48:03.645Z</time></trkpt><trkpt lat="34.0115652" lon="8.0125865"><ele>-12.0</ele><time>2026-04-30T09:48:04.645Z</time></trkpt><trkpt lat="34.0115792" lon="8.0126831"><ele>-12.0</ele><time>2026-04-30T09:48:05.647Z</time></trkpt><trkpt lat="34.0115955" lon="8.0127787"><ele>-12.0</ele><time>2026-04-30T09:48:06.648Z</time></trkpt><trkpt lat="34.0116095" lon="8.0128795"><ele>-11.5</ele><time>2026-04-30T09:48:07.647Z</time></trkpt><trkpt lat="34.0116196" lon="8.0129825"><ele>-11.0</ele><time>2026-04-30T09:48:08.644Z</time></trkpt><trkpt lat="34.0116272" lon="8.0130812"><ele>-10.5</ele><time>2026-04-30T09:48:09.666Z</time></trkpt><trkpt lat="34.0116374" lon="8.0131842"><ele>-10.0</ele><time>2026-04-30T09:48:10.641Z</time></trkpt><trkpt lat="34.0116439" lon="8.0132846"><ele>-9.5</ele><time>2026-04-30T09:48:11.638Z</time></trkpt><trkpt lat="34.0116428" lon="8.0133836"><ele>-9.0</ele><time>2026-04-30T09:48:12.644Z</time></trkpt><trkpt lat="34.0116386" lon="8.0134853"><ele>-8.833333333333334</ele><time>2026-04-30T09:48:13.649Z</time></trkpt><trkpt lat="34.0116322" lon="8.0135886"><ele>-8.666666666666666</ele><time>2026-04-30T09:48:14.643Z</time></trkpt><trkpt lat="34.0116186" lon="8.0136971"><ele>-8.5</ele><time>2026-04-30T09:48:15.641Z</time></trkpt><trkpt lat="34.0116033" lon="8.0137992"><ele>-8.333333333333332</ele><time>2026-04-30T09:48:16.647Z</time></trkpt><trkpt lat="34.0115841" lon="8.0139048"><ele>-8.166666666666666</ele><time>2026-04-30T09:48:17.642Z</time></trkpt><trkpt lat="34.0115609" lon="8.0140078"><ele>-8.0</ele><time>2026-04-30T09:48:18.642Z</time></trkpt><trkpt lat="34.0115372" lon="8.0141123"><ele>-8.200000000000001</ele><time>2026-04-30T09:48:19.628Z</time></trkpt><trkpt lat="34.011508" lon="8.0142179"><ele>-8.4</ele><time>2026-04-30T09:48:20.65Z</time></trkpt><trkpt lat="34.0114733" lon="8.0143513"><ele>-8.600000000000001</ele><time>2026-04-30T09:48:21.641Z</time></trkpt><trkpt lat="34.0114296" lon="8.0144785"><ele>-8.8</ele><time>2026-04-30T09:48:22.646Z</time></trkpt><trkpt lat="34.0113794" lon="8.0146135"><ele>-9.0</ele><time>2026-04-30T09:48:23.644Z</time></trkpt><trkpt lat="34.0113324" lon="8.0147461"><ele>-9.0</ele><time>2026-04-30T09:48:24.647Z</time></trkpt><trkpt lat="34.011285" lon="8.0148707"><ele>-9.0</ele><time>2026-04-30T09:48:25.639Z</time></trkpt><trkpt lat="34.0112366" lon="8.0149958"><ele>-9.0</ele><time>2026-04-30T09:48:26.637Z</time></trkpt><trkpt lat="34.0111875" lon="8.0151221"><ele>-9.0</ele><time>2026-04-30T09:48:27.646Z</time></trkpt><trkpt lat="34.011139" lon="8.0152396"><ele>-10.25</ele><time>2026-04-30T09:48:28.637Z</time></trkpt><trkpt lat="34.0110817" lon="8.0153595"><ele>-11.5</ele><time>2026-04-30T09:48:29.634Z</time></trkpt><trkpt lat="34.0110221" lon="8.0154728"><ele>-12.75</ele><time>2026-04-30T09:48:30.64Z</time></trkpt><trkpt lat="34.0109569" lon="8.0155847"><ele>-14.0</ele><time>2026-04-30T09:48:31.657Z</time></trkpt><trkpt lat="34.0108933" lon="8.0156962"><ele>-14.0</ele><time>2026-04-30T09:48:32.636Z</time></trkpt><trkpt lat="34.0108308" lon="8.015803"><ele>-13.999999999999998</ele><time>2026-04-30T09:48:33.637Z</time></trkpt><trkpt lat="34.010771" lon="8.0159141"><ele>-13.999999999999998</ele><time>2026-04-30T09:48:34.638Z</time></trkpt><trkpt lat="34.0107168" lon="8.0160335"><ele>-14.0</ele><time>2026-04-30T09:48:35.641Z</time></trkpt><trkpt lat="34.0106669" lon="8.0161527"><ele>-14.0</ele><time>2026-04-30T09:48:36.642Z</time></trkpt><trkpt lat="34.0106156" lon="8.0162698"><ele>-13.6</ele><time>2026-04-30T09:48:37.642Z</time></trkpt><trkpt lat="34.0105657" lon="8.0163809"><ele>-13.2</ele><time>2026-04-30T09:48:38.641Z</time></trkpt><trkpt lat="34.0105161" lon="8.0164921"><ele>-12.799999999999999</ele><time>2026-04-30T09:48:39.642Z</time></trkpt><trkpt lat="34.0104664" lon="8.0166025"><ele>-12.399999999999999</ele><time>2026-04-30T09:48:40.642Z</time></trkpt><trkpt lat="34.0104187" lon="8.0167113"><ele>-12.0</ele><time>2026-04-30T09:48:41.642Z</time></trkpt><trkpt lat="34.0103698" lon="8.0168212"><ele>-12.0</ele><time>2026-04-30T09:48:42.67Z</time></trkpt><trkpt lat="34.0103194" lon="8.0169419"><ele>-12.0</ele><time>2026-04-30T09:48:43.636Z</time></trkpt><trkpt lat="34.0102692" lon="8.0170564"><ele>-12.0</ele><time>2026-04-30T09:48:44.651Z</time></trkpt><trkpt lat="34.0102194" lon="8.0171725"><ele>-12.0</ele><time>2026-04-30T09:48:45.645Z</time></trkpt><trkpt lat="34.0101745" lon="8.0172789"><ele>-12.0</ele><time>2026-04-30T09:48:46.631Z</time></trkpt><trkpt lat="34.0101247" lon="8.0173852"><ele>-12.0</ele><time>2026-04-30T09:48:47.643Z</time></trkpt><trkpt lat="34.0100758" lon="8.0174884"><ele>-12.0</ele><time>2026-04-30T09:48:48.648Z</time></trkpt><trkpt lat="34.0100288" lon="8.0176014"><ele>-12.0</ele><time>2026-04-30T09:48:49.638Z</time></trkpt><trkpt lat="34.0099858" lon="8.0177101"><ele>-12.0</ele><time>2026-04-30T09:48:50.636Z</time></trkpt><trkpt lat="34.009939" lon="8.0178208"><ele>-12.0</ele><time>2026-04-30T09:48:51.64Z</time></trkpt><trkpt lat="34.0098916" lon="8.0179261"><ele>-11.8</ele><time>2026-04-30T09:48:52.646Z</time></trkpt><trkpt lat="34.0098442" lon="8.0180347"><ele>-11.6</ele><time>2026-04-30T09:48:53.661Z</time></trkpt><trkpt lat="34.0097978" lon="8.0181477"><ele>-11.4</ele><time>2026-04-30T09:48:54.643Z</time></trkpt><trkpt lat="34.0097507" lon="8.0182621"><ele>-11.200000000000001</ele><time>2026-04-30T09:48:55.645Z</time></trkpt><trkpt lat="34.0097034" lon="8.0183756"><ele>-11.0</ele><time>2026-04-30T09:48:56.646Z</time></trkpt><trkpt lat="34.0096624" lon="8.018487"><ele>-11.0</ele><time>2026-04-30T09:48:57.648Z</time></trkpt><trkpt lat="34.0096199" lon="8.018594"><ele>-11.0</ele><time>2026-04-30T09:48:58.644Z</time></trkpt><trkpt lat="34.0095807" lon="8.0187001"><ele>-11.0</ele><time>2026-04-30T09:48:59.647Z</time></trkpt><trkpt lat="34.0095378" lon="8.0188109"><ele>-11.0</ele><time>2026-04-30T09:49:00.644Z</time></trkpt><trkpt lat="34.0094976" lon="8.0189309"><ele>-11.0</ele><time>2026-04-30T09:49:01.644Z</time></trkpt><trkpt lat="34.0094585" lon="8.0190556"><ele>-11.0</ele><time>2026-04-30T09:49:02.651Z</time></trkpt><trkpt lat="34.0094195" lon="8.0191792"><ele>-11.0</ele><time>2026-04-30T09:49:03.642Z</time></trkpt><trkpt lat="34.0093779" lon="8.0193035"><ele>-11.0</ele><time>2026-04-30T09:49:04.649Z</time></trkpt><trkpt lat="34.0093372" lon="8.0194307"><ele>-11.0</ele><time>2026-04-30T09:49:05.645Z</time></trkpt><trkpt lat="34.0092951" lon="8.0195681"><ele>-11.0</ele><time>2026-04-30T09:49:06.643Z</time></trkpt><trkpt lat="34.0092487" lon="8.0197154"><ele>-11.0</ele><time>2026-04-30T09:49:07.648Z</time></trkpt><trkpt lat="34.0092048" lon="8.0198686"><ele>-11.0</ele><time>2026-04-30T09:49:08.644Z</time></trkpt><trkpt lat="34.0091567" lon="8.0200285"><ele>-11.0</ele><time>2026-04-30T09:49:09.66Z</time></trkpt><trkpt lat="34.0091132" lon="8.0201946"><ele>-11.0</ele><time>2026-04-30T09:49:10.643Z</time></trkpt><trkpt lat="34.0090771" lon="8.0203592"><ele>-11.0</ele><time>2026-04-30T09:49:11.644Z</time></trkpt><trkpt lat="34.0090451" lon="8.0205193"><ele>-11.0</ele><time>2026-04-30T09:49:12.648Z</time></trkpt><trkpt lat="34.0090192" lon="8.0206734"><ele>-11.0</ele><time>2026-04-30T09:49:13.649Z</time></trkpt><trkpt lat="34.0089968" lon="8.020828"><ele>-11.0</ele><time>2026-04-30T09:49:14.636Z</time></trkpt><trkpt lat="34.008984" lon="8.0209886"><ele>-11.0</ele><time>2026-04-30T09:49:15.645Z</time></trkpt><trkpt lat="34.0089825" lon="8.0211425"><ele>-11.0</ele><time>2026-04-30T09:49:16.637Z</time></trkpt><trkpt lat="34.0089816" lon="8.021298"><ele>-11.0</ele><time>2026-04-30T09:49:17.643Z</time></trkpt><trkpt lat="34.0089863" lon="8.0214517"><ele>-11.0</ele><time>2026-04-30T09:49:18.643Z</time></trkpt><trkpt lat="34.0089919" lon="8.0216043"><ele>-11.0</ele><time>2026-04-30T09:49:19.642Z</time></trkpt><trkpt lat="34.0090032" lon="8.0217475"><ele>-11.0</ele><time>2026-04-30T09:49:20.64Z</time></trkpt><trkpt lat="34.0090158" lon="8.0218861"><ele>-11.0</ele><time>2026-04-30T09:49:21.652Z</time></trkpt><trkpt lat="34.0090265" lon="8.0220106"><ele>-11.0</ele><time>2026-04-30T09:49:22.645Z</time></trkpt><trkpt lat="34.0090392" lon="8.0221336"><ele>-11.0</ele><time>2026-04-30T09:49:23.652Z</time></trkpt><trkpt lat="34.0090532" lon="8.0222656"><ele>-11.0</ele><time>2026-04-30T09:49:24.65Z</time></trkpt><trkpt lat="34.0090669" lon="8.0223955"><ele>-11.0</ele><time>2026-04-30T09:49:25.642Z</time></trkpt><trkpt lat="34.0090824" lon="8.0225129"><ele>-11.0</ele><time>2026-04-30T09:49:26.681Z</time></trkpt><trkpt lat="34.009098" lon="8.0226335"><ele>-11.0</ele><time>2026-04-30T09:49:27.637Z</time></trkpt><trkpt lat="34.0091131" lon="8.0227519"><ele>-11.0</ele><time>2026-04-30T09:49:28.638Z</time></trkpt><trkpt lat="34.0091272" lon="8.0228703"><ele>-11.0</ele><time>2026-04-30T09:49:29.645Z</time></trkpt><trkpt lat="34.0091437" lon="8.0229845"><ele>-11.0</ele><time>2026-04-30T09:49:30.643Z</time></trkpt><trkpt lat="34.0091683" lon="8.0230912"><ele>-11.0</ele><time>2026-04-30T09:49:31.643Z</time></trkpt><trkpt lat="34.0091881" lon="8.0231972"><ele>-11.4</ele><time>2026-04-30T09:49:32.648Z</time></trkpt><trkpt lat="34.0092088" lon="8.0232994"><ele>-11.8</ele><time>2026-04-30T09:49:33.641Z</time></trkpt><trkpt lat="34.0092423" lon="8.0233975"><ele>-12.200000000000001</ele><time>2026-04-30T09:49:34.64Z</time></trkpt><trkpt lat="34.0092885" lon="8.0234922"><ele>-12.600000000000001</ele><time>2026-04-30T09:49:35.65Z</time></trkpt><trkpt lat="34.0093546" lon="8.0235789"><ele>-13.0</ele><time>2026-04-30T09:49:36.637Z</time></trkpt><trkpt lat="34.0094288" lon="8.0236558"><ele>-13.0</ele><time>2026-04-30T09:49:37.64Z</time></trkpt><trkpt lat="34.009497" lon="8.0237277"><ele>-13.0</ele><time>2026-04-30T09:49:38.643Z</time></trkpt><trkpt lat="34.0095598" lon="8.0238161"><ele>-13.0</ele><time>2026-04-30T09:49:39.643Z</time></trkpt><trkpt lat="34.0096248" lon="8.0239267"><ele>-13.0</ele><time>2026-04-30T09:49:40.645Z</time></trkpt><trkpt lat="34.0096938" lon="8.0240452"><ele>-13.0</ele><time>2026-04-30T09:49:41.643Z</time></trkpt><trkpt lat="34.0097672" lon="8.0241855"><ele>-12.75</ele><time>2026-04-30T09:49:42.65Z</time></trkpt><trkpt lat="34.0098477" lon="8.0243291"><ele>-12.5</ele><time>2026-04-30T09:49:43.665Z</time></trkpt><trkpt lat="34.0099155" lon="8.0244601"><ele>-12.25</ele><time>2026-04-30T09:49:44.666Z</time></trkpt><trkpt lat="34.0099772" lon="8.0245832"><ele>-12.0</ele><time>2026-04-30T09:49:45.648Z</time></trkpt><trkpt lat="34.0100272" lon="8.0246982"><ele>-12.399999999999999</ele><time>2026-04-30T09:49:46.644Z</time></trkpt><trkpt lat="34.0100766" lon="8.0248045"><ele>-12.799999999999999</ele><time>2026-04-30T09:49:47.688Z</time></trkpt><trkpt lat="34.0101284" lon="8.0249035"><ele>-13.2</ele><time>2026-04-30T09:49:48.643Z</time></trkpt><trkpt lat="34.0101751" lon="8.0249963"><ele>-13.6</ele><time>2026-04-30T09:49:49.667Z</time></trkpt><trkpt lat="34.0102114" lon="8.0250973"><ele>-14.0</ele><time>2026-04-30T09:49:50.647Z</time></trkpt><trkpt lat="34.0102397" lon="8.0251977"><ele>-14.0</ele><time>2026-04-30T09:49:51.638Z</time></trkpt><trkpt lat="34.0102645" lon="8.0252948"><ele>-13.999999999999998</ele><time>2026-04-30T09:49:52.644Z</time></trkpt><trkpt lat="34.0102895" lon="8.0253812"><ele>-13.999999999999998</ele><time>2026-04-30T09:49:53.642Z</time></trkpt><trkpt lat="34.010353" lon="8.0255036"><ele>-14.0</ele><time>2026-04-30T09:49:55.629Z</time></trkpt><trkpt lat="34.0104173" lon="8.025604"><ele>-14.0</ele><time>2026-04-30T09:49:57.633Z</time></trkpt><trkpt lat="34.0104829" lon="8.0256813"><ele>-14.000000000000002</ele><time>2026-04-30T09:49:59.65Z</time></trkpt><trkpt lat="34.0105493" lon="8.0257541"><ele>-14.0</ele><time>2026-04-30T09:50:01.646Z</time></trkpt><trkpt lat="34.0106097" lon="8.0258211"><ele>-14.0</ele><time>2026-04-30T09:50:03.642Z</time></trkpt><trkpt lat="34.0106719" lon="8.0258872"><ele>-14.0</ele><time>2026-04-30T09:50:05.638Z</time></trkpt><trkpt lat="34.0107385" lon="8.0259579"><ele>-14.000000000000002</ele><time>2026-04-30T09:50:07.649Z</time></trkpt><trkpt lat="34.0108047" lon="8.0260235"><ele>-14.0</ele><time>2026-04-30T09:50:09.658Z</time></trkpt><trkpt lat="34.0108715" lon="8.0260867"><ele>-14.6</ele><time>2026-04-30T09:50:11.64Z</time></trkpt><trkpt lat="34.0109432" lon="8.0261582"><ele>-15.2</ele><time>2026-04-30T09:50:13.632Z</time></trkpt><trkpt lat="34.0110344" lon="8.026235"><ele>-15.799999999999999</ele><time>2026-04-30T09:50:15.64Z</time></trkpt><trkpt lat="34.0111429" lon="8.0263199"><ele>-16.4</ele><time>2026-04-30T09:50:17.637Z</time></trkpt><trkpt lat="34.0112007" lon="8.0263718"><ele>-17.0</ele><time>2026-04-30T09:50:18.649Z</time></trkpt><trkpt lat="34.0112653" lon="8.0264239"><ele>-16.999999999999996</ele><time>2026-04-30T09:50:19.639Z</time></trkpt><trkpt lat="34.0113203" lon="8.026482"><ele>-17.0</ele><time>2026-04-30T09:50:20.646Z</time></trkpt><trkpt lat="34.0113805" lon="8.0265443"><ele>-17.0</ele><time>2026-04-30T09:50:21.637Z</time></trkpt><trkpt lat="34.0114322" lon="8.0266047"><ele>-17.0</ele><time>2026-04-30T09:50:22.645Z</time></trkpt><trkpt lat="34.0114792" lon="8.0266675"><ele>-17.0</ele><time>2026-04-30T09:50:23.679Z</time></trkpt><trkpt lat="34.0115239" lon="8.0267411"><ele>-16.999999999999996</ele><time>2026-04-30T09:50:24.624Z</time></trkpt><trkpt lat="34.0115635" lon="8.0268205"><ele>-17.0</ele><time>2026-04-30T09:50:25.644Z</time></trkpt><trkpt lat="34.0115982" lon="8.0269056"><ele>-17.0</ele><time>2026-04-30T09:50:26.623Z</time></trkpt><trkpt lat="34.0116309" lon="8.0269895"><ele>-17.0</ele><time>2026-04-30T09:50:27.632Z</time></trkpt><trkpt lat="34.0116628" lon="8.027073"><ele>-17.0</ele><time>2026-04-30T09:50:28.626Z</time></trkpt><trkpt lat="34.0116932" lon="8.0271623"><ele>-17.0</ele><time>2026-04-30T09:50:29.633Z</time></trkpt><trkpt lat="34.011722" lon="8.0272552"><ele>-17.0</ele><time>2026-04-30T09:50:30.633Z</time></trkpt><trkpt lat="34.0117359" lon="8.0273461"><ele>-17.0</ele><time>2026-04-30T09:50:31.663Z</time></trkpt><trkpt lat="34.0117521" lon="8.0274349"><ele>-17.0</ele><time>2026-04-30T09:50:32.633Z</time></trkpt><trkpt lat="34.0117649" lon="8.0275348"><ele>-17.0</ele><time>2026-04-30T09:50:33.639Z</time></trkpt><trkpt lat="34.0117777" lon="8.0276341"><ele>-17.0</ele><time>2026-04-30T09:50:34.639Z</time></trkpt><trkpt lat="34.011795" lon="8.0277318"><ele>-17.0</ele><time>2026-04-30T09:50:35.641Z</time></trkpt><trkpt lat="34.0118156" lon="8.0278362"><ele>-17.0</ele><time>2026-04-30T09:50:36.632Z</time></trkpt><trkpt lat="34.0118349" lon="8.0279357"><ele>-17.0</ele><time>2026-04-30T09:50:37.63Z</time></trkpt><trkpt lat="34.011856" lon="8.0280383"><ele>-17.0</ele><time>2026-04-30T09:50:38.631Z</time></trkpt><trkpt lat="34.0118787" lon="8.0281356"><ele>-17.0</ele><time>2026-04-30T09:50:39.641Z</time></trkpt><trkpt lat="34.0119017" lon="8.0282342"><ele>-17.0</ele><time>2026-04-30T09:50:40.675Z</time></trkpt><trkpt lat="34.0119266" lon="8.0283185"><ele>-17.0</ele><time>2026-04-30T09:50:41.671Z</time></trkpt><trkpt lat="34.0119616" lon="8.028406"><ele>-17.0</ele><time>2026-04-30T09:50:42.645Z</time></trkpt><trkpt lat="34.0120096" lon="8.0284862"><ele>-17.0</ele><time>2026-04-30T09:50:43.646Z</time></trkpt><trkpt lat="34.0120623" lon="8.0285612"><ele>-17.333333333333336</ele><time>2026-04-30T09:50:44.68Z</time></trkpt><trkpt lat="34.0121203" lon="8.0286388"><ele>-17.666666666666668</ele><time>2026-04-30T09:50:45.685Z</time></trkpt><trkpt lat="34.0121789" lon="8.0287201"><ele>-18.0</ele><time>2026-04-30T09:50:46.687Z</time></trkpt><trkpt lat="34.01223" lon="8.0288015"><ele>-18.333333333333332</ele><time>2026-04-30T09:50:47.675Z</time></trkpt><trkpt lat="34.0122813" lon="8.0288773"><ele>-18.666666666666664</ele><time>2026-04-30T09:50:48.652Z</time></trkpt><trkpt lat="34.0123289" lon="8.0289475"><ele>-19.0</ele><time>2026-04-30T09:50:49.671Z</time></trkpt><trkpt lat="34.0123753" lon="8.0290244"><ele>-19.0</ele><time>2026-04-30T09:50:50.671Z</time></trkpt><trkpt lat="34.0124207" lon="8.0291079"><ele>-19.0</ele><time>2026-04-30T09:50:51.656Z</time></trkpt><trkpt lat="34.012469" lon="8.0291881"><ele>-19.0</ele><time>2026-04-30T09:50:52.643Z</time></trkpt><trkpt lat="34.012519" lon="8.0292735"><ele>-19.0</ele><time>2026-04-30T09:50:53.688Z</time></trkpt><trkpt lat="34.0125722" lon="8.029355"><ele>-19.0</ele><time>2026-04-30T09:50:54.677Z</time></trkpt><trkpt lat="34.0126287" lon="8.0294356"><ele>-19.0</ele><time>2026-04-30T09:50:55.656Z</time></trkpt><trkpt lat="34.0126865" lon="8.0295177"><ele>-18.833333333333332</ele><time>2026-04-30T09:50:56.691Z</time></trkpt><trkpt lat="34.0127452" lon="8.0295932"><ele>-18.666666666666664</ele><time>2026-04-30T09:50:57.634Z</time></trkpt><trkpt lat="34.0128012" lon="8.0296669"><ele>-18.5</ele><time>2026-04-30T09:50:58.645Z</time></trkpt><trkpt lat="34.0128513" lon="8.0297365"><ele>-18.333333333333332</ele><time>2026-04-30T09:50:59.674Z</time></trkpt><trkpt lat="34.0128989" lon="8.0298063"><ele>-18.166666666666668</ele><time>2026-04-30T09:51:00.648Z</time></trkpt><trkpt lat="34.0129446" lon="8.0298785"><ele>-18.0</ele><time>2026-04-30T09:51:01.683Z</time></trkpt><trkpt lat="34.0129898" lon="8.0299526"><ele>-17.833333333333332</ele><time>2026-04-30T09:51:02.645Z</time></trkpt><trkpt lat="34.0130348" lon="8.0300342"><ele>-17.666666666666668</ele><time>2026-04-30T09:51:03.666Z</time></trkpt><trkpt lat="34.0130729" lon="8.0301209"><ele>-17.5</ele><time>2026-04-30T09:51:04.67Z</time></trkpt><trkpt lat="34.0131188" lon="8.0302113"><ele>-17.333333333333336</ele><time>2026-04-30T09:51:05.677Z</time></trkpt><trkpt lat="34.0131667" lon="8.0302974"><ele>-17.166666666666668</ele><time>2026-04-30T09:51:06.687Z</time></trkpt><trkpt lat="34.0132153" lon="8.0303781"><ele>-17.0</ele><time>2026-04-30T09:51:07.681Z</time></trkpt><trkpt lat="34.0132646" lon="8.0304527"><ele>-17.0</ele><time>2026-04-30T09:51:08.67Z</time></trkpt><trkpt lat="34.013325" lon="8.030525"><ele>-17.0</ele><time>2026-04-30T09:51:09.656Z</time></trkpt><trkpt lat="34.0133979" lon="8.0306033"><ele>-17.0</ele><time>2026-04-30T09:51:10.67Z</time></trkpt><trkpt lat="34.0134755" lon="8.0306961"><ele>-17.0</ele><time>2026-04-30T09:51:11.681Z</time></trkpt><trkpt lat="34.0135587" lon="8.030792"><ele>-17.0</ele><time>2026-04-30T09:51:12.687Z</time></trkpt><trkpt lat="34.0136388" lon="8.0308749"><ele>-17.6</ele><time>2026-04-30T09:51:13.659Z</time></trkpt><trkpt lat="34.0137241" lon="8.0309584"><ele>-18.2</ele><time>2026-04-30T09:51:14.654Z</time></trkpt><trkpt lat="34.0138084" lon="8.0310429"><ele>-18.8</ele><time>2026-04-30T09:51:15.688Z</time></trkpt><trkpt lat="34.0138874" lon="8.0311246"><ele>-19.4</ele><time>2026-04-30T09:51:16.685Z</time></trkpt><trkpt lat="34.0139555" lon="8.0312115"><ele>-20.0</ele><time>2026-04-30T09:51:17.694Z</time></trkpt><trkpt lat="34.0140201" lon="8.0313119"><ele>-20.0</ele><time>2026-04-30T09:51:18.672Z</time></trkpt><trkpt lat="34.0140877" lon="8.0314214"><ele>-20.0</ele><time>2026-04-30T09:51:19.688Z</time></trkpt><trkpt lat="34.0141538" lon="8.0315504"><ele>-20.0</ele><time>2026-04-30T09:51:20.683Z</time></trkpt><trkpt lat="34.0142247" lon="8.031693"><ele>-20.0</ele><time>2026-04-30T09:51:21.693Z</time></trkpt><trkpt lat="34.0142924" lon="8.0318209"><ele>-19.6</ele><time>2026-04-30T09:51:22.636Z</time></trkpt><trkpt lat="34.0143458" lon="8.0319185"><ele>-19.2</ele><time>2026-04-30T09:51:23.683Z</time></trkpt><trkpt lat="34.0143941" lon="8.0320048"><ele>-18.8</ele><time>2026-04-30T09:51:24.656Z</time></trkpt><trkpt lat="34.014441" lon="8.0320942"><ele>-18.4</ele><time>2026-04-30T09:51:25.678Z</time></trkpt><trkpt lat="34.0144917" lon="8.0321927"><ele>-18.0</ele><time>2026-04-30T09:51:26.713Z</time></trkpt><trkpt lat="34.0145574" lon="8.0323094"><ele>-18.0</ele><time>2026-04-30T09:51:27.662Z</time></trkpt><trkpt lat="34.0146212" lon="8.0324162"><ele>-18.0</ele><time>2026-04-30T09:51:28.692Z</time></trkpt><trkpt lat="34.0146864" lon="8.0325316"><ele>-18.0</ele><time>2026-04-30T09:51:29.671Z</time></trkpt><trkpt lat="34.0147497" lon="8.032648"><ele>-18.0</ele><time>2026-04-30T09:51:30.683Z</time></trkpt><trkpt lat="34.0148184" lon="8.0327651"><ele>-17.75</ele><time>2026-04-30T09:51:31.661Z</time></trkpt><trkpt lat="34.0148865" lon="8.0328823"><ele>-17.5</ele><time>2026-04-30T09:51:32.644Z</time></trkpt><trkpt lat="34.0149561" lon="8.0330056"><ele>-17.25</ele><time>2026-04-30T09:51:33.677Z</time></trkpt><trkpt lat="34.0150306" lon="8.0331313"><ele>-17.0</ele><time>2026-04-30T09:51:34.674Z</time></trkpt><trkpt lat="34.015093" lon="8.0332595"><ele>-17.25</ele><time>2026-04-30T09:51:35.676Z</time></trkpt><trkpt lat="34.015144" lon="8.0333992"><ele>-17.5</ele><time>2026-04-30T09:51:36.679Z</time></trkpt><trkpt lat="34.0151982" lon="8.0335384"><ele>-17.75</ele><time>2026-04-30T09:51:37.666Z</time></trkpt><trkpt lat="34.015253" lon="8.0336792"><ele>-18.0</ele><time>2026-04-30T09:51:38.666Z</time></trkpt><trkpt lat="34.0153041" lon="8.033827"><ele>-18.0</ele><time>2026-04-30T09:51:39.69Z</time></trkpt><trkpt lat="34.0153597" lon="8.0339718"><ele>-18.0</ele><time>2026-04-30T09:51:40.696Z</time></trkpt><trkpt lat="34.0154156" lon="8.0341091"><ele>-18.0</ele><time>2026-04-30T09:51:41.666Z</time></trkpt><trkpt lat="34.0154708" lon="8.0342398"><ele>-18.0</ele><time>2026-04-30T09:51:42.688Z</time></trkpt><trkpt lat="34.0155257" lon="8.0343681"><ele>-18.4</ele><time>2026-04-30T09:51:43.687Z</time></trkpt><trkpt lat="34.0155845" lon="8.0344931"><ele>-18.8</ele><time>2026-04-30T09:51:44.667Z</time></trkpt><trkpt lat="34.0156381" lon="8.0346193"><ele>-19.2</ele><time>2026-04-30T09:51:45.678Z</time></trkpt><trkpt lat="34.0156814" lon="8.0347343"><ele>-19.6</ele><time>2026-04-30T09:51:46.668Z</time></trkpt><trkpt lat="34.0157206" lon="8.0348506"><ele>-20.0</ele><time>2026-04-30T09:51:47.668Z</time></trkpt><trkpt lat="34.0157582" lon="8.0349682"><ele>-19.6</ele><time>2026-04-30T09:51:48.682Z</time></trkpt><trkpt lat="34.0157948" lon="8.0350917"><ele>-19.2</ele><time>2026-04-30T09:51:49.681Z</time></trkpt><trkpt lat="34.015834" lon="8.0352143"><ele>-18.8</ele><time>2026-04-30T09:51:50.685Z</time></trkpt><trkpt lat="34.0158769" lon="8.0353394"><ele>-18.4</ele><time>2026-04-30T09:51:51.689Z</time></trkpt><trkpt lat="34.0159253" lon="8.0354687"><ele>-18.0</ele><time>2026-04-30T09:51:52.642Z</time></trkpt><trkpt lat="34.0159734" lon="8.0355968"><ele>-18.0</ele><time>2026-04-30T09:51:53.653Z</time></trkpt><trkpt lat="34.0160227" lon="8.0357309"><ele>-18.0</ele><time>2026-04-30T09:51:54.683Z</time></trkpt><trkpt lat="34.0160725" lon="8.0358703"><ele>-18.0</ele><time>2026-04-30T09:51:55.682Z</time></trkpt><trkpt lat="34.0161224" lon="8.0360176"><ele>-18.0</ele><time>2026-04-30T09:51:56.677Z</time></trkpt><trkpt lat="34.0161741" lon="8.0361606"><ele>-18.0</ele><time>2026-04-30T09:51:57.673Z</time></trkpt><trkpt lat="34.0162232" lon="8.036311"><ele>-18.0</ele><time>2026-04-30T09:51:58.661Z</time></trkpt><trkpt lat="34.0162706" lon="8.0364604"><ele>-18.0</ele><time>2026-04-30T09:51:59.685Z</time></trkpt><trkpt lat="34.0163139" lon="8.0366138"><ele>-18.0</ele><time>2026-04-30T09:52:00.692Z</time></trkpt><trkpt lat="34.0163558" lon="8.0367677"><ele>-18.5</ele><time>2026-04-30T09:52:01.663Z</time></trkpt><trkpt lat="34.0163973" lon="8.036923"><ele>-19.0</ele><time>2026-04-30T09:52:02.668Z</time></trkpt><trkpt lat="34.016432" lon="8.0370811"><ele>-19.5</ele><time>2026-04-30T09:52:03.661Z</time></trkpt><trkpt lat="34.0164649" lon="8.0372417"><ele>-20.0</ele><time>2026-04-30T09:52:04.671Z</time></trkpt><trkpt lat="34.0164948" lon="8.0374013"><ele>-19.75</ele><time>2026-04-30T09:52:05.648Z</time></trkpt><trkpt lat="34.0165213" lon="8.037568"><ele>-19.5</ele><time>2026-04-30T09:52:06.68Z</time></trkpt><trkpt lat="34.016545" lon="8.0377351"><ele>-19.25</ele><time>2026-04-30T09:52:07.689Z</time></trkpt><trkpt lat="34.0165705" lon="8.037898"><ele>-19.0</ele><time>2026-04-30T09:52:08.68Z</time></trkpt><trkpt lat="34.0166034" lon="8.0380599"><ele>-19.0</ele><time>2026-04-30T09:52:09.688Z</time></trkpt><trkpt lat="34.0166437" lon="8.0382254"><ele>-19.0</ele><time>2026-04-30T09:52:10.665Z</time></trkpt><trkpt lat="34.0166825" lon="8.0383851"><ele>-19.0</ele><time>2026-04-30T09:52:11.694Z</time></trkpt><trkpt lat="34.0167306" lon="8.0385427"><ele>-19.0</ele><time>2026-04-30T09:52:12.67Z</time></trkpt><trkpt lat="34.0167772" lon="8.0387048"><ele>-19.0</ele><time>2026-04-30T09:52:13.695Z</time></trkpt><trkpt lat="34.0168277" lon="8.0388662"><ele>-19.0</ele><time>2026-04-30T09:52:14.699Z</time></trkpt><trkpt lat="34.0168687" lon="8.0390185"><ele>-19.0</ele><time>2026-04-30T09:52:15.648Z</time></trkpt><trkpt lat="34.0169072" lon="8.0391718"><ele>-19.0</ele><time>2026-04-30T09:52:16.691Z</time></trkpt><trkpt lat="34.016941" lon="8.0393282"><ele>-18.0</ele><time>2026-04-30T09:52:17.675Z</time></trkpt><trkpt lat="34.0169726" lon="8.0394868"><ele>-17.0</ele><time>2026-04-30T09:52:18.683Z</time></trkpt><trkpt lat="34.017" lon="8.0396451"><ele>-16.0</ele><time>2026-04-30T09:52:19.67Z</time></trkpt><trkpt lat="34.017022" lon="8.0398068"><ele>-15.0</ele><time>2026-04-30T09:52:20.683Z</time></trkpt><trkpt lat="34.0170471" lon="8.0399632"><ele>-15.5</ele><time>2026-04-30T09:52:21.671Z</time></trkpt><trkpt lat="34.017072" lon="8.0401324"><ele>-16.0</ele><time>2026-04-30T09:52:22.666Z</time></trkpt><trkpt lat="34.0170915" lon="8.0403063"><ele>-16.5</ele><time>2026-04-30T09:52:23.684Z</time></trkpt><trkpt lat="34.0171141" lon="8.0404974"><ele>-17.0</ele><time>2026-04-30T09:52:24.681Z</time></trkpt><trkpt lat="34.0171263" lon="8.0406994"><ele>-17.333333333333336</ele><time>2026-04-30T09:52:25.686Z</time></trkpt><trkpt lat="34.0171189" lon="8.0409067"><ele>-17.666666666666668</ele><time>2026-04-30T09:52:26.652Z</time></trkpt><trkpt lat="34.0171063" lon="8.0411117"><ele>-18.0</ele><time>2026-04-30T09:52:27.679Z</time></trkpt><trkpt lat="34.0170886" lon="8.0412995"><ele>-18.0</ele><time>2026-04-30T09:52:28.652Z</time></trkpt><trkpt lat="34.017081" lon="8.0414845"><ele>-18.0</ele><time>2026-04-30T09:52:29.679Z</time></trkpt><trkpt lat="34.0170788" lon="8.0416788"><ele>-18.0</ele><time>2026-04-30T09:52:30.672Z</time></trkpt><trkpt lat="34.0170794" lon="8.0418738"><ele>-17.666666666666668</ele><time>2026-04-30T09:52:31.685Z</time></trkpt><trkpt lat="34.0170887" lon="8.0420758"><ele>-17.333333333333336</ele><time>2026-04-30T09:52:32.665Z</time></trkpt><trkpt lat="34.0171015" lon="8.0422763"><ele>-17.0</ele><time>2026-04-30T09:52:33.657Z</time></trkpt><trkpt lat="34.0171116" lon="8.0424796"><ele>-16.666666666666668</ele><time>2026-04-30T09:52:34.669Z</time></trkpt><trkpt lat="34.0171154" lon="8.0426872"><ele>-16.333333333333332</ele><time>2026-04-30T09:52:35.696Z</time></trkpt><trkpt lat="34.017117" lon="8.0428926"><ele>-16.0</ele><time>2026-04-30T09:52:36.683Z</time></trkpt><trkpt lat="34.0171186" lon="8.0430962"><ele>-16.333333333333332</ele><time>2026-04-30T09:52:37.688Z</time></trkpt><trkpt lat="34.0171245" lon="8.043302"><ele>-16.666666666666668</ele><time>2026-04-30T09:52:38.676Z</time></trkpt><trkpt lat="34.0171337" lon="8.043505"><ele>-17.0</ele><time>2026-04-30T09:52:39.687Z</time></trkpt><trkpt lat="34.0171398" lon="8.0437073"><ele>-17.0</ele><time>2026-04-30T09:52:40.681Z</time></trkpt><trkpt lat="34.0171512" lon="8.0439189"><ele>-17.0</ele><time>2026-04-30T09:52:41.682Z</time></trkpt><trkpt lat="34.0171629" lon="8.0441196"><ele>-17.0</ele><time>2026-04-30T09:52:42.674Z</time></trkpt><trkpt lat="34.0171783" lon="8.0443112"><ele>-17.5</ele><time>2026-04-30T09:52:43.639Z</time></trkpt><trkpt lat="34.0171865" lon="8.0444823"><ele>-18.0</ele><time>2026-04-30T09:52:44.674Z</time></trkpt><trkpt lat="34.0171945" lon="8.0446389"><ele>-18.5</ele><time>2026-04-30T09:52:45.682Z</time></trkpt><trkpt lat="34.0172046" lon="8.0447673"><ele>-19.0</ele><time>2026-04-30T09:52:46.687Z</time></trkpt><trkpt lat="34.0172108" lon="8.0448822"><ele>-19.2</ele><time>2026-04-30T09:52:47.651Z</time></trkpt><trkpt lat="34.0172139" lon="8.0449914"><ele>-19.4</ele><time>2026-04-30T09:52:48.671Z</time></trkpt><trkpt lat="34.0172199" lon="8.0450973"><ele>-19.6</ele><time>2026-04-30T09:52:49.686Z</time></trkpt><trkpt lat="34.0172294" lon="8.0452136"><ele>-19.8</ele><time>2026-04-30T09:52:50.681Z</time></trkpt><trkpt lat="34.0172404" lon="8.0453189"><ele>-20.0</ele><time>2026-04-30T09:52:51.682Z</time></trkpt><trkpt lat="34.0172473" lon="8.0454283"><ele>-20.0</ele><time>2026-04-30T09:52:52.667Z</time></trkpt><trkpt lat="34.0172514" lon="8.0455372"><ele>-20.0</ele><time>2026-04-30T09:52:53.659Z</time></trkpt><trkpt lat="34.0172559" lon="8.0456433"><ele>-20.0</ele><time>2026-04-30T09:52:54.674Z</time></trkpt><trkpt lat="34.0172629" lon="8.0457465"><ele>-20.0</ele><time>2026-04-30T09:52:55.689Z</time></trkpt><trkpt lat="34.0172705" lon="8.0458525"><ele>-20.0</ele><time>2026-04-30T09:52:56.645Z</time></trkpt><trkpt lat="34.0172753" lon="8.0459727"><ele>-19.6</ele><time>2026-04-30T09:52:57.643Z</time></trkpt><trkpt lat="34.0172805" lon="8.0461031"><ele>-19.2</ele><time>2026-04-30T09:52:58.638Z</time></trkpt><trkpt lat="34.0172907" lon="8.046226"><ele>-18.8</ele><time>2026-04-30T09:52:59.67Z</time></trkpt><trkpt lat="34.0172991" lon="8.0463535"><ele>-18.4</ele><time>2026-04-30T09:53:00.641Z</time></trkpt><trkpt lat="34.0173127" lon="8.0464837"><ele>-18.0</ele><time>2026-04-30T09:53:01.622Z</time></trkpt><trkpt lat="34.0173279" lon="8.046619"><ele>-17.75</ele><time>2026-04-30T09:53:02.638Z</time></trkpt><trkpt lat="34.0173455" lon="8.0467511"><ele>-17.5</ele><time>2026-04-30T09:53:03.676Z</time></trkpt><trkpt lat="34.0173637" lon="8.0468877"><ele>-17.25</ele><time>2026-04-30T09:53:04.679Z</time></trkpt><trkpt lat="34.0173845" lon="8.0470249"><ele>-17.0</ele><time>2026-04-30T09:53:05.649Z</time></trkpt><trkpt lat="34.017406" lon="8.0471649"><ele>-17.0</ele><time>2026-04-30T09:53:06.685Z</time></trkpt><trkpt lat="34.0174259" lon="8.0473176"><ele>-17.0</ele><time>2026-04-30T09:53:07.666Z</time></trkpt><trkpt lat="34.0174512" lon="8.0474681"><ele>-17.0</ele><time>2026-04-30T09:53:08.676Z</time></trkpt><trkpt lat="34.0174802" lon="8.0476126"><ele>-17.0</ele><time>2026-04-30T09:53:09.684Z</time></trkpt><trkpt lat="34.017504" lon="8.0477529"><ele>-17.2</ele><time>2026-04-30T09:53:10.667Z</time></trkpt><trkpt lat="34.0175288" lon="8.0478829"><ele>-17.4</ele><time>2026-04-30T09:53:11.69Z</time></trkpt><trkpt lat="34.0175462" lon="8.0480049"><ele>-17.6</ele><time>2026-04-30T09:53:12.685Z</time></trkpt><trkpt lat="34.0175708" lon="8.0481158"><ele>-17.8</ele><time>2026-04-30T09:53:13.681Z</time></trkpt><trkpt lat="34.017587" lon="8.0482199"><ele>-18.0</ele><time>2026-04-30T09:53:14.683Z</time></trkpt><trkpt lat="34.0176039" lon="8.0483166"><ele>-18.0</ele><time>2026-04-30T09:53:15.639Z</time></trkpt><trkpt lat="34.0176188" lon="8.0484147"><ele>-18.0</ele><time>2026-04-30T09:53:16.69Z</time></trkpt><trkpt lat="34.0176342" lon="8.0485133"><ele>-18.0</ele><time>2026-04-30T09:53:17.677Z</time></trkpt><trkpt lat="34.0176513" lon="8.0486115"><ele>-18.0</ele><time>2026-04-30T09:53:18.667Z</time></trkpt><trkpt lat="34.0176692" lon="8.0487154"><ele>-18.0</ele><time>2026-04-30T09:53:19.68Z</time></trkpt><trkpt lat="34.0177019" lon="8.0488253"><ele>-18.0</ele><time>2026-04-30T09:53:20.691Z</time></trkpt><trkpt lat="34.0177288" lon="8.048942"><ele>-18.0</ele><time>2026-04-30T09:53:21.677Z</time></trkpt><trkpt lat="34.0177563" lon="8.0490635"><ele>-18.0</ele><time>2026-04-30T09:53:22.679Z</time></trkpt><trkpt lat="34.0177865" lon="8.049187"><ele>-18.0</ele><time>2026-04-30T09:53:23.671Z</time></trkpt><trkpt lat="34.0178179" lon="8.0493064"><ele>-18.0</ele><time>2026-04-30T09:53:24.631Z</time></trkpt><trkpt lat="34.0178532" lon="8.0494288"><ele>-18.0</ele><time>2026-04-30T09:53:25.676Z</time></trkpt><trkpt lat="34.0178946" lon="8.0495574"><ele>-18.0</ele><time>2026-04-30T09:53:26.678Z</time></trkpt><trkpt lat="34.0179407" lon="8.0496826"><ele>-18.0</ele><time>2026-04-30T09:53:27.682Z</time></trkpt><trkpt lat="34.0179934" lon="8.0498033"><ele>-18.0</ele><time>2026-04-30T09:53:28.657Z</time></trkpt><trkpt lat="34.018046" lon="8.0499241"><ele>-18.0</ele><time>2026-04-30T09:53:29.679Z</time></trkpt><trkpt lat="34.0180964" lon="8.0500436"><ele>-17.6</ele><time>2026-04-30T09:53:30.663Z</time></trkpt><trkpt lat="34.0181401" lon="8.0501654"><ele>-17.200000000000003</ele><time>2026-04-30T09:53:31.671Z</time></trkpt><trkpt lat="34.0181833" lon="8.0502888"><ele>-16.8</ele><time>2026-04-30T09:53:32.743Z</time></trkpt><trkpt lat="34.0182253" lon="8.0504116"><ele>-16.400000000000002</ele><time>2026-04-30T09:53:33.67Z</time></trkpt><trkpt lat="34.0182706" lon="8.0505378"><ele>-16.0</ele><time>2026-04-30T09:53:34.681Z</time></trkpt><trkpt lat="34.0183171" lon="8.0506651"><ele>-16.5</ele><time>2026-04-30T09:53:35.671Z</time></trkpt><trkpt lat="34.0183566" lon="8.0508006"><ele>-17.0</ele><time>2026-04-30T09:53:36.684Z</time></trkpt><trkpt lat="34.0183912" lon="8.0509346"><ele>-17.5</ele><time>2026-04-30T09:53:37.683Z</time></trkpt><trkpt lat="34.0184279" lon="8.0510784"><ele>-18.0</ele><time>2026-04-30T09:53:38.671Z</time></trkpt><trkpt lat="34.0184652" lon="8.0512227"><ele>-18.0</ele><time>2026-04-30T09:53:39.654Z</time></trkpt><trkpt lat="34.0184965" lon="8.0513746"><ele>-18.0</ele><time>2026-04-30T09:53:40.686Z</time></trkpt><trkpt lat="34.0185363" lon="8.051519"><ele>-18.0</ele><time>2026-04-30T09:53:41.687Z</time></trkpt><trkpt lat="34.0185762" lon="8.051671"><ele>-18.0</ele><time>2026-04-30T09:53:42.663Z</time></trkpt><trkpt lat="34.0186187" lon="8.0518216"><ele>-17.75</ele><time>2026-04-30T09:53:43.691Z</time></trkpt><trkpt lat="34.0186653" lon="8.0519733"><ele>-17.5</ele><time>2026-04-30T09:53:44.687Z</time></trkpt><trkpt lat="34.01871" lon="8.0521323"><ele>-17.25</ele><time>2026-04-30T09:53:45.682Z</time></trkpt><trkpt lat="34.0187544" lon="8.0522898"><ele>-17.0</ele><time>2026-04-30T09:53:46.679Z</time></trkpt><trkpt lat="34.0188014" lon="8.0524534"><ele>-17.25</ele><time>2026-04-30T09:53:47.68Z</time></trkpt><trkpt lat="34.0188427" lon="8.0526068"><ele>-17.5</ele><time>2026-04-30T09:53:48.661Z</time></trkpt><trkpt lat="34.018889" lon="8.0527618"><ele>-17.75</ele><time>2026-04-30T09:53:49.684Z</time></trkpt><trkpt lat="34.018927" lon="8.05292"><ele>-18.0</ele><time>2026-04-30T09:53:50.688Z</time></trkpt><trkpt lat="34.01896" lon="8.0530742"><ele>-18.0</ele><time>2026-04-30T09:53:51.677Z</time></trkpt><trkpt lat="34.0189938" lon="8.0532325"><ele>-18.0</ele><time>2026-04-30T09:53:52.669Z</time></trkpt><trkpt lat="34.019035" lon="8.0533901"><ele>-18.0</ele><time>2026-04-30T09:53:53.667Z</time></trkpt><trkpt lat="34.0190825" lon="8.0535421"><ele>-18.0</ele><time>2026-04-30T09:53:54.646Z</time></trkpt><trkpt lat="34.0191249" lon="8.0536914"><ele>-18.0</ele><time>2026-04-30T09:53:55.671Z</time></trkpt><trkpt lat="34.0191698" lon="8.0538389"><ele>-18.0</ele><time>2026-04-30T09:53:56.629Z</time></trkpt><trkpt lat="34.0192237" lon="8.0539863"><ele>-18.0</ele><time>2026-04-30T09:53:57.687Z</time></trkpt><trkpt lat="34.0192788" lon="8.0541335"><ele>-18.0</ele><time>2026-04-30T09:53:58.675Z</time></trkpt><trkpt lat="34.0193342" lon="8.0542827"><ele>-18.0</ele><time>2026-04-30T09:53:59.662Z</time></trkpt><trkpt lat="34.019383" lon="8.0544283"><ele>-18.0</ele><time>2026-04-30T09:54:00.661Z</time></trkpt><trkpt lat="34.0194218" lon="8.0545638"><ele>-18.0</ele><time>2026-04-30T09:54:01.664Z</time></trkpt><trkpt lat="34.0194455" lon="8.0546959"><ele>-18.0</ele><time>2026-04-30T09:54:02.675Z</time></trkpt><trkpt lat="34.0194651" lon="8.0548377"><ele>-18.0</ele><time>2026-04-30T09:54:03.673Z</time></trkpt><trkpt lat="34.0194841" lon="8.0549923"><ele>-18.0</ele><time>2026-04-30T09:54:04.685Z</time></trkpt><trkpt lat="34.0195135" lon="8.0551467"><ele>-18.0</ele><time>2026-04-30T09:54:05.675Z</time></trkpt><trkpt lat="34.0195466" lon="8.0553042"><ele>-18.0</ele><time>2026-04-30T09:54:06.681Z</time></trkpt><trkpt lat="34.0195769" lon="8.0554643"><ele>-18.0</ele><time>2026-04-30T09:54:07.682Z</time></trkpt><trkpt lat="34.01961" lon="8.0556194"><ele>-18.0</ele><time>2026-04-30T09:54:08.68Z</time></trkpt><trkpt lat="34.019643" lon="8.0557709"><ele>-18.0</ele><time>2026-04-30T09:54:09.686Z</time></trkpt><trkpt lat="34.0196746" lon="8.0559195"><ele>-18.0</ele><time>2026-04-30T09:54:10.676Z</time></trkpt><trkpt lat="34.0197076" lon="8.0560683"><ele>-18.0</ele><time>2026-04-30T09:54:11.666Z</time></trkpt><trkpt lat="34.0197513" lon="8.0562133"><ele>-18.0</ele><time>2026-04-30T09:54:12.663Z</time></trkpt><trkpt lat="34.0197938" lon="8.0563624"><ele>-18.0</ele><time>2026-04-30T09:54:13.684Z</time></trkpt><trkpt lat="34.0198402" lon="8.0565124"><ele>-18.0</ele><time>2026-04-30T09:54:14.655Z</time></trkpt><trkpt lat="34.019881" lon="8.056669"><ele>-18.25</ele><time>2026-04-30T09:54:15.656Z</time></trkpt><trkpt lat="34.0199147" lon="8.056821"><ele>-18.5</ele><time>2026-04-30T09:54:16.666Z</time></trkpt><trkpt lat="34.0199533" lon="8.0569737"><ele>-18.75</ele><time>2026-04-30T09:54:17.661Z</time></trkpt><trkpt lat="34.0199942" lon="8.0571322"><ele>-19.0</ele><time>2026-04-30T09:54:18.655Z</time></trkpt><trkpt lat="34.0200467" lon="8.0572877"><ele>-19.0</ele><time>2026-04-30T09:54:19.677Z</time></trkpt><trkpt lat="34.0201027" lon="8.0574379"><ele>-19.0</ele><time>2026-04-30T09:54:20.677Z</time></trkpt><trkpt lat="34.0201671" lon="8.0575817"><ele>-19.0</ele><time>2026-04-30T09:54:21.671Z</time></trkpt><trkpt lat="34.0202378" lon="8.0577282"><ele>-19.0</ele><time>2026-04-30T09:54:22.662Z</time></trkpt><trkpt lat="34.0203054" lon="8.0578711"><ele>-18.5</ele><time>2026-04-30T09:54:23.682Z</time></trkpt><trkpt lat="34.0203674" lon="8.0580165"><ele>-18.0</ele><time>2026-04-30T09:54:24.685Z</time></trkpt><trkpt lat="34.0204242" lon="8.0581662"><ele>-17.5</ele><time>2026-04-30T09:54:25.673Z</time></trkpt><trkpt lat="34.0204687" lon="8.0583232"><ele>-17.0</ele><time>2026-04-30T09:54:26.686Z</time></trkpt><trkpt lat="34.0205148" lon="8.0584788"><ele>-16.75</ele><time>2026-04-30T09:54:27.682Z</time></trkpt><trkpt lat="34.0205571" lon="8.0586338"><ele>-16.5</ele><time>2026-04-30T09:54:28.674Z</time></trkpt><trkpt lat="34.020599" lon="8.0587852"><ele>-16.25</ele><time>2026-04-30T09:54:29.667Z</time></trkpt><trkpt lat="34.0206368" lon="8.0589437"><ele>-16.0</ele><time>2026-04-30T09:54:30.678Z</time></trkpt><trkpt lat="34.0206775" lon="8.0591008"><ele>-16.5</ele><time>2026-04-30T09:54:31.653Z</time></trkpt><trkpt lat="34.0207165" lon="8.0592639"><ele>-17.0</ele><time>2026-04-30T09:54:32.651Z</time></trkpt><trkpt lat="34.0207597" lon="8.0594284"><ele>-17.5</ele><time>2026-04-30T09:54:33.666Z</time></trkpt><trkpt lat="34.0208003" lon="8.0595943"><ele>-18.0</ele><time>2026-04-30T09:54:34.66Z</time></trkpt><trkpt lat="34.0208397" lon="8.0597594"><ele>-18.0</ele><time>2026-04-30T09:54:35.681Z</time></trkpt><trkpt lat="34.0208861" lon="8.0599212"><ele>-18.0</ele><time>2026-04-30T09:54:36.683Z</time></trkpt><trkpt lat="34.0209353" lon="8.0600875"><ele>-18.0</ele><time>2026-04-30T09:54:37.679Z</time></trkpt><trkpt lat="34.0209802" lon="8.0602549"><ele>-18.0</ele><time>2026-04-30T09:54:38.681Z</time></trkpt><trkpt lat="34.0210298" lon="8.0604228"><ele>-17.75</ele><time>2026-04-30T09:54:39.675Z</time></trkpt><trkpt lat="34.0210811" lon="8.0605907"><ele>-17.5</ele><time>2026-04-30T09:54:40.671Z</time></trkpt><trkpt lat="34.0211419" lon="8.0607555"><ele>-17.25</ele><time>2026-04-30T09:54:41.668Z</time></trkpt><trkpt lat="34.0211977" lon="8.0609248"><ele>-17.0</ele><time>2026-04-30T09:54:42.687Z</time></trkpt><trkpt lat="34.021258" lon="8.0610914"><ele>-18.0</ele><time>2026-04-30T09:54:43.655Z</time></trkpt><trkpt lat="34.0213178" lon="8.0612639"><ele>-19.0</ele><time>2026-04-30T09:54:44.686Z</time></trkpt><trkpt lat="34.0213805" lon="8.0614364"><ele>-20.0</ele><time>2026-04-30T09:54:45.682Z</time></trkpt><trkpt lat="34.0214442" lon="8.0616092"><ele>-19.75</ele><time>2026-04-30T09:54:46.68Z</time></trkpt><trkpt lat="34.021511" lon="8.0617745"><ele>-19.5</ele><time>2026-04-30T09:54:47.655Z</time></trkpt><trkpt lat="34.0215783" lon="8.0619393"><ele>-19.25</ele><time>2026-04-30T09:54:48.675Z</time></trkpt><trkpt lat="34.0216418" lon="8.0620809"><ele>-19.0</ele><time>2026-04-30T09:54:49.673Z</time></trkpt><trkpt lat="34.0217036" lon="8.0622241"><ele>-19.0</ele><time>2026-04-30T09:54:50.684Z</time></trkpt><trkpt lat="34.0217664" lon="8.0623649"><ele>-19.0</ele><time>2026-04-30T09:54:51.676Z</time></trkpt><trkpt lat="34.0218278" lon="8.0625117"><ele>-19.0</ele><time>2026-04-30T09:54:52.668Z</time></trkpt><trkpt lat="34.0218863" lon="8.0626588"><ele>-19.0</ele><time>2026-04-30T09:54:53.678Z</time></trkpt><trkpt lat="34.021945" lon="8.0628081"><ele>-19.0</ele><time>2026-04-30T09:54:54.683Z</time></trkpt><trkpt lat="34.0220115" lon="8.0629569"><ele>-19.0</ele><time>2026-04-30T09:54:55.626Z</time></trkpt><trkpt lat="34.0220754" lon="8.0631013"><ele>-19.0</ele><time>2026-04-30T09:54:56.669Z</time></trkpt><trkpt lat="34.0221355" lon="8.0632448"><ele>-19.0</ele><time>2026-04-30T09:54:57.663Z</time></trkpt><trkpt lat="34.0221864" lon="8.0633878"><ele>-18.5</ele><time>2026-04-30T09:54:58.678Z</time></trkpt><trkpt lat="34.0222375" lon="8.0635317"><ele>-18.0</ele><time>2026-04-30T09:54:59.682Z</time></trkpt><trkpt lat="34.022285" lon="8.0636773"><ele>-17.5</ele><time>2026-04-30T09:55:00.705Z</time></trkpt><trkpt lat="34.0223288" lon="8.0638201"><ele>-17.0</ele><time>2026-04-30T09:55:01.663Z</time></trkpt><trkpt lat="34.0223699" lon="8.0639589"><ele>-17.0</ele><time>2026-04-30T09:55:02.649Z</time></trkpt><trkpt lat="34.0224114" lon="8.0641098"><ele>-17.0</ele><time>2026-04-30T09:55:03.68Z</time></trkpt><trkpt lat="34.0224563" lon="8.0642589"><ele>-17.0</ele><time>2026-04-30T09:55:04.66Z</time></trkpt><trkpt lat="34.0225041" lon="8.0644188"><ele>-17.0</ele><time>2026-04-30T09:55:05.698Z</time></trkpt><trkpt lat="34.0225496" lon="8.0645813"><ele>-17.25</ele><time>2026-04-30T09:55:06.679Z</time></trkpt><trkpt lat="34.022595" lon="8.0647411"><ele>-17.5</ele><time>2026-04-30T09:55:07.678Z</time></trkpt><trkpt lat="34.022639" lon="8.0649005"><ele>-17.75</ele><time>2026-04-30T09:55:08.673Z</time></trkpt><trkpt lat="34.0226877" lon="8.0650608"><ele>-18.0</ele><time>2026-04-30T09:55:09.682Z</time></trkpt><trkpt lat="34.0227417" lon="8.065222"><ele>-18.0</ele><time>2026-04-30T09:55:10.683Z</time></trkpt><trkpt lat="34.0228064" lon="8.0653808"><ele>-18.0</ele><time>2026-04-30T09:55:11.679Z</time></trkpt><trkpt lat="34.0228734" lon="8.0655332"><ele>-18.0</ele><time>2026-04-30T09:55:12.68Z</time></trkpt><trkpt lat="34.0229422" lon="8.0656853"><ele>-18.0</ele><time>2026-04-30T09:55:13.69Z</time></trkpt><trkpt lat="34.0230078" lon="8.0658353"><ele>-17.75</ele><time>2026-04-30T09:55:14.683Z</time></trkpt><trkpt lat="34.0230728" lon="8.0659833"><ele>-17.5</ele><time>2026-04-30T09:55:15.692Z</time></trkpt><trkpt lat="34.0231316" lon="8.0661301"><ele>-17.25</ele><time>2026-04-30T09:55:16.658Z</time></trkpt><trkpt lat="34.023191" lon="8.0662766"><ele>-17.0</ele><time>2026-04-30T09:55:17.641Z</time></trkpt><trkpt lat="34.0232506" lon="8.066433"><ele>-17.0</ele><time>2026-04-30T09:55:18.682Z</time></trkpt><trkpt lat="34.0233095" lon="8.0666066"><ele>-17.0</ele><time>2026-04-30T09:55:19.684Z</time></trkpt><trkpt lat="34.0233694" lon="8.0667882"><ele>-17.0</ele><time>2026-04-30T09:55:20.652Z</time></trkpt><trkpt lat="34.0234211" lon="8.0669751"><ele>-17.333333333333336</ele><time>2026-04-30T09:55:21.678Z</time></trkpt><trkpt lat="34.0234641" lon="8.0671676"><ele>-17.666666666666668</ele><time>2026-04-30T09:55:22.68Z</time></trkpt><trkpt lat="34.0235031" lon="8.0673647"><ele>-18.0</ele><time>2026-04-30T09:55:23.664Z</time></trkpt><trkpt lat="34.0235406" lon="8.0675605"><ele>-18.0</ele><time>2026-04-30T09:55:24.683Z</time></trkpt><trkpt lat="34.0235793" lon="8.0677517"><ele>-18.0</ele><time>2026-04-30T09:55:25.695Z</time></trkpt><trkpt lat="34.0236125" lon="8.0679302"><ele>-18.0</ele><time>2026-04-30T09:55:26.675Z</time></trkpt><trkpt lat="34.0236422" lon="8.0680961"><ele>-18.0</ele><time>2026-04-30T09:55:27.687Z</time></trkpt><trkpt lat="34.023674" lon="8.0682612"><ele>-18.0</ele><time>2026-04-30T09:55:28.656Z</time></trkpt><trkpt lat="34.0237033" lon="8.0684155"><ele>-18.0</ele><time>2026-04-30T09:55:29.663Z</time></trkpt><trkpt lat="34.0237279" lon="8.0685656"><ele>-18.0</ele><time>2026-04-30T09:55:30.673Z</time></trkpt><trkpt lat="34.0237465" lon="8.068699"><ele>-18.0</ele><time>2026-04-30T09:55:31.683Z</time></trkpt><trkpt lat="34.0237742" lon="8.0688265"><ele>-18.0</ele><time>2026-04-30T09:55:32.652Z</time></trkpt><trkpt lat="34.0238001" lon="8.068948"><ele>-18.0</ele><time>2026-04-30T09:55:33.677Z</time></trkpt><trkpt lat="34.0238174" lon="8.0690656"><ele>-18.0</ele><time>2026-04-30T09:55:34.668Z</time></trkpt><trkpt lat="34.0238353" lon="8.0691791"><ele>-18.0</ele><time>2026-04-30T09:55:35.668Z</time></trkpt><trkpt lat="34.0238643" lon="8.0693096"><ele>-18.0</ele><time>2026-04-30T09:55:36.699Z</time></trkpt><trkpt lat="34.0239076" lon="8.0694931"><ele>-18.0</ele><time>2026-04-30T09:55:37.691Z</time></trkpt><trkpt lat="34.023952" lon="8.0697189"><ele>-18.0</ele><time>2026-04-30T09:55:38.661Z</time></trkpt><trkpt lat="34.0240012" lon="8.0699566"><ele>-18.0</ele><time>2026-04-30T09:55:39.681Z</time></trkpt><trkpt lat="34.0240646" lon="8.0702188"><ele>-18.0</ele><time>2026-04-30T09:55:40.664Z</time></trkpt><trkpt lat="34.0241231" lon="8.0705083"><ele>-17.333333333333332</ele><time>2026-04-30T09:55:41.693Z</time></trkpt><trkpt lat="34.0241838" lon="8.0707896"><ele>-16.666666666666664</ele><time>2026-04-30T09:55:42.68Z</time></trkpt><trkpt lat="34.0242317" lon="8.0710279"><ele>-16.0</ele><time>2026-04-30T09:55:43.659Z</time></trkpt><trkpt lat="34.0242801" lon="8.0712469"><ele>-16.0</ele><time>2026-04-30T09:55:44.665Z</time></trkpt><trkpt lat="34.0243411" lon="8.0714799"><ele>-16.0</ele><time>2026-04-30T09:55:45.68Z</time></trkpt><trkpt lat="34.0243947" lon="8.0717393"><ele>-16.0</ele><time>2026-04-30T09:55:46.684Z</time></trkpt><trkpt lat="34.024431" lon="8.0720079"><ele>-16.0</ele><time>2026-04-30T09:55:47.686Z</time></trkpt><trkpt lat="34.0244437" lon="8.0722587"><ele>-16.0</ele><time>2026-04-30T09:55:48.685Z</time></trkpt><trkpt lat="34.0244564" lon="8.072499"><ele>-16.0</ele><time>2026-04-30T09:55:49.668Z</time></trkpt><trkpt lat="34.0244831" lon="8.0727264"><ele>-16.0</ele><time>2026-04-30T09:55:50.695Z</time></trkpt><trkpt lat="34.0245298" lon="8.07294"><ele>-16.0</ele><time>2026-04-30T09:55:51.674Z</time></trkpt><trkpt lat="34.0245874" lon="8.0731726"><ele>-16.0</ele><time>2026-04-30T09:55:52.68Z</time></trkpt><trkpt lat="34.0246454" lon="8.0734093"><ele>-16.0</ele><time>2026-04-30T09:55:53.661Z</time></trkpt><trkpt lat="34.0246994" lon="8.0736604"><ele>-16.0</ele><time>2026-04-30T09:55:54.656Z</time></trkpt><trkpt lat="34.0247494" lon="8.0739415"><ele>-17.0</ele><time>2026-04-30T09:55:55.686Z</time></trkpt><trkpt lat="34.0248005" lon="8.0742288"><ele>-18.0</ele><time>2026-04-30T09:55:56.683Z</time></trkpt><trkpt lat="34.0248597" lon="8.0745021"><ele>-18.0</ele><time>2026-04-30T09:55:57.68Z</time></trkpt><trkpt lat="34.0249187" lon="8.0747436"><ele>-18.0</ele><time>2026-04-30T09:55:58.663Z</time></trkpt><trkpt lat="34.0249781" lon="8.0749899"><ele>-18.0</ele><time>2026-04-30T09:55:59.681Z</time></trkpt><trkpt lat="34.0250365" lon="8.0752401"><ele>-17.0</ele><time>2026-04-30T09:56:00.657Z</time></trkpt><trkpt lat="34.0251075" lon="8.0755161"><ele>-16.0</ele><time>2026-04-30T09:56:01.688Z</time></trkpt><trkpt lat="34.0251843" lon="8.075797"><ele>-15.0</ele><time>2026-04-30T09:56:02.679Z</time></trkpt><trkpt lat="34.0252659" lon="8.0760846"><ele>-14.0</ele><time>2026-04-30T09:56:03.655Z</time></trkpt><trkpt lat="34.0253651" lon="8.0763883"><ele>-14.0</ele><time>2026-04-30T09:56:04.674Z</time></trkpt><trkpt lat="34.0254729" lon="8.0766982"><ele>-14.0</ele><time>2026-04-30T09:56:05.684Z</time></trkpt><trkpt lat="34.0255877" lon="8.0770109"><ele>-14.0</ele><time>2026-04-30T09:56:06.688Z</time></trkpt><trkpt lat="34.0257142" lon="8.0773225"><ele>-14.0</ele><time>2026-04-30T09:56:07.654Z</time></trkpt><trkpt lat="34.0258407" lon="8.0776219"><ele>-15.0</ele><time>2026-04-30T09:56:08.681Z</time></trkpt><trkpt lat="34.0259658" lon="8.0779122"><ele>-16.0</ele><time>2026-04-30T09:56:09.687Z</time></trkpt><trkpt lat="34.0260916" lon="8.078194"><ele>-16.5</ele><time>2026-04-30T09:56:10.657Z</time></trkpt><trkpt lat="34.0262219" lon="8.0784795"><ele>-17.0</ele><time>2026-04-30T09:56:11.678Z</time></trkpt><trkpt lat="34.0263642" lon="8.0787799"><ele>-17.0</ele><time>2026-04-30T09:56:12.689Z</time></trkpt><trkpt lat="34.0265179" lon="8.0790881"><ele>-17.0</ele><time>2026-04-30T09:56:13.681Z</time></trkpt><trkpt lat="34.0266636" lon="8.0793987"><ele>-16.5</ele><time>2026-04-30T09:56:14.683Z</time></trkpt><trkpt lat="34.026799" lon="8.0796942"><ele>-16.0</ele><time>2026-04-30T09:56:15.634Z</time></trkpt><trkpt lat="34.0269277" lon="8.0799699"><ele>-16.0</ele><time>2026-04-30T09:56:16.631Z</time></trkpt><trkpt lat="34.0270494" lon="8.0802398"><ele>-16.0</ele><time>2026-04-30T09:56:17.681Z</time></trkpt><trkpt lat="34.0271769" lon="8.0804929"><ele>-16.0</ele><time>2026-04-30T09:56:18.658Z</time></trkpt><trkpt lat="34.0273069" lon="8.0807598"><ele>-16.0</ele><time>2026-04-30T09:56:19.672Z</time></trkpt><trkpt lat="34.0274471" lon="8.0810337"><ele>-16.0</ele><time>2026-04-30T09:56:20.652Z</time></trkpt><trkpt lat="34.0275927" lon="8.0813145"><ele>-16.0</ele><time>2026-04-30T09:56:21.684Z</time></trkpt><trkpt lat="34.0277383" lon="8.0815995"><ele>-16.0</ele><time>2026-04-30T09:56:22.68Z</time></trkpt><trkpt lat="34.0278827" lon="8.0818815"><ele>-16.0</ele><time>2026-04-30T09:56:23.686Z</time></trkpt><trkpt lat="34.0280258" lon="8.082157"><ele>-16.0</ele><time>2026-04-30T09:56:24.689Z</time></trkpt><trkpt lat="34.0281677" lon="8.0824242"><ele>-16.0</ele><time>2026-04-30T09:56:25.675Z</time></trkpt><trkpt lat="34.0283066" lon="8.0826918"><ele>-16.0</ele><time>2026-04-30T09:56:26.687Z</time></trkpt><trkpt lat="34.0284396" lon="8.0829601"><ele>-16.0</ele><time>2026-04-30T09:56:27.677Z</time></trkpt><trkpt lat="34.0285697" lon="8.0832233"><ele>-16.0</ele><time>2026-04-30T09:56:28.669Z</time></trkpt><trkpt lat="34.0286985" lon="8.0834793"><ele>-16.0</ele><time>2026-04-30T09:56:29.655Z</time></trkpt><trkpt lat="34.0288248" lon="8.0837326"><ele>-16.0</ele><time>2026-04-30T09:56:30.674Z</time></trkpt><trkpt lat="34.0289452" lon="8.0839797"><ele>-16.0</ele><time>2026-04-30T09:56:31.68Z</time></trkpt><trkpt lat="34.0290614" lon="8.084226"><ele>-16.0</ele><time>2026-04-30T09:56:32.677Z</time></trkpt><trkpt lat="34.0291696" lon="8.0844658"><ele>-16.0</ele><time>2026-04-30T09:56:33.697Z</time></trkpt><trkpt lat="34.0292758" lon="8.0846992"><ele>-16.0</ele><time>2026-04-30T09:56:34.662Z</time></trkpt><trkpt lat="34.0293787" lon="8.0849364"><ele>-16.5</ele><time>2026-04-30T09:56:35.672Z</time></trkpt><trkpt lat="34.0294786" lon="8.0851809"><ele>-17.0</ele><time>2026-04-30T09:56:36.685Z</time></trkpt><trkpt lat="34.0295829" lon="8.0854302"><ele>-17.0</ele><time>2026-04-30T09:56:37.692Z</time></trkpt><trkpt lat="34.0296874" lon="8.0856937"><ele>-17.0</ele><time>2026-04-30T09:56:38.658Z</time></trkpt><trkpt lat="34.0297971" lon="8.0859752"><ele>-16.5</ele><time>2026-04-30T09:56:39.68Z</time></trkpt><trkpt lat="34.0299057" lon="8.0862533"><ele>-16.0</ele><time>2026-04-30T09:56:40.687Z</time></trkpt><trkpt lat="34.0300129" lon="8.0865211"><ele>-16.5</ele><time>2026-04-30T09:56:41.689Z</time></trkpt><trkpt lat="34.0301259" lon="8.0868142"><ele>-17.0</ele><time>2026-04-30T09:56:42.683Z</time></trkpt><trkpt lat="34.0302529" lon="8.0871056"><ele>-17.0</ele><time>2026-04-30T09:56:43.693Z</time></trkpt><trkpt lat="34.030379" lon="8.087387"><ele>-17.0</ele><time>2026-04-30T09:56:44.658Z</time></trkpt><trkpt lat="34.0305125" lon="8.0876648"><ele>-16.0</ele><time>2026-04-30T09:56:45.686Z</time></trkpt><trkpt lat="34.0306533" lon="8.0879649"><ele>-15.0</ele><time>2026-04-30T09:56:46.653Z</time></trkpt><trkpt lat="34.0308054" lon="8.0882956"><ele>-14.5</ele><time>2026-04-30T09:56:47.677Z</time></trkpt><trkpt lat="34.0309729" lon="8.0886434"><ele>-14.0</ele><time>2026-04-30T09:56:48.68Z</time></trkpt><trkpt lat="34.0311499" lon="8.0889933"><ele>-14.5</ele><time>2026-04-30T09:56:49.673Z</time></trkpt><trkpt lat="34.0313401" lon="8.0893537"><ele>-15.0</ele><time>2026-04-30T09:56:50.686Z</time></trkpt><trkpt lat="34.0315384" lon="8.0897157"><ele>-15.0</ele><time>2026-04-30T09:56:51.686Z</time></trkpt><trkpt lat="34.0317384" lon="8.0900907"><ele>-15.0</ele><time>2026-04-30T09:56:52.662Z</time></trkpt><trkpt lat="34.0319288" lon="8.0904577"><ele>-15.0</ele><time>2026-04-30T09:56:53.68Z</time></trkpt><trkpt lat="34.032104" lon="8.0908207"><ele>-15.0</ele><time>2026-04-30T09:56:54.674Z</time></trkpt><trkpt lat="34.0322818" lon="8.0911836"><ele>-15.0</ele><time>2026-04-30T09:56:55.686Z</time></trkpt><trkpt lat="34.0324527" lon="8.0915428"><ele>-15.0</ele><time>2026-04-30T09:56:56.628Z</time></trkpt><trkpt lat="34.0326118" lon="8.0918793"><ele>-15.0</ele><time>2026-04-30T09:56:57.673Z</time></trkpt><trkpt lat="34.0327458" lon="8.0921658"><ele>-15.0</ele><time>2026-04-30T09:56:58.685Z</time></trkpt><trkpt lat="34.0328753" lon="8.092417"><ele>-15.0</ele><time>2026-04-30T09:56:59.687Z</time></trkpt><trkpt lat="34.0329852" lon="8.0926231"><ele>-15.0</ele><time>2026-04-30T09:57:00.658Z</time></trkpt><trkpt lat="34.033085" lon="8.0928122"><ele>-15.0</ele><time>2026-04-30T09:57:01.687Z</time></trkpt><trkpt lat="34.0331968" lon="8.0930247"><ele>-15.5</ele><time>2026-04-30T09:57:02.689Z</time></trkpt><trkpt lat="34.0333352" lon="8.0932631"><ele>-16.0</ele><time>2026-04-30T09:57:03.682Z</time></trkpt><trkpt lat="34.0334799" lon="8.0935114"><ele>-16.0</ele><time>2026-04-30T09:57:04.648Z</time></trkpt><trkpt lat="34.03362" lon="8.0937684"><ele>-16.0</ele><time>2026-04-30T09:57:05.67Z</time></trkpt><trkpt lat="34.03374" lon="8.0940117"><ele>-15.5</ele><time>2026-04-30T09:57:06.685Z</time></trkpt><trkpt lat="34.033842" lon="8.0942526"><ele>-15.0</ele><time>2026-04-30T09:57:07.676Z</time></trkpt><trkpt lat="34.0339237" lon="8.0945253"><ele>-15.0</ele><time>2026-04-30T09:57:08.661Z</time></trkpt><trkpt lat="34.0339864" lon="8.0948133"><ele>-15.0</ele><time>2026-04-30T09:57:09.679Z</time></trkpt><trkpt lat="34.0340422" lon="8.095122"><ele>-14.5</ele><time>2026-04-30T09:57:10.677Z</time></trkpt><trkpt lat="34.0341046" lon="8.0954495"><ele>-14.0</ele><time>2026-04-30T09:57:11.66Z</time></trkpt><trkpt lat="34.0341478" lon="8.0957587"><ele>-14.0</ele><time>2026-04-30T09:57:12.664Z</time></trkpt><trkpt lat="34.0342002" lon="8.0960618"><ele>-14.0</ele><time>2026-04-30T09:57:13.688Z</time></trkpt><trkpt lat="34.0342595" lon="8.0963706"><ele>-14.0</ele><time>2026-04-30T09:57:14.644Z</time></trkpt><trkpt lat="34.0343153" lon="8.0966412"><ele>-14.0</ele><time>2026-04-30T09:57:15.687Z</time></trkpt><trkpt lat="34.0343862" lon="8.0969074"><ele>-14.0</ele><time>2026-04-30T09:57:16.7Z</time></trkpt><trkpt lat="34.0344802" lon="8.0971837"><ele>-14.0</ele><time>2026-04-30T09:57:17.669Z</time></trkpt><trkpt lat="34.0345903" lon="8.0974639"><ele>-14.0</ele><time>2026-04-30T09:57:18.663Z</time></trkpt><trkpt lat="34.0347195" lon="8.0977503"><ele>-14.0</ele><time>2026-04-30T09:57:19.682Z</time></trkpt><trkpt lat="34.0348736" lon="8.0980454"><ele>-13.5</ele><time>2026-04-30T09:57:20.686Z</time></trkpt><trkpt lat="34.0350443" lon="8.0983394"><ele>-13.0</ele><time>2026-04-30T09:57:21.685Z</time></trkpt><trkpt lat="34.0352389" lon="8.0986409"><ele>-13.0</ele><time>2026-04-30T09:57:22.667Z</time></trkpt><trkpt lat="34.0354361" lon="8.098938"><ele>-13.0</ele><time>2026-04-30T09:57:23.684Z</time></trkpt><trkpt lat="34.0356351" lon="8.0992393"><ele>-13.5</ele><time>2026-04-30T09:57:24.696Z</time></trkpt><trkpt lat="34.0358313" lon="8.0995451"><ele>-14.0</ele><time>2026-04-30T09:57:25.686Z</time></trkpt><trkpt lat="34.0360155" lon="8.0998579"><ele>-14.5</ele><time>2026-04-30T09:57:26.68Z</time></trkpt><trkpt lat="34.0361811" lon="8.1001794"><ele>-15.0</ele><time>2026-04-30T09:57:27.688Z</time></trkpt><trkpt lat="34.036337" lon="8.1004959"><ele>-15.0</ele><time>2026-04-30T09:57:28.669Z</time></trkpt><trkpt lat="34.0364885" lon="8.1008164"><ele>-15.0</ele><time>2026-04-30T09:57:29.685Z</time></trkpt><trkpt lat="34.036631" lon="8.1011329"><ele>-15.0</ele><time>2026-04-30T09:57:30.673Z</time></trkpt><trkpt lat="34.0367531" lon="8.1014123"><ele>-15.0</ele><time>2026-04-30T09:57:31.681Z</time></trkpt><trkpt lat="34.0368731" lon="8.1016837"><ele>-14.5</ele><time>2026-04-30T09:57:32.686Z</time></trkpt><trkpt lat="34.0369814" lon="8.1019315"><ele>-14.0</ele><time>2026-04-30T09:57:33.689Z</time></trkpt><trkpt lat="34.0370954" lon="8.1021758"><ele>-13.5</ele><time>2026-04-30T09:57:34.657Z</time></trkpt><trkpt lat="34.0372117" lon="8.1024276"><ele>-13.0</ele><time>2026-04-30T09:57:35.684Z</time></trkpt><trkpt lat="34.0373238" lon="8.1026625"><ele>-13.0</ele><time>2026-04-30T09:57:36.682Z</time></trkpt><trkpt lat="34.0374339" lon="8.102882"><ele>-13.0</ele><time>2026-04-30T09:57:37.658Z</time></trkpt><trkpt lat="34.0375587" lon="8.1031124"><ele>-13.0</ele><time>2026-04-30T09:57:38.643Z</time></trkpt><trkpt lat="34.0376806" lon="8.1033624"><ele>-13.5</ele><time>2026-04-30T09:57:39.689Z</time></trkpt><trkpt lat="34.0378" lon="8.1036029"><ele>-14.0</ele><time>2026-04-30T09:57:40.685Z</time></trkpt><trkpt lat="34.0379151" lon="8.1038311"><ele>-14.0</ele><time>2026-04-30T09:57:41.699Z</time></trkpt><trkpt lat="34.0380271" lon="8.1040593"><ele>-14.0</ele><time>2026-04-30T09:57:42.666Z</time></trkpt><trkpt lat="34.0381405" lon="8.104271"><ele>-14.0</ele><time>2026-04-30T09:57:43.69Z</time></trkpt><trkpt lat="34.0382488" lon="8.1044805"><ele>-14.0</ele><time>2026-04-30T09:57:44.667Z</time></trkpt><trkpt lat="34.0383543" lon="8.1046896"><ele>-14.0</ele><time>2026-04-30T09:57:45.692Z</time></trkpt><trkpt lat="34.0384634" lon="8.1048879"><ele>-14.0</ele><time>2026-04-30T09:57:46.647Z</time></trkpt><trkpt lat="34.0385843" lon="8.105074"><ele>-14.0</ele><time>2026-04-30T09:57:47.692Z</time></trkpt><trkpt lat="34.0387243" lon="8.1052598"><ele>-14.0</ele><time>2026-04-30T09:57:48.687Z</time></trkpt><trkpt lat="34.0388646" lon="8.1054496"><ele>-14.0</ele><time>2026-04-30T09:57:49.696Z</time></trkpt><trkpt lat="34.039002" lon="8.1056377"><ele>-13.333333333333334</ele><time>2026-04-30T09:57:50.679Z</time></trkpt><trkpt lat="34.039137" lon="8.1058296"><ele>-12.666666666666668</ele><time>2026-04-30T09:57:51.69Z</time></trkpt><trkpt lat="34.0392738" lon="8.1060195"><ele>-12.0</ele><time>2026-04-30T09:57:52.654Z</time></trkpt><trkpt lat="34.0394218" lon="8.1062174"><ele>-12.0</ele><time>2026-04-30T09:57:53.682Z</time></trkpt><trkpt lat="34.0395845" lon="8.1064494"><ele>-12.0</ele><time>2026-04-30T09:57:54.682Z</time></trkpt><trkpt lat="34.0397618" lon="8.1067085"><ele>-12.5</ele><time>2026-04-30T09:57:55.688Z</time></trkpt><trkpt lat="34.0399438" lon="8.1069729"><ele>-13.0</ele><time>2026-04-30T09:57:56.682Z</time></trkpt><trkpt lat="34.0401113" lon="8.1072404"><ele>-12.5</ele><time>2026-04-30T09:57:57.628Z</time></trkpt><trkpt lat="34.0402638" lon="8.107489"><ele>-12.0</ele><time>2026-04-30T09:57:58.666Z</time></trkpt><trkpt lat="34.0404116" lon="8.1077293"><ele>-12.0</ele><time>2026-04-30T09:57:59.671Z</time></trkpt><trkpt lat="34.0405677" lon="8.107985"><ele>-12.0</ele><time>2026-04-30T09:58:00.665Z</time></trkpt><trkpt lat="34.0407171" lon="8.1082409"><ele>-12.5</ele><time>2026-04-30T09:58:01.689Z</time></trkpt><trkpt lat="34.040849" lon="8.1084859"><ele>-13.0</ele><time>2026-04-30T09:58:02.682Z</time></trkpt><trkpt lat="34.0409775" lon="8.1087476"><ele>-13.0</ele><time>2026-04-30T09:58:03.663Z</time></trkpt><trkpt lat="34.0411037" lon="8.1090316"><ele>-13.0</ele><time>2026-04-30T09:58:04.658Z</time></trkpt><trkpt lat="34.0412195" lon="8.1093286"><ele>-12.5</ele><time>2026-04-30T09:58:05.685Z</time></trkpt><trkpt lat="34.0413278" lon="8.1096489"><ele>-12.0</ele><time>2026-04-30T09:58:06.685Z</time></trkpt><trkpt lat="34.0414306" lon="8.1099904"><ele>-12.0</ele><time>2026-04-30T09:58:07.677Z</time></trkpt><trkpt lat="34.041524" lon="8.1103288"><ele>-12.0</ele><time>2026-04-30T09:58:08.684Z</time></trkpt><trkpt lat="34.04161" lon="8.1106554"><ele>-12.5</ele><time>2026-04-30T09:58:09.665Z</time></trkpt><trkpt lat="34.0417016" lon="8.1109837"><ele>-13.0</ele><time>2026-04-30T09:58:10.683Z</time></trkpt><trkpt lat="34.0418077" lon="8.1113193"><ele>-12.5</ele><time>2026-04-30T09:58:11.68Z</time></trkpt><trkpt lat="34.041925" lon="8.1116684"><ele>-12.0</ele><time>2026-04-30T09:58:12.69Z</time></trkpt><trkpt lat="34.0420339" lon="8.1119888"><ele>-12.0</ele><time>2026-04-30T09:58:13.666Z</time></trkpt><trkpt lat="34.0421295" lon="8.1122912"><ele>-12.0</ele><time>2026-04-30T09:58:14.696Z</time></trkpt><trkpt lat="34.0422254" lon="8.1125878"><ele>-11.5</ele><time>2026-04-30T09:58:15.647Z</time></trkpt><trkpt lat="34.0423186" lon="8.112894"><ele>-11.0</ele><time>2026-04-30T09:58:16.699Z</time></trkpt><trkpt lat="34.0424103" lon="8.1131924"><ele>-11.5</ele><time>2026-04-30T09:58:17.69Z</time></trkpt><trkpt lat="34.042507" lon="8.1134783"><ele>-12.0</ele><time>2026-04-30T09:58:18.687Z</time></trkpt><trkpt lat="34.0426046" lon="8.1137502"><ele>-12.0</ele><time>2026-04-30T09:58:19.683Z</time></trkpt><trkpt lat="34.0427013" lon="8.1140108"><ele>-12.0</ele><time>2026-04-30T09:58:20.69Z</time></trkpt><trkpt lat="34.0427878" lon="8.1142521"><ele>-12.0</ele><time>2026-04-30T09:58:21.677Z</time></trkpt><trkpt lat="34.0428697" lon="8.1144827"><ele>-12.0</ele><time>2026-04-30T09:58:22.679Z</time></trkpt><trkpt lat="34.0429443" lon="8.1147174"><ele>-12.0</ele><time>2026-04-30T09:58:23.682Z</time></trkpt><trkpt lat="34.043023" lon="8.1149483"><ele>-12.0</ele><time>2026-04-30T09:58:24.66Z</time></trkpt><trkpt lat="34.0431083" lon="8.1151733"><ele>-12.0</ele><time>2026-04-30T09:58:25.696Z</time></trkpt><trkpt lat="34.0431975" lon="8.1153841"><ele>-12.0</ele><time>2026-04-30T09:58:26.688Z</time></trkpt><trkpt lat="34.0432888" lon="8.1155797"><ele>-11.333333333333334</ele><time>2026-04-30T09:58:27.656Z</time></trkpt><trkpt lat="34.0433816" lon="8.1157699"><ele>-10.666666666666668</ele><time>2026-04-30T09:58:28.66Z</time></trkpt><trkpt lat="34.0434754" lon="8.1159379"><ele>-10.0</ele><time>2026-04-30T09:58:29.683Z</time></trkpt><trkpt lat="34.0435632" lon="8.116076"><ele>-10.0</ele><time>2026-04-30T09:58:30.677Z</time></trkpt><trkpt lat="34.0436472" lon="8.116223"><ele>-10.0</ele><time>2026-04-30T09:58:31.667Z</time></trkpt><trkpt lat="34.0437363" lon="8.1163708"><ele>-10.0</ele><time>2026-04-30T09:58:32.658Z</time></trkpt><trkpt lat="34.0438285" lon="8.1165175"><ele>-10.25</ele><time>2026-04-30T09:58:33.664Z</time></trkpt><trkpt lat="34.0439173" lon="8.1166557"><ele>-10.5</ele><time>2026-04-30T09:58:34.681Z</time></trkpt><trkpt lat="34.0439948" lon="8.1167924"><ele>-10.75</ele><time>2026-04-30T09:58:35.669Z</time></trkpt><trkpt lat="34.0440675" lon="8.1169326"><ele>-11.0</ele><time>2026-04-30T09:58:36.668Z</time></trkpt><trkpt lat="34.044143" lon="8.11708"><ele>-11.0</ele><time>2026-04-30T09:58:37.673Z</time></trkpt><trkpt lat="34.0442191" lon="8.1172425"><ele>-11.0</ele><time>2026-04-30T09:58:38.646Z</time></trkpt><trkpt lat="34.0442951" lon="8.1174175"><ele>-11.0</ele><time>2026-04-30T09:58:39.663Z</time></trkpt><trkpt lat="34.0443688" lon="8.1176174"><ele>-11.0</ele><time>2026-04-30T09:58:40.66Z</time></trkpt><trkpt lat="34.0444459" lon="8.1178783"><ele>-11.0</ele><time>2026-04-30T09:58:41.675Z</time></trkpt><trkpt lat="34.0445381" lon="8.1181813"><ele>-10.5</ele><time>2026-04-30T09:58:42.675Z</time></trkpt><trkpt lat="34.0446254" lon="8.1184578"><ele>-10.0</ele><time>2026-04-30T09:58:43.685Z</time></trkpt><trkpt lat="34.0447016" lon="8.118698"><ele>-10.0</ele><time>2026-04-30T09:58:44.695Z</time></trkpt><trkpt lat="34.0447617" lon="8.11892"><ele>-10.0</ele><time>2026-04-30T09:58:45.678Z</time></trkpt><trkpt lat="34.0448219" lon="8.1191192"><ele>-10.0</ele><time>2026-04-30T09:58:46.68Z</time></trkpt><trkpt lat="34.0448792" lon="8.1193116"><ele>-10.0</ele><time>2026-04-30T09:58:47.698Z</time></trkpt><trkpt lat="34.0449316" lon="8.1194884"><ele>-10.0</ele><time>2026-04-30T09:58:48.699Z</time></trkpt><trkpt lat="34.0449788" lon="8.1196669"><ele>-10.0</ele><time>2026-04-30T09:58:49.701Z</time></trkpt><trkpt lat="34.0450219" lon="8.119856"><ele>-10.0</ele><time>2026-04-30T09:58:50.677Z</time></trkpt><trkpt lat="34.0450583" lon="8.1200435"><ele>-10.0</ele><time>2026-04-30T09:58:51.68Z</time></trkpt><trkpt lat="34.0451072" lon="8.1202417"><ele>-10.0</ele><time>2026-04-30T09:58:52.688Z</time></trkpt><trkpt lat="34.0451524" lon="8.1204432"><ele>-10.0</ele><time>2026-04-30T09:58:53.691Z</time></trkpt><trkpt lat="34.0451916" lon="8.1206338"><ele>-10.0</ele><time>2026-04-30T09:58:54.688Z</time></trkpt><trkpt lat="34.04523" lon="8.1208082"><ele>-10.0</ele><time>2026-04-30T09:58:55.685Z</time></trkpt><trkpt lat="34.0452691" lon="8.1209737"><ele>-10.333333333333334</ele><time>2026-04-30T09:58:56.657Z</time></trkpt><trkpt lat="34.0453027" lon="8.1211591"><ele>-10.666666666666666</ele><time>2026-04-30T09:58:57.682Z</time></trkpt><trkpt lat="34.0453249" lon="8.1213505"><ele>-11.0</ele><time>2026-04-30T09:58:58.675Z</time></trkpt><trkpt lat="34.0453499" lon="8.1215427"><ele>-10.75</ele><time>2026-04-30T09:58:59.687Z</time></trkpt><trkpt lat="34.045374" lon="8.1217114"><ele>-10.5</ele><time>2026-04-30T09:59:00.671Z</time></trkpt><trkpt lat="34.045405" lon="8.1218555"><ele>-10.25</ele><time>2026-04-30T09:59:01.696Z</time></trkpt><trkpt lat="34.0454614" lon="8.1219845"><ele>-10.0</ele><time>2026-04-30T09:59:02.679Z</time></trkpt><trkpt lat="34.0455564" lon="8.1221425"><ele>-10.0</ele><time>2026-04-30T09:59:03.681Z</time></trkpt><trkpt lat="34.0456655" lon="8.1223318"><ele>-10.0</ele><time>2026-04-30T09:59:04.688Z</time></trkpt><trkpt lat="34.045784" lon="8.1225343"><ele>-10.0</ele><time>2026-04-30T09:59:05.683Z</time></trkpt><trkpt lat="34.0459" lon="8.1227486"><ele>-9.5</ele><time>2026-04-30T09:59:06.654Z</time></trkpt><trkpt lat="34.0460364" lon="8.1229727"><ele>-9.0</ele><time>2026-04-30T09:59:07.683Z</time></trkpt><trkpt lat="34.0461844" lon="8.123222"><ele>-9.5</ele><time>2026-04-30T09:59:08.664Z</time></trkpt><trkpt lat="34.0463241" lon="8.1234663"><ele>-10.0</ele><time>2026-04-30T09:59:09.681Z</time></trkpt><trkpt lat="34.0464488" lon="8.1236804"><ele>-10.0</ele><time>2026-04-30T09:59:10.689Z</time></trkpt><trkpt lat="34.0465611" lon="8.1238917"><ele>-10.0</ele><time>2026-04-30T09:59:11.685Z</time></trkpt><trkpt lat="34.0466787" lon="8.1241339"><ele>-10.0</ele><time>2026-04-30T09:59:12.688Z</time></trkpt><trkpt lat="34.046782" lon="8.1243636"><ele>-10.0</ele><time>2026-04-30T09:59:13.671Z</time></trkpt><trkpt lat="34.0468798" lon="8.1245977"><ele>-10.0</ele><time>2026-04-30T09:59:14.66Z</time></trkpt><trkpt lat="34.0469642" lon="8.1248299"><ele>-10.0</ele><time>2026-04-30T09:59:15.669Z</time></trkpt><trkpt lat="34.0470243" lon="8.1250576"><ele>-10.0</ele><time>2026-04-30T09:59:16.69Z</time></trkpt><trkpt lat="34.0470819" lon="8.1253121"><ele>-10.0</ele><time>2026-04-30T09:59:17.699Z</time></trkpt><trkpt lat="34.0471345" lon="8.1255882"><ele>-10.0</ele><time>2026-04-30T09:59:18.666Z</time></trkpt><trkpt lat="34.0472006" lon="8.1258929"><ele>-10.0</ele><time>2026-04-30T09:59:19.693Z</time></trkpt><trkpt lat="34.0472607" lon="8.1261735"><ele>-10.0</ele><time>2026-04-30T09:59:20.684Z</time></trkpt><trkpt lat="34.0473283" lon="8.1264325"><ele>-10.0</ele><time>2026-04-30T09:59:21.689Z</time></trkpt><trkpt lat="34.0474047" lon="8.126706"><ele>-10.5</ele><time>2026-04-30T09:59:22.646Z</time></trkpt><trkpt lat="34.0474692" lon="8.1270062"><ele>-11.0</ele><time>2026-04-30T09:59:23.631Z</time></trkpt><trkpt lat="34.0475307" lon="8.1272947"><ele>-10.5</ele><time>2026-04-30T09:59:24.657Z</time></trkpt><trkpt lat="34.047569" lon="8.1275685"><ele>-10.0</ele><time>2026-04-30T09:59:25.686Z</time></trkpt><trkpt lat="34.0476052" lon="8.1278448"><ele>-10.0</ele><time>2026-04-30T09:59:26.654Z</time></trkpt><trkpt lat="34.0476408" lon="8.1281054"><ele>-10.0</ele><time>2026-04-30T09:59:27.674Z</time></trkpt><trkpt lat="34.0476702" lon="8.1283198"><ele>-10.0</ele><time>2026-04-30T09:59:28.672Z</time></trkpt><trkpt lat="34.0476968" lon="8.1285203"><ele>-10.0</ele><time>2026-04-30T09:59:29.67Z</time></trkpt><trkpt lat="34.0477208" lon="8.128713"><ele>-10.0</ele><time>2026-04-30T09:59:30.689Z</time></trkpt><trkpt lat="34.047743" lon="8.128907"><ele>-10.0</ele><time>2026-04-30T09:59:31.688Z</time></trkpt><trkpt lat="34.0477716" lon="8.129087"><ele>-10.0</ele><time>2026-04-30T09:59:32.669Z</time></trkpt><trkpt lat="34.0478192" lon="8.1292618"><ele>-10.0</ele><time>2026-04-30T09:59:33.684Z</time></trkpt><trkpt lat="34.0478883" lon="8.1294369"><ele>-10.0</ele><time>2026-04-30T09:59:34.668Z</time></trkpt><trkpt lat="34.0479877" lon="8.1296652"><ele>-10.0</ele><time>2026-04-30T09:59:35.636Z</time></trkpt><trkpt lat="34.0480733" lon="8.1299039"><ele>-10.0</ele><time>2026-04-30T09:59:36.679Z</time></trkpt><trkpt lat="34.0481639" lon="8.130137"><ele>-10.0</ele><time>2026-04-30T09:59:37.665Z</time></trkpt><trkpt lat="34.0482567" lon="8.1303715"><ele>-10.666666666666668</ele><time>2026-04-30T09:59:38.697Z</time></trkpt><trkpt lat="34.048351" lon="8.1305978"><ele>-11.333333333333334</ele><time>2026-04-30T09:59:39.692Z</time></trkpt><trkpt lat="34.0484293" lon="8.130817"><ele>-12.0</ele><time>2026-04-30T09:59:40.675Z</time></trkpt><trkpt lat="34.0484882" lon="8.1310733"><ele>-12.0</ele><time>2026-04-30T09:59:41.685Z</time></trkpt><trkpt lat="34.0485412" lon="8.1313271"><ele>-12.0</ele><time>2026-04-30T09:59:42.691Z</time></trkpt><trkpt lat="34.0485868" lon="8.1315571"><ele>-12.0</ele><time>2026-04-30T09:59:43.657Z</time></trkpt><trkpt lat="34.0486304" lon="8.1317888"><ele>-11.75</ele><time>2026-04-30T09:59:44.694Z</time></trkpt><trkpt lat="34.0486715" lon="8.1319845"><ele>-11.5</ele><time>2026-04-30T09:59:45.662Z</time></trkpt><trkpt lat="34.0487142" lon="8.1321562"><ele>-11.25</ele><time>2026-04-30T09:59:46.684Z</time></trkpt><trkpt lat="34.0487519" lon="8.132305"><ele>-11.0</ele><time>2026-04-30T09:59:47.647Z</time></trkpt><trkpt lat="34.0487788" lon="8.1324527"><ele>-10.5</ele><time>2026-04-30T09:59:48.663Z</time></trkpt><trkpt lat="34.0487972" lon="8.1325992"><ele>-10.0</ele><time>2026-04-30T09:59:49.637Z</time></trkpt><trkpt lat="34.0488046" lon="8.1327637"><ele>-9.5</ele><time>2026-04-30T09:59:50.64Z</time></trkpt><trkpt lat="34.0487882" lon="8.1329633"><ele>-9.0</ele><time>2026-04-30T09:59:51.656Z</time></trkpt><trkpt lat="34.0487587" lon="8.1331813"><ele>-9.333333333333334</ele><time>2026-04-30T09:59:52.661Z</time></trkpt><trkpt lat="34.048725" lon="8.1334102"><ele>-9.666666666666668</ele><time>2026-04-30T09:59:53.649Z</time></trkpt><trkpt lat="34.0487056" lon="8.133677"><ele>-10.0</ele><time>2026-04-30T09:59:54.661Z</time></trkpt><trkpt lat="34.0486954" lon="8.1339825"><ele>-10.0</ele><time>2026-04-30T09:59:55.679Z</time></trkpt><trkpt lat="34.0486863" lon="8.1342613"><ele>-10.0</ele><time>2026-04-30T09:59:56.695Z</time></trkpt><trkpt lat="34.0486605" lon="8.1345515"><ele>-10.0</ele><time>2026-04-30T09:59:57.66Z</time></trkpt><trkpt lat="34.048623" lon="8.1348493"><ele>-10.0</ele><time>2026-04-30T09:59:58.638Z</time></trkpt><trkpt lat="34.0485783" lon="8.1351032"><ele>-9.333333333333334</ele><time>2026-04-30T09:59:59.661Z</time></trkpt><trkpt lat="34.0485522" lon="8.1353129"><ele>-8.666666666666666</ele><time>2026-04-30T10:00:00.684Z</time></trkpt><trkpt lat="34.0485272" lon="8.1355084"><ele>-8.0</ele><time>2026-04-30T10:00:01.696Z</time></trkpt><trkpt lat="34.0485089" lon="8.1356823"><ele>-8.25</ele><time>2026-04-30T10:00:02.697Z</time></trkpt><trkpt lat="34.0484981" lon="8.1358402"><ele>-8.5</ele><time>2026-04-30T10:00:03.67Z</time></trkpt><trkpt lat="34.048478" lon="8.1359872"><ele>-8.75</ele><time>2026-04-30T10:00:04.697Z</time></trkpt><trkpt lat="34.0484706" lon="8.1361154"><ele>-9.0</ele><time>2026-04-30T10:00:05.699Z</time></trkpt><trkpt lat="34.0484621" lon="8.1362306"><ele>-9.0</ele><time>2026-04-30T10:00:06.681Z</time></trkpt><trkpt lat="34.0484559" lon="8.1363361"><ele>-9.0</ele><time>2026-04-30T10:00:07.685Z</time></trkpt><trkpt lat="34.0484464" lon="8.1364337"><ele>-9.0</ele><time>2026-04-30T10:00:08.672Z</time></trkpt><trkpt lat="34.0484373" lon="8.1365295"><ele>-9.0</ele><time>2026-04-30T10:00:09.687Z</time></trkpt><trkpt lat="34.0484371" lon="8.1366152"><ele>-9.0</ele><time>2026-04-30T10:00:10.688Z</time></trkpt><trkpt lat="34.0484503" lon="8.1366931"><ele>-9.0</ele><time>2026-04-30T10:00:11.69Z</time></trkpt><trkpt lat="34.0484866" lon="8.1367625"><ele>-8.6</ele><time>2026-04-30T10:00:12.679Z</time></trkpt><trkpt lat="34.048544" lon="8.1368203"><ele>-8.2</ele><time>2026-04-30T10:00:13.663Z</time></trkpt><trkpt lat="34.0486076" lon="8.1368626"><ele>-7.799999999999999</ele><time>2026-04-30T10:00:14.636Z</time></trkpt><trkpt lat="34.0487201" lon="8.1369148"><ele>-7.3999999999999995</ele><time>2026-04-30T10:00:16.688Z</time></trkpt><trkpt lat="34.0487922" lon="8.1369892"><ele>-7.0</ele><time>2026-04-30T10:00:18.692Z</time></trkpt><trkpt lat="34.0488503" lon="8.1370679"><ele>-7.0</ele><time>2026-04-30T10:05:30.676Z</time></trkpt><trkpt lat="34.0489316" lon="8.1370267"><ele>-7.0</ele><time>2026-04-30T10:05:33.669Z</time></trkpt><trkpt lat="34.0489961" lon="8.1369809"><ele>-7.0</ele><time>2026-04-30T10:05:36.631Z</time></trkpt><trkpt lat="34.0490741" lon="8.1369489"><ele>-7.0</ele><time>2026-04-30T10:05:48.703Z</time></trkpt><trkpt lat="34.0494202" lon="8.1367012"><ele>-9.0</ele><time>2026-04-30T10:05:52.671Z</time></trkpt><trkpt lat="34.0498388" lon="8.1364286"><ele>-8.666666666666666</ele><time>2026-04-30T10:05:55.631Z</time></trkpt><trkpt lat="34.0499907" lon="8.1363313"><ele>-8.333333333333332</ele><time>2026-04-30T10:05:56.639Z</time></trkpt><trkpt lat="34.0501403" lon="8.1362362"><ele>-8.0</ele><time>2026-04-30T10:05:57.626Z</time></trkpt><trkpt lat="34.050292" lon="8.1361373"><ele>-8.0</ele><time>2026-04-30T10:05:58.646Z</time></trkpt><trkpt lat="34.0504456" lon="8.1360454"><ele>-8.0</ele><time>2026-04-30T10:05:59.642Z</time></trkpt><trkpt lat="34.050604" lon="8.1359532"><ele>-8.0</ele><time>2026-04-30T10:06:00.637Z</time></trkpt><trkpt lat="34.0507652" lon="8.1358577"><ele>-8.0</ele><time>2026-04-30T10:06:01.63Z</time></trkpt><trkpt lat="34.0509288" lon="8.1357488"><ele>-8.0</ele><time>2026-04-30T10:06:02.665Z</time></trkpt><trkpt lat="34.0510932" lon="8.1356399"><ele>-8.0</ele><time>2026-04-30T10:06:03.66Z</time></trkpt><trkpt lat="34.0512606" lon="8.1355286"><ele>-8.0</ele><time>2026-04-30T10:06:04.643Z</time></trkpt><trkpt lat="34.0514253" lon="8.135429"><ele>-8.0</ele><time>2026-04-30T10:06:05.641Z</time></trkpt><trkpt lat="34.0515898" lon="8.1353319"><ele>-8.0</ele><time>2026-04-30T10:06:06.636Z</time></trkpt><trkpt lat="34.051754" lon="8.1352262"><ele>-8.0</ele><time>2026-04-30T10:06:07.655Z</time></trkpt><trkpt lat="34.051923" lon="8.1351213"><ele>-8.0</ele><time>2026-04-30T10:06:08.638Z</time></trkpt><trkpt lat="34.0520976" lon="8.1350128"><ele>-8.0</ele><time>2026-04-30T10:06:09.622Z</time></trkpt><trkpt lat="34.0522748" lon="8.1348983"><ele>-8.0</ele><time>2026-04-30T10:06:10.622Z</time></trkpt><trkpt lat="34.0524554" lon="8.1347804"><ele>-8.0</ele><time>2026-04-30T10:06:11.702Z</time></trkpt><trkpt lat="34.0526461" lon="8.1346582"><ele>-8.0</ele><time>2026-04-30T10:06:12.634Z</time></trkpt><trkpt lat="34.0528339" lon="8.1345371"><ele>-7.666666666666666</ele><time>2026-04-30T10:06:13.639Z</time></trkpt><trkpt lat="34.0530275" lon="8.1344152"><ele>-7.333333333333334</ele><time>2026-04-30T10:06:14.634Z</time></trkpt><trkpt lat="34.0532195" lon="8.1342928"><ele>-7.0</ele><time>2026-04-30T10:06:15.684Z</time></trkpt><trkpt lat="34.0534195" lon="8.1341756"><ele>-8.0</ele><time>2026-04-30T10:06:16.629Z</time></trkpt><trkpt lat="34.0536128" lon="8.1340545"><ele>-9.0</ele><time>2026-04-30T10:06:17.628Z</time></trkpt><trkpt lat="34.0538103" lon="8.1339231"><ele>-10.0</ele><time>2026-04-30T10:06:18.624Z</time></trkpt><trkpt lat="34.0540062" lon="8.1337923"><ele>-9.5</ele><time>2026-04-30T10:06:19.646Z</time></trkpt><trkpt lat="34.0542049" lon="8.133661"><ele>-9.0</ele><time>2026-04-30T10:06:20.638Z</time></trkpt><trkpt lat="34.0544073" lon="8.1335394"><ele>-9.0</ele><time>2026-04-30T10:06:21.634Z</time></trkpt><trkpt lat="34.0546075" lon="8.1334187"><ele>-9.0</ele><time>2026-04-30T10:06:22.637Z</time></trkpt><trkpt lat="34.0548045" lon="8.1332962"><ele>-9.0</ele><time>2026-04-30T10:06:23.646Z</time></trkpt><trkpt lat="34.054998" lon="8.1331888"><ele>-8.333333333333334</ele><time>2026-04-30T10:06:24.649Z</time></trkpt><trkpt lat="34.0551877" lon="8.1330769"><ele>-7.666666666666667</ele><time>2026-04-30T10:06:25.649Z</time></trkpt><trkpt lat="34.0553703" lon="8.132951"><ele>-7.0</ele><time>2026-04-30T10:06:26.638Z</time></trkpt><trkpt lat="34.0555647" lon="8.1328156"><ele>-7.0</ele><time>2026-04-30T10:06:27.641Z</time></trkpt><trkpt lat="34.0557597" lon="8.1326797"><ele>-7.0</ele><time>2026-04-30T10:06:28.633Z</time></trkpt><trkpt lat="34.0559564" lon="8.1325397"><ele>-7.0</ele><time>2026-04-30T10:06:29.674Z</time></trkpt><trkpt lat="34.0561482" lon="8.1324019"><ele>-7.0</ele><time>2026-04-30T10:06:30.635Z</time></trkpt><trkpt lat="34.0563345" lon="8.1322686"><ele>-7.0</ele><time>2026-04-30T10:06:31.631Z</time></trkpt><trkpt lat="34.0565104" lon="8.1321444"><ele>-7.333333333333334</ele><time>2026-04-30T10:06:32.637Z</time></trkpt><trkpt lat="34.0566716" lon="8.1320252"><ele>-7.666666666666666</ele><time>2026-04-30T10:06:33.635Z</time></trkpt><trkpt lat="34.056838" lon="8.131907"><ele>-8.0</ele><time>2026-04-30T10:06:34.636Z</time></trkpt><trkpt lat="34.0570112" lon="8.1317796"><ele>-8.0</ele><time>2026-04-30T10:06:35.634Z</time></trkpt><trkpt lat="34.0571901" lon="8.1316459"><ele>-8.0</ele><time>2026-04-30T10:06:36.639Z</time></trkpt><trkpt lat="34.0573755" lon="8.1315075"><ele>-8.0</ele><time>2026-04-30T10:06:37.633Z</time></trkpt><trkpt lat="34.0575691" lon="8.1313709"><ele>-8.0</ele><time>2026-04-30T10:06:38.635Z</time></trkpt><trkpt lat="34.0577717" lon="8.1312369"><ele>-8.0</ele><time>2026-04-30T10:06:39.636Z</time></trkpt><trkpt lat="34.0579709" lon="8.131098"><ele>-8.0</ele><time>2026-04-30T10:06:40.631Z</time></trkpt><trkpt lat="34.0581723" lon="8.1309607"><ele>-8.0</ele><time>2026-04-30T10:06:41.636Z</time></trkpt><trkpt lat="34.058378" lon="8.1308285"><ele>-8.0</ele><time>2026-04-30T10:06:42.632Z</time></trkpt><trkpt lat="34.0585847" lon="8.1306912"><ele>-8.0</ele><time>2026-04-30T10:06:43.653Z</time></trkpt><trkpt lat="34.0587893" lon="8.1305617"><ele>-8.0</ele><time>2026-04-30T10:06:44.667Z</time></trkpt><trkpt lat="34.058991" lon="8.1304312"><ele>-8.0</ele><time>2026-04-30T10:06:45.633Z</time></trkpt><trkpt lat="34.0591924" lon="8.1303057"><ele>-8.0</ele><time>2026-04-30T10:06:46.632Z</time></trkpt><trkpt lat="34.0593847" lon="8.1301862"><ele>-8.0</ele><time>2026-04-30T10:06:47.628Z</time></trkpt><trkpt lat="34.0595732" lon="8.1300624"><ele>-8.0</ele><time>2026-04-30T10:06:48.634Z</time></trkpt><trkpt lat="34.0597648" lon="8.1299441"><ele>-8.333333333333332</ele><time>2026-04-30T10:06:49.633Z</time></trkpt><trkpt lat="34.0599514" lon="8.1298247"><ele>-8.666666666666666</ele><time>2026-04-30T10:06:50.624Z</time></trkpt><trkpt lat="34.0601407" lon="8.1297079"><ele>-9.0</ele><time>2026-04-30T10:06:51.629Z</time></trkpt><trkpt lat="34.0603213" lon="8.1295939"><ele>-9.0</ele><time>2026-04-30T10:06:52.639Z</time></trkpt><trkpt lat="34.0604879" lon="8.1294815"><ele>-9.0</ele><time>2026-04-30T10:06:53.639Z</time></trkpt><trkpt lat="34.060654" lon="8.1293729"><ele>-9.0</ele><time>2026-04-30T10:06:54.637Z</time></trkpt><trkpt lat="34.0608209" lon="8.1292652"><ele>-8.333333333333334</ele><time>2026-04-30T10:06:55.65Z</time></trkpt><trkpt lat="34.0609808" lon="8.1291591"><ele>-7.666666666666667</ele><time>2026-04-30T10:06:56.639Z</time></trkpt><trkpt lat="34.0611328" lon="8.1290618"><ele>-7.0</ele><time>2026-04-30T10:06:57.639Z</time></trkpt><trkpt lat="34.0612801" lon="8.1289715"><ele>-7.0</ele><time>2026-04-30T10:06:58.631Z</time></trkpt><trkpt lat="34.0614214" lon="8.1288792"><ele>-7.0</ele><time>2026-04-30T10:06:59.627Z</time></trkpt><trkpt lat="34.0615509" lon="8.1287932"><ele>-7.0</ele><time>2026-04-30T10:07:00.65Z</time></trkpt><trkpt lat="34.0616923" lon="8.1287016"><ele>-7.666666666666667</ele><time>2026-04-30T10:07:01.635Z</time></trkpt><trkpt lat="34.0618473" lon="8.1286016"><ele>-8.333333333333334</ele><time>2026-04-30T10:07:02.641Z</time></trkpt><trkpt lat="34.0620117" lon="8.128499"><ele>-9.0</ele><time>2026-04-30T10:07:03.644Z</time></trkpt><trkpt lat="34.0621829" lon="8.1283931"><ele>-9.0</ele><time>2026-04-30T10:07:04.632Z</time></trkpt><trkpt lat="34.0623623" lon="8.1282854"><ele>-9.0</ele><time>2026-04-30T10:07:05.642Z</time></trkpt><trkpt lat="34.0625439" lon="8.1281693"><ele>-9.0</ele><time>2026-04-30T10:07:06.629Z</time></trkpt><trkpt lat="34.062729" lon="8.128051"><ele>-9.0</ele><time>2026-04-30T10:07:07.633Z</time></trkpt><trkpt lat="34.0629167" lon="8.1279396"><ele>-9.0</ele><time>2026-04-30T10:07:08.639Z</time></trkpt><trkpt lat="34.0631108" lon="8.1278272"><ele>-9.0</ele><time>2026-04-30T10:07:09.629Z</time></trkpt><trkpt lat="34.0633025" lon="8.1277056"><ele>-9.0</ele><time>2026-04-30T10:07:10.622Z</time></trkpt><trkpt lat="34.0634938" lon="8.1275863"><ele>-9.0</ele><time>2026-04-30T10:07:11.624Z</time></trkpt><trkpt lat="34.063685" lon="8.1274651"><ele>-9.0</ele><time>2026-04-30T10:07:12.667Z</time></trkpt><trkpt lat="34.0638772" lon="8.1273382"><ele>-8.666666666666666</ele><time>2026-04-30T10:07:13.629Z</time></trkpt><trkpt lat="34.0640723" lon="8.1272163"><ele>-8.333333333333332</ele><time>2026-04-30T10:07:14.636Z</time></trkpt><trkpt lat="34.0642686" lon="8.1270974"><ele>-8.0</ele><time>2026-04-30T10:07:15.64Z</time></trkpt><trkpt lat="34.0644654" lon="8.1269787"><ele>-8.0</ele><time>2026-04-30T10:07:16.638Z</time></trkpt><trkpt lat="34.0646598" lon="8.1268505"><ele>-8.0</ele><time>2026-04-30T10:07:17.641Z</time></trkpt><trkpt lat="34.0648558" lon="8.1267206"><ele>-8.0</ele><time>2026-04-30T10:07:18.629Z</time></trkpt><trkpt lat="34.06505" lon="8.1265983"><ele>-7.666666666666666</ele><time>2026-04-30T10:07:19.632Z</time></trkpt><trkpt lat="34.0652415" lon="8.1264767"><ele>-7.333333333333334</ele><time>2026-04-30T10:07:20.641Z</time></trkpt><trkpt lat="34.0654329" lon="8.1263533"><ele>-7.0</ele><time>2026-04-30T10:07:21.643Z</time></trkpt><trkpt lat="34.0656248" lon="8.1262338"><ele>-6.666666666666667</ele><time>2026-04-30T10:07:22.638Z</time></trkpt><trkpt lat="34.0658148" lon="8.126117"><ele>-6.333333333333334</ele><time>2026-04-30T10:07:23.642Z</time></trkpt><trkpt lat="34.0660093" lon="8.1259944"><ele>-6.0</ele><time>2026-04-30T10:07:24.643Z</time></trkpt><trkpt lat="34.0661966" lon="8.1258766"><ele>-6.0</ele><time>2026-04-30T10:07:25.687Z</time></trkpt><trkpt lat="34.0663697" lon="8.1257639"><ele>-6.0</ele><time>2026-04-30T10:07:26.641Z</time></trkpt><trkpt lat="34.0665249" lon="8.1256614"><ele>-6.0</ele><time>2026-04-30T10:07:27.63Z</time></trkpt><trkpt lat="34.0666649" lon="8.1255619"><ele>-6.666666666666666</ele><time>2026-04-30T10:07:28.631Z</time></trkpt><trkpt lat="34.0667984" lon="8.1254662"><ele>-7.333333333333333</ele><time>2026-04-30T10:07:29.631Z</time></trkpt><trkpt lat="34.0669391" lon="8.1253768"><ele>-8.0</ele><time>2026-04-30T10:07:30.641Z</time></trkpt><trkpt lat="34.0670902" lon="8.1252844"><ele>-8.0</ele><time>2026-04-30T10:07:31.634Z</time></trkpt><trkpt lat="34.0672436" lon="8.1251946"><ele>-8.0</ele><time>2026-04-30T10:07:32.642Z</time></trkpt><trkpt lat="34.0673891" lon="8.1251049"><ele>-8.0</ele><time>2026-04-30T10:07:33.639Z</time></trkpt><trkpt lat="34.0675467" lon="8.1250104"><ele>-8.0</ele><time>2026-04-30T10:07:34.631Z</time></trkpt><trkpt lat="34.0676981" lon="8.1249149"><ele>-8.0</ele><time>2026-04-30T10:07:35.632Z</time></trkpt><trkpt lat="34.0678427" lon="8.1248302"><ele>-8.0</ele><time>2026-04-30T10:07:36.641Z</time></trkpt><trkpt lat="34.0679837" lon="8.1247518"><ele>-8.0</ele><time>2026-04-30T10:07:37.632Z</time></trkpt><trkpt lat="34.0681271" lon="8.1246749"><ele>-8.0</ele><time>2026-04-30T10:07:38.642Z</time></trkpt><trkpt lat="34.0682701" lon="8.1245865"><ele>-8.0</ele><time>2026-04-30T10:07:39.644Z</time></trkpt><trkpt lat="34.0684275" lon="8.1244846"><ele>-8.0</ele><time>2026-04-30T10:07:40.64Z</time></trkpt><trkpt lat="34.0686029" lon="8.1243694"><ele>-8.0</ele><time>2026-04-30T10:07:41.667Z</time></trkpt><trkpt lat="34.0688029" lon="8.1242524"><ele>-8.0</ele><time>2026-04-30T10:07:42.652Z</time></trkpt><trkpt lat="34.0690134" lon="8.1241442"><ele>-7.5</ele><time>2026-04-30T10:07:43.643Z</time></trkpt><trkpt lat="34.0692317" lon="8.1240282"><ele>-7.0</ele><time>2026-04-30T10:07:44.642Z</time></trkpt><trkpt lat="34.0694487" lon="8.1238975"><ele>-7.0</ele><time>2026-04-30T10:07:45.635Z</time></trkpt><trkpt lat="34.069669" lon="8.1237664"><ele>-7.0</ele><time>2026-04-30T10:07:46.642Z</time></trkpt><trkpt lat="34.0698927" lon="8.1236305"><ele>-7.0</ele><time>2026-04-30T10:07:47.639Z</time></trkpt><trkpt lat="34.0701169" lon="8.1234895"><ele>-7.0</ele><time>2026-04-30T10:07:48.645Z</time></trkpt><trkpt lat="34.0703429" lon="8.1233571"><ele>-7.5</ele><time>2026-04-30T10:07:49.634Z</time></trkpt><trkpt lat="34.0705622" lon="8.123227"><ele>-8.0</ele><time>2026-04-30T10:07:50.631Z</time></trkpt><trkpt lat="34.0707842" lon="8.1230984"><ele>-8.0</ele><time>2026-04-30T10:07:51.635Z</time></trkpt><trkpt lat="34.0710085" lon="8.1229687"><ele>-8.0</ele><time>2026-04-30T10:07:52.628Z</time></trkpt><trkpt lat="34.071228" lon="8.1228428"><ele>-8.0</ele><time>2026-04-30T10:07:53.631Z</time></trkpt><trkpt lat="34.071449" lon="8.1227145"><ele>-8.0</ele><time>2026-04-30T10:07:54.636Z</time></trkpt><trkpt lat="34.0716707" lon="8.1225844"><ele>-7.5</ele><time>2026-04-30T10:07:55.637Z</time></trkpt><trkpt lat="34.0718868" lon="8.1224584"><ele>-7.0</ele><time>2026-04-30T10:07:56.64Z</time></trkpt><trkpt lat="34.0720984" lon="8.1223327"><ele>-7.0</ele><time>2026-04-30T10:07:57.662Z</time></trkpt><trkpt lat="34.0723098" lon="8.1222123"><ele>-7.0</ele><time>2026-04-30T10:07:58.633Z</time></trkpt><trkpt lat="34.0725196" lon="8.1220874"><ele>-7.0</ele><time>2026-04-30T10:07:59.634Z</time></trkpt><trkpt lat="34.0727238" lon="8.1219711"><ele>-7.0</ele><time>2026-04-30T10:08:00.628Z</time></trkpt><trkpt lat="34.0729209" lon="8.1218543"><ele>-7.0</ele><time>2026-04-30T10:08:01.628Z</time></trkpt><trkpt lat="34.0731144" lon="8.1217393"><ele>-7.0</ele><time>2026-04-30T10:08:02.635Z</time></trkpt><trkpt lat="34.0733104" lon="8.121621"><ele>-7.0</ele><time>2026-04-30T10:08:03.636Z</time></trkpt><trkpt lat="34.0735109" lon="8.1215046"><ele>-7.0</ele><time>2026-04-30T10:08:04.635Z</time></trkpt><trkpt lat="34.07371" lon="8.1213855"><ele>-7.5</ele><time>2026-04-30T10:08:05.634Z</time></trkpt><trkpt lat="34.0739119" lon="8.1212629"><ele>-8.0</ele><time>2026-04-30T10:08:06.627Z</time></trkpt><trkpt lat="34.0741134" lon="8.1211432"><ele>-8.0</ele><time>2026-04-30T10:08:07.64Z</time></trkpt><trkpt lat="34.0743129" lon="8.1210263"><ele>-8.0</ele><time>2026-04-30T10:08:08.636Z</time></trkpt><trkpt lat="34.0745143" lon="8.1209081"><ele>-8.0</ele><time>2026-04-30T10:08:09.64Z</time></trkpt><trkpt lat="34.0747123" lon="8.1207931"><ele>-8.0</ele><time>2026-04-30T10:08:10.638Z</time></trkpt><trkpt lat="34.0749134" lon="8.120676"><ele>-8.0</ele><time>2026-04-30T10:08:11.667Z</time></trkpt><trkpt lat="34.0751163" lon="8.1205584"><ele>-8.0</ele><time>2026-04-30T10:08:12.64Z</time></trkpt><trkpt lat="34.0753176" lon="8.1204403"><ele>-8.0</ele><time>2026-04-30T10:08:13.648Z</time></trkpt><trkpt lat="34.0755179" lon="8.1203243"><ele>-8.0</ele><time>2026-04-30T10:08:14.638Z</time></trkpt><trkpt lat="34.0757194" lon="8.1202117"><ele>-8.0</ele><time>2026-04-30T10:08:15.637Z</time></trkpt><trkpt lat="34.0759205" lon="8.1200912"><ele>-8.0</ele><time>2026-04-30T10:08:16.639Z</time></trkpt><trkpt lat="34.0761202" lon="8.1199726"><ele>-8.0</ele><time>2026-04-30T10:08:17.639Z</time></trkpt><trkpt lat="34.0763214" lon="8.1198528"><ele>-8.0</ele><time>2026-04-30T10:08:18.639Z</time></trkpt><trkpt lat="34.0765229" lon="8.1197337"><ele>-8.333333333333332</ele><time>2026-04-30T10:08:19.638Z</time></trkpt><trkpt lat="34.0767222" lon="8.1196142"><ele>-8.666666666666666</ele><time>2026-04-30T10:08:20.643Z</time></trkpt><trkpt lat="34.0769164" lon="8.1194947"><ele>-9.0</ele><time>2026-04-30T10:08:21.631Z</time></trkpt><trkpt lat="34.0771182" lon="8.1193735"><ele>-9.0</ele><time>2026-04-30T10:08:22.641Z</time></trkpt><trkpt lat="34.0773217" lon="8.1192526"><ele>-9.0</ele><time>2026-04-30T10:08:23.637Z</time></trkpt><trkpt lat="34.0775216" lon="8.1191345"><ele>-9.0</ele><time>2026-04-30T10:08:24.641Z</time></trkpt><trkpt lat="34.0777198" lon="8.1190178"><ele>-9.0</ele><time>2026-04-30T10:08:25.657Z</time></trkpt><trkpt lat="34.0779163" lon="8.1189023"><ele>-9.0</ele><time>2026-04-30T10:08:26.64Z</time></trkpt><trkpt lat="34.0781115" lon="8.1187909"><ele>-9.0</ele><time>2026-04-30T10:08:27.644Z</time></trkpt><trkpt lat="34.0782996" lon="8.1186832"><ele>-9.0</ele><time>2026-04-30T10:08:28.643Z</time></trkpt><trkpt lat="34.0784852" lon="8.1185714"><ele>-9.0</ele><time>2026-04-30T10:08:29.646Z</time></trkpt><trkpt lat="34.0786719" lon="8.1184597"><ele>-9.0</ele><time>2026-04-30T10:08:30.641Z</time></trkpt><trkpt lat="34.0788585" lon="8.1183506"><ele>-9.0</ele><time>2026-04-30T10:08:31.64Z</time></trkpt><trkpt lat="34.0790497" lon="8.1182417"><ele>-9.0</ele><time>2026-04-30T10:08:32.641Z</time></trkpt><trkpt lat="34.0792399" lon="8.1181343"><ele>-9.0</ele><time>2026-04-30T10:08:33.669Z</time></trkpt><trkpt lat="34.0794299" lon="8.1180284"><ele>-9.0</ele><time>2026-04-30T10:08:34.64Z</time></trkpt><trkpt lat="34.0796174" lon="8.1179216"><ele>-9.0</ele><time>2026-04-30T10:08:35.626Z</time></trkpt><trkpt lat="34.0798011" lon="8.1178173"><ele>-9.0</ele><time>2026-04-30T10:08:36.642Z</time></trkpt><trkpt lat="34.079987" lon="8.1177107"><ele>-9.0</ele><time>2026-04-30T10:08:37.641Z</time></trkpt><trkpt lat="34.0801693" lon="8.1176063"><ele>-9.0</ele><time>2026-04-30T10:08:38.638Z</time></trkpt><trkpt lat="34.080355" lon="8.1174959"><ele>-9.0</ele><time>2026-04-30T10:08:39.635Z</time></trkpt><trkpt lat="34.0805417" lon="8.1173799"><ele>-9.666666666666666</ele><time>2026-04-30T10:08:40.646Z</time></trkpt><trkpt lat="34.0807328" lon="8.117271"><ele>-10.333333333333332</ele><time>2026-04-30T10:08:41.632Z</time></trkpt><trkpt lat="34.0809211" lon="8.1171599"><ele>-11.0</ele><time>2026-04-30T10:08:42.631Z</time></trkpt><trkpt lat="34.0811116" lon="8.1170567"><ele>-11.0</ele><time>2026-04-30T10:08:43.63Z</time></trkpt><trkpt lat="34.0813025" lon="8.1169505"><ele>-11.0</ele><time>2026-04-30T10:08:44.64Z</time></trkpt><trkpt lat="34.0814938" lon="8.1168394"><ele>-11.0</ele><time>2026-04-30T10:08:45.639Z</time></trkpt><trkpt lat="34.0816833" lon="8.1167298"><ele>-10.333333333333332</ele><time>2026-04-30T10:08:46.636Z</time></trkpt><trkpt lat="34.0818681" lon="8.116614"><ele>-9.666666666666666</ele><time>2026-04-30T10:08:47.635Z</time></trkpt><trkpt lat="34.0820506" lon="8.1165037"><ele>-9.0</ele><time>2026-04-30T10:08:48.636Z</time></trkpt><trkpt lat="34.0822371" lon="8.1163901"><ele>-8.666666666666666</ele><time>2026-04-30T10:08:49.665Z</time></trkpt><trkpt lat="34.0824266" lon="8.116283"><ele>-8.333333333333332</ele><time>2026-04-30T10:08:50.647Z</time></trkpt><trkpt lat="34.0826149" lon="8.1161757"><ele>-8.0</ele><time>2026-04-30T10:08:51.638Z</time></trkpt><trkpt lat="34.0828066" lon="8.1160683"><ele>-8.0</ele><time>2026-04-30T10:08:52.638Z</time></trkpt><trkpt lat="34.0829938" lon="8.1159601"><ele>-8.0</ele><time>2026-04-30T10:08:53.633Z</time></trkpt><trkpt lat="34.0831851" lon="8.1158547"><ele>-8.0</ele><time>2026-04-30T10:08:54.643Z</time></trkpt><trkpt lat="34.0833724" lon="8.1157402"><ele>-7.666666666666666</ele><time>2026-04-30T10:08:55.642Z</time></trkpt><trkpt lat="34.0835601" lon="8.1156271"><ele>-7.333333333333334</ele><time>2026-04-30T10:08:56.634Z</time></trkpt><trkpt lat="34.0837489" lon="8.1155196"><ele>-7.0</ele><time>2026-04-30T10:08:57.636Z</time></trkpt><trkpt lat="34.083936" lon="8.1154077"><ele>-7.333333333333334</ele><time>2026-04-30T10:08:58.637Z</time></trkpt><trkpt lat="34.0841252" lon="8.115298"><ele>-7.666666666666666</ele><time>2026-04-30T10:08:59.633Z</time></trkpt><trkpt lat="34.084313" lon="8.1151929"><ele>-8.0</ele><time>2026-04-30T10:09:00.632Z</time></trkpt><trkpt lat="34.0844996" lon="8.1150835"><ele>-8.0</ele><time>2026-04-30T10:09:01.641Z</time></trkpt><trkpt lat="34.0846913" lon="8.1149734"><ele>-8.0</ele><time>2026-04-30T10:09:02.637Z</time></trkpt><trkpt lat="34.0848767" lon="8.114864"><ele>-8.0</ele><time>2026-04-30T10:09:03.631Z</time></trkpt><trkpt lat="34.0850667" lon="8.1147563"><ele>-8.666666666666666</ele><time>2026-04-30T10:09:04.661Z</time></trkpt><trkpt lat="34.085251" lon="8.114647"><ele>-9.333333333333334</ele><time>2026-04-30T10:09:05.637Z</time></trkpt><trkpt lat="34.08544" lon="8.114534"><ele>-10.0</ele><time>2026-04-30T10:09:06.624Z</time></trkpt><trkpt lat="34.085628" lon="8.1144249"><ele>-10.0</ele><time>2026-04-30T10:09:07.629Z</time></trkpt><trkpt lat="34.0858183" lon="8.1143143"><ele>-10.0</ele><time>2026-04-30T10:09:08.639Z</time></trkpt><trkpt lat="34.086009" lon="8.1142041"><ele>-10.0</ele><time>2026-04-30T10:09:09.642Z</time></trkpt><trkpt lat="34.0861978" lon="8.1140938"><ele>-9.666666666666668</ele><time>2026-04-30T10:09:10.641Z</time></trkpt><trkpt lat="34.086384" lon="8.1139873"><ele>-9.333333333333334</ele><time>2026-04-30T10:09:11.64Z</time></trkpt><trkpt lat="34.0865739" lon="8.1138803"><ele>-9.0</ele><time>2026-04-30T10:09:12.641Z</time></trkpt><trkpt lat="34.0867598" lon="8.1137739"><ele>-8.666666666666666</ele><time>2026-04-30T10:09:13.635Z</time></trkpt><trkpt lat="34.0869508" lon="8.1136658"><ele>-8.333333333333332</ele><time>2026-04-30T10:09:14.645Z</time></trkpt><trkpt lat="34.0871383" lon="8.1135558"><ele>-8.0</ele><time>2026-04-30T10:09:15.625Z</time></trkpt><trkpt lat="34.0873242" lon="8.1134474"><ele>-8.0</ele><time>2026-04-30T10:09:16.644Z</time></trkpt><trkpt lat="34.0875112" lon="8.1133395"><ele>-8.0</ele><time>2026-04-30T10:09:17.643Z</time></trkpt><trkpt lat="34.0877001" lon="8.113226"><ele>-8.0</ele><time>2026-04-30T10:09:18.664Z</time></trkpt><trkpt lat="34.0878841" lon="8.1131117"><ele>-8.0</ele><time>2026-04-30T10:09:19.657Z</time></trkpt><trkpt lat="34.0880704" lon="8.1129962"><ele>-8.0</ele><time>2026-04-30T10:09:20.676Z</time></trkpt><trkpt lat="34.0882551" lon="8.1128799"><ele>-8.0</ele><time>2026-04-30T10:09:21.626Z</time></trkpt><trkpt lat="34.0884416" lon="8.1127626"><ele>-8.0</ele><time>2026-04-30T10:09:22.635Z</time></trkpt><trkpt lat="34.0886298" lon="8.1126477"><ele>-8.0</ele><time>2026-04-30T10:09:23.632Z</time></trkpt><trkpt lat="34.0888151" lon="8.1125323"><ele>-8.0</ele><time>2026-04-30T10:09:24.63Z</time></trkpt><trkpt lat="34.089" lon="8.1124135"><ele>-8.0</ele><time>2026-04-30T10:09:25.63Z</time></trkpt><trkpt lat="34.089182" lon="8.11229"><ele>-8.0</ele><time>2026-04-30T10:09:26.658Z</time></trkpt><trkpt lat="34.089367" lon="8.1121753"><ele>-8.0</ele><time>2026-04-30T10:09:27.632Z</time></trkpt><trkpt lat="34.089551" lon="8.1120607"><ele>-8.0</ele><time>2026-04-30T10:09:28.634Z</time></trkpt><trkpt lat="34.0897306" lon="8.1119501"><ele>-8.0</ele><time>2026-04-30T10:09:29.636Z</time></trkpt><trkpt lat="34.0899104" lon="8.1118342"><ele>-8.0</ele><time>2026-04-30T10:09:30.633Z</time></trkpt><trkpt lat="34.090086" lon="8.1117227"><ele>-8.333333333333332</ele><time>2026-04-30T10:09:31.631Z</time></trkpt><trkpt lat="34.0902663" lon="8.1116096"><ele>-8.666666666666666</ele><time>2026-04-30T10:09:32.639Z</time></trkpt><trkpt lat="34.0904473" lon="8.1114935"><ele>-9.0</ele><time>2026-04-30T10:09:33.635Z</time></trkpt><trkpt lat="34.0906271" lon="8.1113782"><ele>-9.0</ele><time>2026-04-30T10:09:34.634Z</time></trkpt><trkpt lat="34.0908068" lon="8.1112645"><ele>-9.0</ele><time>2026-04-30T10:09:35.628Z</time></trkpt><trkpt lat="34.0909882" lon="8.1111521"><ele>-9.0</ele><time>2026-04-30T10:09:36.635Z</time></trkpt><trkpt lat="34.091166" lon="8.1110392"><ele>-9.0</ele><time>2026-04-30T10:09:37.636Z</time></trkpt><trkpt lat="34.0913443" lon="8.1109271"><ele>-9.0</ele><time>2026-04-30T10:09:38.678Z</time></trkpt><trkpt lat="34.0915206" lon="8.1108224"><ele>-9.0</ele><time>2026-04-30T10:09:39.631Z</time></trkpt><trkpt lat="34.091696" lon="8.1107121"><ele>-9.333333333333334</ele><time>2026-04-30T10:09:40.623Z</time></trkpt><trkpt lat="34.0918756" lon="8.1105976"><ele>-9.666666666666668</ele><time>2026-04-30T10:09:41.636Z</time></trkpt><trkpt lat="34.0920553" lon="8.1104813"><ele>-10.0</ele><time>2026-04-30T10:09:42.638Z</time></trkpt><trkpt lat="34.0922325" lon="8.1103707"><ele>-10.0</ele><time>2026-04-30T10:09:43.639Z</time></trkpt><trkpt lat="34.09241" lon="8.110257"><ele>-10.0</ele><time>2026-04-30T10:09:44.638Z</time></trkpt><trkpt lat="34.0925925" lon="8.1101413"><ele>-10.0</ele><time>2026-04-30T10:09:45.64Z</time></trkpt><trkpt lat="34.0927736" lon="8.1100284"><ele>-10.0</ele><time>2026-04-30T10:09:46.643Z</time></trkpt><trkpt lat="34.0929548" lon="8.1099133"><ele>-10.0</ele><time>2026-04-30T10:09:47.631Z</time></trkpt><trkpt lat="34.0931359" lon="8.1097953"><ele>-10.0</ele><time>2026-04-30T10:09:48.637Z</time></trkpt><trkpt lat="34.093318" lon="8.1096791"><ele>-10.333333333333334</ele><time>2026-04-30T10:09:49.634Z</time></trkpt><trkpt lat="34.0934953" lon="8.109564"><ele>-10.666666666666666</ele><time>2026-04-30T10:09:50.673Z</time></trkpt><trkpt lat="34.0936744" lon="8.1094468"><ele>-11.0</ele><time>2026-04-30T10:09:51.64Z</time></trkpt><trkpt lat="34.093854" lon="8.1093317"><ele>-11.0</ele><time>2026-04-30T10:09:52.635Z</time></trkpt><trkpt lat="34.0940343" lon="8.1092161"><ele>-11.0</ele><time>2026-04-30T10:09:53.63Z</time></trkpt><trkpt lat="34.0942138" lon="8.1091036"><ele>-11.0</ele><time>2026-04-30T10:09:54.651Z</time></trkpt><trkpt lat="34.0943954" lon="8.1089895"><ele>-11.0</ele><time>2026-04-30T10:09:55.684Z</time></trkpt><trkpt lat="34.0945749" lon="8.1088752"><ele>-11.0</ele><time>2026-04-30T10:09:56.657Z</time></trkpt><trkpt lat="34.0947577" lon="8.1087605"><ele>-11.0</ele><time>2026-04-30T10:09:57.686Z</time></trkpt><trkpt lat="34.0949402" lon="8.1086492"><ele>-11.0</ele><time>2026-04-30T10:09:58.689Z</time></trkpt><trkpt lat="34.0951186" lon="8.1085313"><ele>-11.0</ele><time>2026-04-30T10:09:59.668Z</time></trkpt><trkpt lat="34.0953018" lon="8.1084189"><ele>-11.0</ele><time>2026-04-30T10:10:00.665Z</time></trkpt><trkpt lat="34.0954833" lon="8.1083063"><ele>-11.0</ele><time>2026-04-30T10:10:01.65Z</time></trkpt><trkpt lat="34.0956627" lon="8.108189"><ele>-11.0</ele><time>2026-04-30T10:10:02.654Z</time></trkpt><trkpt lat="34.0958404" lon="8.1080762"><ele>-11.0</ele><time>2026-04-30T10:10:03.665Z</time></trkpt><trkpt lat="34.0960198" lon="8.1079602"><ele>-11.0</ele><time>2026-04-30T10:10:04.68Z</time></trkpt><trkpt lat="34.096199" lon="8.1078461"><ele>-11.0</ele><time>2026-04-30T10:10:05.69Z</time></trkpt><trkpt lat="34.0963761" lon="8.1077331"><ele>-11.0</ele><time>2026-04-30T10:10:06.687Z</time></trkpt><trkpt lat="34.0965544" lon="8.1076201"><ele>-10.666666666666666</ele><time>2026-04-30T10:10:07.683Z</time></trkpt><trkpt lat="34.0967374" lon="8.1075016"><ele>-10.333333333333334</ele><time>2026-04-30T10:10:08.667Z</time></trkpt><trkpt lat="34.0969188" lon="8.1073812"><ele>-10.0</ele><time>2026-04-30T10:10:09.685Z</time></trkpt><trkpt lat="34.0970999" lon="8.1072611"><ele>-10.0</ele><time>2026-04-30T10:10:10.679Z</time></trkpt><trkpt lat="34.0972784" lon="8.1071431"><ele>-10.0</ele><time>2026-04-30T10:10:11.69Z</time></trkpt><trkpt lat="34.0974575" lon="8.1070244"><ele>-10.0</ele><time>2026-04-30T10:10:12.7Z</time></trkpt><trkpt lat="34.0976357" lon="8.1069047"><ele>-10.333333333333334</ele><time>2026-04-30T10:10:13.669Z</time></trkpt><trkpt lat="34.0978153" lon="8.1067934"><ele>-10.666666666666666</ele><time>2026-04-30T10:10:14.68Z</time></trkpt><trkpt lat="34.0979958" lon="8.1066773"><ele>-11.0</ele><time>2026-04-30T10:10:15.652Z</time></trkpt><trkpt lat="34.0981769" lon="8.1065592"><ele>-11.0</ele><time>2026-04-30T10:10:16.669Z</time></trkpt><trkpt lat="34.0983562" lon="8.1064421"><ele>-11.0</ele><time>2026-04-30T10:10:17.669Z</time></trkpt><trkpt lat="34.0985355" lon="8.1063204"><ele>-11.0</ele><time>2026-04-30T10:10:18.665Z</time></trkpt><trkpt lat="34.098716" lon="8.1062004"><ele>-11.0</ele><time>2026-04-30T10:10:19.686Z</time></trkpt><trkpt lat="34.0988972" lon="8.1060796"><ele>-11.0</ele><time>2026-04-30T10:10:20.655Z</time></trkpt><trkpt lat="34.0990732" lon="8.1059634"><ele>-11.0</ele><time>2026-04-30T10:10:21.679Z</time></trkpt><trkpt lat="34.0992539" lon="8.1058436"><ele>-11.0</ele><time>2026-04-30T10:10:22.676Z</time></trkpt><trkpt lat="34.0994317" lon="8.1057253"><ele>-11.0</ele><time>2026-04-30T10:10:23.701Z</time></trkpt><trkpt lat="34.0996224" lon="8.1056064"><ele>-11.0</ele><time>2026-04-30T10:10:24.651Z</time></trkpt><trkpt lat="34.099815" lon="8.1054831"><ele>-11.0</ele><time>2026-04-30T10:10:25.694Z</time></trkpt><trkpt lat="34.1000073" lon="8.1053551"><ele>-11.0</ele><time>2026-04-30T10:10:26.692Z</time></trkpt><trkpt lat="34.1002006" lon="8.1052285"><ele>-11.0</ele><time>2026-04-30T10:10:27.68Z</time></trkpt><trkpt lat="34.1003941" lon="8.105097"><ele>-11.0</ele><time>2026-04-30T10:10:28.686Z</time></trkpt><trkpt lat="34.1005926" lon="8.1049623"><ele>-11.0</ele><time>2026-04-30T10:10:29.67Z</time></trkpt><trkpt lat="34.1007909" lon="8.1048342"><ele>-12.333333333333332</ele><time>2026-04-30T10:10:30.669Z</time></trkpt><trkpt lat="34.1009873" lon="8.1047054"><ele>-13.666666666666666</ele><time>2026-04-30T10:10:31.665Z</time></trkpt><trkpt lat="34.1011811" lon="8.104582"><ele>-15.0</ele><time>2026-04-30T10:10:32.676Z</time></trkpt><trkpt lat="34.1013747" lon="8.1044577"><ele>-15.0</ele><time>2026-04-30T10:10:33.7Z</time></trkpt><trkpt lat="34.1015732" lon="8.1043362"><ele>-15.0</ele><time>2026-04-30T10:10:34.652Z</time></trkpt><trkpt lat="34.1017754" lon="8.1042126"><ele>-15.0</ele><time>2026-04-30T10:10:35.671Z</time></trkpt><trkpt lat="34.1019706" lon="8.1040837"><ele>-14.0</ele><time>2026-04-30T10:10:36.676Z</time></trkpt><trkpt lat="34.1021668" lon="8.1039568"><ele>-13.0</ele><time>2026-04-30T10:10:37.684Z</time></trkpt><trkpt lat="34.1023616" lon="8.1038257"><ele>-12.0</ele><time>2026-04-30T10:10:38.683Z</time></trkpt><trkpt lat="34.1025585" lon="8.1036986"><ele>-11.666666666666666</ele><time>2026-04-30T10:10:39.626Z</time></trkpt><trkpt lat="34.102753" lon="8.1035712"><ele>-11.333333333333332</ele><time>2026-04-30T10:10:40.62Z</time></trkpt><trkpt lat="34.102948" lon="8.1034438"><ele>-11.0</ele><time>2026-04-30T10:10:41.66Z</time></trkpt><trkpt lat="34.1031424" lon="8.103317"><ele>-11.666666666666666</ele><time>2026-04-30T10:10:42.666Z</time></trkpt><trkpt lat="34.1033424" lon="8.1031885"><ele>-12.333333333333332</ele><time>2026-04-30T10:10:43.672Z</time></trkpt><trkpt lat="34.1035404" lon="8.1030695"><ele>-13.0</ele><time>2026-04-30T10:10:44.676Z</time></trkpt><trkpt lat="34.1037353" lon="8.1029464"><ele>-13.0</ele><time>2026-04-30T10:10:45.677Z</time></trkpt><trkpt lat="34.1039334" lon="8.1028205"><ele>-13.0</ele><time>2026-04-30T10:10:46.684Z</time></trkpt><trkpt lat="34.1041312" lon="8.1026951"><ele>-13.0</ele><time>2026-04-30T10:10:47.686Z</time></trkpt><trkpt lat="34.1043298" lon="8.1025668"><ele>-13.0</ele><time>2026-04-30T10:10:48.662Z</time></trkpt><trkpt lat="34.1045267" lon="8.1024374"><ele>-13.0</ele><time>2026-04-30T10:10:49.703Z</time></trkpt><trkpt lat="34.1047229" lon="8.1023172"><ele>-13.0</ele><time>2026-04-30T10:10:50.687Z</time></trkpt><trkpt lat="34.1049196" lon="8.1021892"><ele>-12.666666666666666</ele><time>2026-04-30T10:10:51.672Z</time></trkpt><trkpt lat="34.1051166" lon="8.1020681"><ele>-12.333333333333332</ele><time>2026-04-30T10:10:52.653Z</time></trkpt><trkpt lat="34.1053168" lon="8.101944"><ele>-12.0</ele><time>2026-04-30T10:10:53.671Z</time></trkpt><trkpt lat="34.1055158" lon="8.1018152"><ele>-12.0</ele><time>2026-04-30T10:10:54.651Z</time></trkpt><trkpt lat="34.1057136" lon="8.1016943"><ele>-12.0</ele><time>2026-04-30T10:10:55.682Z</time></trkpt><trkpt lat="34.105909" lon="8.1015676"><ele>-12.0</ele><time>2026-04-30T10:10:56.672Z</time></trkpt><trkpt lat="34.1061084" lon="8.1014394"><ele>-12.0</ele><time>2026-04-30T10:10:57.652Z</time></trkpt><trkpt lat="34.106306" lon="8.1013119"><ele>-12.0</ele><time>2026-04-30T10:10:58.656Z</time></trkpt><trkpt lat="34.1065031" lon="8.1011796"><ele>-12.0</ele><time>2026-04-30T10:10:59.656Z</time></trkpt><trkpt lat="34.1067012" lon="8.1010534"><ele>-12.0</ele><time>2026-04-30T10:11:00.66Z</time></trkpt><trkpt lat="34.1068983" lon="8.1009294"><ele>-12.0</ele><time>2026-04-30T10:11:01.671Z</time></trkpt><trkpt lat="34.1070951" lon="8.1008054"><ele>-12.0</ele><time>2026-04-30T10:11:02.686Z</time></trkpt><trkpt lat="34.1072932" lon="8.1006764"><ele>-12.0</ele><time>2026-04-30T10:11:03.683Z</time></trkpt><trkpt lat="34.107487" lon="8.1005478"><ele>-12.0</ele><time>2026-04-30T10:11:04.68Z</time></trkpt><trkpt lat="34.10768" lon="8.1004173"><ele>-12.333333333333332</ele><time>2026-04-30T10:11:05.677Z</time></trkpt><trkpt lat="34.1078726" lon="8.100283"><ele>-12.666666666666666</ele><time>2026-04-30T10:11:06.657Z</time></trkpt><trkpt lat="34.1080666" lon="8.1001477"><ele>-13.0</ele><time>2026-04-30T10:11:07.672Z</time></trkpt><trkpt lat="34.1082593" lon="8.1000152"><ele>-12.666666666666666</ele><time>2026-04-30T10:11:08.639Z</time></trkpt><trkpt lat="34.108454" lon="8.0998796"><ele>-12.333333333333332</ele><time>2026-04-30T10:11:09.672Z</time></trkpt><trkpt lat="34.1086456" lon="8.0997472"><ele>-12.0</ele><time>2026-04-30T10:11:10.677Z</time></trkpt><trkpt lat="34.1088391" lon="8.0996108"><ele>-12.0</ele><time>2026-04-30T10:11:11.681Z</time></trkpt><trkpt lat="34.1090294" lon="8.0994728"><ele>-12.0</ele><time>2026-04-30T10:11:12.68Z</time></trkpt><trkpt lat="34.1092185" lon="8.0993382"><ele>-12.0</ele><time>2026-04-30T10:11:13.656Z</time></trkpt><trkpt lat="34.1094023" lon="8.0992013"><ele>-12.0</ele><time>2026-04-30T10:11:14.679Z</time></trkpt><trkpt lat="34.1095886" lon="8.0990652"><ele>-12.0</ele><time>2026-04-30T10:11:15.685Z</time></trkpt><trkpt lat="34.1097724" lon="8.0989365"><ele>-12.0</ele><time>2026-04-30T10:11:16.687Z</time></trkpt><trkpt lat="34.1099574" lon="8.098802"><ele>-12.0</ele><time>2026-04-30T10:11:17.68Z</time></trkpt><trkpt lat="34.1101412" lon="8.098664"><ele>-12.0</ele><time>2026-04-30T10:11:18.681Z</time></trkpt><trkpt lat="34.1103296" lon="8.0985254"><ele>-12.0</ele><time>2026-04-30T10:11:19.663Z</time></trkpt><trkpt lat="34.1105147" lon="8.0983845"><ele>-12.333333333333332</ele><time>2026-04-30T10:11:20.692Z</time></trkpt><trkpt lat="34.1107017" lon="8.0982486"><ele>-12.666666666666666</ele><time>2026-04-30T10:11:21.68Z</time></trkpt><trkpt lat="34.110892" lon="8.0981197"><ele>-13.0</ele><time>2026-04-30T10:11:22.679Z</time></trkpt><trkpt lat="34.1110843" lon="8.0979824"><ele>-13.333333333333332</ele><time>2026-04-30T10:11:23.673Z</time></trkpt><trkpt lat="34.111272" lon="8.0978504"><ele>-13.666666666666668</ele><time>2026-04-30T10:11:24.681Z</time></trkpt><trkpt lat="34.1114565" lon="8.0977133"><ele>-14.0</ele><time>2026-04-30T10:11:25.684Z</time></trkpt><trkpt lat="34.1116438" lon="8.0975757"><ele>-14.0</ele><time>2026-04-30T10:11:26.674Z</time></trkpt><trkpt lat="34.1118322" lon="8.0974407"><ele>-14.0</ele><time>2026-04-30T10:11:27.675Z</time></trkpt><trkpt lat="34.1120162" lon="8.0973031"><ele>-14.0</ele><time>2026-04-30T10:11:28.676Z</time></trkpt><trkpt lat="34.1122017" lon="8.0971652"><ele>-14.0</ele><time>2026-04-30T10:11:29.663Z</time></trkpt><trkpt lat="34.1123936" lon="8.0970307"><ele>-14.0</ele><time>2026-04-30T10:11:30.636Z</time></trkpt><trkpt lat="34.1125825" lon="8.0968938"><ele>-14.0</ele><time>2026-04-30T10:11:31.662Z</time></trkpt><trkpt lat="34.1127736" lon="8.0967624"><ele>-14.0</ele><time>2026-04-30T10:11:32.669Z</time></trkpt><trkpt lat="34.1129614" lon="8.096633"><ele>-14.0</ele><time>2026-04-30T10:11:33.684Z</time></trkpt><trkpt lat="34.1131501" lon="8.0964991"><ele>-14.0</ele><time>2026-04-30T10:11:34.664Z</time></trkpt><trkpt lat="34.1133378" lon="8.0963649"><ele>-14.0</ele><time>2026-04-30T10:11:35.664Z</time></trkpt><trkpt lat="34.1135237" lon="8.0962302"><ele>-14.0</ele><time>2026-04-30T10:11:36.661Z</time></trkpt><trkpt lat="34.1137137" lon="8.0960996"><ele>-14.0</ele><time>2026-04-30T10:11:37.658Z</time></trkpt><trkpt lat="34.1138995" lon="8.0959683"><ele>-14.0</ele><time>2026-04-30T10:11:38.655Z</time></trkpt><trkpt lat="34.114089" lon="8.0958328"><ele>-14.0</ele><time>2026-04-30T10:11:39.689Z</time></trkpt><trkpt lat="34.1142789" lon="8.0956938"><ele>-14.0</ele><time>2026-04-30T10:11:40.675Z</time></trkpt><trkpt lat="34.1144689" lon="8.0955577"><ele>-13.666666666666668</ele><time>2026-04-30T10:11:41.695Z</time></trkpt><trkpt lat="34.1146597" lon="8.0954251"><ele>-13.333333333333332</ele><time>2026-04-30T10:11:42.682Z</time></trkpt><trkpt lat="34.1148471" lon="8.095292"><ele>-13.0</ele><time>2026-04-30T10:11:43.698Z</time></trkpt><trkpt lat="34.1150289" lon="8.095161"><ele>-13.0</ele><time>2026-04-30T10:11:44.674Z</time></trkpt><trkpt lat="34.1152022" lon="8.0950415"><ele>-13.0</ele><time>2026-04-30T10:11:45.693Z</time></trkpt><trkpt lat="34.1153668" lon="8.0949297"><ele>-13.0</ele><time>2026-04-30T10:11:46.677Z</time></trkpt><trkpt lat="34.1155268" lon="8.094819"><ele>-13.0</ele><time>2026-04-30T10:11:47.66Z</time></trkpt><trkpt lat="34.1156888" lon="8.0947025"><ele>-13.0</ele><time>2026-04-30T10:11:48.674Z</time></trkpt><trkpt lat="34.1158498" lon="8.0945809"><ele>-13.0</ele><time>2026-04-30T10:11:49.676Z</time></trkpt><trkpt lat="34.1160167" lon="8.0944613"><ele>-13.666666666666666</ele><time>2026-04-30T10:11:50.676Z</time></trkpt><trkpt lat="34.1161807" lon="8.0943442"><ele>-14.333333333333332</ele><time>2026-04-30T10:11:51.664Z</time></trkpt><trkpt lat="34.1163454" lon="8.0942275"><ele>-15.0</ele><time>2026-04-30T10:11:52.67Z</time></trkpt><trkpt lat="34.1165096" lon="8.0941094"><ele>-15.0</ele><time>2026-04-30T10:11:53.656Z</time></trkpt><trkpt lat="34.1166793" lon="8.0939892"><ele>-15.0</ele><time>2026-04-30T10:11:54.656Z</time></trkpt><trkpt lat="34.1168462" lon="8.0938679"><ele>-15.0</ele><time>2026-04-30T10:11:55.636Z</time></trkpt><trkpt lat="34.1170171" lon="8.0937452"><ele>-15.0</ele><time>2026-04-30T10:11:56.672Z</time></trkpt><trkpt lat="34.1171872" lon="8.0936294"><ele>-15.0</ele><time>2026-04-30T10:11:57.691Z</time></trkpt><trkpt lat="34.1173599" lon="8.0935095"><ele>-15.0</ele><time>2026-04-30T10:11:58.689Z</time></trkpt><trkpt lat="34.1175372" lon="8.0933824"><ele>-14.666666666666668</ele><time>2026-04-30T10:11:59.67Z</time></trkpt><trkpt lat="34.1177118" lon="8.0932537"><ele>-14.333333333333334</ele><time>2026-04-30T10:12:00.684Z</time></trkpt><trkpt lat="34.1178869" lon="8.0931277"><ele>-14.0</ele><time>2026-04-30T10:12:01.685Z</time></trkpt><trkpt lat="34.1180647" lon="8.0929987"><ele>-14.0</ele><time>2026-04-30T10:12:02.689Z</time></trkpt><trkpt lat="34.1182427" lon="8.0928692"><ele>-14.0</ele><time>2026-04-30T10:12:03.68Z</time></trkpt><trkpt lat="34.1184218" lon="8.0927404"><ele>-14.0</ele><time>2026-04-30T10:12:04.691Z</time></trkpt><trkpt lat="34.1185973" lon="8.0926136"><ele>-14.0</ele><time>2026-04-30T10:12:05.683Z</time></trkpt><trkpt lat="34.1187796" lon="8.092489"><ele>-14.0</ele><time>2026-04-30T10:12:06.676Z</time></trkpt><trkpt lat="34.1189576" lon="8.0923642"><ele>-14.0</ele><time>2026-04-30T10:12:07.683Z</time></trkpt><trkpt lat="34.1191381" lon="8.0922371"><ele>-14.333333333333334</ele><time>2026-04-30T10:12:08.679Z</time></trkpt><trkpt lat="34.1193155" lon="8.092106"><ele>-14.666666666666668</ele><time>2026-04-30T10:12:09.698Z</time></trkpt><trkpt lat="34.1194927" lon="8.0919728"><ele>-15.0</ele><time>2026-04-30T10:12:10.681Z</time></trkpt><trkpt lat="34.1196698" lon="8.091842"><ele>-15.0</ele><time>2026-04-30T10:12:11.688Z</time></trkpt><trkpt lat="34.1198485" lon="8.0917177"><ele>-15.0</ele><time>2026-04-30T10:12:12.672Z</time></trkpt><trkpt lat="34.120025" lon="8.0915961"><ele>-15.0</ele><time>2026-04-30T10:12:13.678Z</time></trkpt><trkpt lat="34.1202036" lon="8.0914742"><ele>-16.0</ele><time>2026-04-30T10:12:14.688Z</time></trkpt><trkpt lat="34.1203787" lon="8.0913468"><ele>-17.0</ele><time>2026-04-30T10:12:15.687Z</time></trkpt><trkpt lat="34.1205527" lon="8.0912198"><ele>-18.0</ele><time>2026-04-30T10:12:16.649Z</time></trkpt><trkpt lat="34.1207255" lon="8.0910938"><ele>-17.666666666666668</ele><time>2026-04-30T10:12:17.683Z</time></trkpt><trkpt lat="34.1209031" lon="8.0909673"><ele>-17.333333333333336</ele><time>2026-04-30T10:12:18.677Z</time></trkpt><trkpt lat="34.1210818" lon="8.090845"><ele>-17.0</ele><time>2026-04-30T10:12:19.673Z</time></trkpt><trkpt lat="34.121257" lon="8.0907218"><ele>-17.0</ele><time>2026-04-30T10:12:20.667Z</time></trkpt><trkpt lat="34.1214341" lon="8.0905985"><ele>-17.0</ele><time>2026-04-30T10:12:21.663Z</time></trkpt><trkpt lat="34.1216103" lon="8.0904738"><ele>-17.0</ele><time>2026-04-30T10:12:22.668Z</time></trkpt><trkpt lat="34.1217841" lon="8.0903463"><ele>-16.666666666666668</ele><time>2026-04-30T10:12:23.683Z</time></trkpt><trkpt lat="34.1219604" lon="8.0902218"><ele>-16.333333333333332</ele><time>2026-04-30T10:12:24.659Z</time></trkpt><trkpt lat="34.1221363" lon="8.0900984"><ele>-16.0</ele><time>2026-04-30T10:12:25.686Z</time></trkpt><trkpt lat="34.1223103" lon="8.0899747"><ele>-16.0</ele><time>2026-04-30T10:12:26.685Z</time></trkpt><trkpt lat="34.1224865" lon="8.0898472"><ele>-16.0</ele><time>2026-04-30T10:12:27.683Z</time></trkpt><trkpt lat="34.122662" lon="8.0897161"><ele>-16.0</ele><time>2026-04-30T10:12:28.687Z</time></trkpt><trkpt lat="34.1228393" lon="8.0895832"><ele>-16.0</ele><time>2026-04-30T10:12:29.639Z</time></trkpt><trkpt lat="34.1230151" lon="8.0894545"><ele>-16.0</ele><time>2026-04-30T10:12:30.679Z</time></trkpt><trkpt lat="34.1231937" lon="8.0893246"><ele>-16.0</ele><time>2026-04-30T10:12:31.683Z</time></trkpt><trkpt lat="34.1233705" lon="8.0891968"><ele>-16.0</ele><time>2026-04-30T10:12:32.686Z</time></trkpt><trkpt lat="34.1235468" lon="8.08907"><ele>-16.0</ele><time>2026-04-30T10:12:33.68Z</time></trkpt><trkpt lat="34.1237237" lon="8.0889466"><ele>-16.0</ele><time>2026-04-30T10:12:34.668Z</time></trkpt><trkpt lat="34.1239022" lon="8.0888184"><ele>-16.0</ele><time>2026-04-30T10:12:35.685Z</time></trkpt><trkpt lat="34.1240789" lon="8.0886931"><ele>-16.0</ele><time>2026-04-30T10:12:36.663Z</time></trkpt><trkpt lat="34.1242608" lon="8.0885625"><ele>-16.0</ele><time>2026-04-30T10:12:37.687Z</time></trkpt><trkpt lat="34.1244365" lon="8.0884359"><ele>-16.0</ele><time>2026-04-30T10:12:38.687Z</time></trkpt><trkpt lat="34.1246147" lon="8.0883064"><ele>-16.0</ele><time>2026-04-30T10:12:39.692Z</time></trkpt><trkpt lat="34.1247929" lon="8.0881822"><ele>-16.0</ele><time>2026-04-30T10:12:40.679Z</time></trkpt><trkpt lat="34.12497" lon="8.088059"><ele>-16.0</ele><time>2026-04-30T10:12:41.683Z</time></trkpt><trkpt lat="34.1251502" lon="8.087939"><ele>-16.0</ele><time>2026-04-30T10:12:42.672Z</time></trkpt><trkpt lat="34.1253283" lon="8.087816"><ele>-16.0</ele><time>2026-04-30T10:12:43.662Z</time></trkpt><trkpt lat="34.1255121" lon="8.0876856"><ele>-16.0</ele><time>2026-04-30T10:12:44.648Z</time></trkpt><trkpt lat="34.1256893" lon="8.0875588"><ele>-16.0</ele><time>2026-04-30T10:12:45.699Z</time></trkpt><trkpt lat="34.1258677" lon="8.0874291"><ele>-16.0</ele><time>2026-04-30T10:12:46.695Z</time></trkpt><trkpt lat="34.1260439" lon="8.0873012"><ele>-16.0</ele><time>2026-04-30T10:12:47.675Z</time></trkpt><trkpt lat="34.1262214" lon="8.0871753"><ele>-16.0</ele><time>2026-04-30T10:12:48.631Z</time></trkpt><trkpt lat="34.1263982" lon="8.0870468"><ele>-16.0</ele><time>2026-04-30T10:12:49.659Z</time></trkpt><trkpt lat="34.126577" lon="8.0869198"><ele>-16.0</ele><time>2026-04-30T10:12:50.673Z</time></trkpt><trkpt lat="34.1267551" lon="8.0867916"><ele>-16.0</ele><time>2026-04-30T10:12:51.641Z</time></trkpt><trkpt lat="34.1269358" lon="8.0866661"><ele>-16.0</ele><time>2026-04-30T10:12:52.637Z</time></trkpt><trkpt lat="34.1271139" lon="8.0865454"><ele>-16.0</ele><time>2026-04-30T10:12:53.645Z</time></trkpt><trkpt lat="34.1272908" lon="8.0864188"><ele>-16.0</ele><time>2026-04-30T10:12:54.642Z</time></trkpt><trkpt lat="34.1274698" lon="8.0862926"><ele>-16.0</ele><time>2026-04-30T10:12:55.634Z</time></trkpt><trkpt lat="34.1276475" lon="8.0861654"><ele>-16.333333333333332</ele><time>2026-04-30T10:12:56.655Z</time></trkpt><trkpt lat="34.1278224" lon="8.0860339"><ele>-16.666666666666668</ele><time>2026-04-30T10:12:57.64Z</time></trkpt><trkpt lat="34.1279971" lon="8.0858987"><ele>-17.0</ele><time>2026-04-30T10:12:58.635Z</time></trkpt><trkpt lat="34.1281673" lon="8.0857621"><ele>-17.333333333333336</ele><time>2026-04-30T10:12:59.646Z</time></trkpt><trkpt lat="34.1283369" lon="8.0856247"><ele>-17.666666666666668</ele><time>2026-04-30T10:13:00.645Z</time></trkpt><trkpt lat="34.1285086" lon="8.0854871"><ele>-18.0</ele><time>2026-04-30T10:13:01.635Z</time></trkpt><trkpt lat="34.128678" lon="8.0853478"><ele>-18.0</ele><time>2026-04-30T10:13:02.631Z</time></trkpt><trkpt lat="34.1288496" lon="8.0852077"><ele>-18.0</ele><time>2026-04-30T10:13:03.639Z</time></trkpt><trkpt lat="34.1290215" lon="8.0850704"><ele>-18.0</ele><time>2026-04-30T10:13:04.635Z</time></trkpt><trkpt lat="34.1291949" lon="8.0849317"><ele>-17.666666666666668</ele><time>2026-04-30T10:13:05.637Z</time></trkpt><trkpt lat="34.1293688" lon="8.0847894"><ele>-17.333333333333336</ele><time>2026-04-30T10:13:06.642Z</time></trkpt><trkpt lat="34.1295378" lon="8.0846506"><ele>-17.0</ele><time>2026-04-30T10:13:07.639Z</time></trkpt><trkpt lat="34.1297102" lon="8.08451"><ele>-17.0</ele><time>2026-04-30T10:13:08.641Z</time></trkpt><trkpt lat="34.1298807" lon="8.0843661"><ele>-17.0</ele><time>2026-04-30T10:13:09.645Z</time></trkpt><trkpt lat="34.1300518" lon="8.0842209"><ele>-17.0</ele><time>2026-04-30T10:13:10.648Z</time></trkpt><trkpt lat="34.1302211" lon="8.0840815"><ele>-17.0</ele><time>2026-04-30T10:13:11.64Z</time></trkpt><trkpt lat="34.1303912" lon="8.0839431"><ele>-17.0</ele><time>2026-04-30T10:13:12.663Z</time></trkpt><trkpt lat="34.1305641" lon="8.0838035"><ele>-17.0</ele><time>2026-04-30T10:13:13.641Z</time></trkpt><trkpt lat="34.1307374" lon="8.0836635"><ele>-17.333333333333336</ele><time>2026-04-30T10:13:14.651Z</time></trkpt><trkpt lat="34.130911" lon="8.0835291"><ele>-17.666666666666668</ele><time>2026-04-30T10:13:15.643Z</time></trkpt><trkpt lat="34.1310833" lon="8.0833925"><ele>-18.0</ele><time>2026-04-30T10:13:16.639Z</time></trkpt><trkpt lat="34.1312536" lon="8.0832515"><ele>-18.0</ele><time>2026-04-30T10:13:17.639Z</time></trkpt><trkpt lat="34.1314266" lon="8.0831054"><ele>-18.0</ele><time>2026-04-30T10:13:18.644Z</time></trkpt><trkpt lat="34.1315964" lon="8.0829626"><ele>-18.0</ele><time>2026-04-30T10:13:19.642Z</time></trkpt><trkpt lat="34.1317687" lon="8.0828217"><ele>-18.0</ele><time>2026-04-30T10:13:20.641Z</time></trkpt><trkpt lat="34.131946" lon="8.0826781"><ele>-18.0</ele><time>2026-04-30T10:13:21.64Z</time></trkpt><trkpt lat="34.132118" lon="8.0825383"><ele>-18.0</ele><time>2026-04-30T10:13:22.646Z</time></trkpt><trkpt lat="34.1322906" lon="8.0823938"><ele>-18.0</ele><time>2026-04-30T10:13:23.645Z</time></trkpt><trkpt lat="34.1324627" lon="8.0822512"><ele>-18.0</ele><time>2026-04-30T10:13:24.64Z</time></trkpt><trkpt lat="34.1326335" lon="8.082109"><ele>-18.0</ele><time>2026-04-30T10:13:25.644Z</time></trkpt><trkpt lat="34.1328041" lon="8.0819693"><ele>-18.0</ele><time>2026-04-30T10:13:26.64Z</time></trkpt><trkpt lat="34.1329759" lon="8.0818263"><ele>-18.0</ele><time>2026-04-30T10:13:27.641Z</time></trkpt><trkpt lat="34.1331479" lon="8.0816856"><ele>-18.0</ele><time>2026-04-30T10:13:28.671Z</time></trkpt><trkpt lat="34.1333188" lon="8.0815456"><ele>-18.333333333333332</ele><time>2026-04-30T10:13:29.638Z</time></trkpt><trkpt lat="34.1334913" lon="8.0814017"><ele>-18.666666666666664</ele><time>2026-04-30T10:13:30.642Z</time></trkpt><trkpt lat="34.1336665" lon="8.0812572"><ele>-19.0</ele><time>2026-04-30T10:13:31.64Z</time></trkpt><trkpt lat="34.1338406" lon="8.0811151"><ele>-19.0</ele><time>2026-04-30T10:13:32.643Z</time></trkpt><trkpt lat="34.1340131" lon="8.0809732"><ele>-19.0</ele><time>2026-04-30T10:13:33.637Z</time></trkpt><trkpt lat="34.1341873" lon="8.0808343"><ele>-19.0</ele><time>2026-04-30T10:13:34.641Z</time></trkpt><trkpt lat="34.1343564" lon="8.0806943"><ele>-19.0</ele><time>2026-04-30T10:13:35.642Z</time></trkpt><trkpt lat="34.1345279" lon="8.0805544"><ele>-19.0</ele><time>2026-04-30T10:13:36.634Z</time></trkpt><trkpt lat="34.1347001" lon="8.0804079"><ele>-19.0</ele><time>2026-04-30T10:13:37.635Z</time></trkpt><trkpt lat="34.1348711" lon="8.0802676"><ele>-19.0</ele><time>2026-04-30T10:13:38.642Z</time></trkpt><trkpt lat="34.135045" lon="8.0801263"><ele>-19.0</ele><time>2026-04-30T10:13:39.639Z</time></trkpt><trkpt lat="34.1352211" lon="8.0799904"><ele>-19.0</ele><time>2026-04-30T10:13:40.64Z</time></trkpt><trkpt lat="34.1353989" lon="8.0798536"><ele>-19.0</ele><time>2026-04-30T10:13:41.644Z</time></trkpt><trkpt lat="34.1355774" lon="8.0797228"><ele>-19.0</ele><time>2026-04-30T10:13:42.642Z</time></trkpt><trkpt lat="34.135757" lon="8.0795952"><ele>-19.0</ele><time>2026-04-30T10:13:43.647Z</time></trkpt><trkpt lat="34.1359366" lon="8.0794763"><ele>-19.0</ele><time>2026-04-30T10:13:44.651Z</time></trkpt><trkpt lat="34.1361251" lon="8.0793533"><ele>-19.0</ele><time>2026-04-30T10:13:45.646Z</time></trkpt><trkpt lat="34.1363065" lon="8.0792288"><ele>-19.0</ele><time>2026-04-30T10:13:46.64Z</time></trkpt><trkpt lat="34.1364893" lon="8.0791064"><ele>-19.0</ele><time>2026-04-30T10:13:47.648Z</time></trkpt><trkpt lat="34.1366745" lon="8.0789964"><ele>-19.0</ele><time>2026-04-30T10:13:48.638Z</time></trkpt><trkpt lat="34.1368604" lon="8.0788902"><ele>-19.0</ele><time>2026-04-30T10:13:49.641Z</time></trkpt><trkpt lat="34.1370464" lon="8.0787848"><ele>-19.0</ele><time>2026-04-30T10:13:50.642Z</time></trkpt><trkpt lat="34.1372304" lon="8.0786644"><ele>-19.0</ele><time>2026-04-30T10:13:51.637Z</time></trkpt><trkpt lat="34.137414" lon="8.0785467"><ele>-19.0</ele><time>2026-04-30T10:13:52.641Z</time></trkpt><trkpt lat="34.1376005" lon="8.0784313"><ele>-19.0</ele><time>2026-04-30T10:13:53.64Z</time></trkpt><trkpt lat="34.1377869" lon="8.0783137"><ele>-19.0</ele><time>2026-04-30T10:13:54.636Z</time></trkpt><trkpt lat="34.1379716" lon="8.0781971"><ele>-19.0</ele><time>2026-04-30T10:13:55.637Z</time></trkpt><trkpt lat="34.1381533" lon="8.0780788"><ele>-19.0</ele><time>2026-04-30T10:13:56.638Z</time></trkpt><trkpt lat="34.1383379" lon="8.0779629"><ele>-19.0</ele><time>2026-04-30T10:13:57.639Z</time></trkpt><trkpt lat="34.1385224" lon="8.0778459"><ele>-19.0</ele><time>2026-04-30T10:13:58.637Z</time></trkpt><trkpt lat="34.1387082" lon="8.0777303"><ele>-19.0</ele><time>2026-04-30T10:13:59.65Z</time></trkpt><trkpt lat="34.1388924" lon="8.0776089"><ele>-19.0</ele><time>2026-04-30T10:14:00.646Z</time></trkpt><trkpt lat="34.1390778" lon="8.0774876"><ele>-19.0</ele><time>2026-04-30T10:14:01.643Z</time></trkpt><trkpt lat="34.1392596" lon="8.0773667"><ele>-19.666666666666664</ele><time>2026-04-30T10:14:02.637Z</time></trkpt><trkpt lat="34.1394425" lon="8.0772497"><ele>-20.333333333333332</ele><time>2026-04-30T10:14:03.639Z</time></trkpt><trkpt lat="34.1396267" lon="8.0771383"><ele>-21.0</ele><time>2026-04-30T10:14:04.636Z</time></trkpt><trkpt lat="34.1398111" lon="8.0770171"><ele>-20.666666666666668</ele><time>2026-04-30T10:14:05.635Z</time></trkpt><trkpt lat="34.1399963" lon="8.0768945"><ele>-20.333333333333336</ele><time>2026-04-30T10:14:06.636Z</time></trkpt><trkpt lat="34.1401832" lon="8.0767695"><ele>-20.0</ele><time>2026-04-30T10:14:07.641Z</time></trkpt><trkpt lat="34.1403666" lon="8.0766459"><ele>-20.333333333333336</ele><time>2026-04-30T10:14:08.635Z</time></trkpt><trkpt lat="34.1405498" lon="8.0765271"><ele>-20.666666666666668</ele><time>2026-04-30T10:14:09.638Z</time></trkpt><trkpt lat="34.1407348" lon="8.0764124"><ele>-21.0</ele><time>2026-04-30T10:14:10.644Z</time></trkpt><trkpt lat="34.1409162" lon="8.0762999"><ele>-20.0</ele><time>2026-04-30T10:14:11.632Z</time></trkpt><trkpt lat="34.1410942" lon="8.0761851"><ele>-19.0</ele><time>2026-04-30T10:14:12.653Z</time></trkpt><trkpt lat="34.141278" lon="8.0760681"><ele>-18.0</ele><time>2026-04-30T10:14:13.658Z</time></trkpt><trkpt lat="34.1414637" lon="8.0759511"><ele>-18.0</ele><time>2026-04-30T10:14:14.636Z</time></trkpt><trkpt lat="34.1416526" lon="8.0758394"><ele>-18.0</ele><time>2026-04-30T10:14:15.642Z</time></trkpt><trkpt lat="34.1418447" lon="8.0757318"><ele>-18.0</ele><time>2026-04-30T10:14:16.638Z</time></trkpt><trkpt lat="34.1420339" lon="8.0756226"><ele>-18.333333333333332</ele><time>2026-04-30T10:14:17.648Z</time></trkpt><trkpt lat="34.1422216" lon="8.0755139"><ele>-18.666666666666664</ele><time>2026-04-30T10:14:18.637Z</time></trkpt><trkpt lat="34.1424099" lon="8.0754076"><ele>-19.0</ele><time>2026-04-30T10:14:19.639Z</time></trkpt><trkpt lat="34.1426017" lon="8.0753058"><ele>-19.0</ele><time>2026-04-30T10:14:20.638Z</time></trkpt><trkpt lat="34.1427931" lon="8.0752019"><ele>-19.0</ele><time>2026-04-30T10:14:21.646Z</time></trkpt><trkpt lat="34.142985" lon="8.0750972"><ele>-19.0</ele><time>2026-04-30T10:14:22.64Z</time></trkpt><trkpt lat="34.1431718" lon="8.0749942"><ele>-19.333333333333332</ele><time>2026-04-30T10:14:23.641Z</time></trkpt><trkpt lat="34.14336" lon="8.0748923"><ele>-19.666666666666668</ele><time>2026-04-30T10:14:24.633Z</time></trkpt><trkpt lat="34.1435504" lon="8.0747892"><ele>-20.0</ele><time>2026-04-30T10:14:25.646Z</time></trkpt><trkpt lat="34.1437431" lon="8.0746855"><ele>-20.0</ele><time>2026-04-30T10:14:26.64Z</time></trkpt><trkpt lat="34.1439339" lon="8.0745833"><ele>-20.0</ele><time>2026-04-30T10:14:27.647Z</time></trkpt><trkpt lat="34.1441268" lon="8.0744742"><ele>-20.0</ele><time>2026-04-30T10:14:28.635Z</time></trkpt><trkpt lat="34.144316" lon="8.0743644"><ele>-20.0</ele><time>2026-04-30T10:14:29.632Z</time></trkpt><trkpt lat="34.144505" lon="8.0742592"><ele>-20.0</ele><time>2026-04-30T10:14:30.656Z</time></trkpt><trkpt lat="34.1446903" lon="8.0741539"><ele>-20.0</ele><time>2026-04-30T10:14:31.644Z</time></trkpt><trkpt lat="34.1448762" lon="8.0740544"><ele>-19.333333333333336</ele><time>2026-04-30T10:14:32.644Z</time></trkpt><trkpt lat="34.1450651" lon="8.0739506"><ele>-18.666666666666668</ele><time>2026-04-30T10:14:33.635Z</time></trkpt><trkpt lat="34.1452523" lon="8.0738422"><ele>-18.0</ele><time>2026-04-30T10:14:34.637Z</time></trkpt><trkpt lat="34.1454443" lon="8.0737318"><ele>-18.0</ele><time>2026-04-30T10:14:35.702Z</time></trkpt><trkpt lat="34.1456372" lon="8.0736236"><ele>-18.0</ele><time>2026-04-30T10:14:36.643Z</time></trkpt><trkpt lat="34.1458277" lon="8.0735218"><ele>-18.0</ele><time>2026-04-30T10:14:37.63Z</time></trkpt><trkpt lat="34.1460146" lon="8.0734188"><ele>-18.333333333333332</ele><time>2026-04-30T10:14:38.643Z</time></trkpt><trkpt lat="34.1462065" lon="8.0733177"><ele>-18.666666666666664</ele><time>2026-04-30T10:14:39.646Z</time></trkpt><trkpt lat="34.1463987" lon="8.0732116"><ele>-19.0</ele><time>2026-04-30T10:14:40.644Z</time></trkpt><trkpt lat="34.1465906" lon="8.0731061"><ele>-20.0</ele><time>2026-04-30T10:14:41.641Z</time></trkpt><trkpt lat="34.146782" lon="8.0730028"><ele>-21.0</ele><time>2026-04-30T10:14:42.644Z</time></trkpt><trkpt lat="34.1469711" lon="8.0728988"><ele>-22.0</ele><time>2026-04-30T10:14:43.666Z</time></trkpt><trkpt lat="34.14716" lon="8.0727985"><ele>-22.0</ele><time>2026-04-30T10:14:44.638Z</time></trkpt><trkpt lat="34.1473477" lon="8.072695"><ele>-22.0</ele><time>2026-04-30T10:14:45.641Z</time></trkpt><trkpt lat="34.1475317" lon="8.0725934"><ele>-22.0</ele><time>2026-04-30T10:14:46.64Z</time></trkpt><trkpt lat="34.1477224" lon="8.0724866"><ele>-22.0</ele><time>2026-04-30T10:14:47.631Z</time></trkpt><trkpt lat="34.1479138" lon="8.0723768"><ele>-22.0</ele><time>2026-04-30T10:14:48.64Z</time></trkpt><trkpt lat="34.1481045" lon="8.0722699"><ele>-22.0</ele><time>2026-04-30T10:14:49.639Z</time></trkpt><trkpt lat="34.1482969" lon="8.0721643"><ele>-21.333333333333332</ele><time>2026-04-30T10:14:50.639Z</time></trkpt><trkpt lat="34.1484812" lon="8.0720591"><ele>-20.666666666666668</ele><time>2026-04-30T10:14:51.633Z</time></trkpt><trkpt lat="34.1486723" lon="8.0719552"><ele>-20.0</ele><time>2026-04-30T10:14:52.634Z</time></trkpt><trkpt lat="34.148862" lon="8.0718528"><ele>-20.0</ele><time>2026-04-30T10:14:53.64Z</time></trkpt><trkpt lat="34.1490508" lon="8.0717443"><ele>-20.0</ele><time>2026-04-30T10:14:54.646Z</time></trkpt><trkpt lat="34.1492389" lon="8.0716393"><ele>-20.0</ele><time>2026-04-30T10:14:55.635Z</time></trkpt><trkpt lat="34.1494298" lon="8.0715398"><ele>-20.0</ele><time>2026-04-30T10:14:56.646Z</time></trkpt><trkpt lat="34.1496173" lon="8.0714386"><ele>-20.0</ele><time>2026-04-30T10:14:57.642Z</time></trkpt><trkpt lat="34.1498055" lon="8.0713385"><ele>-20.0</ele><time>2026-04-30T10:14:58.686Z</time></trkpt><trkpt lat="34.1500006" lon="8.0712387"><ele>-20.0</ele><time>2026-04-30T10:14:59.696Z</time></trkpt><trkpt lat="34.1501938" lon="8.0711435"><ele>-20.0</ele><time>2026-04-30T10:15:00.676Z</time></trkpt><trkpt lat="34.1503877" lon="8.0710513"><ele>-20.0</ele><time>2026-04-30T10:15:01.631Z</time></trkpt><trkpt lat="34.1505812" lon="8.07096"><ele>-20.0</ele><time>2026-04-30T10:15:02.636Z</time></trkpt><trkpt lat="34.1507719" lon="8.0708616"><ele>-20.0</ele><time>2026-04-30T10:15:03.635Z</time></trkpt><trkpt lat="34.1509637" lon="8.0707648"><ele>-20.0</ele><time>2026-04-30T10:15:04.641Z</time></trkpt><trkpt lat="34.1511522" lon="8.0706633"><ele>-20.0</ele><time>2026-04-30T10:15:05.645Z</time></trkpt><trkpt lat="34.1513383" lon="8.0705577"><ele>-20.0</ele><time>2026-04-30T10:15:06.638Z</time></trkpt><trkpt lat="34.151525" lon="8.0704532"><ele>-20.0</ele><time>2026-04-30T10:15:07.635Z</time></trkpt><trkpt lat="34.1517137" lon="8.070334"><ele>-20.0</ele><time>2026-04-30T10:15:08.638Z</time></trkpt><trkpt lat="34.1518964" lon="8.0702179"><ele>-20.0</ele><time>2026-04-30T10:15:09.638Z</time></trkpt><trkpt lat="34.1520816" lon="8.0701031"><ele>-20.0</ele><time>2026-04-30T10:15:10.633Z</time></trkpt><trkpt lat="34.1522693" lon="8.0699866"><ele>-20.0</ele><time>2026-04-30T10:15:11.633Z</time></trkpt><trkpt lat="34.1524585" lon="8.0698717"><ele>-20.0</ele><time>2026-04-30T10:15:12.65Z</time></trkpt><trkpt lat="34.1526457" lon="8.0697541"><ele>-20.0</ele><time>2026-04-30T10:15:13.646Z</time></trkpt><trkpt lat="34.1528318" lon="8.069636"><ele>-20.0</ele><time>2026-04-30T10:15:14.641Z</time></trkpt><trkpt lat="34.1530143" lon="8.06952"><ele>-20.0</ele><time>2026-04-30T10:15:15.644Z</time></trkpt><trkpt lat="34.1531976" lon="8.0694025"><ele>-20.0</ele><time>2026-04-30T10:15:16.649Z</time></trkpt><trkpt lat="34.153381" lon="8.0692884"><ele>-20.333333333333336</ele><time>2026-04-30T10:15:17.646Z</time></trkpt><trkpt lat="34.1535704" lon="8.0691674"><ele>-20.666666666666668</ele><time>2026-04-30T10:15:18.64Z</time></trkpt><trkpt lat="34.1537563" lon="8.0690475"><ele>-21.0</ele><time>2026-04-30T10:15:19.629Z</time></trkpt><trkpt lat="34.1539421" lon="8.0689321"><ele>-21.0</ele><time>2026-04-30T10:15:20.64Z</time></trkpt><trkpt lat="34.1541305" lon="8.0688163"><ele>-21.0</ele><time>2026-04-30T10:15:21.638Z</time></trkpt><trkpt lat="34.1543147" lon="8.0687036"><ele>-21.0</ele><time>2026-04-30T10:15:22.64Z</time></trkpt><trkpt lat="34.154501" lon="8.0685896"><ele>-21.0</ele><time>2026-04-30T10:15:23.639Z</time></trkpt><trkpt lat="34.1546871" lon="8.0684746"><ele>-21.0</ele><time>2026-04-30T10:15:24.639Z</time></trkpt><trkpt lat="34.1548743" lon="8.0683636"><ele>-21.0</ele><time>2026-04-30T10:15:25.643Z</time></trkpt><trkpt lat="34.1550641" lon="8.0682505"><ele>-20.333333333333332</ele><time>2026-04-30T10:15:26.638Z</time></trkpt><trkpt lat="34.1552496" lon="8.0681369"><ele>-19.666666666666664</ele><time>2026-04-30T10:15:27.638Z</time></trkpt><trkpt lat="34.1554393" lon="8.0680242"><ele>-19.0</ele><time>2026-04-30T10:15:28.657Z</time></trkpt><trkpt lat="34.1556262" lon="8.0679081"><ele>-19.333333333333332</ele><time>2026-04-30T10:15:29.635Z</time></trkpt><trkpt lat="34.1558134" lon="8.0677954"><ele>-19.666666666666668</ele><time>2026-04-30T10:15:30.644Z</time></trkpt><trkpt lat="34.1560018" lon="8.0676831"><ele>-20.0</ele><time>2026-04-30T10:15:31.645Z</time></trkpt><trkpt lat="34.1561899" lon="8.0675732"><ele>-20.0</ele><time>2026-04-30T10:15:32.628Z</time></trkpt><trkpt lat="34.1563766" lon="8.0674577"><ele>-20.0</ele><time>2026-04-30T10:15:33.649Z</time></trkpt><trkpt lat="34.156562" lon="8.0673442"><ele>-20.0</ele><time>2026-04-30T10:15:34.633Z</time></trkpt><trkpt lat="34.1567464" lon="8.0672259"><ele>-20.333333333333336</ele><time>2026-04-30T10:15:35.637Z</time></trkpt><trkpt lat="34.1569325" lon="8.0671154"><ele>-20.666666666666668</ele><time>2026-04-30T10:15:36.641Z</time></trkpt><trkpt lat="34.1571206" lon="8.0670049"><ele>-21.0</ele><time>2026-04-30T10:15:37.642Z</time></trkpt><trkpt lat="34.1573092" lon="8.0668964"><ele>-21.0</ele><time>2026-04-30T10:15:38.632Z</time></trkpt><trkpt lat="34.1574955" lon="8.0667802"><ele>-21.0</ele><time>2026-04-30T10:15:39.67Z</time></trkpt><trkpt lat="34.1576785" lon="8.0666604"><ele>-21.0</ele><time>2026-04-30T10:15:40.632Z</time></trkpt><trkpt lat="34.1578593" lon="8.0665429"><ele>-21.0</ele><time>2026-04-30T10:15:41.646Z</time></trkpt><trkpt lat="34.1580431" lon="8.0664224"><ele>-21.0</ele><time>2026-04-30T10:15:42.635Z</time></trkpt><trkpt lat="34.158228" lon="8.0663016"><ele>-21.0</ele><time>2026-04-30T10:15:43.647Z</time></trkpt><trkpt lat="34.1584124" lon="8.0661788"><ele>-21.0</ele><time>2026-04-30T10:15:44.634Z</time></trkpt><trkpt lat="34.1586006" lon="8.0660534"><ele>-21.0</ele><time>2026-04-30T10:15:45.636Z</time></trkpt><trkpt lat="34.1587935" lon="8.0659281"><ele>-21.0</ele><time>2026-04-30T10:15:46.648Z</time></trkpt><trkpt lat="34.158983" lon="8.0657993"><ele>-20.333333333333332</ele><time>2026-04-30T10:15:47.627Z</time></trkpt><trkpt lat="34.1591673" lon="8.0656689"><ele>-19.666666666666664</ele><time>2026-04-30T10:15:48.673Z</time></trkpt><trkpt lat="34.1593532" lon="8.0655412"><ele>-19.0</ele><time>2026-04-30T10:15:49.626Z</time></trkpt><trkpt lat="34.159538" lon="8.0654156"><ele>-19.0</ele><time>2026-04-30T10:15:50.63Z</time></trkpt><trkpt lat="34.1597244" lon="8.0652881"><ele>-19.0</ele><time>2026-04-30T10:15:51.676Z</time></trkpt><trkpt lat="34.1599091" lon="8.0651572"><ele>-19.0</ele><time>2026-04-30T10:15:52.623Z</time></trkpt><trkpt lat="34.1602839" lon="8.0649025"><ele>-19.0</ele><time>2026-04-30T10:15:54.69Z</time></trkpt><trkpt lat="34.1604721" lon="8.0647745"><ele>-19.0</ele><time>2026-04-30T10:15:55.686Z</time></trkpt><trkpt lat="34.1608379" lon="8.0645152"><ele>-20.0</ele><time>2026-04-30T10:15:57.617Z</time></trkpt><trkpt lat="34.161021" lon="8.0643873"><ele>-21.0</ele><time>2026-04-30T10:15:58.624Z</time></trkpt><trkpt lat="34.161203" lon="8.0642538"><ele>-22.0</ele><time>2026-04-30T10:15:59.646Z</time></trkpt><trkpt lat="34.1613761" lon="8.0641197"><ele>-21.333333333333332</ele><time>2026-04-30T10:16:00.637Z</time></trkpt><trkpt lat="34.1615576" lon="8.0639853"><ele>-20.666666666666668</ele><time>2026-04-30T10:16:01.632Z</time></trkpt><trkpt lat="34.16174" lon="8.0638571"><ele>-20.0</ele><time>2026-04-30T10:16:02.636Z</time></trkpt><trkpt lat="34.1619255" lon="8.0637201"><ele>-20.0</ele><time>2026-04-30T10:16:03.629Z</time></trkpt><trkpt lat="34.1621088" lon="8.0635904"><ele>-20.0</ele><time>2026-04-30T10:16:04.635Z</time></trkpt><trkpt lat="34.1622929" lon="8.0634557"><ele>-20.0</ele><time>2026-04-30T10:16:05.638Z</time></trkpt><trkpt lat="34.1624757" lon="8.0633211"><ele>-19.666666666666668</ele><time>2026-04-30T10:16:06.662Z</time></trkpt><trkpt lat="34.1626625" lon="8.0631838"><ele>-19.333333333333332</ele><time>2026-04-30T10:16:07.637Z</time></trkpt><trkpt lat="34.1628462" lon="8.06305"><ele>-19.0</ele><time>2026-04-30T10:16:08.622Z</time></trkpt><trkpt lat="34.1630296" lon="8.0629093"><ele>-19.333333333333332</ele><time>2026-04-30T10:16:09.626Z</time></trkpt><trkpt lat="34.1632059" lon="8.062768"><ele>-19.666666666666668</ele><time>2026-04-30T10:16:10.673Z</time></trkpt><trkpt lat="34.1633825" lon="8.0626195"><ele>-20.0</ele><time>2026-04-30T10:16:11.637Z</time></trkpt><trkpt lat="34.1635577" lon="8.0624777"><ele>-19.666666666666668</ele><time>2026-04-30T10:16:12.662Z</time></trkpt><trkpt lat="34.1637356" lon="8.0623359"><ele>-19.333333333333332</ele><time>2026-04-30T10:16:13.651Z</time></trkpt><trkpt lat="34.1639112" lon="8.0621929"><ele>-19.0</ele><time>2026-04-30T10:16:14.652Z</time></trkpt><trkpt lat="34.1640876" lon="8.0620483"><ele>-19.0</ele><time>2026-04-30T10:16:15.659Z</time></trkpt><trkpt lat="34.1642609" lon="8.0619"><ele>-19.0</ele><time>2026-04-30T10:16:16.646Z</time></trkpt><trkpt lat="34.1644344" lon="8.061754"><ele>-19.0</ele><time>2026-04-30T10:16:17.653Z</time></trkpt><trkpt lat="34.1646092" lon="8.0616054"><ele>-19.333333333333332</ele><time>2026-04-30T10:16:18.66Z</time></trkpt><trkpt lat="34.1647843" lon="8.0614572"><ele>-19.666666666666668</ele><time>2026-04-30T10:16:19.655Z</time></trkpt><trkpt lat="34.1649592" lon="8.0613077"><ele>-20.0</ele><time>2026-04-30T10:16:20.665Z</time></trkpt><trkpt lat="34.1651347" lon="8.0611559"><ele>-20.0</ele><time>2026-04-30T10:16:21.668Z</time></trkpt><trkpt lat="34.1653102" lon="8.0610077"><ele>-20.0</ele><time>2026-04-30T10:16:22.641Z</time></trkpt><trkpt lat="34.1654857" lon="8.0608592"><ele>-20.0</ele><time>2026-04-30T10:16:23.647Z</time></trkpt><trkpt lat="34.1656656" lon="8.0607067"><ele>-19.666666666666668</ele><time>2026-04-30T10:16:24.65Z</time></trkpt><trkpt lat="34.1658381" lon="8.0605617"><ele>-19.333333333333332</ele><time>2026-04-30T10:16:25.676Z</time></trkpt><trkpt lat="34.1660086" lon="8.0604118"><ele>-19.0</ele><time>2026-04-30T10:16:26.655Z</time></trkpt><trkpt lat="34.166182" lon="8.0602667"><ele>-19.0</ele><time>2026-04-30T10:16:27.671Z</time></trkpt><trkpt lat="34.1663548" lon="8.060118"><ele>-19.0</ele><time>2026-04-30T10:16:28.66Z</time></trkpt><trkpt lat="34.1665236" lon="8.0599686"><ele>-19.0</ele><time>2026-04-30T10:16:29.671Z</time></trkpt><trkpt lat="34.1666977" lon="8.0598109"><ele>-19.333333333333332</ele><time>2026-04-30T10:16:30.664Z</time></trkpt><trkpt lat="34.1668685" lon="8.0596569"><ele>-19.666666666666668</ele><time>2026-04-30T10:16:31.645Z</time></trkpt><trkpt lat="34.1670423" lon="8.0595052"><ele>-20.0</ele><time>2026-04-30T10:16:32.639Z</time></trkpt><trkpt lat="34.1672194" lon="8.0593571"><ele>-20.0</ele><time>2026-04-30T10:16:33.662Z</time></trkpt><trkpt lat="34.1673972" lon="8.05921"><ele>-20.0</ele><time>2026-04-30T10:16:34.649Z</time></trkpt><trkpt lat="34.1675734" lon="8.0590654"><ele>-20.0</ele><time>2026-04-30T10:16:35.664Z</time></trkpt><trkpt lat="34.1677523" lon="8.0589209"><ele>-20.0</ele><time>2026-04-30T10:16:36.658Z</time></trkpt><trkpt lat="34.1679313" lon="8.0587728"><ele>-20.0</ele><time>2026-04-30T10:16:37.632Z</time></trkpt><trkpt lat="34.1681065" lon="8.0586274"><ele>-20.0</ele><time>2026-04-30T10:16:38.649Z</time></trkpt><trkpt lat="34.1682796" lon="8.0584806"><ele>-20.0</ele><time>2026-04-30T10:16:39.654Z</time></trkpt><trkpt lat="34.1684526" lon="8.0583297"><ele>-20.0</ele><time>2026-04-30T10:16:40.66Z</time></trkpt><trkpt lat="34.1686249" lon="8.0581792"><ele>-20.0</ele><time>2026-04-30T10:16:41.653Z</time></trkpt><trkpt lat="34.1687992" lon="8.0580299"><ele>-20.0</ele><time>2026-04-30T10:16:42.66Z</time></trkpt><trkpt lat="34.1689727" lon="8.0578812"><ele>-20.0</ele><time>2026-04-30T10:16:43.669Z</time></trkpt><trkpt lat="34.169143" lon="8.0577294"><ele>-20.0</ele><time>2026-04-30T10:16:44.645Z</time></trkpt><trkpt lat="34.1693205" lon="8.0575809"><ele>-19.666666666666668</ele><time>2026-04-30T10:16:45.667Z</time></trkpt><trkpt lat="34.1694933" lon="8.0574318"><ele>-19.333333333333332</ele><time>2026-04-30T10:16:46.642Z</time></trkpt><trkpt lat="34.1696636" lon="8.0572831"><ele>-19.0</ele><time>2026-04-30T10:16:47.673Z</time></trkpt><trkpt lat="34.1698385" lon="8.0571366"><ele>-19.0</ele><time>2026-04-30T10:16:48.653Z</time></trkpt><trkpt lat="34.1700185" lon="8.056985"><ele>-19.0</ele><time>2026-04-30T10:16:49.664Z</time></trkpt><trkpt lat="34.1701954" lon="8.0568406"><ele>-19.0</ele><time>2026-04-30T10:16:50.648Z</time></trkpt><trkpt lat="34.1703754" lon="8.0566924"><ele>-19.0</ele><time>2026-04-30T10:16:51.658Z</time></trkpt><trkpt lat="34.170554" lon="8.0565477"><ele>-19.0</ele><time>2026-04-30T10:16:52.65Z</time></trkpt><trkpt lat="34.1707356" lon="8.0564031"><ele>-19.0</ele><time>2026-04-30T10:16:53.677Z</time></trkpt><trkpt lat="34.1709121" lon="8.0562582"><ele>-19.0</ele><time>2026-04-30T10:16:54.67Z</time></trkpt><trkpt lat="34.1710859" lon="8.0561152"><ele>-19.0</ele><time>2026-04-30T10:16:55.656Z</time></trkpt><trkpt lat="34.1712645" lon="8.0559661"><ele>-19.0</ele><time>2026-04-30T10:16:56.655Z</time></trkpt><trkpt lat="34.1714382" lon="8.0558156"><ele>-18.333333333333332</ele><time>2026-04-30T10:16:57.659Z</time></trkpt><trkpt lat="34.1716152" lon="8.0556647"><ele>-17.666666666666668</ele><time>2026-04-30T10:16:58.659Z</time></trkpt><trkpt lat="34.171789" lon="8.0555161"><ele>-17.0</ele><time>2026-04-30T10:16:59.655Z</time></trkpt><trkpt lat="34.1719683" lon="8.0553704"><ele>-17.0</ele><time>2026-04-30T10:17:00.695Z</time></trkpt><trkpt lat="34.1721435" lon="8.0552217"><ele>-17.0</ele><time>2026-04-30T10:17:01.675Z</time></trkpt><trkpt lat="34.1723176" lon="8.0550733"><ele>-17.0</ele><time>2026-04-30T10:17:02.644Z</time></trkpt><trkpt lat="34.1724909" lon="8.054925"><ele>-17.333333333333336</ele><time>2026-04-30T10:17:03.639Z</time></trkpt><trkpt lat="34.1726666" lon="8.0547811"><ele>-17.666666666666668</ele><time>2026-04-30T10:17:04.643Z</time></trkpt><trkpt lat="34.172839" lon="8.0546282"><ele>-18.0</ele><time>2026-04-30T10:17:05.643Z</time></trkpt><trkpt lat="34.1730115" lon="8.0544764"><ele>-18.0</ele><time>2026-04-30T10:17:06.664Z</time></trkpt><trkpt lat="34.1731846" lon="8.0543276"><ele>-18.0</ele><time>2026-04-30T10:17:07.647Z</time></trkpt><trkpt lat="34.1733613" lon="8.0541772"><ele>-18.0</ele><time>2026-04-30T10:17:08.671Z</time></trkpt><trkpt lat="34.1735362" lon="8.0540308"><ele>-18.333333333333332</ele><time>2026-04-30T10:17:09.657Z</time></trkpt><trkpt lat="34.1737133" lon="8.0538789"><ele>-18.666666666666664</ele><time>2026-04-30T10:17:10.656Z</time></trkpt><trkpt lat="34.1738889" lon="8.0537301"><ele>-19.0</ele><time>2026-04-30T10:17:11.651Z</time></trkpt><trkpt lat="34.174064" lon="8.0535788"><ele>-19.0</ele><time>2026-04-30T10:17:12.662Z</time></trkpt><trkpt lat="34.1742401" lon="8.0534303"><ele>-19.0</ele><time>2026-04-30T10:17:13.658Z</time></trkpt><trkpt lat="34.1744149" lon="8.05328"><ele>-19.0</ele><time>2026-04-30T10:17:14.657Z</time></trkpt><trkpt lat="34.1745915" lon="8.0531327"><ele>-19.0</ele><time>2026-04-30T10:17:15.659Z</time></trkpt><trkpt lat="34.1747689" lon="8.0529849"><ele>-19.0</ele><time>2026-04-30T10:17:16.659Z</time></trkpt><trkpt lat="34.1749456" lon="8.0528361"><ele>-19.0</ele><time>2026-04-30T10:17:17.669Z</time></trkpt><trkpt lat="34.1751159" lon="8.0526862"><ele>-19.0</ele><time>2026-04-30T10:17:18.65Z</time></trkpt><trkpt lat="34.1752908" lon="8.0525352"><ele>-19.0</ele><time>2026-04-30T10:17:19.646Z</time></trkpt><trkpt lat="34.1754641" lon="8.0523857"><ele>-19.0</ele><time>2026-04-30T10:17:20.666Z</time></trkpt><trkpt lat="34.1756401" lon="8.052241"><ele>-18.333333333333332</ele><time>2026-04-30T10:17:21.659Z</time></trkpt><trkpt lat="34.1758109" lon="8.0520921"><ele>-17.666666666666668</ele><time>2026-04-30T10:17:22.66Z</time></trkpt><trkpt lat="34.1759816" lon="8.0519459"><ele>-17.0</ele><time>2026-04-30T10:17:23.663Z</time></trkpt><trkpt lat="34.1761546" lon="8.0517975"><ele>-17.0</ele><time>2026-04-30T10:17:24.657Z</time></trkpt><trkpt lat="34.1763282" lon="8.0516481"><ele>-17.0</ele><time>2026-04-30T10:17:25.664Z</time></trkpt><trkpt lat="34.1765037" lon="8.0514953"><ele>-17.0</ele><time>2026-04-30T10:17:26.666Z</time></trkpt><trkpt lat="34.1766803" lon="8.0513467"><ele>-17.333333333333336</ele><time>2026-04-30T10:17:27.642Z</time></trkpt><trkpt lat="34.1768538" lon="8.051199"><ele>-17.666666666666668</ele><time>2026-04-30T10:17:28.65Z</time></trkpt><trkpt lat="34.1770286" lon="8.0510505"><ele>-18.0</ele><time>2026-04-30T10:17:29.637Z</time></trkpt><trkpt lat="34.1772072" lon="8.0509042"><ele>-18.0</ele><time>2026-04-30T10:17:30.649Z</time></trkpt><trkpt lat="34.1773832" lon="8.050755"><ele>-18.0</ele><time>2026-04-30T10:17:31.662Z</time></trkpt><trkpt lat="34.1775581" lon="8.0506057"><ele>-18.0</ele><time>2026-04-30T10:17:32.654Z</time></trkpt><trkpt lat="34.1777296" lon="8.0504569"><ele>-18.0</ele><time>2026-04-30T10:17:33.668Z</time></trkpt><trkpt lat="34.1779047" lon="8.0503114"><ele>-18.0</ele><time>2026-04-30T10:17:34.651Z</time></trkpt><trkpt lat="34.1780816" lon="8.0501667"><ele>-18.0</ele><time>2026-04-30T10:17:35.658Z</time></trkpt><trkpt lat="34.1782592" lon="8.0500184"><ele>-17.0</ele><time>2026-04-30T10:17:36.653Z</time></trkpt><trkpt lat="34.1784376" lon="8.0498733"><ele>-16.0</ele><time>2026-04-30T10:17:37.67Z</time></trkpt><trkpt lat="34.1786139" lon="8.0497267"><ele>-15.0</ele><time>2026-04-30T10:17:38.658Z</time></trkpt><trkpt lat="34.1787915" lon="8.0495815"><ele>-15.0</ele><time>2026-04-30T10:17:39.671Z</time></trkpt><trkpt lat="34.1789685" lon="8.0494364"><ele>-15.0</ele><time>2026-04-30T10:17:40.653Z</time></trkpt><trkpt lat="34.1791468" lon="8.0492931"><ele>-15.0</ele><time>2026-04-30T10:17:41.66Z</time></trkpt><trkpt lat="34.1793243" lon="8.0491482"><ele>-15.0</ele><time>2026-04-30T10:17:42.653Z</time></trkpt><trkpt lat="34.1794997" lon="8.0490054"><ele>-15.0</ele><time>2026-04-30T10:17:43.66Z</time></trkpt><trkpt lat="34.1796774" lon="8.0488583"><ele>-15.0</ele><time>2026-04-30T10:17:44.679Z</time></trkpt><trkpt lat="34.1798548" lon="8.0487151"><ele>-15.0</ele><time>2026-04-30T10:17:45.667Z</time></trkpt><trkpt lat="34.1800389" lon="8.0485729"><ele>-15.0</ele><time>2026-04-30T10:17:46.659Z</time></trkpt><trkpt lat="34.1802193" lon="8.04843"><ele>-15.0</ele><time>2026-04-30T10:17:47.655Z</time></trkpt><trkpt lat="34.180393" lon="8.0482923"><ele>-15.333333333333332</ele><time>2026-04-30T10:17:48.666Z</time></trkpt><trkpt lat="34.1805717" lon="8.0481541"><ele>-15.666666666666666</ele><time>2026-04-30T10:17:49.669Z</time></trkpt><trkpt lat="34.1807472" lon="8.0480084"><ele>-16.0</ele><time>2026-04-30T10:17:50.66Z</time></trkpt><trkpt lat="34.1809276" lon="8.0478636"><ele>-16.0</ele><time>2026-04-30T10:17:51.651Z</time></trkpt><trkpt lat="34.1811067" lon="8.0477153"><ele>-16.0</ele><time>2026-04-30T10:17:52.656Z</time></trkpt><trkpt lat="34.1812844" lon="8.0475684"><ele>-16.0</ele><time>2026-04-30T10:17:53.665Z</time></trkpt><trkpt lat="34.1814635" lon="8.0474253"><ele>-15.666666666666666</ele><time>2026-04-30T10:17:54.653Z</time></trkpt><trkpt lat="34.1816409" lon="8.0472858"><ele>-15.333333333333332</ele><time>2026-04-30T10:17:55.658Z</time></trkpt><trkpt lat="34.1818195" lon="8.0471429"><ele>-15.0</ele><time>2026-04-30T10:17:56.644Z</time></trkpt><trkpt lat="34.181997" lon="8.0469996"><ele>-15.0</ele><time>2026-04-30T10:17:57.652Z</time></trkpt><trkpt lat="34.1821775" lon="8.0468547"><ele>-15.0</ele><time>2026-04-30T10:17:58.647Z</time></trkpt><trkpt lat="34.1823572" lon="8.0467099"><ele>-15.0</ele><time>2026-04-30T10:17:59.657Z</time></trkpt><trkpt lat="34.1825404" lon="8.0465659"><ele>-15.333333333333332</ele><time>2026-04-30T10:18:00.65Z</time></trkpt><trkpt lat="34.1827144" lon="8.0464234"><ele>-15.666666666666666</ele><time>2026-04-30T10:18:01.659Z</time></trkpt><trkpt lat="34.1828925" lon="8.0462846"><ele>-16.0</ele><time>2026-04-30T10:18:02.664Z</time></trkpt><trkpt lat="34.1830693" lon="8.0461405"><ele>-16.0</ele><time>2026-04-30T10:18:03.648Z</time></trkpt><trkpt lat="34.1832463" lon="8.0459995"><ele>-16.0</ele><time>2026-04-30T10:18:04.657Z</time></trkpt><trkpt lat="34.183423" lon="8.0458573"><ele>-16.0</ele><time>2026-04-30T10:18:05.651Z</time></trkpt><trkpt lat="34.1835989" lon="8.0457118"><ele>-15.666666666666666</ele><time>2026-04-30T10:18:06.656Z</time></trkpt><trkpt lat="34.1837786" lon="8.0455687"><ele>-15.333333333333332</ele><time>2026-04-30T10:18:07.656Z</time></trkpt><trkpt lat="34.183958" lon="8.0454291"><ele>-15.0</ele><time>2026-04-30T10:18:08.669Z</time></trkpt><trkpt lat="34.1841363" lon="8.045289"><ele>-15.0</ele><time>2026-04-30T10:18:09.656Z</time></trkpt><trkpt lat="34.1843149" lon="8.0451497"><ele>-15.0</ele><time>2026-04-30T10:18:10.652Z</time></trkpt><trkpt lat="34.1844969" lon="8.0450101"><ele>-15.0</ele><time>2026-04-30T10:18:11.652Z</time></trkpt><trkpt lat="34.1846742" lon="8.0448695"><ele>-14.0</ele><time>2026-04-30T10:18:12.664Z</time></trkpt><trkpt lat="34.184853" lon="8.0447246"><ele>-13.0</ele><time>2026-04-30T10:18:13.643Z</time></trkpt><trkpt lat="34.1850323" lon="8.0445852"><ele>-12.0</ele><time>2026-04-30T10:18:14.658Z</time></trkpt><trkpt lat="34.1852136" lon="8.0444391"><ele>-12.0</ele><time>2026-04-30T10:18:15.65Z</time></trkpt><trkpt lat="34.1853961" lon="8.0442947"><ele>-12.0</ele><time>2026-04-30T10:18:16.652Z</time></trkpt><trkpt lat="34.185578" lon="8.0441497"><ele>-12.0</ele><time>2026-04-30T10:18:17.654Z</time></trkpt><trkpt lat="34.1857521" lon="8.0440063"><ele>-11.333333333333334</ele><time>2026-04-30T10:18:18.66Z</time></trkpt><trkpt lat="34.1859322" lon="8.0438639"><ele>-10.666666666666668</ele><time>2026-04-30T10:18:19.66Z</time></trkpt><trkpt lat="34.1861072" lon="8.0437168"><ele>-10.0</ele><time>2026-04-30T10:18:20.654Z</time></trkpt><trkpt lat="34.1862804" lon="8.0435635"><ele>-10.0</ele><time>2026-04-30T10:18:21.646Z</time></trkpt><trkpt lat="34.1864494" lon="8.0434077"><ele>-10.0</ele><time>2026-04-30T10:18:22.653Z</time></trkpt><trkpt lat="34.1866179" lon="8.0432471"><ele>-10.0</ele><time>2026-04-30T10:18:23.669Z</time></trkpt><trkpt lat="34.1867844" lon="8.0430899"><ele>-10.666666666666668</ele><time>2026-04-30T10:18:24.644Z</time></trkpt><trkpt lat="34.18695" lon="8.0429303"><ele>-11.333333333333334</ele><time>2026-04-30T10:18:25.66Z</time></trkpt><trkpt lat="34.1871157" lon="8.0427673"><ele>-12.0</ele><time>2026-04-30T10:18:26.655Z</time></trkpt><trkpt lat="34.187284" lon="8.0426086"><ele>-11.666666666666666</ele><time>2026-04-30T10:18:27.723Z</time></trkpt><trkpt lat="34.1874472" lon="8.0424459"><ele>-11.333333333333332</ele><time>2026-04-30T10:18:28.645Z</time></trkpt><trkpt lat="34.187612" lon="8.0422809"><ele>-11.0</ele><time>2026-04-30T10:18:29.67Z</time></trkpt><trkpt lat="34.187777" lon="8.0421157"><ele>-11.0</ele><time>2026-04-30T10:18:30.665Z</time></trkpt><trkpt lat="34.1879395" lon="8.0419494"><ele>-11.0</ele><time>2026-04-30T10:18:31.655Z</time></trkpt><trkpt lat="34.1881023" lon="8.0417785"><ele>-11.0</ele><time>2026-04-30T10:18:32.648Z</time></trkpt><trkpt lat="34.1882634" lon="8.0416081"><ele>-10.333333333333332</ele><time>2026-04-30T10:18:33.643Z</time></trkpt><trkpt lat="34.1884246" lon="8.0414351"><ele>-9.666666666666666</ele><time>2026-04-30T10:18:34.643Z</time></trkpt><trkpt lat="34.1885787" lon="8.0412589"><ele>-9.0</ele><time>2026-04-30T10:18:35.639Z</time></trkpt><trkpt lat="34.1887327" lon="8.0410848"><ele>-9.0</ele><time>2026-04-30T10:18:36.663Z</time></trkpt><trkpt lat="34.1888815" lon="8.0409069"><ele>-9.0</ele><time>2026-04-30T10:18:37.655Z</time></trkpt><trkpt lat="34.1890304" lon="8.0407228"><ele>-9.0</ele><time>2026-04-30T10:18:38.645Z</time></trkpt><trkpt lat="34.1891818" lon="8.0405389"><ele>-8.666666666666666</ele><time>2026-04-30T10:18:39.651Z</time></trkpt><trkpt lat="34.1893331" lon="8.0403543"><ele>-8.333333333333332</ele><time>2026-04-30T10:18:40.644Z</time></trkpt><trkpt lat="34.1894793" lon="8.0401648"><ele>-8.0</ele><time>2026-04-30T10:18:41.657Z</time></trkpt><trkpt lat="34.18962" lon="8.0399749"><ele>-7.333333333333333</ele><time>2026-04-30T10:18:42.652Z</time></trkpt><trkpt lat="34.1897604" lon="8.0397836"><ele>-6.666666666666666</ele><time>2026-04-30T10:18:43.651Z</time></trkpt><trkpt lat="34.1898931" lon="8.0395856"><ele>-6.0</ele><time>2026-04-30T10:18:44.672Z</time></trkpt><trkpt lat="34.1900296" lon="8.039388"><ele>-6.0</ele><time>2026-04-30T10:18:45.656Z</time></trkpt><trkpt lat="34.1901624" lon="8.0391843"><ele>-6.0</ele><time>2026-04-30T10:18:46.653Z</time></trkpt><trkpt lat="34.190298" lon="8.0389731"><ele>-6.0</ele><time>2026-04-30T10:18:47.653Z</time></trkpt><trkpt lat="34.1904297" lon="8.0387684"><ele>-5.666666666666667</ele><time>2026-04-30T10:18:48.661Z</time></trkpt><trkpt lat="34.1905564" lon="8.0385684"><ele>-5.333333333333334</ele><time>2026-04-30T10:18:49.652Z</time></trkpt><trkpt lat="34.1906874" lon="8.0383621"><ele>-5.0</ele><time>2026-04-30T10:18:50.644Z</time></trkpt><trkpt lat="34.1908132" lon="8.0381519"><ele>-5.666666666666667</ele><time>2026-04-30T10:18:51.638Z</time></trkpt><trkpt lat="34.190936" lon="8.037942"><ele>-6.333333333333334</ele><time>2026-04-30T10:18:52.654Z</time></trkpt><trkpt lat="34.1910559" lon="8.037727"><ele>-7.0</ele><time>2026-04-30T10:18:53.663Z</time></trkpt><trkpt lat="34.1911709" lon="8.0375147"><ele>-7.666666666666667</ele><time>2026-04-30T10:18:54.65Z</time></trkpt><trkpt lat="34.1912871" lon="8.037298"><ele>-8.333333333333334</ele><time>2026-04-30T10:18:55.669Z</time></trkpt><trkpt lat="34.191403" lon="8.0370781"><ele>-9.0</ele><time>2026-04-30T10:18:56.65Z</time></trkpt><trkpt lat="34.1915157" lon="8.036858"><ele>-9.333333333333334</ele><time>2026-04-30T10:18:57.647Z</time></trkpt><trkpt lat="34.1916224" lon="8.0366346"><ele>-9.666666666666668</ele><time>2026-04-30T10:18:58.669Z</time></trkpt><trkpt lat="34.1917242" lon="8.0364148"><ele>-10.0</ele><time>2026-04-30T10:18:59.663Z</time></trkpt><trkpt lat="34.1918285" lon="8.036188"><ele>-10.0</ele><time>2026-04-30T10:19:00.652Z</time></trkpt><trkpt lat="34.1919298" lon="8.0359663"><ele>-10.0</ele><time>2026-04-30T10:19:01.637Z</time></trkpt><trkpt lat="34.1920269" lon="8.0357415"><ele>-10.0</ele><time>2026-04-30T10:19:02.656Z</time></trkpt><trkpt lat="34.1921254" lon="8.0355112"><ele>-10.0</ele><time>2026-04-30T10:19:03.662Z</time></trkpt><trkpt lat="34.1922282" lon="8.0352811"><ele>-10.0</ele><time>2026-04-30T10:19:04.661Z</time></trkpt><trkpt lat="34.1923341" lon="8.0350562"><ele>-10.0</ele><time>2026-04-30T10:19:05.666Z</time></trkpt><trkpt lat="34.1924466" lon="8.0348359"><ele>-9.333333333333334</ele><time>2026-04-30T10:19:06.644Z</time></trkpt><trkpt lat="34.1925668" lon="8.0346281"><ele>-8.666666666666666</ele><time>2026-04-30T10:19:07.646Z</time></trkpt><trkpt lat="34.1926863" lon="8.0344188"><ele>-8.0</ele><time>2026-04-30T10:19:08.642Z</time></trkpt><trkpt lat="34.1928218" lon="8.0342217"><ele>-7.666666666666666</ele><time>2026-04-30T10:19:09.668Z</time></trkpt><trkpt lat="34.1929626" lon="8.0340446"><ele>-7.333333333333334</ele><time>2026-04-30T10:19:10.649Z</time></trkpt><trkpt lat="34.1931063" lon="8.0338917"><ele>-7.0</ele><time>2026-04-30T10:19:11.661Z</time></trkpt><trkpt lat="34.1932567" lon="8.0337776"><ele>-6.333333333333334</ele><time>2026-04-30T10:19:12.665Z</time></trkpt><trkpt lat="34.1934101" lon="8.0336807"><ele>-5.666666666666667</ele><time>2026-04-30T10:19:13.649Z</time></trkpt><trkpt lat="34.1935663" lon="8.0336075"><ele>-5.0</ele><time>2026-04-30T10:19:14.664Z</time></trkpt><trkpt lat="34.1937419" lon="8.0335525"><ele>-5.0</ele><time>2026-04-30T10:19:15.676Z</time></trkpt><trkpt lat="34.193916" lon="8.0334981"><ele>-5.0</ele><time>2026-04-30T10:19:16.656Z</time></trkpt><trkpt lat="34.194098" lon="8.0334323"><ele>-5.0</ele><time>2026-04-30T10:19:17.67Z</time></trkpt><trkpt lat="34.1942828" lon="8.0333695"><ele>-5.0</ele><time>2026-04-30T10:19:18.664Z</time></trkpt><trkpt lat="34.1944749" lon="8.033305"><ele>-5.0</ele><time>2026-04-30T10:19:19.663Z</time></trkpt><trkpt lat="34.1946834" lon="8.0332381"><ele>-5.0</ele><time>2026-04-30T10:19:20.656Z</time></trkpt><trkpt lat="34.1948965" lon="8.0331637"><ele>-4.666666666666667</ele><time>2026-04-30T10:19:21.69Z</time></trkpt><trkpt lat="34.195112" lon="8.0330945"><ele>-4.333333333333333</ele><time>2026-04-30T10:19:22.649Z</time></trkpt><trkpt lat="34.1953241" lon="8.0330281"><ele>-4.0</ele><time>2026-04-30T10:19:23.659Z</time></trkpt><trkpt lat="34.1955344" lon="8.0329646"><ele>-3.6666666666666665</ele><time>2026-04-30T10:19:24.661Z</time></trkpt><trkpt lat="34.195744" lon="8.0328889"><ele>-3.333333333333333</ele><time>2026-04-30T10:19:25.662Z</time></trkpt><trkpt lat="34.1959499" lon="8.032813"><ele>-3.0</ele><time>2026-04-30T10:19:26.659Z</time></trkpt><trkpt lat="34.196155" lon="8.0327361"><ele>-3.0</ele><time>2026-04-30T10:19:27.656Z</time></trkpt><trkpt lat="34.1963617" lon="8.0326578"><ele>-3.0</ele><time>2026-04-30T10:19:28.651Z</time></trkpt><trkpt lat="34.1965598" lon="8.0325834"><ele>-3.0</ele><time>2026-04-30T10:19:29.659Z</time></trkpt><trkpt lat="34.1967626" lon="8.0325058"><ele>-3.333333333333333</ele><time>2026-04-30T10:19:30.662Z</time></trkpt><trkpt lat="34.1969606" lon="8.0324296"><ele>-3.6666666666666665</ele><time>2026-04-30T10:19:31.66Z</time></trkpt><trkpt lat="34.1971568" lon="8.0323561"><ele>-4.0</ele><time>2026-04-30T10:19:32.645Z</time></trkpt><trkpt lat="34.1973527" lon="8.0322799"><ele>-4.0</ele><time>2026-04-30T10:19:33.67Z</time></trkpt><trkpt lat="34.1975492" lon="8.0322077"><ele>-4.0</ele><time>2026-04-30T10:19:34.651Z</time></trkpt><trkpt lat="34.1977387" lon="8.0321334"><ele>-4.0</ele><time>2026-04-30T10:19:35.662Z</time></trkpt><trkpt lat="34.1979317" lon="8.0320602"><ele>-4.0</ele><time>2026-04-30T10:19:36.653Z</time></trkpt><trkpt lat="34.198122" lon="8.0319841"><ele>-4.0</ele><time>2026-04-30T10:19:37.643Z</time></trkpt><trkpt lat="34.1983099" lon="8.0319086"><ele>-4.0</ele><time>2026-04-30T10:19:38.669Z</time></trkpt><trkpt lat="34.1984959" lon="8.0318257"><ele>-3.6666666666666665</ele><time>2026-04-30T10:19:39.66Z</time></trkpt><trkpt lat="34.1986751" lon="8.0317353"><ele>-3.333333333333333</ele><time>2026-04-30T10:19:40.656Z</time></trkpt><trkpt lat="34.198852" lon="8.0316335"><ele>-3.0</ele><time>2026-04-30T10:19:41.653Z</time></trkpt><trkpt lat="34.199031" lon="8.0315246"><ele>-3.0</ele><time>2026-04-30T10:19:42.661Z</time></trkpt><trkpt lat="34.1992041" lon="8.0314146"><ele>-3.0</ele><time>2026-04-30T10:19:43.661Z</time></trkpt><trkpt lat="34.1993765" lon="8.0313042"><ele>-3.0</ele><time>2026-04-30T10:19:44.654Z</time></trkpt><trkpt lat="34.1995442" lon="8.0311826"><ele>-3.0</ele><time>2026-04-30T10:19:45.665Z</time></trkpt><trkpt lat="34.1997122" lon="8.0310594"><ele>-3.0</ele><time>2026-04-30T10:19:46.664Z</time></trkpt><trkpt lat="34.1998771" lon="8.0309286"><ele>-3.0</ele><time>2026-04-30T10:19:47.633Z</time></trkpt><trkpt lat="34.2000359" lon="8.0307968"><ele>-2.3333333333333335</ele><time>2026-04-30T10:19:48.672Z</time></trkpt><trkpt lat="34.2001972" lon="8.0306604"><ele>-1.6666666666666665</ele><time>2026-04-30T10:19:49.652Z</time></trkpt><trkpt lat="34.2003587" lon="8.0305149"><ele>-1.0</ele><time>2026-04-30T10:19:50.672Z</time></trkpt><trkpt lat="34.2005146" lon="8.0303665"><ele>-1.0</ele><time>2026-04-30T10:19:51.676Z</time></trkpt><trkpt lat="34.2006646" lon="8.0302146"><ele>-1.0</ele><time>2026-04-30T10:19:52.667Z</time></trkpt><trkpt lat="34.2008176" lon="8.0300497"><ele>-1.0</ele><time>2026-04-30T10:19:53.659Z</time></trkpt><trkpt lat="34.2009698" lon="8.0298775"><ele>-1.6666666666666665</ele><time>2026-04-30T10:19:54.651Z</time></trkpt><trkpt lat="34.2011205" lon="8.0296998"><ele>-2.3333333333333335</ele><time>2026-04-30T10:19:55.662Z</time></trkpt><trkpt lat="34.2012694" lon="8.0295159"><ele>-3.0</ele><time>2026-04-30T10:19:56.666Z</time></trkpt><trkpt lat="34.2014166" lon="8.0293354"><ele>-3.0</ele><time>2026-04-30T10:19:57.667Z</time></trkpt><trkpt lat="34.2015614" lon="8.0291483"><ele>-3.0</ele><time>2026-04-30T10:19:58.655Z</time></trkpt><trkpt lat="34.2017127" lon="8.0289577"><ele>-3.0</ele><time>2026-04-30T10:19:59.659Z</time></trkpt><trkpt lat="34.2018608" lon="8.0287576"><ele>-3.333333333333333</ele><time>2026-04-30T10:20:00.655Z</time></trkpt><trkpt lat="34.2020075" lon="8.0285588"><ele>-3.6666666666666665</ele><time>2026-04-30T10:20:01.651Z</time></trkpt><trkpt lat="34.2021598" lon="8.0283647"><ele>-4.0</ele><time>2026-04-30T10:20:02.662Z</time></trkpt><trkpt lat="34.2023113" lon="8.028176"><ele>-4.333333333333333</ele><time>2026-04-30T10:20:03.661Z</time></trkpt><trkpt lat="34.2024595" lon="8.0279851"><ele>-4.666666666666667</ele><time>2026-04-30T10:20:04.655Z</time></trkpt><trkpt lat="34.2026094" lon="8.0277936"><ele>-5.0</ele><time>2026-04-30T10:20:05.668Z</time></trkpt><trkpt lat="34.2027559" lon="8.0276036"><ele>-4.666666666666667</ele><time>2026-04-30T10:20:06.651Z</time></trkpt><trkpt lat="34.2029039" lon="8.0274131"><ele>-4.333333333333333</ele><time>2026-04-30T10:20:07.653Z</time></trkpt><trkpt lat="34.2030528" lon="8.0272213"><ele>-4.0</ele><time>2026-04-30T10:20:08.66Z</time></trkpt><trkpt lat="34.203201" lon="8.0270251"><ele>-4.0</ele><time>2026-04-30T10:20:09.665Z</time></trkpt><trkpt lat="34.2033478" lon="8.0268272"><ele>-4.0</ele><time>2026-04-30T10:20:10.663Z</time></trkpt><trkpt lat="34.2034924" lon="8.026634"><ele>-4.0</ele><time>2026-04-30T10:20:11.653Z</time></trkpt><trkpt lat="34.2036371" lon="8.0264411"><ele>-3.333333333333333</ele><time>2026-04-30T10:20:12.645Z</time></trkpt><trkpt lat="34.2037867" lon="8.0262447"><ele>-2.6666666666666665</ele><time>2026-04-30T10:20:13.664Z</time></trkpt><trkpt lat="34.2039385" lon="8.0260573"><ele>-2.0</ele><time>2026-04-30T10:20:14.648Z</time></trkpt><trkpt lat="34.204087" lon="8.0258635"><ele>-2.0</ele><time>2026-04-30T10:20:15.671Z</time></trkpt><trkpt lat="34.2042407" lon="8.0256678"><ele>-2.0</ele><time>2026-04-30T10:20:16.633Z</time></trkpt><trkpt lat="34.2043918" lon="8.0254761"><ele>-2.0</ele><time>2026-04-30T10:20:17.65Z</time></trkpt><trkpt lat="34.2045416" lon="8.0252791"><ele>-2.0</ele><time>2026-04-30T10:20:18.66Z</time></trkpt><trkpt lat="34.2046924" lon="8.025084"><ele>-2.0</ele><time>2026-04-30T10:20:19.655Z</time></trkpt><trkpt lat="34.2048377" lon="8.0248943"><ele>-2.0</ele><time>2026-04-30T10:20:20.65Z</time></trkpt><trkpt lat="34.204986" lon="8.0247031"><ele>-2.0</ele><time>2026-04-30T10:20:21.657Z</time></trkpt><trkpt lat="34.2051362" lon="8.0245095"><ele>-2.0</ele><time>2026-04-30T10:20:22.657Z</time></trkpt><trkpt lat="34.2052854" lon="8.0243203"><ele>-2.0</ele><time>2026-04-30T10:20:23.648Z</time></trkpt><trkpt lat="34.2054364" lon="8.0241207"><ele>-2.0</ele><time>2026-04-30T10:20:24.65Z</time></trkpt><trkpt lat="34.2055846" lon="8.0239289"><ele>-2.0</ele><time>2026-04-30T10:20:25.651Z</time></trkpt><trkpt lat="34.2057385" lon="8.0237336"><ele>-2.0</ele><time>2026-04-30T10:20:26.66Z</time></trkpt><trkpt lat="34.2058895" lon="8.0235424"><ele>-2.0</ele><time>2026-04-30T10:20:27.662Z</time></trkpt><trkpt lat="34.2060385" lon="8.0233515"><ele>-2.0</ele><time>2026-04-30T10:20:28.64Z</time></trkpt><trkpt lat="34.206186" lon="8.0231619"><ele>-2.0</ele><time>2026-04-30T10:20:29.664Z</time></trkpt><trkpt lat="34.2063347" lon="8.0229645"><ele>-2.0</ele><time>2026-04-30T10:20:30.62Z</time></trkpt><trkpt lat="34.206475" lon="8.0227738"><ele>-2.0</ele><time>2026-04-30T10:20:31.657Z</time></trkpt><trkpt lat="34.2066217" lon="8.0225766"><ele>-2.0</ele><time>2026-04-30T10:20:32.658Z</time></trkpt><trkpt lat="34.2067747" lon="8.0223803"><ele>-2.0</ele><time>2026-04-30T10:20:33.655Z</time></trkpt><trkpt lat="34.2069268" lon="8.022187"><ele>-2.0</ele><time>2026-04-30T10:20:34.655Z</time></trkpt><trkpt lat="34.2070737" lon="8.0219937"><ele>-2.0</ele><time>2026-04-30T10:20:35.657Z</time></trkpt><trkpt lat="34.2072212" lon="8.0218019"><ele>-2.0</ele><time>2026-04-30T10:20:36.652Z</time></trkpt><trkpt lat="34.2073699" lon="8.0216032"><ele>-2.0</ele><time>2026-04-30T10:20:37.671Z</time></trkpt><trkpt lat="34.2075186" lon="8.0214082"><ele>-2.0</ele><time>2026-04-30T10:20:38.656Z</time></trkpt><trkpt lat="34.2076702" lon="8.0212188"><ele>-2.0</ele><time>2026-04-30T10:20:39.669Z</time></trkpt><trkpt lat="34.2078205" lon="8.0210277"><ele>-2.0</ele><time>2026-04-30T10:20:40.644Z</time></trkpt><trkpt lat="34.2079694" lon="8.0208336"><ele>-2.0</ele><time>2026-04-30T10:20:41.658Z</time></trkpt><trkpt lat="34.2081169" lon="8.020641"><ele>-2.0</ele><time>2026-04-30T10:20:42.658Z</time></trkpt><trkpt lat="34.2082661" lon="8.0204483"><ele>-2.0</ele><time>2026-04-30T10:20:43.655Z</time></trkpt><trkpt lat="34.2084132" lon="8.020252"><ele>-2.0</ele><time>2026-04-30T10:20:44.65Z</time></trkpt><trkpt lat="34.208559" lon="8.0200586"><ele>-2.0</ele><time>2026-04-30T10:20:45.644Z</time></trkpt><trkpt lat="34.2087022" lon="8.0198615"><ele>-2.0</ele><time>2026-04-30T10:20:46.657Z</time></trkpt><trkpt lat="34.2088367" lon="8.0196604"><ele>-2.0</ele><time>2026-04-30T10:20:47.658Z</time></trkpt><trkpt lat="34.2089729" lon="8.0194548"><ele>-2.0</ele><time>2026-04-30T10:20:48.648Z</time></trkpt><trkpt lat="34.2091039" lon="8.0192523"><ele>-2.0</ele><time>2026-04-30T10:20:49.66Z</time></trkpt><trkpt lat="34.2092257" lon="8.0190531"><ele>-2.0</ele><time>2026-04-30T10:20:50.648Z</time></trkpt><trkpt lat="34.2093391" lon="8.0188606"><ele>-2.333333333333333</ele><time>2026-04-30T10:20:51.656Z</time></trkpt><trkpt lat="34.2094493" lon="8.018666"><ele>-2.6666666666666665</ele><time>2026-04-30T10:20:52.649Z</time></trkpt><trkpt lat="34.2095552" lon="8.0184739"><ele>-3.0</ele><time>2026-04-30T10:20:53.642Z</time></trkpt><trkpt lat="34.2096622" lon="8.0182795"><ele>-3.333333333333333</ele><time>2026-04-30T10:20:54.659Z</time></trkpt><trkpt lat="34.2097711" lon="8.0180853"><ele>-3.6666666666666665</ele><time>2026-04-30T10:20:55.668Z</time></trkpt><trkpt lat="34.2098788" lon="8.0178836"><ele>-4.0</ele><time>2026-04-30T10:20:56.656Z</time></trkpt><trkpt lat="34.2099877" lon="8.0176832"><ele>-4.333333333333333</ele><time>2026-04-30T10:20:57.65Z</time></trkpt><trkpt lat="34.2100992" lon="8.0174858"><ele>-4.666666666666667</ele><time>2026-04-30T10:20:58.659Z</time></trkpt><trkpt lat="34.2102213" lon="8.0172905"><ele>-5.0</ele><time>2026-04-30T10:20:59.669Z</time></trkpt><trkpt lat="34.2103459" lon="8.0170951"><ele>-5.0</ele><time>2026-04-30T10:21:00.657Z</time></trkpt><trkpt lat="34.2104725" lon="8.0169027"><ele>-5.0</ele><time>2026-04-30T10:21:01.669Z</time></trkpt><trkpt lat="34.2105992" lon="8.0167097"><ele>-5.0</ele><time>2026-04-30T10:21:02.65Z</time></trkpt><trkpt lat="34.2107269" lon="8.0165181"><ele>-6.333333333333334</ele><time>2026-04-30T10:21:03.656Z</time></trkpt><trkpt lat="34.2108557" lon="8.0163237"><ele>-7.666666666666667</ele><time>2026-04-30T10:21:04.658Z</time></trkpt><trkpt lat="34.2109802" lon="8.0161293"><ele>-9.0</ele><time>2026-04-30T10:21:05.647Z</time></trkpt><trkpt lat="34.2111056" lon="8.015938"><ele>-9.0</ele><time>2026-04-30T10:21:06.642Z</time></trkpt><trkpt lat="34.2112335" lon="8.0157431"><ele>-9.0</ele><time>2026-04-30T10:21:07.645Z</time></trkpt><trkpt lat="34.2113633" lon="8.0155483"><ele>-9.0</ele><time>2026-04-30T10:21:08.658Z</time></trkpt><trkpt lat="34.2114934" lon="8.0153509"><ele>-9.0</ele><time>2026-04-30T10:21:09.641Z</time></trkpt><trkpt lat="34.211621" lon="8.0151544"><ele>-9.0</ele><time>2026-04-30T10:21:10.658Z</time></trkpt><trkpt lat="34.2117495" lon="8.0149565"><ele>-9.0</ele><time>2026-04-30T10:21:11.653Z</time></trkpt><trkpt lat="34.2118796" lon="8.0147648"><ele>-9.0</ele><time>2026-04-30T10:21:12.665Z</time></trkpt><trkpt lat="34.2120102" lon="8.0145685"><ele>-9.0</ele><time>2026-04-30T10:21:13.638Z</time></trkpt><trkpt lat="34.2121387" lon="8.0143762"><ele>-9.0</ele><time>2026-04-30T10:21:14.677Z</time></trkpt><trkpt lat="34.2122674" lon="8.0141835"><ele>-9.0</ele><time>2026-04-30T10:21:15.652Z</time></trkpt><trkpt lat="34.212399" lon="8.0139888"><ele>-9.0</ele><time>2026-04-30T10:21:16.658Z</time></trkpt><trkpt lat="34.2125275" lon="8.0137949"><ele>-9.0</ele><time>2026-04-30T10:21:17.647Z</time></trkpt><trkpt lat="34.2126551" lon="8.0136054"><ele>-9.0</ele><time>2026-04-30T10:21:18.659Z</time></trkpt><trkpt lat="34.2127856" lon="8.0134063"><ele>-9.0</ele><time>2026-04-30T10:21:19.66Z</time></trkpt><trkpt lat="34.2129142" lon="8.0132097"><ele>-9.0</ele><time>2026-04-30T10:21:20.66Z</time></trkpt><trkpt lat="34.2130401" lon="8.0130183"><ele>-8.666666666666666</ele><time>2026-04-30T10:21:21.66Z</time></trkpt><trkpt lat="34.2131686" lon="8.0128221"><ele>-8.333333333333332</ele><time>2026-04-30T10:21:22.64Z</time></trkpt><trkpt lat="34.2132972" lon="8.0126247"><ele>-8.0</ele><time>2026-04-30T10:21:23.664Z</time></trkpt><trkpt lat="34.2134239" lon="8.0124247"><ele>-8.0</ele><time>2026-04-30T10:21:24.66Z</time></trkpt><trkpt lat="34.2135472" lon="8.0122287"><ele>-8.0</ele><time>2026-04-30T10:21:25.665Z</time></trkpt><trkpt lat="34.2136702" lon="8.0120304"><ele>-8.0</ele><time>2026-04-30T10:21:26.665Z</time></trkpt><trkpt lat="34.2138015" lon="8.0118335"><ele>-8.0</ele><time>2026-04-30T10:21:27.661Z</time></trkpt><trkpt lat="34.2139284" lon="8.011638"><ele>-8.0</ele><time>2026-04-30T10:21:28.67Z</time></trkpt><trkpt lat="34.2140567" lon="8.0114435"><ele>-8.0</ele><time>2026-04-30T10:21:29.659Z</time></trkpt><trkpt lat="34.2141839" lon="8.0112511"><ele>-8.0</ele><time>2026-04-30T10:21:30.656Z</time></trkpt><trkpt lat="34.2143101" lon="8.0110587"><ele>-8.0</ele><time>2026-04-30T10:21:31.676Z</time></trkpt><trkpt lat="34.21443" lon="8.0108702"><ele>-8.0</ele><time>2026-04-30T10:21:32.67Z</time></trkpt><trkpt lat="34.2145395" lon="8.0106943"><ele>-8.0</ele><time>2026-04-30T10:21:33.665Z</time></trkpt><trkpt lat="34.2146512" lon="8.0105296"><ele>-8.0</ele><time>2026-04-30T10:21:34.649Z</time></trkpt><trkpt lat="34.2147532" lon="8.0103678"><ele>-8.0</ele><time>2026-04-30T10:21:35.66Z</time></trkpt><trkpt lat="34.21485" lon="8.0102148"><ele>-8.0</ele><time>2026-04-30T10:21:36.658Z</time></trkpt><trkpt lat="34.214943" lon="8.0100798"><ele>-8.0</ele><time>2026-04-30T10:21:37.666Z</time></trkpt><trkpt lat="34.2150388" lon="8.0099346"><ele>-8.0</ele><time>2026-04-30T10:21:38.664Z</time></trkpt><trkpt lat="34.2151305" lon="8.0097985"><ele>-8.0</ele><time>2026-04-30T10:21:39.659Z</time></trkpt><trkpt lat="34.2152245" lon="8.0096632"><ele>-8.0</ele><time>2026-04-30T10:21:40.658Z</time></trkpt><trkpt lat="34.2153238" lon="8.0095194"><ele>-8.0</ele><time>2026-04-30T10:21:41.662Z</time></trkpt><trkpt lat="34.2154182" lon="8.0093715"><ele>-8.0</ele><time>2026-04-30T10:21:42.658Z</time></trkpt><trkpt lat="34.2155117" lon="8.0092145"><ele>-7.666666666666666</ele><time>2026-04-30T10:21:43.657Z</time></trkpt><trkpt lat="34.2156036" lon="8.0090615"><ele>-7.333333333333334</ele><time>2026-04-30T10:21:44.656Z</time></trkpt><trkpt lat="34.2157035" lon="8.0088979"><ele>-7.0</ele><time>2026-04-30T10:21:45.664Z</time></trkpt><trkpt lat="34.2158126" lon="8.0087387"><ele>-7.0</ele><time>2026-04-30T10:21:46.649Z</time></trkpt><trkpt lat="34.2159216" lon="8.0085763"><ele>-7.0</ele><time>2026-04-30T10:21:47.657Z</time></trkpt><trkpt lat="34.2160327" lon="8.0084139"><ele>-7.0</ele><time>2026-04-30T10:21:48.675Z</time></trkpt><trkpt lat="34.2161425" lon="8.0082485"><ele>-6.333333333333334</ele><time>2026-04-30T10:21:49.667Z</time></trkpt><trkpt lat="34.2162522" lon="8.0080754"><ele>-5.666666666666667</ele><time>2026-04-30T10:21:50.66Z</time></trkpt><trkpt lat="34.2163639" lon="8.0078981"><ele>-5.0</ele><time>2026-04-30T10:21:51.657Z</time></trkpt><trkpt lat="34.2164848" lon="8.0077098"><ele>-5.0</ele><time>2026-04-30T10:21:52.655Z</time></trkpt><trkpt lat="34.2166075" lon="8.007528"><ele>-5.0</ele><time>2026-04-30T10:21:53.662Z</time></trkpt><trkpt lat="34.2167338" lon="8.0073485"><ele>-5.0</ele><time>2026-04-30T10:21:54.642Z</time></trkpt><trkpt lat="34.2168588" lon="8.0071645"><ele>-5.0</ele><time>2026-04-30T10:21:55.664Z</time></trkpt><trkpt lat="34.2169847" lon="8.0069769"><ele>-5.0</ele><time>2026-04-30T10:21:56.652Z</time></trkpt><trkpt lat="34.2171102" lon="8.006787"><ele>-5.0</ele><time>2026-04-30T10:21:57.656Z</time></trkpt><trkpt lat="34.2172323" lon="8.0065952"><ele>-4.666666666666667</ele><time>2026-04-30T10:21:58.669Z</time></trkpt><trkpt lat="34.2173582" lon="8.0064032"><ele>-4.333333333333333</ele><time>2026-04-30T10:21:59.664Z</time></trkpt><trkpt lat="34.2174833" lon="8.0062192"><ele>-4.0</ele><time>2026-04-30T10:22:00.666Z</time></trkpt><trkpt lat="34.2176105" lon="8.0060343"><ele>-4.0</ele><time>2026-04-30T10:22:01.648Z</time></trkpt><trkpt lat="34.2177437" lon="8.0058514"><ele>-4.0</ele><time>2026-04-30T10:22:02.664Z</time></trkpt><trkpt lat="34.2178765" lon="8.0056691"><ele>-4.0</ele><time>2026-04-30T10:22:03.648Z</time></trkpt><trkpt lat="34.2180149" lon="8.0054977"><ele>-4.0</ele><time>2026-04-30T10:22:04.658Z</time></trkpt><trkpt lat="34.2181573" lon="8.0053323"><ele>-4.0</ele><time>2026-04-30T10:22:05.654Z</time></trkpt><trkpt lat="34.2183043" lon="8.0051719"><ele>-4.0</ele><time>2026-04-30T10:22:06.67Z</time></trkpt><trkpt lat="34.2184579" lon="8.0050176"><ele>-4.0</ele><time>2026-04-30T10:22:07.667Z</time></trkpt><trkpt lat="34.2186163" lon="8.0048832"><ele>-4.0</ele><time>2026-04-30T10:22:08.653Z</time></trkpt><trkpt lat="34.2187887" lon="8.0047599"><ele>-4.0</ele><time>2026-04-30T10:22:09.659Z</time></trkpt><trkpt lat="34.218962" lon="8.0046519"><ele>-3.0</ele><time>2026-04-30T10:22:10.662Z</time></trkpt><trkpt lat="34.2191361" lon="8.0045343"><ele>-2.0</ele><time>2026-04-30T10:22:11.656Z</time></trkpt><trkpt lat="34.2193129" lon="8.0044216"><ele>-1.0</ele><time>2026-04-30T10:22:12.662Z</time></trkpt><trkpt lat="34.2194922" lon="8.0043097"><ele>-1.0</ele><time>2026-04-30T10:22:13.66Z</time></trkpt><trkpt lat="34.2196724" lon="8.0041991"><ele>-1.0</ele><time>2026-04-30T10:22:14.646Z</time></trkpt><trkpt lat="34.2198528" lon="8.0040874"><ele>-1.0</ele><time>2026-04-30T10:22:15.662Z</time></trkpt><trkpt lat="34.2200322" lon="8.0039808"><ele>-1.0</ele><time>2026-04-30T10:22:16.663Z</time></trkpt><trkpt lat="34.2202114" lon="8.0038745"><ele>-1.0</ele><time>2026-04-30T10:22:17.664Z</time></trkpt><trkpt lat="34.2203942" lon="8.0037641"><ele>-1.0</ele><time>2026-04-30T10:22:18.657Z</time></trkpt><trkpt lat="34.2205815" lon="8.0036472"><ele>-0.6666666666666666</ele><time>2026-04-30T10:22:19.664Z</time></trkpt><trkpt lat="34.220772" lon="8.0035278"><ele>-0.3333333333333333</ele><time>2026-04-30T10:22:20.661Z</time></trkpt><trkpt lat="34.220967" lon="8.0034096"><ele>0.0</ele><time>2026-04-30T10:22:21.649Z</time></trkpt><trkpt lat="34.2211671" lon="8.0032897"><ele>0.5</ele><time>2026-04-30T10:22:22.669Z</time></trkpt><trkpt lat="34.2213702" lon="8.0031671"><ele>1.0</ele><time>2026-04-30T10:22:23.667Z</time></trkpt><trkpt lat="34.2215761" lon="8.0030433"><ele>1.5</ele><time>2026-04-30T10:22:24.69Z</time></trkpt><trkpt lat="34.2217794" lon="8.0029234"><ele>2.0</ele><time>2026-04-30T10:22:25.665Z</time></trkpt><trkpt lat="34.2219843" lon="8.0028018"><ele>2.0</ele><time>2026-04-30T10:22:26.65Z</time></trkpt><trkpt lat="34.2221879" lon="8.0026785"><ele>2.0</ele><time>2026-04-30T10:22:27.665Z</time></trkpt><trkpt lat="34.2223873" lon="8.0025588"><ele>2.0</ele><time>2026-04-30T10:22:28.667Z</time></trkpt><trkpt lat="34.2225852" lon="8.0024369"><ele>2.0</ele><time>2026-04-30T10:22:29.667Z</time></trkpt><trkpt lat="34.2227877" lon="8.0023193"><ele>2.0</ele><time>2026-04-30T10:22:30.67Z</time></trkpt><trkpt lat="34.2229868" lon="8.0021964"><ele>1.5</ele><time>2026-04-30T10:22:31.644Z</time></trkpt><trkpt lat="34.2231872" lon="8.0020714"><ele>1.0</ele><time>2026-04-30T10:22:32.658Z</time></trkpt><trkpt lat="34.2233894" lon="8.0019504"><ele>1.0</ele><time>2026-04-30T10:22:33.652Z</time></trkpt><trkpt lat="34.2235928" lon="8.0018245"><ele>1.0</ele><time>2026-04-30T10:22:34.659Z</time></trkpt><trkpt lat="34.2237907" lon="8.0017039"><ele>1.5</ele><time>2026-04-30T10:22:35.656Z</time></trkpt><trkpt lat="34.2239895" lon="8.0015795"><ele>2.0</ele><time>2026-04-30T10:22:36.664Z</time></trkpt><trkpt lat="34.224196" lon="8.0014509"><ele>2.0</ele><time>2026-04-30T10:22:37.644Z</time></trkpt><trkpt lat="34.2244146" lon="8.0013142"><ele>2.0</ele><time>2026-04-30T10:22:38.671Z</time></trkpt><trkpt lat="34.2246454" lon="8.0011697"><ele>3.0</ele><time>2026-04-30T10:22:39.657Z</time></trkpt><trkpt lat="34.2248687" lon="8.001024"><ele>4.0</ele><time>2026-04-30T10:22:40.666Z</time></trkpt><trkpt lat="34.2250942" lon="8.0008813"><ele>3.5</ele><time>2026-04-30T10:22:41.652Z</time></trkpt><trkpt lat="34.2253143" lon="8.0007413"><ele>3.0</ele><time>2026-04-30T10:22:42.652Z</time></trkpt><trkpt lat="34.225536" lon="8.0005983"><ele>3.5</ele><time>2026-04-30T10:22:43.666Z</time></trkpt><trkpt lat="34.2257589" lon="8.0004585"><ele>4.0</ele><time>2026-04-30T10:22:44.655Z</time></trkpt><trkpt lat="34.2259768" lon="8.0003193"><ele>4.0</ele><time>2026-04-30T10:22:45.642Z</time></trkpt><trkpt lat="34.2261975" lon="8.0001912"><ele>4.0</ele><time>2026-04-30T10:22:46.658Z</time></trkpt><trkpt lat="34.2264152" lon="8.0000599"><ele>4.0</ele><time>2026-04-30T10:22:47.659Z</time></trkpt><trkpt lat="34.2266263" lon="7.9999267"><ele>4.0</ele><time>2026-04-30T10:22:48.649Z</time></trkpt><trkpt lat="34.2268335" lon="7.9997934"><ele>4.0</ele><time>2026-04-30T10:22:49.653Z</time></trkpt><trkpt lat="34.2270371" lon="7.9996646"><ele>4.0</ele><time>2026-04-30T10:22:50.651Z</time></trkpt><trkpt lat="34.2272322" lon="7.999535"><ele>4.0</ele><time>2026-04-30T10:22:51.66Z</time></trkpt><trkpt lat="34.2274241" lon="7.9994047"><ele>4.0</ele><time>2026-04-30T10:22:52.66Z</time></trkpt><trkpt lat="34.2276169" lon="7.9992854"><ele>4.0</ele><time>2026-04-30T10:22:53.678Z</time></trkpt><trkpt lat="34.2278108" lon="7.9991666"><ele>4.0</ele><time>2026-04-30T10:22:54.652Z</time></trkpt><trkpt lat="34.2279993" lon="7.9990456"><ele>4.0</ele><time>2026-04-30T10:22:55.659Z</time></trkpt><trkpt lat="34.2281867" lon="7.998925"><ele>4.0</ele><time>2026-04-30T10:22:56.657Z</time></trkpt><trkpt lat="34.2283809" lon="7.998799"><ele>4.333333333333333</ele><time>2026-04-30T10:22:57.656Z</time></trkpt><trkpt lat="34.2285733" lon="7.9986743"><ele>4.666666666666667</ele><time>2026-04-30T10:22:58.658Z</time></trkpt><trkpt lat="34.2287686" lon="7.9985541"><ele>5.0</ele><time>2026-04-30T10:22:59.66Z</time></trkpt><trkpt lat="34.2289635" lon="7.9984333"><ele>5.666666666666667</ele><time>2026-04-30T10:23:00.664Z</time></trkpt><trkpt lat="34.2291589" lon="7.9983127"><ele>6.333333333333334</ele><time>2026-04-30T10:23:01.659Z</time></trkpt><trkpt lat="34.2293494" lon="7.9981856"><ele>7.0</ele><time>2026-04-30T10:23:02.671Z</time></trkpt><trkpt lat="34.2295366" lon="7.9980515"><ele>7.0</ele><time>2026-04-30T10:23:03.646Z</time></trkpt><trkpt lat="34.2297288" lon="7.9979292"><ele>7.0</ele><time>2026-04-30T10:23:04.651Z</time></trkpt><trkpt lat="34.2299239" lon="7.9978012"><ele>7.0</ele><time>2026-04-30T10:23:05.642Z</time></trkpt><trkpt lat="34.2301148" lon="7.9976705"><ele>7.0</ele><time>2026-04-30T10:23:06.651Z</time></trkpt><trkpt lat="34.2303084" lon="7.9975445"><ele>7.0</ele><time>2026-04-30T10:23:07.656Z</time></trkpt><trkpt lat="34.2305062" lon="7.9974166"><ele>7.0</ele><time>2026-04-30T10:23:08.652Z</time></trkpt><trkpt lat="34.2307083" lon="7.9972863"><ele>6.5</ele><time>2026-04-30T10:23:09.661Z</time></trkpt><trkpt lat="34.2309038" lon="7.9971567"><ele>6.0</ele><time>2026-04-30T10:23:10.646Z</time></trkpt><trkpt lat="34.2311062" lon="7.997029"><ele>6.0</ele><time>2026-04-30T10:23:11.647Z</time></trkpt><trkpt lat="34.231302" lon="7.9968967"><ele>6.0</ele><time>2026-04-30T10:23:12.662Z</time></trkpt><trkpt lat="34.2314972" lon="7.9967635"><ele>6.0</ele><time>2026-04-30T10:23:13.651Z</time></trkpt><trkpt lat="34.231694" lon="7.9966376"><ele>7.0</ele><time>2026-04-30T10:23:14.655Z</time></trkpt><trkpt lat="34.2318911" lon="7.9965066"><ele>8.0</ele><time>2026-04-30T10:23:15.651Z</time></trkpt><trkpt lat="34.2320877" lon="7.9963718"><ele>8.0</ele><time>2026-04-30T10:23:16.65Z</time></trkpt><trkpt lat="34.2322831" lon="7.9962363"><ele>8.0</ele><time>2026-04-30T10:23:17.659Z</time></trkpt><trkpt lat="34.232478" lon="7.9961069"><ele>8.0</ele><time>2026-04-30T10:23:18.663Z</time></trkpt><trkpt lat="34.2326764" lon="7.9959808"><ele>8.666666666666666</ele><time>2026-04-30T10:23:19.659Z</time></trkpt><trkpt lat="34.2328716" lon="7.99585"><ele>9.333333333333334</ele><time>2026-04-30T10:23:20.665Z</time></trkpt><trkpt lat="34.233069" lon="7.9957258"><ele>10.0</ele><time>2026-04-30T10:23:21.656Z</time></trkpt><trkpt lat="34.2332673" lon="7.9955992"><ele>10.0</ele><time>2026-04-30T10:23:22.661Z</time></trkpt><trkpt lat="34.2334616" lon="7.9954761"><ele>10.0</ele><time>2026-04-30T10:23:23.657Z</time></trkpt><trkpt lat="34.2336503" lon="7.9953512"><ele>10.0</ele><time>2026-04-30T10:23:24.646Z</time></trkpt><trkpt lat="34.2338412" lon="7.9952243"><ele>10.666666666666668</ele><time>2026-04-30T10:23:25.667Z</time></trkpt><trkpt lat="34.2340301" lon="7.995099"><ele>11.333333333333334</ele><time>2026-04-30T10:23:26.656Z</time></trkpt><trkpt lat="34.2342165" lon="7.994974"><ele>12.0</ele><time>2026-04-30T10:23:27.65Z</time></trkpt><trkpt lat="34.2344107" lon="7.9948536"><ele>12.333333333333332</ele><time>2026-04-30T10:23:28.666Z</time></trkpt><trkpt lat="34.2345982" lon="7.9947275"><ele>12.666666666666666</ele><time>2026-04-30T10:23:29.654Z</time></trkpt><trkpt lat="34.2347875" lon="7.9945984"><ele>13.0</ele><time>2026-04-30T10:23:30.645Z</time></trkpt><trkpt lat="34.2349773" lon="7.994471"><ele>13.0</ele><time>2026-04-30T10:23:31.649Z</time></trkpt><trkpt lat="34.2351635" lon="7.9943464"><ele>13.0</ele><time>2026-04-30T10:23:32.669Z</time></trkpt><trkpt lat="34.2353467" lon="7.994217"><ele>13.0</ele><time>2026-04-30T10:23:33.66Z</time></trkpt><trkpt lat="34.235526" lon="7.9940881"><ele>13.0</ele><time>2026-04-30T10:23:34.664Z</time></trkpt><trkpt lat="34.235706" lon="7.9939594"><ele>13.0</ele><time>2026-04-30T10:23:35.66Z</time></trkpt><trkpt lat="34.2358861" lon="7.9938252"><ele>13.0</ele><time>2026-04-30T10:23:36.653Z</time></trkpt><trkpt lat="34.236067" lon="7.9936953"><ele>13.0</ele><time>2026-04-30T10:23:37.66Z</time></trkpt><trkpt lat="34.2362446" lon="7.9935679"><ele>13.0</ele><time>2026-04-30T10:23:38.669Z</time></trkpt><trkpt lat="34.2364265" lon="7.9934384"><ele>13.0</ele><time>2026-04-30T10:23:39.658Z</time></trkpt><trkpt lat="34.2366081" lon="7.9933111"><ele>13.333333333333332</ele><time>2026-04-30T10:23:40.647Z</time></trkpt><trkpt lat="34.2367926" lon="7.9931869"><ele>13.666666666666668</ele><time>2026-04-30T10:23:41.664Z</time></trkpt><trkpt lat="34.2369746" lon="7.993064"><ele>14.0</ele><time>2026-04-30T10:23:42.653Z</time></trkpt><trkpt lat="34.237159" lon="7.9929505"><ele>14.666666666666668</ele><time>2026-04-30T10:23:43.657Z</time></trkpt><trkpt lat="34.2373431" lon="7.9928324"><ele>15.333333333333332</ele><time>2026-04-30T10:23:44.643Z</time></trkpt><trkpt lat="34.2375277" lon="7.9927151"><ele>16.0</ele><time>2026-04-30T10:23:45.667Z</time></trkpt><trkpt lat="34.237712" lon="7.9926012"><ele>16.0</ele><time>2026-04-30T10:23:46.667Z</time></trkpt><trkpt lat="34.2378969" lon="7.9924921"><ele>16.0</ele><time>2026-04-30T10:23:47.673Z</time></trkpt><trkpt lat="34.2380804" lon="7.9923827"><ele>16.0</ele><time>2026-04-30T10:23:48.683Z</time></trkpt><trkpt lat="34.2382619" lon="7.9922731"><ele>16.666666666666664</ele><time>2026-04-30T10:23:49.669Z</time></trkpt><trkpt lat="34.2384384" lon="7.9921669"><ele>17.333333333333332</ele><time>2026-04-30T10:23:50.666Z</time></trkpt><trkpt lat="34.2386114" lon="7.9920631"><ele>18.0</ele><time>2026-04-30T10:23:51.657Z</time></trkpt><trkpt lat="34.2387856" lon="7.9919583"><ele>18.0</ele><time>2026-04-30T10:23:52.651Z</time></trkpt><trkpt lat="34.2389666" lon="7.9918504"><ele>18.0</ele><time>2026-04-30T10:23:53.664Z</time></trkpt><trkpt lat="34.2391507" lon="7.9917349"><ele>18.0</ele><time>2026-04-30T10:23:54.652Z</time></trkpt><trkpt lat="34.239338" lon="7.9916158"><ele>18.333333333333332</ele><time>2026-04-30T10:23:55.664Z</time></trkpt><trkpt lat="34.2395286" lon="7.9915064"><ele>18.666666666666664</ele><time>2026-04-30T10:23:56.649Z</time></trkpt><trkpt lat="34.2397207" lon="7.9913958"><ele>19.0</ele><time>2026-04-30T10:23:57.665Z</time></trkpt><trkpt lat="34.2399073" lon="7.9912848"><ele>19.666666666666664</ele><time>2026-04-30T10:23:58.67Z</time></trkpt><trkpt lat="34.2400992" lon="7.9911661"><ele>20.333333333333332</ele><time>2026-04-30T10:23:59.656Z</time></trkpt><trkpt lat="34.2402914" lon="7.9910525"><ele>21.0</ele><time>2026-04-30T10:24:00.672Z</time></trkpt><trkpt lat="34.2404809" lon="7.9909397"><ele>20.333333333333332</ele><time>2026-04-30T10:24:01.662Z</time></trkpt><trkpt lat="34.240673" lon="7.9908273"><ele>19.666666666666664</ele><time>2026-04-30T10:24:02.65Z</time></trkpt><trkpt lat="34.2408627" lon="7.9907133"><ele>19.0</ele><time>2026-04-30T10:24:03.652Z</time></trkpt><trkpt lat="34.241052" lon="7.990598"><ele>19.0</ele><time>2026-04-30T10:24:04.655Z</time></trkpt><trkpt lat="34.2412398" lon="7.9904835"><ele>19.0</ele><time>2026-04-30T10:24:05.66Z</time></trkpt><trkpt lat="34.2414278" lon="7.9903722"><ele>19.0</ele><time>2026-04-30T10:24:06.654Z</time></trkpt><trkpt lat="34.2416106" lon="7.9902582"><ele>19.0</ele><time>2026-04-30T10:24:07.669Z</time></trkpt><trkpt lat="34.2417861" lon="7.9901484"><ele>19.0</ele><time>2026-04-30T10:24:08.664Z</time></trkpt><trkpt lat="34.2419562" lon="7.9900449"><ele>19.0</ele><time>2026-04-30T10:24:09.672Z</time></trkpt><trkpt lat="34.2421253" lon="7.9899469"><ele>19.0</ele><time>2026-04-30T10:24:10.663Z</time></trkpt><trkpt lat="34.2422945" lon="7.9898448"><ele>19.0</ele><time>2026-04-30T10:24:11.653Z</time></trkpt><trkpt lat="34.2424687" lon="7.9897342"><ele>19.0</ele><time>2026-04-30T10:24:12.656Z</time></trkpt><trkpt lat="34.2426439" lon="7.989624"><ele>19.666666666666664</ele><time>2026-04-30T10:24:13.654Z</time></trkpt><trkpt lat="34.2428165" lon="7.9895138"><ele>20.333333333333332</ele><time>2026-04-30T10:24:14.654Z</time></trkpt><trkpt lat="34.2429928" lon="7.9894083"><ele>21.0</ele><time>2026-04-30T10:24:15.65Z</time></trkpt><trkpt lat="34.2431655" lon="7.989298"><ele>21.333333333333332</ele><time>2026-04-30T10:24:16.644Z</time></trkpt><trkpt lat="34.2433491" lon="7.9891896"><ele>21.666666666666664</ele><time>2026-04-30T10:24:17.64Z</time></trkpt><trkpt lat="34.2435369" lon="7.9890766"><ele>22.0</ele><time>2026-04-30T10:24:18.664Z</time></trkpt><trkpt lat="34.2437282" lon="7.9889605"><ele>22.0</ele><time>2026-04-30T10:24:19.649Z</time></trkpt><trkpt lat="34.243924" lon="7.9888378"><ele>22.0</ele><time>2026-04-30T10:24:20.656Z</time></trkpt><trkpt lat="34.2441205" lon="7.9887155"><ele>22.0</ele><time>2026-04-30T10:24:21.666Z</time></trkpt><trkpt lat="34.244323" lon="7.9885859"><ele>22.0</ele><time>2026-04-30T10:24:22.666Z</time></trkpt><trkpt lat="34.2445313" lon="7.9884631"><ele>22.0</ele><time>2026-04-30T10:24:23.652Z</time></trkpt><trkpt lat="34.2447346" lon="7.9883444"><ele>22.0</ele><time>2026-04-30T10:24:24.658Z</time></trkpt><trkpt lat="34.2449334" lon="7.9882268"><ele>22.0</ele><time>2026-04-30T10:24:25.643Z</time></trkpt><trkpt lat="34.2451172" lon="7.9881057"><ele>22.0</ele><time>2026-04-30T10:24:26.65Z</time></trkpt><trkpt lat="34.2452953" lon="7.9880018"><ele>22.0</ele><time>2026-04-30T10:24:27.663Z</time></trkpt><trkpt lat="34.2454755" lon="7.9878992"><ele>22.0</ele><time>2026-04-30T10:24:28.67Z</time></trkpt><trkpt lat="34.2456557" lon="7.9877894"><ele>22.0</ele><time>2026-04-30T10:24:29.678Z</time></trkpt><trkpt lat="34.2458373" lon="7.9876821"><ele>22.333333333333332</ele><time>2026-04-30T10:24:30.674Z</time></trkpt><trkpt lat="34.2460206" lon="7.9875774"><ele>22.666666666666668</ele><time>2026-04-30T10:24:31.655Z</time></trkpt><trkpt lat="34.2462063" lon="7.9874721"><ele>23.0</ele><time>2026-04-30T10:24:32.648Z</time></trkpt><trkpt lat="34.2463956" lon="7.9873595"><ele>23.0</ele><time>2026-04-30T10:24:33.656Z</time></trkpt><trkpt lat="34.2465829" lon="7.9872482"><ele>23.0</ele><time>2026-04-30T10:24:34.649Z</time></trkpt><trkpt lat="34.2467699" lon="7.9871287"><ele>23.0</ele><time>2026-04-30T10:24:35.652Z</time></trkpt><trkpt lat="34.2469592" lon="7.9870186"><ele>23.0</ele><time>2026-04-30T10:24:36.658Z</time></trkpt><trkpt lat="34.2471483" lon="7.9869036"><ele>23.0</ele><time>2026-04-30T10:24:37.669Z</time></trkpt><trkpt lat="34.247336" lon="7.9867791"><ele>23.0</ele><time>2026-04-30T10:24:38.658Z</time></trkpt><trkpt lat="34.247518" lon="7.9866472"><ele>23.0</ele><time>2026-04-30T10:24:39.645Z</time></trkpt><trkpt lat="34.2476931" lon="7.986504"><ele>23.0</ele><time>2026-04-30T10:24:40.652Z</time></trkpt><trkpt lat="34.2478649" lon="7.9863447"><ele>23.0</ele><time>2026-04-30T10:24:41.64Z</time></trkpt><trkpt lat="34.2480293" lon="7.9861716"><ele>22.666666666666668</ele><time>2026-04-30T10:24:42.678Z</time></trkpt><trkpt lat="34.2481798" lon="7.9859944"><ele>22.333333333333332</ele><time>2026-04-30T10:24:43.664Z</time></trkpt><trkpt lat="34.2483232" lon="7.9858078"><ele>22.0</ele><time>2026-04-30T10:24:44.643Z</time></trkpt><trkpt lat="34.2484618" lon="7.985607"><ele>22.0</ele><time>2026-04-30T10:24:45.65Z</time></trkpt><trkpt lat="34.2485869" lon="7.9854071"><ele>22.0</ele><time>2026-04-30T10:24:46.647Z</time></trkpt><trkpt lat="34.2487053" lon="7.9851978"><ele>22.0</ele><time>2026-04-30T10:24:47.659Z</time></trkpt><trkpt lat="34.2488141" lon="7.9849809"><ele>22.0</ele><time>2026-04-30T10:24:48.653Z</time></trkpt><trkpt lat="34.2489187" lon="7.9847602"><ele>22.0</ele><time>2026-04-30T10:24:49.661Z</time></trkpt><trkpt lat="34.2490236" lon="7.9845398"><ele>22.0</ele><time>2026-04-30T10:24:50.647Z</time></trkpt><trkpt lat="34.2491342" lon="7.9843239"><ele>22.666666666666664</ele><time>2026-04-30T10:24:51.665Z</time></trkpt><trkpt lat="34.2492481" lon="7.9841075"><ele>23.333333333333332</ele><time>2026-04-30T10:24:52.632Z</time></trkpt><trkpt lat="34.2493654" lon="7.9838967"><ele>24.0</ele><time>2026-04-30T10:24:53.656Z</time></trkpt><trkpt lat="34.2494919" lon="7.9836931"><ele>24.0</ele><time>2026-04-30T10:24:54.649Z</time></trkpt><trkpt lat="34.2496249" lon="7.9834974"><ele>24.0</ele><time>2026-04-30T10:24:55.636Z</time></trkpt><trkpt lat="34.249766" lon="7.9833057"><ele>24.0</ele><time>2026-04-30T10:24:56.662Z</time></trkpt><trkpt lat="34.2499174" lon="7.9831242"><ele>23.666666666666668</ele><time>2026-04-30T10:24:57.667Z</time></trkpt><trkpt lat="34.2500664" lon="7.9829452"><ele>23.333333333333336</ele><time>2026-04-30T10:24:58.639Z</time></trkpt><trkpt lat="34.2502153" lon="7.982764"><ele>23.0</ele><time>2026-04-30T10:24:59.639Z</time></trkpt><trkpt lat="34.2503679" lon="7.9825867"><ele>23.0</ele><time>2026-04-30T10:25:00.634Z</time></trkpt><trkpt lat="34.2505237" lon="7.9824314"><ele>23.0</ele><time>2026-04-30T10:25:01.679Z</time></trkpt><trkpt lat="34.2506991" lon="7.9822788"><ele>23.0</ele><time>2026-04-30T10:25:02.656Z</time></trkpt><trkpt lat="34.2508772" lon="7.9821341"><ele>22.666666666666668</ele><time>2026-04-30T10:25:03.66Z</time></trkpt><trkpt lat="34.2510606" lon="7.9819991"><ele>22.333333333333332</ele><time>2026-04-30T10:25:04.641Z</time></trkpt><trkpt lat="34.2512485" lon="7.9818783"><ele>22.0</ele><time>2026-04-30T10:25:05.641Z</time></trkpt><trkpt lat="34.2514368" lon="7.98176"><ele>22.666666666666664</ele><time>2026-04-30T10:25:06.657Z</time></trkpt><trkpt lat="34.2516261" lon="7.9816394"><ele>23.333333333333332</ele><time>2026-04-30T10:25:07.66Z</time></trkpt><trkpt lat="34.2518177" lon="7.9815313"><ele>24.0</ele><time>2026-04-30T10:25:08.67Z</time></trkpt><trkpt lat="34.2520135" lon="7.9814226"><ele>24.0</ele><time>2026-04-30T10:25:09.65Z</time></trkpt><trkpt lat="34.2522024" lon="7.9813163"><ele>24.0</ele><time>2026-04-30T10:25:10.649Z</time></trkpt><trkpt lat="34.252393" lon="7.9812082"><ele>24.0</ele><time>2026-04-30T10:25:11.649Z</time></trkpt><trkpt lat="34.2525802" lon="7.9811037"><ele>24.0</ele><time>2026-04-30T10:25:12.64Z</time></trkpt><trkpt lat="34.2527711" lon="7.9810038"><ele>24.0</ele><time>2026-04-30T10:25:13.647Z</time></trkpt><trkpt lat="34.2529528" lon="7.9809004"><ele>24.0</ele><time>2026-04-30T10:25:14.654Z</time></trkpt><trkpt lat="34.2531343" lon="7.9807933"><ele>24.333333333333336</ele><time>2026-04-30T10:25:15.655Z</time></trkpt><trkpt lat="34.2533148" lon="7.9806852"><ele>24.666666666666668</ele><time>2026-04-30T10:25:16.647Z</time></trkpt><trkpt lat="34.253493" lon="7.980579"><ele>25.0</ele><time>2026-04-30T10:25:17.665Z</time></trkpt><trkpt lat="34.253674" lon="7.980468"><ele>25.0</ele><time>2026-04-30T10:25:18.628Z</time></trkpt><trkpt lat="34.2538577" lon="7.9803599"><ele>25.0</ele><time>2026-04-30T10:25:19.652Z</time></trkpt><trkpt lat="34.2540396" lon="7.9802561"><ele>25.0</ele><time>2026-04-30T10:25:20.662Z</time></trkpt><trkpt lat="34.2542252" lon="7.9801451"><ele>25.0</ele><time>2026-04-30T10:25:21.659Z</time></trkpt><trkpt lat="34.2544097" lon="7.9800312"><ele>25.0</ele><time>2026-04-30T10:25:22.631Z</time></trkpt><trkpt lat="34.2545986" lon="7.9799166"><ele>25.0</ele><time>2026-04-30T10:25:23.635Z</time></trkpt><trkpt lat="34.2547953" lon="7.9798031"><ele>25.0</ele><time>2026-04-30T10:25:24.66Z</time></trkpt><trkpt lat="34.2549871" lon="7.9796897"><ele>25.0</ele><time>2026-04-30T10:25:25.659Z</time></trkpt><trkpt lat="34.2551807" lon="7.9795828"><ele>25.0</ele><time>2026-04-30T10:25:26.655Z</time></trkpt><trkpt lat="34.2553742" lon="7.9794741"><ele>25.0</ele><time>2026-04-30T10:25:27.647Z</time></trkpt><trkpt lat="34.255571" lon="7.9793659"><ele>25.0</ele><time>2026-04-30T10:25:28.67Z</time></trkpt><trkpt lat="34.2557652" lon="7.9792532"><ele>25.0</ele><time>2026-04-30T10:25:29.654Z</time></trkpt><trkpt lat="34.2559642" lon="7.9791391"><ele>25.0</ele><time>2026-04-30T10:25:30.664Z</time></trkpt><trkpt lat="34.2561617" lon="7.9790229"><ele>25.0</ele><time>2026-04-30T10:25:31.639Z</time></trkpt><trkpt lat="34.2563555" lon="7.9789079"><ele>25.0</ele><time>2026-04-30T10:25:32.652Z</time></trkpt><trkpt lat="34.2565555" lon="7.9787911"><ele>25.0</ele><time>2026-04-30T10:25:33.651Z</time></trkpt><trkpt lat="34.2567518" lon="7.9786804"><ele>25.0</ele><time>2026-04-30T10:25:34.643Z</time></trkpt><trkpt lat="34.2569462" lon="7.9785655"><ele>25.0</ele><time>2026-04-30T10:25:35.651Z</time></trkpt><trkpt lat="34.257143" lon="7.9784496"><ele>26.0</ele><time>2026-04-30T10:25:36.658Z</time></trkpt><trkpt lat="34.2573311" lon="7.9783391"><ele>27.0</ele><time>2026-04-30T10:25:37.648Z</time></trkpt><trkpt lat="34.257514" lon="7.978232"><ele>28.0</ele><time>2026-04-30T10:25:38.65Z</time></trkpt><trkpt lat="34.2576909" lon="7.9781308"><ele>28.0</ele><time>2026-04-30T10:25:39.659Z</time></trkpt><trkpt lat="34.2578702" lon="7.9780274"><ele>28.0</ele><time>2026-04-30T10:25:40.671Z</time></trkpt><trkpt lat="34.2580501" lon="7.9779218"><ele>28.0</ele><time>2026-04-30T10:25:41.669Z</time></trkpt><trkpt lat="34.2582349" lon="7.9778104"><ele>27.666666666666668</ele><time>2026-04-30T10:25:42.654Z</time></trkpt><trkpt lat="34.2584197" lon="7.9777064"><ele>27.333333333333336</ele><time>2026-04-30T10:25:43.651Z</time></trkpt><trkpt lat="34.2586063" lon="7.9776066"><ele>27.0</ele><time>2026-04-30T10:25:44.649Z</time></trkpt><trkpt lat="34.2587962" lon="7.9774996"><ele>27.0</ele><time>2026-04-30T10:25:45.661Z</time></trkpt><trkpt lat="34.2589779" lon="7.9773958"><ele>27.0</ele><time>2026-04-30T10:25:46.652Z</time></trkpt><trkpt lat="34.2591647" lon="7.9772873"><ele>27.0</ele><time>2026-04-30T10:25:47.657Z</time></trkpt><trkpt lat="34.2593509" lon="7.977179"><ele>27.0</ele><time>2026-04-30T10:25:48.662Z</time></trkpt><trkpt lat="34.2595362" lon="7.9770723"><ele>27.0</ele><time>2026-04-30T10:25:49.65Z</time></trkpt><trkpt lat="34.2597263" lon="7.976957"><ele>27.0</ele><time>2026-04-30T10:25:50.659Z</time></trkpt><trkpt lat="34.2599157" lon="7.9768458"><ele>27.666666666666664</ele><time>2026-04-30T10:25:51.661Z</time></trkpt><trkpt lat="34.260105" lon="7.9767376"><ele>28.333333333333332</ele><time>2026-04-30T10:25:52.646Z</time></trkpt><trkpt lat="34.2602991" lon="7.9766288"><ele>29.0</ele><time>2026-04-30T10:25:53.659Z</time></trkpt><trkpt lat="34.2604909" lon="7.9765177"><ele>29.333333333333332</ele><time>2026-04-30T10:25:54.649Z</time></trkpt><trkpt lat="34.2606842" lon="7.9764062"><ele>29.666666666666664</ele><time>2026-04-30T10:25:55.652Z</time></trkpt><trkpt lat="34.2608771" lon="7.9762918"><ele>30.0</ele><time>2026-04-30T10:25:56.668Z</time></trkpt><trkpt lat="34.2610707" lon="7.9761804"><ele>30.0</ele><time>2026-04-30T10:25:57.641Z</time></trkpt><trkpt lat="34.2612615" lon="7.9760664"><ele>30.0</ele><time>2026-04-30T10:25:58.653Z</time></trkpt><trkpt lat="34.2614516" lon="7.9759528"><ele>30.0</ele><time>2026-04-30T10:25:59.646Z</time></trkpt><trkpt lat="34.2616426" lon="7.9758367"><ele>30.0</ele><time>2026-04-30T10:26:00.657Z</time></trkpt><trkpt lat="34.2618286" lon="7.9757192"><ele>30.0</ele><time>2026-04-30T10:26:01.647Z</time></trkpt><trkpt lat="34.2620135" lon="7.9755985"><ele>30.0</ele><time>2026-04-30T10:26:02.647Z</time></trkpt><trkpt lat="34.2621952" lon="7.9754737"><ele>30.333333333333336</ele><time>2026-04-30T10:26:03.659Z</time></trkpt><trkpt lat="34.2623816" lon="7.9753474"><ele>30.666666666666668</ele><time>2026-04-30T10:26:04.648Z</time></trkpt><trkpt lat="34.2625631" lon="7.9752266"><ele>31.0</ele><time>2026-04-30T10:26:05.644Z</time></trkpt><trkpt lat="34.2627425" lon="7.9751054"><ele>31.333333333333336</ele><time>2026-04-30T10:26:06.653Z</time></trkpt><trkpt lat="34.2629144" lon="7.9749836"><ele>31.666666666666664</ele><time>2026-04-30T10:26:07.662Z</time></trkpt><trkpt lat="34.2630921" lon="7.9748557"><ele>32.0</ele><time>2026-04-30T10:26:08.665Z</time></trkpt><trkpt lat="34.2632732" lon="7.9747307"><ele>32.0</ele><time>2026-04-30T10:26:09.645Z</time></trkpt><trkpt lat="34.2634497" lon="7.9746045"><ele>32.0</ele><time>2026-04-30T10:26:10.645Z</time></trkpt><trkpt lat="34.2636288" lon="7.9744731"><ele>32.0</ele><time>2026-04-30T10:26:11.66Z</time></trkpt><trkpt lat="34.263811" lon="7.9743392"><ele>32.0</ele><time>2026-04-30T10:26:12.664Z</time></trkpt><trkpt lat="34.2639956" lon="7.9742051"><ele>32.0</ele><time>2026-04-30T10:26:13.655Z</time></trkpt><trkpt lat="34.2641818" lon="7.9740694"><ele>32.0</ele><time>2026-04-30T10:26:14.658Z</time></trkpt><trkpt lat="34.2643711" lon="7.9739348"><ele>32.0</ele><time>2026-04-30T10:26:15.658Z</time></trkpt><trkpt lat="34.2645573" lon="7.9737984"><ele>32.0</ele><time>2026-04-30T10:26:16.665Z</time></trkpt><trkpt lat="34.2647454" lon="7.9736626"><ele>32.0</ele><time>2026-04-30T10:26:17.645Z</time></trkpt><trkpt lat="34.2649375" lon="7.9735248"><ele>32.33333333333333</ele><time>2026-04-30T10:26:18.649Z</time></trkpt><trkpt lat="34.2651279" lon="7.9733896"><ele>32.666666666666664</ele><time>2026-04-30T10:26:19.644Z</time></trkpt><trkpt lat="34.2653124" lon="7.9732497"><ele>33.0</ele><time>2026-04-30T10:26:20.653Z</time></trkpt><trkpt lat="34.2654979" lon="7.9731124"><ele>33.333333333333336</ele><time>2026-04-30T10:26:21.655Z</time></trkpt><trkpt lat="34.2656797" lon="7.9729779"><ele>33.66666666666667</ele><time>2026-04-30T10:26:22.66Z</time></trkpt><trkpt lat="34.2658623" lon="7.9728437"><ele>34.0</ele><time>2026-04-30T10:26:23.653Z</time></trkpt><trkpt lat="34.2660432" lon="7.9727111"><ele>34.0</ele><time>2026-04-30T10:26:24.649Z</time></trkpt><trkpt lat="34.2662229" lon="7.9725735"><ele>34.0</ele><time>2026-04-30T10:26:25.662Z</time></trkpt><trkpt lat="34.2664023" lon="7.9724314"><ele>34.0</ele><time>2026-04-30T10:26:26.639Z</time></trkpt><trkpt lat="34.2665751" lon="7.9722921"><ele>34.66666666666667</ele><time>2026-04-30T10:26:27.657Z</time></trkpt><trkpt lat="34.2667491" lon="7.9721532"><ele>35.333333333333336</ele><time>2026-04-30T10:26:28.66Z</time></trkpt><trkpt lat="34.2669243" lon="7.9720104"><ele>36.0</ele><time>2026-04-30T10:26:29.669Z</time></trkpt><trkpt lat="34.2671048" lon="7.9718672"><ele>36.0</ele><time>2026-04-30T10:26:30.653Z</time></trkpt><trkpt lat="34.2672781" lon="7.9717225"><ele>36.0</ele><time>2026-04-30T10:26:31.655Z</time></trkpt><trkpt lat="34.2674556" lon="7.9715707"><ele>36.0</ele><time>2026-04-30T10:26:32.676Z</time></trkpt><trkpt lat="34.267639" lon="7.9714218"><ele>35.666666666666664</ele><time>2026-04-30T10:26:33.647Z</time></trkpt><trkpt lat="34.2678168" lon="7.9712757"><ele>35.33333333333333</ele><time>2026-04-30T10:26:34.638Z</time></trkpt><trkpt lat="34.2679965" lon="7.9711317"><ele>35.0</ele><time>2026-04-30T10:26:35.664Z</time></trkpt><trkpt lat="34.2681758" lon="7.970991"><ele>35.666666666666664</ele><time>2026-04-30T10:26:36.641Z</time></trkpt><trkpt lat="34.2683545" lon="7.9708459"><ele>36.333333333333336</ele><time>2026-04-30T10:26:37.673Z</time></trkpt><trkpt lat="34.2685349" lon="7.9707017"><ele>37.0</ele><time>2026-04-30T10:26:38.664Z</time></trkpt><trkpt lat="34.2687129" lon="7.9705545"><ele>37.0</ele><time>2026-04-30T10:26:39.644Z</time></trkpt><trkpt lat="34.2688918" lon="7.9704067"><ele>37.0</ele><time>2026-04-30T10:26:40.66Z</time></trkpt><trkpt lat="34.2690703" lon="7.9702616"><ele>37.0</ele><time>2026-04-30T10:26:41.662Z</time></trkpt><trkpt lat="34.2692499" lon="7.9701145"><ele>37.0</ele><time>2026-04-30T10:26:42.66Z</time></trkpt><trkpt lat="34.269426" lon="7.9699683"><ele>37.0</ele><time>2026-04-30T10:26:43.645Z</time></trkpt><trkpt lat="34.2696046" lon="7.9698218"><ele>37.0</ele><time>2026-04-30T10:26:44.663Z</time></trkpt><trkpt lat="34.2697835" lon="7.9696736"><ele>37.0</ele><time>2026-04-30T10:26:45.651Z</time></trkpt><trkpt lat="34.2699617" lon="7.9695274"><ele>37.0</ele><time>2026-04-30T10:26:46.659Z</time></trkpt><trkpt lat="34.2701404" lon="7.9693823"><ele>37.0</ele><time>2026-04-30T10:26:47.659Z</time></trkpt><trkpt lat="34.2703201" lon="7.9692382"><ele>37.333333333333336</ele><time>2026-04-30T10:26:48.657Z</time></trkpt><trkpt lat="34.2704963" lon="7.969095"><ele>37.666666666666664</ele><time>2026-04-30T10:26:49.664Z</time></trkpt><trkpt lat="34.270673" lon="7.9689487"><ele>38.0</ele><time>2026-04-30T10:26:50.652Z</time></trkpt><trkpt lat="34.2708559" lon="7.9687959"><ele>38.33333333333333</ele><time>2026-04-30T10:26:51.67Z</time></trkpt><trkpt lat="34.2710427" lon="7.9686497"><ele>38.666666666666664</ele><time>2026-04-30T10:26:52.672Z</time></trkpt><trkpt lat="34.2712293" lon="7.9685008"><ele>39.0</ele><time>2026-04-30T10:26:53.663Z</time></trkpt><trkpt lat="34.2714155" lon="7.968353"><ele>39.0</ele><time>2026-04-30T10:26:54.659Z</time></trkpt><trkpt lat="34.2715921" lon="7.9682092"><ele>39.0</ele><time>2026-04-30T10:26:55.664Z</time></trkpt><trkpt lat="34.2717667" lon="7.968067"><ele>39.0</ele><time>2026-04-30T10:26:56.644Z</time></trkpt><trkpt lat="34.2719376" lon="7.9679279"><ele>39.0</ele><time>2026-04-30T10:26:57.662Z</time></trkpt><trkpt lat="34.2721126" lon="7.9677849"><ele>39.0</ele><time>2026-04-30T10:26:58.645Z</time></trkpt><trkpt lat="34.2722894" lon="7.9676445"><ele>39.0</ele><time>2026-04-30T10:26:59.638Z</time></trkpt><trkpt lat="34.2724606" lon="7.9675036"><ele>39.333333333333336</ele><time>2026-04-30T10:27:00.658Z</time></trkpt><trkpt lat="34.2726318" lon="7.9673618"><ele>39.66666666666667</ele><time>2026-04-30T10:27:01.66Z</time></trkpt><trkpt lat="34.2728044" lon="7.9672238"><ele>40.0</ele><time>2026-04-30T10:27:02.643Z</time></trkpt><trkpt lat="34.272979" lon="7.9670827"><ele>40.333333333333336</ele><time>2026-04-30T10:27:03.654Z</time></trkpt><trkpt lat="34.273158" lon="7.9669441"><ele>40.666666666666664</ele><time>2026-04-30T10:27:04.67Z</time></trkpt><trkpt lat="34.2733394" lon="7.9668069"><ele>41.0</ele><time>2026-04-30T10:27:05.665Z</time></trkpt><trkpt lat="34.2735187" lon="7.9666639"><ele>41.33333333333333</ele><time>2026-04-30T10:27:06.647Z</time></trkpt><trkpt lat="34.2736911" lon="7.9665199"><ele>41.666666666666664</ele><time>2026-04-30T10:27:07.652Z</time></trkpt><trkpt lat="34.2738628" lon="7.9663773"><ele>42.0</ele><time>2026-04-30T10:27:08.648Z</time></trkpt><trkpt lat="34.2740313" lon="7.9662367"><ele>42.0</ele><time>2026-04-30T10:27:09.657Z</time></trkpt><trkpt lat="34.2742018" lon="7.9661003"><ele>42.0</ele><time>2026-04-30T10:27:10.657Z</time></trkpt><trkpt lat="34.274375" lon="7.9659607"><ele>42.0</ele><time>2026-04-30T10:27:11.656Z</time></trkpt><trkpt lat="34.274551" lon="7.9658181"><ele>42.0</ele><time>2026-04-30T10:27:12.663Z</time></trkpt><trkpt lat="34.2747346" lon="7.965671"><ele>42.0</ele><time>2026-04-30T10:27:13.659Z</time></trkpt><trkpt lat="34.2749172" lon="7.9655248"><ele>42.0</ele><time>2026-04-30T10:27:14.659Z</time></trkpt><trkpt lat="34.2751049" lon="7.9653688"><ele>42.0</ele><time>2026-04-30T10:27:15.658Z</time></trkpt><trkpt lat="34.2752968" lon="7.9652174"><ele>42.0</ele><time>2026-04-30T10:27:16.649Z</time></trkpt><trkpt lat="34.2754915" lon="7.9650661"><ele>43.5</ele><time>2026-04-30T10:27:17.659Z</time></trkpt><trkpt lat="34.2756812" lon="7.9649132"><ele>45.0</ele><time>2026-04-30T10:27:18.651Z</time></trkpt><trkpt lat="34.2758706" lon="7.9647612"><ele>45.0</ele><time>2026-04-30T10:27:19.652Z</time></trkpt><trkpt lat="34.2760557" lon="7.9646175"><ele>45.0</ele><time>2026-04-30T10:27:20.671Z</time></trkpt><trkpt lat="34.2762441" lon="7.9644724"><ele>45.0</ele><time>2026-04-30T10:27:21.636Z</time></trkpt><trkpt lat="34.2764287" lon="7.9643222"><ele>45.0</ele><time>2026-04-30T10:27:22.62Z</time></trkpt><trkpt lat="34.2766118" lon="7.9641712"><ele>45.0</ele><time>2026-04-30T10:27:23.663Z</time></trkpt><trkpt lat="34.2768003" lon="7.9640149"><ele>45.0</ele><time>2026-04-30T10:27:24.646Z</time></trkpt><trkpt lat="34.2769891" lon="7.9638638"><ele>45.0</ele><time>2026-04-30T10:27:25.66Z</time></trkpt><trkpt lat="34.2771771" lon="7.9637124"><ele>45.0</ele><time>2026-04-30T10:27:26.658Z</time></trkpt><trkpt lat="34.2773672" lon="7.9635555"><ele>45.0</ele><time>2026-04-30T10:27:27.655Z</time></trkpt><trkpt lat="34.2775592" lon="7.9634049"><ele>45.0</ele><time>2026-04-30T10:27:28.654Z</time></trkpt><trkpt lat="34.277755" lon="7.9632493"><ele>45.0</ele><time>2026-04-30T10:27:29.648Z</time></trkpt><trkpt lat="34.2779503" lon="7.96309"><ele>45.5</ele><time>2026-04-30T10:27:30.663Z</time></trkpt><trkpt lat="34.2781415" lon="7.9629318"><ele>46.0</ele><time>2026-04-30T10:27:31.666Z</time></trkpt><trkpt lat="34.2783347" lon="7.9627754"><ele>46.0</ele><time>2026-04-30T10:27:32.663Z</time></trkpt><trkpt lat="34.2785295" lon="7.9626192"><ele>46.0</ele><time>2026-04-30T10:27:33.68Z</time></trkpt><trkpt lat="34.278727" lon="7.9624597"><ele>46.0</ele><time>2026-04-30T10:27:34.643Z</time></trkpt><trkpt lat="34.2789258" lon="7.9623004"><ele>46.0</ele><time>2026-04-30T10:27:35.659Z</time></trkpt><trkpt lat="34.2791226" lon="7.9621389"><ele>46.0</ele><time>2026-04-30T10:27:36.641Z</time></trkpt><trkpt lat="34.2793231" lon="7.9619746"><ele>46.0</ele><time>2026-04-30T10:27:37.659Z</time></trkpt><trkpt lat="34.2795231" lon="7.9618169"><ele>45.5</ele><time>2026-04-30T10:27:38.659Z</time></trkpt><trkpt lat="34.2797255" lon="7.9616607"><ele>45.0</ele><time>2026-04-30T10:27:39.669Z</time></trkpt><trkpt lat="34.2799213" lon="7.9615074"><ele>46.0</ele><time>2026-04-30T10:27:40.663Z</time></trkpt><trkpt lat="34.2801179" lon="7.9613546"><ele>47.0</ele><time>2026-04-30T10:27:41.66Z</time></trkpt><trkpt lat="34.2803151" lon="7.9611958"><ele>47.0</ele><time>2026-04-30T10:27:42.673Z</time></trkpt><trkpt lat="34.2805078" lon="7.9610324"><ele>47.0</ele><time>2026-04-30T10:27:43.653Z</time></trkpt><trkpt lat="34.2807079" lon="7.960868"><ele>48.0</ele><time>2026-04-30T10:27:44.659Z</time></trkpt><trkpt lat="34.2809025" lon="7.9607052"><ele>49.0</ele><time>2026-04-30T10:27:45.657Z</time></trkpt><trkpt lat="34.2811014" lon="7.960549"><ele>49.0</ele><time>2026-04-30T10:27:46.651Z</time></trkpt><trkpt lat="34.281298" lon="7.9603957"><ele>49.0</ele><time>2026-04-30T10:27:47.668Z</time></trkpt><trkpt lat="34.2814977" lon="7.960239"><ele>48.5</ele><time>2026-04-30T10:27:48.671Z</time></trkpt><trkpt lat="34.2816958" lon="7.9600841"><ele>48.0</ele><time>2026-04-30T10:27:49.657Z</time></trkpt><trkpt lat="34.2818926" lon="7.9599261"><ele>48.0</ele><time>2026-04-30T10:27:50.669Z</time></trkpt><trkpt lat="34.2820879" lon="7.9597661"><ele>48.0</ele><time>2026-04-30T10:27:51.664Z</time></trkpt><trkpt lat="34.2822838" lon="7.959605"><ele>49.0</ele><time>2026-04-30T10:27:52.648Z</time></trkpt><trkpt lat="34.2824785" lon="7.9594451"><ele>50.0</ele><time>2026-04-30T10:27:53.645Z</time></trkpt><trkpt lat="34.2826763" lon="7.9592834"><ele>49.0</ele><time>2026-04-30T10:27:54.656Z</time></trkpt><trkpt lat="34.2828757" lon="7.9591229"><ele>48.0</ele><time>2026-04-30T10:27:55.662Z</time></trkpt><trkpt lat="34.2830755" lon="7.9589602"><ele>49.5</ele><time>2026-04-30T10:27:56.655Z</time></trkpt><trkpt lat="34.2832739" lon="7.9588005"><ele>51.0</ele><time>2026-04-30T10:27:57.653Z</time></trkpt><trkpt lat="34.2834719" lon="7.9586439"><ele>51.0</ele><time>2026-04-30T10:27:58.658Z</time></trkpt><trkpt lat="34.2836696" lon="7.9584878"><ele>51.0</ele><time>2026-04-30T10:27:59.644Z</time></trkpt><trkpt lat="34.2838655" lon="7.958332"><ele>52.0</ele><time>2026-04-30T10:28:00.653Z</time></trkpt><trkpt lat="34.2840601" lon="7.9581734"><ele>53.0</ele><time>2026-04-30T10:28:01.652Z</time></trkpt><trkpt lat="34.2842542" lon="7.9580178"><ele>53.0</ele><time>2026-04-30T10:28:02.66Z</time></trkpt><trkpt lat="34.284451" lon="7.9578576"><ele>53.0</ele><time>2026-04-30T10:28:03.664Z</time></trkpt><trkpt lat="34.2846479" lon="7.957697"><ele>53.5</ele><time>2026-04-30T10:28:04.643Z</time></trkpt><trkpt lat="34.2848461" lon="7.9575286"><ele>54.0</ele><time>2026-04-30T10:28:05.64Z</time></trkpt><trkpt lat="34.2850435" lon="7.9573672"><ele>54.0</ele><time>2026-04-30T10:28:06.625Z</time></trkpt><trkpt lat="34.285237" lon="7.9572083"><ele>54.0</ele><time>2026-04-30T10:28:07.655Z</time></trkpt><trkpt lat="34.2854338" lon="7.9570505"><ele>53.5</ele><time>2026-04-30T10:28:08.671Z</time></trkpt><trkpt lat="34.2856309" lon="7.9568932"><ele>53.0</ele><time>2026-04-30T10:28:09.657Z</time></trkpt><trkpt lat="34.2858288" lon="7.9567342"><ele>53.5</ele><time>2026-04-30T10:28:10.642Z</time></trkpt><trkpt lat="34.2860272" lon="7.9565731"><ele>54.0</ele><time>2026-04-30T10:28:11.656Z</time></trkpt><trkpt lat="34.2862245" lon="7.9564133"><ele>54.0</ele><time>2026-04-30T10:28:12.659Z</time></trkpt><trkpt lat="34.28642" lon="7.9562534"><ele>54.0</ele><time>2026-04-30T10:28:13.658Z</time></trkpt><trkpt lat="34.2866148" lon="7.956094"><ele>54.0</ele><time>2026-04-30T10:28:14.658Z</time></trkpt><trkpt lat="34.2868113" lon="7.95594"><ele>54.0</ele><time>2026-04-30T10:28:15.65Z</time></trkpt><trkpt lat="34.2870083" lon="7.955778"><ele>54.0</ele><time>2026-04-30T10:28:16.661Z</time></trkpt><trkpt lat="34.2872046" lon="7.9556193"><ele>54.0</ele><time>2026-04-30T10:28:17.66Z</time></trkpt><trkpt lat="34.2874015" lon="7.9554594"><ele>54.0</ele><time>2026-04-30T10:28:18.645Z</time></trkpt><trkpt lat="34.2875984" lon="7.9552984"><ele>54.0</ele><time>2026-04-30T10:28:19.649Z</time></trkpt><trkpt lat="34.2877959" lon="7.9551398"><ele>55.0</ele><time>2026-04-30T10:28:20.656Z</time></trkpt><trkpt lat="34.2879938" lon="7.9549874"><ele>56.0</ele><time>2026-04-30T10:28:21.652Z</time></trkpt><trkpt lat="34.2881945" lon="7.9548283"><ele>56.0</ele><time>2026-04-30T10:28:22.669Z</time></trkpt><trkpt lat="34.2883901" lon="7.9546671"><ele>56.0</ele><time>2026-04-30T10:28:23.658Z</time></trkpt><trkpt lat="34.2885852" lon="7.9545121"><ele>56.0</ele><time>2026-04-30T10:28:24.647Z</time></trkpt><trkpt lat="34.2887821" lon="7.9543529"><ele>56.0</ele><time>2026-04-30T10:28:25.666Z</time></trkpt><trkpt lat="34.288977" lon="7.9541859"><ele>58.0</ele><time>2026-04-30T10:28:26.65Z</time></trkpt><trkpt lat="34.2891717" lon="7.9540279"><ele>60.0</ele><time>2026-04-30T10:28:27.667Z</time></trkpt><trkpt lat="34.2893675" lon="7.9538642"><ele>60.0</ele><time>2026-04-30T10:28:28.663Z</time></trkpt><trkpt lat="34.2895611" lon="7.9537053"><ele>60.0</ele><time>2026-04-30T10:28:29.655Z</time></trkpt><trkpt lat="34.2897571" lon="7.9535459"><ele>59.5</ele><time>2026-04-30T10:28:30.665Z</time></trkpt><trkpt lat="34.2899542" lon="7.9533826"><ele>59.0</ele><time>2026-04-30T10:28:31.663Z</time></trkpt><trkpt lat="34.2901522" lon="7.9532298"><ele>59.0</ele><time>2026-04-30T10:28:32.649Z</time></trkpt><trkpt lat="34.2903474" lon="7.9530737"><ele>59.0</ele><time>2026-04-30T10:28:33.647Z</time></trkpt><trkpt lat="34.2905514" lon="7.9529191"><ele>59.0</ele><time>2026-04-30T10:28:34.648Z</time></trkpt><trkpt lat="34.2907619" lon="7.9527568"><ele>59.0</ele><time>2026-04-30T10:28:35.659Z</time></trkpt><trkpt lat="34.2909724" lon="7.9525827"><ele>59.0</ele><time>2026-04-30T10:28:36.657Z</time></trkpt><trkpt lat="34.2911885" lon="7.9523988"><ele>59.0</ele><time>2026-04-30T10:28:37.663Z</time></trkpt><trkpt lat="34.2914032" lon="7.9522209"><ele>59.5</ele><time>2026-04-30T10:28:38.653Z</time></trkpt><trkpt lat="34.2916218" lon="7.9520432"><ele>60.0</ele><time>2026-04-30T10:28:39.664Z</time></trkpt><trkpt lat="34.2918444" lon="7.9518703"><ele>61.0</ele><time>2026-04-30T10:28:40.663Z</time></trkpt><trkpt lat="34.2920653" lon="7.9516996"><ele>62.0</ele><time>2026-04-30T10:28:41.658Z</time></trkpt><trkpt lat="34.2922867" lon="7.9515211"><ele>62.0</ele><time>2026-04-30T10:28:42.66Z</time></trkpt><trkpt lat="34.2925043" lon="7.9513448"><ele>62.0</ele><time>2026-04-30T10:28:43.673Z</time></trkpt><trkpt lat="34.2927189" lon="7.9511717"><ele>62.0</ele><time>2026-04-30T10:28:44.646Z</time></trkpt><trkpt lat="34.2929334" lon="7.950994"><ele>62.0</ele><time>2026-04-30T10:28:45.663Z</time></trkpt><trkpt lat="34.2931486" lon="7.9508234"><ele>62.5</ele><time>2026-04-30T10:28:46.671Z</time></trkpt><trkpt lat="34.2933606" lon="7.9506547"><ele>63.0</ele><time>2026-04-30T10:28:47.658Z</time></trkpt><trkpt lat="34.2935702" lon="7.9504838"><ele>63.0</ele><time>2026-04-30T10:28:48.641Z</time></trkpt><trkpt lat="34.2937814" lon="7.9503088"><ele>63.0</ele><time>2026-04-30T10:28:49.658Z</time></trkpt><trkpt lat="34.2939895" lon="7.9501239"><ele>64.0</ele><time>2026-04-30T10:28:50.652Z</time></trkpt><trkpt lat="34.2941845" lon="7.9499322"><ele>65.0</ele><time>2026-04-30T10:28:51.648Z</time></trkpt><trkpt lat="34.2943806" lon="7.9497354"><ele>65.0</ele><time>2026-04-30T10:28:52.665Z</time></trkpt><trkpt lat="34.2945707" lon="7.9495306"><ele>65.0</ele><time>2026-04-30T10:28:53.662Z</time></trkpt><trkpt lat="34.2947634" lon="7.9493123"><ele>65.0</ele><time>2026-04-30T10:28:54.64Z</time></trkpt><trkpt lat="34.2949626" lon="7.949097"><ele>65.0</ele><time>2026-04-30T10:28:55.667Z</time></trkpt><trkpt lat="34.2951617" lon="7.9488823"><ele>65.0</ele><time>2026-04-30T10:28:56.645Z</time></trkpt><trkpt lat="34.2953653" lon="7.9486672"><ele>65.0</ele><time>2026-04-30T10:28:57.661Z</time></trkpt><trkpt lat="34.295569" lon="7.9484574"><ele>65.0</ele><time>2026-04-30T10:28:58.659Z</time></trkpt><trkpt lat="34.2957695" lon="7.9482402"><ele>65.0</ele><time>2026-04-30T10:28:59.669Z</time></trkpt><trkpt lat="34.2959712" lon="7.9480234"><ele>65.0</ele><time>2026-04-30T10:29:00.672Z</time></trkpt><trkpt lat="34.2961752" lon="7.9478072"><ele>65.0</ele><time>2026-04-30T10:29:01.649Z</time></trkpt><trkpt lat="34.2963822" lon="7.9475965"><ele>65.5</ele><time>2026-04-30T10:29:02.652Z</time></trkpt><trkpt lat="34.2965832" lon="7.9473857"><ele>66.0</ele><time>2026-04-30T10:29:03.662Z</time></trkpt><trkpt lat="34.2967831" lon="7.9471755"><ele>66.0</ele><time>2026-04-30T10:29:04.652Z</time></trkpt><trkpt lat="34.2969807" lon="7.9469636"><ele>66.0</ele><time>2026-04-30T10:29:05.647Z</time></trkpt><trkpt lat="34.297178" lon="7.9467542"><ele>66.0</ele><time>2026-04-30T10:29:06.65Z</time></trkpt><trkpt lat="34.2973775" lon="7.9465553"><ele>66.0</ele><time>2026-04-30T10:29:07.644Z</time></trkpt><trkpt lat="34.297578" lon="7.9463559"><ele>66.0</ele><time>2026-04-30T10:29:08.653Z</time></trkpt><trkpt lat="34.2977857" lon="7.9461798"><ele>66.0</ele><time>2026-04-30T10:29:09.658Z</time></trkpt><trkpt lat="34.298006" lon="7.946026"><ele>67.0</ele><time>2026-04-30T10:29:10.658Z</time></trkpt><trkpt lat="34.2982318" lon="7.9458936"><ele>68.0</ele><time>2026-04-30T10:29:11.654Z</time></trkpt><trkpt lat="34.2984678" lon="7.9457688"><ele>68.5</ele><time>2026-04-30T10:29:12.659Z</time></trkpt><trkpt lat="34.2987142" lon="7.945655"><ele>69.0</ele><time>2026-04-30T10:29:13.673Z</time></trkpt><trkpt lat="34.2989629" lon="7.9455523"><ele>69.5</ele><time>2026-04-30T10:29:14.663Z</time></trkpt><trkpt lat="34.2992069" lon="7.9454514"><ele>70.0</ele><time>2026-04-30T10:29:15.657Z</time></trkpt><trkpt lat="34.2994458" lon="7.9453435"><ele>70.0</ele><time>2026-04-30T10:29:16.663Z</time></trkpt><trkpt lat="34.299685" lon="7.9452374"><ele>70.0</ele><time>2026-04-30T10:29:17.656Z</time></trkpt><trkpt lat="34.2999223" lon="7.9451273"><ele>70.0</ele><time>2026-04-30T10:29:18.661Z</time></trkpt><trkpt lat="34.3001603" lon="7.9450127"><ele>70.0</ele><time>2026-04-30T10:29:19.659Z</time></trkpt><trkpt lat="34.3003968" lon="7.9448992"><ele>71.5</ele><time>2026-04-30T10:29:20.666Z</time></trkpt><trkpt lat="34.3006293" lon="7.9447845"><ele>73.0</ele><time>2026-04-30T10:29:21.666Z</time></trkpt><trkpt lat="34.3008605" lon="7.9446633"><ele>73.0</ele><time>2026-04-30T10:29:22.661Z</time></trkpt><trkpt lat="34.3010902" lon="7.9445517"><ele>73.0</ele><time>2026-04-30T10:29:23.662Z</time></trkpt><trkpt lat="34.3013204" lon="7.9444454"><ele>73.0</ele><time>2026-04-30T10:29:24.646Z</time></trkpt><trkpt lat="34.3015536" lon="7.9443362"><ele>73.0</ele><time>2026-04-30T10:29:25.658Z</time></trkpt><trkpt lat="34.3017865" lon="7.9442236"><ele>73.0</ele><time>2026-04-30T10:29:26.658Z</time></trkpt><trkpt lat="34.3020212" lon="7.9441113"><ele>73.0</ele><time>2026-04-30T10:29:27.654Z</time></trkpt><trkpt lat="34.3022507" lon="7.944001"><ele>73.0</ele><time>2026-04-30T10:29:28.661Z</time></trkpt><trkpt lat="34.3024864" lon="7.9438949"><ele>73.0</ele><time>2026-04-30T10:29:29.651Z</time></trkpt><trkpt lat="34.3027239" lon="7.9437943"><ele>73.0</ele><time>2026-04-30T10:29:30.653Z</time></trkpt><trkpt lat="34.3029604" lon="7.9436958"><ele>73.0</ele><time>2026-04-30T10:29:31.645Z</time></trkpt><trkpt lat="34.303193" lon="7.9435938"><ele>74.5</ele><time>2026-04-30T10:29:32.635Z</time></trkpt><trkpt lat="34.3034271" lon="7.9434933"><ele>76.0</ele><time>2026-04-30T10:29:33.657Z</time></trkpt><trkpt lat="34.3036605" lon="7.9434003"><ele>76.0</ele><time>2026-04-30T10:29:34.688Z</time></trkpt><trkpt lat="34.3038936" lon="7.9433089"><ele>76.0</ele><time>2026-04-30T10:29:35.67Z</time></trkpt><trkpt lat="34.3041309" lon="7.9432174"><ele>77.5</ele><time>2026-04-30T10:29:36.665Z</time></trkpt><trkpt lat="34.3043625" lon="7.9431269"><ele>79.0</ele><time>2026-04-30T10:29:37.657Z</time></trkpt><trkpt lat="34.3045942" lon="7.9430409"><ele>80.0</ele><time>2026-04-30T10:29:38.642Z</time></trkpt><trkpt lat="34.3048197" lon="7.9429569"><ele>81.0</ele><time>2026-04-30T10:29:39.62Z</time></trkpt><trkpt lat="34.3050465" lon="7.9428639"><ele>81.0</ele><time>2026-04-30T10:29:40.622Z</time></trkpt><trkpt lat="34.3052738" lon="7.9427779"><ele>81.0</ele><time>2026-04-30T10:29:41.625Z</time></trkpt><trkpt lat="34.3054963" lon="7.9426978"><ele>83.0</ele><time>2026-04-30T10:29:42.663Z</time></trkpt><trkpt lat="34.3059468" lon="7.9425487"><ele>83.5</ele><time>2026-04-30T10:29:44.691Z</time></trkpt><trkpt lat="34.3061759" lon="7.9424703"><ele>84.0</ele><time>2026-04-30T10:29:45.652Z</time></trkpt><trkpt lat="34.3066404" lon="7.9423112"><ele>84.0</ele><time>2026-04-30T10:29:47.624Z</time></trkpt><trkpt lat="34.3068684" lon="7.942233"><ele>84.0</ele><time>2026-04-30T10:29:48.656Z</time></trkpt><trkpt lat="34.3073317" lon="7.9420857"><ele>85.0</ele><time>2026-04-30T10:29:50.641Z</time></trkpt><trkpt lat="34.3075641" lon="7.942009"><ele>86.0</ele><time>2026-04-30T10:29:51.688Z</time></trkpt><trkpt lat="34.3077918" lon="7.9419338"><ele>86.0</ele><time>2026-04-30T10:29:52.646Z</time></trkpt><trkpt lat="34.3080219" lon="7.9418662"><ele>86.0</ele><time>2026-04-30T10:29:53.624Z</time></trkpt><trkpt lat="34.3082492" lon="7.9417988"><ele>86.0</ele><time>2026-04-30T10:29:54.64Z</time></trkpt><trkpt lat="34.3084563" lon="7.9417342"><ele>86.0</ele><time>2026-04-30T10:29:55.636Z</time></trkpt><trkpt lat="34.3086405" lon="7.9416726"><ele>86.0</ele><time>2026-04-30T10:29:56.664Z</time></trkpt><trkpt lat="34.3087941" lon="7.9416235"><ele>86.25</ele><time>2026-04-30T10:29:57.619Z</time></trkpt><trkpt lat="34.308938" lon="7.9415815"><ele>86.5</ele><time>2026-04-30T10:29:58.661Z</time></trkpt><trkpt lat="34.3090521" lon="7.9415462"><ele>86.75</ele><time>2026-04-30T10:29:59.648Z</time></trkpt><trkpt lat="34.3091559" lon="7.9415204"><ele>87.0</ele><time>2026-04-30T10:30:00.672Z</time></trkpt><trkpt lat="34.309256" lon="7.941527"><ele>87.0</ele><time>2026-04-30T10:30:01.652Z</time></trkpt><trkpt lat="34.3093542" lon="7.9415451"><ele>87.0</ele><time>2026-04-30T10:30:02.645Z</time></trkpt><trkpt lat="34.3094391" lon="7.941554"><ele>87.0</ele><time>2026-04-30T10:30:03.667Z</time></trkpt><trkpt lat="34.3095185" lon="7.9415568"><ele>87.0</ele><time>2026-04-30T10:30:04.646Z</time></trkpt><trkpt lat="34.309596" lon="7.9415637"><ele>87.0</ele><time>2026-04-30T10:30:05.666Z</time></trkpt><trkpt lat="34.3096796" lon="7.9415689"><ele>87.0</ele><time>2026-04-30T10:30:06.653Z</time></trkpt><trkpt lat="34.3097715" lon="7.9415725"><ele>88.0</ele><time>2026-04-30T10:30:07.648Z</time></trkpt><trkpt lat="34.3098794" lon="7.9415809"><ele>89.0</ele><time>2026-04-30T10:30:08.67Z</time></trkpt><trkpt lat="34.3099883" lon="7.941576"><ele>90.0</ele><time>2026-04-30T10:30:09.669Z</time></trkpt><trkpt lat="34.3101081" lon="7.9415631"><ele>91.0</ele><time>2026-04-30T10:30:10.659Z</time></trkpt><trkpt lat="34.3102347" lon="7.9415471"><ele>91.0</ele><time>2026-04-30T10:30:11.657Z</time></trkpt><trkpt lat="34.3103793" lon="7.941528"><ele>91.0</ele><time>2026-04-30T10:30:12.667Z</time></trkpt><trkpt lat="34.310535" lon="7.9414986"><ele>91.0</ele><time>2026-04-30T10:30:13.661Z</time></trkpt><trkpt lat="34.3107154" lon="7.9414529"><ele>91.66666666666666</ele><time>2026-04-30T10:30:14.655Z</time></trkpt><trkpt lat="34.3109046" lon="7.9413774"><ele>92.33333333333333</ele><time>2026-04-30T10:30:15.655Z</time></trkpt><trkpt lat="34.3110921" lon="7.941282"><ele>93.0</ele><time>2026-04-30T10:30:16.645Z</time></trkpt><trkpt lat="34.3112849" lon="7.9411698"><ele>94.0</ele><time>2026-04-30T10:30:17.672Z</time></trkpt><trkpt lat="34.3114691" lon="7.9410441"><ele>95.0</ele><time>2026-04-30T10:30:18.682Z</time></trkpt><trkpt lat="34.3116421" lon="7.9409134"><ele>96.0</ele><time>2026-04-30T10:30:19.675Z</time></trkpt><trkpt lat="34.3117975" lon="7.9407922"><ele>96.33333333333334</ele><time>2026-04-30T10:30:20.665Z</time></trkpt><trkpt lat="34.3119478" lon="7.9406882"><ele>96.66666666666667</ele><time>2026-04-30T10:30:21.667Z</time></trkpt><trkpt lat="34.3120836" lon="7.9406018"><ele>97.0</ele><time>2026-04-30T10:30:22.656Z</time></trkpt><trkpt lat="34.3122234" lon="7.9405303"><ele>98.25</ele><time>2026-04-30T10:30:23.649Z</time></trkpt><trkpt lat="34.3123661" lon="7.9404928"><ele>99.5</ele><time>2026-04-30T10:30:24.662Z</time></trkpt><trkpt lat="34.3125125" lon="7.9404853"><ele>100.75</ele><time>2026-04-30T10:30:25.659Z</time></trkpt><trkpt lat="34.3126692" lon="7.9404932"><ele>102.0</ele><time>2026-04-30T10:30:26.663Z</time></trkpt><trkpt lat="34.3128445" lon="7.9405042"><ele>102.0</ele><time>2026-04-30T10:30:27.648Z</time></trkpt><trkpt lat="34.3130372" lon="7.9405058"><ele>102.0</ele><time>2026-04-30T10:30:28.671Z</time></trkpt><trkpt lat="34.3132399" lon="7.9405099"><ele>102.0</ele><time>2026-04-30T10:30:29.657Z</time></trkpt><trkpt lat="34.3134465" lon="7.9405184"><ele>103.33333333333334</ele><time>2026-04-30T10:30:30.652Z</time></trkpt><trkpt lat="34.3136586" lon="7.9405308"><ele>104.66666666666667</ele><time>2026-04-30T10:30:31.656Z</time></trkpt><trkpt lat="34.3138594" lon="7.9405392"><ele>106.0</ele><time>2026-04-30T10:30:32.667Z</time></trkpt><trkpt lat="34.3140525" lon="7.9405515"><ele>107.33333333333334</ele><time>2026-04-30T10:30:33.676Z</time></trkpt><trkpt lat="34.3142391" lon="7.9405644"><ele>108.66666666666666</ele><time>2026-04-30T10:30:34.65Z</time></trkpt><trkpt lat="34.3144055" lon="7.9405751"><ele>110.0</ele><time>2026-04-30T10:30:35.653Z</time></trkpt><trkpt lat="34.3145585" lon="7.9405826"><ele>110.0</ele><time>2026-04-30T10:30:36.65Z</time></trkpt><trkpt lat="34.3147043" lon="7.9405926"><ele>110.0</ele><time>2026-04-30T10:30:37.662Z</time></trkpt><trkpt lat="34.3148249" lon="7.9406197"><ele>110.0</ele><time>2026-04-30T10:30:38.653Z</time></trkpt><trkpt lat="34.3149296" lon="7.9406402"><ele>110.0</ele><time>2026-04-30T10:30:39.658Z</time></trkpt><trkpt lat="34.3150204" lon="7.9406445"><ele>110.66666666666666</ele><time>2026-04-30T10:30:40.654Z</time></trkpt><trkpt lat="34.3150919" lon="7.9406264"><ele>111.33333333333333</ele><time>2026-04-30T10:30:41.652Z</time></trkpt><trkpt lat="34.3151666" lon="7.9405781"><ele>112.0</ele><time>2026-04-30T10:30:42.651Z</time></trkpt><trkpt lat="34.3152486" lon="7.9405194"><ele>112.66666666666666</ele><time>2026-04-30T10:30:43.653Z</time></trkpt><trkpt lat="34.3153298" lon="7.9404574"><ele>113.33333333333333</ele><time>2026-04-30T10:30:44.635Z</time></trkpt><trkpt lat="34.3154198" lon="7.9404148"><ele>114.0</ele><time>2026-04-30T10:30:45.667Z</time></trkpt><trkpt lat="34.315513" lon="7.9403867"><ele>114.80000000000001</ele><time>2026-04-30T10:30:46.654Z</time></trkpt><trkpt lat="34.3156104" lon="7.9403699"><ele>115.60000000000001</ele><time>2026-04-30T10:30:47.654Z</time></trkpt><trkpt lat="34.3157129" lon="7.9403596"><ele>116.4</ele><time>2026-04-30T10:30:48.662Z</time></trkpt><trkpt lat="34.3158186" lon="7.94037"><ele>117.2</ele><time>2026-04-30T10:30:49.66Z</time></trkpt><trkpt lat="34.3159187" lon="7.9403925"><ele>118.0</ele><time>2026-04-30T10:30:50.657Z</time></trkpt><trkpt lat="34.3160156" lon="7.9404297"><ele>118.0</ele><time>2026-04-30T10:30:51.667Z</time></trkpt><trkpt lat="34.3161107" lon="7.940461"><ele>118.00000000000001</ele><time>2026-04-30T10:30:52.638Z</time></trkpt><trkpt lat="34.3162019" lon="7.9404624"><ele>118.00000000000001</ele><time>2026-04-30T10:30:53.651Z</time></trkpt><trkpt lat="34.3162929" lon="7.9404356"><ele>118.0</ele><time>2026-04-30T10:30:54.656Z</time></trkpt><trkpt lat="34.3163968" lon="7.9403917"><ele>118.0</ele><time>2026-04-30T10:30:55.652Z</time></trkpt><trkpt lat="34.316503" lon="7.9403597"><ele>118.25</ele><time>2026-04-30T10:30:56.684Z</time></trkpt><trkpt lat="34.3166188" lon="7.9403376"><ele>118.5</ele><time>2026-04-30T10:30:57.639Z</time></trkpt><trkpt lat="34.3167328" lon="7.9403172"><ele>118.75</ele><time>2026-04-30T10:30:58.671Z</time></trkpt><trkpt lat="34.3168461" lon="7.9402999"><ele>119.0</ele><time>2026-04-30T10:30:59.661Z</time></trkpt><trkpt lat="34.3169505" lon="7.9403031"><ele>119.0</ele><time>2026-04-30T10:31:00.66Z</time></trkpt><trkpt lat="34.3170447" lon="7.9403433"><ele>119.0</ele><time>2026-04-30T10:31:01.656Z</time></trkpt><trkpt lat="34.3171382" lon="7.9403773"><ele>119.0</ele><time>2026-04-30T10:31:02.644Z</time></trkpt><trkpt lat="34.3172329" lon="7.9403891"><ele>119.0</ele><time>2026-04-30T10:31:03.661Z</time></trkpt><trkpt lat="34.3173356" lon="7.9403786"><ele>119.0</ele><time>2026-04-30T10:31:04.659Z</time></trkpt><trkpt lat="34.3174474" lon="7.9403465"><ele>118.75</ele><time>2026-04-30T10:31:05.653Z</time></trkpt><trkpt lat="34.3175514" lon="7.9402953"><ele>118.5</ele><time>2026-04-30T10:31:06.655Z</time></trkpt><trkpt lat="34.3176553" lon="7.9402457"><ele>118.25</ele><time>2026-04-30T10:31:07.662Z</time></trkpt><trkpt lat="34.3177677" lon="7.940206"><ele>118.0</ele><time>2026-04-30T10:31:08.668Z</time></trkpt><trkpt lat="34.3178787" lon="7.9401766"><ele>118.0</ele><time>2026-04-30T10:31:09.656Z</time></trkpt><trkpt lat="34.3179872" lon="7.9401564"><ele>118.00000000000001</ele><time>2026-04-30T10:31:10.663Z</time></trkpt><trkpt lat="34.3180923" lon="7.9401247"><ele>118.00000000000001</ele><time>2026-04-30T10:31:11.665Z</time></trkpt><trkpt lat="34.3181956" lon="7.9400831"><ele>118.0</ele><time>2026-04-30T10:31:12.654Z</time></trkpt><trkpt lat="34.3182921" lon="7.9400288"><ele>118.0</ele><time>2026-04-30T10:31:13.651Z</time></trkpt><trkpt lat="34.3183757" lon="7.9399765"><ele>118.83333333333334</ele><time>2026-04-30T10:31:14.655Z</time></trkpt><trkpt lat="34.3184355" lon="7.9399314"><ele>119.66666666666667</ele><time>2026-04-30T10:31:15.663Z</time></trkpt><trkpt lat="34.3184864" lon="7.9398783"><ele>120.5</ele><time>2026-04-30T10:31:16.66Z</time></trkpt><trkpt lat="34.3185386" lon="7.9398097"><ele>121.33333333333334</ele><time>2026-04-30T10:31:18.658Z</time></trkpt><trkpt lat="34.3186038" lon="7.9397298"><ele>122.16666666666667</ele><time>2026-04-30T10:31:22.669Z</time></trkpt><trkpt lat="34.3186876" lon="7.9396844"><ele>123.0</ele><time>2026-04-30T10:31:24.653Z</time></trkpt><trkpt lat="34.3188018" lon="7.9396473"><ele>123.0</ele><time>2026-04-30T10:31:26.645Z</time></trkpt><trkpt lat="34.3188733" lon="7.9396272"><ele>123.0</ele><time>2026-04-30T10:31:27.662Z</time></trkpt><trkpt lat="34.3189456" lon="7.9396034"><ele>123.0</ele><time>2026-04-30T10:31:28.65Z</time></trkpt><trkpt lat="34.3190164" lon="7.9395831"><ele>123.0</ele><time>2026-04-30T10:31:29.65Z</time></trkpt><trkpt lat="34.3190876" lon="7.9395615"><ele>123.0</ele><time>2026-04-30T10:31:30.632Z</time></trkpt><trkpt lat="34.3191636" lon="7.9395362"><ele>123.0</ele><time>2026-04-30T10:31:31.655Z</time></trkpt><trkpt lat="34.3192435" lon="7.9395137"><ele>123.66666666666667</ele><time>2026-04-30T10:31:32.66Z</time></trkpt><trkpt lat="34.3193307" lon="7.9394846"><ele>124.33333333333334</ele><time>2026-04-30T10:31:33.66Z</time></trkpt><trkpt lat="34.3194181" lon="7.939451"><ele>125.0</ele><time>2026-04-30T10:31:34.634Z</time></trkpt><trkpt lat="34.3195049" lon="7.9394235"><ele>125.66666666666667</ele><time>2026-04-30T10:31:35.641Z</time></trkpt><trkpt lat="34.3195913" lon="7.9394073"><ele>126.33333333333334</ele><time>2026-04-30T10:31:36.634Z</time></trkpt><trkpt lat="34.3196762" lon="7.9393896"><ele>127.0</ele><time>2026-04-30T10:31:37.652Z</time></trkpt><trkpt lat="34.319761" lon="7.9393725"><ele>127.33333333333334</ele><time>2026-04-30T10:31:38.667Z</time></trkpt><trkpt lat="34.319846" lon="7.9393502"><ele>127.66666666666667</ele><time>2026-04-30T10:31:39.666Z</time></trkpt><trkpt lat="34.3199281" lon="7.9393321"><ele>128.0</ele><time>2026-04-30T10:31:40.659Z</time></trkpt><trkpt lat="34.3200067" lon="7.9393113"><ele>128.33333333333334</ele><time>2026-04-30T10:31:41.655Z</time></trkpt><trkpt lat="34.3200838" lon="7.9392964"><ele>128.66666666666666</ele><time>2026-04-30T10:31:42.645Z</time></trkpt><trkpt lat="34.3201531" lon="7.9392935"><ele>129.0</ele><time>2026-04-30T10:31:43.645Z</time></trkpt><trkpt lat="34.3202183" lon="7.9392924"><ele>129.0</ele><time>2026-04-30T10:31:44.656Z</time></trkpt><trkpt lat="34.3203265" lon="7.9392933"><ele>129.0</ele><time>2026-04-30T10:31:46.656Z</time></trkpt><trkpt lat="34.3204134" lon="7.9392812"><ele>129.0</ele><time>2026-04-30T10:31:48.654Z</time></trkpt><trkpt lat="34.320484" lon="7.9392432"><ele>129.0</ele><time>2026-04-30T10:31:51.649Z</time></trkpt><trkpt lat="34.320529" lon="7.9391655"><ele>129.0</ele><time>2026-04-30T10:31:54.666Z</time></trkpt><trkpt lat="34.3205903" lon="7.9390913"><ele>129.0</ele><time>2026-04-30T10:31:57.652Z</time></trkpt><trkpt lat="34.3206483" lon="7.9390418"><ele>139.0</ele><time>2026-04-30T10:32:13.66Z</time></trkpt><trkpt lat="34.3206653" lon="7.9391165"><ele>139.0</ele><time>2026-04-30T10:32:20.646Z</time></trkpt></trkseg><trkseg><trkpt lat="34.3206542" lon="7.9392158"><ele>139.0</ele><time>2026-04-30T11:17:13.631Z</time></trkpt><trkpt lat="34.3205894" lon="7.9392058"><ele>139.0</ele><time>2026-04-30T11:17:22.631Z</time></trkpt><trkpt lat="34.3205757" lon="7.9391038"><ele>139.0</ele><time>2026-04-30T11:17:26.654Z</time></trkpt><trkpt lat="34.3205984" lon="7.9390257"><ele>139.0</ele><time>2026-04-30T11:17:29.661Z</time></trkpt><trkpt lat="34.3205808" lon="7.9389483"><ele>139.0</ele><time>2026-04-30T11:17:32.677Z</time></trkpt><trkpt lat="34.3205456" lon="7.9388683"><ele>139.0</ele><time>2026-04-30T11:17:34.636Z</time></trkpt><trkpt lat="34.3204964" lon="7.9387202"><ele>137.5</ele><time>2026-04-30T11:17:36.623Z</time></trkpt><trkpt lat="34.3204723" lon="7.938637"><ele>136.0</ele><time>2026-04-30T11:17:37.624Z</time></trkpt><trkpt lat="34.3204365" lon="7.9385512"><ele>134.5</ele><time>2026-04-30T11:17:38.622Z</time></trkpt><trkpt lat="34.3204015" lon="7.9384583"><ele>133.0</ele><time>2026-04-30T11:17:39.613Z</time></trkpt><trkpt lat="34.3202676" lon="7.9380862"><ele>132.75</ele><time>2026-04-30T11:17:43.687Z</time></trkpt><trkpt lat="34.3201971" lon="7.9379055"><ele>132.5</ele><time>2026-04-30T11:17:45.644Z</time></trkpt><trkpt lat="34.3201178" lon="7.9377241"><ele>132.25</ele><time>2026-04-30T11:17:47.656Z</time></trkpt><trkpt lat="34.3200713" lon="7.9376315"><ele>132.0</ele><time>2026-04-30T11:17:48.617Z</time></trkpt><trkpt lat="34.320029" lon="7.9375461"><ele>131.2</ele><time>2026-04-30T11:17:49.65Z</time></trkpt><trkpt lat="34.3199998" lon="7.9374745"><ele>130.39999999999998</ele><time>2026-04-30T11:17:50.634Z</time></trkpt><trkpt lat="34.3199473" lon="7.9373584"><ele>129.60000000000002</ele><time>2026-04-30T11:17:52.628Z</time></trkpt><trkpt lat="34.3198824" lon="7.9372161"><ele>128.8</ele><time>2026-04-30T11:17:54.673Z</time></trkpt><trkpt lat="34.3198383" lon="7.9371309"><ele>128.0</ele><time>2026-04-30T11:17:55.646Z</time></trkpt><trkpt lat="34.3197971" lon="7.9370406"><ele>127.99999999999999</ele><time>2026-04-30T11:17:56.656Z</time></trkpt><trkpt lat="34.3197545" lon="7.9369472"><ele>128.0</ele><time>2026-04-30T11:17:57.677Z</time></trkpt><trkpt lat="34.3197073" lon="7.9368503"><ele>128.0</ele><time>2026-04-30T11:17:58.651Z</time></trkpt><trkpt lat="34.3196592" lon="7.9367588"><ele>128.0</ele><time>2026-04-30T11:17:59.647Z</time></trkpt><trkpt lat="34.3196134" lon="7.9366714"><ele>127.99999999999999</ele><time>2026-04-30T11:18:00.624Z</time></trkpt><trkpt lat="34.3195708" lon="7.9365888"><ele>128.0</ele><time>2026-04-30T11:18:01.625Z</time></trkpt><trkpt lat="34.319532" lon="7.936506"><ele>127.0</ele><time>2026-04-30T11:18:02.629Z</time></trkpt><trkpt lat="34.3194414" lon="7.936336"><ele>126.00000000000001</ele><time>2026-04-30T11:18:04.632Z</time></trkpt><trkpt lat="34.3193987" lon="7.9362432"><ele>125.00000000000001</ele><time>2026-04-30T11:18:05.65Z</time></trkpt><trkpt lat="34.3193466" lon="7.9361468"><ele>124.0</ele><time>2026-04-30T11:18:06.636Z</time></trkpt><trkpt lat="34.3192942" lon="7.9360537"><ele>123.0</ele><time>2026-04-30T11:18:07.639Z</time></trkpt><trkpt lat="34.319244" lon="7.935956"><ele>122.2</ele><time>2026-04-30T11:18:08.625Z</time></trkpt><trkpt lat="34.3191919" lon="7.9358552"><ele>121.4</ele><time>2026-04-30T11:18:09.647Z</time></trkpt><trkpt lat="34.3191408" lon="7.9357537"><ele>120.60000000000001</ele><time>2026-04-30T11:18:10.625Z</time></trkpt><trkpt lat="34.3190865" lon="7.9356606"><ele>119.80000000000001</ele><time>2026-04-30T11:18:11.639Z</time></trkpt><trkpt lat="34.3190285" lon="7.9355555"><ele>119.0</ele><time>2026-04-30T11:18:12.654Z</time></trkpt><trkpt lat="34.318974" lon="7.9354534"><ele>118.99999999999999</ele><time>2026-04-30T11:18:13.67Z</time></trkpt><trkpt lat="34.318924" lon="7.9353589"><ele>119.0</ele><time>2026-04-30T11:18:14.661Z</time></trkpt><trkpt lat="34.3188729" lon="7.9352697"><ele>119.0</ele><time>2026-04-30T11:18:15.636Z</time></trkpt><trkpt lat="34.3188236" lon="7.9351829"><ele>119.0</ele><time>2026-04-30T11:18:16.637Z</time></trkpt><trkpt lat="34.3187746" lon="7.935097"><ele>118.99999999999999</ele><time>2026-04-30T11:18:17.624Z</time></trkpt><trkpt lat="34.3187258" lon="7.9350073"><ele>119.0</ele><time>2026-04-30T11:18:18.678Z</time></trkpt><trkpt lat="34.3186815" lon="7.934915"><ele>118.33333333333333</ele><time>2026-04-30T11:18:19.627Z</time></trkpt><trkpt lat="34.3186414" lon="7.9348246"><ele>117.66666666666666</ele><time>2026-04-30T11:18:20.686Z</time></trkpt><trkpt lat="34.3185953" lon="7.9347461"><ele>117.0</ele><time>2026-04-30T11:18:21.683Z</time></trkpt><trkpt lat="34.3185536" lon="7.934655"><ele>116.33333333333334</ele><time>2026-04-30T11:18:22.658Z</time></trkpt><trkpt lat="34.3185096" lon="7.9345783"><ele>115.66666666666667</ele><time>2026-04-30T11:18:23.664Z</time></trkpt><trkpt lat="34.3184703" lon="7.9345084"><ele>115.0</ele><time>2026-04-30T11:18:24.621Z</time></trkpt><trkpt lat="34.3184367" lon="7.9344254"><ele>113.66666666666667</ele><time>2026-04-30T11:18:25.615Z</time></trkpt><trkpt lat="34.3182987" lon="7.9341282"><ele>112.33333333333334</ele><time>2026-04-30T11:18:28.62Z</time></trkpt><trkpt lat="34.3182368" lon="7.9340287"><ele>111.0</ele><time>2026-04-30T11:18:29.67Z</time></trkpt><trkpt lat="34.318179" lon="7.9339255"><ele>111.0</ele><time>2026-04-30T11:18:30.632Z</time></trkpt><trkpt lat="34.3181228" lon="7.9338288"><ele>111.0</ele><time>2026-04-30T11:18:31.626Z</time></trkpt><trkpt lat="34.318066" lon="7.9337305"><ele>111.0</ele><time>2026-04-30T11:18:32.612Z</time></trkpt><trkpt lat="34.3180162" lon="7.9336244"><ele>111.0</ele><time>2026-04-30T11:18:33.616Z</time></trkpt><trkpt lat="34.3179664" lon="7.9335216"><ele>111.0</ele><time>2026-04-30T11:18:34.617Z</time></trkpt><trkpt lat="34.3179159" lon="7.9334203"><ele>110.33333333333333</ele><time>2026-04-30T11:18:35.634Z</time></trkpt><trkpt lat="34.3178697" lon="7.9333284"><ele>109.66666666666666</ele><time>2026-04-30T11:18:36.608Z</time></trkpt><trkpt lat="34.31783" lon="7.9332394"><ele>109.0</ele><time>2026-04-30T11:18:37.623Z</time></trkpt><trkpt lat="34.3177885" lon="7.9331605"><ele>108.33333333333333</ele><time>2026-04-30T11:18:38.635Z</time></trkpt><trkpt lat="34.3177478" lon="7.933076"><ele>107.66666666666666</ele><time>2026-04-30T11:18:39.619Z</time></trkpt><trkpt lat="34.3177078" lon="7.9329941"><ele>107.0</ele><time>2026-04-30T11:18:40.61Z</time></trkpt><trkpt lat="34.3176677" lon="7.9329176"><ele>107.0</ele><time>2026-04-30T11:18:41.634Z</time></trkpt><trkpt lat="34.3176346" lon="7.9328497"><ele>106.99999999999999</ele><time>2026-04-30T11:18:42.643Z</time></trkpt><trkpt lat="34.3175877" lon="7.9327401"><ele>106.99999999999999</ele><time>2026-04-30T11:18:44.607Z</time></trkpt><trkpt lat="34.3176091" lon="7.932612"><ele>107.0</ele><time>2026-04-30T11:18:48.629Z</time></trkpt><trkpt lat="34.3176633" lon="7.9325275"><ele>107.0</ele><time>2026-04-30T11:18:49.618Z</time></trkpt><trkpt lat="34.3177312" lon="7.9324441"><ele>106.6</ele><time>2026-04-30T11:18:50.614Z</time></trkpt><trkpt lat="34.3178036" lon="7.9323546"><ele>106.19999999999999</ele><time>2026-04-30T11:18:51.62Z</time></trkpt><trkpt lat="34.3178678" lon="7.9322589"><ele>105.8</ele><time>2026-04-30T11:18:52.656Z</time></trkpt><trkpt lat="34.317943" lon="7.9321544"><ele>105.4</ele><time>2026-04-30T11:18:53.634Z</time></trkpt><trkpt lat="34.3180223" lon="7.9320546"><ele>105.0</ele><time>2026-04-30T11:18:54.668Z</time></trkpt><trkpt lat="34.3180974" lon="7.9319571"><ele>105.0</ele><time>2026-04-30T11:18:55.607Z</time></trkpt><trkpt lat="34.318172" lon="7.931865"><ele>105.0</ele><time>2026-04-30T11:18:56.629Z</time></trkpt><trkpt lat="34.3182354" lon="7.9317932"><ele>105.0</ele><time>2026-04-30T11:18:57.662Z</time></trkpt><trkpt lat="34.3182938" lon="7.9317179"><ele>105.0</ele><time>2026-04-30T11:18:58.611Z</time></trkpt><trkpt lat="34.3183494" lon="7.9316455"><ele>105.0</ele><time>2026-04-30T11:18:59.641Z</time></trkpt><trkpt lat="34.3184199" lon="7.9315592"><ele>104.5</ele><time>2026-04-30T11:19:00.658Z</time></trkpt><trkpt lat="34.3185044" lon="7.9314457"><ele>104.0</ele><time>2026-04-30T11:19:01.641Z</time></trkpt><trkpt lat="34.3185986" lon="7.93132"><ele>103.5</ele><time>2026-04-30T11:19:02.626Z</time></trkpt><trkpt lat="34.3187043" lon="7.9311958"><ele>103.0</ele><time>2026-04-30T11:19:03.642Z</time></trkpt><trkpt lat="34.3188136" lon="7.9310654"><ele>103.0</ele><time>2026-04-30T11:19:04.65Z</time></trkpt><trkpt lat="34.3189206" lon="7.9309264"><ele>103.0</ele><time>2026-04-30T11:19:05.627Z</time></trkpt><trkpt lat="34.3190315" lon="7.9307891"><ele>103.0</ele><time>2026-04-30T11:19:06.657Z</time></trkpt><trkpt lat="34.319143" lon="7.9306484"><ele>103.0</ele><time>2026-04-30T11:19:07.626Z</time></trkpt><trkpt lat="34.3192582" lon="7.9305072"><ele>103.0</ele><time>2026-04-30T11:19:08.631Z</time></trkpt><trkpt lat="34.3193745" lon="7.930369"><ele>103.0</ele><time>2026-04-30T11:19:09.636Z</time></trkpt><trkpt lat="34.3194945" lon="7.9302197"><ele>103.0</ele><time>2026-04-30T11:19:10.629Z</time></trkpt><trkpt lat="34.319617" lon="7.9300688"><ele>103.0</ele><time>2026-04-30T11:19:11.629Z</time></trkpt><trkpt lat="34.3197445" lon="7.9299109"><ele>103.0</ele><time>2026-04-30T11:19:12.643Z</time></trkpt><trkpt lat="34.3198717" lon="7.9297593"><ele>102.66666666666667</ele><time>2026-04-30T11:19:13.622Z</time></trkpt><trkpt lat="34.3199962" lon="7.9296039"><ele>102.33333333333334</ele><time>2026-04-30T11:19:14.656Z</time></trkpt><trkpt lat="34.3201229" lon="7.92945"><ele>102.0</ele><time>2026-04-30T11:19:15.641Z</time></trkpt><trkpt lat="34.3202472" lon="7.9292948"><ele>102.0</ele><time>2026-04-30T11:19:16.632Z</time></trkpt><trkpt lat="34.3203759" lon="7.9291317"><ele>102.0</ele><time>2026-04-30T11:19:17.636Z</time></trkpt><trkpt lat="34.3205013" lon="7.9289672"><ele>102.0</ele><time>2026-04-30T11:19:18.627Z</time></trkpt><trkpt lat="34.3206321" lon="7.9287976"><ele>102.33333333333334</ele><time>2026-04-30T11:19:19.636Z</time></trkpt><trkpt lat="34.3207636" lon="7.9286345"><ele>102.66666666666667</ele><time>2026-04-30T11:19:20.631Z</time></trkpt><trkpt lat="34.3208956" lon="7.9284615"><ele>103.0</ele><time>2026-04-30T11:19:21.648Z</time></trkpt><trkpt lat="34.3210278" lon="7.9282952"><ele>103.0</ele><time>2026-04-30T11:19:22.64Z</time></trkpt><trkpt lat="34.3211629" lon="7.928128"><ele>103.0</ele><time>2026-04-30T11:19:23.644Z</time></trkpt><trkpt lat="34.3212972" lon="7.9279623"><ele>103.0</ele><time>2026-04-30T11:19:24.639Z</time></trkpt><trkpt lat="34.3214323" lon="7.927796"><ele>103.0</ele><time>2026-04-30T11:19:25.637Z</time></trkpt><trkpt lat="34.3215685" lon="7.9276297"><ele>103.0</ele><time>2026-04-30T11:19:26.641Z</time></trkpt><trkpt lat="34.3217044" lon="7.9274616"><ele>103.0</ele><time>2026-04-30T11:19:27.642Z</time></trkpt><trkpt lat="34.3218393" lon="7.9272954"><ele>102.5</ele><time>2026-04-30T11:19:28.656Z</time></trkpt><trkpt lat="34.3221098" lon="7.9269477"><ele>102.0</ele><time>2026-04-30T11:19:30.64Z</time></trkpt><trkpt lat="34.3222451" lon="7.9267775"><ele>102.66666666666666</ele><time>2026-04-30T11:19:31.64Z</time></trkpt><trkpt lat="34.3223739" lon="7.9266079"><ele>103.33333333333333</ele><time>2026-04-30T11:19:32.633Z</time></trkpt><trkpt lat="34.3225061" lon="7.9264335"><ele>104.0</ele><time>2026-04-30T11:19:33.644Z</time></trkpt><trkpt lat="34.3226425" lon="7.9262621"><ele>104.0</ele><time>2026-04-30T11:19:34.634Z</time></trkpt><trkpt lat="34.3227814" lon="7.9260942"><ele>104.0</ele><time>2026-04-30T11:19:35.649Z</time></trkpt><trkpt lat="34.322917" lon="7.9259248"><ele>104.0</ele><time>2026-04-30T11:19:36.644Z</time></trkpt><trkpt lat="34.3230502" lon="7.9257572"><ele>104.33333333333333</ele><time>2026-04-30T11:19:37.629Z</time></trkpt><trkpt lat="34.3231789" lon="7.9255905"><ele>104.66666666666666</ele><time>2026-04-30T11:19:38.623Z</time></trkpt><trkpt lat="34.3233112" lon="7.9254261"><ele>105.0</ele><time>2026-04-30T11:19:39.622Z</time></trkpt><trkpt lat="34.3234455" lon="7.9252639"><ele>105.0</ele><time>2026-04-30T11:19:40.629Z</time></trkpt><trkpt lat="34.3235816" lon="7.9250966"><ele>105.0</ele><time>2026-04-30T11:19:41.634Z</time></trkpt><trkpt lat="34.3237187" lon="7.9249294"><ele>105.0</ele><time>2026-04-30T11:19:42.651Z</time></trkpt><trkpt lat="34.3238525" lon="7.9247636"><ele>106.33333333333334</ele><time>2026-04-30T11:19:43.655Z</time></trkpt><trkpt lat="34.3239865" lon="7.9245998"><ele>107.66666666666667</ele><time>2026-04-30T11:19:44.638Z</time></trkpt><trkpt lat="34.3241213" lon="7.9244378"><ele>109.0</ele><time>2026-04-30T11:19:45.648Z</time></trkpt><trkpt lat="34.3242525" lon="7.9242679"><ele>108.66666666666667</ele><time>2026-04-30T11:19:46.653Z</time></trkpt><trkpt lat="34.3243848" lon="7.9241039"><ele>108.33333333333334</ele><time>2026-04-30T11:19:47.651Z</time></trkpt><trkpt lat="34.3245106" lon="7.9239455"><ele>108.0</ele><time>2026-04-30T11:19:48.636Z</time></trkpt><trkpt lat="34.3246371" lon="7.9237868"><ele>109.66666666666666</ele><time>2026-04-30T11:19:49.646Z</time></trkpt><trkpt lat="34.3247644" lon="7.9236251"><ele>111.33333333333333</ele><time>2026-04-30T11:19:50.645Z</time></trkpt><trkpt lat="34.3248948" lon="7.9234657"><ele>113.0</ele><time>2026-04-30T11:19:51.651Z</time></trkpt><trkpt lat="34.325024" lon="7.9233005"><ele>113.0</ele><time>2026-04-30T11:19:52.649Z</time></trkpt><trkpt lat="34.3251528" lon="7.9231358"><ele>113.0</ele><time>2026-04-30T11:19:53.674Z</time></trkpt><trkpt lat="34.3252805" lon="7.9229718"><ele>113.0</ele><time>2026-04-30T11:19:54.633Z</time></trkpt><trkpt lat="34.3254086" lon="7.9228117"><ele>113.0</ele><time>2026-04-30T11:19:55.629Z</time></trkpt><trkpt lat="34.3255383" lon="7.9226587"><ele>113.0</ele><time>2026-04-30T11:19:56.635Z</time></trkpt><trkpt lat="34.3256629" lon="7.9225051"><ele>113.0</ele><time>2026-04-30T11:19:57.65Z</time></trkpt><trkpt lat="34.325787" lon="7.9223543"><ele>114.0</ele><time>2026-04-30T11:19:58.638Z</time></trkpt><trkpt lat="34.3259073" lon="7.9222043"><ele>115.0</ele><time>2026-04-30T11:19:59.644Z</time></trkpt><trkpt lat="34.3260279" lon="7.9220575"><ele>116.0</ele><time>2026-04-30T11:20:00.624Z</time></trkpt><trkpt lat="34.3261468" lon="7.9219094"><ele>116.0</ele><time>2026-04-30T11:20:01.634Z</time></trkpt><trkpt lat="34.3262624" lon="7.9217637"><ele>116.0</ele><time>2026-04-30T11:20:02.619Z</time></trkpt><trkpt lat="34.326379" lon="7.9216142"><ele>116.0</ele><time>2026-04-30T11:20:03.639Z</time></trkpt><trkpt lat="34.3265004" lon="7.9214666"><ele>117.0</ele><time>2026-04-30T11:20:04.634Z</time></trkpt><trkpt lat="34.3266255" lon="7.9213214"><ele>118.0</ele><time>2026-04-30T11:20:05.625Z</time></trkpt><trkpt lat="34.32675" lon="7.9211832"><ele>119.0</ele><time>2026-04-30T11:20:06.65Z</time></trkpt><trkpt lat="34.3268769" lon="7.9210509"><ele>119.0</ele><time>2026-04-30T11:20:07.653Z</time></trkpt><trkpt lat="34.3270069" lon="7.9209181"><ele>119.0</ele><time>2026-04-30T11:20:08.638Z</time></trkpt><trkpt lat="34.3271392" lon="7.9207965"><ele>119.0</ele><time>2026-04-30T11:20:09.64Z</time></trkpt><trkpt lat="34.3272732" lon="7.9206767"><ele>120.66666666666666</ele><time>2026-04-30T11:20:10.666Z</time></trkpt><trkpt lat="34.3274088" lon="7.920554"><ele>122.33333333333334</ele><time>2026-04-30T11:20:11.615Z</time></trkpt><trkpt lat="34.3275447" lon="7.9204382"><ele>124.0</ele><time>2026-04-30T11:20:12.612Z</time></trkpt><trkpt lat="34.3276842" lon="7.9203316"><ele>124.0</ele><time>2026-04-30T11:20:13.635Z</time></trkpt><trkpt lat="34.3278308" lon="7.9202405"><ele>124.0</ele><time>2026-04-30T11:20:14.646Z</time></trkpt><trkpt lat="34.3279766" lon="7.9201458"><ele>124.0</ele><time>2026-04-30T11:20:15.628Z</time></trkpt><trkpt lat="34.3281247" lon="7.920055"><ele>125.0</ele><time>2026-04-30T11:20:16.619Z</time></trkpt><trkpt lat="34.3282716" lon="7.9199634"><ele>126.0</ele><time>2026-04-30T11:20:17.629Z</time></trkpt><trkpt lat="34.3284206" lon="7.9198824"><ele>127.0</ele><time>2026-04-30T11:20:18.635Z</time></trkpt><trkpt lat="34.3285699" lon="7.9197898"><ele>127.0</ele><time>2026-04-30T11:20:19.647Z</time></trkpt><trkpt lat="34.3287193" lon="7.9196947"><ele>127.0</ele><time>2026-04-30T11:20:20.634Z</time></trkpt><trkpt lat="34.3288676" lon="7.9195915"><ele>127.0</ele><time>2026-04-30T11:20:21.632Z</time></trkpt><trkpt lat="34.3290196" lon="7.9194769"><ele>127.0</ele><time>2026-04-30T11:20:22.637Z</time></trkpt><trkpt lat="34.3291644" lon="7.9193594"><ele>127.0</ele><time>2026-04-30T11:20:23.638Z</time></trkpt><trkpt lat="34.3293058" lon="7.9192385"><ele>127.0</ele><time>2026-04-30T11:20:24.638Z</time></trkpt><trkpt lat="34.3294448" lon="7.9191088"><ele>127.0</ele><time>2026-04-30T11:20:25.637Z</time></trkpt><trkpt lat="34.3295751" lon="7.9189645"><ele>127.0</ele><time>2026-04-30T11:20:26.645Z</time></trkpt><trkpt lat="34.3297054" lon="7.9188169"><ele>127.0</ele><time>2026-04-30T11:20:27.641Z</time></trkpt><trkpt lat="34.329837" lon="7.9186684"><ele>126.66666666666667</ele><time>2026-04-30T11:20:28.633Z</time></trkpt><trkpt lat="34.3299649" lon="7.9185164"><ele>126.33333333333334</ele><time>2026-04-30T11:20:29.639Z</time></trkpt><trkpt lat="34.3300954" lon="7.918362"><ele>126.0</ele><time>2026-04-30T11:20:30.643Z</time></trkpt><trkpt lat="34.3302288" lon="7.918204"><ele>126.0</ele><time>2026-04-30T11:20:31.638Z</time></trkpt><trkpt lat="34.3303551" lon="7.9180491"><ele>126.0</ele><time>2026-04-30T11:20:32.666Z</time></trkpt><trkpt lat="34.3304855" lon="7.9178938"><ele>126.0</ele><time>2026-04-30T11:20:33.671Z</time></trkpt><trkpt lat="34.3306212" lon="7.9177358"><ele>126.33333333333334</ele><time>2026-04-30T11:20:34.632Z</time></trkpt><trkpt lat="34.3307565" lon="7.9175721"><ele>126.66666666666667</ele><time>2026-04-30T11:20:35.643Z</time></trkpt><trkpt lat="34.3308936" lon="7.9174088"><ele>127.0</ele><time>2026-04-30T11:20:36.619Z</time></trkpt><trkpt lat="34.3310321" lon="7.9172394"><ele>127.0</ele><time>2026-04-30T11:20:37.631Z</time></trkpt><trkpt lat="34.3311732" lon="7.9170675"><ele>127.0</ele><time>2026-04-30T11:20:38.651Z</time></trkpt><trkpt lat="34.331314" lon="7.9168952"><ele>127.0</ele><time>2026-04-30T11:20:39.654Z</time></trkpt><trkpt lat="34.3314574" lon="7.9167279"><ele>127.0</ele><time>2026-04-30T11:20:40.634Z</time></trkpt><trkpt lat="34.3316005" lon="7.9165603"><ele>127.0</ele><time>2026-04-30T11:20:41.633Z</time></trkpt><trkpt lat="34.3317397" lon="7.9163899"><ele>127.0</ele><time>2026-04-30T11:20:42.636Z</time></trkpt><trkpt lat="34.3318805" lon="7.9162137"><ele>127.0</ele><time>2026-04-30T11:20:43.645Z</time></trkpt><trkpt lat="34.3320169" lon="7.916045"><ele>127.0</ele><time>2026-04-30T11:20:44.626Z</time></trkpt><trkpt lat="34.3321576" lon="7.9158744"><ele>127.0</ele><time>2026-04-30T11:20:45.645Z</time></trkpt><trkpt lat="34.3322942" lon="7.9157067"><ele>127.0</ele><time>2026-04-30T11:20:46.648Z</time></trkpt><trkpt lat="34.3324321" lon="7.9155412"><ele>127.0</ele><time>2026-04-30T11:20:47.646Z</time></trkpt><trkpt lat="34.3325694" lon="7.9153775"><ele>127.0</ele><time>2026-04-30T11:20:48.641Z</time></trkpt><trkpt lat="34.3327048" lon="7.9152131"><ele>126.66666666666667</ele><time>2026-04-30T11:20:49.651Z</time></trkpt><trkpt lat="34.3328436" lon="7.9150473"><ele>126.33333333333334</ele><time>2026-04-30T11:20:50.636Z</time></trkpt><trkpt lat="34.3329805" lon="7.9148857"><ele>126.0</ele><time>2026-04-30T11:20:51.641Z</time></trkpt><trkpt lat="34.3331187" lon="7.9147207"><ele>126.0</ele><time>2026-04-30T11:20:52.649Z</time></trkpt><trkpt lat="34.3332552" lon="7.9145523"><ele>126.0</ele><time>2026-04-30T11:20:53.639Z</time></trkpt><trkpt lat="34.3333912" lon="7.914387"><ele>126.0</ele><time>2026-04-30T11:20:54.635Z</time></trkpt><trkpt lat="34.3335269" lon="7.9142216"><ele>126.0</ele><time>2026-04-30T11:20:55.652Z</time></trkpt><trkpt lat="34.3336593" lon="7.9140533"><ele>126.0</ele><time>2026-04-30T11:20:56.633Z</time></trkpt><trkpt lat="34.3337931" lon="7.9138899"><ele>126.0</ele><time>2026-04-30T11:20:57.647Z</time></trkpt><trkpt lat="34.3339288" lon="7.9137295"><ele>126.66666666666666</ele><time>2026-04-30T11:20:58.669Z</time></trkpt><trkpt lat="34.3340594" lon="7.9135712"><ele>127.33333333333333</ele><time>2026-04-30T11:20:59.672Z</time></trkpt><trkpt lat="34.3341901" lon="7.9134161"><ele>128.0</ele><time>2026-04-30T11:21:00.642Z</time></trkpt><trkpt lat="34.3343199" lon="7.9132559"><ele>128.0</ele><time>2026-04-30T11:21:01.64Z</time></trkpt><trkpt lat="34.3344498" lon="7.9131055"><ele>128.0</ele><time>2026-04-30T11:21:02.647Z</time></trkpt><trkpt lat="34.3345789" lon="7.9129481"><ele>128.0</ele><time>2026-04-30T11:21:03.668Z</time></trkpt><trkpt lat="34.3347044" lon="7.9127921"><ele>128.33333333333331</ele><time>2026-04-30T11:21:04.672Z</time></trkpt><trkpt lat="34.3348291" lon="7.9126352"><ele>128.66666666666666</ele><time>2026-04-30T11:21:05.66Z</time></trkpt><trkpt lat="34.3349516" lon="7.9124838"><ele>129.0</ele><time>2026-04-30T11:21:06.671Z</time></trkpt><trkpt lat="34.3350743" lon="7.9123359"><ele>129.0</ele><time>2026-04-30T11:21:07.677Z</time></trkpt><trkpt lat="34.3351992" lon="7.9121837"><ele>129.0</ele><time>2026-04-30T11:21:08.674Z</time></trkpt><trkpt lat="34.335322" lon="7.9120301"><ele>129.0</ele><time>2026-04-30T11:21:09.677Z</time></trkpt><trkpt lat="34.3354405" lon="7.9118693"><ele>130.0</ele><time>2026-04-30T11:21:10.655Z</time></trkpt><trkpt lat="34.3355564" lon="7.9117035"><ele>131.0</ele><time>2026-04-30T11:21:11.649Z</time></trkpt><trkpt lat="34.3356677" lon="7.9115376"><ele>132.0</ele><time>2026-04-30T11:21:12.661Z</time></trkpt><trkpt lat="34.3357803" lon="7.9113656"><ele>132.0</ele><time>2026-04-30T11:21:13.669Z</time></trkpt><trkpt lat="34.3358941" lon="7.9111943"><ele>132.0</ele><time>2026-04-30T11:21:14.628Z</time></trkpt><trkpt lat="34.3359944" lon="7.911011"><ele>132.0</ele><time>2026-04-30T11:21:15.62Z</time></trkpt><trkpt lat="34.3360987" lon="7.9108257"><ele>132.66666666666666</ele><time>2026-04-30T11:21:16.664Z</time></trkpt><trkpt lat="34.3362024" lon="7.9106366"><ele>133.33333333333331</ele><time>2026-04-30T11:21:17.632Z</time></trkpt><trkpt lat="34.3362977" lon="7.9104476"><ele>134.0</ele><time>2026-04-30T11:21:18.648Z</time></trkpt><trkpt lat="34.3363967" lon="7.9102528"><ele>133.33333333333331</ele><time>2026-04-30T11:21:19.644Z</time></trkpt><trkpt lat="34.336492" lon="7.9100556"><ele>132.66666666666666</ele><time>2026-04-30T11:21:20.618Z</time></trkpt><trkpt lat="34.3365861" lon="7.9098543"><ele>132.0</ele><time>2026-04-30T11:21:21.62Z</time></trkpt><trkpt lat="34.3366825" lon="7.9096516"><ele>132.0</ele><time>2026-04-30T11:21:22.659Z</time></trkpt><trkpt lat="34.3367793" lon="7.9094481"><ele>132.0</ele><time>2026-04-30T11:21:23.618Z</time></trkpt><trkpt lat="34.3368775" lon="7.9092434"><ele>132.0</ele><time>2026-04-30T11:21:24.623Z</time></trkpt><trkpt lat="34.336976" lon="7.9090451"><ele>131.66666666666666</ele><time>2026-04-30T11:21:25.617Z</time></trkpt><trkpt lat="34.3370755" lon="7.9088445"><ele>131.33333333333331</ele><time>2026-04-30T11:21:26.613Z</time></trkpt><trkpt lat="34.3371765" lon="7.9086423"><ele>131.0</ele><time>2026-04-30T11:21:27.618Z</time></trkpt><trkpt lat="34.3372714" lon="7.9084459"><ele>131.33333333333331</ele><time>2026-04-30T11:21:28.62Z</time></trkpt><trkpt lat="34.3373692" lon="7.9082499"><ele>131.66666666666666</ele><time>2026-04-30T11:21:29.621Z</time></trkpt><trkpt lat="34.3374659" lon="7.9080566"><ele>132.0</ele><time>2026-04-30T11:21:30.621Z</time></trkpt><trkpt lat="34.3375661" lon="7.907863"><ele>132.0</ele><time>2026-04-30T11:21:31.621Z</time></trkpt><trkpt lat="34.3376597" lon="7.907677"><ele>132.0</ele><time>2026-04-30T11:21:32.621Z</time></trkpt><trkpt lat="34.3377631" lon="7.9074952"><ele>132.0</ele><time>2026-04-30T11:21:33.611Z</time></trkpt><trkpt lat="34.337865" lon="7.9073148"><ele>131.33333333333334</ele><time>2026-04-30T11:21:34.611Z</time></trkpt><trkpt lat="34.3379725" lon="7.9071312"><ele>130.66666666666669</ele><time>2026-04-30T11:21:35.623Z</time></trkpt><trkpt lat="34.3380866" lon="7.9069525"><ele>130.0</ele><time>2026-04-30T11:21:36.622Z</time></trkpt><trkpt lat="34.338202" lon="7.9067756"><ele>129.66666666666669</ele><time>2026-04-30T11:21:37.62Z</time></trkpt><trkpt lat="34.3383224" lon="7.9066049"><ele>129.33333333333334</ele><time>2026-04-30T11:21:38.62Z</time></trkpt><trkpt lat="34.3384414" lon="7.9064347"><ele>129.0</ele><time>2026-04-30T11:21:39.621Z</time></trkpt><trkpt lat="34.3385699" lon="7.9062712"><ele>129.0</ele><time>2026-04-30T11:21:40.618Z</time></trkpt><trkpt lat="34.3387007" lon="7.9061096"><ele>129.0</ele><time>2026-04-30T11:21:41.626Z</time></trkpt><trkpt lat="34.3388359" lon="7.9059575"><ele>129.0</ele><time>2026-04-30T11:21:42.621Z</time></trkpt><trkpt lat="34.3389757" lon="7.9058039"><ele>129.66666666666666</ele><time>2026-04-30T11:21:43.614Z</time></trkpt><trkpt lat="34.3391139" lon="7.9056517"><ele>130.33333333333331</ele><time>2026-04-30T11:21:44.616Z</time></trkpt><trkpt lat="34.3392529" lon="7.9054991"><ele>131.0</ele><time>2026-04-30T11:21:45.619Z</time></trkpt><trkpt lat="34.3393908" lon="7.9053453"><ele>131.0</ele><time>2026-04-30T11:21:46.626Z</time></trkpt><trkpt lat="34.3395334" lon="7.9051971"><ele>131.0</ele><time>2026-04-30T11:21:47.618Z</time></trkpt><trkpt lat="34.3396751" lon="7.9050524"><ele>131.0</ele><time>2026-04-30T11:21:48.639Z</time></trkpt><trkpt lat="34.3398173" lon="7.9049038"><ele>131.33333333333331</ele><time>2026-04-30T11:21:49.621Z</time></trkpt><trkpt lat="34.3399603" lon="7.9047611"><ele>131.66666666666666</ele><time>2026-04-30T11:21:50.63Z</time></trkpt><trkpt lat="34.3401029" lon="7.904613"><ele>132.0</ele><time>2026-04-30T11:21:51.617Z</time></trkpt><trkpt lat="34.340247" lon="7.904469"><ele>132.0</ele><time>2026-04-30T11:21:52.62Z</time></trkpt><trkpt lat="34.3403856" lon="7.9043248"><ele>132.0</ele><time>2026-04-30T11:21:53.636Z</time></trkpt><trkpt lat="34.3405236" lon="7.9041868"><ele>132.0</ele><time>2026-04-30T11:21:54.631Z</time></trkpt><trkpt lat="34.3406592" lon="7.904051"><ele>133.33333333333334</ele><time>2026-04-30T11:21:55.62Z</time></trkpt><trkpt lat="34.340787" lon="7.9039111"><ele>134.66666666666669</ele><time>2026-04-30T11:21:56.631Z</time></trkpt><trkpt lat="34.3409222" lon="7.9037616"><ele>136.0</ele><time>2026-04-30T11:21:57.62Z</time></trkpt><trkpt lat="34.3410489" lon="7.9036147"><ele>136.0</ele><time>2026-04-30T11:21:58.621Z</time></trkpt><trkpt lat="34.3411835" lon="7.9034682"><ele>136.0</ele><time>2026-04-30T11:21:59.615Z</time></trkpt><trkpt lat="34.341312" lon="7.9033154"><ele>136.0</ele><time>2026-04-30T11:22:00.617Z</time></trkpt><trkpt lat="34.3414399" lon="7.9031583"><ele>137.0</ele><time>2026-04-30T11:22:01.63Z</time></trkpt><trkpt lat="34.3415611" lon="7.9029993"><ele>138.0</ele><time>2026-04-30T11:22:02.624Z</time></trkpt><trkpt lat="34.3416868" lon="7.9028414"><ele>139.0</ele><time>2026-04-30T11:22:03.616Z</time></trkpt><trkpt lat="34.3418041" lon="7.9026735"><ele>138.66666666666669</ele><time>2026-04-30T11:22:04.625Z</time></trkpt><trkpt lat="34.341924" lon="7.9024986"><ele>138.33333333333334</ele><time>2026-04-30T11:22:05.616Z</time></trkpt><trkpt lat="34.3420391" lon="7.9023206"><ele>138.0</ele><time>2026-04-30T11:22:06.633Z</time></trkpt><trkpt lat="34.3421588" lon="7.9021444"><ele>139.0</ele><time>2026-04-30T11:22:07.625Z</time></trkpt><trkpt lat="34.3422768" lon="7.9019671"><ele>140.0</ele><time>2026-04-30T11:22:08.622Z</time></trkpt><trkpt lat="34.3423984" lon="7.9017974"><ele>141.0</ele><time>2026-04-30T11:22:09.63Z</time></trkpt><trkpt lat="34.3425276" lon="7.9016303"><ele>141.0</ele><time>2026-04-30T11:22:10.626Z</time></trkpt><trkpt lat="34.3426589" lon="7.9014686"><ele>141.0</ele><time>2026-04-30T11:22:11.622Z</time></trkpt><trkpt lat="34.3427918" lon="7.901309"><ele>141.0</ele><time>2026-04-30T11:22:12.617Z</time></trkpt><trkpt lat="34.342935" lon="7.9011499"><ele>140.66666666666666</ele><time>2026-04-30T11:22:13.624Z</time></trkpt><trkpt lat="34.3430797" lon="7.9009973"><ele>140.33333333333331</ele><time>2026-04-30T11:22:14.626Z</time></trkpt><trkpt lat="34.343228" lon="7.9008493"><ele>140.0</ele><time>2026-04-30T11:22:15.618Z</time></trkpt><trkpt lat="34.3433817" lon="7.9007005"><ele>140.0</ele><time>2026-04-30T11:22:16.615Z</time></trkpt><trkpt lat="34.3435389" lon="7.9005526"><ele>140.0</ele><time>2026-04-30T11:22:17.602Z</time></trkpt><trkpt lat="34.3436965" lon="7.9004097"><ele>140.0</ele><time>2026-04-30T11:22:18.616Z</time></trkpt><trkpt lat="34.343858" lon="7.900264"><ele>140.33333333333331</ele><time>2026-04-30T11:22:19.623Z</time></trkpt><trkpt lat="34.3440176" lon="7.9001234"><ele>140.66666666666666</ele><time>2026-04-30T11:22:20.609Z</time></trkpt><trkpt lat="34.3441723" lon="7.8999811"><ele>141.0</ele><time>2026-04-30T11:22:21.605Z</time></trkpt><trkpt lat="34.3443313" lon="7.899836"><ele>141.0</ele><time>2026-04-30T11:22:22.621Z</time></trkpt><trkpt lat="34.3444837" lon="7.8996958"><ele>141.0</ele><time>2026-04-30T11:22:23.647Z</time></trkpt><trkpt lat="34.3446382" lon="7.8995582"><ele>141.0</ele><time>2026-04-30T11:22:24.629Z</time></trkpt><trkpt lat="34.3447958" lon="7.8994158"><ele>142.33333333333334</ele><time>2026-04-30T11:22:25.629Z</time></trkpt><trkpt lat="34.3449472" lon="7.8992804"><ele>143.66666666666669</ele><time>2026-04-30T11:22:26.621Z</time></trkpt><trkpt lat="34.3450963" lon="7.8991451"><ele>145.0</ele><time>2026-04-30T11:22:27.622Z</time></trkpt><trkpt lat="34.3452446" lon="7.8990092"><ele>145.0</ele><time>2026-04-30T11:22:28.625Z</time></trkpt><trkpt lat="34.3453901" lon="7.8988687"><ele>145.0</ele><time>2026-04-30T11:22:29.615Z</time></trkpt><trkpt lat="34.3455347" lon="7.8987258"><ele>145.0</ele><time>2026-04-30T11:22:30.627Z</time></trkpt><trkpt lat="34.3456787" lon="7.8985772"><ele>145.33333333333334</ele><time>2026-04-30T11:22:31.635Z</time></trkpt><trkpt lat="34.3458221" lon="7.8984301"><ele>145.66666666666666</ele><time>2026-04-30T11:22:32.627Z</time></trkpt><trkpt lat="34.3459615" lon="7.8982752"><ele>146.0</ele><time>2026-04-30T11:22:33.624Z</time></trkpt><trkpt lat="34.3460983" lon="7.8981174"><ele>146.0</ele><time>2026-04-30T11:22:34.621Z</time></trkpt><trkpt lat="34.3462388" lon="7.8979618"><ele>146.0</ele><time>2026-04-30T11:22:35.618Z</time></trkpt><trkpt lat="34.3463746" lon="7.8978074"><ele>146.0</ele><time>2026-04-30T11:22:36.615Z</time></trkpt><trkpt lat="34.3465167" lon="7.8976473"><ele>146.66666666666666</ele><time>2026-04-30T11:22:37.603Z</time></trkpt><trkpt lat="34.3466602" lon="7.897486"><ele>147.33333333333334</ele><time>2026-04-30T11:22:38.633Z</time></trkpt><trkpt lat="34.3468026" lon="7.8973275"><ele>148.0</ele><time>2026-04-30T11:22:39.615Z</time></trkpt><trkpt lat="34.3469542" lon="7.8971796"><ele>148.0</ele><time>2026-04-30T11:22:40.617Z</time></trkpt><trkpt lat="34.3471123" lon="7.897034"><ele>148.0</ele><time>2026-04-30T11:22:41.621Z</time></trkpt><trkpt lat="34.347271" lon="7.8968859"><ele>148.0</ele><time>2026-04-30T11:22:42.611Z</time></trkpt><trkpt lat="34.3474297" lon="7.8967471"><ele>149.0</ele><time>2026-04-30T11:22:43.625Z</time></trkpt><trkpt lat="34.3475927" lon="7.8966177"><ele>150.0</ele><time>2026-04-30T11:22:44.62Z</time></trkpt><trkpt lat="34.3477588" lon="7.8964904"><ele>151.0</ele><time>2026-04-30T11:22:45.615Z</time></trkpt><trkpt lat="34.3479211" lon="7.8963587"><ele>152.0</ele><time>2026-04-30T11:22:46.616Z</time></trkpt><trkpt lat="34.3480902" lon="7.896228"><ele>153.0</ele><time>2026-04-30T11:22:47.622Z</time></trkpt><trkpt lat="34.3482611" lon="7.8960938"><ele>154.0</ele><time>2026-04-30T11:22:48.625Z</time></trkpt><trkpt lat="34.3484318" lon="7.8959675"><ele>154.0</ele><time>2026-04-30T11:22:49.609Z</time></trkpt><trkpt lat="34.3486012" lon="7.8958373"><ele>154.0</ele><time>2026-04-30T11:22:50.625Z</time></trkpt><trkpt lat="34.3487723" lon="7.8957096"><ele>154.0</ele><time>2026-04-30T11:22:51.628Z</time></trkpt><trkpt lat="34.3489433" lon="7.8955792"><ele>155.33333333333334</ele><time>2026-04-30T11:22:52.632Z</time></trkpt><trkpt lat="34.3491113" lon="7.8954401"><ele>156.66666666666666</ele><time>2026-04-30T11:22:53.613Z</time></trkpt><trkpt lat="34.3492793" lon="7.8953067"><ele>158.0</ele><time>2026-04-30T11:22:54.618Z</time></trkpt><trkpt lat="34.349449" lon="7.895177"><ele>158.33333333333331</ele><time>2026-04-30T11:22:55.624Z</time></trkpt><trkpt lat="34.3496214" lon="7.8950485"><ele>158.66666666666666</ele><time>2026-04-30T11:22:56.622Z</time></trkpt><trkpt lat="34.3497942" lon="7.8949216"><ele>159.0</ele><time>2026-04-30T11:22:57.62Z</time></trkpt><trkpt lat="34.3499654" lon="7.8947976"><ele>159.0</ele><time>2026-04-30T11:22:58.613Z</time></trkpt><trkpt lat="34.3501382" lon="7.8946742"><ele>159.0</ele><time>2026-04-30T11:22:59.625Z</time></trkpt><trkpt lat="34.3503078" lon="7.8945512"><ele>159.0</ele><time>2026-04-30T11:23:00.611Z</time></trkpt><trkpt lat="34.3504806" lon="7.8944294"><ele>159.66666666666666</ele><time>2026-04-30T11:23:01.626Z</time></trkpt><trkpt lat="34.3506483" lon="7.8943036"><ele>160.33333333333331</ele><time>2026-04-30T11:23:02.622Z</time></trkpt><trkpt lat="34.350807" lon="7.8941791"><ele>161.0</ele><time>2026-04-30T11:23:03.621Z</time></trkpt><trkpt lat="34.3509549" lon="7.8940655"><ele>161.0</ele><time>2026-04-30T11:23:04.614Z</time></trkpt><trkpt lat="34.3510978" lon="7.8939598"><ele>161.0</ele><time>2026-04-30T11:23:05.62Z</time></trkpt><trkpt lat="34.3512355" lon="7.8938609"><ele>161.0</ele><time>2026-04-30T11:23:06.642Z</time></trkpt><trkpt lat="34.3513731" lon="7.8937618"><ele>162.66666666666666</ele><time>2026-04-30T11:23:07.617Z</time></trkpt><trkpt lat="34.3515068" lon="7.8936633"><ele>164.33333333333334</ele><time>2026-04-30T11:23:08.618Z</time></trkpt><trkpt lat="34.3516424" lon="7.8935681"><ele>166.0</ele><time>2026-04-30T11:23:09.618Z</time></trkpt><trkpt lat="34.3517871" lon="7.8935059"><ele>166.0</ele><time>2026-04-30T11:23:10.622Z</time></trkpt><trkpt lat="34.3519299" lon="7.8934655"><ele>166.0</ele><time>2026-04-30T11:23:11.627Z</time></trkpt><trkpt lat="34.3520752" lon="7.8934515"><ele>166.0</ele><time>2026-04-30T11:23:12.621Z</time></trkpt><trkpt lat="34.3522269" lon="7.8934685"><ele>166.0</ele><time>2026-04-30T11:23:13.62Z</time></trkpt><trkpt lat="34.3523843" lon="7.8935126"><ele>168.0</ele><time>2026-04-30T11:23:14.622Z</time></trkpt><trkpt lat="34.3525412" lon="7.8935789"><ele>170.0</ele><time>2026-04-30T11:23:15.622Z</time></trkpt><trkpt lat="34.3526856" lon="7.8936758"><ele>172.0</ele><time>2026-04-30T11:23:16.611Z</time></trkpt><trkpt lat="34.3528214" lon="7.8937889"><ele>172.0</ele><time>2026-04-30T11:23:17.623Z</time></trkpt><trkpt lat="34.352956" lon="7.8939058"><ele>172.0</ele><time>2026-04-30T11:23:18.636Z</time></trkpt><trkpt lat="34.3530935" lon="7.8940319"><ele>172.0</ele><time>2026-04-30T11:23:19.615Z</time></trkpt><trkpt lat="34.3532243" lon="7.8941538"><ele>174.0</ele><time>2026-04-30T11:23:20.616Z</time></trkpt><trkpt lat="34.3533581" lon="7.8942734"><ele>176.0</ele><time>2026-04-30T11:23:21.617Z</time></trkpt><trkpt lat="34.35349" lon="7.8944"><ele>178.0</ele><time>2026-04-30T11:23:22.618Z</time></trkpt><trkpt lat="34.3536295" lon="7.8945303"><ele>178.0</ele><time>2026-04-30T11:23:23.619Z</time></trkpt><trkpt lat="34.3537626" lon="7.8946607"><ele>178.0</ele><time>2026-04-30T11:23:24.617Z</time></trkpt><trkpt lat="34.353894" lon="7.8947951"><ele>178.0</ele><time>2026-04-30T11:23:25.618Z</time></trkpt><trkpt lat="34.3540132" lon="7.8949336"><ele>177.66666666666669</ele><time>2026-04-30T11:23:26.618Z</time></trkpt><trkpt lat="34.3541177" lon="7.8950993"><ele>177.33333333333334</ele><time>2026-04-30T11:23:27.61Z</time></trkpt><trkpt lat="34.3542131" lon="7.8952828"><ele>177.0</ele><time>2026-04-30T11:23:28.612Z</time></trkpt><trkpt lat="34.3542814" lon="7.8954878"><ele>177.0</ele><time>2026-04-30T11:23:29.616Z</time></trkpt><trkpt lat="34.3543349" lon="7.895721"><ele>177.0</ele><time>2026-04-30T11:23:30.615Z</time></trkpt><trkpt lat="34.3543773" lon="7.8959799"><ele>177.0</ele><time>2026-04-30T11:23:31.619Z</time></trkpt><trkpt lat="34.3544222" lon="7.8962446"><ele>179.5</ele><time>2026-04-30T11:23:32.611Z</time></trkpt><trkpt lat="34.3544718" lon="7.8965126"><ele>182.0</ele><time>2026-04-30T11:23:33.628Z</time></trkpt><trkpt lat="34.3545205" lon="7.8967766"><ele>183.66666666666666</ele><time>2026-04-30T11:23:34.606Z</time></trkpt><trkpt lat="34.3545676" lon="7.8970344"><ele>185.33333333333334</ele><time>2026-04-30T11:23:35.61Z</time></trkpt><trkpt lat="34.3546204" lon="7.897288"><ele>187.0</ele><time>2026-04-30T11:23:36.614Z</time></trkpt><trkpt lat="34.3546952" lon="7.8975221"><ele>186.0</ele><time>2026-04-30T11:23:37.614Z</time></trkpt><trkpt lat="34.3547842" lon="7.8977391"><ele>185.0</ele><time>2026-04-30T11:23:38.614Z</time></trkpt><trkpt lat="34.35489" lon="7.8979417"><ele>184.0</ele><time>2026-04-30T11:23:39.618Z</time></trkpt><trkpt lat="34.3550038" lon="7.8981428"><ele>184.0</ele><time>2026-04-30T11:23:40.618Z</time></trkpt><trkpt lat="34.355121" lon="7.898334"><ele>184.0</ele><time>2026-04-30T11:23:41.611Z</time></trkpt><trkpt lat="34.3552373" lon="7.8985209"><ele>184.0</ele><time>2026-04-30T11:23:42.614Z</time></trkpt><trkpt lat="34.3553489" lon="7.8987071"><ele>184.33333333333334</ele><time>2026-04-30T11:23:43.614Z</time></trkpt><trkpt lat="34.355455" lon="7.8988852"><ele>184.66666666666666</ele><time>2026-04-30T11:23:44.617Z</time></trkpt><trkpt lat="34.3555574" lon="7.89905"><ele>185.0</ele><time>2026-04-30T11:23:45.62Z</time></trkpt><trkpt lat="34.3556546" lon="7.8992102"><ele>185.66666666666666</ele><time>2026-04-30T11:23:46.651Z</time></trkpt><trkpt lat="34.355755" lon="7.8993689"><ele>186.33333333333334</ele><time>2026-04-30T11:23:47.648Z</time></trkpt><trkpt lat="34.3558549" lon="7.8995289"><ele>187.0</ele><time>2026-04-30T11:23:48.61Z</time></trkpt><trkpt lat="34.3559584" lon="7.8996929"><ele>187.0</ele><time>2026-04-30T11:23:49.626Z</time></trkpt><trkpt lat="34.3560577" lon="7.8998506"><ele>187.0</ele><time>2026-04-30T11:23:50.612Z</time></trkpt><trkpt lat="34.3561579" lon="7.900008"><ele>187.0</ele><time>2026-04-30T11:23:51.615Z</time></trkpt><trkpt lat="34.356258" lon="7.9001679"><ele>188.33333333333334</ele><time>2026-04-30T11:23:52.607Z</time></trkpt><trkpt lat="34.3563504" lon="7.9003244"><ele>189.66666666666666</ele><time>2026-04-30T11:23:53.619Z</time></trkpt><trkpt lat="34.3564444" lon="7.9004801"><ele>191.0</ele><time>2026-04-30T11:23:54.618Z</time></trkpt><trkpt lat="34.3565341" lon="7.900628"><ele>191.0</ele><time>2026-04-30T11:23:55.618Z</time></trkpt><trkpt lat="34.3566267" lon="7.9007767"><ele>191.0</ele><time>2026-04-30T11:23:56.611Z</time></trkpt><trkpt lat="34.3567205" lon="7.9009258"><ele>191.0</ele><time>2026-04-30T11:23:57.612Z</time></trkpt><trkpt lat="34.3568153" lon="7.9010747"><ele>192.66666666666666</ele><time>2026-04-30T11:23:58.613Z</time></trkpt><trkpt lat="34.3569077" lon="7.9012282"><ele>194.33333333333331</ele><time>2026-04-30T11:23:59.619Z</time></trkpt><trkpt lat="34.3570034" lon="7.9013848"><ele>196.0</ele><time>2026-04-30T11:24:00.638Z</time></trkpt><trkpt lat="34.3571021" lon="7.9015339"><ele>196.0</ele><time>2026-04-30T11:24:01.637Z</time></trkpt><trkpt lat="34.3571962" lon="7.9016907"><ele>196.0</ele><time>2026-04-30T11:24:02.615Z</time></trkpt><trkpt lat="34.3572878" lon="7.9018346"><ele>196.0</ele><time>2026-04-30T11:24:03.626Z</time></trkpt><trkpt lat="34.3573745" lon="7.9019704"><ele>198.5</ele><time>2026-04-30T11:24:04.606Z</time></trkpt><trkpt lat="34.3574619" lon="7.9020837"><ele>201.0</ele><time>2026-04-30T11:24:05.595Z</time></trkpt><trkpt lat="34.3575531" lon="7.9021608"><ele>203.5</ele><time>2026-04-30T11:24:06.614Z</time></trkpt><trkpt lat="34.3576516" lon="7.9021976"><ele>206.0</ele><time>2026-04-30T11:24:07.615Z</time></trkpt><trkpt lat="34.3577712" lon="7.9021844"><ele>206.0</ele><time>2026-04-30T11:24:08.61Z</time></trkpt><trkpt lat="34.3578814" lon="7.9021328"><ele>206.0</ele><time>2026-04-30T11:24:09.611Z</time></trkpt><trkpt lat="34.3579744" lon="7.9020499"><ele>206.0</ele><time>2026-04-30T11:24:10.613Z</time></trkpt><trkpt lat="34.3580521" lon="7.901941"><ele>206.0</ele><time>2026-04-30T11:24:11.618Z</time></trkpt><trkpt lat="34.3581075" lon="7.9018249"><ele>205.4</ele><time>2026-04-30T11:24:12.619Z</time></trkpt><trkpt lat="34.3581712" lon="7.9017205"><ele>204.8</ele><time>2026-04-30T11:24:13.62Z</time></trkpt><trkpt lat="34.3582423" lon="7.9016322"><ele>204.20000000000002</ele><time>2026-04-30T11:24:14.616Z</time></trkpt><trkpt lat="34.3583058" lon="7.9015648"><ele>203.60000000000002</ele><time>2026-04-30T11:24:15.629Z</time></trkpt><trkpt lat="34.3583971" lon="7.9015884"><ele>203.0</ele><time>2026-04-30T11:24:17.623Z</time></trkpt><trkpt lat="34.3584634" lon="7.9017018"><ele>204.83333333333334</ele><time>2026-04-30T11:24:19.617Z</time></trkpt><trkpt lat="34.358491" lon="7.9017873"><ele>206.66666666666669</ele><time>2026-04-30T11:24:20.639Z</time></trkpt><trkpt lat="34.3585177" lon="7.9018807"><ele>208.5</ele><time>2026-04-30T11:24:21.642Z</time></trkpt><trkpt lat="34.358536" lon="7.9019818"><ele>210.33333333333331</ele><time>2026-04-30T11:24:22.613Z</time></trkpt><trkpt lat="34.3585414" lon="7.9020903"><ele>212.16666666666666</ele><time>2026-04-30T11:24:23.618Z</time></trkpt><trkpt lat="34.3585272" lon="7.9022074"><ele>214.0</ele><time>2026-04-30T11:24:24.605Z</time></trkpt><trkpt lat="34.3584903" lon="7.9023171"><ele>214.0</ele><time>2026-04-30T11:24:25.603Z</time></trkpt><trkpt lat="34.3584436" lon="7.9024156"><ele>213.99999999999997</ele><time>2026-04-30T11:24:26.609Z</time></trkpt><trkpt lat="34.3583829" lon="7.9025096"><ele>213.99999999999997</ele><time>2026-04-30T11:24:27.605Z</time></trkpt><trkpt lat="34.3583145" lon="7.9026064"><ele>214.0</ele><time>2026-04-30T11:24:28.614Z</time></trkpt><trkpt lat="34.3582411" lon="7.9026955"><ele>214.0</ele><time>2026-04-30T11:24:29.626Z</time></trkpt><trkpt lat="34.3582038" lon="7.9027762"><ele>217.2</ele><time>2026-04-30T11:24:30.624Z</time></trkpt><trkpt lat="34.3582251" lon="7.9028635"><ele>220.39999999999998</ele><time>2026-04-30T11:24:31.615Z</time></trkpt><trkpt lat="34.3582872" lon="7.9029331"><ele>223.6</ele><time>2026-04-30T11:24:32.626Z</time></trkpt><trkpt lat="34.3583618" lon="7.9029862"><ele>226.8</ele><time>2026-04-30T11:24:33.621Z</time></trkpt><trkpt lat="34.3584639" lon="7.9030291"><ele>230.0</ele><time>2026-04-30T11:24:34.614Z</time></trkpt><trkpt lat="34.3585649" lon="7.903055"><ele>230.0</ele><time>2026-04-30T11:24:35.614Z</time></trkpt><trkpt lat="34.3586382" lon="7.9030901"><ele>230.0</ele><time>2026-04-30T11:24:36.612Z</time></trkpt><trkpt lat="34.3586793" lon="7.9031553"><ele>230.0</ele><time>2026-04-30T11:24:37.629Z</time></trkpt><trkpt lat="34.3586798" lon="7.9032544"><ele>230.0</ele><time>2026-04-30T11:24:39.625Z</time></trkpt><trkpt lat="34.3585641" lon="7.9033289"><ele>230.0</ele><time>2026-04-30T11:24:41.615Z</time></trkpt><trkpt lat="34.358439" lon="7.9033359"><ele>230.0</ele><time>2026-04-30T11:24:42.61Z</time></trkpt><trkpt lat="34.3582992" lon="7.9033337"><ele>230.0</ele><time>2026-04-30T11:24:43.616Z</time></trkpt><trkpt lat="34.3581722" lon="7.9033384"><ele>230.0</ele><time>2026-04-30T11:24:44.624Z</time></trkpt><trkpt lat="34.3580756" lon="7.9033478"><ele>230.0</ele><time>2026-04-30T11:24:45.623Z</time></trkpt><trkpt lat="34.3580036" lon="7.903385"><ele>230.0</ele><time>2026-04-30T11:24:46.625Z</time></trkpt><trkpt lat="34.3579551" lon="7.9034584"><ele>229.16666666666669</ele><time>2026-04-30T11:24:47.618Z</time></trkpt><trkpt lat="34.3579606" lon="7.903535"><ele>228.33333333333334</ele><time>2026-04-30T11:24:48.628Z</time></trkpt><trkpt lat="34.3580005" lon="7.9036081"><ele>227.5</ele><time>2026-04-30T11:24:49.617Z</time></trkpt><trkpt lat="34.3580696" lon="7.9036678"><ele>226.66666666666669</ele><time>2026-04-30T11:24:50.616Z</time></trkpt><trkpt lat="34.358153" lon="7.903722"><ele>225.83333333333334</ele><time>2026-04-30T11:24:51.646Z</time></trkpt><trkpt lat="34.358253" lon="7.903765"><ele>225.0</ele><time>2026-04-30T11:24:52.618Z</time></trkpt><trkpt lat="34.3583574" lon="7.903805"><ele>230.0</ele><time>2026-04-30T11:24:53.626Z</time></trkpt><trkpt lat="34.3584598" lon="7.9038386"><ele>235.0</ele><time>2026-04-30T11:24:54.621Z</time></trkpt><trkpt lat="34.3585649" lon="7.9038751"><ele>240.0</ele><time>2026-04-30T11:24:55.619Z</time></trkpt><trkpt lat="34.3586793" lon="7.90392"><ele>245.0</ele><time>2026-04-30T11:24:56.624Z</time></trkpt><trkpt lat="34.358805" lon="7.9039896"><ele>246.5</ele><time>2026-04-30T11:24:57.615Z</time></trkpt><trkpt lat="34.3589363" lon="7.9040606"><ele>248.0</ele><time>2026-04-30T11:24:58.613Z</time></trkpt><trkpt lat="34.3590603" lon="7.904126"><ele>249.5</ele><time>2026-04-30T11:24:59.617Z</time></trkpt><trkpt lat="34.3591933" lon="7.9041049"><ele>251.0</ele><time>2026-04-30T11:25:00.642Z</time></trkpt><trkpt lat="34.35932" lon="7.9040785"><ele>251.0</ele><time>2026-04-30T11:25:01.615Z</time></trkpt><trkpt lat="34.3594422" lon="7.9040395"><ele>251.00000000000003</ele><time>2026-04-30T11:25:02.647Z</time></trkpt><trkpt lat="34.3595531" lon="7.9040165"><ele>251.00000000000003</ele><time>2026-04-30T11:25:03.642Z</time></trkpt><trkpt lat="34.3596503" lon="7.9040209"><ele>251.0</ele><time>2026-04-30T11:25:04.641Z</time></trkpt><trkpt lat="34.3597368" lon="7.9040474"><ele>251.0</ele><time>2026-04-30T11:25:05.642Z</time></trkpt><trkpt lat="34.3597973" lon="7.9040946"><ele>251.8</ele><time>2026-04-30T11:25:06.653Z</time></trkpt><trkpt lat="34.3598426" lon="7.9041572"><ele>252.60000000000002</ele><time>2026-04-30T11:25:07.635Z</time></trkpt><trkpt lat="34.3598619" lon="7.9042512"><ele>253.4</ele><time>2026-04-30T11:25:08.655Z</time></trkpt><trkpt lat="34.3598513" lon="7.9043586"><ele>254.2</ele><time>2026-04-30T11:25:09.63Z</time></trkpt><trkpt lat="34.3598183" lon="7.9044966"><ele>255.0</ele><time>2026-04-30T11:25:10.639Z</time></trkpt><trkpt lat="34.3597667" lon="7.9046359"><ele>258.25</ele><time>2026-04-30T11:25:11.639Z</time></trkpt><trkpt lat="34.359706" lon="7.9047911"><ele>261.5</ele><time>2026-04-30T11:25:12.642Z</time></trkpt><trkpt lat="34.3596491" lon="7.9049341"><ele>264.75</ele><time>2026-04-30T11:25:13.66Z</time></trkpt><trkpt lat="34.3596089" lon="7.9050791"><ele>268.0</ele><time>2026-04-30T11:25:14.606Z</time></trkpt><trkpt lat="34.3595796" lon="7.9052334"><ele>269.0</ele><time>2026-04-30T11:25:15.614Z</time></trkpt><trkpt lat="34.3595859" lon="7.9054029"><ele>270.0</ele><time>2026-04-30T11:25:16.605Z</time></trkpt><trkpt lat="34.3596236" lon="7.9055788"><ele>271.0</ele><time>2026-04-30T11:25:17.611Z</time></trkpt><trkpt lat="34.3596924" lon="7.9057447"><ele>272.0</ele><time>2026-04-30T11:25:18.626Z</time></trkpt><trkpt lat="34.359777" lon="7.9059217"><ele>272.0</ele><time>2026-04-30T11:25:19.657Z</time></trkpt><trkpt lat="34.359864" lon="7.9061178"><ele>272.0</ele><time>2026-04-30T11:25:20.675Z</time></trkpt><trkpt lat="34.3599709" lon="7.9062972"><ele>272.0</ele><time>2026-04-30T11:25:21.667Z</time></trkpt><trkpt lat="34.3600944" lon="7.9064602"><ele>272.0</ele><time>2026-04-30T11:25:22.657Z</time></trkpt><trkpt lat="34.3602242" lon="7.9066064"><ele>272.0</ele><time>2026-04-30T11:25:23.659Z</time></trkpt><trkpt lat="34.3603605" lon="7.9067498"><ele>272.0</ele><time>2026-04-30T11:25:24.657Z</time></trkpt><trkpt lat="34.3604955" lon="7.9068881"><ele>274.6666666666667</ele><time>2026-04-30T11:25:25.654Z</time></trkpt><trkpt lat="34.3606363" lon="7.9070212"><ele>277.3333333333333</ele><time>2026-04-30T11:25:26.68Z</time></trkpt><trkpt lat="34.3607725" lon="7.9071578"><ele>280.0</ele><time>2026-04-30T11:25:27.66Z</time></trkpt><trkpt lat="34.3609119" lon="7.9072927"><ele>280.0</ele><time>2026-04-30T11:25:28.656Z</time></trkpt><trkpt lat="34.3610566" lon="7.9074357"><ele>280.0</ele><time>2026-04-30T11:25:29.669Z</time></trkpt><trkpt lat="34.3612069" lon="7.9075801"><ele>280.0</ele><time>2026-04-30T11:25:30.673Z</time></trkpt><trkpt lat="34.3613517" lon="7.9077296"><ele>282.66666666666663</ele><time>2026-04-30T11:25:31.668Z</time></trkpt><trkpt lat="34.3614813" lon="7.9078858"><ele>285.3333333333333</ele><time>2026-04-30T11:25:32.667Z</time></trkpt><trkpt lat="34.3615888" lon="7.9080257"><ele>288.0</ele><time>2026-04-30T11:25:33.67Z</time></trkpt><trkpt lat="34.3616845" lon="7.9081624"><ele>288.0</ele><time>2026-04-30T11:25:34.65Z</time></trkpt><trkpt lat="34.3617742" lon="7.9082742"><ele>288.0</ele><time>2026-04-30T11:25:35.677Z</time></trkpt><trkpt lat="34.3618703" lon="7.9083785"><ele>288.0</ele><time>2026-04-30T11:25:36.639Z</time></trkpt><trkpt lat="34.3619763" lon="7.9084896"><ele>288.0</ele><time>2026-04-30T11:25:37.663Z</time></trkpt><trkpt lat="34.3620867" lon="7.9086222"><ele>290.0</ele><time>2026-04-30T11:25:38.65Z</time></trkpt><trkpt lat="34.36218" lon="7.9087681"><ele>292.0</ele><time>2026-04-30T11:25:39.674Z</time></trkpt><trkpt lat="34.36225" lon="7.9089279"><ele>294.0</ele><time>2026-04-30T11:25:40.666Z</time></trkpt><trkpt lat="34.362309" lon="7.909092"><ele>296.0</ele><time>2026-04-30T11:25:41.647Z</time></trkpt><trkpt lat="34.3623751" lon="7.9092583"><ele>304.33333333333337</ele><time>2026-04-30T11:25:42.659Z</time></trkpt><trkpt lat="34.3624551" lon="7.9094033"><ele>312.6666666666667</ele><time>2026-04-30T11:25:43.644Z</time></trkpt><trkpt lat="34.3625711" lon="7.9095424"><ele>321.0</ele><time>2026-04-30T11:25:44.674Z</time></trkpt><trkpt lat="34.3627073" lon="7.9096673"><ele>321.0</ele><time>2026-04-30T11:25:45.659Z</time></trkpt><trkpt lat="34.3628285" lon="7.9097764"><ele>321.0</ele><time>2026-04-30T11:25:46.66Z</time></trkpt><trkpt lat="34.3629304" lon="7.9098699"><ele>321.0</ele><time>2026-04-30T11:25:47.655Z</time></trkpt><trkpt lat="34.3630267" lon="7.9099628"><ele>321.0</ele><time>2026-04-30T11:25:48.659Z</time></trkpt><trkpt lat="34.3631175" lon="7.910049"><ele>327.25</ele><time>2026-04-30T11:25:49.672Z</time></trkpt><trkpt lat="34.3632088" lon="7.910121"><ele>333.5</ele><time>2026-04-30T11:25:50.65Z</time></trkpt><trkpt lat="34.3633226" lon="7.9101542"><ele>339.75</ele><time>2026-04-30T11:25:51.64Z</time></trkpt><trkpt lat="34.3634493" lon="7.9101361"><ele>346.0</ele><time>2026-04-30T11:25:52.637Z</time></trkpt><trkpt lat="34.3635561" lon="7.9100823"><ele>343.75</ele><time>2026-04-30T11:25:53.663Z</time></trkpt><trkpt lat="34.3636687" lon="7.909999"><ele>341.5</ele><time>2026-04-30T11:25:54.63Z</time></trkpt><trkpt lat="34.3637727" lon="7.9099171"><ele>339.25</ele><time>2026-04-30T11:25:55.657Z</time></trkpt><trkpt lat="34.3638758" lon="7.9098271"><ele>337.0</ele><time>2026-04-30T11:25:56.662Z</time></trkpt><trkpt lat="34.3639733" lon="7.9097313"><ele>337.0</ele><time>2026-04-30T11:25:57.662Z</time></trkpt><trkpt lat="34.3640715" lon="7.9096312"><ele>337.0</ele><time>2026-04-30T11:25:58.628Z</time></trkpt><trkpt lat="34.3641568" lon="7.9095372"><ele>337.0</ele><time>2026-04-30T11:25:59.665Z</time></trkpt><trkpt lat="34.3642284" lon="7.909448"><ele>337.0</ele><time>2026-04-30T11:26:00.642Z</time></trkpt><trkpt lat="34.364303" lon="7.9093759"><ele>337.0</ele><time>2026-04-30T11:26:01.655Z</time></trkpt><trkpt lat="34.3643792" lon="7.909297"><ele>333.0</ele><time>2026-04-30T11:26:02.656Z</time></trkpt><trkpt lat="34.3644653" lon="7.9092393"><ele>329.0</ele><time>2026-04-30T11:26:03.662Z</time></trkpt><trkpt lat="34.3645852" lon="7.909228"><ele>325.0</ele><time>2026-04-30T11:26:04.667Z</time></trkpt><trkpt lat="34.3647184" lon="7.9092446"><ele>321.0</ele><time>2026-04-30T11:26:05.656Z</time></trkpt><trkpt lat="34.3648543" lon="7.9092621"><ele>321.0</ele><time>2026-04-30T11:26:06.652Z</time></trkpt><trkpt lat="34.3649751" lon="7.9092853"><ele>321.0</ele><time>2026-04-30T11:26:07.667Z</time></trkpt><trkpt lat="34.3651019" lon="7.9092781"><ele>321.0</ele><time>2026-04-30T11:26:08.634Z</time></trkpt><trkpt lat="34.3652234" lon="7.9092381"><ele>321.0</ele><time>2026-04-30T11:26:09.642Z</time></trkpt><trkpt lat="34.3653421" lon="7.9091859"><ele>320.75</ele><time>2026-04-30T11:26:10.657Z</time></trkpt><trkpt lat="34.3654593" lon="7.9091144"><ele>320.5</ele><time>2026-04-30T11:26:11.666Z</time></trkpt><trkpt lat="34.3655688" lon="7.9090372"><ele>320.25</ele><time>2026-04-30T11:26:12.646Z</time></trkpt><trkpt lat="34.3656726" lon="7.9089721"><ele>320.0</ele><time>2026-04-30T11:26:13.66Z</time></trkpt><trkpt lat="34.3657625" lon="7.9089061"><ele>318.4</ele><time>2026-04-30T11:26:14.661Z</time></trkpt><trkpt lat="34.3658559" lon="7.9088371"><ele>316.8</ele><time>2026-04-30T11:26:15.667Z</time></trkpt><trkpt lat="34.3659467" lon="7.9087661"><ele>315.2</ele><time>2026-04-30T11:26:16.652Z</time></trkpt><trkpt lat="34.3660344" lon="7.9086961"><ele>313.6</ele><time>2026-04-30T11:26:17.668Z</time></trkpt><trkpt lat="34.3661095" lon="7.9086147"><ele>312.0</ele><time>2026-04-30T11:26:18.647Z</time></trkpt><trkpt lat="34.366188" lon="7.9085297"><ele>312.0</ele><time>2026-04-30T11:26:19.666Z</time></trkpt><trkpt lat="34.3662523" lon="7.9084364"><ele>312.0</ele><time>2026-04-30T11:26:20.675Z</time></trkpt><trkpt lat="34.3663173" lon="7.9083572"><ele>312.0</ele><time>2026-04-30T11:26:21.661Z</time></trkpt><trkpt lat="34.3663759" lon="7.908279"><ele>312.0</ele><time>2026-04-30T11:26:22.657Z</time></trkpt><trkpt lat="34.3664298" lon="7.9082172"><ele>312.0</ele><time>2026-04-30T11:26:23.631Z</time></trkpt><trkpt lat="34.3664819" lon="7.908168"><ele>312.0</ele><time>2026-04-30T11:26:24.631Z</time></trkpt><trkpt lat="34.3665596" lon="7.9080973"><ele>311.6666666666667</ele><time>2026-04-30T11:26:26.641Z</time></trkpt><trkpt lat="34.3666034" lon="7.9080083"><ele>311.3333333333333</ele><time>2026-04-30T11:26:29.679Z</time></trkpt><trkpt lat="34.366588" lon="7.9079291"><ele>311.0</ele><time>2026-04-30T11:26:33.662Z</time></trkpt><trkpt lat="34.3665732" lon="7.9078411"><ele>310.66666666666663</ele><time>2026-04-30T11:26:48.661Z</time></trkpt><trkpt lat="34.3665033" lon="7.9078393"><ele>310.3333333333333</ele><time>2026-04-30T11:26:53.653Z</time></trkpt><trkpt lat="34.3664826" lon="7.9079123"><ele>310.0</ele><time>2026-04-30T11:27:00.654Z</time></trkpt><trkpt lat="34.3665337" lon="7.9080021"><ele>310.0</ele><time>2026-04-30T11:27:03.661Z</time></trkpt><trkpt lat="34.3666166" lon="7.9080386"><ele>310.0</ele><time>2026-04-30T11:27:06.66Z</time></trkpt><trkpt lat="34.3667793" lon="7.9079873"><ele>310.0</ele><time>2026-04-30T11:27:08.66Z</time></trkpt><trkpt lat="34.3669238" lon="7.9079187"><ele>310.0</ele><time>2026-04-30T11:27:09.654Z</time></trkpt><trkpt lat="34.3670685" lon="7.9078687"><ele>304.75</ele><time>2026-04-30T11:27:10.641Z</time></trkpt><trkpt lat="34.3671993" lon="7.9078232"><ele>299.5</ele><time>2026-04-30T11:27:11.654Z</time></trkpt><trkpt lat="34.3673356" lon="7.9077813"><ele>294.25</ele><time>2026-04-30T11:27:12.659Z</time></trkpt><trkpt lat="34.3674584" lon="7.9077426"><ele>289.0</ele><time>2026-04-30T11:27:13.663Z</time></trkpt><trkpt lat="34.3675656" lon="7.9076921"><ele>289.0</ele><time>2026-04-30T11:27:14.614Z</time></trkpt><trkpt lat="34.3676599" lon="7.9076312"><ele>289.0</ele><time>2026-04-30T11:27:15.636Z</time></trkpt><trkpt lat="34.3677428" lon="7.9075467"><ele>289.0</ele><time>2026-04-30T11:27:16.646Z</time></trkpt><trkpt lat="34.3678048" lon="7.9074422"><ele>289.0</ele><time>2026-04-30T11:27:17.651Z</time></trkpt><trkpt lat="34.3678495" lon="7.9073446"><ele>289.0</ele><time>2026-04-30T11:27:18.657Z</time></trkpt><trkpt lat="34.3678968" lon="7.9072807"><ele>289.8333333333333</ele><time>2026-04-30T11:27:19.662Z</time></trkpt><trkpt lat="34.3679613" lon="7.9072565"><ele>290.66666666666663</ele><time>2026-04-30T11:27:20.654Z</time></trkpt><trkpt lat="34.3680443" lon="7.9072655"><ele>291.5</ele><time>2026-04-30T11:27:21.629Z</time></trkpt><trkpt lat="34.3681381" lon="7.9072934"><ele>292.3333333333333</ele><time>2026-04-30T11:27:22.665Z</time></trkpt><trkpt lat="34.3682211" lon="7.9072882"><ele>293.1666666666667</ele><time>2026-04-30T11:27:23.667Z</time></trkpt><trkpt lat="34.3682923" lon="7.9072512"><ele>294.0</ele><time>2026-04-30T11:27:24.676Z</time></trkpt><trkpt lat="34.3683392" lon="7.9071761"><ele>291.0</ele><time>2026-04-30T11:27:25.656Z</time></trkpt><trkpt lat="34.3683607" lon="7.9070549"><ele>288.0</ele><time>2026-04-30T11:27:26.666Z</time></trkpt><trkpt lat="34.3683606" lon="7.9069026"><ele>285.0</ele><time>2026-04-30T11:27:27.671Z</time></trkpt><trkpt lat="34.3683569" lon="7.9067441"><ele>282.0</ele><time>2026-04-30T11:27:28.654Z</time></trkpt><trkpt lat="34.3683632" lon="7.9065778"><ele>281.0</ele><time>2026-04-30T11:27:29.647Z</time></trkpt><trkpt lat="34.3683736" lon="7.9064109"><ele>280.0</ele><time>2026-04-30T11:27:30.658Z</time></trkpt><trkpt lat="34.3684006" lon="7.9062582"><ele>279.0</ele><time>2026-04-30T11:27:31.649Z</time></trkpt><trkpt lat="34.3684355" lon="7.9061083"><ele>278.0</ele><time>2026-04-30T11:27:32.658Z</time></trkpt><trkpt lat="34.3684941" lon="7.9059655"><ele>275.0</ele><time>2026-04-30T11:27:33.638Z</time></trkpt><trkpt lat="34.3685727" lon="7.9058127"><ele>272.0</ele><time>2026-04-30T11:27:34.641Z</time></trkpt><trkpt lat="34.3686554" lon="7.9056803"><ele>269.0</ele><time>2026-04-30T11:27:35.659Z</time></trkpt><trkpt lat="34.3687374" lon="7.9055567"><ele>266.0</ele><time>2026-04-30T11:27:36.652Z</time></trkpt><trkpt lat="34.3688168" lon="7.905433"><ele>265.40000000000003</ele><time>2026-04-30T11:27:37.648Z</time></trkpt><trkpt lat="34.3688891" lon="7.9053161"><ele>264.8</ele><time>2026-04-30T11:27:38.637Z</time></trkpt><trkpt lat="34.3689534" lon="7.905209"><ele>264.20000000000005</ele><time>2026-04-30T11:27:39.61Z</time></trkpt><trkpt lat="34.3690241" lon="7.9051198"><ele>263.6</ele><time>2026-04-30T11:27:40.653Z</time></trkpt><trkpt lat="34.3691113" lon="7.9050527"><ele>263.0</ele><time>2026-04-30T11:27:41.668Z</time></trkpt><trkpt lat="34.3692105" lon="7.9050196"><ele>263.0</ele><time>2026-04-30T11:27:42.658Z</time></trkpt><trkpt lat="34.3693267" lon="7.9050231"><ele>263.0</ele><time>2026-04-30T11:27:43.636Z</time></trkpt><trkpt lat="34.36945" lon="7.9050814"><ele>263.0</ele><time>2026-04-30T11:27:44.64Z</time></trkpt><trkpt lat="34.369585" lon="7.905164"><ele>263.0</ele><time>2026-04-30T11:27:45.647Z</time></trkpt><trkpt lat="34.3697324" lon="7.9052514"><ele>260.75</ele><time>2026-04-30T11:27:46.638Z</time></trkpt><trkpt lat="34.3698771" lon="7.9053367"><ele>258.5</ele><time>2026-04-30T11:27:47.649Z</time></trkpt><trkpt lat="34.3700146" lon="7.9054073"><ele>256.25</ele><time>2026-04-30T11:27:48.647Z</time></trkpt><trkpt lat="34.3701416" lon="7.9054765"><ele>254.0</ele><time>2026-04-30T11:27:49.621Z</time></trkpt><trkpt lat="34.3702543" lon="7.9055524"><ele>254.0</ele><time>2026-04-30T11:27:50.652Z</time></trkpt><trkpt lat="34.3703444" lon="7.905631"><ele>253.99999999999997</ele><time>2026-04-30T11:27:51.65Z</time></trkpt><trkpt lat="34.3704198" lon="7.9057229"><ele>253.99999999999997</ele><time>2026-04-30T11:27:52.657Z</time></trkpt><trkpt lat="34.3704589" lon="7.9058296"><ele>254.0</ele><time>2026-04-30T11:27:53.66Z</time></trkpt><trkpt lat="34.3704711" lon="7.9059514"><ele>254.0</ele><time>2026-04-30T11:27:54.65Z</time></trkpt><trkpt lat="34.3704596" lon="7.9060775"><ele>252.25</ele><time>2026-04-30T11:27:55.632Z</time></trkpt><trkpt lat="34.3704284" lon="7.9062152"><ele>250.5</ele><time>2026-04-30T11:27:56.633Z</time></trkpt><trkpt lat="34.3703746" lon="7.9063572"><ele>248.75</ele><time>2026-04-30T11:27:57.642Z</time></trkpt><trkpt lat="34.3703075" lon="7.9064856"><ele>247.0</ele><time>2026-04-30T11:27:58.659Z</time></trkpt><trkpt lat="34.370213" lon="7.9065911"><ele>247.0</ele><time>2026-04-30T11:27:59.647Z</time></trkpt><trkpt lat="34.3701129" lon="7.9066895"><ele>247.0</ele><time>2026-04-30T11:28:00.626Z</time></trkpt><trkpt lat="34.3700165" lon="7.9067906"><ele>247.0</ele><time>2026-04-30T11:28:01.669Z</time></trkpt><trkpt lat="34.3699242" lon="7.9068907"><ele>247.0</ele><time>2026-04-30T11:28:02.653Z</time></trkpt><trkpt lat="34.3698756" lon="7.9069957"><ele>244.0</ele><time>2026-04-30T11:28:03.659Z</time></trkpt><trkpt lat="34.3698567" lon="7.907116"><ele>241.0</ele><time>2026-04-30T11:28:04.633Z</time></trkpt><trkpt lat="34.3698583" lon="7.9072373"><ele>238.0</ele><time>2026-04-30T11:28:05.653Z</time></trkpt><trkpt lat="34.3698833" lon="7.9073672"><ele>235.0</ele><time>2026-04-30T11:28:06.644Z</time></trkpt><trkpt lat="34.3699455" lon="7.9074759"><ele>232.0</ele><time>2026-04-30T11:28:07.653Z</time></trkpt><trkpt lat="34.3700366" lon="7.9075603"><ele>232.0</ele><time>2026-04-30T11:28:08.655Z</time></trkpt><trkpt lat="34.3701445" lon="7.9075945"><ele>232.0</ele><time>2026-04-30T11:28:09.635Z</time></trkpt><trkpt lat="34.3702635" lon="7.9076123"><ele>232.0</ele><time>2026-04-30T11:28:10.64Z</time></trkpt><trkpt lat="34.3704241" lon="7.9075973"><ele>232.0</ele><time>2026-04-30T11:28:11.65Z</time></trkpt><trkpt lat="34.3706234" lon="7.9075451"><ele>232.0</ele><time>2026-04-30T11:28:12.654Z</time></trkpt><trkpt lat="34.3708249" lon="7.9074748"><ele>232.0</ele><time>2026-04-30T11:28:13.658Z</time></trkpt><trkpt lat="34.3710005" lon="7.9074312"><ele>232.0</ele><time>2026-04-30T11:28:14.643Z</time></trkpt><trkpt lat="34.3711344" lon="7.9073884"><ele>232.0</ele><time>2026-04-30T11:28:15.617Z</time></trkpt><trkpt lat="34.3712421" lon="7.9073581"><ele>232.0</ele><time>2026-04-30T11:28:16.654Z</time></trkpt><trkpt lat="34.3713337" lon="7.9073695"><ele>232.0</ele><time>2026-04-30T11:28:17.644Z</time></trkpt><trkpt lat="34.3714306" lon="7.9074063"><ele>232.0</ele><time>2026-04-30T11:28:18.639Z</time></trkpt><trkpt lat="34.3715237" lon="7.9074869"><ele>232.0</ele><time>2026-04-30T11:28:19.645Z</time></trkpt><trkpt lat="34.371598" lon="7.9076091"><ele>232.0</ele><time>2026-04-30T11:28:20.629Z</time></trkpt><trkpt lat="34.3716467" lon="7.907764"><ele>232.0</ele><time>2026-04-30T11:28:21.647Z</time></trkpt><trkpt lat="34.3716644" lon="7.9079399"><ele>232.0</ele><time>2026-04-30T11:28:22.654Z</time></trkpt><trkpt lat="34.3716561" lon="7.9081221"><ele>232.0</ele><time>2026-04-30T11:28:23.658Z</time></trkpt><trkpt lat="34.3716165" lon="7.908327"><ele>234.0</ele><time>2026-04-30T11:28:24.658Z</time></trkpt><trkpt lat="34.3715796" lon="7.908554"><ele>236.0</ele><time>2026-04-30T11:28:25.648Z</time></trkpt><trkpt lat="34.3715407" lon="7.9087987"><ele>238.0</ele><time>2026-04-30T11:28:26.666Z</time></trkpt><trkpt lat="34.3714945" lon="7.9090208"><ele>238.0</ele><time>2026-04-30T11:28:27.648Z</time></trkpt><trkpt lat="34.3714409" lon="7.9092268"><ele>238.0</ele><time>2026-04-30T11:28:28.642Z</time></trkpt><trkpt lat="34.3714025" lon="7.9094256"><ele>238.0</ele><time>2026-04-30T11:28:29.651Z</time></trkpt><trkpt lat="34.37138" lon="7.9096042"><ele>238.66666666666666</ele><time>2026-04-30T11:28:30.657Z</time></trkpt><trkpt lat="34.3713899" lon="7.9097965"><ele>239.33333333333331</ele><time>2026-04-30T11:28:31.658Z</time></trkpt><trkpt lat="34.3714345" lon="7.9099718"><ele>240.0</ele><time>2026-04-30T11:28:32.617Z</time></trkpt><trkpt lat="34.3715156" lon="7.9101147"><ele>241.75</ele><time>2026-04-30T11:28:33.661Z</time></trkpt><trkpt lat="34.3716065" lon="7.9102428"><ele>243.5</ele><time>2026-04-30T11:28:34.634Z</time></trkpt><trkpt lat="34.3717138" lon="7.9103557"><ele>245.25</ele><time>2026-04-30T11:28:35.65Z</time></trkpt><trkpt lat="34.3718329" lon="7.9104423"><ele>247.0</ele><time>2026-04-30T11:28:36.643Z</time></trkpt><trkpt lat="34.3719606" lon="7.9105137"><ele>247.0</ele><time>2026-04-30T11:28:37.659Z</time></trkpt><trkpt lat="34.3721035" lon="7.9105482"><ele>247.0</ele><time>2026-04-30T11:28:38.639Z</time></trkpt><trkpt lat="34.3722547" lon="7.9105385"><ele>247.0</ele><time>2026-04-30T11:28:39.64Z</time></trkpt><trkpt lat="34.3724172" lon="7.9104997"><ele>246.33333333333331</ele><time>2026-04-30T11:28:40.662Z</time></trkpt><trkpt lat="34.3725763" lon="7.9104312"><ele>245.66666666666669</ele><time>2026-04-30T11:28:41.65Z</time></trkpt><trkpt lat="34.3727349" lon="7.9103625"><ele>245.0</ele><time>2026-04-30T11:28:42.662Z</time></trkpt><trkpt lat="34.3728853" lon="7.9103085"><ele>247.0</ele><time>2026-04-30T11:28:43.665Z</time></trkpt><trkpt lat="34.3730489" lon="7.9102714"><ele>249.0</ele><time>2026-04-30T11:28:44.662Z</time></trkpt><trkpt lat="34.3731986" lon="7.9102505"><ele>251.0</ele><time>2026-04-30T11:28:45.64Z</time></trkpt><trkpt lat="34.3733314" lon="7.9102516"><ele>251.0</ele><time>2026-04-30T11:28:46.643Z</time></trkpt><trkpt lat="34.3734484" lon="7.910266"><ele>251.0</ele><time>2026-04-30T11:28:47.647Z</time></trkpt><trkpt lat="34.3735431" lon="7.9103271"><ele>251.0</ele><time>2026-04-30T11:28:48.64Z</time></trkpt><trkpt lat="34.3736434" lon="7.9104251"><ele>251.0</ele><time>2026-04-30T11:28:49.651Z</time></trkpt><trkpt lat="34.3737488" lon="7.9105553"><ele>252.33333333333334</ele><time>2026-04-30T11:28:50.656Z</time></trkpt><trkpt lat="34.3738911" lon="7.910724"><ele>253.66666666666669</ele><time>2026-04-30T11:28:51.677Z</time></trkpt><trkpt lat="34.3740768" lon="7.9108882"><ele>255.0</ele><time>2026-04-30T11:28:52.659Z</time></trkpt><trkpt lat="34.3742553" lon="7.9110293"><ele>255.66666666666669</ele><time>2026-04-30T11:28:53.664Z</time></trkpt><trkpt lat="34.374396" lon="7.9111396"><ele>256.33333333333337</ele><time>2026-04-30T11:28:54.645Z</time></trkpt><trkpt lat="34.3745299" lon="7.9112733"><ele>257.0</ele><time>2026-04-30T11:28:55.636Z</time></trkpt><trkpt lat="34.3746507" lon="7.9114319"><ele>257.0</ele><time>2026-04-30T11:28:56.626Z</time></trkpt><trkpt lat="34.3747648" lon="7.9116225"><ele>257.0</ele><time>2026-04-30T11:28:57.648Z</time></trkpt><trkpt lat="34.374868" lon="7.9117869"><ele>257.0</ele><time>2026-04-30T11:28:58.655Z</time></trkpt><trkpt lat="34.3749467" lon="7.9119519"><ele>257.6666666666667</ele><time>2026-04-30T11:28:59.65Z</time></trkpt><trkpt lat="34.3749981" lon="7.9121493"><ele>258.3333333333333</ele><time>2026-04-30T11:29:00.645Z</time></trkpt><trkpt lat="34.3750235" lon="7.9123447"><ele>259.0</ele><time>2026-04-30T11:29:01.672Z</time></trkpt><trkpt lat="34.3750314" lon="7.9125453"><ele>259.0</ele><time>2026-04-30T11:29:02.66Z</time></trkpt><trkpt lat="34.3750166" lon="7.9127495"><ele>259.0</ele><time>2026-04-30T11:29:03.671Z</time></trkpt><trkpt lat="34.3749919" lon="7.9129713"><ele>259.0</ele><time>2026-04-30T11:29:04.633Z</time></trkpt><trkpt lat="34.3749833" lon="7.913198"><ele>260.3333333333333</ele><time>2026-04-30T11:29:05.661Z</time></trkpt><trkpt lat="34.3749765" lon="7.913406"><ele>261.6666666666667</ele><time>2026-04-30T11:29:06.668Z</time></trkpt><trkpt lat="34.3749798" lon="7.9136079"><ele>263.0</ele><time>2026-04-30T11:29:07.666Z</time></trkpt><trkpt lat="34.3749931" lon="7.9138001"><ele>263.0</ele><time>2026-04-30T11:29:08.663Z</time></trkpt><trkpt lat="34.3750148" lon="7.9139701"><ele>263.0</ele><time>2026-04-30T11:29:09.66Z</time></trkpt><trkpt lat="34.3750446" lon="7.9141252"><ele>263.0</ele><time>2026-04-30T11:29:10.664Z</time></trkpt><trkpt lat="34.375101" lon="7.9142406"><ele>263.0</ele><time>2026-04-30T11:29:11.663Z</time></trkpt><trkpt lat="34.3751801" lon="7.9143094"><ele>262.25</ele><time>2026-04-30T11:29:12.669Z</time></trkpt><trkpt lat="34.3752738" lon="7.9143594"><ele>261.5</ele><time>2026-04-30T11:29:13.65Z</time></trkpt><trkpt lat="34.3753753" lon="7.9143672"><ele>260.75</ele><time>2026-04-30T11:29:14.661Z</time></trkpt><trkpt lat="34.375487" lon="7.9143159"><ele>260.0</ele><time>2026-04-30T11:29:15.655Z</time></trkpt><trkpt lat="34.375596" lon="7.9142282"><ele>260.0</ele><time>2026-04-30T11:29:16.654Z</time></trkpt><trkpt lat="34.3757171" lon="7.9141357"><ele>260.0</ele><time>2026-04-30T11:29:17.66Z</time></trkpt><trkpt lat="34.3758426" lon="7.9140418"><ele>260.0</ele><time>2026-04-30T11:29:18.654Z</time></trkpt><trkpt lat="34.3759699" lon="7.9139484"><ele>260.0</ele><time>2026-04-30T11:29:19.664Z</time></trkpt><trkpt lat="34.3760912" lon="7.9138666"><ele>260.0</ele><time>2026-04-30T11:29:20.653Z</time></trkpt><trkpt lat="34.3762174" lon="7.9138144"><ele>260.0</ele><time>2026-04-30T11:29:21.666Z</time></trkpt><trkpt lat="34.3763447" lon="7.9137765"><ele>260.0</ele><time>2026-04-30T11:29:22.658Z</time></trkpt><trkpt lat="34.3764737" lon="7.9137644"><ele>260.0</ele><time>2026-04-30T11:29:23.657Z</time></trkpt><trkpt lat="34.3766036" lon="7.9137858"><ele>259.0</ele><time>2026-04-30T11:29:24.659Z</time></trkpt><trkpt lat="34.3767179" lon="7.9138121"><ele>258.0</ele><time>2026-04-30T11:29:25.673Z</time></trkpt><trkpt lat="34.3768308" lon="7.913846"><ele>257.0</ele><time>2026-04-30T11:29:26.631Z</time></trkpt><trkpt lat="34.3769173" lon="7.9138984"><ele>256.0</ele><time>2026-04-30T11:29:27.639Z</time></trkpt><trkpt lat="34.3769982" lon="7.913959"><ele>255.0</ele><time>2026-04-30T11:29:28.659Z</time></trkpt><trkpt lat="34.3770703" lon="7.914024"><ele>255.0</ele><time>2026-04-30T11:29:29.667Z</time></trkpt><trkpt lat="34.3771341" lon="7.914105"><ele>255.0</ele><time>2026-04-30T11:29:30.664Z</time></trkpt><trkpt lat="34.3771814" lon="7.9141774"><ele>255.0</ele><time>2026-04-30T11:29:31.661Z</time></trkpt><trkpt lat="34.3772485" lon="7.9142971"><ele>255.0</ele><time>2026-04-30T11:29:33.661Z</time></trkpt><trkpt lat="34.377314" lon="7.9144146"><ele>255.0</ele><time>2026-04-30T11:29:35.661Z</time></trkpt><trkpt lat="34.3774046" lon="7.914462"><ele>254.66666666666666</ele><time>2026-04-30T11:29:37.651Z</time></trkpt><trkpt lat="34.3775088" lon="7.9144656"><ele>254.33333333333331</ele><time>2026-04-30T11:29:39.66Z</time></trkpt><trkpt lat="34.3775753" lon="7.9144641"><ele>254.0</ele><time>2026-04-30T11:29:40.654Z</time></trkpt><trkpt lat="34.3776557" lon="7.9144646"><ele>253.66666666666666</ele><time>2026-04-30T11:29:41.658Z</time></trkpt><trkpt lat="34.37774" lon="7.9144842"><ele>253.33333333333331</ele><time>2026-04-30T11:29:42.666Z</time></trkpt><trkpt lat="34.3778275" lon="7.9145152"><ele>253.0</ele><time>2026-04-30T11:29:43.636Z</time></trkpt><trkpt lat="34.3779096" lon="7.9145592"><ele>252.99999999999997</ele><time>2026-04-30T11:29:44.653Z</time></trkpt><trkpt lat="34.3779898" lon="7.9146132"><ele>253.0</ele><time>2026-04-30T11:29:45.657Z</time></trkpt><trkpt lat="34.3780675" lon="7.9146763"><ele>253.0</ele><time>2026-04-30T11:29:46.647Z</time></trkpt><trkpt lat="34.3781315" lon="7.9147369"><ele>253.0</ele><time>2026-04-30T11:29:47.628Z</time></trkpt><trkpt lat="34.3781819" lon="7.9147939"><ele>252.99999999999997</ele><time>2026-04-30T11:29:48.663Z</time></trkpt><trkpt lat="34.3782337" lon="7.9148902"><ele>253.0</ele><time>2026-04-30T11:29:50.659Z</time></trkpt><trkpt lat="34.3782807" lon="7.9149596"><ele>251.99999999999997</ele><time>2026-04-30T11:29:53.646Z</time></trkpt><trkpt lat="34.3783204" lon="7.9150266"><ele>251.0</ele><time>2026-04-30T11:29:57.649Z</time></trkpt><trkpt lat="34.3783454" lon="7.9151107"><ele>250.0</ele><time>2026-04-30T11:30:39.631Z</time></trkpt><trkpt lat="34.3783262" lon="7.915192"><ele>249.0</ele><time>2026-04-30T11:42:49.606Z</time></trkpt><trkpt lat="34.378402" lon="7.9151938"><ele>247.99999999999997</ele><time>2026-04-30T11:43:10.591Z</time></trkpt><trkpt lat="34.3784793" lon="7.9152524"><ele>247.0</ele><time>2026-04-30T11:43:12.611Z</time></trkpt><trkpt lat="34.3785782" lon="7.9153452"><ele>247.0</ele><time>2026-04-30T11:43:14.641Z</time></trkpt><trkpt lat="34.3786313" lon="7.9153969"><ele>247.0</ele><time>2026-04-30T11:43:15.68Z</time></trkpt><trkpt lat="34.3786886" lon="7.9154452"><ele>247.0</ele><time>2026-04-30T11:43:16.63Z</time></trkpt><trkpt lat="34.3788331" lon="7.9155843"><ele>247.0</ele><time>2026-04-30T11:43:19.651Z</time></trkpt><trkpt lat="34.37889" lon="7.9156347"><ele>247.0</ele><time>2026-04-30T11:43:20.619Z</time></trkpt><trkpt lat="34.3789429" lon="7.9156769"><ele>246.0</ele><time>2026-04-30T11:43:21.591Z</time></trkpt><trkpt lat="34.3789973" lon="7.9157193"><ele>245.0</ele><time>2026-04-30T11:43:22.614Z</time></trkpt><trkpt lat="34.3790483" lon="7.9157731"><ele>244.0</ele><time>2026-04-30T11:43:23.638Z</time></trkpt><trkpt lat="34.3790948" lon="7.9158398"><ele>243.0</ele><time>2026-04-30T11:43:24.619Z</time></trkpt><trkpt lat="34.3791328" lon="7.9159195"><ele>242.0</ele><time>2026-04-30T11:43:25.625Z</time></trkpt><trkpt lat="34.3791644" lon="7.9160037"><ele>241.0</ele><time>2026-04-30T11:43:26.607Z</time></trkpt><trkpt lat="34.3791963" lon="7.9160895"><ele>240.0</ele><time>2026-04-30T11:43:27.594Z</time></trkpt><trkpt lat="34.3792112" lon="7.9161758"><ele>240.0</ele><time>2026-04-30T11:43:28.601Z</time></trkpt><trkpt lat="34.3792341" lon="7.9162581"><ele>240.0</ele><time>2026-04-30T11:43:29.614Z</time></trkpt><trkpt lat="34.3792779" lon="7.9163288"><ele>240.0</ele><time>2026-04-30T11:43:30.617Z</time></trkpt><trkpt lat="34.3793516" lon="7.9163885"><ele>240.0</ele><time>2026-04-30T11:43:31.598Z</time></trkpt><trkpt lat="34.3794353" lon="7.9164358"><ele>240.0</ele><time>2026-04-30T11:43:32.636Z</time></trkpt><trkpt lat="34.3795209" lon="7.9164755"><ele>240.0</ele><time>2026-04-30T11:43:33.603Z</time></trkpt><trkpt lat="34.3796206" lon="7.916495"><ele>240.8</ele><time>2026-04-30T11:43:34.605Z</time></trkpt><trkpt lat="34.3797284" lon="7.9165172"><ele>241.6</ele><time>2026-04-30T11:43:35.606Z</time></trkpt><trkpt lat="34.3798294" lon="7.916551"><ele>242.39999999999998</ele><time>2026-04-30T11:43:36.619Z</time></trkpt><trkpt lat="34.3799286" lon="7.916588"><ele>243.2</ele><time>2026-04-30T11:43:37.623Z</time></trkpt><trkpt lat="34.3800126" lon="7.9166154"><ele>244.0</ele><time>2026-04-30T11:43:38.634Z</time></trkpt><trkpt lat="34.3800819" lon="7.9166507"><ele>243.99999999999997</ele><time>2026-04-30T11:43:39.651Z</time></trkpt><trkpt lat="34.3801727" lon="7.9167339"><ele>244.0</ele><time>2026-04-30T11:43:41.622Z</time></trkpt><trkpt lat="34.3802102" lon="7.916824"><ele>244.0</ele><time>2026-04-30T11:43:44.592Z</time></trkpt><trkpt lat="34.3801866" lon="7.9169016"><ele>244.0</ele><time>2026-04-30T11:43:47.618Z</time></trkpt><trkpt lat="34.3801357" lon="7.9169654"><ele>243.99999999999997</ele><time>2026-04-30T11:43:50.619Z</time></trkpt><trkpt lat="34.3800895" lon="7.917023"><ele>244.0</ele><time>2026-04-30T11:43:53.65Z</time></trkpt><trkpt lat="34.3800385" lon="7.9170953"><ele>243.66666666666666</ele><time>2026-04-30T11:43:57.606Z</time></trkpt><trkpt lat="34.3800195" lon="7.9171824"><ele>243.33333333333331</ele><time>2026-04-30T11:44:00.645Z</time></trkpt><trkpt lat="34.3800227" lon="7.9172711"><ele>243.0</ele><time>2026-04-30T11:44:03.628Z</time></trkpt><trkpt lat="34.3800608" lon="7.9173446"><ele>242.66666666666669</ele><time>2026-04-30T11:44:06.623Z</time></trkpt><trkpt lat="34.3800911" lon="7.9174216"><ele>242.33333333333334</ele><time>2026-04-30T11:44:10.655Z</time></trkpt><trkpt lat="34.3801215" lon="7.9175349"><ele>242.0</ele><time>2026-04-30T11:44:13.641Z</time></trkpt><trkpt lat="34.3801491" lon="7.9176469"><ele>243.0</ele><time>2026-04-30T11:44:15.625Z</time></trkpt><trkpt lat="34.3801801" lon="7.9178096"><ele>244.0</ele><time>2026-04-30T11:44:18.654Z</time></trkpt><trkpt lat="34.3801971" lon="7.9179078"><ele>245.0</ele><time>2026-04-30T11:44:20.629Z</time></trkpt><trkpt lat="34.3802141" lon="7.9180032"><ele>246.0</ele><time>2026-04-30T11:44:22.638Z</time></trkpt><trkpt lat="34.3802477" lon="7.9180916"><ele>247.0</ele><time>2026-04-30T11:44:24.601Z</time></trkpt><trkpt lat="34.3802739" lon="7.9181742"><ele>246.99999999999997</ele><time>2026-04-30T11:44:26.61Z</time></trkpt><trkpt lat="34.3802883" lon="7.9182606"><ele>247.0</ele><time>2026-04-30T11:44:28.613Z</time></trkpt><trkpt lat="34.3802969" lon="7.9183598"><ele>247.0</ele><time>2026-04-30T11:44:30.623Z</time></trkpt><trkpt lat="34.3803058" lon="7.9184454"><ele>247.0</ele><time>2026-04-30T11:44:32.619Z</time></trkpt><trkpt lat="34.3803173" lon="7.9185359"><ele>246.99999999999997</ele><time>2026-04-30T11:44:34.635Z</time></trkpt><trkpt lat="34.3803215" lon="7.9186289"><ele>247.0</ele><time>2026-04-30T11:44:36.634Z</time></trkpt><trkpt lat="34.3803253" lon="7.918741"><ele>249.99999999999997</ele><time>2026-04-30T11:44:38.623Z</time></trkpt><trkpt lat="34.3803263" lon="7.9188326"><ele>253.0</ele><time>2026-04-30T11:44:40.627Z</time></trkpt><trkpt lat="34.3802928" lon="7.9189279"><ele>256.0</ele><time>2026-04-30T11:45:16.62Z</time></trkpt><trkpt lat="34.3802701" lon="7.9190256"><ele>259.0</ele><time>2026-04-30T11:45:19.589Z</time></trkpt><trkpt lat="34.3802731" lon="7.9191039"><ele>262.0</ele><time>2026-04-30T11:45:22.636Z</time></trkpt><trkpt lat="34.3802888" lon="7.9191966"><ele>265.0</ele><time>2026-04-30T11:45:24.629Z</time></trkpt><trkpt lat="34.3803317" lon="7.9192893"><ele>266.8333333333333</ele><time>2026-04-30T11:45:26.637Z</time></trkpt><trkpt lat="34.3803994" lon="7.9193686"><ele>268.66666666666663</ele><time>2026-04-30T11:45:28.619Z</time></trkpt><trkpt lat="34.38046" lon="7.9194388"><ele>270.5</ele><time>2026-04-30T11:45:30.614Z</time></trkpt><trkpt lat="34.3805313" lon="7.9195053"><ele>272.3333333333333</ele><time>2026-04-30T11:45:32.618Z</time></trkpt><trkpt lat="34.380614" lon="7.9195669"><ele>274.1666666666667</ele><time>2026-04-30T11:45:34.633Z</time></trkpt><trkpt lat="34.3806789" lon="7.9196115"><ele>276.0</ele><time>2026-04-30T11:45:37.619Z</time></trkpt><trkpt lat="34.3807449" lon="7.9196483"><ele>270.2</ele><time>2026-04-30T11:45:48.64Z</time></trkpt><trkpt lat="34.3808394" lon="7.919691"><ele>264.40000000000003</ele><time>2026-04-30T11:45:50.649Z</time></trkpt><trkpt lat="34.3809408" lon="7.9197575"><ele>258.6</ele><time>2026-04-30T11:45:52.628Z</time></trkpt><trkpt lat="34.3810315" lon="7.9198373"><ele>252.8</ele><time>2026-04-30T11:45:54.609Z</time></trkpt><trkpt lat="34.381118" lon="7.9199042"><ele>247.0</ele><time>2026-04-30T11:45:56.646Z</time></trkpt><trkpt lat="34.3812028" lon="7.9199744"><ele>247.0</ele><time>2026-04-30T11:45:58.649Z</time></trkpt><trkpt lat="34.3812905" lon="7.9200251"><ele>247.0</ele><time>2026-04-30T11:46:00.628Z</time></trkpt><trkpt lat="34.3813755" lon="7.9200708"><ele>247.0</ele><time>2026-04-30T11:46:02.638Z</time></trkpt><trkpt lat="34.3814647" lon="7.9201288"><ele>247.0</ele><time>2026-04-30T11:46:04.599Z</time></trkpt><trkpt lat="34.3815503" lon="7.9201926"><ele>247.0</ele><time>2026-04-30T11:46:06.636Z</time></trkpt><trkpt lat="34.3816313" lon="7.9202407"><ele>247.49999999999997</ele><time>2026-04-30T11:46:08.645Z</time></trkpt><trkpt lat="34.381702" lon="7.9202854"><ele>248.0</ele><time>2026-04-30T11:46:10.632Z</time></trkpt><trkpt lat="34.381787" lon="7.9203277"><ele>248.5</ele><time>2026-04-30T11:46:12.649Z</time></trkpt><trkpt lat="34.3818792" lon="7.9203512"><ele>249.0</ele><time>2026-04-30T11:46:14.653Z</time></trkpt><trkpt lat="34.3819569" lon="7.9203978"><ele>249.49999999999997</ele><time>2026-04-30T11:46:16.645Z</time></trkpt><trkpt lat="34.3820356" lon="7.9204449"><ele>250.0</ele><time>2026-04-30T11:46:18.65Z</time></trkpt><trkpt lat="34.3820941" lon="7.9205037"><ele>249.99999999999997</ele><time>2026-04-30T11:46:20.599Z</time></trkpt><trkpt lat="34.382146" lon="7.920594"><ele>250.0</ele><time>2026-04-30T11:46:22.644Z</time></trkpt><trkpt lat="34.3821884" lon="7.9206965"><ele>250.0</ele><time>2026-04-30T11:46:24.639Z</time></trkpt><trkpt lat="34.382221" lon="7.9207777"><ele>250.0</ele><time>2026-04-30T11:46:26.614Z</time></trkpt><trkpt lat="34.3822833" lon="7.920858"><ele>249.99999999999997</ele><time>2026-04-30T11:46:28.636Z</time></trkpt><trkpt lat="34.382345" lon="7.9209258"><ele>250.0</ele><time>2026-04-30T11:46:30.655Z</time></trkpt><trkpt lat="34.3823756" lon="7.9210227"><ele>250.66666666666666</ele><time>2026-04-30T11:46:33.638Z</time></trkpt><trkpt lat="34.3824273" lon="7.9210839"><ele>251.33333333333331</ele><time>2026-04-30T11:46:36.626Z</time></trkpt><trkpt lat="34.3824709" lon="7.9211839"><ele>252.0</ele><time>2026-04-30T11:46:39.64Z</time></trkpt><trkpt lat="34.3825" lon="7.9212588"><ele>252.66666666666669</ele><time>2026-04-30T11:46:41.636Z</time></trkpt><trkpt lat="34.3825064" lon="7.9213716"><ele>253.33333333333334</ele><time>2026-04-30T11:46:44.638Z</time></trkpt><trkpt lat="34.3824845" lon="7.9214624"><ele>254.0</ele><time>2026-04-30T11:46:46.643Z</time></trkpt><trkpt lat="34.3824426" lon="7.9215641"><ele>254.00000000000003</ele><time>2026-04-30T11:46:48.641Z</time></trkpt><trkpt lat="34.3824006" lon="7.9216635"><ele>254.0</ele><time>2026-04-30T11:46:50.643Z</time></trkpt><trkpt lat="34.3823808" lon="7.9217595"><ele>254.0</ele><time>2026-04-30T11:46:52.605Z</time></trkpt><trkpt lat="34.382372" lon="7.9218679"><ele>254.0</ele><time>2026-04-30T11:46:54.602Z</time></trkpt><trkpt lat="34.3823607" lon="7.9219825"><ele>254.00000000000003</ele><time>2026-04-30T11:46:56.609Z</time></trkpt><trkpt lat="34.3823521" lon="7.922082"><ele>254.0</ele><time>2026-04-30T11:46:58.63Z</time></trkpt><trkpt lat="34.3823586" lon="7.9221788"><ele>254.16666666666669</ele><time>2026-04-30T11:47:00.652Z</time></trkpt><trkpt lat="34.3823652" lon="7.9222677"><ele>254.33333333333334</ele><time>2026-04-30T11:47:02.608Z</time></trkpt><trkpt lat="34.3823266" lon="7.9223727"><ele>254.5</ele><time>2026-04-30T11:47:05.648Z</time></trkpt><trkpt lat="34.3822934" lon="7.9224502"><ele>254.66666666666669</ele><time>2026-04-30T11:47:07.632Z</time></trkpt><trkpt lat="34.3822777" lon="7.9225559"><ele>254.83333333333334</ele><time>2026-04-30T11:47:09.636Z</time></trkpt><trkpt lat="34.3822769" lon="7.9226595"><ele>255.0</ele><time>2026-04-30T11:47:11.644Z</time></trkpt><trkpt lat="34.3822903" lon="7.9227789"><ele>255.2</ele><time>2026-04-30T11:47:13.635Z</time></trkpt><trkpt lat="34.3823072" lon="7.9228895"><ele>255.4</ele><time>2026-04-30T11:47:15.642Z</time></trkpt><trkpt lat="34.3823168" lon="7.922997"><ele>255.60000000000002</ele><time>2026-04-30T11:47:17.643Z</time></trkpt><trkpt lat="34.3823267" lon="7.9231042"><ele>255.8</ele><time>2026-04-30T11:47:19.617Z</time></trkpt><trkpt lat="34.382345" lon="7.9232147"><ele>256.0</ele><time>2026-04-30T11:47:21.649Z</time></trkpt><trkpt lat="34.3823766" lon="7.9233147"><ele>255.66666666666666</ele><time>2026-04-30T11:47:23.618Z</time></trkpt><trkpt lat="34.3823988" lon="7.9234199"><ele>255.33333333333331</ele><time>2026-04-30T11:47:25.632Z</time></trkpt><trkpt lat="34.3824387" lon="7.9234883"><ele>255.0</ele><time>2026-04-30T11:47:27.642Z</time></trkpt><trkpt lat="34.382495" lon="7.9235771"><ele>254.66666666666669</ele><time>2026-04-30T11:47:30.619Z</time></trkpt><trkpt lat="34.382556" lon="7.923652"><ele>254.33333333333334</ele><time>2026-04-30T11:47:32.654Z</time></trkpt><trkpt lat="34.3826241" lon="7.9237312"><ele>254.0</ele><time>2026-04-30T11:47:34.633Z</time></trkpt><trkpt lat="34.3826855" lon="7.923791"><ele>254.00000000000003</ele><time>2026-04-30T11:47:36.643Z</time></trkpt><trkpt lat="34.3827316" lon="7.9238628"><ele>254.0</ele><time>2026-04-30T11:47:38.634Z</time></trkpt><trkpt lat="34.3827688" lon="7.923939"><ele>254.0</ele><time>2026-04-30T11:47:40.633Z</time></trkpt><trkpt lat="34.3827875" lon="7.9240297"><ele>254.0</ele><time>2026-04-30T11:47:42.642Z</time></trkpt><trkpt lat="34.3827862" lon="7.9241332"><ele>254.00000000000003</ele><time>2026-04-30T11:47:44.638Z</time></trkpt><trkpt lat="34.3827609" lon="7.9242398"><ele>254.0</ele><time>2026-04-30T11:47:46.609Z</time></trkpt><trkpt lat="34.3827415" lon="7.9243451"><ele>254.2</ele><time>2026-04-30T11:47:48.641Z</time></trkpt><trkpt lat="34.3827142" lon="7.9244574"><ele>254.39999999999998</ele><time>2026-04-30T11:47:50.64Z</time></trkpt><trkpt lat="34.3826833" lon="7.92457"><ele>254.6</ele><time>2026-04-30T11:47:52.609Z</time></trkpt><trkpt lat="34.3826446" lon="7.9246897"><ele>254.8</ele><time>2026-04-30T11:47:54.625Z</time></trkpt><trkpt lat="34.3825952" lon="7.9247989"><ele>255.0</ele><time>2026-04-30T11:47:56.606Z</time></trkpt><trkpt lat="34.3825535" lon="7.9249172"><ele>255.0</ele><time>2026-04-30T11:47:58.637Z</time></trkpt><trkpt lat="34.3825267" lon="7.9249981"><ele>255.0</ele><time>2026-04-30T11:48:00.634Z</time></trkpt><trkpt lat="34.3825003" lon="7.9250825"><ele>255.0</ele><time>2026-04-30T11:48:02.643Z</time></trkpt><trkpt lat="34.3824571" lon="7.9251802"><ele>255.0</ele><time>2026-04-30T11:48:04.636Z</time></trkpt><trkpt lat="34.3824126" lon="7.9252932"><ele>255.0</ele><time>2026-04-30T11:48:06.632Z</time></trkpt><trkpt lat="34.382387" lon="7.925387"><ele>255.0</ele><time>2026-04-30T11:48:08.646Z</time></trkpt><trkpt lat="34.3823502" lon="7.9254767"><ele>256.2</ele><time>2026-04-30T11:48:10.611Z</time></trkpt><trkpt lat="34.3822904" lon="7.9255904"><ele>257.4</ele><time>2026-04-30T11:48:12.631Z</time></trkpt><trkpt lat="34.3822473" lon="7.9257188"><ele>258.6</ele><time>2026-04-30T11:48:14.621Z</time></trkpt><trkpt lat="34.3822141" lon="7.9258513"><ele>259.8</ele><time>2026-04-30T11:48:16.614Z</time></trkpt><trkpt lat="34.3822004" lon="7.9259268"><ele>261.0</ele><time>2026-04-30T11:48:17.591Z</time></trkpt><trkpt lat="34.3821914" lon="7.9260661"><ele>261.5</ele><time>2026-04-30T11:48:19.626Z</time></trkpt><trkpt lat="34.3821736" lon="7.9262011"><ele>262.0</ele><time>2026-04-30T11:48:21.605Z</time></trkpt><trkpt lat="34.3821548" lon="7.9263337"><ele>262.5</ele><time>2026-04-30T11:48:23.593Z</time></trkpt><trkpt lat="34.3821439" lon="7.9264715"><ele>263.0</ele><time>2026-04-30T11:48:25.648Z</time></trkpt><trkpt lat="34.3821444" lon="7.9266098"><ele>262.4</ele><time>2026-04-30T11:48:27.601Z</time></trkpt><trkpt lat="34.3821412" lon="7.9267511"><ele>261.8</ele><time>2026-04-30T11:48:29.645Z</time></trkpt><trkpt lat="34.382144" lon="7.9268791"><ele>261.2</ele><time>2026-04-30T11:48:31.611Z</time></trkpt><trkpt lat="34.3821354" lon="7.926998"><ele>260.6</ele><time>2026-04-30T11:48:33.65Z</time></trkpt><trkpt lat="34.3821006" lon="7.9271037"><ele>260.0</ele><time>2026-04-30T11:48:35.64Z</time></trkpt><trkpt lat="34.3820805" lon="7.9272229"><ele>260.0</ele><time>2026-04-30T11:48:37.638Z</time></trkpt><trkpt lat="34.3820589" lon="7.9273391"><ele>260.0</ele><time>2026-04-30T11:48:39.645Z</time></trkpt><trkpt lat="34.3820308" lon="7.9274425"><ele>260.0</ele><time>2026-04-30T11:48:41.645Z</time></trkpt><trkpt lat="34.3820137" lon="7.9275753"><ele>260.0</ele><time>2026-04-30T11:48:43.616Z</time></trkpt><trkpt lat="34.3820038" lon="7.9277091"><ele>260.0</ele><time>2026-04-30T11:48:45.665Z</time></trkpt><trkpt lat="34.3819956" lon="7.9278331"><ele>260.2</ele><time>2026-04-30T11:48:47.651Z</time></trkpt><trkpt lat="34.3819882" lon="7.9279583"><ele>260.4</ele><time>2026-04-30T11:48:49.658Z</time></trkpt><trkpt lat="34.3819796" lon="7.9280854"><ele>260.6</ele><time>2026-04-30T11:48:51.645Z</time></trkpt><trkpt lat="34.3819536" lon="7.928202"><ele>260.8</ele><time>2026-04-30T11:48:53.654Z</time></trkpt><trkpt lat="34.3819255" lon="7.9283001"><ele>261.0</ele><time>2026-04-30T11:48:55.638Z</time></trkpt><trkpt lat="34.3819167" lon="7.928388"><ele>261.1666666666667</ele><time>2026-04-30T11:48:58.631Z</time></trkpt><trkpt lat="34.3819528" lon="7.9284705"><ele>261.3333333333333</ele><time>2026-04-30T11:49:03.633Z</time></trkpt><trkpt lat="34.381989" lon="7.9285594"><ele>261.5</ele><time>2026-04-30T11:49:05.639Z</time></trkpt><trkpt lat="34.3819965" lon="7.9286382"><ele>261.66666666666663</ele><time>2026-04-30T11:49:07.623Z</time></trkpt><trkpt lat="34.3819727" lon="7.9287242"><ele>261.8333333333333</ele><time>2026-04-30T11:49:10.629Z</time></trkpt><trkpt lat="34.3819444" lon="7.9288363"><ele>262.0</ele><time>2026-04-30T11:49:12.636Z</time></trkpt><trkpt lat="34.3819162" lon="7.9289606"><ele>262.0</ele><time>2026-04-30T11:49:14.604Z</time></trkpt><trkpt lat="34.3818953" lon="7.9290892"><ele>262.0</ele><time>2026-04-30T11:49:16.62Z</time></trkpt><trkpt lat="34.3818924" lon="7.9291796"><ele>262.0</ele><time>2026-04-30T11:49:18.628Z</time></trkpt><trkpt lat="34.381893" lon="7.9292716"><ele>262.0</ele><time>2026-04-30T11:49:20.588Z</time></trkpt><trkpt lat="34.3818915" lon="7.9293609"><ele>262.0</ele><time>2026-04-30T11:49:22.61Z</time></trkpt><trkpt lat="34.3818976" lon="7.9294503"><ele>262.0</ele><time>2026-04-30T11:49:24.618Z</time></trkpt><trkpt lat="34.3819035" lon="7.9295466"><ele>262.3333333333333</ele><time>2026-04-30T11:49:26.65Z</time></trkpt><trkpt lat="34.3819036" lon="7.9296295"><ele>262.66666666666663</ele><time>2026-04-30T11:49:28.635Z</time></trkpt><trkpt lat="34.3818466" lon="7.9297057"><ele>263.0</ele><time>2026-04-30T11:49:31.626Z</time></trkpt><trkpt lat="34.3817838" lon="7.9297386"><ele>263.3333333333333</ele><time>2026-04-30T11:49:33.643Z</time></trkpt><trkpt lat="34.3817103" lon="7.9297914"><ele>263.6666666666667</ele><time>2026-04-30T11:49:35.615Z</time></trkpt><trkpt lat="34.3816256" lon="7.9298324"><ele>264.0</ele><time>2026-04-30T11:49:37.609Z</time></trkpt><trkpt lat="34.3815518" lon="7.9298968"><ele>264.0</ele><time>2026-04-30T11:49:40.632Z</time></trkpt><trkpt lat="34.3814923" lon="7.9299603"><ele>264.0</ele><time>2026-04-30T11:49:42.635Z</time></trkpt><trkpt lat="34.3814568" lon="7.9300481"><ele>264.0</ele><time>2026-04-30T11:49:44.639Z</time></trkpt><trkpt lat="34.3814205" lon="7.9301573"><ele>264.0</ele><time>2026-04-30T11:49:46.63Z</time></trkpt><trkpt lat="34.3813919" lon="7.9302751"><ele>264.0</ele><time>2026-04-30T11:49:48.639Z</time></trkpt><trkpt lat="34.3813679" lon="7.9304044"><ele>266.5</ele><time>2026-04-30T11:49:50.67Z</time></trkpt><trkpt lat="34.3813351" lon="7.9305216"><ele>269.0</ele><time>2026-04-30T11:49:52.632Z</time></trkpt><trkpt lat="34.3813224" lon="7.9306244"><ele>271.5</ele><time>2026-04-30T11:49:54.615Z</time></trkpt><trkpt lat="34.3813008" lon="7.9307164"><ele>274.0</ele><time>2026-04-30T11:49:56.64Z</time></trkpt><trkpt lat="34.3812937" lon="7.9308107"><ele>276.5</ele><time>2026-04-30T11:49:58.64Z</time></trkpt><trkpt lat="34.3813209" lon="7.9308871"><ele>279.0</ele><time>2026-04-30T11:50:00.629Z</time></trkpt><trkpt lat="34.3813196" lon="7.9309734"><ele>279.0</ele><time>2026-04-30T11:50:04.635Z</time></trkpt><trkpt lat="34.3812549" lon="7.9310282"><ele>279.0</ele><time>2026-04-30T11:50:07.644Z</time></trkpt><trkpt lat="34.3811676" lon="7.9310456"><ele>279.0</ele><time>2026-04-30T11:50:10.592Z</time></trkpt><trkpt lat="34.3810923" lon="7.9310544"><ele>279.0</ele><time>2026-04-30T11:50:14.61Z</time></trkpt><trkpt lat="34.3810222" lon="7.9310615"><ele>279.0</ele><time>2026-04-30T11:50:24.631Z</time></trkpt><trkpt lat="34.380954" lon="7.9310429"><ele>279.0</ele><time>2026-04-30T11:50:27.62Z</time></trkpt><trkpt lat="34.3808692" lon="7.9310286"><ele>279.0</ele><time>2026-04-30T11:50:31.622Z</time></trkpt><trkpt lat="34.3807756" lon="7.9310203"><ele>279.0</ele><time>2026-04-30T11:50:34.622Z</time></trkpt><trkpt lat="34.3806962" lon="7.9309906"><ele>279.0</ele><time>2026-04-30T11:50:38.619Z</time></trkpt><trkpt lat="34.380616" lon="7.9309624"><ele>279.0</ele><time>2026-04-30T11:50:42.616Z</time></trkpt><trkpt lat="34.3805487" lon="7.930946"><ele>279.0</ele><time>2026-04-30T11:50:45.633Z</time></trkpt><trkpt lat="34.3804845" lon="7.9309477"><ele>279.0</ele><time>2026-04-30T11:50:48.613Z</time></trkpt><trkpt lat="34.380414" lon="7.9309091"><ele>280.57142857142856</ele><time>2026-04-30T11:50:53.616Z</time></trkpt><trkpt lat="34.3803523" lon="7.9309257"><ele>282.1428571428571</ele><time>2026-04-30T11:50:57.622Z</time></trkpt><trkpt lat="34.3802815" lon="7.930944"><ele>283.7142857142857</ele><time>2026-04-30T11:50:59.596Z</time></trkpt><trkpt lat="34.3802305" lon="7.9310036"><ele>285.2857142857143</ele><time>2026-04-30T11:51:02.6Z</time></trkpt><trkpt lat="34.3801659" lon="7.9310821"><ele>286.8571428571429</ele><time>2026-04-30T11:51:25.613Z</time></trkpt><trkpt lat="34.3801019" lon="7.9310935"><ele>288.42857142857144</ele><time>2026-04-30T11:51:37.604Z</time></trkpt><trkpt lat="34.3800809" lon="7.9310139"><ele>290.0</ele><time>2026-04-30T11:51:50.615Z</time></trkpt><trkpt lat="34.3801164" lon="7.9310917"><ele>290.0</ele><time>2026-04-30T11:53:37.625Z</time></trkpt><trkpt lat="34.3801828" lon="7.9310892"><ele>290.0</ele><time>2026-04-30T11:53:42.578Z</time></trkpt><trkpt lat="34.3802957" lon="7.931074"><ele>290.0</ele><time>2026-04-30T11:53:51.571Z</time></trkpt><trkpt lat="34.3803123" lon="7.9309675"><ele>290.0</ele><time>2026-04-30T11:53:56.569Z</time></trkpt><trkpt lat="34.3803166" lon="7.9308745"><ele>290.0</ele><time>2026-04-30T11:53:59.567Z</time></trkpt><trkpt lat="34.3803413" lon="7.9307296"><ele>289.6666666666667</ele><time>2026-04-30T11:54:01.592Z</time></trkpt><trkpt lat="34.3804127" lon="7.930758"><ele>289.33333333333337</ele><time>2026-04-30T11:54:07.597Z</time></trkpt><trkpt lat="34.3804803" lon="7.9307783"><ele>289.0</ele><time>2026-04-30T11:54:11.614Z</time></trkpt><trkpt lat="34.3805056" lon="7.9308629"><ele>288.6666666666667</ele><time>2026-04-30T11:54:14.62Z</time></trkpt><trkpt lat="34.3805965" lon="7.9308699"><ele>288.3333333333333</ele><time>2026-04-30T11:54:52.602Z</time></trkpt><trkpt lat="34.3806194" lon="7.9307795"><ele>288.0</ele><time>2026-04-30T11:54:56.599Z</time></trkpt><trkpt lat="34.3806259" lon="7.930647"><ele>288.0</ele><time>2026-04-30T11:54:58.605Z</time></trkpt><trkpt lat="34.3806355" lon="7.9305694"><ele>288.0</ele><time>2026-04-30T11:54:59.601Z</time></trkpt><trkpt lat="34.3806949" lon="7.9304849"><ele>288.0</ele><time>2026-04-30T11:55:01.598Z</time></trkpt><trkpt lat="34.3806209" lon="7.9304668"><ele>288.0</ele><time>2026-04-30T11:55:04.582Z</time></trkpt><trkpt lat="34.3805506" lon="7.9304448"><ele>288.0</ele><time>2026-04-30T11:55:13.11Z</time></trkpt><trkpt lat="34.380375" lon="7.9305794"><ele>288.0</ele><time>2026-04-30T11:55:30.576Z</time></trkpt><trkpt lat="34.3803596" lon="7.9306855"><ele>288.0</ele><time>2026-04-30T11:55:32.577Z</time></trkpt><trkpt lat="34.380315" lon="7.9308115"><ele>288.0</ele><time>2026-04-30T11:55:34.597Z</time></trkpt><trkpt lat="34.3802755" lon="7.9309164"><ele>288.0</ele><time>2026-04-30T11:55:36.608Z</time></trkpt><trkpt lat="34.3802618" lon="7.9310025"><ele>288.0</ele><time>2026-04-30T11:55:38.572Z</time></trkpt><trkpt lat="34.3802436" lon="7.9310818"><ele>288.0</ele><time>2026-04-30T11:55:42.562Z</time></trkpt><trkpt lat="34.380234" lon="7.9311842"><ele>288.0</ele><time>2026-04-30T11:55:46.596Z</time></trkpt><trkpt lat="34.3802309" lon="7.9312637"><ele>288.0</ele><time>2026-04-30T11:55:50.611Z</time></trkpt><trkpt lat="34.3802082" lon="7.9313554"><ele>288.0</ele><time>2026-04-30T11:55:59.187Z</time></trkpt><trkpt lat="34.380375" lon="7.9305794"><ele>288.0</ele><time>2026-04-30T11:55:30.576Z</time></trkpt><trkpt lat="34.3803596" lon="7.9306855"><ele>288.0</ele><time>2026-04-30T11:55:32.577Z</time></trkpt><trkpt lat="34.380315" lon="7.9308115"><ele>288.0</ele><time>2026-04-30T11:55:34.597Z</time></trkpt><trkpt lat="34.3802755" lon="7.9309164"><ele>288.0</ele><time>2026-04-30T11:55:36.608Z</time></trkpt><trkpt lat="34.3802618" lon="7.9310025"><ele>288.0</ele><time>2026-04-30T11:55:38.572Z</time></trkpt><trkpt lat="34.3802436" lon="7.9310818"><ele>288.0</ele><time>2026-04-30T11:55:42.562Z</time></trkpt><trkpt lat="34.380234" lon="7.9311842"><ele>288.4</ele><time>2026-04-30T11:55:46.596Z</time></trkpt><trkpt lat="34.3802309" lon="7.9312637"><ele>288.8</ele><time>2026-04-30T11:55:50.611Z</time></trkpt><trkpt lat="34.3802082" lon="7.9313554"><ele>289.2</ele><time>2026-04-30T11:55:59.187Z</time></trkpt><trkpt lat="34.3801506" lon="7.9314952"><ele>289.6</ele><time>2026-04-30T11:56:02.931Z</time></trkpt><trkpt lat="34.3802586" lon="7.9314096"><ele>290.0</ele><time>2026-04-30T11:56:06.615Z</time></trkpt><trkpt lat="34.3805804" lon="7.9311337"><ele>290.0</ele><time>2026-04-30T11:56:07.603Z</time></trkpt><trkpt lat="34.3806458" lon="7.9310669"><ele>290.0</ele><time>2026-04-30T11:56:09.603Z</time></trkpt><trkpt lat="34.3805339" lon="7.931169"><ele>290.0</ele><time>2026-04-30T11:56:47.575Z</time></trkpt><trkpt lat="34.3804463" lon="7.931237"><ele>290.0</ele><time>2026-04-30T11:56:48.607Z</time></trkpt><trkpt lat="34.3803332" lon="7.9313161"><ele>290.0</ele><time>2026-04-30T11:56:50.598Z</time></trkpt><trkpt lat="34.3802511" lon="7.9313046"><ele>290.0</ele><time>2026-04-30T11:56:53.569Z</time></trkpt><trkpt lat="34.3801859" lon="7.931292"><ele>290.0</ele><time>2026-04-30T11:56:58.607Z</time></trkpt><trkpt lat="34.3801421" lon="7.9313574"><ele>290.0</ele><time>2026-04-30T11:57:32.603Z</time></trkpt><trkpt lat="34.3801023" lon="7.9312949"><ele>290.0</ele><time>2026-04-30T11:57:42.584Z</time></trkpt><trkpt lat="34.3800877" lon="7.9312193"><ele>290.0</ele><time>2026-04-30T11:57:48.597Z</time></trkpt><trkpt lat="34.3800928" lon="7.9311414"><ele>290.0</ele><time>2026-04-30T11:58:03.614Z</time></trkpt><trkpt lat="34.3800283" lon="7.9310917"><ele>290.0</ele><time>2026-04-30T11:58:12.595Z</time></trkpt><trkpt lat="34.3799704" lon="7.9310291"><ele>290.0</ele><time>2026-04-30T11:58:25.592Z</time></trkpt><trkpt lat="34.3799073" lon="7.9310465"><ele>290.0</ele><time>2026-04-30T11:58:31.508Z</time></trkpt><trkpt lat="34.3798437" lon="7.931078"><ele>290.0</ele><time>2026-04-30T11:58:37.606Z</time></trkpt><trkpt lat="34.3797667" lon="7.931071"><ele>290.0</ele><time>2026-04-30T11:58:47.609Z</time></trkpt><trkpt lat="34.3797131" lon="7.9310305"><ele>290.0</ele><time>2026-04-30T11:58:53.618Z</time></trkpt><trkpt lat="34.379707" lon="7.9309461"><ele>290.0</ele><time>2026-04-30T11:59:00.65Z</time></trkpt><trkpt lat="34.3796733" lon="7.930871"><ele>289.0</ele><time>2026-04-30T11:59:06.609Z</time></trkpt><trkpt lat="34.3796274" lon="7.9308045"><ele>288.0</ele><time>2026-04-30T11:59:12.614Z</time></trkpt><trkpt lat="34.379557" lon="7.9308196"><ele>287.0</ele><time>2026-04-30T11:59:17.614Z</time></trkpt><trkpt lat="34.3794907" lon="7.9308452"><ele>286.0</ele><time>2026-04-30T11:59:22.606Z</time></trkpt><trkpt lat="34.379422" lon="7.9308426"><ele>285.0</ele><time>2026-04-30T11:59:27.586Z</time></trkpt><trkpt lat="34.3793499" lon="7.9308575"><ele>284.0</ele><time>2026-04-30T11:59:49.624Z</time></trkpt><trkpt lat="34.3792796" lon="7.9308499"><ele>283.0</ele><time>2026-04-30T12:00:12.587Z</time></trkpt><trkpt lat="34.3792157" lon="7.9308295"><ele>283.0</ele><time>2026-04-30T12:00:20.565Z</time></trkpt><trkpt lat="34.3791904" lon="7.9307559"><ele>283.0</ele><time>2026-04-30T12:00:39.548Z</time></trkpt><trkpt lat="34.3791461" lon="7.9306829"><ele>283.0</ele><time>2026-04-30T12:00:46.644Z</time></trkpt><trkpt lat="34.3790812" lon="7.9306599"><ele>283.0</ele><time>2026-04-30T12:00:53.621Z</time></trkpt><trkpt lat="34.3790448" lon="7.9305944"><ele>283.0</ele><time>2026-04-30T12:00:58.605Z</time></trkpt><trkpt lat="34.3790218" lon="7.9305188"><ele>283.0</ele><time>2026-04-30T12:01:05.6Z</time></trkpt><trkpt lat="34.3789967" lon="7.9304485"><ele>283.0</ele><time>2026-04-30T12:01:12.64Z</time></trkpt><trkpt lat="34.3789344" lon="7.9304736"><ele>283.0</ele><time>2026-04-30T12:01:36.627Z</time></trkpt><trkpt lat="34.3788783" lon="7.9305221"><ele>283.0</ele><time>2026-04-30T12:01:42.658Z</time></trkpt><trkpt lat="34.3788105" lon="7.9305478"><ele>283.0</ele><time>2026-04-30T12:01:49.639Z</time></trkpt><trkpt lat="34.3787511" lon="7.9305789"><ele>283.0</ele><time>2026-04-30T12:01:55.652Z</time></trkpt><trkpt lat="34.3786974" lon="7.9306249"><ele>283.0</ele><time>2026-04-30T12:02:01.643Z</time></trkpt><trkpt lat="34.3786311" lon="7.9306384"><ele>283.0</ele><time>2026-04-30T12:02:08.609Z</time></trkpt><trkpt lat="34.3785665" lon="7.9306201"><ele>283.0</ele><time>2026-04-30T12:02:17.642Z</time></trkpt><trkpt lat="34.3786305" lon="7.9306385"><ele>283.57142857142856</ele><time>2026-04-30T12:03:00.665Z</time></trkpt><trkpt lat="34.3786762" lon="7.9306992"><ele>284.14285714285717</ele><time>2026-04-30T12:03:05.64Z</time></trkpt><trkpt lat="34.3787075" lon="7.9307791"><ele>284.7142857142857</ele><time>2026-04-30T12:03:11.652Z</time></trkpt><trkpt lat="34.3787257" lon="7.9308564"><ele>285.2857142857143</ele><time>2026-04-30T12:03:20.64Z</time></trkpt><trkpt lat="34.3787689" lon="7.9309197"><ele>285.8571428571429</ele><time>2026-04-30T12:03:28.662Z</time></trkpt><trkpt lat="34.378804" lon="7.9309906"><ele>286.42857142857144</ele><time>2026-04-30T12:03:34.664Z</time></trkpt><trkpt lat="34.3788324" lon="7.9310636"><ele>287.0</ele><time>2026-04-30T12:03:40.648Z</time></trkpt><trkpt lat="34.3788779" lon="7.9311196"><ele>287.85714285714283</ele><time>2026-04-30T12:05:10.67Z</time></trkpt><trkpt lat="34.378922" lon="7.9311866"><ele>288.7142857142857</ele><time>2026-04-30T12:05:16.569Z</time></trkpt><trkpt lat="34.378959" lon="7.9312497"><ele>289.57142857142856</ele><time>2026-04-30T12:05:21.649Z</time></trkpt><trkpt lat="34.3790097" lon="7.931297"><ele>290.42857142857144</ele><time>2026-04-30T12:05:26.651Z</time></trkpt><trkpt lat="34.3790814" lon="7.9312954"><ele>291.2857142857143</ele><time>2026-04-30T12:05:33.549Z</time></trkpt><trkpt lat="34.3791538" lon="7.9313117"><ele>292.1428571428571</ele><time>2026-04-30T12:05:40.657Z</time></trkpt><trkpt lat="34.3792401" lon="7.9313599"><ele>293.0</ele><time>2026-04-30T12:06:17.658Z</time></trkpt><trkpt lat="34.379309" lon="7.9313652"><ele>292.99999999999994</ele><time>2026-04-30T12:06:22.66Z</time></trkpt><trkpt lat="34.3793785" lon="7.9313557"><ele>293.0</ele><time>2026-04-30T12:06:28.646Z</time></trkpt><trkpt lat="34.3794367" lon="7.9313122"><ele>293.0</ele><time>2026-04-30T12:06:43.677Z</time></trkpt><trkpt lat="34.3794792" lon="7.931241"><ele>293.0</ele><time>2026-04-30T12:06:48.669Z</time></trkpt><trkpt lat="34.3794953" lon="7.9311672"><ele>293.0</ele><time>2026-04-30T12:06:53.631Z</time></trkpt><trkpt lat="34.3795063" lon="7.9310838"><ele>292.99999999999994</ele><time>2026-04-30T12:07:00.614Z</time></trkpt><trkpt lat="34.3795345" lon="7.9311548"><ele>293.0</ele><time>2026-04-30T12:08:03.6Z</time></trkpt><trkpt lat="34.3794935" lon="7.9312215"><ele>292.99999999999994</ele><time>2026-04-30T12:09:30.59Z</time></trkpt><trkpt lat="34.3795261" lon="7.9313005"><ele>293.0</ele><time>2026-04-30T12:09:36.643Z</time></trkpt><trkpt lat="34.3795702" lon="7.9313593"><ele>293.0</ele><time>2026-04-30T12:09:42.636Z</time></trkpt><trkpt lat="34.3796359" lon="7.9314002"><ele>293.0</ele><time>2026-04-30T12:09:49.645Z</time></trkpt><trkpt lat="34.3796985" lon="7.931425"><ele>293.0</ele><time>2026-04-30T12:09:55.648Z</time></trkpt><trkpt lat="34.3797546" lon="7.931477"><ele>292.99999999999994</ele><time>2026-04-30T12:10:02.649Z</time></trkpt><trkpt lat="34.3798165" lon="7.9315202"><ele>293.0</ele><time>2026-04-30T12:10:08.659Z</time></trkpt><trkpt lat="34.3798862" lon="7.9315302"><ele>292.57142857142856</ele><time>2026-04-30T12:10:14.636Z</time></trkpt><trkpt lat="34.3799551" lon="7.9315215"><ele>292.1428571428571</ele><time>2026-04-30T12:10:20.654Z</time></trkpt><trkpt lat="34.3800263" lon="7.9315247"><ele>291.7142857142857</ele><time>2026-04-30T12:10:26.674Z</time></trkpt><trkpt lat="34.3800962" lon="7.9315158"><ele>291.2857142857143</ele><time>2026-04-30T12:10:32.589Z</time></trkpt><trkpt lat="34.380155" lon="7.9315536"><ele>290.8571428571429</ele><time>2026-04-30T12:10:38.617Z</time></trkpt><trkpt lat="34.3802223" lon="7.9315673"><ele>290.42857142857144</ele><time>2026-04-30T12:10:44.66Z</time></trkpt><trkpt lat="34.3802942" lon="7.9315576"><ele>290.0</ele><time>2026-04-30T12:10:51.654Z</time></trkpt><trkpt lat="34.3803554" lon="7.9315221"><ele>290.0</ele><time>2026-04-30T12:10:57.633Z</time></trkpt><trkpt lat="34.3804147" lon="7.9314749"><ele>290.0</ele><time>2026-04-30T12:11:13.653Z</time></trkpt><trkpt lat="34.3804708" lon="7.931427"><ele>290.0</ele><time>2026-04-30T12:11:19.653Z</time></trkpt><trkpt lat="34.380534" lon="7.9314322"><ele>290.0</ele><time>2026-04-30T12:11:28.659Z</time></trkpt><trkpt lat="34.3806014" lon="7.9314682"><ele>290.0</ele><time>2026-04-30T12:11:35.631Z</time></trkpt><trkpt lat="34.380654" lon="7.93152"><ele>290.0</ele><time>2026-04-30T12:11:42.664Z</time></trkpt><trkpt lat="34.3807234" lon="7.9315185"><ele>290.0</ele><time>2026-04-30T12:11:49.664Z</time></trkpt><trkpt lat="34.3807759" lon="7.9315776"><ele>289.0</ele><time>2026-04-30T12:12:01.657Z</time></trkpt><trkpt lat="34.3808246" lon="7.931641"><ele>288.0</ele><time>2026-04-30T12:12:08.609Z</time></trkpt><trkpt lat="34.3808306" lon="7.9317279"><ele>287.0</ele><time>2026-04-30T12:12:14.636Z</time></trkpt><trkpt lat="34.3808611" lon="7.9318023"><ele>286.0</ele><time>2026-04-30T12:12:21.571Z</time></trkpt><trkpt lat="34.3809244" lon="7.9318132"><ele>285.0</ele><time>2026-04-30T12:12:47.623Z</time></trkpt><trkpt lat="34.3809885" lon="7.9318335"><ele>284.0</ele><time>2026-04-30T12:12:56.661Z</time></trkpt><trkpt lat="34.3810413" lon="7.9318794"><ele>283.0</ele><time>2026-04-30T12:13:01.641Z</time></trkpt><trkpt lat="34.3810856" lon="7.9319435"><ele>283.0</ele><time>2026-04-30T12:13:07.669Z</time></trkpt><trkpt lat="34.3811255" lon="7.9320082"><ele>283.0</ele><time>2026-04-30T12:13:13.635Z</time></trkpt><trkpt lat="34.3811739" lon="7.932075"><ele>283.0</ele><time>2026-04-30T12:13:20.656Z</time></trkpt><trkpt lat="34.3812202" lon="7.932138"><ele>283.0</ele><time>2026-04-30T12:13:28.617Z</time></trkpt><trkpt lat="34.3812098" lon="7.9322182"><ele>283.0</ele><time>2026-04-30T12:14:13.65Z</time></trkpt><trkpt lat="34.381187" lon="7.9322923"><ele>283.0</ele><time>2026-04-30T12:14:21.646Z</time></trkpt><trkpt lat="34.3811405" lon="7.932348"><ele>283.0</ele><time>2026-04-30T12:14:26.668Z</time></trkpt><trkpt lat="34.3811491" lon="7.9324281"><ele>283.0</ele><time>2026-04-30T12:14:32.628Z</time></trkpt><trkpt lat="34.381127" lon="7.9325091"><ele>283.0</ele><time>2026-04-30T12:14:39.649Z</time></trkpt><trkpt lat="34.3810747" lon="7.9325542"><ele>283.0</ele><time>2026-04-30T12:14:44.619Z</time></trkpt><trkpt lat="34.3810576" lon="7.93263"><ele>283.0</ele><time>2026-04-30T12:14:49.639Z</time></trkpt><trkpt lat="34.3810663" lon="7.932715"><ele>283.0</ele><time>2026-04-30T12:14:56.656Z</time></trkpt><trkpt lat="34.3810593" lon="7.9327931"><ele>283.0</ele><time>2026-04-30T12:15:03.672Z</time></trkpt><trkpt lat="34.381024" lon="7.9328661"><ele>283.0</ele><time>2026-04-30T12:15:11.407Z</time></trkpt><trkpt lat="34.3810041" lon="7.9329393"><ele>283.2857142857143</ele><time>2026-04-30T12:15:17.66Z</time></trkpt><trkpt lat="34.3810487" lon="7.933012"><ele>283.5714285714286</ele><time>2026-04-30T12:15:24.506Z</time></trkpt><trkpt lat="34.3811025" lon="7.9330526"><ele>283.8571428571429</ele><time>2026-04-30T12:15:30.565Z</time></trkpt><trkpt lat="34.3811707" lon="7.9330678"><ele>284.14285714285717</ele><time>2026-04-30T12:15:53.663Z</time></trkpt><trkpt lat="34.3811723" lon="7.9331469"><ele>284.42857142857144</ele><time>2026-04-30T12:16:03.665Z</time></trkpt><trkpt lat="34.3811653" lon="7.9332265"><ele>284.7142857142857</ele><time>2026-04-30T12:16:10.622Z</time></trkpt><trkpt lat="34.3812165" lon="7.9332807"><ele>285.0</ele><time>2026-04-30T12:16:23.66Z</time></trkpt><trkpt lat="34.3812809" lon="7.9332564"><ele>285.0</ele><time>2026-04-30T12:17:19.6Z</time></trkpt><trkpt lat="34.3813415" lon="7.9332947"><ele>285.0</ele><time>2026-04-30T12:17:26.664Z</time></trkpt><trkpt lat="34.3814012" lon="7.9333214"><ele>285.0</ele><time>2026-04-30T12:17:36.642Z</time></trkpt><trkpt lat="34.3814671" lon="7.9333311"><ele>285.0</ele><time>2026-04-30T12:17:45.635Z</time></trkpt><trkpt lat="34.3815315" lon="7.9333174"><ele>285.0</ele><time>2026-04-30T12:17:57.63Z</time></trkpt><trkpt lat="34.3815945" lon="7.9332883"><ele>285.0</ele><time>2026-04-30T12:18:08.552Z</time></trkpt><trkpt lat="34.3816558" lon="7.933253"><ele>285.0</ele><time>2026-04-30T12:18:16.631Z</time></trkpt><trkpt lat="34.3817173" lon="7.9332146"><ele>283.1428571428571</ele><time>2026-04-30T12:18:22.604Z</time></trkpt><trkpt lat="34.3817838" lon="7.9331852"><ele>281.2857142857143</ele><time>2026-04-30T12:18:27.609Z</time></trkpt><trkpt lat="34.3817914" lon="7.9331092"><ele>279.42857142857144</ele><time>2026-04-30T12:18:34.653Z</time></trkpt><trkpt lat="34.3817975" lon="7.9330306"><ele>277.57142857142856</ele><time>2026-04-30T12:18:47.612Z</time></trkpt><trkpt lat="34.3817476" lon="7.9329702"><ele>275.7142857142857</ele><time>2026-04-30T12:18:52.623Z</time></trkpt><trkpt lat="34.381701" lon="7.9329045"><ele>273.85714285714283</ele><time>2026-04-30T12:18:58.623Z</time></trkpt><trkpt lat="34.381653" lon="7.9328378"><ele>272.0</ele><time>2026-04-30T12:19:04.636Z</time></trkpt><trkpt lat="34.3816087" lon="7.9327645"><ele>271.99999999999994</ele><time>2026-04-30T12:19:10.628Z</time></trkpt><trkpt lat="34.3815648" lon="7.9327051"><ele>272.0</ele><time>2026-04-30T12:19:15.633Z</time></trkpt><trkpt lat="34.3815221" lon="7.9326359"><ele>272.0</ele><time>2026-04-30T12:19:21.58Z</time></trkpt><trkpt lat="34.3814879" lon="7.9325705"><ele>272.0</ele><time>2026-04-30T12:19:26.604Z</time></trkpt><trkpt lat="34.38146" lon="7.9324978"><ele>272.0</ele><time>2026-04-30T12:19:32.49Z</time></trkpt><trkpt lat="34.3814503" lon="7.9324203"><ele>271.99999999999994</ele><time>2026-04-30T12:19:38.598Z</time></trkpt><trkpt lat="34.3814443" lon="7.9323435"><ele>272.0</ele><time>2026-04-30T12:19:43.651Z</time></trkpt><trkpt lat="34.3814342" lon="7.932265"><ele>271.71428571428567</ele><time>2026-04-30T12:19:50.641Z</time></trkpt><trkpt lat="34.3814158" lon="7.932187"><ele>271.42857142857144</ele><time>2026-04-30T12:19:56.621Z</time></trkpt><trkpt lat="34.3814192" lon="7.9321089"><ele>271.1428571428571</ele><time>2026-04-30T12:20:02.651Z</time></trkpt><trkpt lat="34.3814245" lon="7.9320275"><ele>270.85714285714283</ele><time>2026-04-30T12:20:09.568Z</time></trkpt><trkpt lat="34.3814137" lon="7.9319417"><ele>270.57142857142856</ele><time>2026-04-30T12:20:16.533Z</time></trkpt><trkpt lat="34.3814128" lon="7.9318637"><ele>270.2857142857143</ele><time>2026-04-30T12:21:01.65Z</time></trkpt><trkpt lat="34.3814173" lon="7.9317772"><ele>270.0</ele><time>2026-04-30T12:21:23.645Z</time></trkpt><trkpt lat="34.3813971" lon="7.9316989"><ele>270.0</ele><time>2026-04-30T12:21:29.67Z</time></trkpt><trkpt lat="34.3813894" lon="7.9316229"><ele>270.0</ele><time>2026-04-30T12:21:34.614Z</time></trkpt><trkpt lat="34.3813712" lon="7.9315452"><ele>270.0</ele><time>2026-04-30T12:21:40.628Z</time></trkpt><trkpt lat="34.3813617" lon="7.9314584"><ele>270.0</ele><time>2026-04-30T12:21:47.662Z</time></trkpt><trkpt lat="34.3813709" lon="7.9313791"><ele>270.0</ele><time>2026-04-30T12:21:53.639Z</time></trkpt><trkpt lat="34.3813676" lon="7.9312918"><ele>270.0</ele><time>2026-04-30T12:22:00.633Z</time></trkpt><trkpt lat="34.3813783" lon="7.9312082"><ele>270.0</ele><time>2026-04-30T12:22:08.607Z</time></trkpt><trkpt lat="34.3813898" lon="7.9311242"><ele>270.0</ele><time>2026-04-30T12:22:14.638Z</time></trkpt><trkpt lat="34.3813642" lon="7.9310404"><ele>270.0</ele><time>2026-04-30T12:22:21.569Z</time></trkpt><trkpt lat="34.3813006" lon="7.9310399"><ele>270.0</ele><time>2026-04-30T12:22:27.614Z</time></trkpt><trkpt lat="34.3812305" lon="7.9310423"><ele>270.0</ele><time>2026-04-30T12:22:33.635Z</time></trkpt><trkpt lat="34.381167" lon="7.9310395"><ele>270.0</ele><time>2026-04-30T12:22:38.589Z</time></trkpt><trkpt lat="34.3810969" lon="7.9310359"><ele>270.0</ele><time>2026-04-30T12:22:44.607Z</time></trkpt><trkpt lat="34.3810309" lon="7.9310659"><ele>270.0</ele><time>2026-04-30T12:22:50.629Z</time></trkpt><trkpt lat="34.3809616" lon="7.9310534"><ele>271.2857142857143</ele><time>2026-04-30T12:22:57.554Z</time></trkpt><trkpt lat="34.3808992" lon="7.9310643"><ele>272.57142857142856</ele><time>2026-04-30T12:23:06.583Z</time></trkpt><trkpt lat="34.3808307" lon="7.9310612"><ele>273.85714285714283</ele><time>2026-04-30T12:23:13.585Z</time></trkpt><trkpt lat="34.3807606" lon="7.9310628"><ele>275.1428571428571</ele><time>2026-04-30T12:23:20.627Z</time></trkpt><trkpt lat="34.3806995" lon="7.9310308"><ele>276.42857142857144</ele><time>2026-04-30T12:23:28.607Z</time></trkpt><trkpt lat="34.380641" lon="7.9309959"><ele>277.71428571428567</ele><time>2026-04-30T12:23:34.637Z</time></trkpt><trkpt lat="34.3805709" lon="7.9309618"><ele>279.0</ele><time>2026-04-30T12:24:13.62Z</time></trkpt><trkpt lat="34.3805099" lon="7.930915"><ele>280.2857142857143</ele><time>2026-04-30T12:24:54.595Z</time></trkpt><trkpt lat="34.3805009" lon="7.9308116"><ele>281.57142857142856</ele><time>2026-04-30T12:24:58.531Z</time></trkpt><trkpt lat="34.3804991" lon="7.9307342"><ele>282.8571428571429</ele><time>2026-04-30T12:25:01.575Z</time></trkpt><trkpt lat="34.3804377" lon="7.9306861"><ele>284.1428571428571</ele><time>2026-04-30T12:25:07.511Z</time></trkpt><trkpt lat="34.3803719" lon="7.9307327"><ele>285.42857142857144</ele><time>2026-04-30T12:25:10.566Z</time></trkpt><trkpt lat="34.3803109" lon="7.9307761"><ele>286.7142857142857</ele><time>2026-04-30T12:25:14.565Z</time></trkpt><trkpt lat="34.3802688" lon="7.9308371"><ele>288.0</ele><time>2026-04-30T12:25:19.612Z</time></trkpt><trkpt lat="34.3802328" lon="7.9309035"><ele>288.3333333333333</ele><time>2026-04-30T12:25:24.609Z</time></trkpt><trkpt lat="34.3801875" lon="7.9309599"><ele>288.6666666666667</ele><time>2026-04-30T12:25:30.566Z</time></trkpt><trkpt lat="34.3801421" lon="7.9310154"><ele>289.0</ele><time>2026-04-30T12:25:36.511Z</time></trkpt><trkpt lat="34.3801646" lon="7.9311639"><ele>289.33333333333337</ele><time>2026-04-30T12:26:25.608Z</time></trkpt><trkpt lat="34.3802102" lon="7.9312175"><ele>289.6666666666667</ele><time>2026-04-30T12:26:50.595Z</time></trkpt><trkpt lat="34.3801691" lon="7.9311519"><ele>290.0</ele><time>2026-04-30T12:27:00.597Z</time></trkpt><trkpt lat="34.3801324" lon="7.9312332"><ele>290.0</ele><time>2026-04-30T12:27:42.605Z</time></trkpt><trkpt lat="34.3801977" lon="7.9312606"><ele>290.0</ele><time>2026-04-30T12:27:50.595Z</time></trkpt><trkpt lat="34.3801316" lon="7.931269"><ele>290.0</ele><time>2026-04-30T12:28:04.599Z</time></trkpt><trkpt lat="34.3801774" lon="7.9313223"><ele>290.0</ele><time>2026-04-30T12:28:33.608Z</time></trkpt><trkpt lat="34.3801595" lon="7.9312349"><ele>290.0</ele><time>2026-04-30T12:31:21.613Z</time></trkpt><trkpt lat="34.3801269" lon="7.9311691"><ele>290.0</ele><time>2026-04-30T12:32:26.594Z</time></trkpt><trkpt lat="34.3801796" lon="7.931218"><ele>290.0</ele><time>2026-04-30T12:33:24.578Z</time></trkpt><trkpt lat="34.3802284" lon="7.9312686"><ele>290.0</ele><time>2026-04-30T12:33:37.605Z</time></trkpt><trkpt lat="34.3801874" lon="7.9311798"><ele>290.0</ele><time>2026-04-30T12:34:31.6Z</time></trkpt><trkpt lat="34.3801267" lon="7.9312056"><ele>290.0</ele><time>2026-04-30T12:34:37.599Z</time></trkpt><trkpt lat="34.38013" lon="7.931291"><ele>290.0</ele><time>2026-04-30T12:35:00.595Z</time></trkpt><trkpt lat="34.3800589" lon="7.9312771"><ele>290.0</ele><time>2026-04-30T12:35:16.578Z</time></trkpt><trkpt lat="34.3800179" lon="7.931201"><ele>290.0</ele><time>2026-04-30T12:35:24.616Z</time></trkpt><trkpt lat="34.3800848" lon="7.931193"><ele>290.0</ele><time>2026-04-30T12:35:52.589Z</time></trkpt><trkpt lat="34.3801212" lon="7.9310959"><ele>290.0</ele><time>2026-04-30T12:36:52.561Z</time></trkpt><trkpt lat="34.3801533" lon="7.9311954"><ele>290.0</ele><time>2026-04-30T12:37:26.586Z</time></trkpt><trkpt lat="34.3801187" lon="7.9312607"><ele>290.0</ele><time>2026-04-30T12:37:41.582Z</time></trkpt><trkpt lat="34.3801974" lon="7.9312423"><ele>290.0</ele><time>2026-04-30T12:39:27.602Z</time></trkpt><trkpt lat="34.3802613" lon="7.931274"><ele>290.0</ele><time>2026-04-30T12:39:34.589Z</time></trkpt><trkpt lat="34.3803195" lon="7.9312346"><ele>290.0</ele><time>2026-04-30T12:39:36.589Z</time></trkpt><trkpt lat="34.3804064" lon="7.9312015"><ele>290.0</ele><time>2026-04-30T12:39:39.613Z</time></trkpt><trkpt lat="34.380469" lon="7.9311805"><ele>290.0</ele><time>2026-04-30T12:39:41.581Z</time></trkpt><trkpt lat="34.3804639" lon="7.931103"><ele>290.0</ele><time>2026-04-30T12:39:50.601Z</time></trkpt><trkpt lat="34.3805589" lon="7.9310751"><ele>290.0</ele><time>2026-04-30T12:39:57.602Z</time></trkpt><trkpt lat="34.3806298" lon="7.9310642"><ele>290.0</ele><time>2026-04-30T12:39:59.651Z</time></trkpt><trkpt lat="34.3807172" lon="7.9310754"><ele>290.0</ele><time>2026-04-30T12:40:02.638Z</time></trkpt><trkpt lat="34.3807967" lon="7.9310854"><ele>288.42857142857144</ele><time>2026-04-30T12:40:06.624Z</time></trkpt><trkpt lat="34.3808701" lon="7.9311033"><ele>286.8571428571429</ele><time>2026-04-30T12:40:10.624Z</time></trkpt><trkpt lat="34.3809413" lon="7.9311106"><ele>285.2857142857143</ele><time>2026-04-30T12:41:25.636Z</time></trkpt><trkpt lat="34.381006" lon="7.9311132"><ele>283.7142857142857</ele><time>2026-04-30T12:41:28.622Z</time></trkpt><trkpt lat="34.3810689" lon="7.9310984"><ele>282.1428571428571</ele><time>2026-04-30T12:41:31.598Z</time></trkpt><trkpt lat="34.3811513" lon="7.9310906"><ele>280.57142857142856</ele><time>2026-04-30T12:41:35.575Z</time></trkpt><trkpt lat="34.3812306" lon="7.93108"><ele>279.0</ele><time>2026-04-30T12:41:38.636Z</time></trkpt><trkpt lat="34.3812964" lon="7.9310582"><ele>277.5</ele><time>2026-04-30T12:41:41.595Z</time></trkpt><trkpt lat="34.3813699" lon="7.9310554"><ele>276.0</ele><time>2026-04-30T12:41:45.644Z</time></trkpt><trkpt lat="34.3813874" lon="7.9311389"><ele>274.5</ele><time>2026-04-30T12:41:50.603Z</time></trkpt><trkpt lat="34.3813814" lon="7.9312471"><ele>273.0</ele><time>2026-04-30T12:41:52.637Z</time></trkpt><trkpt lat="34.3813628" lon="7.9313432"><ele>271.5</ele><time>2026-04-30T12:41:54.595Z</time></trkpt><trkpt lat="34.3813573" lon="7.9314472"><ele>270.0</ele><time>2026-04-30T12:41:56.577Z</time></trkpt><trkpt lat="34.3813545" lon="7.9315625"><ele>270.0</ele><time>2026-04-30T12:41:58.642Z</time></trkpt><trkpt lat="34.3813565" lon="7.9316686"><ele>270.0</ele><time>2026-04-30T12:42:00.637Z</time></trkpt><trkpt lat="34.3813665" lon="7.931774"><ele>270.0</ele><time>2026-04-30T12:42:02.639Z</time></trkpt><trkpt lat="34.3813728" lon="7.9318739"><ele>270.0</ele><time>2026-04-30T12:42:04.631Z</time></trkpt><trkpt lat="34.3813836" lon="7.9319717"><ele>270.0</ele><time>2026-04-30T12:42:06.637Z</time></trkpt><trkpt lat="34.3814104" lon="7.9320655"><ele>270.0</ele><time>2026-04-30T12:42:08.613Z</time></trkpt><trkpt lat="34.3814538" lon="7.9321587"><ele>269.6666666666667</ele><time>2026-04-30T12:42:10.652Z</time></trkpt><trkpt lat="34.3815087" lon="7.9322483"><ele>269.3333333333333</ele><time>2026-04-30T12:42:12.632Z</time></trkpt><trkpt lat="34.3815615" lon="7.9323373"><ele>269.0</ele><time>2026-04-30T12:42:14.64Z</time></trkpt><trkpt lat="34.3816033" lon="7.9324259"><ele>268.66666666666663</ele><time>2026-04-30T12:42:16.591Z</time></trkpt><trkpt lat="34.3816372" lon="7.9325231"><ele>268.3333333333333</ele><time>2026-04-30T12:42:18.637Z</time></trkpt><trkpt lat="34.3816798" lon="7.9326244"><ele>268.0</ele><time>2026-04-30T12:42:20.639Z</time></trkpt><trkpt lat="34.3817282" lon="7.9327192"><ele>268.57142857142856</ele><time>2026-04-30T12:42:22.641Z</time></trkpt><trkpt lat="34.3817729" lon="7.9327951"><ele>269.1428571428571</ele><time>2026-04-30T12:42:24.636Z</time></trkpt><trkpt lat="34.3818128" lon="7.932855"><ele>269.71428571428567</ele><time>2026-04-30T12:42:26.598Z</time></trkpt><trkpt lat="34.3818445" lon="7.9329267"><ele>270.2857142857143</ele><time>2026-04-30T12:42:28.635Z</time></trkpt><trkpt lat="34.3818795" lon="7.9329903"><ele>270.85714285714283</ele><time>2026-04-30T12:42:30.632Z</time></trkpt><trkpt lat="34.3819328" lon="7.9330672"><ele>271.4285714285714</ele><time>2026-04-30T12:42:33.633Z</time></trkpt><trkpt lat="34.3819731" lon="7.9331461"><ele>272.0</ele><time>2026-04-30T12:42:51.638Z</time></trkpt><trkpt lat="34.3820335" lon="7.9332033"><ele>271.99999999999994</ele><time>2026-04-30T12:46:15.61Z</time></trkpt><trkpt lat="34.3820059" lon="7.933124"><ele>272.0</ele><time>2026-04-30T12:46:18.613Z</time></trkpt><trkpt lat="34.3820209" lon="7.9330254"><ele>272.0</ele><time>2026-04-30T12:46:35.619Z</time></trkpt><trkpt lat="34.3819902" lon="7.9329384"><ele>272.0</ele><time>2026-04-30T12:46:38.615Z</time></trkpt><trkpt lat="34.3819712" lon="7.9328549"><ele>272.0</ele><time>2026-04-30T12:46:41.628Z</time></trkpt><trkpt lat="34.3819414" lon="7.9327836"><ele>271.99999999999994</ele><time>2026-04-30T12:46:43.596Z</time></trkpt><trkpt lat="34.3818906" lon="7.9327249"><ele>272.0</ele><time>2026-04-30T12:46:46.61Z</time></trkpt><trkpt lat="34.3818279" lon="7.9326333"><ele>272.0</ele><time>2026-04-30T12:46:49.567Z</time></trkpt><trkpt lat="34.3817728" lon="7.9325599"><ele>272.0</ele><time>2026-04-30T12:46:51.6Z</time></trkpt><trkpt lat="34.3817224" lon="7.9324816"><ele>272.0</ele><time>2026-04-30T12:46:53.631Z</time></trkpt><trkpt lat="34.3816662" lon="7.9324134"><ele>272.0</ele><time>2026-04-30T12:46:55.605Z</time></trkpt><trkpt lat="34.3816083" lon="7.9323349"><ele>272.0</ele><time>2026-04-30T12:46:57.593Z</time></trkpt><trkpt lat="34.3815514" lon="7.9322623"><ele>272.0</ele><time>2026-04-30T12:46:59.646Z</time></trkpt><trkpt lat="34.3815027" lon="7.932186"><ele>271.6666666666667</ele><time>2026-04-30T12:47:02.611Z</time></trkpt><trkpt lat="34.3814734" lon="7.9320904"><ele>271.33333333333337</ele><time>2026-04-30T12:47:05.636Z</time></trkpt><trkpt lat="34.3814482" lon="7.9319911"><ele>271.0</ele><time>2026-04-30T12:47:07.617Z</time></trkpt><trkpt lat="34.3814328" lon="7.931894"><ele>270.6666666666667</ele><time>2026-04-30T12:47:09.642Z</time></trkpt><trkpt lat="34.3814391" lon="7.9318013"><ele>270.3333333333333</ele><time>2026-04-30T12:47:11.646Z</time></trkpt><trkpt lat="34.381427" lon="7.9317091"><ele>270.0</ele><time>2026-04-30T12:47:13.623Z</time></trkpt><trkpt lat="34.3814116" lon="7.9316029"><ele>270.0</ele><time>2026-04-30T12:47:15.629Z</time></trkpt><trkpt lat="34.3814033" lon="7.9314793"><ele>270.0</ele><time>2026-04-30T12:47:17.611Z</time></trkpt><trkpt lat="34.3814004" lon="7.9313554"><ele>270.0</ele><time>2026-04-30T12:47:19.65Z</time></trkpt><trkpt lat="34.3813893" lon="7.9312299"><ele>270.0</ele><time>2026-04-30T12:47:21.603Z</time></trkpt><trkpt lat="34.3813918" lon="7.9310963"><ele>270.0</ele><time>2026-04-30T12:47:23.633Z</time></trkpt><trkpt lat="34.3814003" lon="7.9309676"><ele>269.6</ele><time>2026-04-30T12:47:25.597Z</time></trkpt><trkpt lat="34.381408" lon="7.9308588"><ele>269.2</ele><time>2026-04-30T12:47:27.632Z</time></trkpt><trkpt lat="34.3814103" lon="7.9307433"><ele>268.8</ele><time>2026-04-30T12:47:29.634Z</time></trkpt><trkpt lat="34.3814122" lon="7.9306383"><ele>268.4</ele><time>2026-04-30T12:47:31.643Z</time></trkpt><trkpt lat="34.3814104" lon="7.9305298"><ele>268.0</ele><time>2026-04-30T12:47:33.638Z</time></trkpt><trkpt lat="34.3814149" lon="7.9304105"><ele>268.0</ele><time>2026-04-30T12:47:35.634Z</time></trkpt><trkpt lat="34.3814265" lon="7.9302908"><ele>268.0</ele><time>2026-04-30T12:47:37.63Z</time></trkpt><trkpt lat="34.3814526" lon="7.9301847"><ele>268.0</ele><time>2026-04-30T12:47:39.621Z</time></trkpt><trkpt lat="34.3814806" lon="7.9300908"><ele>268.0</ele><time>2026-04-30T12:47:41.633Z</time></trkpt><trkpt lat="34.3815215" lon="7.9299973"><ele>268.0</ele><time>2026-04-30T12:47:43.643Z</time></trkpt><trkpt lat="34.3815654" lon="7.9299104"><ele>268.0</ele><time>2026-04-30T12:47:45.643Z</time></trkpt><trkpt lat="34.381627" lon="7.9298474"><ele>267.3333333333333</ele><time>2026-04-30T12:47:47.636Z</time></trkpt><trkpt lat="34.3816934" lon="7.9298006"><ele>266.66666666666663</ele><time>2026-04-30T12:47:49.647Z</time></trkpt><trkpt lat="34.3817686" lon="7.9297654"><ele>266.0</ele><time>2026-04-30T12:47:51.633Z</time></trkpt><trkpt lat="34.3818359" lon="7.9297208"><ele>265.3333333333333</ele><time>2026-04-30T12:47:53.631Z</time></trkpt><trkpt lat="34.3818948" lon="7.9296551"><ele>264.6666666666667</ele><time>2026-04-30T12:47:56.628Z</time></trkpt><trkpt lat="34.381896" lon="7.9295524"><ele>264.0</ele><time>2026-04-30T12:48:00.626Z</time></trkpt><trkpt lat="34.3818845" lon="7.9294759"><ele>264.0</ele><time>2026-04-30T12:48:02.641Z</time></trkpt><trkpt lat="34.3818748" lon="7.9293816"><ele>264.0</ele><time>2026-04-30T12:48:04.629Z</time></trkpt><trkpt lat="34.3818756" lon="7.9292693"><ele>264.0</ele><time>2026-04-30T12:48:06.624Z</time></trkpt><trkpt lat="34.3818744" lon="7.9291517"><ele>264.0</ele><time>2026-04-30T12:48:08.601Z</time></trkpt><trkpt lat="34.3818885" lon="7.9290374"><ele>264.0</ele><time>2026-04-30T12:48:10.637Z</time></trkpt><trkpt lat="34.3819084" lon="7.9289361"><ele>264.0</ele><time>2026-04-30T12:48:12.634Z</time></trkpt><trkpt lat="34.3819168" lon="7.9288464"><ele>263.6666666666667</ele><time>2026-04-30T12:48:15.593Z</time></trkpt><trkpt lat="34.3819054" lon="7.9287609"><ele>263.3333333333333</ele><time>2026-04-30T12:48:27.63Z</time></trkpt><trkpt lat="34.3819502" lon="7.9286918"><ele>263.0</ele><time>2026-04-30T12:49:53.637Z</time></trkpt><trkpt lat="34.3819789" lon="7.9285964"><ele>262.66666666666663</ele><time>2026-04-30T12:49:57.633Z</time></trkpt><trkpt lat="34.3819713" lon="7.9284871"><ele>262.3333333333333</ele><time>2026-04-30T12:50:00.668Z</time></trkpt><trkpt lat="34.3819655" lon="7.9283865"><ele>262.0</ele><time>2026-04-30T12:50:02.579Z</time></trkpt><trkpt lat="34.381963" lon="7.9282765"><ele>261.8333333333333</ele><time>2026-04-30T12:50:04.602Z</time></trkpt><trkpt lat="34.3819626" lon="7.9281722"><ele>261.66666666666663</ele><time>2026-04-30T12:50:06.634Z</time></trkpt><trkpt lat="34.381966" lon="7.9280724"><ele>261.5</ele><time>2026-04-30T12:50:08.63Z</time></trkpt><trkpt lat="34.3819801" lon="7.9279739"><ele>261.3333333333333</ele><time>2026-04-30T12:50:10.634Z</time></trkpt><trkpt lat="34.3819902" lon="7.9278712"><ele>261.1666666666667</ele><time>2026-04-30T12:50:12.62Z</time></trkpt><trkpt lat="34.3819951" lon="7.9277625"><ele>261.0</ele><time>2026-04-30T12:50:14.609Z</time></trkpt><trkpt lat="34.3820069" lon="7.9276519"><ele>260.8</ele><time>2026-04-30T12:50:16.647Z</time></trkpt><trkpt lat="34.3820171" lon="7.9275416"><ele>260.6</ele><time>2026-04-30T12:50:18.627Z</time></trkpt><trkpt lat="34.3820328" lon="7.9274189"><ele>260.4</ele><time>2026-04-30T12:50:20.654Z</time></trkpt><trkpt lat="34.3820566" lon="7.9273219"><ele>260.2</ele><time>2026-04-30T12:50:22.631Z</time></trkpt><trkpt lat="34.3820773" lon="7.9272232"><ele>260.0</ele><time>2026-04-30T12:50:24.632Z</time></trkpt><trkpt lat="34.3821031" lon="7.9271199"><ele>260.0</ele><time>2026-04-30T12:50:26.632Z</time></trkpt><trkpt lat="34.3821281" lon="7.9270074"><ele>260.0</ele><time>2026-04-30T12:50:28.613Z</time></trkpt><trkpt lat="34.3821351" lon="7.9268978"><ele>260.0</ele><time>2026-04-30T12:50:30.644Z</time></trkpt><trkpt lat="34.3821437" lon="7.9267833"><ele>260.0</ele><time>2026-04-30T12:50:32.601Z</time></trkpt><trkpt lat="34.3821468" lon="7.926682"><ele>260.0</ele><time>2026-04-30T12:50:34.613Z</time></trkpt><trkpt lat="34.382157" lon="7.9265711"><ele>260.6</ele><time>2026-04-30T12:50:36.656Z</time></trkpt><trkpt lat="34.3821652" lon="7.9264508"><ele>261.2</ele><time>2026-04-30T12:50:38.635Z</time></trkpt><trkpt lat="34.3821658" lon="7.9263428"><ele>261.8</ele><time>2026-04-30T12:50:40.634Z</time></trkpt><trkpt lat="34.3821862" lon="7.9262103"><ele>262.4</ele><time>2026-04-30T12:50:42.608Z</time></trkpt><trkpt lat="34.382205" lon="7.9261324"><ele>263.0</ele><time>2026-04-30T12:50:43.6Z</time></trkpt><trkpt lat="34.3822278" lon="7.9259961"><ele>262.6</ele><time>2026-04-30T12:50:45.65Z</time></trkpt><trkpt lat="34.3822403" lon="7.9258556"><ele>262.20000000000005</ele><time>2026-04-30T12:50:47.599Z</time></trkpt><trkpt lat="34.382263" lon="7.9257193"><ele>261.8</ele><time>2026-04-30T12:50:49.576Z</time></trkpt><trkpt lat="34.3823047" lon="7.9256015"><ele>261.40000000000003</ele><time>2026-04-30T12:50:51.637Z</time></trkpt><trkpt lat="34.3823505" lon="7.9254892"><ele>261.0</ele><time>2026-04-30T12:50:53.635Z</time></trkpt><trkpt lat="34.3824094" lon="7.9253836"><ele>261.0</ele><time>2026-04-30T12:50:55.654Z</time></trkpt><trkpt lat="34.382441" lon="7.9252765"><ele>261.0</ele><time>2026-04-30T12:50:57.634Z</time></trkpt><trkpt lat="34.3824783" lon="7.9251677"><ele>261.0</ele><time>2026-04-30T12:50:59.611Z</time></trkpt><trkpt lat="34.3825221" lon="7.9250444"><ele>261.0</ele><time>2026-04-30T12:51:01.619Z</time></trkpt><trkpt lat="34.3825611" lon="7.9249367"><ele>261.0</ele><time>2026-04-30T12:51:03.629Z</time></trkpt><trkpt lat="34.3825877" lon="7.9248443"><ele>260.0</ele><time>2026-04-30T12:51:05.639Z</time></trkpt><trkpt lat="34.3826152" lon="7.924755"><ele>259.0</ele><time>2026-04-30T12:51:07.619Z</time></trkpt><trkpt lat="34.3826519" lon="7.9246645"><ele>258.0</ele><time>2026-04-30T12:51:09.633Z</time></trkpt><trkpt lat="34.3827016" lon="7.9245631"><ele>257.0</ele><time>2026-04-30T12:51:11.645Z</time></trkpt><trkpt lat="34.382754" lon="7.9244575"><ele>256.0</ele><time>2026-04-30T12:51:13.648Z</time></trkpt><trkpt lat="34.3827735" lon="7.924359"><ele>255.0</ele><time>2026-04-30T12:51:15.642Z</time></trkpt><trkpt lat="34.3827702" lon="7.9242587"><ele>254.83333333333334</ele><time>2026-04-30T12:51:17.636Z</time></trkpt><trkpt lat="34.3827728" lon="7.9241656"><ele>254.66666666666669</ele><time>2026-04-30T12:51:19.649Z</time></trkpt><trkpt lat="34.3827734" lon="7.9240581"><ele>254.5</ele><time>2026-04-30T12:51:21.635Z</time></trkpt><trkpt lat="34.382745" lon="7.92396"><ele>254.33333333333334</ele><time>2026-04-30T12:51:23.66Z</time></trkpt><trkpt lat="34.3827021" lon="7.9238695"><ele>254.16666666666669</ele><time>2026-04-30T12:51:25.659Z</time></trkpt><trkpt lat="34.3826518" lon="7.9237818"><ele>254.0</ele><time>2026-04-30T12:51:27.635Z</time></trkpt><trkpt lat="34.382594" lon="7.9237033"><ele>254.00000000000003</ele><time>2026-04-30T12:51:29.633Z</time></trkpt><trkpt lat="34.3825322" lon="7.9236291"><ele>254.0</ele><time>2026-04-30T12:51:31.587Z</time></trkpt><trkpt lat="34.382471" lon="7.9235526"><ele>254.0</ele><time>2026-04-30T12:51:33.622Z</time></trkpt><trkpt lat="34.382418" lon="7.9234729"><ele>254.0</ele><time>2026-04-30T12:51:35.625Z</time></trkpt><trkpt lat="34.3823863" lon="7.923382"><ele>254.00000000000003</ele><time>2026-04-30T12:51:37.654Z</time></trkpt><trkpt lat="34.382371" lon="7.9232663"><ele>254.0</ele><time>2026-04-30T12:51:39.642Z</time></trkpt><trkpt lat="34.3823548" lon="7.9231557"><ele>254.33333333333334</ele><time>2026-04-30T12:51:41.639Z</time></trkpt><trkpt lat="34.382354" lon="7.9230587"><ele>254.66666666666669</ele><time>2026-04-30T12:51:43.643Z</time></trkpt><trkpt lat="34.3823446" lon="7.9229768"><ele>255.0</ele><time>2026-04-30T12:51:45.622Z</time></trkpt><trkpt lat="34.3823331" lon="7.9228907"><ele>255.33333333333331</ele><time>2026-04-30T12:51:47.652Z</time></trkpt><trkpt lat="34.3823147" lon="7.9227936"><ele>255.66666666666666</ele><time>2026-04-30T12:51:49.607Z</time></trkpt><trkpt lat="34.3823009" lon="7.9226919"><ele>256.0</ele><time>2026-04-30T12:52:00.661Z</time></trkpt><trkpt lat="34.3822864" lon="7.9225871"><ele>255.83333333333331</ele><time>2026-04-30T12:52:02.629Z</time></trkpt><trkpt lat="34.3823115" lon="7.9224796"><ele>255.66666666666666</ele><time>2026-04-30T12:52:04.616Z</time></trkpt><trkpt lat="34.3823384" lon="7.9223766"><ele>255.5</ele><time>2026-04-30T12:52:06.584Z</time></trkpt><trkpt lat="34.3823724" lon="7.9222891"><ele>255.33333333333331</ele><time>2026-04-30T12:52:08.646Z</time></trkpt><trkpt lat="34.382377" lon="7.9221701"><ele>255.16666666666666</ele><time>2026-04-30T12:52:11.604Z</time></trkpt><trkpt lat="34.3823726" lon="7.9220637"><ele>255.0</ele><time>2026-04-30T12:52:13.618Z</time></trkpt><trkpt lat="34.3823842" lon="7.9219647"><ele>255.0</ele><time>2026-04-30T12:52:15.649Z</time></trkpt><trkpt lat="34.3823831" lon="7.921842"><ele>255.0</ele><time>2026-04-30T12:52:17.651Z</time></trkpt><trkpt lat="34.3823825" lon="7.9217469"><ele>255.0</ele><time>2026-04-30T12:52:19.646Z</time></trkpt><trkpt lat="34.3824011" lon="7.9216546"><ele>255.0</ele><time>2026-04-30T12:52:21.621Z</time></trkpt><trkpt lat="34.3824598" lon="7.9215574"><ele>255.0</ele><time>2026-04-30T12:52:23.648Z</time></trkpt><trkpt lat="34.3825017" lon="7.9214544"><ele>254.83333333333334</ele><time>2026-04-30T12:52:25.654Z</time></trkpt><trkpt lat="34.3825046" lon="7.9213593"><ele>254.66666666666669</ele><time>2026-04-30T12:52:27.592Z</time></trkpt><trkpt lat="34.3824865" lon="7.9212628"><ele>254.5</ele><time>2026-04-30T12:52:29.635Z</time></trkpt><trkpt lat="34.3824542" lon="7.921171"><ele>254.33333333333334</ele><time>2026-04-30T12:52:31.632Z</time></trkpt><trkpt lat="34.3824075" lon="7.9210751"><ele>254.16666666666669</ele><time>2026-04-30T12:52:33.644Z</time></trkpt><trkpt lat="34.382365" lon="7.9210116"><ele>254.0</ele><time>2026-04-30T12:52:35.623Z</time></trkpt><trkpt lat="34.3823165" lon="7.9209252"><ele>254.16666666666669</ele><time>2026-04-30T12:52:37.618Z</time></trkpt><trkpt lat="34.3822762" lon="7.9208394"><ele>254.33333333333334</ele><time>2026-04-30T12:52:39.657Z</time></trkpt><trkpt lat="34.3822239" lon="7.9207578"><ele>254.5</ele><time>2026-04-30T12:52:41.664Z</time></trkpt><trkpt lat="34.3821715" lon="7.9206801"><ele>254.66666666666669</ele><time>2026-04-30T12:52:43.639Z</time></trkpt><trkpt lat="34.3821261" lon="7.9205818"><ele>254.83333333333334</ele><time>2026-04-30T12:52:45.63Z</time></trkpt><trkpt lat="34.3820627" lon="7.9204932"><ele>255.0</ele><time>2026-04-30T12:52:47.613Z</time></trkpt><trkpt lat="34.3819814" lon="7.920433"><ele>254.0</ele><time>2026-04-30T12:52:49.626Z</time></trkpt><trkpt lat="34.381896" lon="7.9203776"><ele>253.0</ele><time>2026-04-30T12:52:51.642Z</time></trkpt><trkpt lat="34.381796" lon="7.9203271"><ele>252.0</ele><time>2026-04-30T12:52:53.644Z</time></trkpt><trkpt lat="34.3816975" lon="7.9202744"><ele>251.0</ele><time>2026-04-30T12:52:55.658Z</time></trkpt><trkpt lat="34.3816028" lon="7.9202119"><ele>250.0</ele><time>2026-04-30T12:52:57.654Z</time></trkpt><trkpt lat="34.3815126" lon="7.9201604"><ele>250.0</ele><time>2026-04-30T12:52:59.658Z</time></trkpt><trkpt lat="34.3814037" lon="7.9201029"><ele>250.0</ele><time>2026-04-30T12:53:01.607Z</time></trkpt><trkpt lat="34.3813093" lon="7.9200504"><ele>250.0</ele><time>2026-04-30T12:53:03.633Z</time></trkpt><trkpt lat="34.3812116" lon="7.9199969"><ele>250.0</ele><time>2026-04-30T12:53:05.592Z</time></trkpt><trkpt lat="34.3811182" lon="7.9199312"><ele>250.0</ele><time>2026-04-30T12:53:07.631Z</time></trkpt><trkpt lat="34.3810336" lon="7.9198649"><ele>249.4</ele><time>2026-04-30T12:53:09.635Z</time></trkpt><trkpt lat="34.3809429" lon="7.919804"><ele>248.8</ele><time>2026-04-30T12:53:11.643Z</time></trkpt><trkpt lat="34.3808567" lon="7.9197485"><ele>248.2</ele><time>2026-04-30T12:53:13.638Z</time></trkpt><trkpt lat="34.3807676" lon="7.9196857"><ele>247.6</ele><time>2026-04-30T12:53:15.648Z</time></trkpt><trkpt lat="34.3806788" lon="7.9196168"><ele>247.0</ele><time>2026-04-30T12:53:17.615Z</time></trkpt><trkpt lat="34.3806006" lon="7.9195328"><ele>247.0</ele><time>2026-04-30T12:53:19.638Z</time></trkpt><trkpt lat="34.3805259" lon="7.9194401"><ele>247.0</ele><time>2026-04-30T12:53:21.656Z</time></trkpt><trkpt lat="34.3804549" lon="7.919325"><ele>247.0</ele><time>2026-04-30T12:53:23.644Z</time></trkpt><trkpt lat="34.3804053" lon="7.9192198"><ele>247.0</ele><time>2026-04-30T12:53:25.632Z</time></trkpt><trkpt lat="34.3803636" lon="7.9191121"><ele>247.0</ele><time>2026-04-30T12:53:27.639Z</time></trkpt><trkpt lat="34.3803518" lon="7.9189811"><ele>250.6</ele><time>2026-04-30T12:53:29.627Z</time></trkpt><trkpt lat="34.3803647" lon="7.9188657"><ele>254.2</ele><time>2026-04-30T12:53:31.64Z</time></trkpt><trkpt lat="34.380363" lon="7.9187671"><ele>257.8</ele><time>2026-04-30T12:53:33.62Z</time></trkpt><trkpt lat="34.3803455" lon="7.9186589"><ele>261.4</ele><time>2026-04-30T12:53:35.626Z</time></trkpt><trkpt lat="34.3803379" lon="7.9185465"><ele>265.0</ele><time>2026-04-30T12:53:37.623Z</time></trkpt><trkpt lat="34.3803213" lon="7.9184259"><ele>261.4</ele><time>2026-04-30T12:53:39.635Z</time></trkpt><trkpt lat="34.3803006" lon="7.9183021"><ele>257.8</ele><time>2026-04-30T12:53:41.61Z</time></trkpt><trkpt lat="34.3802918" lon="7.9181657"><ele>254.2</ele><time>2026-04-30T12:53:43.629Z</time></trkpt><trkpt lat="34.3802615" lon="7.9180751"><ele>250.6</ele><time>2026-04-30T12:53:45.656Z</time></trkpt><trkpt lat="34.3802209" lon="7.9179874"><ele>247.0</ele><time>2026-04-30T12:53:47.645Z</time></trkpt><trkpt lat="34.380195" lon="7.9178844"><ele>247.0</ele><time>2026-04-30T12:53:49.633Z</time></trkpt><trkpt lat="34.3801728" lon="7.9177694"><ele>247.0</ele><time>2026-04-30T12:53:51.65Z</time></trkpt><trkpt lat="34.3801491" lon="7.9176453"><ele>247.0</ele><time>2026-04-30T12:53:53.63Z</time></trkpt><trkpt lat="34.3801183" lon="7.9175312"><ele>247.0</ele><time>2026-04-30T12:53:55.58Z</time></trkpt><trkpt lat="34.3800806" lon="7.9174264"><ele>247.0</ele><time>2026-04-30T12:53:57.677Z</time></trkpt><trkpt lat="34.3800491" lon="7.9173249"><ele>246.16666666666666</ele><time>2026-04-30T12:53:59.643Z</time></trkpt><trkpt lat="34.3800204" lon="7.9172351"><ele>245.33333333333331</ele><time>2026-04-30T12:54:01.655Z</time></trkpt><trkpt lat="34.3800029" lon="7.9171488"><ele>244.5</ele><time>2026-04-30T12:54:03.646Z</time></trkpt><trkpt lat="34.3800579" lon="7.9170544"><ele>243.66666666666669</ele><time>2026-04-30T12:54:32.648Z</time></trkpt><trkpt lat="34.3801267" lon="7.916984"><ele>242.83333333333334</ele><time>2026-04-30T12:54:34.627Z</time></trkpt><trkpt lat="34.3801873" lon="7.9169055"><ele>242.0</ele><time>2026-04-30T12:54:36.637Z</time></trkpt><trkpt lat="34.3802034" lon="7.9168247"><ele>242.00000000000003</ele><time>2026-04-30T12:54:38.619Z</time></trkpt><trkpt lat="34.3801524" lon="7.9167422"><ele>242.0</ele><time>2026-04-30T12:54:40.634Z</time></trkpt><trkpt lat="34.3800472" lon="7.9166664"><ele>242.0</ele><time>2026-04-30T12:54:42.633Z</time></trkpt><trkpt lat="34.3799853" lon="7.9166283"><ele>242.0</ele><time>2026-04-30T12:54:43.638Z</time></trkpt><trkpt lat="34.3799205" lon="7.916592"><ele>242.00000000000003</ele><time>2026-04-30T12:54:44.631Z</time></trkpt><trkpt lat="34.3798557" lon="7.9165588"><ele>242.0</ele><time>2026-04-30T12:54:45.638Z</time></trkpt><trkpt lat="34.3797843" lon="7.9165373"><ele>242.28571428571428</ele><time>2026-04-30T12:54:46.647Z</time></trkpt><trkpt lat="34.3797108" lon="7.916517"><ele>242.57142857142856</ele><time>2026-04-30T12:54:47.62Z</time></trkpt><trkpt lat="34.3796367" lon="7.916505"><ele>242.85714285714283</ele><time>2026-04-30T12:54:48.627Z</time></trkpt><trkpt lat="34.3795658" lon="7.9164909"><ele>243.1428571428571</ele><time>2026-04-30T12:54:49.628Z</time></trkpt><trkpt lat="34.3795026" lon="7.916477"><ele>243.42857142857142</ele><time>2026-04-30T12:54:50.634Z</time></trkpt><trkpt lat="34.3794419" lon="7.9164545"><ele>243.71428571428567</ele><time>2026-04-30T12:54:51.621Z</time></trkpt><trkpt lat="34.3793799" lon="7.9164306"><ele>243.99999999999997</ele><time>2026-04-30T12:54:52.636Z</time></trkpt><trkpt lat="34.3793237" lon="7.916393"><ele>243.2</ele><time>2026-04-30T12:54:53.643Z</time></trkpt><trkpt lat="34.379243" lon="7.9162891"><ele>242.39999999999998</ele><time>2026-04-30T12:54:55.634Z</time></trkpt><trkpt lat="34.3792151" lon="7.9161595"><ele>241.6</ele><time>2026-04-30T12:54:57.635Z</time></trkpt><trkpt lat="34.3792264" lon="7.9160243"><ele>240.8</ele><time>2026-04-30T12:54:59.634Z</time></trkpt><trkpt lat="34.3793003" lon="7.9159338"><ele>240.0</ele><time>2026-04-30T12:55:01.639Z</time></trkpt><trkpt lat="34.3794255" lon="7.9159025"><ele>240.0</ele><time>2026-04-30T12:55:03.608Z</time></trkpt><trkpt lat="34.3795015" lon="7.9158965"><ele>240.0</ele><time>2026-04-30T12:55:04.628Z</time></trkpt><trkpt lat="34.3795759" lon="7.9159063"><ele>240.0</ele><time>2026-04-30T12:55:05.639Z</time></trkpt><trkpt lat="34.3796522" lon="7.915916"><ele>240.0</ele><time>2026-04-30T12:55:06.638Z</time></trkpt><trkpt lat="34.3797311" lon="7.9159266"><ele>240.0</ele><time>2026-04-30T12:55:07.648Z</time></trkpt><trkpt lat="34.3798118" lon="7.91594"><ele>240.0</ele><time>2026-04-30T12:55:08.639Z</time></trkpt><trkpt lat="34.3798922" lon="7.9159607"><ele>240.66666666666666</ele><time>2026-04-30T12:55:09.625Z</time></trkpt><trkpt lat="34.3799734" lon="7.9159959"><ele>241.33333333333331</ele><time>2026-04-30T12:55:10.632Z</time></trkpt><trkpt lat="34.3800515" lon="7.9160391"><ele>242.0</ele><time>2026-04-30T12:55:11.664Z</time></trkpt><trkpt lat="34.3801256" lon="7.9160895"><ele>242.66666666666666</ele><time>2026-04-30T12:55:12.647Z</time></trkpt><trkpt lat="34.3802003" lon="7.9161554"><ele>243.33333333333331</ele><time>2026-04-30T12:55:13.64Z</time></trkpt><trkpt lat="34.3802628" lon="7.9162238"><ele>244.0</ele><time>2026-04-30T12:55:14.642Z</time></trkpt><trkpt lat="34.3803158" lon="7.9162967"><ele>244.0</ele><time>2026-04-30T12:55:15.632Z</time></trkpt><trkpt lat="34.3803558" lon="7.916363"><ele>243.99999999999997</ele><time>2026-04-30T12:55:16.644Z</time></trkpt><trkpt lat="34.3804098" lon="7.9164848"><ele>243.99999999999997</ele><time>2026-04-30T12:55:18.649Z</time></trkpt><trkpt lat="34.3804421" lon="7.9165665"><ele>244.0</ele><time>2026-04-30T12:55:19.65Z</time></trkpt><trkpt lat="34.3805111" lon="7.9166601"><ele>244.0</ele><time>2026-04-30T12:55:20.58Z</time></trkpt><trkpt lat="34.3806184" lon="7.9167627"><ele>246.0</ele><time>2026-04-30T12:55:21.656Z</time></trkpt><trkpt lat="34.3807501" lon="7.9168546"><ele>248.0</ele><time>2026-04-30T12:55:22.628Z</time></trkpt><trkpt lat="34.3808882" lon="7.9169319"><ele>250.0</ele><time>2026-04-30T12:55:23.653Z</time></trkpt><trkpt lat="34.3810465" lon="7.9169534"><ele>250.0</ele><time>2026-04-30T12:55:24.644Z</time></trkpt><trkpt lat="34.381201" lon="7.9169481"><ele>250.0</ele><time>2026-04-30T12:55:25.638Z</time></trkpt><trkpt lat="34.3813508" lon="7.9169164"><ele>250.0</ele><time>2026-04-30T12:55:26.635Z</time></trkpt><trkpt lat="34.3815064" lon="7.9168914"><ele>251.5</ele><time>2026-04-30T12:55:27.65Z</time></trkpt><trkpt lat="34.3816511" lon="7.9168697"><ele>253.0</ele><time>2026-04-30T12:55:28.625Z</time></trkpt><trkpt lat="34.3817843" lon="7.9168731"><ele>254.5</ele><time>2026-04-30T12:55:29.638Z</time></trkpt><trkpt lat="34.3819067" lon="7.9168792"><ele>256.0</ele><time>2026-04-30T12:55:30.602Z</time></trkpt><trkpt lat="34.3820235" lon="7.9168992"><ele>256.0</ele><time>2026-04-30T12:55:31.641Z</time></trkpt><trkpt lat="34.3821348" lon="7.9169267"><ele>256.0</ele><time>2026-04-30T12:55:32.649Z</time></trkpt><trkpt lat="34.3822421" lon="7.9169703"><ele>256.0</ele><time>2026-04-30T12:55:33.596Z</time></trkpt><trkpt lat="34.3823463" lon="7.9170335"><ele>256.0</ele><time>2026-04-30T12:55:34.642Z</time></trkpt><trkpt lat="34.3824508" lon="7.9171028"><ele>257.75</ele><time>2026-04-30T12:55:35.642Z</time></trkpt><trkpt lat="34.3825575" lon="7.9171706"><ele>259.5</ele><time>2026-04-30T12:55:36.644Z</time></trkpt><trkpt lat="34.3826679" lon="7.9172407"><ele>261.25</ele><time>2026-04-30T12:55:37.635Z</time></trkpt><trkpt lat="34.3827791" lon="7.9173242"><ele>263.0</ele><time>2026-04-30T12:55:38.623Z</time></trkpt><trkpt lat="34.3828854" lon="7.9174197"><ele>263.0</ele><time>2026-04-30T12:55:39.645Z</time></trkpt><trkpt lat="34.382984" lon="7.9175275"><ele>263.0</ele><time>2026-04-30T12:55:40.639Z</time></trkpt><trkpt lat="34.3830788" lon="7.9176503"><ele>263.0</ele><time>2026-04-30T12:55:41.632Z</time></trkpt><trkpt lat="34.3831478" lon="7.9177985"><ele>263.0</ele><time>2026-04-30T12:55:42.643Z</time></trkpt><trkpt lat="34.3832076" lon="7.9179638"><ele>265.25</ele><time>2026-04-30T12:55:43.609Z</time></trkpt><trkpt lat="34.3832612" lon="7.9181381"><ele>267.5</ele><time>2026-04-30T12:55:44.62Z</time></trkpt><trkpt lat="34.3833203" lon="7.918304"><ele>269.75</ele><time>2026-04-30T12:55:45.648Z</time></trkpt><trkpt lat="34.3833807" lon="7.9184656"><ele>272.0</ele><time>2026-04-30T12:55:46.642Z</time></trkpt><trkpt lat="34.3834405" lon="7.9186203"><ele>272.0</ele><time>2026-04-30T12:55:47.639Z</time></trkpt><trkpt lat="34.3835082" lon="7.9187718"><ele>272.0</ele><time>2026-04-30T12:55:48.634Z</time></trkpt><trkpt lat="34.3835895" lon="7.9189161"><ele>272.0</ele><time>2026-04-30T12:55:49.627Z</time></trkpt><trkpt lat="34.3836933" lon="7.9190593"><ele>272.0</ele><time>2026-04-30T12:55:50.661Z</time></trkpt><trkpt lat="34.3838219" lon="7.9192005"><ele>272.0</ele><time>2026-04-30T12:55:51.647Z</time></trkpt><trkpt lat="34.3839732" lon="7.9193483"><ele>272.0</ele><time>2026-04-30T12:55:52.602Z</time></trkpt><trkpt lat="34.3841279" lon="7.9194783"><ele>272.0</ele><time>2026-04-30T12:55:53.666Z</time></trkpt><trkpt lat="34.384277" lon="7.9195999"><ele>272.0</ele><time>2026-04-30T12:55:54.606Z</time></trkpt><trkpt lat="34.3844213" lon="7.9197102"><ele>272.0</ele><time>2026-04-30T12:55:55.643Z</time></trkpt><trkpt lat="34.3845587" lon="7.919811"><ele>272.0</ele><time>2026-04-30T12:55:56.67Z</time></trkpt><trkpt lat="34.3846949" lon="7.9199114"><ele>272.0</ele><time>2026-04-30T12:55:57.655Z</time></trkpt><trkpt lat="34.3848285" lon="7.9200072"><ele>272.0</ele><time>2026-04-30T12:55:58.651Z</time></trkpt><trkpt lat="34.3849643" lon="7.9201048"><ele>272.0</ele><time>2026-04-30T12:55:59.646Z</time></trkpt><trkpt lat="34.385098" lon="7.9202067"><ele>272.0</ele><time>2026-04-30T12:56:00.655Z</time></trkpt><trkpt lat="34.3852219" lon="7.9203253"><ele>272.0</ele><time>2026-04-30T12:56:01.619Z</time></trkpt><trkpt lat="34.3853179" lon="7.9204763"><ele>272.0</ele><time>2026-04-30T12:56:02.628Z</time></trkpt><trkpt lat="34.3853911" lon="7.9206353"><ele>272.0</ele><time>2026-04-30T12:56:03.635Z</time></trkpt><trkpt lat="34.3854569" lon="7.9208076"><ele>272.0</ele><time>2026-04-30T12:56:04.633Z</time></trkpt><trkpt lat="34.3855077" lon="7.9209794"><ele>272.0</ele><time>2026-04-30T12:56:05.637Z</time></trkpt><trkpt lat="34.3855527" lon="7.9211526"><ele>273.0</ele><time>2026-04-30T12:56:06.637Z</time></trkpt><trkpt lat="34.3855932" lon="7.9213307"><ele>274.0</ele><time>2026-04-30T12:56:07.638Z</time></trkpt><trkpt lat="34.385627" lon="7.9215073"><ele>275.0</ele><time>2026-04-30T12:56:08.604Z</time></trkpt><trkpt lat="34.3856618" lon="7.9216856"><ele>276.0</ele><time>2026-04-30T12:56:09.657Z</time></trkpt><trkpt lat="34.3856958" lon="7.9218649"><ele>277.0</ele><time>2026-04-30T12:56:10.637Z</time></trkpt><trkpt lat="34.385718" lon="7.922045"><ele>278.0</ele><time>2026-04-30T12:56:11.572Z</time></trkpt><trkpt lat="34.3857261" lon="7.9222278"><ele>278.0</ele><time>2026-04-30T12:56:12.639Z</time></trkpt><trkpt lat="34.3857177" lon="7.9224092"><ele>278.0</ele><time>2026-04-30T12:56:13.651Z</time></trkpt><trkpt lat="34.3857013" lon="7.9225932"><ele>278.0</ele><time>2026-04-30T12:56:14.646Z</time></trkpt><trkpt lat="34.3856815" lon="7.9227759"><ele>279.0</ele><time>2026-04-30T12:56:15.655Z</time></trkpt><trkpt lat="34.3856605" lon="7.9229632"><ele>280.0</ele><time>2026-04-30T12:56:16.631Z</time></trkpt><trkpt lat="34.3856385" lon="7.923154"><ele>281.0</ele><time>2026-04-30T12:56:17.664Z</time></trkpt><trkpt lat="34.3855885" lon="7.9233363"><ele>280.33333333333337</ele><time>2026-04-30T12:56:18.641Z</time></trkpt><trkpt lat="34.3855163" lon="7.9235029"><ele>279.6666666666667</ele><time>2026-04-30T12:56:19.645Z</time></trkpt><trkpt lat="34.3854272" lon="7.9236625"><ele>279.0</ele><time>2026-04-30T12:56:20.628Z</time></trkpt><trkpt lat="34.3853398" lon="7.9238229"><ele>278.59999999999997</ele><time>2026-04-30T12:56:21.636Z</time></trkpt><trkpt lat="34.3852585" lon="7.9239727"><ele>278.2</ele><time>2026-04-30T12:56:22.663Z</time></trkpt><trkpt lat="34.3851927" lon="7.9240895"><ele>277.79999999999995</ele><time>2026-04-30T12:56:23.617Z</time></trkpt><trkpt lat="34.3851603" lon="7.9241644"><ele>277.4</ele><time>2026-04-30T12:56:24.654Z</time></trkpt><trkpt lat="34.3851262" lon="7.9242518"><ele>277.0</ele><time>2026-04-30T12:56:26.647Z</time></trkpt><trkpt lat="34.3850724" lon="7.9243083"><ele>277.0</ele><time>2026-04-30T12:58:28.63Z</time></trkpt><trkpt lat="34.3850543" lon="7.9243891"><ele>277.0</ele><time>2026-04-30T12:58:30.619Z</time></trkpt><trkpt lat="34.3850802" lon="7.9245453"><ele>277.0</ele><time>2026-04-30T12:58:32.625Z</time></trkpt><trkpt lat="34.3851043" lon="7.9246363"><ele>277.0</ele><time>2026-04-30T12:58:33.643Z</time></trkpt><trkpt lat="34.3851198" lon="7.9247275"><ele>277.0</ele><time>2026-04-30T12:58:34.65Z</time></trkpt><trkpt lat="34.3851396" lon="7.9248126"><ele>277.0</ele><time>2026-04-30T12:58:35.644Z</time></trkpt><trkpt lat="34.3851619" lon="7.9249024"><ele>277.0</ele><time>2026-04-30T12:58:36.607Z</time></trkpt><trkpt lat="34.385184" lon="7.9249861"><ele>277.0</ele><time>2026-04-30T12:58:37.631Z</time></trkpt><trkpt lat="34.3852074" lon="7.9250756"><ele>277.0</ele><time>2026-04-30T12:58:38.613Z</time></trkpt><trkpt lat="34.385236" lon="7.9251831"><ele>277.0</ele><time>2026-04-30T12:58:39.623Z</time></trkpt><trkpt lat="34.3852652" lon="7.9253101"><ele>277.0</ele><time>2026-04-30T12:58:40.598Z</time></trkpt><trkpt lat="34.3852955" lon="7.9254535"><ele>277.2</ele><time>2026-04-30T12:58:41.643Z</time></trkpt><trkpt lat="34.3853273" lon="7.9255954"><ele>277.4</ele><time>2026-04-30T12:58:42.654Z</time></trkpt><trkpt lat="34.3853573" lon="7.9257296"><ele>277.6</ele><time>2026-04-30T12:58:43.633Z</time></trkpt><trkpt lat="34.3853828" lon="7.9258426"><ele>277.8</ele><time>2026-04-30T12:58:44.641Z</time></trkpt><trkpt lat="34.3854066" lon="7.9259509"><ele>278.0</ele><time>2026-04-30T12:58:45.641Z</time></trkpt><trkpt lat="34.38543" lon="7.9260595"><ele>278.0</ele><time>2026-04-30T12:58:46.629Z</time></trkpt><trkpt lat="34.3854484" lon="7.9261568"><ele>278.0</ele><time>2026-04-30T12:58:47.63Z</time></trkpt><trkpt lat="34.3854685" lon="7.9262602"><ele>278.0</ele><time>2026-04-30T12:58:48.655Z</time></trkpt><trkpt lat="34.3854861" lon="7.9263826"><ele>278.0</ele><time>2026-04-30T12:58:49.661Z</time></trkpt><trkpt lat="34.3855151" lon="7.9265417"><ele>278.0</ele><time>2026-04-30T12:58:50.631Z</time></trkpt><trkpt lat="34.3855425" lon="7.9267046"><ele>279.75</ele><time>2026-04-30T12:58:51.641Z</time></trkpt><trkpt lat="34.3855698" lon="7.9268588"><ele>281.5</ele><time>2026-04-30T12:58:52.634Z</time></trkpt><trkpt lat="34.3855973" lon="7.9270081"><ele>283.25</ele><time>2026-04-30T12:58:53.585Z</time></trkpt><trkpt lat="34.3856252" lon="7.9271578"><ele>285.0</ele><time>2026-04-30T12:58:54.602Z</time></trkpt><trkpt lat="34.3856502" lon="7.9273055"><ele>285.0</ele><time>2026-04-30T12:58:55.667Z</time></trkpt><trkpt lat="34.3856744" lon="7.9274464"><ele>285.0</ele><time>2026-04-30T12:58:56.65Z</time></trkpt><trkpt lat="34.3856951" lon="7.9275862"><ele>285.0</ele><time>2026-04-30T12:58:57.65Z</time></trkpt><trkpt lat="34.3857136" lon="7.9277198"><ele>285.0</ele><time>2026-04-30T12:58:58.638Z</time></trkpt><trkpt lat="34.3857319" lon="7.9278547"><ele>285.0</ele><time>2026-04-30T12:58:59.622Z</time></trkpt><trkpt lat="34.3857521" lon="7.9279913"><ele>285.0</ele><time>2026-04-30T12:59:00.629Z</time></trkpt><trkpt lat="34.3857731" lon="7.9281207"><ele>285.0</ele><time>2026-04-30T12:59:01.644Z</time></trkpt><trkpt lat="34.3857965" lon="7.9282523"><ele>285.0</ele><time>2026-04-30T12:59:02.646Z</time></trkpt><trkpt lat="34.3858184" lon="7.9283784"><ele>285.0</ele><time>2026-04-30T12:59:03.641Z</time></trkpt><trkpt lat="34.3858403" lon="7.9285115"><ele>285.0</ele><time>2026-04-30T12:59:04.647Z</time></trkpt><trkpt lat="34.3858595" lon="7.9286421"><ele>285.0</ele><time>2026-04-30T12:59:05.642Z</time></trkpt><trkpt lat="34.3858798" lon="7.9287761"><ele>285.0</ele><time>2026-04-30T12:59:06.643Z</time></trkpt><trkpt lat="34.3859047" lon="7.9289129"><ele>285.0</ele><time>2026-04-30T12:59:07.624Z</time></trkpt><trkpt lat="34.3859263" lon="7.9290504"><ele>285.0</ele><time>2026-04-30T12:59:08.637Z</time></trkpt><trkpt lat="34.3859481" lon="7.9291871"><ele>285.0</ele><time>2026-04-30T12:59:09.601Z</time></trkpt><trkpt lat="34.3859694" lon="7.9293243"><ele>285.0</ele><time>2026-04-30T12:59:10.63Z</time></trkpt><trkpt lat="34.3859944" lon="7.9294575"><ele>285.0</ele><time>2026-04-30T12:59:11.649Z</time></trkpt><trkpt lat="34.3860154" lon="7.9295893"><ele>286.0</ele><time>2026-04-30T12:59:12.619Z</time></trkpt><trkpt lat="34.3860364" lon="7.9297247"><ele>287.0</ele><time>2026-04-30T12:59:13.647Z</time></trkpt><trkpt lat="34.3860505" lon="7.9298649"><ele>288.0</ele><time>2026-04-30T12:59:14.636Z</time></trkpt><trkpt lat="34.3860678" lon="7.9300073"><ele>289.0</ele><time>2026-04-30T12:59:15.639Z</time></trkpt><trkpt lat="34.386087" lon="7.9301504"><ele>289.75</ele><time>2026-04-30T12:59:16.619Z</time></trkpt><trkpt lat="34.3861075" lon="7.9302991"><ele>290.5</ele><time>2026-04-30T12:59:17.663Z</time></trkpt><trkpt lat="34.386125" lon="7.930449"><ele>291.25</ele><time>2026-04-30T12:59:18.659Z</time></trkpt><trkpt lat="34.3861397" lon="7.9305962"><ele>292.0</ele><time>2026-04-30T12:59:19.646Z</time></trkpt><trkpt lat="34.3861489" lon="7.9307479"><ele>292.0</ele><time>2026-04-30T12:59:20.65Z</time></trkpt><trkpt lat="34.3861567" lon="7.9308897"><ele>292.0</ele><time>2026-04-30T12:59:21.654Z</time></trkpt><trkpt lat="34.3861681" lon="7.9310205"><ele>292.0</ele><time>2026-04-30T12:59:22.647Z</time></trkpt><trkpt lat="34.3861805" lon="7.9311485"><ele>292.0</ele><time>2026-04-30T12:59:23.658Z</time></trkpt><trkpt lat="34.3861919" lon="7.931267"><ele>292.0</ele><time>2026-04-30T12:59:24.602Z</time></trkpt><trkpt lat="34.3862039" lon="7.9313693"><ele>291.8333333333333</ele><time>2026-04-30T12:59:25.637Z</time></trkpt><trkpt lat="34.3862161" lon="7.9314647"><ele>291.66666666666663</ele><time>2026-04-30T12:59:26.634Z</time></trkpt><trkpt lat="34.3862243" lon="7.9315657"><ele>291.5</ele><time>2026-04-30T12:59:27.651Z</time></trkpt><trkpt lat="34.3862304" lon="7.9316728"><ele>291.3333333333333</ele><time>2026-04-30T12:59:28.663Z</time></trkpt><trkpt lat="34.3862327" lon="7.9317851"><ele>291.1666666666667</ele><time>2026-04-30T12:59:29.652Z</time></trkpt><trkpt lat="34.3862417" lon="7.9318932"><ele>291.0</ele><time>2026-04-30T12:59:30.591Z</time></trkpt><trkpt lat="34.3862486" lon="7.9319974"><ele>291.3333333333333</ele><time>2026-04-30T12:59:31.625Z</time></trkpt><trkpt lat="34.3862568" lon="7.9320838"><ele>291.6666666666667</ele><time>2026-04-30T12:59:32.641Z</time></trkpt><trkpt lat="34.3862684" lon="7.9321754"><ele>292.0</ele><time>2026-04-30T12:59:33.626Z</time></trkpt><trkpt lat="34.3862791" lon="7.9322763"><ele>292.33333333333337</ele><time>2026-04-30T12:59:34.652Z</time></trkpt><trkpt lat="34.3862966" lon="7.9323911"><ele>292.6666666666667</ele><time>2026-04-30T12:59:35.642Z</time></trkpt><trkpt lat="34.3863173" lon="7.9325105"><ele>293.0</ele><time>2026-04-30T12:59:36.653Z</time></trkpt><trkpt lat="34.3863379" lon="7.9326295"><ele>294.75</ele><time>2026-04-30T12:59:37.636Z</time></trkpt><trkpt lat="34.3863557" lon="7.9327645"><ele>296.5</ele><time>2026-04-30T12:59:38.644Z</time></trkpt><trkpt lat="34.3863766" lon="7.9329094"><ele>298.25</ele><time>2026-04-30T12:59:39.636Z</time></trkpt><trkpt lat="34.3863931" lon="7.9330642"><ele>300.0</ele><time>2026-04-30T12:59:40.64Z</time></trkpt><trkpt lat="34.3864182" lon="7.9332223"><ele>300.0</ele><time>2026-04-30T12:59:41.594Z</time></trkpt><trkpt lat="34.3864551" lon="7.9333872"><ele>300.0</ele><time>2026-04-30T12:59:42.639Z</time></trkpt><trkpt lat="34.3865088" lon="7.9335556"><ele>300.0</ele><time>2026-04-30T12:59:43.647Z</time></trkpt><trkpt lat="34.3865668" lon="7.9337309"><ele>300.0</ele><time>2026-04-30T12:59:44.63Z</time></trkpt><trkpt lat="34.3866265" lon="7.9339161"><ele>300.3333333333333</ele><time>2026-04-30T12:59:45.643Z</time></trkpt><trkpt lat="34.3866824" lon="7.9340899"><ele>300.66666666666663</ele><time>2026-04-30T12:59:46.645Z</time></trkpt><trkpt lat="34.3867386" lon="7.934261"><ele>301.0</ele><time>2026-04-30T12:59:47.667Z</time></trkpt><trkpt lat="34.386795" lon="7.9344271"><ele>301.0</ele><time>2026-04-30T12:59:48.637Z</time></trkpt><trkpt lat="34.3868471" lon="7.9345846"><ele>301.0</ele><time>2026-04-30T12:59:49.649Z</time></trkpt><trkpt lat="34.3868961" lon="7.9347404"><ele>301.0</ele><time>2026-04-30T12:59:50.623Z</time></trkpt><trkpt lat="34.3869444" lon="7.9348977"><ele>301.0</ele><time>2026-04-30T12:59:51.637Z</time></trkpt><trkpt lat="34.3869927" lon="7.9350554"><ele>300.5</ele><time>2026-04-30T12:59:52.629Z</time></trkpt><trkpt lat="34.3870401" lon="7.9352196"><ele>300.0</ele><time>2026-04-30T12:59:53.602Z</time></trkpt><trkpt lat="34.387084" lon="7.9353743"><ele>299.5</ele><time>2026-04-30T12:59:54.618Z</time></trkpt><trkpt lat="34.3871129" lon="7.9355159"><ele>299.0</ele><time>2026-04-30T12:59:55.647Z</time></trkpt><trkpt lat="34.3871239" lon="7.935661"><ele>299.0</ele><time>2026-04-30T12:59:56.643Z</time></trkpt><trkpt lat="34.3871215" lon="7.935801"><ele>299.0</ele><time>2026-04-30T12:59:57.629Z</time></trkpt><trkpt lat="34.3871189" lon="7.9359412"><ele>299.0</ele><time>2026-04-30T12:59:58.674Z</time></trkpt><trkpt lat="34.3871159" lon="7.936093"><ele>299.0</ele><time>2026-04-30T12:59:59.66Z</time></trkpt><trkpt lat="34.3871117" lon="7.9362488"><ele>298.5</ele><time>2026-04-30T13:00:00.615Z</time></trkpt><trkpt lat="34.387107" lon="7.9363989"><ele>298.0</ele><time>2026-04-30T13:00:01.632Z</time></trkpt><trkpt lat="34.3871059" lon="7.9365389"><ele>297.5</ele><time>2026-04-30T13:00:02.594Z</time></trkpt><trkpt lat="34.387101" lon="7.9366802"><ele>297.0</ele><time>2026-04-30T13:00:03.638Z</time></trkpt><trkpt lat="34.387104" lon="7.9368133"><ele>296.2</ele><time>2026-04-30T13:00:04.643Z</time></trkpt><trkpt lat="34.3871013" lon="7.9369325"><ele>295.4</ele><time>2026-04-30T13:00:05.656Z</time></trkpt><trkpt lat="34.3871017" lon="7.9370246"><ele>294.6</ele><time>2026-04-30T13:00:06.617Z</time></trkpt><trkpt lat="34.3871007" lon="7.9371283"><ele>293.8</ele><time>2026-04-30T13:00:07.633Z</time></trkpt><trkpt lat="34.3870993" lon="7.937256"><ele>293.0</ele><time>2026-04-30T13:00:08.628Z</time></trkpt><trkpt lat="34.3870904" lon="7.9374155"><ele>293.25</ele><time>2026-04-30T13:00:09.651Z</time></trkpt><trkpt lat="34.3870823" lon="7.937584"><ele>293.5</ele><time>2026-04-30T13:00:10.637Z</time></trkpt><trkpt lat="34.3870732" lon="7.9377653"><ele>293.75</ele><time>2026-04-30T13:00:11.641Z</time></trkpt><trkpt lat="34.3870599" lon="7.9379551"><ele>294.0</ele><time>2026-04-30T13:00:12.632Z</time></trkpt><trkpt lat="34.3870425" lon="7.9381419"><ele>294.0</ele><time>2026-04-30T13:00:13.646Z</time></trkpt><trkpt lat="34.3870228" lon="7.9383344"><ele>294.0</ele><time>2026-04-30T13:00:14.653Z</time></trkpt><trkpt lat="34.3870057" lon="7.9385203"><ele>294.0</ele><time>2026-04-30T13:00:15.611Z</time></trkpt><trkpt lat="34.3869919" lon="7.9387063"><ele>294.5</ele><time>2026-04-30T13:00:16.649Z</time></trkpt><trkpt lat="34.3869818" lon="7.9388887"><ele>295.0</ele><time>2026-04-30T13:00:17.638Z</time></trkpt><trkpt lat="34.3869732" lon="7.9390555"><ele>295.5</ele><time>2026-04-30T13:00:18.633Z</time></trkpt><trkpt lat="34.3869712" lon="7.9392078"><ele>296.0</ele><time>2026-04-30T13:00:19.645Z</time></trkpt><trkpt lat="34.3869702" lon="7.9393593"><ele>296.25</ele><time>2026-04-30T13:00:20.635Z</time></trkpt><trkpt lat="34.3869712" lon="7.9395086"><ele>296.5</ele><time>2026-04-30T13:00:21.635Z</time></trkpt><trkpt lat="34.3869684" lon="7.9396494"><ele>296.75</ele><time>2026-04-30T13:00:22.643Z</time></trkpt><trkpt lat="34.3869697" lon="7.9397876"><ele>297.0</ele><time>2026-04-30T13:00:23.641Z</time></trkpt><trkpt lat="34.386971" lon="7.9399168"><ele>297.0</ele><time>2026-04-30T13:00:24.653Z</time></trkpt><trkpt lat="34.3869719" lon="7.9400454"><ele>297.0</ele><time>2026-04-30T13:00:25.63Z</time></trkpt><trkpt lat="34.3869743" lon="7.9401788"><ele>297.0</ele><time>2026-04-30T13:00:26.631Z</time></trkpt><trkpt lat="34.3869771" lon="7.9403102"><ele>297.0</ele><time>2026-04-30T13:00:27.615Z</time></trkpt><trkpt lat="34.3869766" lon="7.9404396"><ele>297.0</ele><time>2026-04-30T13:00:28.645Z</time></trkpt><trkpt lat="34.3869759" lon="7.9405691"><ele>296.4</ele><time>2026-04-30T13:00:29.659Z</time></trkpt><trkpt lat="34.3869714" lon="7.9407013"><ele>295.79999999999995</ele><time>2026-04-30T13:00:30.642Z</time></trkpt><trkpt lat="34.3869686" lon="7.9408314"><ele>295.2</ele><time>2026-04-30T13:00:31.653Z</time></trkpt><trkpt lat="34.3869661" lon="7.9409652"><ele>294.59999999999997</ele><time>2026-04-30T13:00:32.621Z</time></trkpt><trkpt lat="34.3869609" lon="7.9410977"><ele>294.0</ele><time>2026-04-30T13:00:33.641Z</time></trkpt><trkpt lat="34.386953" lon="7.9412264"><ele>293.8</ele><time>2026-04-30T13:00:34.658Z</time></trkpt><trkpt lat="34.3869464" lon="7.9413471"><ele>293.59999999999997</ele><time>2026-04-30T13:00:35.655Z</time></trkpt><trkpt lat="34.386944" lon="7.9414578"><ele>293.4</ele><time>2026-04-30T13:00:36.641Z</time></trkpt><trkpt lat="34.3869454" lon="7.9415578"><ele>293.2</ele><time>2026-04-30T13:00:37.626Z</time></trkpt><trkpt lat="34.3869528" lon="7.9416632"><ele>293.0</ele><time>2026-04-30T13:00:38.618Z</time></trkpt><trkpt lat="34.3869662" lon="7.9417772"><ele>292.8</ele><time>2026-04-30T13:00:39.645Z</time></trkpt><trkpt lat="34.3869844" lon="7.9419033"><ele>292.6</ele><time>2026-04-30T13:00:40.652Z</time></trkpt><trkpt lat="34.386998" lon="7.9420388"><ele>292.4</ele><time>2026-04-30T13:00:41.635Z</time></trkpt><trkpt lat="34.3870168" lon="7.9421749"><ele>292.2</ele><time>2026-04-30T13:00:42.634Z</time></trkpt><trkpt lat="34.3870343" lon="7.9423068"><ele>292.0</ele><time>2026-04-30T13:00:43.621Z</time></trkpt><trkpt lat="34.3870557" lon="7.9424359"><ele>292.0</ele><time>2026-04-30T13:00:44.625Z</time></trkpt><trkpt lat="34.3870825" lon="7.9425715"><ele>292.0</ele><time>2026-04-30T13:00:45.655Z</time></trkpt><trkpt lat="34.3871068" lon="7.9427065"><ele>292.0</ele><time>2026-04-30T13:00:46.633Z</time></trkpt><trkpt lat="34.3871231" lon="7.942851"><ele>292.0</ele><time>2026-04-30T13:00:47.638Z</time></trkpt><trkpt lat="34.387131" lon="7.9429888"><ele>292.0</ele><time>2026-04-30T13:00:48.619Z</time></trkpt><trkpt lat="34.387131" lon="7.9431328"><ele>292.0</ele><time>2026-04-30T13:00:49.65Z</time></trkpt><trkpt lat="34.3871272" lon="7.9433064"><ele>292.0</ele><time>2026-04-30T13:00:50.633Z</time></trkpt><trkpt lat="34.3871334" lon="7.9435068"><ele>292.0</ele><time>2026-04-30T13:00:51.639Z</time></trkpt><trkpt lat="34.3871524" lon="7.9437155"><ele>292.0</ele><time>2026-04-30T13:00:52.629Z</time></trkpt><trkpt lat="34.3871749" lon="7.9438967"><ele>292.0</ele><time>2026-04-30T13:00:53.612Z</time></trkpt><trkpt lat="34.3871915" lon="7.9440595"><ele>292.0</ele><time>2026-04-30T13:00:54.655Z</time></trkpt><trkpt lat="34.3872131" lon="7.9441994"><ele>292.0</ele><time>2026-04-30T13:00:55.656Z</time></trkpt><trkpt lat="34.3872368" lon="7.9443226"><ele>292.4</ele><time>2026-04-30T13:00:56.662Z</time></trkpt><trkpt lat="34.3872559" lon="7.9444354"><ele>292.79999999999995</ele><time>2026-04-30T13:00:57.653Z</time></trkpt><trkpt lat="34.3872823" lon="7.9445651"><ele>293.2</ele><time>2026-04-30T13:00:58.659Z</time></trkpt><trkpt lat="34.3873177" lon="7.9446928"><ele>293.59999999999997</ele><time>2026-04-30T13:00:59.604Z</time></trkpt><trkpt lat="34.3873434" lon="7.944812"><ele>294.0</ele><time>2026-04-30T13:01:00.612Z</time></trkpt><trkpt lat="34.3873739" lon="7.944913"><ele>294.0</ele><time>2026-04-30T13:01:01.612Z</time></trkpt><trkpt lat="34.3874361" lon="7.9450059"><ele>294.0</ele><time>2026-04-30T13:01:02.622Z</time></trkpt><trkpt lat="34.3875223" lon="7.9450681"><ele>294.0</ele><time>2026-04-30T13:01:03.645Z</time></trkpt><trkpt lat="34.387636" lon="7.9451151"><ele>294.0</ele><time>2026-04-30T13:01:04.641Z</time></trkpt><trkpt lat="34.3877691" lon="7.9451463"><ele>293.6666666666667</ele><time>2026-04-30T13:01:05.634Z</time></trkpt><trkpt lat="34.3879285" lon="7.9451829"><ele>293.33333333333337</ele><time>2026-04-30T13:01:06.616Z</time></trkpt><trkpt lat="34.388113" lon="7.9452066"><ele>293.0</ele><time>2026-04-30T13:01:07.587Z</time></trkpt><trkpt lat="34.3883187" lon="7.9452255"><ele>293.0</ele><time>2026-04-30T13:01:08.648Z</time></trkpt><trkpt lat="34.3885208" lon="7.9452582"><ele>293.0</ele><time>2026-04-30T13:01:09.649Z</time></trkpt><trkpt lat="34.3887045" lon="7.9453167"><ele>293.0</ele><time>2026-04-30T13:01:10.613Z</time></trkpt><trkpt lat="34.3888726" lon="7.9453943"><ele>294.6666666666667</ele><time>2026-04-30T13:01:11.628Z</time></trkpt><trkpt lat="34.389027" lon="7.9454752"><ele>296.3333333333333</ele><time>2026-04-30T13:01:12.633Z</time></trkpt><trkpt lat="34.3891715" lon="7.945588"><ele>298.0</ele><time>2026-04-30T13:01:13.576Z</time></trkpt><trkpt lat="34.3893012" lon="7.9457302"><ele>297.0</ele><time>2026-04-30T13:01:14.631Z</time></trkpt><trkpt lat="34.3894222" lon="7.945881"><ele>296.0</ele><time>2026-04-30T13:01:15.642Z</time></trkpt><trkpt lat="34.3895506" lon="7.9460352"><ele>295.0</ele><time>2026-04-30T13:01:16.634Z</time></trkpt><trkpt lat="34.3896901" lon="7.946196"><ele>298.3333333333333</ele><time>2026-04-30T13:01:17.573Z</time></trkpt><trkpt lat="34.3898278" lon="7.9463591"><ele>301.6666666666667</ele><time>2026-04-30T13:01:18.629Z</time></trkpt><trkpt lat="34.3899537" lon="7.9465174"><ele>305.0</ele><time>2026-04-30T13:01:19.603Z</time></trkpt><trkpt lat="34.3900679" lon="7.9466568"><ele>305.6666666666667</ele><time>2026-04-30T13:01:20.588Z</time></trkpt><trkpt lat="34.39017" lon="7.9468007"><ele>306.3333333333333</ele><time>2026-04-30T13:01:21.63Z</time></trkpt><trkpt lat="34.3902622" lon="7.9469445"><ele>307.0</ele><time>2026-04-30T13:01:22.644Z</time></trkpt><trkpt lat="34.3903455" lon="7.9470997"><ele>307.0</ele><time>2026-04-30T13:01:23.655Z</time></trkpt><trkpt lat="34.3904038" lon="7.9472608"><ele>307.0</ele><time>2026-04-30T13:01:24.625Z</time></trkpt><trkpt lat="34.390458" lon="7.9474214"><ele>307.0</ele><time>2026-04-30T13:01:25.635Z</time></trkpt><trkpt lat="34.3905117" lon="7.9475825"><ele>307.0</ele><time>2026-04-30T13:01:26.634Z</time></trkpt><trkpt lat="34.3905688" lon="7.9477507"><ele>312.0</ele><time>2026-04-30T13:01:27.618Z</time></trkpt><trkpt lat="34.390631" lon="7.9479196"><ele>317.0</ele><time>2026-04-30T13:01:28.621Z</time></trkpt><trkpt lat="34.390689" lon="7.9480856"><ele>322.0</ele><time>2026-04-30T13:01:29.62Z</time></trkpt><trkpt lat="34.3907562" lon="7.9482499"><ele>321.66666666666663</ele><time>2026-04-30T13:01:30.647Z</time></trkpt><trkpt lat="34.3908401" lon="7.9483992"><ele>321.3333333333333</ele><time>2026-04-30T13:01:31.631Z</time></trkpt><trkpt lat="34.3909433" lon="7.9485331"><ele>321.0</ele><time>2026-04-30T13:01:32.641Z</time></trkpt><trkpt lat="34.3910578" lon="7.9486598"><ele>321.0</ele><time>2026-04-30T13:01:33.643Z</time></trkpt><trkpt lat="34.3911671" lon="7.9487863"><ele>321.0</ele><time>2026-04-30T13:01:34.611Z</time></trkpt><trkpt lat="34.39127" lon="7.9489216"><ele>321.0</ele><time>2026-04-30T13:01:35.638Z</time></trkpt><trkpt lat="34.3913592" lon="7.9490631"><ele>325.6666666666667</ele><time>2026-04-30T13:01:36.643Z</time></trkpt><trkpt lat="34.3914258" lon="7.949222"><ele>330.33333333333337</ele><time>2026-04-30T13:01:37.638Z</time></trkpt><trkpt lat="34.3914745" lon="7.9493997"><ele>335.0</ele><time>2026-04-30T13:01:38.617Z</time></trkpt><trkpt lat="34.3915055" lon="7.9495841"><ele>335.0</ele><time>2026-04-30T13:01:39.649Z</time></trkpt><trkpt lat="34.3915369" lon="7.9497696"><ele>335.0</ele><time>2026-04-30T13:01:40.641Z</time></trkpt><trkpt lat="34.3915751" lon="7.9499536"><ele>335.0</ele><time>2026-04-30T13:01:41.627Z</time></trkpt><trkpt lat="34.3916164" lon="7.9501445"><ele>333.0</ele><time>2026-04-30T13:01:42.623Z</time></trkpt><trkpt lat="34.3916559" lon="7.9503415"><ele>331.0</ele><time>2026-04-30T13:01:43.579Z</time></trkpt><trkpt lat="34.3916812" lon="7.9505489"><ele>329.0</ele><time>2026-04-30T13:01:44.62Z</time></trkpt><trkpt lat="34.391699" lon="7.950762"><ele>327.6666666666667</ele><time>2026-04-30T13:01:45.654Z</time></trkpt><trkpt lat="34.3917118" lon="7.9509722"><ele>326.3333333333333</ele><time>2026-04-30T13:01:46.589Z</time></trkpt><trkpt lat="34.391743" lon="7.9511951"><ele>325.0</ele><time>2026-04-30T13:01:47.658Z</time></trkpt><trkpt lat="34.3917931" lon="7.9514163"><ele>325.0</ele><time>2026-04-30T13:01:48.618Z</time></trkpt><trkpt lat="34.3918511" lon="7.9516361"><ele>325.0</ele><time>2026-04-30T13:01:49.658Z</time></trkpt><trkpt lat="34.3919232" lon="7.9518548"><ele>325.0</ele><time>2026-04-30T13:01:50.64Z</time></trkpt><trkpt lat="34.391988" lon="7.9520697"><ele>323.3333333333333</ele><time>2026-04-30T13:01:51.647Z</time></trkpt><trkpt lat="34.3920549" lon="7.9522848"><ele>321.6666666666667</ele><time>2026-04-30T13:01:52.631Z</time></trkpt><trkpt lat="34.3921223" lon="7.9524929"><ele>320.0</ele><time>2026-04-30T13:01:53.642Z</time></trkpt><trkpt lat="34.3921893" lon="7.9526938"><ele>324.33333333333337</ele><time>2026-04-30T13:01:54.661Z</time></trkpt><trkpt lat="34.3922558" lon="7.9528952"><ele>328.6666666666667</ele><time>2026-04-30T13:01:55.652Z</time></trkpt><trkpt lat="34.3923209" lon="7.9530934"><ele>333.0</ele><time>2026-04-30T13:01:56.616Z</time></trkpt><trkpt lat="34.3923858" lon="7.9532864"><ele>330.3333333333333</ele><time>2026-04-30T13:01:57.639Z</time></trkpt><trkpt lat="34.3924463" lon="7.9534776"><ele>327.66666666666663</ele><time>2026-04-30T13:01:58.652Z</time></trkpt><trkpt lat="34.3925006" lon="7.9536781"><ele>325.0</ele><time>2026-04-30T13:01:59.642Z</time></trkpt><trkpt lat="34.3925513" lon="7.95388"><ele>325.0</ele><time>2026-04-30T13:02:00.661Z</time></trkpt><trkpt lat="34.3926006" lon="7.9540741"><ele>325.0</ele><time>2026-04-30T13:02:01.642Z</time></trkpt><trkpt lat="34.392655" lon="7.9542691"><ele>325.0</ele><time>2026-04-30T13:02:02.642Z</time></trkpt><trkpt lat="34.3927075" lon="7.9544625"><ele>323.66666666666663</ele><time>2026-04-30T13:02:03.652Z</time></trkpt><trkpt lat="34.3927592" lon="7.9546519"><ele>322.3333333333333</ele><time>2026-04-30T13:02:04.642Z</time></trkpt><trkpt lat="34.3928102" lon="7.9548494"><ele>321.0</ele><time>2026-04-30T13:02:05.609Z</time></trkpt><trkpt lat="34.3928604" lon="7.9550575"><ele>320.0</ele><time>2026-04-30T13:02:06.628Z</time></trkpt><trkpt lat="34.39289" lon="7.9552736"><ele>319.0</ele><time>2026-04-30T13:02:07.635Z</time></trkpt><trkpt lat="34.3928982" lon="7.9554999"><ele>318.0</ele><time>2026-04-30T13:02:08.642Z</time></trkpt><trkpt lat="34.3928894" lon="7.9557266"><ele>316.6666666666667</ele><time>2026-04-30T13:02:09.647Z</time></trkpt><trkpt lat="34.392869" lon="7.9559594"><ele>315.33333333333337</ele><time>2026-04-30T13:02:10.6Z</time></trkpt><trkpt lat="34.39286" lon="7.9562024"><ele>314.0</ele><time>2026-04-30T13:02:11.611Z</time></trkpt><trkpt lat="34.392887" lon="7.9564529"><ele>314.5</ele><time>2026-04-30T13:02:12.645Z</time></trkpt><trkpt lat="34.3929335" lon="7.9567329"><ele>315.0</ele><time>2026-04-30T13:02:13.627Z</time></trkpt><trkpt lat="34.3930044" lon="7.9570351"><ele>318.5</ele><time>2026-04-30T13:02:14.631Z</time></trkpt><trkpt lat="34.3930847" lon="7.9573495"><ele>322.0</ele><time>2026-04-30T13:02:15.64Z</time></trkpt><trkpt lat="34.3931581" lon="7.9576509"><ele>322.0</ele><time>2026-04-30T13:02:16.58Z</time></trkpt><trkpt lat="34.3932257" lon="7.9579291"><ele>322.0</ele><time>2026-04-30T13:02:17.659Z</time></trkpt><trkpt lat="34.3932987" lon="7.9581918"><ele>321.0</ele><time>2026-04-30T13:02:18.651Z</time></trkpt><trkpt lat="34.3933675" lon="7.9584368"><ele>320.0</ele><time>2026-04-30T13:02:19.647Z</time></trkpt><trkpt lat="34.3934315" lon="7.9586801"><ele>319.0</ele><time>2026-04-30T13:02:20.642Z</time></trkpt><trkpt lat="34.3934893" lon="7.9589228"><ele>319.0</ele><time>2026-04-30T13:02:21.65Z</time></trkpt><trkpt lat="34.3935419" lon="7.9591672"><ele>319.0</ele><time>2026-04-30T13:02:22.639Z</time></trkpt><trkpt lat="34.3935957" lon="7.9594083"><ele>319.0</ele><time>2026-04-30T13:02:23.608Z</time></trkpt><trkpt lat="34.3936515" lon="7.95965"><ele>318.66666666666663</ele><time>2026-04-30T13:02:24.598Z</time></trkpt><trkpt lat="34.3937113" lon="7.9598899"><ele>318.3333333333333</ele><time>2026-04-30T13:02:25.646Z</time></trkpt><trkpt lat="34.3937821" lon="7.9601259"><ele>318.0</ele><time>2026-04-30T13:02:26.641Z</time></trkpt><trkpt lat="34.3938599" lon="7.9603551"><ele>321.6666666666667</ele><time>2026-04-30T13:02:27.636Z</time></trkpt><trkpt lat="34.3939406" lon="7.9605812"><ele>325.33333333333337</ele><time>2026-04-30T13:02:28.637Z</time></trkpt><trkpt lat="34.3940154" lon="7.9608069"><ele>329.0</ele><time>2026-04-30T13:02:29.625Z</time></trkpt><trkpt lat="34.3940858" lon="7.9610345"><ele>329.0</ele><time>2026-04-30T13:02:30.638Z</time></trkpt><trkpt lat="34.3941519" lon="7.9612568"><ele>329.0</ele><time>2026-04-30T13:02:31.641Z</time></trkpt><trkpt lat="34.3942102" lon="7.9614843"><ele>329.0</ele><time>2026-04-30T13:02:32.644Z</time></trkpt><trkpt lat="34.3942662" lon="7.961722"><ele>328.33333333333337</ele><time>2026-04-30T13:02:33.639Z</time></trkpt><trkpt lat="34.3943215" lon="7.9619511"><ele>327.6666666666667</ele><time>2026-04-30T13:02:34.633Z</time></trkpt><trkpt lat="34.3943803" lon="7.9621836"><ele>327.0</ele><time>2026-04-30T13:02:35.634Z</time></trkpt><trkpt lat="34.3944412" lon="7.9624136"><ele>327.0</ele><time>2026-04-30T13:02:36.627Z</time></trkpt><trkpt lat="34.3945043" lon="7.9626429"><ele>327.0</ele><time>2026-04-30T13:02:37.637Z</time></trkpt><trkpt lat="34.3945694" lon="7.9628695"><ele>327.0</ele><time>2026-04-30T13:02:38.606Z</time></trkpt><trkpt lat="34.3946399" lon="7.9630944"><ele>328.3333333333333</ele><time>2026-04-30T13:02:39.633Z</time></trkpt><trkpt lat="34.3947137" lon="7.9633155"><ele>329.66666666666663</ele><time>2026-04-30T13:02:40.637Z</time></trkpt><trkpt lat="34.3947883" lon="7.9635336"><ele>331.0</ele><time>2026-04-30T13:02:41.649Z</time></trkpt><trkpt lat="34.3948566" lon="7.9637495"><ele>331.0</ele><time>2026-04-30T13:02:42.63Z</time></trkpt><trkpt lat="34.394923" lon="7.9639625"><ele>331.0</ele><time>2026-04-30T13:02:43.597Z</time></trkpt><trkpt lat="34.3949918" lon="7.964175"><ele>331.0</ele><time>2026-04-30T13:02:44.628Z</time></trkpt><trkpt lat="34.3950614" lon="7.9643878"><ele>330.3333333333333</ele><time>2026-04-30T13:02:45.633Z</time></trkpt><trkpt lat="34.3951289" lon="7.9645918"><ele>329.6666666666667</ele><time>2026-04-30T13:02:46.639Z</time></trkpt><trkpt lat="34.3952039" lon="7.9647946"><ele>329.0</ele><time>2026-04-30T13:02:47.643Z</time></trkpt><trkpt lat="34.3952783" lon="7.9649948"><ele>329.0</ele><time>2026-04-30T13:02:48.611Z</time></trkpt><trkpt lat="34.3953534" lon="7.9651989"><ele>329.0</ele><time>2026-04-30T13:02:49.658Z</time></trkpt><trkpt lat="34.3954301" lon="7.9653982"><ele>329.0</ele><time>2026-04-30T13:02:50.6Z</time></trkpt><trkpt lat="34.3955113" lon="7.9655958"><ele>331.33333333333337</ele><time>2026-04-30T13:02:51.628Z</time></trkpt><trkpt lat="34.3955964" lon="7.965791"><ele>333.6666666666667</ele><time>2026-04-30T13:02:52.615Z</time></trkpt><trkpt lat="34.3956838" lon="7.9659874"><ele>336.0</ele><time>2026-04-30T13:02:53.646Z</time></trkpt><trkpt lat="34.3957687" lon="7.9661766"><ele>336.0</ele><time>2026-04-30T13:02:54.645Z</time></trkpt><trkpt lat="34.3958536" lon="7.9663626"><ele>336.0</ele><time>2026-04-30T13:02:55.656Z</time></trkpt><trkpt lat="34.3959337" lon="7.9665432"><ele>336.0</ele><time>2026-04-30T13:02:56.65Z</time></trkpt><trkpt lat="34.3960136" lon="7.9667214"><ele>335.0</ele><time>2026-04-30T13:02:57.602Z</time></trkpt><trkpt lat="34.3960986" lon="7.9668933"><ele>334.0</ele><time>2026-04-30T13:02:58.656Z</time></trkpt><trkpt lat="34.3961882" lon="7.9670467"><ele>333.0</ele><time>2026-04-30T13:02:59.661Z</time></trkpt><trkpt lat="34.3962872" lon="7.9671784"><ele>333.75</ele><time>2026-04-30T13:03:00.652Z</time></trkpt><trkpt lat="34.396405" lon="7.9672805"><ele>334.5</ele><time>2026-04-30T13:03:01.657Z</time></trkpt><trkpt lat="34.3965359" lon="7.9673593"><ele>335.25</ele><time>2026-04-30T13:03:02.595Z</time></trkpt><trkpt lat="34.3966813" lon="7.9674176"><ele>336.0</ele><time>2026-04-30T13:03:03.614Z</time></trkpt><trkpt lat="34.3968292" lon="7.9674655"><ele>336.0</ele><time>2026-04-30T13:03:04.665Z</time></trkpt><trkpt lat="34.3969743" lon="7.9675071"><ele>336.0</ele><time>2026-04-30T13:03:05.658Z</time></trkpt><trkpt lat="34.3971188" lon="7.9675522"><ele>336.0</ele><time>2026-04-30T13:03:06.661Z</time></trkpt><trkpt lat="34.3972571" lon="7.9676083"><ele>336.0</ele><time>2026-04-30T13:03:07.617Z</time></trkpt><trkpt lat="34.3973661" lon="7.9676711"><ele>336.5</ele><time>2026-04-30T13:03:08.605Z</time></trkpt><trkpt lat="34.3974546" lon="7.9677277"><ele>337.0</ele><time>2026-04-30T13:03:09.611Z</time></trkpt><trkpt lat="34.3975165" lon="7.967766"><ele>337.5</ele><time>2026-04-30T13:03:10.642Z</time></trkpt><trkpt lat="34.3975974" lon="7.9677776"><ele>338.0</ele><time>2026-04-30T13:03:12.663Z</time></trkpt><trkpt lat="34.3976685" lon="7.9677651"><ele>338.5</ele><time>2026-04-30T13:03:23.634Z</time></trkpt><trkpt lat="34.3977341" lon="7.9677582"><ele>339.0</ele><time>2026-04-30T13:03:25.64Z</time></trkpt><trkpt lat="34.3978143" lon="7.9677442"><ele>339.0</ele><time>2026-04-30T13:03:28.669Z</time></trkpt><trkpt lat="34.3978751" lon="7.9677157"><ele>339.0</ele><time>2026-04-30T13:03:30.642Z</time></trkpt><trkpt lat="34.3979378" lon="7.9676698"><ele>339.0</ele><time>2026-04-30T13:03:32.653Z</time></trkpt><trkpt lat="34.3979828" lon="7.9676004"><ele>339.0</ele><time>2026-04-30T13:03:35.593Z</time></trkpt><trkpt lat="34.3980072" lon="7.9675259"><ele>339.0</ele><time>2026-04-30T13:04:20.638Z</time></trkpt><trkpt lat="34.3980593" lon="7.9673909"><ele>339.0</ele><time>2026-04-30T13:04:22.633Z</time></trkpt><trkpt lat="34.3981094" lon="7.967268"><ele>340.2</ele><time>2026-04-30T13:04:24.643Z</time></trkpt><trkpt lat="34.3981578" lon="7.967155"><ele>341.4</ele><time>2026-04-30T13:04:26.639Z</time></trkpt><trkpt lat="34.3981944" lon="7.9670322"><ele>342.6</ele><time>2026-04-30T13:04:28.643Z</time></trkpt><trkpt lat="34.3982045" lon="7.966906"><ele>343.8</ele><time>2026-04-30T13:04:30.658Z</time></trkpt><trkpt lat="34.3981908" lon="7.9667789"><ele>345.0</ele><time>2026-04-30T13:04:32.634Z</time></trkpt><trkpt lat="34.3981728" lon="7.9666735"><ele>345.6</ele><time>2026-04-30T13:04:34.648Z</time></trkpt><trkpt lat="34.3981518" lon="7.966579"><ele>346.2</ele><time>2026-04-30T13:04:36.648Z</time></trkpt><trkpt lat="34.3981322" lon="7.9664506"><ele>346.79999999999995</ele><time>2026-04-30T13:04:38.617Z</time></trkpt><trkpt lat="34.398115" lon="7.966328"><ele>347.4</ele><time>2026-04-30T13:04:40.643Z</time></trkpt><trkpt lat="34.3981172" lon="7.9661942"><ele>348.0</ele><time>2026-04-30T13:04:42.6Z</time></trkpt><trkpt lat="34.3981533" lon="7.9660652"><ele>348.0</ele><time>2026-04-30T13:04:44.649Z</time></trkpt><trkpt lat="34.3982062" lon="7.9659451"><ele>348.0</ele><time>2026-04-30T13:04:46.66Z</time></trkpt><trkpt lat="34.3982799" lon="7.9658403"><ele>348.0</ele><time>2026-04-30T13:04:48.639Z</time></trkpt><trkpt lat="34.398349" lon="7.9657318"><ele>348.0</ele><time>2026-04-30T13:04:50.625Z</time></trkpt><trkpt lat="34.398403" lon="7.9656006"><ele>349.0</ele><time>2026-04-30T13:04:52.62Z</time></trkpt><trkpt lat="34.3984437" lon="7.9654599"><ele>350.0</ele><time>2026-04-30T13:04:54.637Z</time></trkpt><trkpt lat="34.398469" lon="7.9653898"><ele>351.0</ele><time>2026-04-30T13:04:55.635Z</time></trkpt><trkpt lat="34.3985258" lon="7.9652624"><ele>352.0</ele><time>2026-04-30T13:04:57.648Z</time></trkpt><trkpt lat="34.3985659" lon="7.9651577"><ele>353.0</ele><time>2026-04-30T13:04:59.638Z</time></trkpt><trkpt lat="34.3985932" lon="7.9650555"><ele>353.33333333333337</ele><time>2026-04-30T13:05:09.638Z</time></trkpt><trkpt lat="34.398636" lon="7.9649459"><ele>353.6666666666667</ele><time>2026-04-30T13:05:11.641Z</time></trkpt><trkpt lat="34.3986726" lon="7.9647938"><ele>354.0</ele><time>2026-04-30T13:05:13.645Z</time></trkpt><trkpt lat="34.3986964" lon="7.9647136"><ele>354.3333333333333</ele><time>2026-04-30T13:05:14.631Z</time></trkpt><trkpt lat="34.3987178" lon="7.9646333"><ele>354.66666666666663</ele><time>2026-04-30T13:05:15.646Z</time></trkpt><trkpt lat="34.3987327" lon="7.9645503"><ele>355.0</ele><time>2026-04-30T13:05:16.639Z</time></trkpt><trkpt lat="34.3987469" lon="7.9644717"><ele>355.0</ele><time>2026-04-30T13:05:17.649Z</time></trkpt><trkpt lat="34.3987531" lon="7.9643938"><ele>355.0</ele><time>2026-04-30T13:05:18.645Z</time></trkpt><trkpt lat="34.3987605" lon="7.9642448"><ele>355.0</ele><time>2026-04-30T13:05:20.649Z</time></trkpt><trkpt lat="34.3987643" lon="7.9641207"><ele>355.0</ele><time>2026-04-30T13:05:22.614Z</time></trkpt><trkpt lat="34.3987933" lon="7.963988"><ele>355.0</ele><time>2026-04-30T13:05:24.592Z</time></trkpt><trkpt lat="34.3988319" lon="7.9638456"><ele>355.5</ele><time>2026-04-30T13:05:26.618Z</time></trkpt><trkpt lat="34.3988892" lon="7.9637033"><ele>356.0</ele><time>2026-04-30T13:05:28.635Z</time></trkpt><trkpt lat="34.3989199" lon="7.963632"><ele>356.5</ele><time>2026-04-30T13:05:29.607Z</time></trkpt><trkpt lat="34.3989481" lon="7.9635612"><ele>357.0</ele><time>2026-04-30T13:05:30.643Z</time></trkpt><trkpt lat="34.3989796" lon="7.9634877"><ele>357.5</ele><time>2026-04-30T13:05:31.601Z</time></trkpt><trkpt lat="34.3990051" lon="7.9634088"><ele>358.0</ele><time>2026-04-30T13:05:32.656Z</time></trkpt><trkpt lat="34.3990303" lon="7.9633315"><ele>358.16666666666663</ele><time>2026-04-30T13:05:33.635Z</time></trkpt><trkpt lat="34.3990544" lon="7.9632592"><ele>358.3333333333333</ele><time>2026-04-30T13:05:34.624Z</time></trkpt><trkpt lat="34.3990837" lon="7.9631914"><ele>358.5</ele><time>2026-04-30T13:05:35.641Z</time></trkpt><trkpt lat="34.3991179" lon="7.9631169"><ele>358.6666666666667</ele><time>2026-04-30T13:05:36.644Z</time></trkpt><trkpt lat="34.3991467" lon="7.9630332"><ele>358.83333333333337</ele><time>2026-04-30T13:05:37.637Z</time></trkpt><trkpt lat="34.3991796" lon="7.9629392"><ele>359.0</ele><time>2026-04-30T13:05:38.635Z</time></trkpt><trkpt lat="34.3992057" lon="7.9628268"><ele>359.0</ele><time>2026-04-30T13:05:39.644Z</time></trkpt><trkpt lat="34.3992269" lon="7.9627123"><ele>359.0</ele><time>2026-04-30T13:05:40.624Z</time></trkpt><trkpt lat="34.3992459" lon="7.9626038"><ele>359.0</ele><time>2026-04-30T13:05:41.639Z</time></trkpt><trkpt lat="34.3992593" lon="7.9625006"><ele>359.0</ele><time>2026-04-30T13:05:42.673Z</time></trkpt><trkpt lat="34.3992725" lon="7.9623893"><ele>359.0</ele><time>2026-04-30T13:05:43.648Z</time></trkpt><trkpt lat="34.3992824" lon="7.9622836"><ele>359.1666666666667</ele><time>2026-04-30T13:05:44.662Z</time></trkpt><trkpt lat="34.3992947" lon="7.9621862"><ele>359.33333333333337</ele><time>2026-04-30T13:05:45.654Z</time></trkpt><trkpt lat="34.3993061" lon="7.9621013"><ele>359.5</ele><time>2026-04-30T13:05:46.647Z</time></trkpt><trkpt lat="34.3993155" lon="7.962023"><ele>359.6666666666667</ele><time>2026-04-30T13:05:47.654Z</time></trkpt><trkpt lat="34.3993349" lon="7.961875"><ele>359.8333333333333</ele><time>2026-04-30T13:05:49.603Z</time></trkpt><trkpt lat="34.399364" lon="7.9617952"><ele>360.0</ele><time>2026-04-30T13:05:50.647Z</time></trkpt><trkpt lat="34.3994088" lon="7.961714"><ele>360.0</ele><time>2026-04-30T13:05:51.637Z</time></trkpt><trkpt lat="34.3994734" lon="7.9616408"><ele>360.0</ele><time>2026-04-30T13:05:52.614Z</time></trkpt><trkpt lat="34.3995375" lon="7.9615713"><ele>360.0</ele><time>2026-04-30T13:05:53.628Z</time></trkpt><trkpt lat="34.3995854" lon="7.9615109"><ele>360.0</ele><time>2026-04-30T13:05:54.641Z</time></trkpt><trkpt lat="34.3996091" lon="7.9614346"><ele>360.0</ele><time>2026-04-30T13:05:55.642Z</time></trkpt><trkpt lat="34.3996236" lon="7.9613538"><ele>360.0</ele><time>2026-04-30T13:05:56.633Z</time></trkpt><trkpt lat="34.3996276" lon="7.9612507"><ele>360.0</ele><time>2026-04-30T13:05:57.623Z</time></trkpt><trkpt lat="34.3996197" lon="7.9611243"><ele>360.0</ele><time>2026-04-30T13:05:58.646Z</time></trkpt><trkpt lat="34.3996009" lon="7.9609691"><ele>360.0</ele><time>2026-04-30T13:05:59.638Z</time></trkpt><trkpt lat="34.399582" lon="7.960772"><ele>360.0</ele><time>2026-04-30T13:06:00.632Z</time></trkpt><trkpt lat="34.3995905" lon="7.960536"><ele>360.0</ele><time>2026-04-30T13:06:01.645Z</time></trkpt><trkpt lat="34.3996392" lon="7.9602775"><ele>360.0</ele><time>2026-04-30T13:06:02.596Z</time></trkpt><trkpt lat="34.3997128" lon="7.960024"><ele>360.0</ele><time>2026-04-30T13:06:03.634Z</time></trkpt><trkpt lat="34.3997932" lon="7.9597769"><ele>359.6666666666667</ele><time>2026-04-30T13:06:04.634Z</time></trkpt><trkpt lat="34.3998812" lon="7.9595335"><ele>359.33333333333337</ele><time>2026-04-30T13:06:05.629Z</time></trkpt><trkpt lat="34.3999683" lon="7.9592867"><ele>359.0</ele><time>2026-04-30T13:06:06.602Z</time></trkpt><trkpt lat="34.4000604" lon="7.9590455"><ele>359.0</ele><time>2026-04-30T13:06:07.641Z</time></trkpt><trkpt lat="34.400147" lon="7.9588163"><ele>359.0</ele><time>2026-04-30T13:06:08.635Z</time></trkpt><trkpt lat="34.4002297" lon="7.9585987"><ele>359.0</ele><time>2026-04-30T13:06:09.627Z</time></trkpt><trkpt lat="34.4003153" lon="7.9583824"><ele>359.6666666666667</ele><time>2026-04-30T13:06:10.63Z</time></trkpt><trkpt lat="34.4004007" lon="7.9581648"><ele>360.3333333333333</ele><time>2026-04-30T13:06:11.637Z</time></trkpt><trkpt lat="34.4004886" lon="7.9579462"><ele>361.0</ele><time>2026-04-30T13:06:12.647Z</time></trkpt><trkpt lat="34.4005783" lon="7.9577256"><ele>359.3333333333333</ele><time>2026-04-30T13:06:13.645Z</time></trkpt><trkpt lat="34.4006686" lon="7.957504"><ele>357.6666666666667</ele><time>2026-04-30T13:06:14.634Z</time></trkpt><trkpt lat="34.4007634" lon="7.9572859"><ele>356.0</ele><time>2026-04-30T13:06:15.643Z</time></trkpt><trkpt lat="34.4008565" lon="7.957072"><ele>356.0</ele><time>2026-04-30T13:06:16.638Z</time></trkpt><trkpt lat="34.4009505" lon="7.9568575"><ele>356.0</ele><time>2026-04-30T13:06:17.643Z</time></trkpt><trkpt lat="34.4010453" lon="7.9566399"><ele>356.0</ele><time>2026-04-30T13:06:18.627Z</time></trkpt><trkpt lat="34.4011414" lon="7.9564215"><ele>355.33333333333337</ele><time>2026-04-30T13:06:19.597Z</time></trkpt><trkpt lat="34.4012362" lon="7.9562022"><ele>354.6666666666667</ele><time>2026-04-30T13:06:20.653Z</time></trkpt><trkpt lat="34.4013335" lon="7.9559808"><ele>354.0</ele><time>2026-04-30T13:06:21.645Z</time></trkpt><trkpt lat="34.4014311" lon="7.9557586"><ele>352.3333333333333</ele><time>2026-04-30T13:06:22.653Z</time></trkpt><trkpt lat="34.4015299" lon="7.9555377"><ele>350.66666666666663</ele><time>2026-04-30T13:06:23.638Z</time></trkpt><trkpt lat="34.40163" lon="7.9553176"><ele>349.0</ele><time>2026-04-30T13:06:24.625Z</time></trkpt><trkpt lat="34.4017331" lon="7.9551035"><ele>348.3333333333333</ele><time>2026-04-30T13:06:25.656Z</time></trkpt><trkpt lat="34.4018412" lon="7.9548859"><ele>347.6666666666667</ele><time>2026-04-30T13:06:26.632Z</time></trkpt><trkpt lat="34.4019501" lon="7.9546861"><ele>347.0</ele><time>2026-04-30T13:06:27.629Z</time></trkpt><trkpt lat="34.402068" lon="7.9544908"><ele>346.33333333333337</ele><time>2026-04-30T13:06:28.638Z</time></trkpt><trkpt lat="34.4021934" lon="7.9542939"><ele>345.6666666666667</ele><time>2026-04-30T13:06:29.627Z</time></trkpt><trkpt lat="34.4023224" lon="7.954092"><ele>345.0</ele><time>2026-04-30T13:06:30.626Z</time></trkpt><trkpt lat="34.4024593" lon="7.9538797"><ele>345.0</ele><time>2026-04-30T13:06:31.639Z</time></trkpt><trkpt lat="34.4026112" lon="7.9536577"><ele>345.0</ele><time>2026-04-30T13:06:32.601Z</time></trkpt><trkpt lat="34.4027833" lon="7.9534255"><ele>344.5</ele><time>2026-04-30T13:06:33.644Z</time></trkpt><trkpt lat="34.4029649" lon="7.9531898"><ele>344.0</ele><time>2026-04-30T13:06:34.632Z</time></trkpt><trkpt lat="34.4031484" lon="7.9529538"><ele>341.0</ele><time>2026-04-30T13:06:35.646Z</time></trkpt><trkpt lat="34.4033266" lon="7.9527221"><ele>338.0</ele><time>2026-04-30T13:06:36.659Z</time></trkpt><trkpt lat="34.4034938" lon="7.9524902"><ele>337.5</ele><time>2026-04-30T13:06:37.634Z</time></trkpt><trkpt lat="34.4036571" lon="7.9522658"><ele>337.0</ele><time>2026-04-30T13:06:38.614Z</time></trkpt><trkpt lat="34.4038172" lon="7.9520526"><ele>336.0</ele><time>2026-04-30T13:06:39.603Z</time></trkpt><trkpt lat="34.4039698" lon="7.9518461"><ele>335.0</ele><time>2026-04-30T13:06:40.656Z</time></trkpt><trkpt lat="34.4041191" lon="7.9516479"><ele>335.0</ele><time>2026-04-30T13:06:41.657Z</time></trkpt><trkpt lat="34.4042597" lon="7.9514543"><ele>335.0</ele><time>2026-04-30T13:06:42.635Z</time></trkpt><trkpt lat="34.4043987" lon="7.9512686"><ele>335.0</ele><time>2026-04-30T13:06:43.66Z</time></trkpt><trkpt lat="34.4045359" lon="7.951084"><ele>335.0</ele><time>2026-04-30T13:06:44.635Z</time></trkpt><trkpt lat="34.4046715" lon="7.9508999"><ele>335.0</ele><time>2026-04-30T13:06:45.632Z</time></trkpt><trkpt lat="34.4048029" lon="7.9507202"><ele>335.0</ele><time>2026-04-30T13:06:46.644Z</time></trkpt><trkpt lat="34.4049293" lon="7.9505467"><ele>334.6666666666667</ele><time>2026-04-30T13:06:47.602Z</time></trkpt><trkpt lat="34.4050508" lon="7.9503806"><ele>334.3333333333333</ele><time>2026-04-30T13:06:48.638Z</time></trkpt><trkpt lat="34.4051731" lon="7.950222"><ele>334.0</ele><time>2026-04-30T13:06:49.631Z</time></trkpt><trkpt lat="34.4052934" lon="7.9500681"><ele>335.0</ele><time>2026-04-30T13:06:50.65Z</time></trkpt><trkpt lat="34.4054101" lon="7.949911"><ele>336.0</ele><time>2026-04-30T13:06:51.652Z</time></trkpt><trkpt lat="34.405525" lon="7.9497531"><ele>337.0</ele><time>2026-04-30T13:06:52.646Z</time></trkpt><trkpt lat="34.4056434" lon="7.9495927"><ele>337.3333333333333</ele><time>2026-04-30T13:06:53.646Z</time></trkpt><trkpt lat="34.4057592" lon="7.9494354"><ele>337.6666666666667</ele><time>2026-04-30T13:06:54.619Z</time></trkpt><trkpt lat="34.4058652" lon="7.9492822"><ele>338.0</ele><time>2026-04-30T13:06:55.623Z</time></trkpt><trkpt lat="34.4059765" lon="7.9491164"><ele>338.0</ele><time>2026-04-30T13:06:56.641Z</time></trkpt><trkpt lat="34.4060799" lon="7.9489531"><ele>338.0</ele><time>2026-04-30T13:06:57.646Z</time></trkpt><trkpt lat="34.4061752" lon="7.9487823"><ele>338.0</ele><time>2026-04-30T13:06:58.641Z</time></trkpt><trkpt lat="34.4062599" lon="7.9485994"><ele>340.0</ele><time>2026-04-30T13:06:59.636Z</time></trkpt><trkpt lat="34.4063302" lon="7.9484102"><ele>342.0</ele><time>2026-04-30T13:07:00.638Z</time></trkpt><trkpt lat="34.4063831" lon="7.9482053"><ele>344.0</ele><time>2026-04-30T13:07:01.61Z</time></trkpt><trkpt lat="34.4064171" lon="7.9479906"><ele>345.0</ele><time>2026-04-30T13:07:02.632Z</time></trkpt><trkpt lat="34.4064325" lon="7.947785"><ele>346.0</ele><time>2026-04-30T13:07:03.635Z</time></trkpt><trkpt lat="34.4064421" lon="7.9475809"><ele>347.0</ele><time>2026-04-30T13:07:04.615Z</time></trkpt><trkpt lat="34.4064583" lon="7.9473817"><ele>349.0</ele><time>2026-04-30T13:07:05.634Z</time></trkpt><trkpt lat="34.4064819" lon="7.9471775"><ele>351.0</ele><time>2026-04-30T13:07:06.628Z</time></trkpt><trkpt lat="34.4065186" lon="7.946996"><ele>353.0</ele><time>2026-04-30T13:07:07.638Z</time></trkpt><trkpt lat="34.4065609" lon="7.9468101"><ele>354.6666666666667</ele><time>2026-04-30T13:07:08.651Z</time></trkpt><trkpt lat="34.4065998" lon="7.9466257"><ele>356.3333333333333</ele><time>2026-04-30T13:07:09.629Z</time></trkpt><trkpt lat="34.4066295" lon="7.9464421"><ele>358.0</ele><time>2026-04-30T13:07:10.605Z</time></trkpt><trkpt lat="34.4066283" lon="7.9462537"><ele>358.0</ele><time>2026-04-30T13:07:11.573Z</time></trkpt><trkpt lat="34.406599" lon="7.9460644"><ele>358.0</ele><time>2026-04-30T13:07:12.629Z</time></trkpt><trkpt lat="34.4065368" lon="7.9458751"><ele>358.0</ele><time>2026-04-30T13:07:13.626Z</time></trkpt><trkpt lat="34.4064676" lon="7.9456997"><ele>359.3333333333333</ele><time>2026-04-30T13:07:14.639Z</time></trkpt><trkpt lat="34.4063994" lon="7.9455147"><ele>360.6666666666667</ele><time>2026-04-30T13:07:15.586Z</time></trkpt><trkpt lat="34.4063508" lon="7.9453282"><ele>362.0</ele><time>2026-04-30T13:07:16.608Z</time></trkpt><trkpt lat="34.4063187" lon="7.9451384"><ele>362.0</ele><time>2026-04-30T13:07:17.631Z</time></trkpt><trkpt lat="34.4063119" lon="7.9449453"><ele>362.0</ele><time>2026-04-30T13:07:18.618Z</time></trkpt><trkpt lat="34.4063412" lon="7.9447545"><ele>362.0</ele><time>2026-04-30T13:07:19.626Z</time></trkpt><trkpt lat="34.4063854" lon="7.944562"><ele>361.6666666666667</ele><time>2026-04-30T13:07:20.628Z</time></trkpt><trkpt lat="34.4064563" lon="7.9443755"><ele>361.3333333333333</ele><time>2026-04-30T13:07:21.611Z</time></trkpt><trkpt lat="34.4065284" lon="7.9441921"><ele>361.0</ele><time>2026-04-30T13:07:22.634Z</time></trkpt><trkpt lat="34.406601" lon="7.9440127"><ele>359.66666666666663</ele><time>2026-04-30T13:07:23.658Z</time></trkpt><trkpt lat="34.4066705" lon="7.9438326"><ele>358.3333333333333</ele><time>2026-04-30T13:07:24.659Z</time></trkpt><trkpt lat="34.4067201" lon="7.9436483"><ele>357.0</ele><time>2026-04-30T13:07:25.636Z</time></trkpt><trkpt lat="34.40676" lon="7.9434713"><ele>357.0</ele><time>2026-04-30T13:07:26.635Z</time></trkpt><trkpt lat="34.4068047" lon="7.943294"><ele>357.0</ele><time>2026-04-30T13:07:27.629Z</time></trkpt><trkpt lat="34.4068501" lon="7.9431229"><ele>357.0</ele><time>2026-04-30T13:07:28.634Z</time></trkpt><trkpt lat="34.4069101" lon="7.9429508"><ele>357.0</ele><time>2026-04-30T13:07:29.602Z</time></trkpt><trkpt lat="34.4069839" lon="7.9427924"><ele>357.0</ele><time>2026-04-30T13:07:30.646Z</time></trkpt><trkpt lat="34.4070889" lon="7.9426479"><ele>357.0</ele><time>2026-04-30T13:07:31.637Z</time></trkpt><trkpt lat="34.4072147" lon="7.9425341"><ele>359.0</ele><time>2026-04-30T13:07:32.645Z</time></trkpt><trkpt lat="34.4073552" lon="7.9424256"><ele>361.0</ele><time>2026-04-30T13:07:33.639Z</time></trkpt><trkpt lat="34.4074936" lon="7.9423248"><ele>363.0</ele><time>2026-04-30T13:07:34.636Z</time></trkpt><trkpt lat="34.4076397" lon="7.9422197"><ele>363.0</ele><time>2026-04-30T13:07:35.635Z</time></trkpt><trkpt lat="34.4077861" lon="7.9421173"><ele>363.0</ele><time>2026-04-30T13:07:36.633Z</time></trkpt><trkpt lat="34.4079359" lon="7.9420187"><ele>363.0</ele><time>2026-04-30T13:07:37.652Z</time></trkpt><trkpt lat="34.4080866" lon="7.9419288"><ele>365.0</ele><time>2026-04-30T13:07:38.636Z</time></trkpt><trkpt lat="34.408242" lon="7.9418514"><ele>367.0</ele><time>2026-04-30T13:07:39.641Z</time></trkpt><trkpt lat="34.4084013" lon="7.9417832"><ele>369.0</ele><time>2026-04-30T13:07:40.624Z</time></trkpt><trkpt lat="34.4085586" lon="7.9417258"><ele>369.6666666666667</ele><time>2026-04-30T13:07:41.653Z</time></trkpt><trkpt lat="34.4087215" lon="7.9416648"><ele>370.33333333333337</ele><time>2026-04-30T13:07:42.637Z</time></trkpt><trkpt lat="34.408884" lon="7.9416036"><ele>371.0</ele><time>2026-04-30T13:07:43.644Z</time></trkpt><trkpt lat="34.4090473" lon="7.9415368"><ele>371.0</ele><time>2026-04-30T13:07:44.667Z</time></trkpt><trkpt lat="34.409212" lon="7.9414622"><ele>371.0</ele><time>2026-04-30T13:07:45.651Z</time></trkpt><trkpt lat="34.4093704" lon="7.9413731"><ele>371.0</ele><time>2026-04-30T13:07:46.657Z</time></trkpt><trkpt lat="34.4095275" lon="7.941279"><ele>372.0</ele><time>2026-04-30T13:07:47.653Z</time></trkpt><trkpt lat="34.4096871" lon="7.9411675"><ele>373.0</ele><time>2026-04-30T13:07:48.64Z</time></trkpt><trkpt lat="34.4098393" lon="7.9410461"><ele>374.0</ele><time>2026-04-30T13:07:49.647Z</time></trkpt><trkpt lat="34.4099755" lon="7.9409115"><ele>373.33333333333337</ele><time>2026-04-30T13:07:50.641Z</time></trkpt><trkpt lat="34.4100975" lon="7.9407638"><ele>372.6666666666667</ele><time>2026-04-30T13:07:51.652Z</time></trkpt><trkpt lat="34.4102026" lon="7.9406147"><ele>372.0</ele><time>2026-04-30T13:07:52.579Z</time></trkpt><trkpt lat="34.410294" lon="7.9404587"><ele>372.0</ele><time>2026-04-30T13:07:53.662Z</time></trkpt><trkpt lat="34.4103752" lon="7.9402928"><ele>372.0</ele><time>2026-04-30T13:07:54.64Z</time></trkpt><trkpt lat="34.4104541" lon="7.9401212"><ele>372.0</ele><time>2026-04-30T13:07:55.653Z</time></trkpt><trkpt lat="34.4105288" lon="7.9399409"><ele>372.3333333333333</ele><time>2026-04-30T13:07:56.654Z</time></trkpt><trkpt lat="34.4105964" lon="7.9397536"><ele>372.66666666666663</ele><time>2026-04-30T13:07:57.62Z</time></trkpt><trkpt lat="34.4106492" lon="7.9395539"><ele>373.0</ele><time>2026-04-30T13:07:58.602Z</time></trkpt><trkpt lat="34.4106993" lon="7.9393446"><ele>371.66666666666663</ele><time>2026-04-30T13:07:59.63Z</time></trkpt><trkpt lat="34.4107479" lon="7.9391384"><ele>370.3333333333333</ele><time>2026-04-30T13:08:00.657Z</time></trkpt><trkpt lat="34.4107913" lon="7.9389334"><ele>369.0</ele><time>2026-04-30T13:08:01.643Z</time></trkpt><trkpt lat="34.4108373" lon="7.9387229"><ele>369.0</ele><time>2026-04-30T13:08:02.604Z</time></trkpt><trkpt lat="34.4108804" lon="7.9385172"><ele>369.0</ele><time>2026-04-30T13:08:03.636Z</time></trkpt><trkpt lat="34.410924" lon="7.9383085"><ele>369.0</ele><time>2026-04-30T13:08:04.63Z</time></trkpt><trkpt lat="34.4109629" lon="7.938099"><ele>368.6666666666667</ele><time>2026-04-30T13:08:05.638Z</time></trkpt><trkpt lat="34.4109981" lon="7.9378866"><ele>368.33333333333337</ele><time>2026-04-30T13:08:06.636Z</time></trkpt><trkpt lat="34.4110406" lon="7.9376793"><ele>368.0</ele><time>2026-04-30T13:08:07.649Z</time></trkpt><trkpt lat="34.4110866" lon="7.9374748"><ele>369.6666666666667</ele><time>2026-04-30T13:08:08.637Z</time></trkpt><trkpt lat="34.4111395" lon="7.9372761"><ele>371.3333333333333</ele><time>2026-04-30T13:08:09.613Z</time></trkpt><trkpt lat="34.4112032" lon="7.9370777"><ele>373.0</ele><time>2026-04-30T13:08:10.615Z</time></trkpt><trkpt lat="34.411282" lon="7.9368933"><ele>373.3333333333333</ele><time>2026-04-30T13:08:11.624Z</time></trkpt><trkpt lat="34.4113591" lon="7.9367317"><ele>373.6666666666667</ele><time>2026-04-30T13:08:12.635Z</time></trkpt><trkpt lat="34.4114411" lon="7.9365711"><ele>374.0</ele><time>2026-04-30T13:08:13.579Z</time></trkpt><trkpt lat="34.4115206" lon="7.936418"><ele>375.0</ele><time>2026-04-30T13:08:14.633Z</time></trkpt><trkpt lat="34.4116002" lon="7.93626"><ele>376.0</ele><time>2026-04-30T13:08:15.64Z</time></trkpt><trkpt lat="34.4116768" lon="7.9360971"><ele>377.0</ele><time>2026-04-30T13:08:16.644Z</time></trkpt><trkpt lat="34.4117513" lon="7.9359358"><ele>378.33333333333337</ele><time>2026-04-30T13:08:17.642Z</time></trkpt><trkpt lat="34.4118185" lon="7.9357495"><ele>379.6666666666667</ele><time>2026-04-30T13:08:18.622Z</time></trkpt><trkpt lat="34.4118751" lon="7.9355393"><ele>381.0</ele><time>2026-04-30T13:08:19.648Z</time></trkpt><trkpt lat="34.4119256" lon="7.9353181"><ele>381.0</ele><time>2026-04-30T13:08:20.635Z</time></trkpt><trkpt lat="34.4119548" lon="7.9350855"><ele>381.0</ele><time>2026-04-30T13:08:21.633Z</time></trkpt><trkpt lat="34.4119762" lon="7.9348509"><ele>381.0</ele><time>2026-04-30T13:08:22.65Z</time></trkpt><trkpt lat="34.4119886" lon="7.9346118"><ele>382.0</ele><time>2026-04-30T13:08:23.648Z</time></trkpt><trkpt lat="34.4119954" lon="7.9343688"><ele>383.0</ele><time>2026-04-30T13:08:24.635Z</time></trkpt><trkpt lat="34.4119965" lon="7.934136"><ele>384.0</ele><time>2026-04-30T13:08:25.656Z</time></trkpt><trkpt lat="34.4119968" lon="7.9339097"><ele>384.66666666666663</ele><time>2026-04-30T13:08:26.602Z</time></trkpt><trkpt lat="34.411993" lon="7.9336919"><ele>385.3333333333333</ele><time>2026-04-30T13:08:27.644Z</time></trkpt><trkpt lat="34.4119925" lon="7.93348"><ele>386.0</ele><time>2026-04-30T13:08:28.627Z</time></trkpt><trkpt lat="34.4119939" lon="7.9332766"><ele>387.0</ele><time>2026-04-30T13:08:29.599Z</time></trkpt><trkpt lat="34.4120007" lon="7.9330766"><ele>388.0</ele><time>2026-04-30T13:08:30.632Z</time></trkpt><trkpt lat="34.4120096" lon="7.9328731"><ele>389.0</ele><time>2026-04-30T13:08:31.633Z</time></trkpt><trkpt lat="34.4120198" lon="7.9326742"><ele>389.5</ele><time>2026-04-30T13:08:32.633Z</time></trkpt><trkpt lat="34.4120318" lon="7.9324875"><ele>390.0</ele><time>2026-04-30T13:08:33.626Z</time></trkpt><trkpt lat="34.4120418" lon="7.9323146"><ele>390.5</ele><time>2026-04-30T13:08:34.64Z</time></trkpt><trkpt lat="34.4120454" lon="7.9321497"><ele>391.0</ele><time>2026-04-30T13:08:35.646Z</time></trkpt><trkpt lat="34.4120501" lon="7.9319907"><ele>391.0</ele><time>2026-04-30T13:08:36.648Z</time></trkpt><trkpt lat="34.4120523" lon="7.9318264"><ele>391.0</ele><time>2026-04-30T13:08:37.629Z</time></trkpt><trkpt lat="34.4120509" lon="7.9316583"><ele>391.0</ele><time>2026-04-30T13:08:38.585Z</time></trkpt><trkpt lat="34.4120468" lon="7.9314879"><ele>391.0</ele><time>2026-04-30T13:08:39.643Z</time></trkpt><trkpt lat="34.4120441" lon="7.9313153"><ele>391.5</ele><time>2026-04-30T13:08:40.647Z</time></trkpt><trkpt lat="34.4120409" lon="7.9311424"><ele>392.0</ele><time>2026-04-30T13:08:41.649Z</time></trkpt><trkpt lat="34.4120382" lon="7.9309668"><ele>392.5</ele><time>2026-04-30T13:08:42.655Z</time></trkpt><trkpt lat="34.4120344" lon="7.9308047"><ele>393.0</ele><time>2026-04-30T13:08:43.636Z</time></trkpt><trkpt lat="34.4120304" lon="7.9306484"><ele>393.0</ele><time>2026-04-30T13:08:44.651Z</time></trkpt><trkpt lat="34.4120271" lon="7.9305001"><ele>393.0</ele><time>2026-04-30T13:08:45.609Z</time></trkpt><trkpt lat="34.4120227" lon="7.9303455"><ele>393.0</ele><time>2026-04-30T13:08:46.635Z</time></trkpt><trkpt lat="34.4120135" lon="7.9301819"><ele>393.0</ele><time>2026-04-30T13:08:47.642Z</time></trkpt><trkpt lat="34.4120046" lon="7.9300002"><ele>392.66666666666663</ele><time>2026-04-30T13:08:48.649Z</time></trkpt><trkpt lat="34.4119898" lon="7.9298037"><ele>392.3333333333333</ele><time>2026-04-30T13:08:49.635Z</time></trkpt><trkpt lat="34.4119585" lon="7.9295968"><ele>392.0</ele><time>2026-04-30T13:08:50.6Z</time></trkpt><trkpt lat="34.4119159" lon="7.9293853"><ele>391.0</ele><time>2026-04-30T13:08:51.649Z</time></trkpt><trkpt lat="34.4118632" lon="7.9291726"><ele>390.0</ele><time>2026-04-30T13:08:52.634Z</time></trkpt><trkpt lat="34.4118038" lon="7.9289681"><ele>389.0</ele><time>2026-04-30T13:08:53.645Z</time></trkpt><trkpt lat="34.4117438" lon="7.9287782"><ele>389.0</ele><time>2026-04-30T13:08:54.645Z</time></trkpt><trkpt lat="34.4116839" lon="7.9285922"><ele>389.0</ele><time>2026-04-30T13:08:55.639Z</time></trkpt><trkpt lat="34.4116242" lon="7.928406"><ele>389.0</ele><time>2026-04-30T13:08:56.582Z</time></trkpt><trkpt lat="34.4115643" lon="7.9282226"><ele>388.0</ele><time>2026-04-30T13:08:57.617Z</time></trkpt><trkpt lat="34.4115115" lon="7.928049"><ele>387.0</ele><time>2026-04-30T13:08:58.615Z</time></trkpt><trkpt lat="34.411464" lon="7.9278629"><ele>386.0</ele><time>2026-04-30T13:08:59.6Z</time></trkpt><trkpt lat="34.4114216" lon="7.9276777"><ele>385.3333333333333</ele><time>2026-04-30T13:09:00.63Z</time></trkpt><trkpt lat="34.4113845" lon="7.9274946"><ele>384.66666666666663</ele><time>2026-04-30T13:09:01.599Z</time></trkpt><trkpt lat="34.4113474" lon="7.927305"><ele>384.0</ele><time>2026-04-30T13:09:02.593Z</time></trkpt><trkpt lat="34.4113072" lon="7.9271083"><ele>384.0</ele><time>2026-04-30T13:09:03.635Z</time></trkpt><trkpt lat="34.4112701" lon="7.9269111"><ele>384.0</ele><time>2026-04-30T13:09:04.605Z</time></trkpt><trkpt lat="34.4112367" lon="7.9267066"><ele>384.0</ele><time>2026-04-30T13:09:05.659Z</time></trkpt><trkpt lat="34.4112043" lon="7.9265012"><ele>382.3333333333333</ele><time>2026-04-30T13:09:06.642Z</time></trkpt><trkpt lat="34.411174" lon="7.9263065"><ele>380.66666666666663</ele><time>2026-04-30T13:09:07.641Z</time></trkpt><trkpt lat="34.4111432" lon="7.926121"><ele>379.0</ele><time>2026-04-30T13:09:08.638Z</time></trkpt><trkpt lat="34.4111195" lon="7.9259446"><ele>378.25</ele><time>2026-04-30T13:09:09.672Z</time></trkpt><trkpt lat="34.4110991" lon="7.9257749"><ele>377.5</ele><time>2026-04-30T13:09:10.632Z</time></trkpt><trkpt lat="34.4110855" lon="7.9256054"><ele>376.75</ele><time>2026-04-30T13:09:11.627Z</time></trkpt><trkpt lat="34.4110693" lon="7.9254461"><ele>376.0</ele><time>2026-04-30T13:09:12.609Z</time></trkpt><trkpt lat="34.4110514" lon="7.9252978"><ele>376.0</ele><time>2026-04-30T13:09:13.624Z</time></trkpt><trkpt lat="34.4110377" lon="7.9251559"><ele>376.0</ele><time>2026-04-30T13:09:14.658Z</time></trkpt><trkpt lat="34.4110248" lon="7.9250355"><ele>376.0</ele><time>2026-04-30T13:09:15.652Z</time></trkpt><trkpt lat="34.411013" lon="7.9249256"><ele>376.0</ele><time>2026-04-30T13:09:16.648Z</time></trkpt><trkpt lat="34.4110053" lon="7.9248361"><ele>376.0</ele><time>2026-04-30T13:09:17.651Z</time></trkpt><trkpt lat="34.4109899" lon="7.9247174"><ele>375.8333333333333</ele><time>2026-04-30T13:09:19.637Z</time></trkpt><trkpt lat="34.4109833" lon="7.9246411"><ele>375.66666666666663</ele><time>2026-04-30T13:09:22.639Z</time></trkpt><trkpt lat="34.4109493" lon="7.9245381"><ele>375.5</ele><time>2026-04-30T13:09:49.621Z</time></trkpt><trkpt lat="34.4108838" lon="7.9245129"><ele>375.3333333333333</ele><time>2026-04-30T13:09:51.643Z</time></trkpt><trkpt lat="34.4107939" lon="7.9244844"><ele>375.1666666666667</ele><time>2026-04-30T13:09:53.636Z</time></trkpt><trkpt lat="34.4107064" lon="7.9244594"><ele>375.0</ele><time>2026-04-30T13:09:55.622Z</time></trkpt><trkpt lat="34.4106123" lon="7.9243975"><ele>375.0</ele><time>2026-04-30T13:09:57.65Z</time></trkpt><trkpt lat="34.4105049" lon="7.924335"><ele>375.0</ele><time>2026-04-30T13:09:59.655Z</time></trkpt><trkpt lat="34.4103979" lon="7.9243243"><ele>375.0</ele><time>2026-04-30T13:10:01.635Z</time></trkpt><trkpt lat="34.4103024" lon="7.9243646"><ele>375.0</ele><time>2026-04-30T13:10:03.639Z</time></trkpt><trkpt lat="34.4102194" lon="7.9244257"><ele>375.0</ele><time>2026-04-30T13:10:05.65Z</time></trkpt><trkpt lat="34.4101413" lon="7.9244976"><ele>375.6</ele><time>2026-04-30T13:10:07.647Z</time></trkpt><trkpt lat="34.4100678" lon="7.9245876"><ele>376.2</ele><time>2026-04-30T13:10:09.64Z</time></trkpt><trkpt lat="34.4099954" lon="7.9246706"><ele>376.79999999999995</ele><time>2026-04-30T13:10:11.623Z</time></trkpt><trkpt lat="34.4099131" lon="7.9247474"><ele>377.4</ele><time>2026-04-30T13:10:13.639Z</time></trkpt><trkpt lat="34.4098361" lon="7.9248168"><ele>378.0</ele><time>2026-04-30T13:10:15.637Z</time></trkpt><trkpt lat="34.409765" lon="7.9248917"><ele>378.0</ele><time>2026-04-30T13:10:17.648Z</time></trkpt><trkpt lat="34.4097035" lon="7.9249732"><ele>378.0</ele><time>2026-04-30T13:10:19.65Z</time></trkpt><trkpt lat="34.4096474" lon="7.9250538"><ele>378.0</ele><time>2026-04-30T13:10:21.631Z</time></trkpt><trkpt lat="34.4095617" lon="7.9251756"><ele>378.0</ele><time>2026-04-30T13:10:23.569Z</time></trkpt><trkpt lat="34.4094754" lon="7.9252618"><ele>378.0</ele><time>2026-04-30T13:10:25.627Z</time></trkpt><trkpt lat="34.4094022" lon="7.9253233"><ele>379.0</ele><time>2026-04-30T13:10:27.624Z</time></trkpt><trkpt lat="34.4093275" lon="7.9253665"><ele>380.0</ele><time>2026-04-30T13:10:29.638Z</time></trkpt><trkpt lat="34.4092564" lon="7.9253883"><ele>381.0</ele><time>2026-04-30T13:10:31.659Z</time></trkpt><trkpt lat="34.4091855" lon="7.925408"><ele>382.0</ele><time>2026-04-30T13:10:33.63Z</time></trkpt><trkpt lat="34.4090997" lon="7.9254055"><ele>383.0</ele><time>2026-04-30T13:10:36.641Z</time></trkpt><trkpt lat="34.4090367" lon="7.9254283"><ele>384.0</ele><time>2026-04-30T13:10:38.598Z</time></trkpt><trkpt lat="34.4089466" lon="7.925473"><ele>383.99999999999994</ele><time>2026-04-30T13:10:41.629Z</time></trkpt><trkpt lat="34.4088841" lon="7.9254931"><ele>384.0</ele><time>2026-04-30T13:10:43.619Z</time></trkpt><trkpt lat="34.4088112" lon="7.9254971"><ele>384.0</ele><time>2026-04-30T13:10:46.65Z</time></trkpt><trkpt lat="34.4087407" lon="7.9254885"><ele>384.0</ele><time>2026-04-30T13:10:49.635Z</time></trkpt><trkpt lat="34.408678" lon="7.9254647"><ele>384.0</ele><time>2026-04-30T13:10:51.641Z</time></trkpt><trkpt lat="34.4085992" lon="7.9254164"><ele>383.99999999999994</ele><time>2026-04-30T13:10:53.649Z</time></trkpt><trkpt lat="34.4085245" lon="7.9253827"><ele>384.0</ele><time>2026-04-30T13:10:55.633Z</time></trkpt><trkpt lat="34.4084655" lon="7.9253443"><ele>382.6666666666667</ele><time>2026-04-30T13:10:57.639Z</time></trkpt><trkpt lat="34.4083985" lon="7.9252927"><ele>381.3333333333333</ele><time>2026-04-30T13:10:59.642Z</time></trkpt><trkpt lat="34.4083404" lon="7.9252262"><ele>380.0</ele><time>2026-04-30T13:11:01.595Z</time></trkpt><trkpt lat="34.4082858" lon="7.9251459"><ele>378.66666666666663</ele><time>2026-04-30T13:11:03.646Z</time></trkpt><trkpt lat="34.4082209" lon="7.9250935"><ele>377.3333333333333</ele><time>2026-04-30T13:11:05.64Z</time></trkpt><trkpt lat="34.4081551" lon="7.925049"><ele>376.0</ele><time>2026-04-30T13:11:07.624Z</time></trkpt><trkpt lat="34.4080928" lon="7.9250058"><ele>374.66666666666663</ele><time>2026-04-30T13:11:09.64Z</time></trkpt><trkpt lat="34.4080189" lon="7.9249352"><ele>373.3333333333333</ele><time>2026-04-30T13:11:12.647Z</time></trkpt><trkpt lat="34.4079671" lon="7.9248874"><ele>372.0</ele><time>2026-04-30T13:11:14.618Z</time></trkpt><trkpt lat="34.4078901" lon="7.9248292"><ele>370.6666666666667</ele><time>2026-04-30T13:11:17.649Z</time></trkpt><trkpt lat="34.4078004" lon="7.9247848"><ele>369.33333333333337</ele><time>2026-04-30T13:11:19.634Z</time></trkpt><trkpt lat="34.4077245" lon="7.9247595"><ele>368.0</ele><time>2026-04-30T13:11:21.645Z</time></trkpt><trkpt lat="34.4076338" lon="7.9247533"><ele>368.0</ele><time>2026-04-30T13:11:23.633Z</time></trkpt><trkpt lat="34.407544" lon="7.9247476"><ele>368.0</ele><time>2026-04-30T13:11:25.578Z</time></trkpt><trkpt lat="34.4074733" lon="7.9247641"><ele>368.0</ele><time>2026-04-30T13:11:27.644Z</time></trkpt><trkpt lat="34.4073817" lon="7.9247895"><ele>368.0</ele><time>2026-04-30T13:13:57.633Z</time></trkpt><trkpt lat="34.4072981" lon="7.9248155"><ele>368.0</ele><time>2026-04-30T13:13:59.639Z</time></trkpt><trkpt lat="34.4072166" lon="7.9248441"><ele>368.0</ele><time>2026-04-30T13:14:01.628Z</time></trkpt><trkpt lat="34.4071457" lon="7.9248439"><ele>368.83333333333337</ele><time>2026-04-30T13:14:03.64Z</time></trkpt><trkpt lat="34.407074" lon="7.9247978"><ele>369.6666666666667</ele><time>2026-04-30T13:14:05.626Z</time></trkpt><trkpt lat="34.4070263" lon="7.9247441"><ele>370.5</ele><time>2026-04-30T13:14:07.669Z</time></trkpt><trkpt lat="34.4069681" lon="7.9246916"><ele>371.3333333333333</ele><time>2026-04-30T13:14:09.66Z</time></trkpt><trkpt lat="34.4069109" lon="7.9246357"><ele>372.16666666666663</ele><time>2026-04-30T13:14:11.568Z</time></trkpt><trkpt lat="34.406843" lon="7.9245661"><ele>373.0</ele><time>2026-04-30T13:14:13.606Z</time></trkpt><trkpt lat="34.4067784" lon="7.9244798"><ele>373.0</ele><time>2026-04-30T13:14:15.646Z</time></trkpt><trkpt lat="34.4067145" lon="7.9243922"><ele>373.0</ele><time>2026-04-30T13:14:17.629Z</time></trkpt><trkpt lat="34.4066627" lon="7.9243074"><ele>373.0</ele><time>2026-04-30T13:14:19.63Z</time></trkpt><trkpt lat="34.4066318" lon="7.9242163"><ele>373.0</ele><time>2026-04-30T13:14:21.603Z</time></trkpt><trkpt lat="34.406596" lon="7.9241284"><ele>373.0</ele><time>2026-04-30T13:14:23.642Z</time></trkpt><trkpt lat="34.4065549" lon="7.9240499"><ele>373.0</ele><time>2026-04-30T13:14:25.603Z</time></trkpt><trkpt lat="34.4064961" lon="7.9239944"><ele>373.16666666666663</ele><time>2026-04-30T13:14:27.627Z</time></trkpt><trkpt lat="34.4064164" lon="7.9239721"><ele>373.3333333333333</ele><time>2026-04-30T13:14:29.632Z</time></trkpt><trkpt lat="34.4063352" lon="7.9239586"><ele>373.5</ele><time>2026-04-30T13:14:31.61Z</time></trkpt><trkpt lat="34.4062663" lon="7.9239621"><ele>373.6666666666667</ele><time>2026-04-30T13:14:33.641Z</time></trkpt><trkpt lat="34.4061775" lon="7.9239871"><ele>373.83333333333337</ele><time>2026-04-30T13:14:35.652Z</time></trkpt><trkpt lat="34.4061095" lon="7.9240003"><ele>374.0</ele><time>2026-04-30T13:14:37.655Z</time></trkpt><trkpt lat="34.4060337" lon="7.9239584"><ele>374.0</ele><time>2026-04-30T13:14:40.622Z</time></trkpt><trkpt lat="34.4059835" lon="7.9239053"><ele>374.0</ele><time>2026-04-30T13:14:42.599Z</time></trkpt><trkpt lat="34.4059309" lon="7.9238605"><ele>374.0</ele><time>2026-04-30T13:14:44.614Z</time></trkpt><trkpt lat="34.4058719" lon="7.9238128"><ele>374.0</ele><time>2026-04-30T13:14:47.632Z</time></trkpt><trkpt lat="34.4058058" lon="7.9237851"><ele>374.0</ele><time>2026-04-30T13:14:50.623Z</time></trkpt><trkpt lat="34.4057393" lon="7.9238136"><ele>374.0</ele><time>2026-04-30T13:14:53.627Z</time></trkpt><trkpt lat="34.4057162" lon="7.9238969"><ele>374.0</ele><time>2026-04-30T13:14:56.627Z</time></trkpt><trkpt lat="34.405774" lon="7.9239355"><ele>374.0</ele><time>2026-04-30T13:15:00.622Z</time></trkpt><trkpt lat="34.4058491" lon="7.923885"><ele>374.0</ele><time>2026-04-30T13:25:27.574Z</time></trkpt><trkpt lat="34.4059297" lon="7.9238735"><ele>374.0</ele><time>2026-04-30T13:25:30.579Z</time></trkpt><trkpt lat="34.4060029" lon="7.9239183"><ele>374.0</ele><time>2026-04-30T13:25:33.617Z</time></trkpt><trkpt lat="34.4060638" lon="7.9239825"><ele>374.0</ele><time>2026-04-30T13:25:36.582Z</time></trkpt><trkpt lat="34.4061267" lon="7.9239871"><ele>374.0</ele><time>2026-04-30T13:25:39.647Z</time></trkpt><trkpt lat="34.4061867" lon="7.9239623"><ele>374.0</ele><time>2026-04-30T13:25:42.64Z</time></trkpt><trkpt lat="34.406253" lon="7.9239323"><ele>374.0</ele><time>2026-04-30T13:25:45.638Z</time></trkpt><trkpt lat="34.4063383" lon="7.9239312"><ele>374.0</ele><time>2026-04-30T13:25:48.641Z</time></trkpt><trkpt lat="34.4063991" lon="7.9239682"><ele>374.0</ele><time>2026-04-30T13:25:51.616Z</time></trkpt><trkpt lat="34.4064606" lon="7.9240009"><ele>374.0</ele><time>2026-04-30T13:25:54.608Z</time></trkpt><trkpt lat="34.4065279" lon="7.9240445"><ele>374.0</ele><time>2026-04-30T13:26:07.61Z</time></trkpt><trkpt lat="34.4065821" lon="7.9241251"><ele>373.83333333333337</ele><time>2026-04-30T13:26:10.638Z</time></trkpt><trkpt lat="34.4066181" lon="7.9242047"><ele>373.6666666666667</ele><time>2026-04-30T13:26:12.634Z</time></trkpt><trkpt lat="34.4066447" lon="7.9242821"><ele>373.5</ele><time>2026-04-30T13:26:14.647Z</time></trkpt><trkpt lat="34.4066927" lon="7.9243831"><ele>373.3333333333333</ele><time>2026-04-30T13:26:17.634Z</time></trkpt><trkpt lat="34.4067422" lon="7.9244378"><ele>373.16666666666663</ele><time>2026-04-30T13:26:19.593Z</time></trkpt><trkpt lat="34.4067916" lon="7.9245186"><ele>373.0</ele><time>2026-04-30T13:26:22.635Z</time></trkpt><trkpt lat="34.4068475" lon="7.924577"><ele>373.0</ele><time>2026-04-30T13:26:43.588Z</time></trkpt><trkpt lat="34.4068999" lon="7.9246347"><ele>373.0</ele><time>2026-04-30T13:26:45.581Z</time></trkpt><trkpt lat="34.4069544" lon="7.9246792"><ele>373.0</ele><time>2026-04-30T13:26:47.644Z</time></trkpt><trkpt lat="34.4070087" lon="7.9247289"><ele>373.0</ele><time>2026-04-30T13:26:49.635Z</time></trkpt><trkpt lat="34.4070592" lon="7.924777"><ele>373.0</ele><time>2026-04-30T13:26:51.579Z</time></trkpt><trkpt lat="34.4071389" lon="7.9248375"><ele>373.0</ele><time>2026-04-30T13:26:54.628Z</time></trkpt><trkpt lat="34.4072101" lon="7.9248353"><ele>373.0</ele><time>2026-04-30T13:26:56.572Z</time></trkpt><trkpt lat="34.4072709" lon="7.9248102"><ele>372.16666666666663</ele><time>2026-04-30T13:26:58.557Z</time></trkpt><trkpt lat="34.407356" lon="7.9247859"><ele>371.3333333333333</ele><time>2026-04-30T13:27:01.616Z</time></trkpt><trkpt lat="34.407418" lon="7.924769"><ele>370.5</ele><time>2026-04-30T13:27:03.59Z</time></trkpt><trkpt lat="34.4075028" lon="7.924761"><ele>369.6666666666667</ele><time>2026-04-30T13:27:06.621Z</time></trkpt><trkpt lat="34.4075742" lon="7.924744"><ele>368.83333333333337</ele><time>2026-04-30T13:27:09.61Z</time></trkpt><trkpt lat="34.4076543" lon="7.9247474"><ele>368.0</ele><time>2026-04-30T13:27:12.626Z</time></trkpt><trkpt lat="34.4077431" lon="7.9247578"><ele>368.0</ele><time>2026-04-30T13:27:44.616Z</time></trkpt><trkpt lat="34.4078313" lon="7.9247941"><ele>368.0</ele><time>2026-04-30T13:27:47.593Z</time></trkpt><trkpt lat="34.4078899" lon="7.9248364"><ele>368.0</ele><time>2026-04-30T13:27:49.587Z</time></trkpt><trkpt lat="34.4079766" lon="7.9248885"><ele>368.0</ele><time>2026-04-30T13:27:51.618Z</time></trkpt><trkpt lat="34.4080461" lon="7.924949"><ele>368.0</ele><time>2026-04-30T13:27:53.633Z</time></trkpt><trkpt lat="34.4080917" lon="7.9250103"><ele>368.0</ele><time>2026-04-30T13:27:56.628Z</time></trkpt><trkpt lat="34.4081754" lon="7.9250612"><ele>369.59999999999997</ele><time>2026-04-30T13:28:20.621Z</time></trkpt><trkpt lat="34.4082435" lon="7.9251158"><ele>371.2</ele><time>2026-04-30T13:28:22.603Z</time></trkpt><trkpt lat="34.4083193" lon="7.9251945"><ele>372.8</ele><time>2026-04-30T13:28:24.604Z</time></trkpt><trkpt lat="34.4083791" lon="7.9252726"><ele>374.4</ele><time>2026-04-30T13:28:26.63Z</time></trkpt><trkpt lat="34.4084502" lon="7.9253412"><ele>376.0</ele><time>2026-04-30T13:28:28.635Z</time></trkpt><trkpt lat="34.4085333" lon="7.9253942"><ele>376.0</ele><time>2026-04-30T13:28:30.624Z</time></trkpt><trkpt lat="34.4086229" lon="7.925437"><ele>376.0</ele><time>2026-04-30T13:28:32.618Z</time></trkpt><trkpt lat="34.4087134" lon="7.9254807"><ele>376.0</ele><time>2026-04-30T13:28:34.615Z</time></trkpt><trkpt lat="34.4087955" lon="7.9254944"><ele>376.0</ele><time>2026-04-30T13:28:36.611Z</time></trkpt><trkpt lat="34.4088852" lon="7.9254845"><ele>376.0</ele><time>2026-04-30T13:28:38.601Z</time></trkpt><trkpt lat="34.408976" lon="7.9254518"><ele>377.1428571428571</ele><time>2026-04-30T13:28:40.599Z</time></trkpt><trkpt lat="34.4090571" lon="7.9254205"><ele>378.2857142857143</ele><time>2026-04-30T13:28:42.614Z</time></trkpt><trkpt lat="34.4091323" lon="7.9254075"><ele>379.42857142857144</ele><time>2026-04-30T13:28:44.622Z</time></trkpt><trkpt lat="34.4091996" lon="7.9254125"><ele>380.57142857142856</ele><time>2026-04-30T13:28:46.615Z</time></trkpt><trkpt lat="34.4092607" lon="7.9253759"><ele>381.7142857142857</ele><time>2026-04-30T13:30:23.64Z</time></trkpt><trkpt lat="34.4093357" lon="7.9253404"><ele>382.85714285714283</ele><time>2026-04-30T13:30:26.633Z</time></trkpt><trkpt lat="34.4093916" lon="7.9252959"><ele>384.0</ele><time>2026-04-30T13:30:28.639Z</time></trkpt><trkpt lat="34.4094395" lon="7.92524"><ele>383.99999999999994</ele><time>2026-04-30T13:30:30.612Z</time></trkpt><trkpt lat="34.4094926" lon="7.9251908"><ele>384.0</ele><time>2026-04-30T13:30:32.632Z</time></trkpt><trkpt lat="34.409549" lon="7.9251423"><ele>384.0</ele><time>2026-04-30T13:30:34.627Z</time></trkpt><trkpt lat="34.4096039" lon="7.9250838"><ele>384.0</ele><time>2026-04-30T13:30:36.612Z</time></trkpt><trkpt lat="34.4096505" lon="7.9250154"><ele>384.0</ele><time>2026-04-30T13:30:38.572Z</time></trkpt><trkpt lat="34.4096966" lon="7.9249494"><ele>383.99999999999994</ele><time>2026-04-30T13:30:40.608Z</time></trkpt><trkpt lat="34.4097395" lon="7.9248914"><ele>384.0</ele><time>2026-04-30T13:30:42.611Z</time></trkpt><trkpt lat="34.4097905" lon="7.9248343"><ele>383.0</ele><time>2026-04-30T13:30:44.609Z</time></trkpt><trkpt lat="34.4098473" lon="7.9247799"><ele>382.0</ele><time>2026-04-30T13:30:46.585Z</time></trkpt><trkpt lat="34.4099218" lon="7.9247294"><ele>381.0</ele><time>2026-04-30T13:30:48.594Z</time></trkpt><trkpt lat="34.4099766" lon="7.9246748"><ele>380.0</ele><time>2026-04-30T13:30:50.639Z</time></trkpt><trkpt lat="34.4100206" lon="7.9246173"><ele>379.0</ele><time>2026-04-30T13:30:52.58Z</time></trkpt><trkpt lat="34.4100819" lon="7.924536"><ele>378.0</ele><time>2026-04-30T13:30:55.579Z</time></trkpt><trkpt lat="34.4101417" lon="7.924476"><ele>378.0</ele><time>2026-04-30T13:30:57.565Z</time></trkpt><trkpt lat="34.4102105" lon="7.924422"><ele>378.0</ele><time>2026-04-30T13:30:59.636Z</time></trkpt><trkpt lat="34.4102822" lon="7.9243816"><ele>378.0</ele><time>2026-04-30T13:31:01.644Z</time></trkpt><trkpt lat="34.410355" lon="7.9243417"><ele>378.0</ele><time>2026-04-30T13:31:03.627Z</time></trkpt><trkpt lat="34.410426" lon="7.9243179"><ele>378.0</ele><time>2026-04-30T13:31:05.59Z</time></trkpt><trkpt lat="34.4105011" lon="7.9243233"><ele>378.0</ele><time>2026-04-30T13:31:07.608Z</time></trkpt><trkpt lat="34.4105709" lon="7.924372"><ele>377.5</ele><time>2026-04-30T13:31:09.623Z</time></trkpt><trkpt lat="34.4106486" lon="7.9244217"><ele>377.0</ele><time>2026-04-30T13:31:11.621Z</time></trkpt><trkpt lat="34.4107299" lon="7.9244681"><ele>376.5</ele><time>2026-04-30T13:31:13.643Z</time></trkpt><trkpt lat="34.4108147" lon="7.9245084"><ele>376.0</ele><time>2026-04-30T13:31:15.6Z</time></trkpt><trkpt lat="34.4108964" lon="7.9245362"><ele>375.5</ele><time>2026-04-30T13:31:17.655Z</time></trkpt><trkpt lat="34.4109567" lon="7.9246125"><ele>375.0</ele><time>2026-04-30T13:31:19.589Z</time></trkpt><trkpt lat="34.4109882" lon="7.9247825"><ele>375.0</ele><time>2026-04-30T13:31:21.625Z</time></trkpt><trkpt lat="34.4109956" lon="7.9249161"><ele>375.0</ele><time>2026-04-30T13:31:22.635Z</time></trkpt><trkpt lat="34.4110073" lon="7.9250511"><ele>375.0</ele><time>2026-04-30T13:31:23.626Z</time></trkpt><trkpt lat="34.4110186" lon="7.9251823"><ele>375.0</ele><time>2026-04-30T13:31:24.603Z</time></trkpt><trkpt lat="34.4110361" lon="7.9253045"><ele>375.0</ele><time>2026-04-30T13:31:25.62Z</time></trkpt><trkpt lat="34.4110448" lon="7.9254167"><ele>375.2</ele><time>2026-04-30T13:31:26.618Z</time></trkpt><trkpt lat="34.4110564" lon="7.9255279"><ele>375.4</ele><time>2026-04-30T13:31:27.613Z</time></trkpt><trkpt lat="34.411072" lon="7.9256427"><ele>375.6</ele><time>2026-04-30T13:31:28.611Z</time></trkpt><trkpt lat="34.4110846" lon="7.925754"><ele>375.8</ele><time>2026-04-30T13:31:29.625Z</time></trkpt><trkpt lat="34.4111021" lon="7.9258663"><ele>376.0</ele><time>2026-04-30T13:31:30.609Z</time></trkpt><trkpt lat="34.4111145" lon="7.9259804"><ele>376.6</ele><time>2026-04-30T13:31:31.608Z</time></trkpt><trkpt lat="34.4111302" lon="7.926093"><ele>377.20000000000005</ele><time>2026-04-30T13:31:32.618Z</time></trkpt><trkpt lat="34.4111479" lon="7.9262045"><ele>377.79999999999995</ele><time>2026-04-30T13:31:33.579Z</time></trkpt><trkpt lat="34.4111657" lon="7.9263248"><ele>378.4</ele><time>2026-04-30T13:31:34.633Z</time></trkpt><trkpt lat="34.4111876" lon="7.9264523"><ele>379.0</ele><time>2026-04-30T13:31:35.607Z</time></trkpt><trkpt lat="34.4112097" lon="7.9265774"><ele>379.0</ele><time>2026-04-30T13:31:36.631Z</time></trkpt><trkpt lat="34.4112333" lon="7.9267038"><ele>379.0</ele><time>2026-04-30T13:31:37.618Z</time></trkpt><trkpt lat="34.4112567" lon="7.9268274"><ele>379.0</ele><time>2026-04-30T13:31:38.61Z</time></trkpt><trkpt lat="34.41128" lon="7.926956"><ele>379.0</ele><time>2026-04-30T13:31:39.594Z</time></trkpt><trkpt lat="34.4113036" lon="7.9270816"><ele>379.0</ele><time>2026-04-30T13:31:40.639Z</time></trkpt><trkpt lat="34.411326" lon="7.9272107"><ele>379.79999999999995</ele><time>2026-04-30T13:31:41.633Z</time></trkpt><trkpt lat="34.4113504" lon="7.927334"><ele>380.59999999999997</ele><time>2026-04-30T13:31:42.635Z</time></trkpt><trkpt lat="34.4113711" lon="7.92745"><ele>381.4</ele><time>2026-04-30T13:31:43.638Z</time></trkpt><trkpt lat="34.4113886" lon="7.9275593"><ele>382.2</ele><time>2026-04-30T13:31:44.623Z</time></trkpt><trkpt lat="34.4114122" lon="7.9276748"><ele>383.0</ele><time>2026-04-30T13:31:45.623Z</time></trkpt><trkpt lat="34.4114327" lon="7.9278012"><ele>383.75</ele><time>2026-04-30T13:31:46.642Z</time></trkpt><trkpt lat="34.4114593" lon="7.9279266"><ele>384.5</ele><time>2026-04-30T13:31:47.638Z</time></trkpt><trkpt lat="34.4114969" lon="7.9280542"><ele>385.25</ele><time>2026-04-30T13:31:48.617Z</time></trkpt><trkpt lat="34.411543" lon="7.9281902"><ele>386.0</ele><time>2026-04-30T13:31:49.6Z</time></trkpt><trkpt lat="34.4115931" lon="7.9283343"><ele>387.0</ele><time>2026-04-30T13:31:50.637Z</time></trkpt><trkpt lat="34.4116565" lon="7.9285"><ele>388.0</ele><time>2026-04-30T13:31:51.577Z</time></trkpt><trkpt lat="34.4117254" lon="7.9286873"><ele>389.0</ele><time>2026-04-30T13:31:52.652Z</time></trkpt><trkpt lat="34.4117872" lon="7.9288782"><ele>389.0</ele><time>2026-04-30T13:31:53.619Z</time></trkpt><trkpt lat="34.4118363" lon="7.9290626"><ele>389.0</ele><time>2026-04-30T13:31:54.626Z</time></trkpt><trkpt lat="34.4118763" lon="7.9292315"><ele>389.0</ele><time>2026-04-30T13:31:55.628Z</time></trkpt><trkpt lat="34.411907" lon="7.9293934"><ele>389.0</ele><time>2026-04-30T13:31:56.61Z</time></trkpt><trkpt lat="34.4119333" lon="7.9295562"><ele>389.75</ele><time>2026-04-30T13:31:57.626Z</time></trkpt><trkpt lat="34.4119576" lon="7.9297179"><ele>390.5</ele><time>2026-04-30T13:31:58.617Z</time></trkpt><trkpt lat="34.4119767" lon="7.9298768"><ele>391.25</ele><time>2026-04-30T13:31:59.603Z</time></trkpt><trkpt lat="34.4119896" lon="7.9300335"><ele>392.0</ele><time>2026-04-30T13:32:00.634Z</time></trkpt><trkpt lat="34.4120015" lon="7.9301893"><ele>392.25</ele><time>2026-04-30T13:32:01.625Z</time></trkpt><trkpt lat="34.412005" lon="7.9303506"><ele>392.5</ele><time>2026-04-30T13:32:02.618Z</time></trkpt><trkpt lat="34.4120079" lon="7.9305125"><ele>392.75</ele><time>2026-04-30T13:32:03.572Z</time></trkpt><trkpt lat="34.4120118" lon="7.9306761"><ele>393.0</ele><time>2026-04-30T13:32:04.652Z</time></trkpt><trkpt lat="34.4120149" lon="7.9308446"><ele>393.5</ele><time>2026-04-30T13:32:05.646Z</time></trkpt><trkpt lat="34.4120235" lon="7.9310174"><ele>394.0</ele><time>2026-04-30T13:32:06.579Z</time></trkpt><trkpt lat="34.4120266" lon="7.9311849"><ele>394.5</ele><time>2026-04-30T13:32:07.614Z</time></trkpt><trkpt lat="34.4120274" lon="7.9313525"><ele>395.0</ele><time>2026-04-30T13:32:08.602Z</time></trkpt><trkpt lat="34.4120288" lon="7.9315232"><ele>395.0</ele><time>2026-04-30T13:32:09.569Z</time></trkpt><trkpt lat="34.4120319" lon="7.9317008"><ele>395.0</ele><time>2026-04-30T13:32:10.617Z</time></trkpt><trkpt lat="34.4120316" lon="7.931879"><ele>395.0</ele><time>2026-04-30T13:32:11.607Z</time></trkpt><trkpt lat="34.4120275" lon="7.9320587"><ele>395.0</ele><time>2026-04-30T13:32:12.623Z</time></trkpt><trkpt lat="34.4120191" lon="7.9322432"><ele>393.66666666666663</ele><time>2026-04-30T13:32:13.602Z</time></trkpt><trkpt lat="34.4120061" lon="7.9324338"><ele>392.33333333333337</ele><time>2026-04-30T13:32:14.607Z</time></trkpt><trkpt lat="34.4119988" lon="7.932626"><ele>391.0</ele><time>2026-04-30T13:32:15.583Z</time></trkpt><trkpt lat="34.4119912" lon="7.9328235"><ele>390.33333333333337</ele><time>2026-04-30T13:32:16.611Z</time></trkpt><trkpt lat="34.4119823" lon="7.9330216"><ele>389.66666666666663</ele><time>2026-04-30T13:32:17.646Z</time></trkpt><trkpt lat="34.4119778" lon="7.9332252"><ele>389.0</ele><time>2026-04-30T13:32:18.624Z</time></trkpt><trkpt lat="34.4119753" lon="7.9334253"><ele>388.0</ele><time>2026-04-30T13:32:19.628Z</time></trkpt><trkpt lat="34.4119777" lon="7.9336194"><ele>387.0</ele><time>2026-04-30T13:32:20.629Z</time></trkpt><trkpt lat="34.4119813" lon="7.933807"><ele>386.0</ele><time>2026-04-30T13:32:21.629Z</time></trkpt><trkpt lat="34.4119811" lon="7.9339943"><ele>386.0</ele><time>2026-04-30T13:32:22.616Z</time></trkpt><trkpt lat="34.4119822" lon="7.9341754"><ele>386.0</ele><time>2026-04-30T13:32:23.619Z</time></trkpt><trkpt lat="34.4119792" lon="7.9343543"><ele>386.0</ele><time>2026-04-30T13:32:24.625Z</time></trkpt><trkpt lat="34.4119724" lon="7.9345366"><ele>386.0</ele><time>2026-04-30T13:32:25.592Z</time></trkpt><trkpt lat="34.4119648" lon="7.9347205"><ele>385.3333333333333</ele><time>2026-04-30T13:32:26.629Z</time></trkpt><trkpt lat="34.4119552" lon="7.9349077"><ele>384.66666666666663</ele><time>2026-04-30T13:32:27.633Z</time></trkpt><trkpt lat="34.4119403" lon="7.9350959"><ele>384.0</ele><time>2026-04-30T13:32:28.62Z</time></trkpt><trkpt lat="34.4119113" lon="7.9352828"><ele>383.0</ele><time>2026-04-30T13:32:29.611Z</time></trkpt><trkpt lat="34.4118756" lon="7.9354713"><ele>382.0</ele><time>2026-04-30T13:32:30.588Z</time></trkpt><trkpt lat="34.4118334" lon="7.9356574"><ele>381.0</ele><time>2026-04-30T13:32:31.644Z</time></trkpt><trkpt lat="34.4117732" lon="7.9358422"><ele>379.6666666666667</ele><time>2026-04-30T13:32:32.643Z</time></trkpt><trkpt lat="34.4117044" lon="7.9360267"><ele>378.33333333333337</ele><time>2026-04-30T13:32:33.643Z</time></trkpt><trkpt lat="34.411615" lon="7.9362018"><ele>377.0</ele><time>2026-04-30T13:32:34.588Z</time></trkpt><trkpt lat="34.4115205" lon="7.9363807"><ele>377.0</ele><time>2026-04-30T13:32:35.643Z</time></trkpt><trkpt lat="34.4114244" lon="7.9365614"><ele>377.0</ele><time>2026-04-30T13:32:36.649Z</time></trkpt><trkpt lat="34.4113332" lon="7.9367414"><ele>377.0</ele><time>2026-04-30T13:32:37.632Z</time></trkpt><trkpt lat="34.4112502" lon="7.9369283"><ele>375.6666666666667</ele><time>2026-04-30T13:32:38.568Z</time></trkpt><trkpt lat="34.4111765" lon="7.9371245"><ele>374.3333333333333</ele><time>2026-04-30T13:32:39.63Z</time></trkpt><trkpt lat="34.4111114" lon="7.9373204"><ele>373.0</ele><time>2026-04-30T13:32:40.617Z</time></trkpt><trkpt lat="34.4110537" lon="7.9375233"><ele>371.3333333333333</ele><time>2026-04-30T13:32:41.626Z</time></trkpt><trkpt lat="34.4110064" lon="7.9377338"><ele>369.6666666666667</ele><time>2026-04-30T13:32:42.645Z</time></trkpt><trkpt lat="34.4109655" lon="7.9379558"><ele>368.0</ele><time>2026-04-30T13:32:43.631Z</time></trkpt><trkpt lat="34.4109292" lon="7.9381734"><ele>368.33333333333337</ele><time>2026-04-30T13:32:44.652Z</time></trkpt><trkpt lat="34.4108911" lon="7.9383922"><ele>368.6666666666667</ele><time>2026-04-30T13:32:45.626Z</time></trkpt><trkpt lat="34.4108525" lon="7.9386142"><ele>369.0</ele><time>2026-04-30T13:32:46.638Z</time></trkpt><trkpt lat="34.4108079" lon="7.9388342"><ele>369.0</ele><time>2026-04-30T13:32:47.63Z</time></trkpt><trkpt lat="34.4107584" lon="7.9390477"><ele>369.0</ele><time>2026-04-30T13:32:48.641Z</time></trkpt><trkpt lat="34.4107008" lon="7.939257"><ele>369.0</ele><time>2026-04-30T13:32:49.624Z</time></trkpt><trkpt lat="34.4106464" lon="7.9394624"><ele>370.0</ele><time>2026-04-30T13:32:50.614Z</time></trkpt><trkpt lat="34.4105915" lon="7.9396668"><ele>371.0</ele><time>2026-04-30T13:32:51.591Z</time></trkpt><trkpt lat="34.410532" lon="7.9398714"><ele>372.0</ele><time>2026-04-30T13:32:52.628Z</time></trkpt><trkpt lat="34.4104618" lon="7.9400664"><ele>372.0</ele><time>2026-04-30T13:32:53.624Z</time></trkpt><trkpt lat="34.4103766" lon="7.9402527"><ele>372.0</ele><time>2026-04-30T13:32:54.611Z</time></trkpt><trkpt lat="34.4102827" lon="7.9404256"><ele>372.0</ele><time>2026-04-30T13:32:55.628Z</time></trkpt><trkpt lat="34.4101782" lon="7.9405934"><ele>372.0</ele><time>2026-04-30T13:32:56.638Z</time></trkpt><trkpt lat="34.4100657" lon="7.9407535"><ele>372.0</ele><time>2026-04-30T13:32:57.622Z</time></trkpt><trkpt lat="34.4099391" lon="7.9409022"><ele>372.0</ele><time>2026-04-30T13:32:58.586Z</time></trkpt><trkpt lat="34.409802" lon="7.9410393"><ele>371.6666666666667</ele><time>2026-04-30T13:32:59.621Z</time></trkpt><trkpt lat="34.40966" lon="7.9411546"><ele>371.33333333333337</ele><time>2026-04-30T13:33:00.631Z</time></trkpt><trkpt lat="34.409507" lon="7.9412541"><ele>371.0</ele><time>2026-04-30T13:33:01.62Z</time></trkpt><trkpt lat="34.4093452" lon="7.9413449"><ele>371.0</ele><time>2026-04-30T13:33:02.632Z</time></trkpt><trkpt lat="34.4091763" lon="7.9414282"><ele>371.0</ele><time>2026-04-30T13:33:03.612Z</time></trkpt><trkpt lat="34.4090016" lon="7.9415114"><ele>371.0</ele><time>2026-04-30T13:33:04.627Z</time></trkpt><trkpt lat="34.4088254" lon="7.9415901"><ele>370.33333333333337</ele><time>2026-04-30T13:33:05.631Z</time></trkpt><trkpt lat="34.4086476" lon="7.9416639"><ele>369.6666666666667</ele><time>2026-04-30T13:33:06.637Z</time></trkpt><trkpt lat="34.408469" lon="7.9417363"><ele>369.0</ele><time>2026-04-30T13:33:07.595Z</time></trkpt><trkpt lat="34.4082857" lon="7.9418144"><ele>369.0</ele><time>2026-04-30T13:33:08.62Z</time></trkpt><trkpt lat="34.4081031" lon="7.9418997"><ele>369.0</ele><time>2026-04-30T13:33:09.593Z</time></trkpt><trkpt lat="34.4079208" lon="7.9419953"><ele>369.0</ele><time>2026-04-30T13:33:10.636Z</time></trkpt><trkpt lat="34.4077524" lon="7.9421035"><ele>367.0</ele><time>2026-04-30T13:33:11.639Z</time></trkpt><trkpt lat="34.4075812" lon="7.9422128"><ele>365.0</ele><time>2026-04-30T13:33:12.609Z</time></trkpt><trkpt lat="34.4074324" lon="7.9423242"><ele>363.0</ele><time>2026-04-30T13:33:13.638Z</time></trkpt><trkpt lat="34.4072965" lon="7.9424409"><ele>363.6666666666667</ele><time>2026-04-30T13:33:14.639Z</time></trkpt><trkpt lat="34.4071703" lon="7.9425515"><ele>364.33333333333337</ele><time>2026-04-30T13:33:15.628Z</time></trkpt><trkpt lat="34.407061" lon="7.942677"><ele>365.0</ele><time>2026-04-30T13:33:16.644Z</time></trkpt><trkpt lat="34.4069617" lon="7.9428259"><ele>362.33333333333337</ele><time>2026-04-30T13:33:17.584Z</time></trkpt><trkpt lat="34.4068736" lon="7.9429943"><ele>359.6666666666667</ele><time>2026-04-30T13:33:18.592Z</time></trkpt><trkpt lat="34.4068073" lon="7.9431748"><ele>357.0</ele><time>2026-04-30T13:33:19.635Z</time></trkpt><trkpt lat="34.4067579" lon="7.9433616"><ele>357.0</ele><time>2026-04-30T13:33:20.637Z</time></trkpt><trkpt lat="34.4067143" lon="7.9435697"><ele>357.0</ele><time>2026-04-30T13:33:21.615Z</time></trkpt><trkpt lat="34.4066541" lon="7.9437782"><ele>357.0</ele><time>2026-04-30T13:33:22.614Z</time></trkpt><trkpt lat="34.4065858" lon="7.9439807"><ele>357.0</ele><time>2026-04-30T13:33:23.624Z</time></trkpt><trkpt lat="34.4065128" lon="7.9441764"><ele>357.0</ele><time>2026-04-30T13:33:24.613Z</time></trkpt><trkpt lat="34.4064405" lon="7.944358"><ele>357.0</ele><time>2026-04-30T13:33:25.614Z</time></trkpt><trkpt lat="34.4063754" lon="7.9445311"><ele>358.25</ele><time>2026-04-30T13:33:26.617Z</time></trkpt><trkpt lat="34.4063195" lon="7.944696"><ele>359.5</ele><time>2026-04-30T13:33:27.625Z</time></trkpt><trkpt lat="34.4062853" lon="7.9448661"><ele>360.75</ele><time>2026-04-30T13:33:28.627Z</time></trkpt><trkpt lat="34.4062692" lon="7.9450258"><ele>362.0</ele><time>2026-04-30T13:33:29.582Z</time></trkpt><trkpt lat="34.4062774" lon="7.945183"><ele>362.0</ele><time>2026-04-30T13:33:30.621Z</time></trkpt><trkpt lat="34.4063052" lon="7.9453363"><ele>362.0</ele><time>2026-04-30T13:33:31.64Z</time></trkpt><trkpt lat="34.4063552" lon="7.9455087"><ele>362.0</ele><time>2026-04-30T13:33:32.627Z</time></trkpt><trkpt lat="34.4064305" lon="7.9457162"><ele>360.6666666666667</ele><time>2026-04-30T13:33:33.626Z</time></trkpt><trkpt lat="34.4065111" lon="7.9459229"><ele>359.3333333333333</ele><time>2026-04-30T13:33:34.583Z</time></trkpt><trkpt lat="34.4065666" lon="7.9461269"><ele>358.0</ele><time>2026-04-30T13:33:35.627Z</time></trkpt><trkpt lat="34.4065888" lon="7.9463344"><ele>358.0</ele><time>2026-04-30T13:33:36.653Z</time></trkpt><trkpt lat="34.4065766" lon="7.9465447"><ele>358.0</ele><time>2026-04-30T13:33:37.637Z</time></trkpt><trkpt lat="34.4065429" lon="7.9467853"><ele>358.0</ele><time>2026-04-30T13:33:38.608Z</time></trkpt><trkpt lat="34.4064847" lon="7.9470468"><ele>355.5</ele><time>2026-04-30T13:33:39.601Z</time></trkpt><trkpt lat="34.4064251" lon="7.9473336"><ele>353.0</ele><time>2026-04-30T13:33:40.591Z</time></trkpt><trkpt lat="34.4063907" lon="7.9476091"><ele>351.0</ele><time>2026-04-30T13:33:41.613Z</time></trkpt><trkpt lat="34.4063726" lon="7.9478589"><ele>349.0</ele><time>2026-04-30T13:33:42.631Z</time></trkpt><trkpt lat="34.4063595" lon="7.9480896"><ele>347.0</ele><time>2026-04-30T13:33:43.627Z</time></trkpt><trkpt lat="34.4063212" lon="7.9482969"><ele>344.0</ele><time>2026-04-30T13:33:44.613Z</time></trkpt><trkpt lat="34.4062554" lon="7.9484932"><ele>341.0</ele><time>2026-04-30T13:33:45.603Z</time></trkpt><trkpt lat="34.4061653" lon="7.9486852"><ele>338.0</ele><time>2026-04-30T13:33:46.627Z</time></trkpt><trkpt lat="34.4060628" lon="7.9488649"><ele>338.0</ele><time>2026-04-30T13:33:47.631Z</time></trkpt><trkpt lat="34.4059492" lon="7.9490468"><ele>338.0</ele><time>2026-04-30T13:33:48.598Z</time></trkpt><trkpt lat="34.4058315" lon="7.9492271"><ele>338.0</ele><time>2026-04-30T13:33:49.629Z</time></trkpt><trkpt lat="34.4056974" lon="7.9494175"><ele>338.0</ele><time>2026-04-30T13:33:50.62Z</time></trkpt><trkpt lat="34.4055527" lon="7.9496232"><ele>338.0</ele><time>2026-04-30T13:33:51.621Z</time></trkpt><trkpt lat="34.4053932" lon="7.949846"><ele>336.0</ele><time>2026-04-30T13:33:52.614Z</time></trkpt><trkpt lat="34.4052233" lon="7.950081"><ele>334.0</ele><time>2026-04-30T13:33:53.629Z</time></trkpt><trkpt lat="34.4050625" lon="7.9503009"><ele>334.0</ele><time>2026-04-30T13:33:54.628Z</time></trkpt><trkpt lat="34.4049101" lon="7.9505074"><ele>334.0</ele><time>2026-04-30T13:33:55.621Z</time></trkpt><trkpt lat="34.4047598" lon="7.9507118"><ele>334.3333333333333</ele><time>2026-04-30T13:33:56.606Z</time></trkpt><trkpt lat="34.4046131" lon="7.9509121"><ele>334.6666666666667</ele><time>2026-04-30T13:33:57.596Z</time></trkpt><trkpt lat="34.4044691" lon="7.9511106"><ele>335.0</ele><time>2026-04-30T13:33:58.624Z</time></trkpt><trkpt lat="34.4043201" lon="7.95131"><ele>335.0</ele><time>2026-04-30T13:33:59.625Z</time></trkpt><trkpt lat="34.4041758" lon="7.9515088"><ele>335.0</ele><time>2026-04-30T13:34:00.634Z</time></trkpt><trkpt lat="34.4040332" lon="7.9517022"><ele>335.0</ele><time>2026-04-30T13:34:01.622Z</time></trkpt><trkpt lat="34.4038944" lon="7.9518959"><ele>335.6666666666667</ele><time>2026-04-30T13:34:02.629Z</time></trkpt><trkpt lat="34.4037553" lon="7.9520859"><ele>336.3333333333333</ele><time>2026-04-30T13:34:03.633Z</time></trkpt><trkpt lat="34.4036105" lon="7.9522775"><ele>337.0</ele><time>2026-04-30T13:34:04.616Z</time></trkpt><trkpt lat="34.4034645" lon="7.9524685"><ele>337.3333333333333</ele><time>2026-04-30T13:34:05.614Z</time></trkpt><trkpt lat="34.4033201" lon="7.9526611"><ele>337.6666666666667</ele><time>2026-04-30T13:34:06.616Z</time></trkpt><trkpt lat="34.4031764" lon="7.9528516"><ele>338.0</ele><time>2026-04-30T13:34:07.62Z</time></trkpt><trkpt lat="34.4030331" lon="7.9530401"><ele>340.0</ele><time>2026-04-30T13:34:08.627Z</time></trkpt><trkpt lat="34.4028892" lon="7.9532259"><ele>342.0</ele><time>2026-04-30T13:34:09.638Z</time></trkpt><trkpt lat="34.4027489" lon="7.9534143"><ele>344.0</ele><time>2026-04-30T13:34:10.602Z</time></trkpt><trkpt lat="34.4026117" lon="7.9536043"><ele>344.33333333333337</ele><time>2026-04-30T13:34:11.641Z</time></trkpt><trkpt lat="34.4024786" lon="7.9537928"><ele>344.6666666666667</ele><time>2026-04-30T13:34:12.621Z</time></trkpt><trkpt lat="34.402344" lon="7.9539853"><ele>345.0</ele><time>2026-04-30T13:34:13.622Z</time></trkpt><trkpt lat="34.4022202" lon="7.9541866"><ele>345.6666666666667</ele><time>2026-04-30T13:34:14.636Z</time></trkpt><trkpt lat="34.4020981" lon="7.954391"><ele>346.33333333333337</ele><time>2026-04-30T13:34:15.628Z</time></trkpt><trkpt lat="34.4019756" lon="7.9545989"><ele>347.0</ele><time>2026-04-30T13:34:16.62Z</time></trkpt><trkpt lat="34.4018504" lon="7.9548103"><ele>347.0</ele><time>2026-04-30T13:34:17.64Z</time></trkpt><trkpt lat="34.4017357" lon="7.9550219"><ele>347.0</ele><time>2026-04-30T13:34:18.636Z</time></trkpt><trkpt lat="34.4016286" lon="7.9552391"><ele>347.0</ele><time>2026-04-30T13:34:19.637Z</time></trkpt><trkpt lat="34.4015237" lon="7.9554588"><ele>347.6666666666667</ele><time>2026-04-30T13:34:20.57Z</time></trkpt><trkpt lat="34.4014247" lon="7.9556876"><ele>348.3333333333333</ele><time>2026-04-30T13:34:21.624Z</time></trkpt><trkpt lat="34.4013218" lon="7.9559157"><ele>349.0</ele><time>2026-04-30T13:34:22.647Z</time></trkpt><trkpt lat="34.4012245" lon="7.9561457"><ele>350.66666666666663</ele><time>2026-04-30T13:34:23.622Z</time></trkpt><trkpt lat="34.4011284" lon="7.956371"><ele>352.3333333333333</ele><time>2026-04-30T13:34:24.582Z</time></trkpt><trkpt lat="34.4010318" lon="7.9565935"><ele>354.0</ele><time>2026-04-30T13:34:25.633Z</time></trkpt><trkpt lat="34.4009326" lon="7.9568144"><ele>354.6666666666667</ele><time>2026-04-30T13:34:26.624Z</time></trkpt><trkpt lat="34.4008367" lon="7.9570336"><ele>355.33333333333337</ele><time>2026-04-30T13:34:27.619Z</time></trkpt><trkpt lat="34.4007405" lon="7.9572519"><ele>356.0</ele><time>2026-04-30T13:34:28.629Z</time></trkpt><trkpt lat="34.4006469" lon="7.9574741"><ele>355.33333333333337</ele><time>2026-04-30T13:34:29.636Z</time></trkpt><trkpt lat="34.4005536" lon="7.9576935"><ele>354.6666666666667</ele><time>2026-04-30T13:34:30.61Z</time></trkpt><trkpt lat="34.4004618" lon="7.9579178"><ele>354.0</ele><time>2026-04-30T13:34:31.619Z</time></trkpt><trkpt lat="34.4003744" lon="7.958141"><ele>355.6666666666667</ele><time>2026-04-30T13:34:32.62Z</time></trkpt><trkpt lat="34.4002883" lon="7.9583705"><ele>357.33333333333337</ele><time>2026-04-30T13:34:33.62Z</time></trkpt><trkpt lat="34.4002003" lon="7.9586046"><ele>359.0</ele><time>2026-04-30T13:34:34.596Z</time></trkpt><trkpt lat="34.400113" lon="7.9588301"><ele>359.0</ele><time>2026-04-30T13:34:35.636Z</time></trkpt><trkpt lat="34.4000257" lon="7.9590559"><ele>359.0</ele><time>2026-04-30T13:34:36.63Z</time></trkpt><trkpt lat="34.3999428" lon="7.9592804"><ele>359.0</ele><time>2026-04-30T13:34:37.63Z</time></trkpt><trkpt lat="34.3998623" lon="7.9594994"><ele>359.33333333333337</ele><time>2026-04-30T13:34:38.608Z</time></trkpt><trkpt lat="34.3997879" lon="7.9597117"><ele>359.6666666666667</ele><time>2026-04-30T13:34:39.641Z</time></trkpt><trkpt lat="34.3997214" lon="7.9599215"><ele>360.0</ele><time>2026-04-30T13:34:40.624Z</time></trkpt><trkpt lat="34.3996644" lon="7.9601315"><ele>360.0</ele><time>2026-04-30T13:34:41.63Z</time></trkpt><trkpt lat="34.3996153" lon="7.9603426"><ele>360.0</ele><time>2026-04-30T13:34:42.655Z</time></trkpt><trkpt lat="34.3995856" lon="7.9605391"><ele>360.0</ele><time>2026-04-30T13:34:43.625Z</time></trkpt><trkpt lat="34.3995668" lon="7.9607233"><ele>360.0</ele><time>2026-04-30T13:34:44.637Z</time></trkpt><trkpt lat="34.3995628" lon="7.9608871"><ele>360.0</ele><time>2026-04-30T13:34:45.595Z</time></trkpt><trkpt lat="34.3995745" lon="7.9610133"><ele>360.0</ele><time>2026-04-30T13:34:46.624Z</time></trkpt><trkpt lat="34.3995874" lon="7.9611184"><ele>360.0</ele><time>2026-04-30T13:34:47.647Z</time></trkpt><trkpt lat="34.3996031" lon="7.9612156"><ele>360.0</ele><time>2026-04-30T13:34:48.595Z</time></trkpt><trkpt lat="34.3996221" lon="7.9613445"><ele>360.0</ele><time>2026-04-30T13:34:50.615Z</time></trkpt><trkpt lat="34.3996032" lon="7.9614496"><ele>360.0</ele><time>2026-04-30T13:34:52.628Z</time></trkpt><trkpt lat="34.3995519" lon="7.961541"><ele>360.0</ele><time>2026-04-30T13:34:54.606Z</time></trkpt><trkpt lat="34.3994597" lon="7.9616433"><ele>360.0</ele><time>2026-04-30T13:34:56.62Z</time></trkpt><trkpt lat="34.3994169" lon="7.961703"><ele>360.0</ele><time>2026-04-30T13:34:57.622Z</time></trkpt><trkpt lat="34.3993514" lon="7.9618148"><ele>360.0</ele><time>2026-04-30T13:34:59.622Z</time></trkpt><trkpt lat="34.3993155" lon="7.9619267"><ele>360.0</ele><time>2026-04-30T13:35:01.637Z</time></trkpt><trkpt lat="34.3992952" lon="7.9620451"><ele>360.0</ele><time>2026-04-30T13:35:03.63Z</time></trkpt><trkpt lat="34.3992773" lon="7.9621677"><ele>360.0</ele><time>2026-04-30T13:35:05.607Z</time></trkpt><trkpt lat="34.399251" lon="7.9622952"><ele>360.0</ele><time>2026-04-30T13:35:07.638Z</time></trkpt><trkpt lat="34.3992289" lon="7.9624239"><ele>359.8333333333333</ele><time>2026-04-30T13:35:09.637Z</time></trkpt><trkpt lat="34.3991935" lon="7.9625654"><ele>359.6666666666667</ele><time>2026-04-30T13:35:11.629Z</time></trkpt><trkpt lat="34.3991781" lon="7.9626395"><ele>359.5</ele><time>2026-04-30T13:35:12.624Z</time></trkpt><trkpt lat="34.3991624" lon="7.9627183"><ele>359.33333333333337</ele><time>2026-04-30T13:35:13.649Z</time></trkpt><trkpt lat="34.3991353" lon="7.9628672"><ele>359.1666666666667</ele><time>2026-04-30T13:35:15.581Z</time></trkpt><trkpt lat="34.399119" lon="7.9629409"><ele>359.0</ele><time>2026-04-30T13:35:16.608Z</time></trkpt><trkpt lat="34.3990895" lon="7.9630853"><ele>359.0</ele><time>2026-04-30T13:35:18.624Z</time></trkpt><trkpt lat="34.3990569" lon="7.9632231"><ele>359.0</ele><time>2026-04-30T13:35:20.621Z</time></trkpt><trkpt lat="34.3990165" lon="7.9633595"><ele>359.0</ele><time>2026-04-30T13:35:22.608Z</time></trkpt><trkpt lat="34.3989694" lon="7.9634915"><ele>359.0</ele><time>2026-04-30T13:35:24.642Z</time></trkpt><trkpt lat="34.3989185" lon="7.9636301"><ele>358.75</ele><time>2026-04-30T13:35:26.624Z</time></trkpt><trkpt lat="34.39886" lon="7.9637604"><ele>358.5</ele><time>2026-04-30T13:35:28.629Z</time></trkpt><trkpt lat="34.3988049" lon="7.9638917"><ele>358.25</ele><time>2026-04-30T13:35:30.624Z</time></trkpt><trkpt lat="34.3987715" lon="7.9640305"><ele>358.0</ele><time>2026-04-30T13:35:32.605Z</time></trkpt><trkpt lat="34.3987458" lon="7.9641552"><ele>357.4</ele><time>2026-04-30T13:35:34.601Z</time></trkpt><trkpt lat="34.3987342" lon="7.964286"><ele>356.79999999999995</ele><time>2026-04-30T13:35:36.621Z</time></trkpt><trkpt lat="34.3987275" lon="7.9644206"><ele>356.2</ele><time>2026-04-30T13:35:38.608Z</time></trkpt><trkpt lat="34.3987195" lon="7.9645391"><ele>355.6</ele><time>2026-04-30T13:35:40.601Z</time></trkpt><trkpt lat="34.398698" lon="7.9646575"><ele>355.0</ele><time>2026-04-30T13:35:42.627Z</time></trkpt><trkpt lat="34.3986709" lon="7.9647829"><ele>355.0</ele><time>2026-04-30T13:35:44.599Z</time></trkpt><trkpt lat="34.3986306" lon="7.9649219"><ele>355.0</ele><time>2026-04-30T13:35:46.646Z</time></trkpt><trkpt lat="34.3985878" lon="7.9650647"><ele>355.0</ele><time>2026-04-30T13:35:48.633Z</time></trkpt><trkpt lat="34.3985589" lon="7.965136"><ele>355.0</ele><time>2026-04-30T13:35:49.637Z</time></trkpt><trkpt lat="34.3985024" lon="7.9652619"><ele>355.0</ele><time>2026-04-30T13:35:51.63Z</time></trkpt><trkpt lat="34.3984711" lon="7.9653284"><ele>354.6</ele><time>2026-04-30T13:35:52.627Z</time></trkpt><trkpt lat="34.3984445" lon="7.9654009"><ele>354.2</ele><time>2026-04-30T13:35:53.654Z</time></trkpt><trkpt lat="34.3983989" lon="7.9655317"><ele>353.79999999999995</ele><time>2026-04-30T13:35:55.632Z</time></trkpt><trkpt lat="34.3983622" lon="7.9656563"><ele>353.4</ele><time>2026-04-30T13:35:57.627Z</time></trkpt><trkpt lat="34.3983151" lon="7.9657558"><ele>353.0</ele><time>2026-04-30T13:35:59.639Z</time></trkpt><trkpt lat="34.3982691" lon="7.9658186"><ele>352.1666666666667</ele><time>2026-04-30T13:36:02.627Z</time></trkpt><trkpt lat="34.3982072" lon="7.965902"><ele>351.33333333333337</ele><time>2026-04-30T13:36:09.632Z</time></trkpt><trkpt lat="34.3981633" lon="7.9659832"><ele>350.5</ele><time>2026-04-30T13:36:11.634Z</time></trkpt><trkpt lat="34.3981285" lon="7.9660732"><ele>349.6666666666667</ele><time>2026-04-30T13:36:13.636Z</time></trkpt><trkpt lat="34.3981028" lon="7.9661644"><ele>348.8333333333333</ele><time>2026-04-30T13:36:15.636Z</time></trkpt><trkpt lat="34.39808" lon="7.9662495"><ele>348.0</ele><time>2026-04-30T13:36:17.614Z</time></trkpt><trkpt lat="34.3980626" lon="7.966324"><ele>348.0</ele><time>2026-04-30T13:36:19.583Z</time></trkpt><trkpt lat="34.3980433" lon="7.9664081"><ele>348.0</ele><time>2026-04-30T13:36:36.63Z</time></trkpt><trkpt lat="34.3980274" lon="7.9665254"><ele>348.0</ele><time>2026-04-30T13:36:39.645Z</time></trkpt><trkpt lat="34.3980204" lon="7.966626"><ele>348.0</ele><time>2026-04-30T13:36:41.632Z</time></trkpt><trkpt lat="34.3980119" lon="7.9667325"><ele>348.0</ele><time>2026-04-30T13:36:43.633Z</time></trkpt><trkpt lat="34.3980023" lon="7.9668214"><ele>348.0</ele><time>2026-04-30T13:36:45.635Z</time></trkpt><trkpt lat="34.3979881" lon="7.9669224"><ele>346.8333333333333</ele><time>2026-04-30T13:36:47.602Z</time></trkpt><trkpt lat="34.3979664" lon="7.9670265"><ele>345.6666666666667</ele><time>2026-04-30T13:36:49.654Z</time></trkpt><trkpt lat="34.3979419" lon="7.9671256"><ele>344.5</ele><time>2026-04-30T13:36:51.644Z</time></trkpt><trkpt lat="34.3979077" lon="7.9672301"><ele>343.33333333333337</ele><time>2026-04-30T13:36:53.636Z</time></trkpt><trkpt lat="34.3978705" lon="7.9673141"><ele>342.1666666666667</ele><time>2026-04-30T13:37:08.629Z</time></trkpt><trkpt lat="34.3978389" lon="7.9673987"><ele>341.0</ele><time>2026-04-30T13:37:12.617Z</time></trkpt><trkpt lat="34.3977792" lon="7.9674833"><ele>340.7142857142857</ele><time>2026-04-30T13:37:26.627Z</time></trkpt><trkpt lat="34.3977271" lon="7.9675373"><ele>340.42857142857144</ele><time>2026-04-30T13:37:28.621Z</time></trkpt><trkpt lat="34.3976691" lon="7.9675688"><ele>340.1428571428571</ele><time>2026-04-30T13:37:30.589Z</time></trkpt><trkpt lat="34.3976069" lon="7.9675901"><ele>339.8571428571429</ele><time>2026-04-30T13:37:34.581Z</time></trkpt><trkpt lat="34.3975364" lon="7.9676017"><ele>339.5714285714286</ele><time>2026-04-30T13:37:43.633Z</time></trkpt><trkpt lat="34.3974451" lon="7.9676056"><ele>339.2857142857143</ele><time>2026-04-30T13:37:46.612Z</time></trkpt><trkpt lat="34.397367" lon="7.9676068"><ele>339.0</ele><time>2026-04-30T13:37:48.619Z</time></trkpt><trkpt lat="34.3972485" lon="7.9675674"><ele>339.0</ele><time>2026-04-30T13:37:50.596Z</time></trkpt><trkpt lat="34.3971784" lon="7.967542"><ele>339.0</ele><time>2026-04-30T13:37:51.651Z</time></trkpt><trkpt lat="34.3970904" lon="7.967516"><ele>339.0</ele><time>2026-04-30T13:37:52.625Z</time></trkpt><trkpt lat="34.3969795" lon="7.9674873"><ele>339.0</ele><time>2026-04-30T13:37:53.611Z</time></trkpt><trkpt lat="34.3968576" lon="7.9674566"><ele>339.0</ele><time>2026-04-30T13:37:54.619Z</time></trkpt><trkpt lat="34.3967335" lon="7.9674194"><ele>338.25</ele><time>2026-04-30T13:37:55.626Z</time></trkpt><trkpt lat="34.3966066" lon="7.9673702"><ele>337.5</ele><time>2026-04-30T13:37:56.584Z</time></trkpt><trkpt lat="34.3964923" lon="7.9673136"><ele>336.75</ele><time>2026-04-30T13:37:57.628Z</time></trkpt><trkpt lat="34.3963807" lon="7.9672482"><ele>336.0</ele><time>2026-04-30T13:37:58.619Z</time></trkpt><trkpt lat="34.3962887" lon="7.9671565"><ele>336.0</ele><time>2026-04-30T13:37:59.596Z</time></trkpt><trkpt lat="34.3962107" lon="7.9670414"><ele>336.0</ele><time>2026-04-30T13:38:00.618Z</time></trkpt><trkpt lat="34.3961351" lon="7.9669147"><ele>336.0</ele><time>2026-04-30T13:38:01.583Z</time></trkpt><trkpt lat="34.3960636" lon="7.966778"><ele>336.0</ele><time>2026-04-30T13:38:02.621Z</time></trkpt><trkpt lat="34.3959963" lon="7.9666303"><ele>336.0</ele><time>2026-04-30T13:38:03.633Z</time></trkpt><trkpt lat="34.3959298" lon="7.966481"><ele>336.0</ele><time>2026-04-30T13:38:04.605Z</time></trkpt><trkpt lat="34.3958571" lon="7.9663199"><ele>336.0</ele><time>2026-04-30T13:38:05.637Z</time></trkpt><trkpt lat="34.3957797" lon="7.9661532"><ele>336.0</ele><time>2026-04-30T13:38:06.632Z</time></trkpt><trkpt lat="34.3957043" lon="7.9659779"><ele>337.0</ele><time>2026-04-30T13:38:07.651Z</time></trkpt><trkpt lat="34.3956254" lon="7.9657994"><ele>338.0</ele><time>2026-04-30T13:38:08.631Z</time></trkpt><trkpt lat="34.3955449" lon="7.9656128"><ele>339.0</ele><time>2026-04-30T13:38:09.627Z</time></trkpt><trkpt lat="34.395465" lon="7.9654248"><ele>335.6666666666667</ele><time>2026-04-30T13:38:10.617Z</time></trkpt><trkpt lat="34.3953859" lon="7.9652351"><ele>332.33333333333337</ele><time>2026-04-30T13:38:11.608Z</time></trkpt><trkpt lat="34.3953091" lon="7.9650389"><ele>329.0</ele><time>2026-04-30T13:38:12.628Z</time></trkpt><trkpt lat="34.3952348" lon="7.9648401"><ele>329.0</ele><time>2026-04-30T13:38:13.64Z</time></trkpt><trkpt lat="34.3951675" lon="7.9646398"><ele>329.0</ele><time>2026-04-30T13:38:14.615Z</time></trkpt><trkpt lat="34.3951014" lon="7.9644377"><ele>329.0</ele><time>2026-04-30T13:38:15.618Z</time></trkpt><trkpt lat="34.3950338" lon="7.9642365"><ele>329.6666666666667</ele><time>2026-04-30T13:38:16.59Z</time></trkpt><trkpt lat="34.3949657" lon="7.9640354"><ele>330.3333333333333</ele><time>2026-04-30T13:38:17.617Z</time></trkpt><trkpt lat="34.3948983" lon="7.9638392"><ele>331.0</ele><time>2026-04-30T13:38:18.62Z</time></trkpt><trkpt lat="34.3948335" lon="7.9636393"><ele>331.0</ele><time>2026-04-30T13:38:19.626Z</time></trkpt><trkpt lat="34.3947681" lon="7.9634391"><ele>331.0</ele><time>2026-04-30T13:38:20.613Z</time></trkpt><trkpt lat="34.3947025" lon="7.9632365"><ele>331.0</ele><time>2026-04-30T13:38:21.623Z</time></trkpt><trkpt lat="34.3946399" lon="7.963043"><ele>329.66666666666663</ele><time>2026-04-30T13:38:22.583Z</time></trkpt><trkpt lat="34.3945799" lon="7.9628477"><ele>328.3333333333333</ele><time>2026-04-30T13:38:23.606Z</time></trkpt><trkpt lat="34.3945264" lon="7.9626583"><ele>327.0</ele><time>2026-04-30T13:38:24.631Z</time></trkpt><trkpt lat="34.3944744" lon="7.962476"><ele>327.0</ele><time>2026-04-30T13:38:25.626Z</time></trkpt><trkpt lat="34.3944307" lon="7.9622961"><ele>327.0</ele><time>2026-04-30T13:38:26.609Z</time></trkpt><trkpt lat="34.3943887" lon="7.9621238"><ele>327.0</ele><time>2026-04-30T13:38:27.614Z</time></trkpt><trkpt lat="34.3943426" lon="7.9619505"><ele>327.0</ele><time>2026-04-30T13:38:28.563Z</time></trkpt><trkpt lat="34.394298" lon="7.9617765"><ele>327.0</ele><time>2026-04-30T13:38:29.592Z</time></trkpt><trkpt lat="34.3942496" lon="7.9615942"><ele>327.0</ele><time>2026-04-30T13:38:30.57Z</time></trkpt><trkpt lat="34.3942037" lon="7.9614106"><ele>327.6666666666667</ele><time>2026-04-30T13:38:31.588Z</time></trkpt><trkpt lat="34.3941585" lon="7.9612242"><ele>328.33333333333337</ele><time>2026-04-30T13:38:32.582Z</time></trkpt><trkpt lat="34.3941081" lon="7.9610277"><ele>329.0</ele><time>2026-04-30T13:38:33.562Z</time></trkpt><trkpt lat="34.3940512" lon="7.96084"><ele>330.33333333333337</ele><time>2026-04-30T13:38:34.577Z</time></trkpt><trkpt lat="34.3939893" lon="7.9606452"><ele>331.6666666666667</ele><time>2026-04-30T13:38:35.585Z</time></trkpt><trkpt lat="34.3939186" lon="7.9604402"><ele>333.0</ele><time>2026-04-30T13:38:36.625Z</time></trkpt><trkpt lat="34.3938474" lon="7.960238"><ele>328.0</ele><time>2026-04-30T13:38:37.607Z</time></trkpt><trkpt lat="34.39378" lon="7.9600307"><ele>323.0</ele><time>2026-04-30T13:38:38.599Z</time></trkpt><trkpt lat="34.3937194" lon="7.9598199"><ele>318.0</ele><time>2026-04-30T13:38:39.618Z</time></trkpt><trkpt lat="34.3936654" lon="7.9596032"><ele>318.0</ele><time>2026-04-30T13:38:40.614Z</time></trkpt><trkpt lat="34.3936114" lon="7.9593794"><ele>318.0</ele><time>2026-04-30T13:38:41.558Z</time></trkpt><trkpt lat="34.3935644" lon="7.9591598"><ele>318.0</ele><time>2026-04-30T13:38:42.602Z</time></trkpt><trkpt lat="34.3935155" lon="7.9589397"><ele>318.3333333333333</ele><time>2026-04-30T13:38:43.589Z</time></trkpt><trkpt lat="34.3934667" lon="7.95873"><ele>318.66666666666663</ele><time>2026-04-30T13:38:44.601Z</time></trkpt><trkpt lat="34.3934147" lon="7.9585182"><ele>319.0</ele><time>2026-04-30T13:38:45.608Z</time></trkpt><trkpt lat="34.3933594" lon="7.958308"><ele>320.0</ele><time>2026-04-30T13:38:46.588Z</time></trkpt><trkpt lat="34.3933029" lon="7.958097"><ele>321.0</ele><time>2026-04-30T13:38:47.613Z</time></trkpt><trkpt lat="34.3932407" lon="7.9578851"><ele>322.0</ele><time>2026-04-30T13:38:48.619Z</time></trkpt><trkpt lat="34.3931806" lon="7.9576671"><ele>323.66666666666663</ele><time>2026-04-30T13:38:49.603Z</time></trkpt><trkpt lat="34.3931253" lon="7.9574454"><ele>325.3333333333333</ele><time>2026-04-30T13:38:50.6Z</time></trkpt><trkpt lat="34.3930671" lon="7.9572272"><ele>327.0</ele><time>2026-04-30T13:38:51.596Z</time></trkpt><trkpt lat="34.3930081" lon="7.957001"><ele>323.0</ele><time>2026-04-30T13:38:52.57Z</time></trkpt><trkpt lat="34.3929539" lon="7.9567839"><ele>319.0</ele><time>2026-04-30T13:38:53.582Z</time></trkpt><trkpt lat="34.3929082" lon="7.956558"><ele>315.0</ele><time>2026-04-30T13:38:54.583Z</time></trkpt><trkpt lat="34.3928784" lon="7.956342"><ele>314.6666666666667</ele><time>2026-04-30T13:38:55.586Z</time></trkpt><trkpt lat="34.3928671" lon="7.9561355"><ele>314.33333333333337</ele><time>2026-04-30T13:38:56.584Z</time></trkpt><trkpt lat="34.3928846" lon="7.9559224"><ele>314.0</ele><time>2026-04-30T13:38:57.563Z</time></trkpt><trkpt lat="34.3929098" lon="7.9557192"><ele>315.33333333333337</ele><time>2026-04-30T13:38:58.588Z</time></trkpt><trkpt lat="34.3929237" lon="7.9555213"><ele>316.6666666666667</ele><time>2026-04-30T13:38:59.599Z</time></trkpt><trkpt lat="34.3929135" lon="7.9553192"><ele>318.0</ele><time>2026-04-30T13:39:00.582Z</time></trkpt><trkpt lat="34.3928802" lon="7.9551137"><ele>319.0</ele><time>2026-04-30T13:39:01.605Z</time></trkpt><trkpt lat="34.3928405" lon="7.9549154"><ele>320.0</ele><time>2026-04-30T13:39:02.589Z</time></trkpt><trkpt lat="34.3927884" lon="7.9547157"><ele>321.0</ele><time>2026-04-30T13:39:03.595Z</time></trkpt><trkpt lat="34.3927355" lon="7.954514"><ele>321.0</ele><time>2026-04-30T13:39:04.603Z</time></trkpt><trkpt lat="34.3926813" lon="7.954305"><ele>321.0</ele><time>2026-04-30T13:39:05.591Z</time></trkpt><trkpt lat="34.3926264" lon="7.954097"><ele>321.0</ele><time>2026-04-30T13:39:06.603Z</time></trkpt><trkpt lat="34.3925756" lon="7.953891"><ele>322.3333333333333</ele><time>2026-04-30T13:39:07.586Z</time></trkpt><trkpt lat="34.3925228" lon="7.9536883"><ele>323.66666666666663</ele><time>2026-04-30T13:39:08.579Z</time></trkpt><trkpt lat="34.3924702" lon="7.9534926"><ele>325.0</ele><time>2026-04-30T13:39:09.62Z</time></trkpt><trkpt lat="34.392412" lon="7.9532976"><ele>327.66666666666663</ele><time>2026-04-30T13:39:10.61Z</time></trkpt><trkpt lat="34.3923559" lon="7.9531117"><ele>330.3333333333333</ele><time>2026-04-30T13:39:11.617Z</time></trkpt><trkpt lat="34.392293" lon="7.952926"><ele>333.0</ele><time>2026-04-30T13:39:12.608Z</time></trkpt><trkpt lat="34.3922348" lon="7.9527394"><ele>328.6666666666667</ele><time>2026-04-30T13:39:13.586Z</time></trkpt><trkpt lat="34.3921728" lon="7.9525619"><ele>324.33333333333337</ele><time>2026-04-30T13:39:14.603Z</time></trkpt><trkpt lat="34.3921097" lon="7.9523768"><ele>320.0</ele><time>2026-04-30T13:39:15.613Z</time></trkpt><trkpt lat="34.3920495" lon="7.9521905"><ele>320.0</ele><time>2026-04-30T13:39:16.575Z</time></trkpt><trkpt lat="34.3919887" lon="7.9520051"><ele>320.0</ele><time>2026-04-30T13:39:17.589Z</time></trkpt><trkpt lat="34.3919304" lon="7.9518129"><ele>320.0</ele><time>2026-04-30T13:39:18.618Z</time></trkpt><trkpt lat="34.3918727" lon="7.9516232"><ele>321.6666666666667</ele><time>2026-04-30T13:39:19.587Z</time></trkpt><trkpt lat="34.3918197" lon="7.9514339"><ele>323.3333333333333</ele><time>2026-04-30T13:39:20.612Z</time></trkpt><trkpt lat="34.3917729" lon="7.9512464"><ele>325.0</ele><time>2026-04-30T13:39:21.613Z</time></trkpt><trkpt lat="34.3917379" lon="7.9510578"><ele>326.3333333333333</ele><time>2026-04-30T13:39:22.593Z</time></trkpt><trkpt lat="34.3917208" lon="7.9508572"><ele>327.6666666666667</ele><time>2026-04-30T13:39:23.603Z</time></trkpt><trkpt lat="34.3917113" lon="7.9506626"><ele>329.0</ele><time>2026-04-30T13:39:24.597Z</time></trkpt><trkpt lat="34.3916961" lon="7.9504716"><ele>329.0</ele><time>2026-04-30T13:39:25.606Z</time></trkpt><trkpt lat="34.3916711" lon="7.9502727"><ele>329.0</ele><time>2026-04-30T13:39:26.615Z</time></trkpt><trkpt lat="34.3916311" lon="7.950081"><ele>329.0</ele><time>2026-04-30T13:39:27.621Z</time></trkpt><trkpt lat="34.3915837" lon="7.9498922"><ele>331.0</ele><time>2026-04-30T13:39:28.622Z</time></trkpt><trkpt lat="34.3915435" lon="7.9497025"><ele>333.0</ele><time>2026-04-30T13:39:29.634Z</time></trkpt><trkpt lat="34.3915051" lon="7.9495185"><ele>335.0</ele><time>2026-04-30T13:39:30.559Z</time></trkpt><trkpt lat="34.3914651" lon="7.9493423"><ele>335.75</ele><time>2026-04-30T13:39:31.615Z</time></trkpt><trkpt lat="34.3914218" lon="7.9491808"><ele>336.5</ele><time>2026-04-30T13:39:32.578Z</time></trkpt><trkpt lat="34.3913615" lon="7.949032"><ele>337.25</ele><time>2026-04-30T13:39:33.622Z</time></trkpt><trkpt lat="34.3912919" lon="7.9489054"><ele>338.0</ele><time>2026-04-30T13:39:34.622Z</time></trkpt><trkpt lat="34.3912003" lon="7.948791"><ele>334.0</ele><time>2026-04-30T13:39:35.619Z</time></trkpt><trkpt lat="34.3911086" lon="7.9486811"><ele>330.0</ele><time>2026-04-30T13:39:36.615Z</time></trkpt><trkpt lat="34.3910153" lon="7.9485722"><ele>326.0</ele><time>2026-04-30T13:39:37.629Z</time></trkpt><trkpt lat="34.3909226" lon="7.9484576"><ele>322.0</ele><time>2026-04-30T13:39:38.611Z</time></trkpt><trkpt lat="34.3908296" lon="7.9483381"><ele>322.0</ele><time>2026-04-30T13:39:39.628Z</time></trkpt><trkpt lat="34.3907552" lon="7.9482028"><ele>322.0</ele><time>2026-04-30T13:39:40.608Z</time></trkpt><trkpt lat="34.3906964" lon="7.9480518"><ele>322.0</ele><time>2026-04-30T13:39:41.6Z</time></trkpt><trkpt lat="34.3906444" lon="7.9478963"><ele>322.0</ele><time>2026-04-30T13:39:42.601Z</time></trkpt><trkpt lat="34.3905874" lon="7.9477265"><ele>322.0</ele><time>2026-04-30T13:39:43.604Z</time></trkpt><trkpt lat="34.3905258" lon="7.9475593"><ele>322.0</ele><time>2026-04-30T13:39:44.615Z</time></trkpt><trkpt lat="34.3904619" lon="7.9473856"><ele>322.0</ele><time>2026-04-30T13:39:45.614Z</time></trkpt><trkpt lat="34.3903961" lon="7.9472104"><ele>317.0</ele><time>2026-04-30T13:39:46.589Z</time></trkpt><trkpt lat="34.3903333" lon="7.9470263"><ele>312.0</ele><time>2026-04-30T13:39:47.617Z</time></trkpt><trkpt lat="34.3902471" lon="7.9468475"><ele>307.0</ele><time>2026-04-30T13:39:48.615Z</time></trkpt><trkpt lat="34.3901346" lon="7.9466834"><ele>306.3333333333333</ele><time>2026-04-30T13:39:49.576Z</time></trkpt><trkpt lat="34.3900189" lon="7.9465351"><ele>305.6666666666667</ele><time>2026-04-30T13:39:50.573Z</time></trkpt><trkpt lat="34.3898998" lon="7.9464001"><ele>305.0</ele><time>2026-04-30T13:39:51.584Z</time></trkpt><trkpt lat="34.3897858" lon="7.9462714"><ele>302.6666666666667</ele><time>2026-04-30T13:39:52.588Z</time></trkpt><trkpt lat="34.3896747" lon="7.9461389"><ele>300.3333333333333</ele><time>2026-04-30T13:39:53.568Z</time></trkpt><trkpt lat="34.389566" lon="7.94601"><ele>298.0</ele><time>2026-04-30T13:39:54.601Z</time></trkpt><trkpt lat="34.3894552" lon="7.9458745"><ele>298.0</ele><time>2026-04-30T13:39:55.574Z</time></trkpt><trkpt lat="34.3893541" lon="7.9457451"><ele>298.0</ele><time>2026-04-30T13:39:56.625Z</time></trkpt><trkpt lat="34.3892506" lon="7.9456309"><ele>298.0</ele><time>2026-04-30T13:39:57.63Z</time></trkpt><trkpt lat="34.3891395" lon="7.9455134"><ele>298.0</ele><time>2026-04-30T13:39:58.644Z</time></trkpt><trkpt lat="34.3890168" lon="7.945427"><ele>298.0</ele><time>2026-04-30T13:39:59.574Z</time></trkpt><trkpt lat="34.3888712" lon="7.9453648"><ele>298.0</ele><time>2026-04-30T13:40:00.625Z</time></trkpt><trkpt lat="34.3887172" lon="7.9453271"><ele>298.0</ele><time>2026-04-30T13:40:01.628Z</time></trkpt><trkpt lat="34.3885633" lon="7.9452901"><ele>296.75</ele><time>2026-04-30T13:40:02.617Z</time></trkpt><trkpt lat="34.3884178" lon="7.9452545"><ele>295.5</ele><time>2026-04-30T13:40:03.63Z</time></trkpt><trkpt lat="34.3882802" lon="7.9452177"><ele>294.25</ele><time>2026-04-30T13:40:04.636Z</time></trkpt><trkpt lat="34.3881511" lon="7.9451716"><ele>293.0</ele><time>2026-04-30T13:40:05.613Z</time></trkpt><trkpt lat="34.3880371" lon="7.9451157"><ele>293.2</ele><time>2026-04-30T13:40:06.65Z</time></trkpt><trkpt lat="34.3879515" lon="7.9450433"><ele>293.4</ele><time>2026-04-30T13:40:07.637Z</time></trkpt><trkpt lat="34.3878919" lon="7.9449519"><ele>293.59999999999997</ele><time>2026-04-30T13:40:08.617Z</time></trkpt><trkpt lat="34.3878426" lon="7.9448567"><ele>293.8</ele><time>2026-04-30T13:40:09.62Z</time></trkpt><trkpt lat="34.3878074" lon="7.9447628"><ele>294.0</ele><time>2026-04-30T13:40:10.625Z</time></trkpt><trkpt lat="34.3877983" lon="7.9446725"><ele>294.0</ele><time>2026-04-30T13:40:11.615Z</time></trkpt><trkpt lat="34.3878024" lon="7.9445885"><ele>294.0</ele><time>2026-04-30T13:40:12.595Z</time></trkpt><trkpt lat="34.3878089" lon="7.9444762"><ele>294.0</ele><time>2026-04-30T13:40:13.631Z</time></trkpt><trkpt lat="34.387808" lon="7.9443758"><ele>294.0</ele><time>2026-04-30T13:40:14.613Z</time></trkpt><trkpt lat="34.3878039" lon="7.9442731"><ele>294.0</ele><time>2026-04-30T13:40:15.61Z</time></trkpt><trkpt lat="34.3878017" lon="7.9441635"><ele>294.0</ele><time>2026-04-30T13:40:16.605Z</time></trkpt><trkpt lat="34.3877986" lon="7.9440497"><ele>294.0</ele><time>2026-04-30T13:40:17.618Z</time></trkpt><trkpt lat="34.3877976" lon="7.9439397"><ele>294.0</ele><time>2026-04-30T13:40:18.634Z</time></trkpt><trkpt lat="34.3877963" lon="7.9438264"><ele>294.0</ele><time>2026-04-30T13:40:19.596Z</time></trkpt><trkpt lat="34.3877877" lon="7.9437162"><ele>294.0</ele><time>2026-04-30T13:40:20.593Z</time></trkpt><trkpt lat="34.3877717" lon="7.943603"><ele>294.0</ele><time>2026-04-30T13:40:21.619Z</time></trkpt><trkpt lat="34.3877501" lon="7.9434855"><ele>294.2</ele><time>2026-04-30T13:40:22.625Z</time></trkpt><trkpt lat="34.3877286" lon="7.9433588"><ele>294.4</ele><time>2026-04-30T13:40:23.617Z</time></trkpt><trkpt lat="34.3877029" lon="7.9432327"><ele>294.6</ele><time>2026-04-30T13:40:24.623Z</time></trkpt><trkpt lat="34.3876767" lon="7.9431065"><ele>294.8</ele><time>2026-04-30T13:40:25.625Z</time></trkpt><trkpt lat="34.3876546" lon="7.9429874"><ele>295.0</ele><time>2026-04-30T13:40:26.628Z</time></trkpt><trkpt lat="34.3876333" lon="7.9428779"><ele>295.0</ele><time>2026-04-30T13:40:27.621Z</time></trkpt><trkpt lat="34.3876133" lon="7.9427686"><ele>295.0</ele><time>2026-04-30T13:40:28.635Z</time></trkpt><trkpt lat="34.3875942" lon="7.9426497"><ele>295.0</ele><time>2026-04-30T13:40:29.644Z</time></trkpt><trkpt lat="34.3875742" lon="7.9425171"><ele>295.0</ele><time>2026-04-30T13:40:30.657Z</time></trkpt><trkpt lat="34.3875514" lon="7.9423824"><ele>295.0</ele><time>2026-04-30T13:40:31.632Z</time></trkpt><trkpt lat="34.3875264" lon="7.9422469"><ele>295.0</ele><time>2026-04-30T13:40:32.639Z</time></trkpt><trkpt lat="34.3875014" lon="7.942114"><ele>295.0</ele><time>2026-04-30T13:40:33.622Z</time></trkpt><trkpt lat="34.3874777" lon="7.9419788"><ele>295.0</ele><time>2026-04-30T13:40:34.652Z</time></trkpt><trkpt lat="34.3874511" lon="7.9418479"><ele>295.0</ele><time>2026-04-30T13:40:35.657Z</time></trkpt><trkpt lat="34.3874239" lon="7.9417248"><ele>295.0</ele><time>2026-04-30T13:40:36.61Z</time></trkpt><trkpt lat="34.3873973" lon="7.941614"><ele>295.16666666666663</ele><time>2026-04-30T13:40:37.659Z</time></trkpt><trkpt lat="34.3873792" lon="7.9415101"><ele>295.3333333333333</ele><time>2026-04-30T13:40:38.624Z</time></trkpt><trkpt lat="34.3873615" lon="7.9414308"><ele>295.5</ele><time>2026-04-30T13:40:39.636Z</time></trkpt><trkpt lat="34.3873486" lon="7.9413455"><ele>295.6666666666667</ele><time>2026-04-30T13:40:41.635Z</time></trkpt><trkpt lat="34.3873053" lon="7.9412571"><ele>295.83333333333337</ele><time>2026-04-30T13:40:58.613Z</time></trkpt><trkpt lat="34.387253" lon="7.9411384"><ele>296.0</ele><time>2026-04-30T13:41:00.628Z</time></trkpt><trkpt lat="34.3872244" lon="7.9410484"><ele>296.0</ele><time>2026-04-30T13:41:01.576Z</time></trkpt><trkpt lat="34.3871937" lon="7.9409587"><ele>296.0</ele><time>2026-04-30T13:41:02.62Z</time></trkpt><trkpt lat="34.3871682" lon="7.940862"><ele>296.0</ele><time>2026-04-30T13:41:03.634Z</time></trkpt><trkpt lat="34.3871424" lon="7.9407538"><ele>296.0</ele><time>2026-04-30T13:41:04.621Z</time></trkpt><trkpt lat="34.3871137" lon="7.9406464"><ele>296.0</ele><time>2026-04-30T13:41:05.574Z</time></trkpt><trkpt lat="34.3870876" lon="7.9405392"><ele>296.0</ele><time>2026-04-30T13:41:06.617Z</time></trkpt><trkpt lat="34.3870633" lon="7.940424"><ele>296.2</ele><time>2026-04-30T13:41:07.615Z</time></trkpt><trkpt lat="34.3870427" lon="7.9403058"><ele>296.40000000000003</ele><time>2026-04-30T13:41:08.625Z</time></trkpt><trkpt lat="34.3870268" lon="7.9401806"><ele>296.6</ele><time>2026-04-30T13:41:09.632Z</time></trkpt><trkpt lat="34.3870192" lon="7.9400497"><ele>296.8</ele><time>2026-04-30T13:41:10.613Z</time></trkpt><trkpt lat="34.3870161" lon="7.9399158"><ele>297.0</ele><time>2026-04-30T13:41:11.632Z</time></trkpt><trkpt lat="34.3870166" lon="7.9397784"><ele>297.0</ele><time>2026-04-30T13:41:12.636Z</time></trkpt><trkpt lat="34.3870159" lon="7.9396331"><ele>297.0</ele><time>2026-04-30T13:41:13.635Z</time></trkpt><trkpt lat="34.3870163" lon="7.9394769"><ele>297.0</ele><time>2026-04-30T13:41:14.643Z</time></trkpt><trkpt lat="34.387021" lon="7.9393141"><ele>297.0</ele><time>2026-04-30T13:41:15.628Z</time></trkpt><trkpt lat="34.3870234" lon="7.9391494"><ele>296.75</ele><time>2026-04-30T13:41:16.635Z</time></trkpt><trkpt lat="34.3870291" lon="7.9389835"><ele>296.5</ele><time>2026-04-30T13:41:17.604Z</time></trkpt><trkpt lat="34.3870385" lon="7.9388105"><ele>296.25</ele><time>2026-04-30T13:41:18.597Z</time></trkpt><trkpt lat="34.3870498" lon="7.9386289"><ele>296.0</ele><time>2026-04-30T13:41:19.63Z</time></trkpt><trkpt lat="34.3870681" lon="7.9384485"><ele>295.33333333333337</ele><time>2026-04-30T13:41:20.618Z</time></trkpt><trkpt lat="34.3870837" lon="7.9382672"><ele>294.6666666666667</ele><time>2026-04-30T13:41:21.611Z</time></trkpt><trkpt lat="34.3871" lon="7.9380851"><ele>294.0</ele><time>2026-04-30T13:41:22.625Z</time></trkpt><trkpt lat="34.3871161" lon="7.9379016"><ele>294.0</ele><time>2026-04-30T13:41:23.614Z</time></trkpt><trkpt lat="34.3871276" lon="7.9377181"><ele>294.0</ele><time>2026-04-30T13:41:24.633Z</time></trkpt><trkpt lat="34.387139" lon="7.937533"><ele>294.0</ele><time>2026-04-30T13:41:25.653Z</time></trkpt><trkpt lat="34.3871468" lon="7.9373515"><ele>293.8</ele><time>2026-04-30T13:41:26.619Z</time></trkpt><trkpt lat="34.3871451" lon="7.9371879"><ele>293.59999999999997</ele><time>2026-04-30T13:41:27.628Z</time></trkpt><trkpt lat="34.3871424" lon="7.9370485"><ele>293.4</ele><time>2026-04-30T13:41:28.618Z</time></trkpt><trkpt lat="34.3871409" lon="7.9369301"><ele>293.2</ele><time>2026-04-30T13:41:29.638Z</time></trkpt><trkpt lat="34.3871348" lon="7.9368339"><ele>293.0</ele><time>2026-04-30T13:41:30.633Z</time></trkpt><trkpt lat="34.3871411" lon="7.936741"><ele>293.8</ele><time>2026-04-30T13:41:31.622Z</time></trkpt><trkpt lat="34.387144" lon="7.9366376"><ele>294.6</ele><time>2026-04-30T13:41:32.634Z</time></trkpt><trkpt lat="34.3871495" lon="7.9365227"><ele>295.4</ele><time>2026-04-30T13:41:33.627Z</time></trkpt><trkpt lat="34.3871515" lon="7.9364028"><ele>296.2</ele><time>2026-04-30T13:41:34.62Z</time></trkpt><trkpt lat="34.3871543" lon="7.9362752"><ele>297.0</ele><time>2026-04-30T13:41:35.633Z</time></trkpt><trkpt lat="34.3871558" lon="7.9361586"><ele>297.0</ele><time>2026-04-30T13:41:36.621Z</time></trkpt><trkpt lat="34.3871603" lon="7.9360608"><ele>297.0</ele><time>2026-04-30T13:41:37.633Z</time></trkpt><trkpt lat="34.3871501" lon="7.9359773"><ele>297.0</ele><time>2026-04-30T13:41:38.608Z</time></trkpt><trkpt lat="34.3871388" lon="7.9358788"><ele>299.0</ele><time>2026-04-30T13:41:40.578Z</time></trkpt><trkpt lat="34.3870966" lon="7.9358047"><ele>299.0</ele><time>2026-04-30T13:41:43.615Z</time></trkpt><trkpt lat="34.3870686" lon="7.9357353"><ele>299.0</ele><time>2026-04-30T13:41:48.615Z</time></trkpt></trkseg><trkseg><trkpt lat="34.3871205" lon="7.935677"><ele>299.0</ele><time>2026-04-30T13:55:16.561Z</time></trkpt><trkpt lat="34.3871572" lon="7.9355483"><ele>299.0</ele><time>2026-04-30T13:55:18.589Z</time></trkpt><trkpt lat="34.3871539" lon="7.9354701"><ele>299.0</ele><time>2026-04-30T13:55:19.575Z</time></trkpt><trkpt lat="34.3871257" lon="7.9353841"><ele>299.0</ele><time>2026-04-30T13:55:20.561Z</time></trkpt><trkpt lat="34.3870762" lon="7.9352557"><ele>299.0</ele><time>2026-04-30T13:55:21.61Z</time></trkpt><trkpt lat="34.3870345" lon="7.9351106"><ele>299.5</ele><time>2026-04-30T13:55:22.58Z</time></trkpt><trkpt lat="34.3869889" lon="7.93497"><ele>300.0</ele><time>2026-04-30T13:55:23.617Z</time></trkpt><trkpt lat="34.3869453" lon="7.9348265"><ele>300.5</ele><time>2026-04-30T13:55:24.563Z</time></trkpt><trkpt lat="34.3869085" lon="7.9346929"><ele>301.0</ele><time>2026-04-30T13:55:25.575Z</time></trkpt><trkpt lat="34.3868758" lon="7.9345676"><ele>301.0</ele><time>2026-04-30T13:55:26.561Z</time></trkpt><trkpt lat="34.3868412" lon="7.9344431"><ele>301.0</ele><time>2026-04-30T13:55:27.557Z</time></trkpt><trkpt lat="34.3868007" lon="7.9343196"><ele>301.0</ele><time>2026-04-30T13:55:28.562Z</time></trkpt><trkpt lat="34.3867594" lon="7.9341988"><ele>301.0</ele><time>2026-04-30T13:55:29.565Z</time></trkpt><trkpt lat="34.3866784" lon="7.9339681"><ele>301.66666666666663</ele><time>2026-04-30T13:55:31.603Z</time></trkpt><trkpt lat="34.3865638" lon="7.9336322"><ele>302.3333333333333</ele><time>2026-04-30T13:55:34.573Z</time></trkpt><trkpt lat="34.3865346" lon="7.9335274"><ele>303.0</ele><time>2026-04-30T13:55:35.573Z</time></trkpt><trkpt lat="34.3865049" lon="7.9334272"><ele>302.5</ele><time>2026-04-30T13:55:36.599Z</time></trkpt><trkpt lat="34.3864806" lon="7.9333284"><ele>302.0</ele><time>2026-04-30T13:55:37.568Z</time></trkpt><trkpt lat="34.3864511" lon="7.9332316"><ele>301.5</ele><time>2026-04-30T13:55:38.574Z</time></trkpt><trkpt lat="34.3864262" lon="7.9331242"><ele>301.0</ele><time>2026-04-30T13:55:39.599Z</time></trkpt><trkpt lat="34.3864108" lon="7.9330183"><ele>300.5</ele><time>2026-04-30T13:55:40.558Z</time></trkpt><trkpt lat="34.3863908" lon="7.9329145"><ele>300.0</ele><time>2026-04-30T13:55:41.572Z</time></trkpt><trkpt lat="34.3863753" lon="7.9328093"><ele>300.0</ele><time>2026-04-30T13:55:42.595Z</time></trkpt><trkpt lat="34.3863559" lon="7.9327069"><ele>300.0</ele><time>2026-04-30T13:55:43.601Z</time></trkpt><trkpt lat="34.3863451" lon="7.9326038"><ele>300.0</ele><time>2026-04-30T13:55:44.63Z</time></trkpt><trkpt lat="34.386336" lon="7.9325125"><ele>300.0</ele><time>2026-04-30T13:55:45.594Z</time></trkpt><trkpt lat="34.3863211" lon="7.9324247"><ele>300.0</ele><time>2026-04-30T13:55:46.615Z</time></trkpt><trkpt lat="34.3863095" lon="7.9323315"><ele>300.0</ele><time>2026-04-30T13:55:47.567Z</time></trkpt><trkpt lat="34.386298" lon="7.9322453"><ele>298.6</ele><time>2026-04-30T13:55:48.616Z</time></trkpt><trkpt lat="34.3862866" lon="7.932162"><ele>297.2</ele><time>2026-04-30T13:55:49.576Z</time></trkpt><trkpt lat="34.3862733" lon="7.9320136"><ele>295.8</ele><time>2026-04-30T13:55:51.583Z</time></trkpt><trkpt lat="34.3862574" lon="7.9318626"><ele>294.4</ele><time>2026-04-30T13:55:53.566Z</time></trkpt><trkpt lat="34.3862526" lon="7.9317553"><ele>293.0</ele><time>2026-04-30T13:55:54.565Z</time></trkpt><trkpt lat="34.3862548" lon="7.9316417"><ele>292.6666666666667</ele><time>2026-04-30T13:55:55.577Z</time></trkpt><trkpt lat="34.3862511" lon="7.9315336"><ele>292.33333333333337</ele><time>2026-04-30T13:55:56.564Z</time></trkpt><trkpt lat="34.3862378" lon="7.9314237"><ele>292.0</ele><time>2026-04-30T13:55:57.56Z</time></trkpt><trkpt lat="34.3862282" lon="7.9313218"><ele>291.6666666666667</ele><time>2026-04-30T13:55:58.579Z</time></trkpt><trkpt lat="34.3862182" lon="7.9312211"><ele>291.3333333333333</ele><time>2026-04-30T13:55:59.59Z</time></trkpt><trkpt lat="34.3862143" lon="7.9311279"><ele>291.0</ele><time>2026-04-30T13:56:00.561Z</time></trkpt><trkpt lat="34.3862078" lon="7.9310418"><ele>291.0</ele><time>2026-04-30T13:56:01.576Z</time></trkpt><trkpt lat="34.386201" lon="7.9309551"><ele>291.0</ele><time>2026-04-30T13:56:02.592Z</time></trkpt><trkpt lat="34.3861896" lon="7.9308611"><ele>291.0</ele><time>2026-04-30T13:56:03.608Z</time></trkpt><trkpt lat="34.3861755" lon="7.9307665"><ele>291.0</ele><time>2026-04-30T13:56:04.612Z</time></trkpt><trkpt lat="34.3861684" lon="7.9306674"><ele>291.0</ele><time>2026-04-30T13:56:05.636Z</time></trkpt><trkpt lat="34.3861595" lon="7.9305617"><ele>291.0</ele><time>2026-04-30T13:56:06.579Z</time></trkpt><trkpt lat="34.3861492" lon="7.9304404"><ele>291.1666666666667</ele><time>2026-04-30T13:56:07.624Z</time></trkpt><trkpt lat="34.3861423" lon="7.9303228"><ele>291.3333333333333</ele><time>2026-04-30T13:56:08.591Z</time></trkpt><trkpt lat="34.3861338" lon="7.9302088"><ele>291.5</ele><time>2026-04-30T13:56:09.633Z</time></trkpt><trkpt lat="34.3861215" lon="7.9301034"><ele>291.66666666666663</ele><time>2026-04-30T13:56:10.63Z</time></trkpt><trkpt lat="34.3861102" lon="7.9299998"><ele>291.8333333333333</ele><time>2026-04-30T13:56:11.603Z</time></trkpt><trkpt lat="34.3860914" lon="7.9299049"><ele>292.0</ele><time>2026-04-30T13:56:12.62Z</time></trkpt><trkpt lat="34.3860752" lon="7.9298184"><ele>291.4</ele><time>2026-04-30T13:56:13.613Z</time></trkpt><trkpt lat="34.3860601" lon="7.9297355"><ele>290.79999999999995</ele><time>2026-04-30T13:56:14.571Z</time></trkpt><trkpt lat="34.3860521" lon="7.9295956"><ele>290.2</ele><time>2026-04-30T13:56:16.648Z</time></trkpt><trkpt lat="34.386095" lon="7.9295205"><ele>289.59999999999997</ele><time>2026-04-30T13:56:18.619Z</time></trkpt><trkpt lat="34.3861944" lon="7.9294698"><ele>289.0</ele><time>2026-04-30T13:56:20.609Z</time></trkpt><trkpt lat="34.3863171" lon="7.929442"><ele>289.3333333333333</ele><time>2026-04-30T13:56:22.639Z</time></trkpt><trkpt lat="34.3864208" lon="7.9294338"><ele>289.66666666666663</ele><time>2026-04-30T13:56:24.574Z</time></trkpt><trkpt lat="34.3865125" lon="7.9294263"><ele>290.0</ele><time>2026-04-30T13:56:26.604Z</time></trkpt><trkpt lat="34.3865747" lon="7.9294083"><ele>290.3333333333333</ele><time>2026-04-30T13:56:28.627Z</time></trkpt><trkpt lat="34.3866397" lon="7.9293577"><ele>290.6666666666667</ele><time>2026-04-30T13:56:31.61Z</time></trkpt><trkpt lat="34.3866944" lon="7.9293147"><ele>291.0</ele><time>2026-04-30T13:56:38.605Z</time></trkpt><trkpt lat="34.3867741" lon="7.9293041"><ele>291.0</ele><time>2026-04-30T13:58:54.569Z</time></trkpt><trkpt lat="34.3867886" lon="7.9292292"><ele>291.0</ele><time>2026-04-30T13:58:59.616Z</time></trkpt><trkpt lat="34.3867228" lon="7.9292069"><ele>288.0</ele><time>2026-04-30T13:59:06.599Z</time></trkpt></trkseg><trkseg><trkpt lat="34.3866879" lon="7.9293927"><ele>291.0</ele><time>2026-04-30T15:52:25.743Z</time></trkpt><trkpt lat="34.3866775" lon="7.9293154"><ele>291.0</ele><time>2026-04-30T15:52:39.734Z</time></trkpt><trkpt lat="34.386738" lon="7.9293408"><ele>291.0</ele><time>2026-04-30T15:55:08.78Z</time></trkpt><trkpt lat="34.386669" lon="7.9293857"><ele>291.0</ele><time>2026-04-30T15:55:11.762Z</time></trkpt><trkpt lat="34.3866055" lon="7.9293932"><ele>291.0</ele><time>2026-04-30T15:55:13.77Z</time></trkpt><trkpt lat="34.3865182" lon="7.9294107"><ele>291.0</ele><time>2026-04-30T15:55:16.779Z</time></trkpt><trkpt lat="34.3864305" lon="7.9294281"><ele>291.0</ele><time>2026-04-30T15:55:19.787Z</time></trkpt><trkpt lat="34.3863498" lon="7.9294489"><ele>290.6</ele><time>2026-04-30T15:55:21.786Z</time></trkpt><trkpt lat="34.3862715" lon="7.9294702"><ele>290.20000000000005</ele><time>2026-04-30T15:55:23.741Z</time></trkpt><trkpt lat="34.3861769" lon="7.9294837"><ele>289.79999999999995</ele><time>2026-04-30T15:55:26.743Z</time></trkpt><trkpt lat="34.3861011" lon="7.9294971"><ele>289.4</ele><time>2026-04-30T15:55:29.74Z</time></trkpt><trkpt lat="34.3860171" lon="7.9295599"><ele>289.0</ele><time>2026-04-30T15:55:33.775Z</time></trkpt><trkpt lat="34.3860069" lon="7.9297259"><ele>289.0</ele><time>2026-04-30T15:55:35.785Z</time></trkpt><trkpt lat="34.3860129" lon="7.9298265"><ele>289.0</ele><time>2026-04-30T15:55:36.792Z</time></trkpt><trkpt lat="34.386029" lon="7.9299476"><ele>289.0</ele><time>2026-04-30T15:55:37.74Z</time></trkpt><trkpt lat="34.3860559" lon="7.9300825"><ele>289.0</ele><time>2026-04-30T15:55:38.78Z</time></trkpt><trkpt lat="34.3860817" lon="7.9302215"><ele>289.0</ele><time>2026-04-30T15:55:39.79Z</time></trkpt><trkpt lat="34.3861091" lon="7.93038"><ele>289.5</ele><time>2026-04-30T15:55:40.785Z</time></trkpt><trkpt lat="34.3861274" lon="7.9305337"><ele>290.0</ele><time>2026-04-30T15:55:41.787Z</time></trkpt><trkpt lat="34.3861421" lon="7.9306837"><ele>290.5</ele><time>2026-04-30T15:55:42.781Z</time></trkpt><trkpt lat="34.3861497" lon="7.9308253"><ele>291.0</ele><time>2026-04-30T15:55:43.764Z</time></trkpt><trkpt lat="34.3861573" lon="7.9309508"><ele>291.0</ele><time>2026-04-30T15:55:44.797Z</time></trkpt><trkpt lat="34.3861663" lon="7.9310735"><ele>291.0</ele><time>2026-04-30T15:55:45.794Z</time></trkpt><trkpt lat="34.3861726" lon="7.9311764"><ele>291.0</ele><time>2026-04-30T15:55:46.787Z</time></trkpt><trkpt lat="34.3861816" lon="7.9312621"><ele>291.0</ele><time>2026-04-30T15:55:47.777Z</time></trkpt><trkpt lat="34.3861951" lon="7.9313826"><ele>291.0</ele><time>2026-04-30T15:55:49.786Z</time></trkpt><trkpt lat="34.3862089" lon="7.9315341"><ele>291.0</ele><time>2026-04-30T15:55:51.791Z</time></trkpt><trkpt lat="34.3862182" lon="7.931624"><ele>291.0</ele><time>2026-04-30T15:55:52.774Z</time></trkpt><trkpt lat="34.3862232" lon="7.9317088"><ele>291.0</ele><time>2026-04-30T15:55:53.803Z</time></trkpt><trkpt lat="34.3862342" lon="7.9317982"><ele>291.0</ele><time>2026-04-30T15:55:54.781Z</time></trkpt><trkpt lat="34.386247" lon="7.9318905"><ele>291.0</ele><time>2026-04-30T15:55:55.782Z</time></trkpt><trkpt lat="34.3862536" lon="7.9319835"><ele>291.0</ele><time>2026-04-30T15:55:56.797Z</time></trkpt><trkpt lat="34.3862572" lon="7.9320598"><ele>291.0</ele><time>2026-04-30T15:55:57.788Z</time></trkpt><trkpt lat="34.3862694" lon="7.9322085"><ele>291.2857142857143</ele><time>2026-04-30T15:55:59.781Z</time></trkpt><trkpt lat="34.3862793" lon="7.9322868"><ele>291.57142857142856</ele><time>2026-04-30T15:56:00.773Z</time></trkpt><trkpt lat="34.3862921" lon="7.9323723"><ele>291.85714285714283</ele><time>2026-04-30T15:56:01.779Z</time></trkpt><trkpt lat="34.3863043" lon="7.9324567"><ele>292.1428571428571</ele><time>2026-04-30T15:56:02.797Z</time></trkpt><trkpt lat="34.3863189" lon="7.9325513"><ele>292.42857142857144</ele><time>2026-04-30T15:56:03.761Z</time></trkpt><trkpt lat="34.386335" lon="7.9326405"><ele>292.71428571428567</ele><time>2026-04-30T15:56:04.779Z</time></trkpt><trkpt lat="34.3863517" lon="7.9327349"><ele>293.0</ele><time>2026-04-30T15:56:05.777Z</time></trkpt><trkpt lat="34.3863667" lon="7.9328347"><ele>294.4</ele><time>2026-04-30T15:56:06.782Z</time></trkpt><trkpt lat="34.3863809" lon="7.9329356"><ele>295.8</ele><time>2026-04-30T15:56:07.751Z</time></trkpt><trkpt lat="34.3863979" lon="7.9330453"><ele>297.2</ele><time>2026-04-30T15:56:08.808Z</time></trkpt><trkpt lat="34.3864152" lon="7.9331479"><ele>298.6</ele><time>2026-04-30T15:56:09.786Z</time></trkpt><trkpt lat="34.3864413" lon="7.9332579"><ele>300.0</ele><time>2026-04-30T15:56:10.785Z</time></trkpt><trkpt lat="34.3864672" lon="7.9333759"><ele>300.75</ele><time>2026-04-30T15:56:11.8Z</time></trkpt><trkpt lat="34.3864954" lon="7.9334998"><ele>301.5</ele><time>2026-04-30T15:56:12.787Z</time></trkpt><trkpt lat="34.3865273" lon="7.9336266"><ele>302.25</ele><time>2026-04-30T15:56:13.783Z</time></trkpt><trkpt lat="34.3865656" lon="7.9337572"><ele>303.0</ele><time>2026-04-30T15:56:14.783Z</time></trkpt><trkpt lat="34.3866112" lon="7.9338922"><ele>303.0</ele><time>2026-04-30T15:56:15.791Z</time></trkpt><trkpt lat="34.3866653" lon="7.9340393"><ele>303.0</ele><time>2026-04-30T15:56:16.798Z</time></trkpt><trkpt lat="34.3867173" lon="7.9341906"><ele>303.0</ele><time>2026-04-30T15:56:17.752Z</time></trkpt><trkpt lat="34.3867702" lon="7.9343464"><ele>303.0</ele><time>2026-04-30T15:56:18.786Z</time></trkpt><trkpt lat="34.3868255" lon="7.9345059"><ele>302.5</ele><time>2026-04-30T15:56:19.79Z</time></trkpt><trkpt lat="34.3868771" lon="7.9346592"><ele>302.0</ele><time>2026-04-30T15:56:20.791Z</time></trkpt><trkpt lat="34.3869276" lon="7.9348069"><ele>301.5</ele><time>2026-04-30T15:56:21.8Z</time></trkpt><trkpt lat="34.3869743" lon="7.9349574"><ele>301.0</ele><time>2026-04-30T15:56:22.782Z</time></trkpt><trkpt lat="34.38702" lon="7.9351068"><ele>300.5</ele><time>2026-04-30T15:56:23.804Z</time></trkpt><trkpt lat="34.3870618" lon="7.9352517"><ele>300.0</ele><time>2026-04-30T15:56:24.787Z</time></trkpt><trkpt lat="34.3870947" lon="7.935392"><ele>299.5</ele><time>2026-04-30T15:56:25.783Z</time></trkpt><trkpt lat="34.3871154" lon="7.9355222"><ele>299.0</ele><time>2026-04-30T15:56:26.777Z</time></trkpt><trkpt lat="34.3871252" lon="7.9356472"><ele>299.0</ele><time>2026-04-30T15:56:27.779Z</time></trkpt><trkpt lat="34.3871285" lon="7.9357572"><ele>299.0</ele><time>2026-04-30T15:56:28.788Z</time></trkpt><trkpt lat="34.3871286" lon="7.9358572"><ele>299.0</ele><time>2026-04-30T15:56:29.793Z</time></trkpt><trkpt lat="34.3871268" lon="7.9359537"><ele>299.0</ele><time>2026-04-30T15:56:30.792Z</time></trkpt><trkpt lat="34.3871216" lon="7.9360486"><ele>299.0</ele><time>2026-04-30T15:56:31.788Z</time></trkpt><trkpt lat="34.3871155" lon="7.9361492"><ele>299.0</ele><time>2026-04-30T15:56:32.792Z</time></trkpt><trkpt lat="34.3871134" lon="7.9362541"><ele>298.59999999999997</ele><time>2026-04-30T15:56:33.791Z</time></trkpt><trkpt lat="34.387108" lon="7.9363694"><ele>298.2</ele><time>2026-04-30T15:56:34.783Z</time></trkpt><trkpt lat="34.3871007" lon="7.9364884"><ele>297.79999999999995</ele><time>2026-04-30T15:56:35.793Z</time></trkpt><trkpt lat="34.3870983" lon="7.9366084"><ele>297.4</ele><time>2026-04-30T15:56:36.773Z</time></trkpt><trkpt lat="34.3870979" lon="7.9367249"><ele>297.0</ele><time>2026-04-30T15:56:37.8Z</time></trkpt><trkpt lat="34.3871019" lon="7.9368291"><ele>296.3333333333333</ele><time>2026-04-30T15:56:38.793Z</time></trkpt><trkpt lat="34.3870964" lon="7.9369253"><ele>295.6666666666667</ele><time>2026-04-30T15:56:39.757Z</time></trkpt><trkpt lat="34.387094" lon="7.9370103"><ele>295.0</ele><time>2026-04-30T15:56:40.776Z</time></trkpt><trkpt lat="34.3870925" lon="7.9370908"><ele>294.33333333333337</ele><time>2026-04-30T15:56:41.782Z</time></trkpt><trkpt lat="34.3870946" lon="7.9371724"><ele>293.6666666666667</ele><time>2026-04-30T15:56:42.786Z</time></trkpt><trkpt lat="34.3870932" lon="7.9372698"><ele>293.0</ele><time>2026-04-30T15:56:43.777Z</time></trkpt><trkpt lat="34.387094" lon="7.9373841"><ele>293.0</ele><time>2026-04-30T15:56:44.763Z</time></trkpt><trkpt lat="34.3870937" lon="7.9375157"><ele>293.0</ele><time>2026-04-30T15:56:45.777Z</time></trkpt><trkpt lat="34.387083" lon="7.9376734"><ele>293.0</ele><time>2026-04-30T15:56:46.776Z</time></trkpt><trkpt lat="34.3870655" lon="7.9378353"><ele>293.0</ele><time>2026-04-30T15:56:47.778Z</time></trkpt><trkpt lat="34.3870474" lon="7.9380001"><ele>293.25</ele><time>2026-04-30T15:56:48.773Z</time></trkpt><trkpt lat="34.3870313" lon="7.9381637"><ele>293.5</ele><time>2026-04-30T15:56:49.771Z</time></trkpt><trkpt lat="34.3870175" lon="7.9383301"><ele>293.75</ele><time>2026-04-30T15:56:50.793Z</time></trkpt><trkpt lat="34.3870055" lon="7.9384997"><ele>294.0</ele><time>2026-04-30T15:56:51.778Z</time></trkpt><trkpt lat="34.3869933" lon="7.9386753"><ele>294.5</ele><time>2026-04-30T15:56:52.785Z</time></trkpt><trkpt lat="34.3869838" lon="7.9388561"><ele>295.0</ele><time>2026-04-30T15:56:53.781Z</time></trkpt><trkpt lat="34.3869775" lon="7.9390352"><ele>295.5</ele><time>2026-04-30T15:56:54.787Z</time></trkpt><trkpt lat="34.3869756" lon="7.9392194"><ele>296.0</ele><time>2026-04-30T15:56:55.787Z</time></trkpt><trkpt lat="34.3869726" lon="7.9394041"><ele>296.33333333333337</ele><time>2026-04-30T15:56:56.781Z</time></trkpt><trkpt lat="34.3869722" lon="7.9395902"><ele>296.6666666666667</ele><time>2026-04-30T15:56:57.745Z</time></trkpt><trkpt lat="34.3869692" lon="7.93978"><ele>297.0</ele><time>2026-04-30T15:56:58.75Z</time></trkpt><trkpt lat="34.3869666" lon="7.9399734"><ele>296.0</ele><time>2026-04-30T15:56:59.781Z</time></trkpt><trkpt lat="34.3869709" lon="7.9401736"><ele>295.0</ele><time>2026-04-30T15:57:00.77Z</time></trkpt><trkpt lat="34.3869702" lon="7.9403773"><ele>294.0</ele><time>2026-04-30T15:57:01.772Z</time></trkpt><trkpt lat="34.3869692" lon="7.9405661"><ele>294.0</ele><time>2026-04-30T15:57:02.777Z</time></trkpt><trkpt lat="34.3869699" lon="7.9407424"><ele>294.0</ele><time>2026-04-30T15:57:03.774Z</time></trkpt><trkpt lat="34.3869686" lon="7.9409044"><ele>294.0</ele><time>2026-04-30T15:57:04.778Z</time></trkpt><trkpt lat="34.3869614" lon="7.9410516"><ele>294.0</ele><time>2026-04-30T15:57:05.77Z</time></trkpt><trkpt lat="34.3869478" lon="7.9411862"><ele>293.8333333333333</ele><time>2026-04-30T15:57:06.767Z</time></trkpt><trkpt lat="34.3869337" lon="7.9413112"><ele>293.6666666666667</ele><time>2026-04-30T15:57:07.78Z</time></trkpt><trkpt lat="34.3869279" lon="7.9414183"><ele>293.5</ele><time>2026-04-30T15:57:08.735Z</time></trkpt><trkpt lat="34.3869301" lon="7.9414976"><ele>293.33333333333337</ele><time>2026-04-30T15:57:09.766Z</time></trkpt><trkpt lat="34.3869356" lon="7.9415754"><ele>293.1666666666667</ele><time>2026-04-30T15:57:10.772Z</time></trkpt><trkpt lat="34.3869438" lon="7.9416568"><ele>293.0</ele><time>2026-04-30T15:57:11.768Z</time></trkpt><trkpt lat="34.3869567" lon="7.9417466"><ele>292.83333333333337</ele><time>2026-04-30T15:57:12.767Z</time></trkpt><trkpt lat="34.3869704" lon="7.9418403"><ele>292.6666666666667</ele><time>2026-04-30T15:57:13.765Z</time></trkpt><trkpt lat="34.3869829" lon="7.9419384"><ele>292.5</ele><time>2026-04-30T15:57:14.771Z</time></trkpt><trkpt lat="34.3869941" lon="7.9420414"><ele>292.3333333333333</ele><time>2026-04-30T15:57:15.773Z</time></trkpt><trkpt lat="34.3870058" lon="7.9421537"><ele>292.16666666666663</ele><time>2026-04-30T15:57:16.764Z</time></trkpt><trkpt lat="34.3870173" lon="7.9422545"><ele>292.0</ele><time>2026-04-30T15:57:17.773Z</time></trkpt><trkpt lat="34.3870333" lon="7.942358"><ele>292.0</ele><time>2026-04-30T15:57:18.763Z</time></trkpt><trkpt lat="34.3870548" lon="7.9424594"><ele>292.0</ele><time>2026-04-30T15:57:19.754Z</time></trkpt><trkpt lat="34.3870798" lon="7.9425736"><ele>292.0</ele><time>2026-04-30T15:57:20.773Z</time></trkpt><trkpt lat="34.3871046" lon="7.9426921"><ele>292.0</ele><time>2026-04-30T15:57:21.762Z</time></trkpt><trkpt lat="34.3871134" lon="7.9428131"><ele>292.0</ele><time>2026-04-30T15:57:22.778Z</time></trkpt><trkpt lat="34.3871239" lon="7.9429418"><ele>292.0</ele><time>2026-04-30T15:57:23.757Z</time></trkpt><trkpt lat="34.3871266" lon="7.9430589"><ele>292.0</ele><time>2026-04-30T15:57:24.765Z</time></trkpt><trkpt lat="34.3871259" lon="7.9431731"><ele>292.0</ele><time>2026-04-30T15:57:25.775Z</time></trkpt><trkpt lat="34.3871229" lon="7.9432713"><ele>292.0</ele><time>2026-04-30T15:57:26.761Z</time></trkpt><trkpt lat="34.3871318" lon="7.9433614"><ele>292.0</ele><time>2026-04-30T15:57:27.765Z</time></trkpt><trkpt lat="34.3871453" lon="7.9434464"><ele>292.0</ele><time>2026-04-30T15:57:28.771Z</time></trkpt><trkpt lat="34.3871547" lon="7.9435289"><ele>292.0</ele><time>2026-04-30T15:57:29.774Z</time></trkpt><trkpt lat="34.3871598" lon="7.9436082"><ele>292.0</ele><time>2026-04-30T15:57:30.787Z</time></trkpt><trkpt lat="34.3871652" lon="7.9437024"><ele>292.0</ele><time>2026-04-30T15:57:31.773Z</time></trkpt><trkpt lat="34.3871692" lon="7.9438092"><ele>292.0</ele><time>2026-04-30T15:57:32.773Z</time></trkpt><trkpt lat="34.3871784" lon="7.9439203"><ele>292.0</ele><time>2026-04-30T15:57:33.769Z</time></trkpt><trkpt lat="34.387195" lon="7.9440313"><ele>292.0</ele><time>2026-04-30T15:57:34.775Z</time></trkpt><trkpt lat="34.3872096" lon="7.9441382"><ele>292.3333333333333</ele><time>2026-04-30T15:57:35.782Z</time></trkpt><trkpt lat="34.3872253" lon="7.9442352"><ele>292.66666666666663</ele><time>2026-04-30T15:57:36.766Z</time></trkpt><trkpt lat="34.3872394" lon="7.9443178"><ele>293.0</ele><time>2026-04-30T15:57:37.77Z</time></trkpt><trkpt lat="34.3872561" lon="7.9443983"><ele>293.3333333333333</ele><time>2026-04-30T15:57:38.758Z</time></trkpt><trkpt lat="34.3872757" lon="7.9444827"><ele>293.6666666666667</ele><time>2026-04-30T15:57:39.769Z</time></trkpt><trkpt lat="34.3872985" lon="7.9445776"><ele>294.0</ele><time>2026-04-30T15:57:40.77Z</time></trkpt><trkpt lat="34.3873245" lon="7.9446773"><ele>294.0</ele><time>2026-04-30T15:57:41.763Z</time></trkpt><trkpt lat="34.3873486" lon="7.9447707"><ele>294.0</ele><time>2026-04-30T15:57:42.758Z</time></trkpt><trkpt lat="34.3873772" lon="7.944865"><ele>294.0</ele><time>2026-04-30T15:57:43.766Z</time></trkpt><trkpt lat="34.3874141" lon="7.9449357"><ele>294.0</ele><time>2026-04-30T15:57:44.752Z</time></trkpt><trkpt lat="34.3874602" lon="7.9449899"><ele>294.0</ele><time>2026-04-30T15:57:45.766Z</time></trkpt><trkpt lat="34.3875145" lon="7.945039"><ele>294.0</ele><time>2026-04-30T15:57:46.776Z</time></trkpt><trkpt lat="34.3875865" lon="7.9450842"><ele>294.0</ele><time>2026-04-30T15:57:47.76Z</time></trkpt><trkpt lat="34.3876676" lon="7.9451228"><ele>293.75</ele><time>2026-04-30T15:57:48.776Z</time></trkpt><trkpt lat="34.3877575" lon="7.9451374"><ele>293.5</ele><time>2026-04-30T15:57:49.757Z</time></trkpt><trkpt lat="34.3878691" lon="7.9451486"><ele>293.25</ele><time>2026-04-30T15:57:50.767Z</time></trkpt><trkpt lat="34.3880027" lon="7.9451686"><ele>293.0</ele><time>2026-04-30T15:57:51.77Z</time></trkpt><trkpt lat="34.3881492" lon="7.9451998"><ele>293.0</ele><time>2026-04-30T15:57:52.763Z</time></trkpt><trkpt lat="34.3883063" lon="7.9452378"><ele>293.0</ele><time>2026-04-30T15:57:53.748Z</time></trkpt><trkpt lat="34.3884608" lon="7.9452835"><ele>293.0</ele><time>2026-04-30T15:57:54.761Z</time></trkpt><trkpt lat="34.3886127" lon="7.9453231"><ele>293.0</ele><time>2026-04-30T15:57:55.747Z</time></trkpt><trkpt lat="34.3887475" lon="7.9453649"><ele>293.0</ele><time>2026-04-30T15:57:56.769Z</time></trkpt><trkpt lat="34.3888714" lon="7.9454081"><ele>293.0</ele><time>2026-04-30T15:57:57.766Z</time></trkpt><trkpt lat="34.3889858" lon="7.9454638"><ele>293.0</ele><time>2026-04-30T15:57:58.77Z</time></trkpt><trkpt lat="34.389092" lon="7.9455332"><ele>293.5</ele><time>2026-04-30T15:57:59.75Z</time></trkpt><trkpt lat="34.3891955" lon="7.9456171"><ele>294.0</ele><time>2026-04-30T15:58:00.748Z</time></trkpt><trkpt lat="34.3892969" lon="7.9457114"><ele>294.5</ele><time>2026-04-30T15:58:01.769Z</time></trkpt><trkpt lat="34.3893935" lon="7.9458188"><ele>295.0</ele><time>2026-04-30T15:58:02.764Z</time></trkpt><trkpt lat="34.3894923" lon="7.9459419"><ele>295.0</ele><time>2026-04-30T15:58:03.761Z</time></trkpt><trkpt lat="34.3895952" lon="7.9460725"><ele>295.0</ele><time>2026-04-30T15:58:04.767Z</time></trkpt><trkpt lat="34.3897141" lon="7.9462126"><ele>295.0</ele><time>2026-04-30T15:58:05.796Z</time></trkpt><trkpt lat="34.3898368" lon="7.946365"><ele>298.3333333333333</ele><time>2026-04-30T15:58:06.763Z</time></trkpt><trkpt lat="34.3899625" lon="7.9465224"><ele>301.6666666666667</ele><time>2026-04-30T15:58:07.754Z</time></trkpt><trkpt lat="34.3900736" lon="7.9466749"><ele>305.0</ele><time>2026-04-30T15:58:08.752Z</time></trkpt><trkpt lat="34.3901694" lon="7.946813"><ele>305.6666666666667</ele><time>2026-04-30T15:58:09.769Z</time></trkpt><trkpt lat="34.3902469" lon="7.9469857"><ele>306.3333333333333</ele><time>2026-04-30T15:58:10.764Z</time></trkpt><trkpt lat="34.3903288" lon="7.9471773"><ele>307.0</ele><time>2026-04-30T15:58:11.768Z</time></trkpt><trkpt lat="34.3904124" lon="7.9473861"><ele>305.66666666666663</ele><time>2026-04-30T15:58:12.769Z</time></trkpt><trkpt lat="34.3904972" lon="7.9476028"><ele>304.3333333333333</ele><time>2026-04-30T15:58:13.753Z</time></trkpt><trkpt lat="34.3905757" lon="7.947821"><ele>303.0</ele><time>2026-04-30T15:58:14.77Z</time></trkpt><trkpt lat="34.3906514" lon="7.9480262"><ele>309.0</ele><time>2026-04-30T15:58:15.765Z</time></trkpt><trkpt lat="34.3907314" lon="7.9482129"><ele>315.0</ele><time>2026-04-30T15:58:16.77Z</time></trkpt><trkpt lat="34.3908434" lon="7.9483811"><ele>321.0</ele><time>2026-04-30T15:58:17.779Z</time></trkpt><trkpt lat="34.3909705" lon="7.9485418"><ele>321.0</ele><time>2026-04-30T15:58:18.771Z</time></trkpt><trkpt lat="34.3911164" lon="7.9487075"><ele>321.0</ele><time>2026-04-30T15:58:19.753Z</time></trkpt><trkpt lat="34.391243" lon="7.9488812"><ele>321.0</ele><time>2026-04-30T15:58:20.78Z</time></trkpt><trkpt lat="34.3913409" lon="7.9490728"><ele>325.6666666666667</ele><time>2026-04-30T15:58:21.785Z</time></trkpt><trkpt lat="34.3914145" lon="7.9492699"><ele>330.33333333333337</ele><time>2026-04-30T15:58:22.788Z</time></trkpt><trkpt lat="34.3914667" lon="7.9494959"><ele>335.0</ele><time>2026-04-30T15:58:23.792Z</time></trkpt><trkpt lat="34.3915017" lon="7.9497413"><ele>335.0</ele><time>2026-04-30T15:58:24.734Z</time></trkpt><trkpt lat="34.3915637" lon="7.9500205"><ele>335.0</ele><time>2026-04-30T15:58:25.782Z</time></trkpt><trkpt lat="34.3916216" lon="7.9502943"><ele>332.0</ele><time>2026-04-30T15:58:26.751Z</time></trkpt><trkpt lat="34.3916698" lon="7.9505782"><ele>329.0</ele><time>2026-04-30T15:58:27.782Z</time></trkpt><trkpt lat="34.3916945" lon="7.9508514"><ele>327.0</ele><time>2026-04-30T15:58:28.73Z</time></trkpt><trkpt lat="34.3917163" lon="7.9511195"><ele>325.0</ele><time>2026-04-30T15:58:29.775Z</time></trkpt><trkpt lat="34.3917693" lon="7.9513927"><ele>325.0</ele><time>2026-04-30T15:58:30.773Z</time></trkpt><trkpt lat="34.3918591" lon="7.9516943"><ele>325.0</ele><time>2026-04-30T15:58:31.789Z</time></trkpt><trkpt lat="34.3919632" lon="7.9520013"><ele>322.5</ele><time>2026-04-30T15:58:32.78Z</time></trkpt><trkpt lat="34.3920661" lon="7.9523334"><ele>320.0</ele><time>2026-04-30T15:58:33.785Z</time></trkpt><trkpt lat="34.3921762" lon="7.952669"><ele>326.5</ele><time>2026-04-30T15:58:34.789Z</time></trkpt><trkpt lat="34.3922834" lon="7.9529971"><ele>333.0</ele><time>2026-04-30T15:58:35.759Z</time></trkpt><trkpt lat="34.3923785" lon="7.9533112"><ele>329.0</ele><time>2026-04-30T15:58:36.791Z</time></trkpt><trkpt lat="34.39247" lon="7.9536194"><ele>325.0</ele><time>2026-04-30T15:58:37.791Z</time></trkpt><trkpt lat="34.3925562" lon="7.9539245"><ele>323.0</ele><time>2026-04-30T15:58:38.772Z</time></trkpt><trkpt lat="34.3926356" lon="7.9542159"><ele>321.0</ele><time>2026-04-30T15:58:39.788Z</time></trkpt><trkpt lat="34.3927082" lon="7.95449"><ele>321.0</ele><time>2026-04-30T15:58:40.757Z</time></trkpt><trkpt lat="34.3927673" lon="7.9547398"><ele>321.0</ele><time>2026-04-30T15:58:41.775Z</time></trkpt><trkpt lat="34.3928242" lon="7.9549676"><ele>321.0</ele><time>2026-04-30T15:58:42.766Z</time></trkpt><trkpt lat="34.3928639" lon="7.9551895"><ele>320.0</ele><time>2026-04-30T15:58:43.773Z</time></trkpt><trkpt lat="34.3928787" lon="7.9554157"><ele>319.0</ele><time>2026-04-30T15:58:44.78Z</time></trkpt><trkpt lat="34.3928723" lon="7.9556469"><ele>318.0</ele><time>2026-04-30T15:58:45.782Z</time></trkpt><trkpt lat="34.3928566" lon="7.9558979"><ele>316.6666666666667</ele><time>2026-04-30T15:58:46.774Z</time></trkpt><trkpt lat="34.3928427" lon="7.9561456"><ele>315.33333333333337</ele><time>2026-04-30T15:58:47.754Z</time></trkpt><trkpt lat="34.3928564" lon="7.9564009"><ele>314.0</ele><time>2026-04-30T15:58:48.753Z</time></trkpt><trkpt lat="34.3928974" lon="7.9566463"><ele>314.33333333333337</ele><time>2026-04-30T15:58:49.772Z</time></trkpt><trkpt lat="34.3929554" lon="7.9568948"><ele>314.6666666666667</ele><time>2026-04-30T15:58:50.769Z</time></trkpt><trkpt lat="34.3930257" lon="7.957146"><ele>315.0</ele><time>2026-04-30T15:58:51.796Z</time></trkpt><trkpt lat="34.3930887" lon="7.957392"><ele>317.3333333333333</ele><time>2026-04-30T15:58:52.783Z</time></trkpt><trkpt lat="34.3931488" lon="7.9576324"><ele>319.66666666666663</ele><time>2026-04-30T15:58:53.765Z</time></trkpt><trkpt lat="34.393209" lon="7.9578709"><ele>322.0</ele><time>2026-04-30T15:58:54.748Z</time></trkpt><trkpt lat="34.3932699" lon="7.9581012"><ele>322.0</ele><time>2026-04-30T15:58:55.779Z</time></trkpt><trkpt lat="34.3933332" lon="7.9583271"><ele>322.0</ele><time>2026-04-30T15:58:56.765Z</time></trkpt><trkpt lat="34.3933991" lon="7.9585447"><ele>322.0</ele><time>2026-04-30T15:58:57.763Z</time></trkpt><trkpt lat="34.3934526" lon="7.9587466"><ele>321.0</ele><time>2026-04-30T15:58:58.763Z</time></trkpt><trkpt lat="34.3934938" lon="7.9589484"><ele>320.0</ele><time>2026-04-30T15:58:59.789Z</time></trkpt><trkpt lat="34.3935323" lon="7.9591448"><ele>319.0</ele><time>2026-04-30T15:59:00.746Z</time></trkpt><trkpt lat="34.3935673" lon="7.959342"><ele>318.66666666666663</ele><time>2026-04-30T15:59:01.77Z</time></trkpt><trkpt lat="34.3936075" lon="7.9595328"><ele>318.3333333333333</ele><time>2026-04-30T15:59:02.728Z</time></trkpt><trkpt lat="34.3936546" lon="7.9597216"><ele>318.0</ele><time>2026-04-30T15:59:03.765Z</time></trkpt><trkpt lat="34.3937048" lon="7.9599115"><ele>318.6666666666667</ele><time>2026-04-30T15:59:04.774Z</time></trkpt><trkpt lat="34.3937527" lon="7.9600949"><ele>319.33333333333337</ele><time>2026-04-30T15:59:05.767Z</time></trkpt><trkpt lat="34.3938097" lon="7.9602768"><ele>320.0</ele><time>2026-04-30T15:59:06.766Z</time></trkpt><trkpt lat="34.3938634" lon="7.9604619"><ele>323.0</ele><time>2026-04-30T15:59:07.747Z</time></trkpt><trkpt lat="34.3939313" lon="7.9606503"><ele>326.0</ele><time>2026-04-30T15:59:08.774Z</time></trkpt><trkpt lat="34.3939988" lon="7.9608549"><ele>329.0</ele><time>2026-04-30T15:59:09.756Z</time></trkpt><trkpt lat="34.3940629" lon="7.9610648"><ele>329.0</ele><time>2026-04-30T15:59:10.777Z</time></trkpt><trkpt lat="34.3941275" lon="7.9612756"><ele>329.0</ele><time>2026-04-30T15:59:11.753Z</time></trkpt><trkpt lat="34.3941892" lon="7.9614991"><ele>329.0</ele><time>2026-04-30T15:59:12.77Z</time></trkpt><trkpt lat="34.3942457" lon="7.9617244"><ele>328.33333333333337</ele><time>2026-04-30T15:59:13.779Z</time></trkpt><trkpt lat="34.394298" lon="7.9619552"><ele>327.6666666666667</ele><time>2026-04-30T15:59:14.768Z</time></trkpt><trkpt lat="34.3943589" lon="7.9621846"><ele>327.0</ele><time>2026-04-30T15:59:15.775Z</time></trkpt><trkpt lat="34.3944235" lon="7.962428"><ele>327.0</ele><time>2026-04-30T15:59:16.791Z</time></trkpt><trkpt lat="34.394494" lon="7.9626712"><ele>327.0</ele><time>2026-04-30T15:59:17.769Z</time></trkpt><trkpt lat="34.3945724" lon="7.962927"><ele>327.0</ele><time>2026-04-30T15:59:18.757Z</time></trkpt><trkpt lat="34.3946536" lon="7.9631887"><ele>329.0</ele><time>2026-04-30T15:59:19.782Z</time></trkpt><trkpt lat="34.3947351" lon="7.9634457"><ele>331.0</ele><time>2026-04-30T15:59:20.775Z</time></trkpt><trkpt lat="34.3948164" lon="7.9637091"><ele>331.0</ele><time>2026-04-30T15:59:21.79Z</time></trkpt><trkpt lat="34.394903" lon="7.9639616"><ele>331.0</ele><time>2026-04-30T15:59:22.801Z</time></trkpt><trkpt lat="34.3949894" lon="7.9642209"><ele>330.3333333333333</ele><time>2026-04-30T15:59:23.793Z</time></trkpt><trkpt lat="34.3950718" lon="7.9644746"><ele>329.6666666666667</ele><time>2026-04-30T15:59:24.788Z</time></trkpt><trkpt lat="34.3951547" lon="7.9647217"><ele>329.0</ele><time>2026-04-30T15:59:25.785Z</time></trkpt><trkpt lat="34.3952484" lon="7.9649732"><ele>329.0</ele><time>2026-04-30T15:59:26.785Z</time></trkpt><trkpt lat="34.3953453" lon="7.9652231"><ele>329.0</ele><time>2026-04-30T15:59:27.751Z</time></trkpt><trkpt lat="34.3954482" lon="7.9654719"><ele>332.5</ele><time>2026-04-30T15:59:28.775Z</time></trkpt><trkpt lat="34.3955554" lon="7.965725"><ele>336.0</ele><time>2026-04-30T15:59:29.788Z</time></trkpt><trkpt lat="34.3956635" lon="7.9659721"><ele>336.0</ele><time>2026-04-30T15:59:30.786Z</time></trkpt><trkpt lat="34.3957664" lon="7.9662106"><ele>336.0</ele><time>2026-04-30T15:59:31.792Z</time></trkpt><trkpt lat="34.395866" lon="7.9664303"><ele>336.0</ele><time>2026-04-30T15:59:32.772Z</time></trkpt><trkpt lat="34.3959599" lon="7.9666347"><ele>335.0</ele><time>2026-04-30T15:59:33.801Z</time></trkpt><trkpt lat="34.3960501" lon="7.9668206"><ele>334.0</ele><time>2026-04-30T15:59:34.773Z</time></trkpt><trkpt lat="34.3961408" lon="7.9669936"><ele>333.0</ele><time>2026-04-30T15:59:35.787Z</time></trkpt><trkpt lat="34.3962454" lon="7.9671359"><ele>334.0</ele><time>2026-04-30T15:59:36.782Z</time></trkpt><trkpt lat="34.3963696" lon="7.9672609"><ele>335.0</ele><time>2026-04-30T15:59:37.772Z</time></trkpt><trkpt lat="34.3965162" lon="7.9673544"><ele>336.0</ele><time>2026-04-30T15:59:38.784Z</time></trkpt><trkpt lat="34.3966818" lon="7.9674258"><ele>336.0</ele><time>2026-04-30T15:59:39.752Z</time></trkpt><trkpt lat="34.3968695" lon="7.9674912"><ele>336.0</ele><time>2026-04-30T15:59:40.784Z</time></trkpt><trkpt lat="34.39706" lon="7.9675416"><ele>336.0</ele><time>2026-04-30T15:59:41.784Z</time></trkpt><trkpt lat="34.3972517" lon="7.9676117"><ele>337.0</ele><time>2026-04-30T15:59:42.786Z</time></trkpt><trkpt lat="34.397443" lon="7.9677103"><ele>338.0</ele><time>2026-04-30T15:59:43.793Z</time></trkpt><trkpt lat="34.3976394" lon="7.9678439"><ele>339.0</ele><time>2026-04-30T15:59:44.787Z</time></trkpt><trkpt lat="34.397835" lon="7.9679996"><ele>340.0</ele><time>2026-04-30T15:59:45.789Z</time></trkpt><trkpt lat="34.3980232" lon="7.9681767"><ele>341.0</ele><time>2026-04-30T15:59:46.797Z</time></trkpt><trkpt lat="34.3981986" lon="7.9683578"><ele>341.6666666666667</ele><time>2026-04-30T15:59:47.764Z</time></trkpt><trkpt lat="34.3983628" lon="7.9685342"><ele>342.3333333333333</ele><time>2026-04-30T15:59:48.796Z</time></trkpt><trkpt lat="34.3985286" lon="7.9686948"><ele>343.0</ele><time>2026-04-30T15:59:49.806Z</time></trkpt><trkpt lat="34.3986915" lon="7.9688389"><ele>344.0</ele><time>2026-04-30T15:59:50.782Z</time></trkpt><trkpt lat="34.398857" lon="7.9689783"><ele>345.0</ele><time>2026-04-30T15:59:51.762Z</time></trkpt><trkpt lat="34.3990214" lon="7.9691085"><ele>346.0</ele><time>2026-04-30T15:59:52.791Z</time></trkpt><trkpt lat="34.3991952" lon="7.9692348"><ele>346.3333333333333</ele><time>2026-04-30T15:59:53.796Z</time></trkpt><trkpt lat="34.3993814" lon="7.9693509"><ele>346.6666666666667</ele><time>2026-04-30T15:59:54.785Z</time></trkpt><trkpt lat="34.3995654" lon="7.9694585"><ele>347.0</ele><time>2026-04-30T15:59:55.786Z</time></trkpt><trkpt lat="34.3997532" lon="7.9695585"><ele>348.0</ele><time>2026-04-30T15:59:56.79Z</time></trkpt><trkpt lat="34.3999403" lon="7.9696569"><ele>349.0</ele><time>2026-04-30T15:59:57.775Z</time></trkpt><trkpt lat="34.4001224" lon="7.9697467"><ele>350.0</ele><time>2026-04-30T15:59:58.777Z</time></trkpt><trkpt lat="34.4003092" lon="7.9698343"><ele>350.0</ele><time>2026-04-30T15:59:59.77Z</time></trkpt><trkpt lat="34.4004972" lon="7.9699209"><ele>350.0</ele><time>2026-04-30T16:00:00.784Z</time></trkpt><trkpt lat="34.4006837" lon="7.9700118"><ele>350.0</ele><time>2026-04-30T16:00:01.77Z</time></trkpt><trkpt lat="34.400866" lon="7.9701029"><ele>351.6666666666667</ele><time>2026-04-30T16:00:02.754Z</time></trkpt><trkpt lat="34.401052" lon="7.9701881"><ele>353.3333333333333</ele><time>2026-04-30T16:00:03.755Z</time></trkpt><trkpt lat="34.401237" lon="7.9702776"><ele>355.0</ele><time>2026-04-30T16:00:04.769Z</time></trkpt><trkpt lat="34.4014274" lon="7.9703699"><ele>356.3333333333333</ele><time>2026-04-30T16:00:05.786Z</time></trkpt><trkpt lat="34.4016149" lon="7.9704655"><ele>357.6666666666667</ele><time>2026-04-30T16:00:06.793Z</time></trkpt><trkpt lat="34.4017995" lon="7.9705573"><ele>359.0</ele><time>2026-04-30T16:00:07.795Z</time></trkpt><trkpt lat="34.4019803" lon="7.970644"><ele>359.0</ele><time>2026-04-30T16:00:08.783Z</time></trkpt><trkpt lat="34.4021629" lon="7.9707285"><ele>359.0</ele><time>2026-04-30T16:00:09.782Z</time></trkpt><trkpt lat="34.4023513" lon="7.9708137"><ele>359.0</ele><time>2026-04-30T16:00:10.789Z</time></trkpt><trkpt lat="34.4025367" lon="7.9708956"><ele>360.6666666666667</ele><time>2026-04-30T16:00:11.801Z</time></trkpt><trkpt lat="34.4027233" lon="7.9709739"><ele>362.3333333333333</ele><time>2026-04-30T16:00:12.784Z</time></trkpt><trkpt lat="34.4029139" lon="7.9710488"><ele>364.0</ele><time>2026-04-30T16:00:13.778Z</time></trkpt><trkpt lat="34.4031064" lon="7.9711152"><ele>365.0</ele><time>2026-04-30T16:00:14.778Z</time></trkpt><trkpt lat="34.403299" lon="7.9711684"><ele>366.0</ele><time>2026-04-30T16:00:15.799Z</time></trkpt><trkpt lat="34.4034942" lon="7.9712175"><ele>367.0</ele><time>2026-04-30T16:00:16.798Z</time></trkpt><trkpt lat="34.4036874" lon="7.9712564"><ele>369.66666666666663</ele><time>2026-04-30T16:00:17.798Z</time></trkpt><trkpt lat="34.4038762" lon="7.9713009"><ele>372.3333333333333</ele><time>2026-04-30T16:00:18.79Z</time></trkpt><trkpt lat="34.4040615" lon="7.9713475"><ele>375.0</ele><time>2026-04-30T16:00:19.769Z</time></trkpt><trkpt lat="34.4042396" lon="7.9713909"><ele>375.0</ele><time>2026-04-30T16:00:20.795Z</time></trkpt><trkpt lat="34.4044155" lon="7.9714384"><ele>375.0</ele><time>2026-04-30T16:00:21.796Z</time></trkpt><trkpt lat="34.4045883" lon="7.9714928"><ele>375.0</ele><time>2026-04-30T16:00:22.79Z</time></trkpt><trkpt lat="34.4047513" lon="7.971553"><ele>377.5</ele><time>2026-04-30T16:00:23.782Z</time></trkpt><trkpt lat="34.4048965" lon="7.9716171"><ele>380.0</ele><time>2026-04-30T16:00:24.74Z</time></trkpt><trkpt lat="34.4050264" lon="7.9716796"><ele>382.5</ele><time>2026-04-30T16:00:25.729Z</time></trkpt><trkpt lat="34.4051399" lon="7.9717466"><ele>385.0</ele><time>2026-04-30T16:00:26.728Z</time></trkpt><trkpt lat="34.4052429" lon="7.9718183"><ele>385.4</ele><time>2026-04-30T16:00:27.771Z</time></trkpt><trkpt lat="34.4053299" lon="7.9718932"><ele>385.8</ele><time>2026-04-30T16:00:28.739Z</time></trkpt><trkpt lat="34.4054027" lon="7.9719702"><ele>386.20000000000005</ele><time>2026-04-30T16:00:29.779Z</time></trkpt><trkpt lat="34.4054559" lon="7.9720573"><ele>386.6</ele><time>2026-04-30T16:00:30.796Z</time></trkpt><trkpt lat="34.405499" lon="7.9721528"><ele>387.0</ele><time>2026-04-30T16:00:31.794Z</time></trkpt><trkpt lat="34.4055195" lon="7.9722607"><ele>387.25</ele><time>2026-04-30T16:00:32.78Z</time></trkpt><trkpt lat="34.4055288" lon="7.9723854"><ele>387.5</ele><time>2026-04-30T16:00:33.786Z</time></trkpt><trkpt lat="34.4055315" lon="7.9725363"><ele>387.75</ele><time>2026-04-30T16:00:34.784Z</time></trkpt><trkpt lat="34.405526" lon="7.9726997"><ele>388.0</ele><time>2026-04-30T16:00:35.806Z</time></trkpt><trkpt lat="34.4055176" lon="7.972879"><ele>388.0</ele><time>2026-04-30T16:00:36.789Z</time></trkpt><trkpt lat="34.4055189" lon="7.9730851"><ele>388.0</ele><time>2026-04-30T16:00:37.782Z</time></trkpt><trkpt lat="34.40552" lon="7.9733016"><ele>388.0</ele><time>2026-04-30T16:00:38.79Z</time></trkpt><trkpt lat="34.4055267" lon="7.9735244"><ele>388.0</ele><time>2026-04-30T16:00:39.784Z</time></trkpt><trkpt lat="34.4055285" lon="7.9737622"><ele>388.0</ele><time>2026-04-30T16:00:40.809Z</time></trkpt><trkpt lat="34.4055344" lon="7.9739981"><ele>388.0</ele><time>2026-04-30T16:00:41.794Z</time></trkpt><trkpt lat="34.4055427" lon="7.9742325"><ele>388.0</ele><time>2026-04-30T16:00:42.779Z</time></trkpt><trkpt lat="34.4055464" lon="7.9744741"><ele>388.0</ele><time>2026-04-30T16:00:43.769Z</time></trkpt><trkpt lat="34.4055548" lon="7.974718"><ele>388.0</ele><time>2026-04-30T16:00:44.767Z</time></trkpt><trkpt lat="34.4055626" lon="7.974964"><ele>389.6666666666667</ele><time>2026-04-30T16:00:45.78Z</time></trkpt><trkpt lat="34.4055725" lon="7.9752178"><ele>391.33333333333337</ele><time>2026-04-30T16:00:46.81Z</time></trkpt><trkpt lat="34.4055849" lon="7.9754799"><ele>393.0</ele><time>2026-04-30T16:00:47.798Z</time></trkpt><trkpt lat="34.4055932" lon="7.9757502"><ele>392.66666666666663</ele><time>2026-04-30T16:00:48.791Z</time></trkpt><trkpt lat="34.4055998" lon="7.9760112"><ele>392.3333333333333</ele><time>2026-04-30T16:00:49.788Z</time></trkpt><trkpt lat="34.4056023" lon="7.9762591"><ele>392.0</ele><time>2026-04-30T16:00:50.801Z</time></trkpt><trkpt lat="34.4056073" lon="7.97649"><ele>392.3333333333333</ele><time>2026-04-30T16:00:51.791Z</time></trkpt><trkpt lat="34.4056059" lon="7.9767128"><ele>392.66666666666663</ele><time>2026-04-30T16:00:52.793Z</time></trkpt><trkpt lat="34.4056078" lon="7.9769204"><ele>393.0</ele><time>2026-04-30T16:00:53.809Z</time></trkpt><trkpt lat="34.405614" lon="7.9771309"><ele>393.0</ele><time>2026-04-30T16:00:54.778Z</time></trkpt><trkpt lat="34.405623" lon="7.9773299"><ele>393.0</ele><time>2026-04-30T16:00:55.781Z</time></trkpt><trkpt lat="34.4056313" lon="7.9775333"><ele>393.0</ele><time>2026-04-30T16:00:56.755Z</time></trkpt><trkpt lat="34.405646" lon="7.9777332"><ele>393.5</ele><time>2026-04-30T16:00:57.776Z</time></trkpt><trkpt lat="34.4056563" lon="7.9779209"><ele>394.0</ele><time>2026-04-30T16:00:58.753Z</time></trkpt><trkpt lat="34.4056711" lon="7.9780939"><ele>394.5</ele><time>2026-04-30T16:00:59.765Z</time></trkpt><trkpt lat="34.4056849" lon="7.978252"><ele>395.0</ele><time>2026-04-30T16:01:00.763Z</time></trkpt><trkpt lat="34.4056923" lon="7.9783977"><ele>395.4</ele><time>2026-04-30T16:01:01.779Z</time></trkpt><trkpt lat="34.4056977" lon="7.9785268"><ele>395.8</ele><time>2026-04-30T16:01:02.788Z</time></trkpt><trkpt lat="34.4057055" lon="7.9786446"><ele>396.20000000000005</ele><time>2026-04-30T16:01:03.802Z</time></trkpt><trkpt lat="34.4057193" lon="7.9787769"><ele>396.6</ele><time>2026-04-30T16:01:04.792Z</time></trkpt><trkpt lat="34.4057394" lon="7.9789197"><ele>397.0</ele><time>2026-04-30T16:01:05.778Z</time></trkpt><trkpt lat="34.4057613" lon="7.9790819"><ele>397.5</ele><time>2026-04-30T16:01:06.789Z</time></trkpt><trkpt lat="34.4057864" lon="7.9792429"><ele>398.0</ele><time>2026-04-30T16:01:07.766Z</time></trkpt><trkpt lat="34.405813" lon="7.9794059"><ele>398.5</ele><time>2026-04-30T16:01:08.771Z</time></trkpt><trkpt lat="34.4058458" lon="7.9795623"><ele>399.0</ele><time>2026-04-30T16:01:09.797Z</time></trkpt><trkpt lat="34.4058818" lon="7.9797171"><ele>399.0</ele><time>2026-04-30T16:01:10.789Z</time></trkpt><trkpt lat="34.4059345" lon="7.9798663"><ele>399.0</ele><time>2026-04-30T16:01:11.786Z</time></trkpt><trkpt lat="34.4060051" lon="7.9800006"><ele>399.0</ele><time>2026-04-30T16:01:12.762Z</time></trkpt><trkpt lat="34.4060838" lon="7.9801417"><ele>399.0</ele><time>2026-04-30T16:01:13.779Z</time></trkpt><trkpt lat="34.4061617" lon="7.9802729"><ele>398.79999999999995</ele><time>2026-04-30T16:01:14.77Z</time></trkpt><trkpt lat="34.406237" lon="7.9803976"><ele>398.59999999999997</ele><time>2026-04-30T16:01:15.757Z</time></trkpt><trkpt lat="34.4063071" lon="7.9804999"><ele>398.4</ele><time>2026-04-30T16:01:16.777Z</time></trkpt><trkpt lat="34.4063661" lon="7.9805906"><ele>398.2</ele><time>2026-04-30T16:01:17.81Z</time></trkpt><trkpt lat="34.4064205" lon="7.9806517"><ele>398.0</ele><time>2026-04-30T16:01:18.762Z</time></trkpt><trkpt lat="34.4064834" lon="7.9807151"><ele>398.79999999999995</ele><time>2026-04-30T16:01:19.808Z</time></trkpt><trkpt lat="34.4065424" lon="7.9807831"><ele>399.6</ele><time>2026-04-30T16:01:20.798Z</time></trkpt><trkpt lat="34.4066105" lon="7.9808597"><ele>400.4</ele><time>2026-04-30T16:01:21.797Z</time></trkpt><trkpt lat="34.4066854" lon="7.9809465"><ele>401.20000000000005</ele><time>2026-04-30T16:01:22.794Z</time></trkpt><trkpt lat="34.4067679" lon="7.9810452"><ele>402.0</ele><time>2026-04-30T16:01:23.801Z</time></trkpt><trkpt lat="34.4068588" lon="7.9811433"><ele>402.0</ele><time>2026-04-30T16:01:24.802Z</time></trkpt><trkpt lat="34.4069566" lon="7.9812469"><ele>402.0</ele><time>2026-04-30T16:01:25.788Z</time></trkpt><trkpt lat="34.4070603" lon="7.9813626"><ele>402.0</ele><time>2026-04-30T16:01:26.787Z</time></trkpt><trkpt lat="34.4071648" lon="7.98148"><ele>402.0</ele><time>2026-04-30T16:01:27.78Z</time></trkpt><trkpt lat="34.4072682" lon="7.9816096"><ele>402.33333333333337</ele><time>2026-04-30T16:01:28.782Z</time></trkpt><trkpt lat="34.407375" lon="7.9817419"><ele>402.6666666666667</ele><time>2026-04-30T16:01:29.766Z</time></trkpt><trkpt lat="34.4074819" lon="7.9818782"><ele>403.0</ele><time>2026-04-30T16:01:30.781Z</time></trkpt><trkpt lat="34.4075862" lon="7.9820208"><ele>403.0</ele><time>2026-04-30T16:01:31.793Z</time></trkpt><trkpt lat="34.4076818" lon="7.9821598"><ele>403.0</ele><time>2026-04-30T16:01:32.788Z</time></trkpt><trkpt lat="34.4077655" lon="7.9823088"><ele>403.0</ele><time>2026-04-30T16:01:33.781Z</time></trkpt><trkpt lat="34.4078329" lon="7.9824723"><ele>403.0</ele><time>2026-04-30T16:01:34.764Z</time></trkpt><trkpt lat="34.4078898" lon="7.9826395"><ele>403.5</ele><time>2026-04-30T16:01:35.74Z</time></trkpt><trkpt lat="34.4079284" lon="7.9828191"><ele>404.0</ele><time>2026-04-30T16:01:36.766Z</time></trkpt><trkpt lat="34.4079661" lon="7.9829909"><ele>404.5</ele><time>2026-04-30T16:01:37.785Z</time></trkpt><trkpt lat="34.4080025" lon="7.9831642"><ele>405.0</ele><time>2026-04-30T16:01:38.781Z</time></trkpt><trkpt lat="34.4080369" lon="7.9833313"><ele>406.0</ele><time>2026-04-30T16:01:39.773Z</time></trkpt><trkpt lat="34.408071" lon="7.9835024"><ele>407.0</ele><time>2026-04-30T16:01:40.773Z</time></trkpt><trkpt lat="34.4081067" lon="7.9836794"><ele>408.0</ele><time>2026-04-30T16:01:41.765Z</time></trkpt><trkpt lat="34.4081475" lon="7.9838577"><ele>409.0</ele><time>2026-04-30T16:01:42.753Z</time></trkpt><trkpt lat="34.4081869" lon="7.9840302"><ele>409.33333333333337</ele><time>2026-04-30T16:01:43.791Z</time></trkpt><trkpt lat="34.4082273" lon="7.9842056"><ele>409.66666666666663</ele><time>2026-04-30T16:01:44.779Z</time></trkpt><trkpt lat="34.40827" lon="7.9843829"><ele>410.0</ele><time>2026-04-30T16:01:45.787Z</time></trkpt><trkpt lat="34.4083078" lon="7.984558"><ele>410.0</ele><time>2026-04-30T16:01:46.765Z</time></trkpt><trkpt lat="34.4083422" lon="7.9847373"><ele>410.0</ele><time>2026-04-30T16:01:47.789Z</time></trkpt><trkpt lat="34.4083771" lon="7.9849175"><ele>410.0</ele><time>2026-04-30T16:01:48.769Z</time></trkpt><trkpt lat="34.4084068" lon="7.9851021"><ele>410.3333333333333</ele><time>2026-04-30T16:01:49.777Z</time></trkpt><trkpt lat="34.4084322" lon="7.9852885"><ele>410.66666666666663</ele><time>2026-04-30T16:01:50.776Z</time></trkpt><trkpt lat="34.4084611" lon="7.9854766"><ele>411.0</ele><time>2026-04-30T16:01:51.776Z</time></trkpt><trkpt lat="34.4084863" lon="7.9856711"><ele>411.33333333333337</ele><time>2026-04-30T16:01:52.748Z</time></trkpt><trkpt lat="34.4085129" lon="7.9858693"><ele>411.6666666666667</ele><time>2026-04-30T16:01:53.767Z</time></trkpt><trkpt lat="34.4085375" lon="7.9860745"><ele>412.0</ele><time>2026-04-30T16:01:54.783Z</time></trkpt><trkpt lat="34.4085737" lon="7.9862951"><ele>412.0</ele><time>2026-04-30T16:01:55.782Z</time></trkpt><trkpt lat="34.4086083" lon="7.9865281"><ele>412.0</ele><time>2026-04-30T16:01:56.752Z</time></trkpt><trkpt lat="34.4086512" lon="7.9867698"><ele>412.0</ele><time>2026-04-30T16:01:57.796Z</time></trkpt><trkpt lat="34.4087049" lon="7.9870092"><ele>411.6666666666667</ele><time>2026-04-30T16:01:58.787Z</time></trkpt><trkpt lat="34.4087724" lon="7.987247"><ele>411.33333333333337</ele><time>2026-04-30T16:01:59.785Z</time></trkpt><trkpt lat="34.4088548" lon="7.9874778"><ele>411.0</ele><time>2026-04-30T16:02:00.747Z</time></trkpt><trkpt lat="34.4089469" lon="7.9877085"><ele>412.0</ele><time>2026-04-30T16:02:01.797Z</time></trkpt><trkpt lat="34.4090422" lon="7.9879291"><ele>413.0</ele><time>2026-04-30T16:02:02.79Z</time></trkpt><trkpt lat="34.4091384" lon="7.988157"><ele>414.0</ele><time>2026-04-30T16:02:03.8Z</time></trkpt><trkpt lat="34.4092168" lon="7.9883996"><ele>414.33333333333337</ele><time>2026-04-30T16:02:04.768Z</time></trkpt><trkpt lat="34.4092733" lon="7.9886449"><ele>414.6666666666667</ele><time>2026-04-30T16:02:05.802Z</time></trkpt><trkpt lat="34.4093101" lon="7.9888948"><ele>415.0</ele><time>2026-04-30T16:02:06.787Z</time></trkpt><trkpt lat="34.4093213" lon="7.9891497"><ele>415.33333333333337</ele><time>2026-04-30T16:02:07.782Z</time></trkpt><trkpt lat="34.409319" lon="7.9894076"><ele>415.66666666666663</ele><time>2026-04-30T16:02:08.779Z</time></trkpt><trkpt lat="34.4093099" lon="7.9896686"><ele>416.0</ele><time>2026-04-30T16:02:09.794Z</time></trkpt><trkpt lat="34.4092949" lon="7.9899319"><ele>415.66666666666663</ele><time>2026-04-30T16:02:10.806Z</time></trkpt><trkpt lat="34.4092791" lon="7.9901959"><ele>415.33333333333337</ele><time>2026-04-30T16:02:11.79Z</time></trkpt><trkpt lat="34.4092712" lon="7.9904658"><ele>415.0</ele><time>2026-04-30T16:02:12.779Z</time></trkpt><trkpt lat="34.4092751" lon="7.9907488"><ele>414.5</ele><time>2026-04-30T16:02:13.781Z</time></trkpt><trkpt lat="34.4092841" lon="7.991043"><ele>414.0</ele><time>2026-04-30T16:02:14.812Z</time></trkpt><trkpt lat="34.4092942" lon="7.9913384"><ele>414.0</ele><time>2026-04-30T16:02:15.804Z</time></trkpt><trkpt lat="34.4093153" lon="7.9916387"><ele>414.0</ele><time>2026-04-30T16:02:16.795Z</time></trkpt><trkpt lat="34.4093323" lon="7.9919316"><ele>414.5</ele><time>2026-04-30T16:02:17.798Z</time></trkpt><trkpt lat="34.4093517" lon="7.9922266"><ele>415.0</ele><time>2026-04-30T16:02:18.802Z</time></trkpt><trkpt lat="34.4093691" lon="7.9925254"><ele>415.0</ele><time>2026-04-30T16:02:19.81Z</time></trkpt><trkpt lat="34.4093878" lon="7.9928199"><ele>415.0</ele><time>2026-04-30T16:02:20.795Z</time></trkpt><trkpt lat="34.4094027" lon="7.9931126"><ele>416.0</ele><time>2026-04-30T16:02:21.816Z</time></trkpt><trkpt lat="34.4094223" lon="7.993401"><ele>417.0</ele><time>2026-04-30T16:02:22.782Z</time></trkpt><trkpt lat="34.4094424" lon="7.9936956"><ele>417.0</ele><time>2026-04-30T16:02:23.776Z</time></trkpt><trkpt lat="34.4094671" lon="7.9939934"><ele>417.0</ele><time>2026-04-30T16:02:24.783Z</time></trkpt><trkpt lat="34.409494" lon="7.9943012"><ele>416.0</ele><time>2026-04-30T16:02:25.752Z</time></trkpt><trkpt lat="34.4095188" lon="7.9946121"><ele>415.0</ele><time>2026-04-30T16:02:26.785Z</time></trkpt><trkpt lat="34.4095344" lon="7.9949193"><ele>415.5</ele><time>2026-04-30T16:02:27.766Z</time></trkpt><trkpt lat="34.4095427" lon="7.9952182"><ele>416.0</ele><time>2026-04-30T16:02:28.768Z</time></trkpt><trkpt lat="34.409551" lon="7.9955139"><ele>416.0</ele><time>2026-04-30T16:02:29.734Z</time></trkpt><trkpt lat="34.4095638" lon="7.9958091"><ele>416.0</ele><time>2026-04-30T16:02:30.787Z</time></trkpt><trkpt lat="34.4095729" lon="7.9960845"><ele>416.3333333333333</ele><time>2026-04-30T16:02:31.791Z</time></trkpt><trkpt lat="34.4095793" lon="7.9963505"><ele>416.66666666666663</ele><time>2026-04-30T16:02:32.793Z</time></trkpt><trkpt lat="34.409582" lon="7.9966059"><ele>417.0</ele><time>2026-04-30T16:02:33.785Z</time></trkpt><trkpt lat="34.4095828" lon="7.9968565"><ele>417.66666666666663</ele><time>2026-04-30T16:02:34.782Z</time></trkpt><trkpt lat="34.4095765" lon="7.9971014"><ele>418.3333333333333</ele><time>2026-04-30T16:02:35.764Z</time></trkpt><trkpt lat="34.4095663" lon="7.9973497"><ele>419.0</ele><time>2026-04-30T16:02:36.79Z</time></trkpt><trkpt lat="34.4095459" lon="7.9975924"><ele>419.66666666666663</ele><time>2026-04-30T16:02:37.773Z</time></trkpt><trkpt lat="34.4095165" lon="7.9978232"><ele>420.33333333333337</ele><time>2026-04-30T16:02:38.783Z</time></trkpt><trkpt lat="34.4094771" lon="7.9980607"><ele>421.0</ele><time>2026-04-30T16:02:39.794Z</time></trkpt><trkpt lat="34.409435" lon="7.9982983"><ele>421.6666666666667</ele><time>2026-04-30T16:02:40.769Z</time></trkpt><trkpt lat="34.4093866" lon="7.9985292"><ele>422.33333333333337</ele><time>2026-04-30T16:02:41.797Z</time></trkpt><trkpt lat="34.4093342" lon="7.9987522"><ele>423.0</ele><time>2026-04-30T16:02:42.794Z</time></trkpt><trkpt lat="34.4092828" lon="7.9989732"><ele>423.33333333333337</ele><time>2026-04-30T16:02:43.783Z</time></trkpt><trkpt lat="34.4092292" lon="7.9991963"><ele>423.6666666666667</ele><time>2026-04-30T16:02:44.774Z</time></trkpt><trkpt lat="34.4091805" lon="7.9994208"><ele>424.0</ele><time>2026-04-30T16:02:45.778Z</time></trkpt><trkpt lat="34.409135" lon="7.9996404"><ele>424.0</ele><time>2026-04-30T16:02:46.786Z</time></trkpt><trkpt lat="34.4090881" lon="7.9998697"><ele>424.0</ele><time>2026-04-30T16:02:47.796Z</time></trkpt><trkpt lat="34.409057" lon="8.0001064"><ele>424.0</ele><time>2026-04-30T16:02:48.793Z</time></trkpt><trkpt lat="34.4090354" lon="8.0003431"><ele>424.0</ele><time>2026-04-30T16:02:49.784Z</time></trkpt><trkpt lat="34.4090187" lon="8.0005846"><ele>424.0</ele><time>2026-04-30T16:02:50.78Z</time></trkpt><trkpt lat="34.409019" lon="8.0008215"><ele>424.0</ele><time>2026-04-30T16:02:51.754Z</time></trkpt><trkpt lat="34.4090411" lon="8.0010652"><ele>424.0</ele><time>2026-04-30T16:02:52.781Z</time></trkpt><trkpt lat="34.409069" lon="8.0013159"><ele>424.0</ele><time>2026-04-30T16:02:53.798Z</time></trkpt><trkpt lat="34.4090996" lon="8.0015665"><ele>424.0</ele><time>2026-04-30T16:02:54.784Z</time></trkpt><trkpt lat="34.4091349" lon="8.001811"><ele>424.0</ele><time>2026-04-30T16:02:55.788Z</time></trkpt><trkpt lat="34.4091686" lon="8.0020628"><ele>424.0</ele><time>2026-04-30T16:02:56.782Z</time></trkpt><trkpt lat="34.4092084" lon="8.0023123"><ele>424.0</ele><time>2026-04-30T16:02:57.788Z</time></trkpt><trkpt lat="34.4092477" lon="8.0025575"><ele>424.6666666666667</ele><time>2026-04-30T16:02:58.779Z</time></trkpt><trkpt lat="34.4092939" lon="8.0027982"><ele>425.33333333333337</ele><time>2026-04-30T16:02:59.786Z</time></trkpt><trkpt lat="34.4093436" lon="8.0030378"><ele>426.0</ele><time>2026-04-30T16:03:00.757Z</time></trkpt><trkpt lat="34.4093917" lon="8.0032747"><ele>425.66666666666663</ele><time>2026-04-30T16:03:01.786Z</time></trkpt><trkpt lat="34.4094409" lon="8.0035127"><ele>425.3333333333333</ele><time>2026-04-30T16:03:02.796Z</time></trkpt><trkpt lat="34.4094889" lon="8.0037508"><ele>425.0</ele><time>2026-04-30T16:03:03.776Z</time></trkpt><trkpt lat="34.4095369" lon="8.003985"><ele>426.0</ele><time>2026-04-30T16:03:04.766Z</time></trkpt><trkpt lat="34.4095844" lon="8.0042205"><ele>427.0</ele><time>2026-04-30T16:03:05.795Z</time></trkpt><trkpt lat="34.4096285" lon="8.004456"><ele>428.0</ele><time>2026-04-30T16:03:06.751Z</time></trkpt><trkpt lat="34.4096699" lon="8.004688"><ele>428.0</ele><time>2026-04-30T16:03:07.781Z</time></trkpt><trkpt lat="34.4097089" lon="8.004921"><ele>428.0</ele><time>2026-04-30T16:03:08.784Z</time></trkpt><trkpt lat="34.4097383" lon="8.0051536"><ele>428.0</ele><time>2026-04-30T16:03:09.751Z</time></trkpt><trkpt lat="34.4097518" lon="8.0053915"><ele>429.0</ele><time>2026-04-30T16:03:10.759Z</time></trkpt><trkpt lat="34.4097475" lon="8.0056311"><ele>430.0</ele><time>2026-04-30T16:03:11.793Z</time></trkpt><trkpt lat="34.4097319" lon="8.0058708"><ele>431.0</ele><time>2026-04-30T16:03:12.781Z</time></trkpt><trkpt lat="34.4097072" lon="8.0061119"><ele>430.66666666666663</ele><time>2026-04-30T16:03:13.774Z</time></trkpt><trkpt lat="34.4096738" lon="8.0063496"><ele>430.33333333333337</ele><time>2026-04-30T16:03:14.792Z</time></trkpt><trkpt lat="34.4096404" lon="8.006592"><ele>430.0</ele><time>2026-04-30T16:03:15.779Z</time></trkpt><trkpt lat="34.4096015" lon="8.0068309"><ele>431.33333333333337</ele><time>2026-04-30T16:03:16.804Z</time></trkpt><trkpt lat="34.4095571" lon="8.0070786"><ele>432.66666666666663</ele><time>2026-04-30T16:03:17.769Z</time></trkpt><trkpt lat="34.4095126" lon="8.0073181"><ele>434.0</ele><time>2026-04-30T16:03:18.795Z</time></trkpt><trkpt lat="34.4094769" lon="8.0075511"><ele>434.0</ele><time>2026-04-30T16:03:19.778Z</time></trkpt><trkpt lat="34.4094355" lon="8.0077903"><ele>434.0</ele><time>2026-04-30T16:03:20.784Z</time></trkpt><trkpt lat="34.4093923" lon="8.0080263"><ele>434.0</ele><time>2026-04-30T16:03:21.795Z</time></trkpt><trkpt lat="34.4093556" lon="8.0082644"><ele>434.0</ele><time>2026-04-30T16:03:22.78Z</time></trkpt><trkpt lat="34.4093143" lon="8.0085059"><ele>434.0</ele><time>2026-04-30T16:03:23.779Z</time></trkpt><trkpt lat="34.409272" lon="8.0087421"><ele>434.0</ele><time>2026-04-30T16:03:24.774Z</time></trkpt><trkpt lat="34.4092294" lon="8.008992"><ele>434.66666666666663</ele><time>2026-04-30T16:03:25.759Z</time></trkpt><trkpt lat="34.4091873" lon="8.0092355"><ele>435.33333333333337</ele><time>2026-04-30T16:03:26.783Z</time></trkpt><trkpt lat="34.4091454" lon="8.0094841"><ele>436.0</ele><time>2026-04-30T16:03:27.765Z</time></trkpt><trkpt lat="34.4090995" lon="8.0097323"><ele>436.0</ele><time>2026-04-30T16:03:28.777Z</time></trkpt><trkpt lat="34.4090513" lon="8.0099778"><ele>436.0</ele><time>2026-04-30T16:03:29.779Z</time></trkpt><trkpt lat="34.4090035" lon="8.0102273"><ele>436.0</ele><time>2026-04-30T16:03:30.779Z</time></trkpt><trkpt lat="34.4089624" lon="8.010477"><ele>436.0</ele><time>2026-04-30T16:03:31.794Z</time></trkpt><trkpt lat="34.4089155" lon="8.0107318"><ele>436.0</ele><time>2026-04-30T16:03:32.784Z</time></trkpt><trkpt lat="34.4088639" lon="8.0109926"><ele>436.0</ele><time>2026-04-30T16:03:33.785Z</time></trkpt><trkpt lat="34.4088092" lon="8.0112575"><ele>437.6666666666667</ele><time>2026-04-30T16:03:34.792Z</time></trkpt><trkpt lat="34.4087604" lon="8.0115255"><ele>439.33333333333337</ele><time>2026-04-30T16:03:35.777Z</time></trkpt><trkpt lat="34.4087124" lon="8.0117872"><ele>441.0</ele><time>2026-04-30T16:03:36.784Z</time></trkpt><trkpt lat="34.4086576" lon="8.0120484"><ele>442.66666666666663</ele><time>2026-04-30T16:03:37.757Z</time></trkpt><trkpt lat="34.408607" lon="8.012317"><ele>444.3333333333333</ele><time>2026-04-30T16:03:38.79Z</time></trkpt><trkpt lat="34.408555" lon="8.0125744"><ele>446.0</ele><time>2026-04-30T16:03:39.78Z</time></trkpt><trkpt lat="34.4084992" lon="8.0128325"><ele>446.3333333333333</ele><time>2026-04-30T16:03:40.787Z</time></trkpt><trkpt lat="34.4084422" lon="8.0130908"><ele>446.66666666666663</ele><time>2026-04-30T16:03:41.765Z</time></trkpt><trkpt lat="34.4083827" lon="8.0133519"><ele>447.0</ele><time>2026-04-30T16:03:42.772Z</time></trkpt><trkpt lat="34.4083191" lon="8.0136123"><ele>447.33333333333337</ele><time>2026-04-30T16:03:43.732Z</time></trkpt><trkpt lat="34.4082551" lon="8.0138707"><ele>447.6666666666667</ele><time>2026-04-30T16:03:44.776Z</time></trkpt><trkpt lat="34.408187" lon="8.0141219"><ele>448.0</ele><time>2026-04-30T16:03:45.761Z</time></trkpt><trkpt lat="34.4081111" lon="8.0143781"><ele>448.0</ele><time>2026-04-30T16:03:46.744Z</time></trkpt><trkpt lat="34.4080359" lon="8.0146334"><ele>448.0</ele><time>2026-04-30T16:03:47.739Z</time></trkpt><trkpt lat="34.4079628" lon="8.0148917"><ele>448.0</ele><time>2026-04-30T16:03:48.795Z</time></trkpt><trkpt lat="34.4078839" lon="8.0151435"><ele>448.0</ele><time>2026-04-30T16:03:49.792Z</time></trkpt><trkpt lat="34.4078108" lon="8.0153977"><ele>448.0</ele><time>2026-04-30T16:03:50.76Z</time></trkpt><trkpt lat="34.4077372" lon="8.0156463"><ele>448.0</ele><time>2026-04-30T16:03:51.78Z</time></trkpt><trkpt lat="34.4076669" lon="8.0159044"><ele>448.0</ele><time>2026-04-30T16:03:52.78Z</time></trkpt><trkpt lat="34.4076018" lon="8.0161628"><ele>448.0</ele><time>2026-04-30T16:03:53.778Z</time></trkpt><trkpt lat="34.4075514" lon="8.016426"><ele>448.0</ele><time>2026-04-30T16:03:54.791Z</time></trkpt><trkpt lat="34.4075182" lon="8.0166858"><ele>450.0</ele><time>2026-04-30T16:03:55.774Z</time></trkpt><trkpt lat="34.4074938" lon="8.0169589"><ele>452.0</ele><time>2026-04-30T16:03:56.799Z</time></trkpt><trkpt lat="34.4074803" lon="8.0172291"><ele>452.0</ele><time>2026-04-30T16:03:57.77Z</time></trkpt><trkpt lat="34.407472" lon="8.0174967"><ele>452.0</ele><time>2026-04-30T16:03:58.779Z</time></trkpt><trkpt lat="34.4074628" lon="8.0177665"><ele>452.0</ele><time>2026-04-30T16:03:59.784Z</time></trkpt><trkpt lat="34.4074512" lon="8.0180321"><ele>452.0</ele><time>2026-04-30T16:04:00.728Z</time></trkpt><trkpt lat="34.4074352" lon="8.0183036"><ele>452.0</ele><time>2026-04-30T16:04:01.789Z</time></trkpt><trkpt lat="34.4074159" lon="8.018579"><ele>452.0</ele><time>2026-04-30T16:04:02.765Z</time></trkpt><trkpt lat="34.4073987" lon="8.0188513"><ele>452.0</ele><time>2026-04-30T16:04:03.79Z</time></trkpt><trkpt lat="34.407385" lon="8.0191182"><ele>452.0</ele><time>2026-04-30T16:04:04.777Z</time></trkpt><trkpt lat="34.4073737" lon="8.0193833"><ele>452.66666666666663</ele><time>2026-04-30T16:04:05.774Z</time></trkpt><trkpt lat="34.4073626" lon="8.0196513"><ele>453.33333333333337</ele><time>2026-04-30T16:04:06.788Z</time></trkpt><trkpt lat="34.4073523" lon="8.019915"><ele>454.0</ele><time>2026-04-30T16:04:07.777Z</time></trkpt><trkpt lat="34.407339" lon="8.0201862"><ele>454.0</ele><time>2026-04-30T16:04:08.788Z</time></trkpt><trkpt lat="34.4073342" lon="8.0204551"><ele>454.0</ele><time>2026-04-30T16:04:09.782Z</time></trkpt><trkpt lat="34.4073508" lon="8.0207205"><ele>454.0</ele><time>2026-04-30T16:04:10.756Z</time></trkpt><trkpt lat="34.4073842" lon="8.0209876"><ele>453.5</ele><time>2026-04-30T16:04:11.785Z</time></trkpt><trkpt lat="34.4074332" lon="8.0212541"><ele>453.0</ele><time>2026-04-30T16:04:12.777Z</time></trkpt><trkpt lat="34.4075045" lon="8.0215182"><ele>453.66666666666663</ele><time>2026-04-30T16:04:13.773Z</time></trkpt><trkpt lat="34.4075787" lon="8.0217758"><ele>454.3333333333333</ele><time>2026-04-30T16:04:14.769Z</time></trkpt><trkpt lat="34.4076539" lon="8.0220307"><ele>455.0</ele><time>2026-04-30T16:04:15.777Z</time></trkpt><trkpt lat="34.4077355" lon="8.0222865"><ele>455.3333333333333</ele><time>2026-04-30T16:04:16.764Z</time></trkpt><trkpt lat="34.4078123" lon="8.022544"><ele>455.66666666666663</ele><time>2026-04-30T16:04:17.771Z</time></trkpt><trkpt lat="34.4078882" lon="8.022797"><ele>456.0</ele><time>2026-04-30T16:04:18.781Z</time></trkpt><trkpt lat="34.4079621" lon="8.0230517"><ele>454.33333333333337</ele><time>2026-04-30T16:04:19.787Z</time></trkpt><trkpt lat="34.4080379" lon="8.0233036"><ele>452.6666666666667</ele><time>2026-04-30T16:04:20.777Z</time></trkpt><trkpt lat="34.4081152" lon="8.023558"><ele>451.0</ele><time>2026-04-30T16:04:21.754Z</time></trkpt><trkpt lat="34.4081928" lon="8.0238099"><ele>450.6666666666667</ele><time>2026-04-30T16:04:22.776Z</time></trkpt><trkpt lat="34.4082624" lon="8.0240666"><ele>450.33333333333337</ele><time>2026-04-30T16:04:23.791Z</time></trkpt><trkpt lat="34.4083349" lon="8.0243198"><ele>450.0</ele><time>2026-04-30T16:04:24.794Z</time></trkpt><trkpt lat="34.408406" lon="8.0245764"><ele>450.0</ele><time>2026-04-30T16:04:25.784Z</time></trkpt><trkpt lat="34.4084796" lon="8.0248307"><ele>450.0</ele><time>2026-04-30T16:04:26.768Z</time></trkpt><trkpt lat="34.4085552" lon="8.0250834"><ele>450.0</ele><time>2026-04-30T16:04:27.788Z</time></trkpt><trkpt lat="34.4086304" lon="8.0253355"><ele>450.33333333333337</ele><time>2026-04-30T16:04:28.787Z</time></trkpt><trkpt lat="34.4087068" lon="8.0255847"><ele>450.6666666666667</ele><time>2026-04-30T16:04:29.75Z</time></trkpt><trkpt lat="34.4087826" lon="8.0258373"><ele>451.0</ele><time>2026-04-30T16:04:30.786Z</time></trkpt><trkpt lat="34.40886" lon="8.0260935"><ele>451.0</ele><time>2026-04-30T16:04:31.766Z</time></trkpt><trkpt lat="34.4089328" lon="8.0263479"><ele>451.0</ele><time>2026-04-30T16:04:32.768Z</time></trkpt><trkpt lat="34.4090083" lon="8.0266077"><ele>451.0</ele><time>2026-04-30T16:04:33.777Z</time></trkpt><trkpt lat="34.4090859" lon="8.0268659"><ele>450.6666666666667</ele><time>2026-04-30T16:04:34.771Z</time></trkpt><trkpt lat="34.4091651" lon="8.0271224"><ele>450.33333333333337</ele><time>2026-04-30T16:04:35.77Z</time></trkpt><trkpt lat="34.4092402" lon="8.027377"><ele>450.0</ele><time>2026-04-30T16:04:36.764Z</time></trkpt><trkpt lat="34.4093159" lon="8.0276295"><ele>450.0</ele><time>2026-04-30T16:04:37.777Z</time></trkpt><trkpt lat="34.4093935" lon="8.0278823"><ele>450.0</ele><time>2026-04-30T16:04:38.788Z</time></trkpt><trkpt lat="34.4094658" lon="8.028135"><ele>450.0</ele><time>2026-04-30T16:04:39.782Z</time></trkpt><trkpt lat="34.4095391" lon="8.0283919"><ele>450.0</ele><time>2026-04-30T16:04:40.778Z</time></trkpt><trkpt lat="34.4096153" lon="8.028646"><ele>450.0</ele><time>2026-04-30T16:04:41.786Z</time></trkpt><trkpt lat="34.4096878" lon="8.0288978"><ele>450.0</ele><time>2026-04-30T16:04:42.766Z</time></trkpt><trkpt lat="34.409764" lon="8.0291589"><ele>450.0</ele><time>2026-04-30T16:04:43.776Z</time></trkpt><trkpt lat="34.4098403" lon="8.0294176"><ele>450.0</ele><time>2026-04-30T16:04:44.77Z</time></trkpt><trkpt lat="34.4099187" lon="8.02967"><ele>450.0</ele><time>2026-04-30T16:04:45.79Z</time></trkpt><trkpt lat="34.4099943" lon="8.0299209"><ele>450.66666666666663</ele><time>2026-04-30T16:04:46.771Z</time></trkpt><trkpt lat="34.4100696" lon="8.03017"><ele>451.3333333333333</ele><time>2026-04-30T16:04:47.722Z</time></trkpt><trkpt lat="34.4101463" lon="8.0304221"><ele>452.0</ele><time>2026-04-30T16:04:48.779Z</time></trkpt><trkpt lat="34.4102195" lon="8.0306779"><ele>452.66666666666663</ele><time>2026-04-30T16:04:49.779Z</time></trkpt><trkpt lat="34.4102925" lon="8.0309303"><ele>453.33333333333337</ele><time>2026-04-30T16:04:50.791Z</time></trkpt><trkpt lat="34.410365" lon="8.0311853"><ele>454.0</ele><time>2026-04-30T16:04:51.795Z</time></trkpt><trkpt lat="34.4104328" lon="8.0314419"><ele>455.0</ele><time>2026-04-30T16:04:52.798Z</time></trkpt><trkpt lat="34.410491" lon="8.0317004"><ele>456.0</ele><time>2026-04-30T16:04:53.8Z</time></trkpt><trkpt lat="34.4105435" lon="8.0319632"><ele>457.0</ele><time>2026-04-30T16:04:54.808Z</time></trkpt><trkpt lat="34.4105944" lon="8.0322279"><ele>455.33333333333337</ele><time>2026-04-30T16:04:55.792Z</time></trkpt><trkpt lat="34.410635" lon="8.032496"><ele>453.66666666666663</ele><time>2026-04-30T16:04:56.767Z</time></trkpt><trkpt lat="34.4106767" lon="8.032763"><ele>452.0</ele><time>2026-04-30T16:04:57.762Z</time></trkpt><trkpt lat="34.4107136" lon="8.0330322"><ele>452.0</ele><time>2026-04-30T16:04:58.795Z</time></trkpt><trkpt lat="34.4107538" lon="8.0332975"><ele>452.0</ele><time>2026-04-30T16:04:59.789Z</time></trkpt><trkpt lat="34.4107944" lon="8.0335617"><ele>452.0</ele><time>2026-04-30T16:05:00.749Z</time></trkpt><trkpt lat="34.4108345" lon="8.0338299"><ele>452.66666666666663</ele><time>2026-04-30T16:05:01.727Z</time></trkpt><trkpt lat="34.4108773" lon="8.0341005"><ele>453.33333333333337</ele><time>2026-04-30T16:05:02.756Z</time></trkpt><trkpt lat="34.4109155" lon="8.0343649"><ele>454.0</ele><time>2026-04-30T16:05:03.774Z</time></trkpt><trkpt lat="34.4109566" lon="8.0346348"><ele>454.0</ele><time>2026-04-30T16:05:04.766Z</time></trkpt><trkpt lat="34.4109936" lon="8.0348971"><ele>454.0</ele><time>2026-04-30T16:05:05.778Z</time></trkpt><trkpt lat="34.4110281" lon="8.0351616"><ele>454.0</ele><time>2026-04-30T16:05:06.793Z</time></trkpt><trkpt lat="34.4110634" lon="8.0354249"><ele>453.6666666666667</ele><time>2026-04-30T16:05:07.779Z</time></trkpt><trkpt lat="34.4111039" lon="8.0356892"><ele>453.33333333333337</ele><time>2026-04-30T16:05:08.776Z</time></trkpt><trkpt lat="34.411145" lon="8.0359545"><ele>453.0</ele><time>2026-04-30T16:05:09.762Z</time></trkpt><trkpt lat="34.4111873" lon="8.0362195"><ele>454.0</ele><time>2026-04-30T16:05:10.783Z</time></trkpt><trkpt lat="34.4112297" lon="8.0364927"><ele>455.0</ele><time>2026-04-30T16:05:11.784Z</time></trkpt><trkpt lat="34.4112722" lon="8.0367829"><ele>455.0</ele><time>2026-04-30T16:05:12.77Z</time></trkpt><trkpt lat="34.4113122" lon="8.0370796"><ele>455.0</ele><time>2026-04-30T16:05:13.781Z</time></trkpt><trkpt lat="34.4113542" lon="8.0373709"><ele>452.5</ele><time>2026-04-30T16:05:14.781Z</time></trkpt><trkpt lat="34.4113942" lon="8.0376635"><ele>450.0</ele><time>2026-04-30T16:05:15.799Z</time></trkpt><trkpt lat="34.411438" lon="8.0379569"><ele>450.0</ele><time>2026-04-30T16:05:16.768Z</time></trkpt><trkpt lat="34.4114811" lon="8.0382551"><ele>450.0</ele><time>2026-04-30T16:05:17.767Z</time></trkpt><trkpt lat="34.4115288" lon="8.0385519"><ele>450.0</ele><time>2026-04-30T16:05:18.787Z</time></trkpt><trkpt lat="34.4115735" lon="8.0388481"><ele>450.0</ele><time>2026-04-30T16:05:19.801Z</time></trkpt><trkpt lat="34.4116148" lon="8.0391445"><ele>451.5</ele><time>2026-04-30T16:05:20.788Z</time></trkpt><trkpt lat="34.411656" lon="8.0394443"><ele>453.0</ele><time>2026-04-30T16:05:21.753Z</time></trkpt><trkpt lat="34.4117018" lon="8.0397423"><ele>454.0</ele><time>2026-04-30T16:05:22.794Z</time></trkpt><trkpt lat="34.4117483" lon="8.0400366"><ele>455.0</ele><time>2026-04-30T16:05:23.788Z</time></trkpt><trkpt lat="34.4117925" lon="8.0403364"><ele>455.0</ele><time>2026-04-30T16:05:24.786Z</time></trkpt><trkpt lat="34.4118373" lon="8.0406365"><ele>455.0</ele><time>2026-04-30T16:05:25.793Z</time></trkpt><trkpt lat="34.4118842" lon="8.0409318"><ele>455.5</ele><time>2026-04-30T16:05:26.789Z</time></trkpt><trkpt lat="34.4119302" lon="8.0412227"><ele>456.0</ele><time>2026-04-30T16:05:27.794Z</time></trkpt><trkpt lat="34.4119783" lon="8.0415201"><ele>457.5</ele><time>2026-04-30T16:05:28.74Z</time></trkpt><trkpt lat="34.4120263" lon="8.0418192"><ele>459.0</ele><time>2026-04-30T16:05:29.723Z</time></trkpt><trkpt lat="34.4120739" lon="8.042118"><ele>459.0</ele><time>2026-04-30T16:05:30.731Z</time></trkpt><trkpt lat="34.4121198" lon="8.0424104"><ele>459.0</ele><time>2026-04-30T16:05:31.741Z</time></trkpt><trkpt lat="34.4121656" lon="8.0427041"><ele>458.0</ele><time>2026-04-30T16:05:32.726Z</time></trkpt><trkpt lat="34.4122111" lon="8.0430046"><ele>457.0</ele><time>2026-04-30T16:05:33.727Z</time></trkpt><trkpt lat="34.4122545" lon="8.0432993"><ele>457.0</ele><time>2026-04-30T16:05:34.721Z</time></trkpt><trkpt lat="34.4122988" lon="8.0435982"><ele>457.0</ele><time>2026-04-30T16:05:35.744Z</time></trkpt><trkpt lat="34.4123457" lon="8.043893"><ele>457.5</ele><time>2026-04-30T16:05:36.726Z</time></trkpt><trkpt lat="34.4123905" lon="8.0441819"><ele>458.0</ele><time>2026-04-30T16:05:37.741Z</time></trkpt><trkpt lat="34.4124419" lon="8.0444768"><ele>458.0</ele><time>2026-04-30T16:05:38.778Z</time></trkpt><trkpt lat="34.4124921" lon="8.0447765"><ele>458.0</ele><time>2026-04-30T16:05:39.777Z</time></trkpt><trkpt lat="34.4125432" lon="8.0450727"><ele>457.5</ele><time>2026-04-30T16:05:40.761Z</time></trkpt><trkpt lat="34.412592" lon="8.0453668"><ele>457.0</ele><time>2026-04-30T16:05:41.768Z</time></trkpt><trkpt lat="34.4126407" lon="8.0456593"><ele>458.0</ele><time>2026-04-30T16:05:42.781Z</time></trkpt><trkpt lat="34.4126938" lon="8.0459524"><ele>459.0</ele><time>2026-04-30T16:05:43.783Z</time></trkpt><trkpt lat="34.412744" lon="8.0462532"><ele>459.0</ele><time>2026-04-30T16:05:44.777Z</time></trkpt><trkpt lat="34.4127967" lon="8.0465442"><ele>459.0</ele><time>2026-04-30T16:05:45.785Z</time></trkpt><trkpt lat="34.4128502" lon="8.0468389"><ele>459.5</ele><time>2026-04-30T16:05:46.772Z</time></trkpt><trkpt lat="34.412901" lon="8.0471315"><ele>460.0</ele><time>2026-04-30T16:05:47.781Z</time></trkpt><trkpt lat="34.4129507" lon="8.0474256"><ele>460.0</ele><time>2026-04-30T16:05:48.811Z</time></trkpt><trkpt lat="34.4130077" lon="8.0477208"><ele>460.0</ele><time>2026-04-30T16:05:49.779Z</time></trkpt><trkpt lat="34.4130679" lon="8.0480126"><ele>460.0</ele><time>2026-04-30T16:05:50.775Z</time></trkpt><trkpt lat="34.4131216" lon="8.0483028"><ele>460.0</ele><time>2026-04-30T16:05:51.782Z</time></trkpt><trkpt lat="34.4131769" lon="8.0485954"><ele>460.0</ele><time>2026-04-30T16:05:52.729Z</time></trkpt><trkpt lat="34.4132341" lon="8.0488835"><ele>460.0</ele><time>2026-04-30T16:05:53.75Z</time></trkpt><trkpt lat="34.4132852" lon="8.0491773"><ele>461.5</ele><time>2026-04-30T16:05:54.778Z</time></trkpt><trkpt lat="34.4133347" lon="8.0494693"><ele>463.0</ele><time>2026-04-30T16:05:55.739Z</time></trkpt><trkpt lat="34.4133882" lon="8.0497703"><ele>463.0</ele><time>2026-04-30T16:05:56.78Z</time></trkpt><trkpt lat="34.4134382" lon="8.0500695"><ele>463.0</ele><time>2026-04-30T16:05:57.757Z</time></trkpt><trkpt lat="34.4134886" lon="8.0503657"><ele>463.0</ele><time>2026-04-30T16:05:58.753Z</time></trkpt><trkpt lat="34.4135342" lon="8.050668"><ele>463.0</ele><time>2026-04-30T16:05:59.742Z</time></trkpt><trkpt lat="34.4135708" lon="8.0509623"><ele>462.5</ele><time>2026-04-30T16:06:00.745Z</time></trkpt><trkpt lat="34.4135956" lon="8.0512635"><ele>462.0</ele><time>2026-04-30T16:06:01.785Z</time></trkpt><trkpt lat="34.4136104" lon="8.0515625"><ele>462.5</ele><time>2026-04-30T16:06:02.756Z</time></trkpt><trkpt lat="34.4136257" lon="8.0518625"><ele>463.0</ele><time>2026-04-30T16:06:03.75Z</time></trkpt><trkpt lat="34.4136374" lon="8.0521599"><ele>462.5</ele><time>2026-04-30T16:06:04.791Z</time></trkpt><trkpt lat="34.4136489" lon="8.0524601"><ele>462.0</ele><time>2026-04-30T16:06:05.79Z</time></trkpt><trkpt lat="34.4136614" lon="8.0527615"><ele>462.0</ele><time>2026-04-30T16:06:06.771Z</time></trkpt><trkpt lat="34.4136765" lon="8.0530622"><ele>462.0</ele><time>2026-04-30T16:06:07.779Z</time></trkpt><trkpt lat="34.4136881" lon="8.0533644"><ele>462.5</ele><time>2026-04-30T16:06:08.776Z</time></trkpt><trkpt lat="34.4137002" lon="8.0536635"><ele>463.0</ele><time>2026-04-30T16:06:09.774Z</time></trkpt><trkpt lat="34.4137124" lon="8.0539636"><ele>463.0</ele><time>2026-04-30T16:06:10.781Z</time></trkpt><trkpt lat="34.4137225" lon="8.0542636"><ele>463.0</ele><time>2026-04-30T16:06:11.777Z</time></trkpt><trkpt lat="34.4137323" lon="8.0545665"><ele>463.0</ele><time>2026-04-30T16:06:12.786Z</time></trkpt><trkpt lat="34.4137417" lon="8.0548651"><ele>463.0</ele><time>2026-04-30T16:06:13.756Z</time></trkpt><trkpt lat="34.4137523" lon="8.0551633"><ele>463.5</ele><time>2026-04-30T16:06:14.789Z</time></trkpt><trkpt lat="34.4137645" lon="8.0554622"><ele>464.0</ele><time>2026-04-30T16:06:15.781Z</time></trkpt><trkpt lat="34.4137786" lon="8.0557598"><ele>464.5</ele><time>2026-04-30T16:06:16.785Z</time></trkpt><trkpt lat="34.4137877" lon="8.0560649"><ele>465.0</ele><time>2026-04-30T16:06:17.789Z</time></trkpt><trkpt lat="34.4137969" lon="8.0563658"><ele>464.0</ele><time>2026-04-30T16:06:18.78Z</time></trkpt><trkpt lat="34.4138091" lon="8.056664"><ele>463.0</ele><time>2026-04-30T16:06:19.782Z</time></trkpt><trkpt lat="34.4138193" lon="8.0569653"><ele>462.5</ele><time>2026-04-30T16:06:20.785Z</time></trkpt><trkpt lat="34.4138291" lon="8.057268"><ele>462.0</ele><time>2026-04-30T16:06:21.739Z</time></trkpt><trkpt lat="34.4138422" lon="8.0575665"><ele>463.5</ele><time>2026-04-30T16:06:22.801Z</time></trkpt><trkpt lat="34.4138581" lon="8.0578663"><ele>465.0</ele><time>2026-04-30T16:06:23.794Z</time></trkpt><trkpt lat="34.4138692" lon="8.0581672"><ele>465.0</ele><time>2026-04-30T16:06:24.794Z</time></trkpt><trkpt lat="34.4138817" lon="8.0584674"><ele>465.0</ele><time>2026-04-30T16:06:25.797Z</time></trkpt><trkpt lat="34.4138966" lon="8.0587726"><ele>465.0</ele><time>2026-04-30T16:06:26.78Z</time></trkpt><trkpt lat="34.4139082" lon="8.059072"><ele>465.0</ele><time>2026-04-30T16:06:27.766Z</time></trkpt><trkpt lat="34.4139195" lon="8.0593728"><ele>466.0</ele><time>2026-04-30T16:06:28.793Z</time></trkpt><trkpt lat="34.413928" lon="8.0596716"><ele>467.0</ele><time>2026-04-30T16:06:29.796Z</time></trkpt><trkpt lat="34.413937" lon="8.0599684"><ele>467.0</ele><time>2026-04-30T16:06:30.794Z</time></trkpt><trkpt lat="34.4139506" lon="8.060269"><ele>467.0</ele><time>2026-04-30T16:06:31.791Z</time></trkpt><trkpt lat="34.4139615" lon="8.0605691"><ele>467.0</ele><time>2026-04-30T16:06:32.756Z</time></trkpt><trkpt lat="34.4139733" lon="8.0608672"><ele>467.0</ele><time>2026-04-30T16:06:33.746Z</time></trkpt><trkpt lat="34.4139854" lon="8.0611671"><ele>467.0</ele><time>2026-04-30T16:06:34.782Z</time></trkpt><trkpt lat="34.4139982" lon="8.0614711"><ele>467.0</ele><time>2026-04-30T16:06:35.77Z</time></trkpt><trkpt lat="34.4140153" lon="8.0617653"><ele>468.5</ele><time>2026-04-30T16:06:36.781Z</time></trkpt><trkpt lat="34.4140277" lon="8.0620663"><ele>470.0</ele><time>2026-04-30T16:06:37.775Z</time></trkpt><trkpt lat="34.4140407" lon="8.0623681"><ele>468.5</ele><time>2026-04-30T16:06:38.79Z</time></trkpt><trkpt lat="34.4140532" lon="8.0626711"><ele>467.0</ele><time>2026-04-30T16:06:39.734Z</time></trkpt><trkpt lat="34.4140618" lon="8.0629697"><ele>467.0</ele><time>2026-04-30T16:06:40.754Z</time></trkpt><trkpt lat="34.4140756" lon="8.063268"><ele>467.0</ele><time>2026-04-30T16:06:41.767Z</time></trkpt><trkpt lat="34.4140877" lon="8.0635675"><ele>467.5</ele><time>2026-04-30T16:06:42.782Z</time></trkpt><trkpt lat="34.4140994" lon="8.0638661"><ele>468.0</ele><time>2026-04-30T16:06:43.777Z</time></trkpt><trkpt lat="34.4141107" lon="8.0641674"><ele>468.5</ele><time>2026-04-30T16:06:44.775Z</time></trkpt><trkpt lat="34.414119" lon="8.0644671"><ele>469.0</ele><time>2026-04-30T16:06:45.787Z</time></trkpt><trkpt lat="34.4141297" lon="8.0647684"><ele>470.0</ele><time>2026-04-30T16:06:46.761Z</time></trkpt><trkpt lat="34.4141377" lon="8.0650662"><ele>471.0</ele><time>2026-04-30T16:06:47.778Z</time></trkpt><trkpt lat="34.4141444" lon="8.0653665"><ele>471.0</ele><time>2026-04-30T16:06:48.771Z</time></trkpt><trkpt lat="34.414145" lon="8.0656647"><ele>471.0</ele><time>2026-04-30T16:06:49.78Z</time></trkpt><trkpt lat="34.4141344" lon="8.065967"><ele>470.5</ele><time>2026-04-30T16:06:50.79Z</time></trkpt><trkpt lat="34.4141144" lon="8.0662705"><ele>470.0</ele><time>2026-04-30T16:06:51.786Z</time></trkpt><trkpt lat="34.4140826" lon="8.0665732"><ele>470.5</ele><time>2026-04-30T16:06:52.742Z</time></trkpt><trkpt lat="34.4140435" lon="8.0668665"><ele>471.0</ele><time>2026-04-30T16:06:53.771Z</time></trkpt><trkpt lat="34.4140018" lon="8.0671601"><ele>471.5</ele><time>2026-04-30T16:06:54.773Z</time></trkpt><trkpt lat="34.4139578" lon="8.0674542"><ele>472.0</ele><time>2026-04-30T16:06:55.786Z</time></trkpt><trkpt lat="34.4139116" lon="8.067753"><ele>472.0</ele><time>2026-04-30T16:06:56.775Z</time></trkpt><trkpt lat="34.4138672" lon="8.0680501"><ele>472.0</ele><time>2026-04-30T16:06:57.781Z</time></trkpt><trkpt lat="34.4138236" lon="8.0683454"><ele>474.0</ele><time>2026-04-30T16:06:58.765Z</time></trkpt><trkpt lat="34.4137827" lon="8.0686481"><ele>476.0</ele><time>2026-04-30T16:06:59.782Z</time></trkpt><trkpt lat="34.4137443" lon="8.0689461"><ele>476.0</ele><time>2026-04-30T16:07:00.76Z</time></trkpt><trkpt lat="34.413701" lon="8.0692394"><ele>476.0</ele><time>2026-04-30T16:07:01.79Z</time></trkpt><trkpt lat="34.4136563" lon="8.0695352"><ele>476.0</ele><time>2026-04-30T16:07:02.771Z</time></trkpt><trkpt lat="34.4136122" lon="8.069834"><ele>476.0</ele><time>2026-04-30T16:07:03.798Z</time></trkpt><trkpt lat="34.4135681" lon="8.0701353"><ele>476.0</ele><time>2026-04-30T16:07:04.786Z</time></trkpt><trkpt lat="34.4135244" lon="8.0704292"><ele>476.0</ele><time>2026-04-30T16:07:05.794Z</time></trkpt><trkpt lat="34.4134806" lon="8.0707274"><ele>474.0</ele><time>2026-04-30T16:07:06.785Z</time></trkpt><trkpt lat="34.4134364" lon="8.0710237"><ele>472.0</ele><time>2026-04-30T16:07:07.794Z</time></trkpt><trkpt lat="34.4133912" lon="8.0713242"><ele>471.5</ele><time>2026-04-30T16:07:08.779Z</time></trkpt><trkpt lat="34.4133545" lon="8.0716205"><ele>471.0</ele><time>2026-04-30T16:07:09.801Z</time></trkpt><trkpt lat="34.413315" lon="8.071916"><ele>471.0</ele><time>2026-04-30T16:07:10.777Z</time></trkpt><trkpt lat="34.4132721" lon="8.0722146"><ele>471.0</ele><time>2026-04-30T16:07:11.792Z</time></trkpt><trkpt lat="34.4132321" lon="8.0725096"><ele>471.5</ele><time>2026-04-30T16:07:12.762Z</time></trkpt><trkpt lat="34.4131911" lon="8.0728084"><ele>472.0</ele><time>2026-04-30T16:07:13.765Z</time></trkpt><trkpt lat="34.4131521" lon="8.0731042"><ele>474.0</ele><time>2026-04-30T16:07:14.778Z</time></trkpt><trkpt lat="34.4131161" lon="8.073396"><ele>476.0</ele><time>2026-04-30T16:07:15.783Z</time></trkpt><trkpt lat="34.4130776" lon="8.0736925"><ele>476.0</ele><time>2026-04-30T16:07:16.778Z</time></trkpt><trkpt lat="34.4130381" lon="8.0739923"><ele>476.0</ele><time>2026-04-30T16:07:17.753Z</time></trkpt><trkpt lat="34.4129954" lon="8.0742872"><ele>475.5</ele><time>2026-04-30T16:07:18.781Z</time></trkpt><trkpt lat="34.4129554" lon="8.074584"><ele>475.0</ele><time>2026-04-30T16:07:19.802Z</time></trkpt><trkpt lat="34.4129176" lon="8.0748827"><ele>476.5</ele><time>2026-04-30T16:07:20.76Z</time></trkpt><trkpt lat="34.4128787" lon="8.0751765"><ele>478.0</ele><time>2026-04-30T16:07:21.782Z</time></trkpt><trkpt lat="34.412839" lon="8.0754676"><ele>478.0</ele><time>2026-04-30T16:07:22.756Z</time></trkpt><trkpt lat="34.4127988" lon="8.0757658"><ele>478.0</ele><time>2026-04-30T16:07:23.785Z</time></trkpt><trkpt lat="34.41276" lon="8.0760673"><ele>479.0</ele><time>2026-04-30T16:07:24.783Z</time></trkpt><trkpt lat="34.4127248" lon="8.0763662"><ele>480.0</ele><time>2026-04-30T16:07:25.779Z</time></trkpt><trkpt lat="34.4126866" lon="8.0766689"><ele>481.0</ele><time>2026-04-30T16:07:26.785Z</time></trkpt><trkpt lat="34.4126464" lon="8.0769663"><ele>482.0</ele><time>2026-04-30T16:07:27.783Z</time></trkpt><trkpt lat="34.4126081" lon="8.0772616"><ele>481.5</ele><time>2026-04-30T16:07:28.776Z</time></trkpt><trkpt lat="34.4125681" lon="8.0775582"><ele>481.0</ele><time>2026-04-30T16:07:29.787Z</time></trkpt><trkpt lat="34.4125265" lon="8.077858"><ele>481.0</ele><time>2026-04-30T16:07:30.787Z</time></trkpt><trkpt lat="34.4124913" lon="8.0781484"><ele>481.0</ele><time>2026-04-30T16:07:31.8Z</time></trkpt><trkpt lat="34.4124527" lon="8.0784431"><ele>481.5</ele><time>2026-04-30T16:07:32.761Z</time></trkpt><trkpt lat="34.4124153" lon="8.078739"><ele>482.0</ele><time>2026-04-30T16:07:33.796Z</time></trkpt><trkpt lat="34.4123767" lon="8.0790335"><ele>483.0</ele><time>2026-04-30T16:07:34.783Z</time></trkpt><trkpt lat="34.4123387" lon="8.0793269"><ele>484.0</ele><time>2026-04-30T16:07:35.787Z</time></trkpt><trkpt lat="34.4122989" lon="8.0796291"><ele>484.0</ele><time>2026-04-30T16:07:36.777Z</time></trkpt><trkpt lat="34.4122603" lon="8.0799274"><ele>484.0</ele><time>2026-04-30T16:07:37.785Z</time></trkpt><trkpt lat="34.4122178" lon="8.0802279"><ele>483.5</ele><time>2026-04-30T16:07:38.778Z</time></trkpt><trkpt lat="34.4121783" lon="8.0805246"><ele>483.0</ele><time>2026-04-30T16:07:39.773Z</time></trkpt><trkpt lat="34.4121399" lon="8.0808223"><ele>484.0</ele><time>2026-04-30T16:07:40.788Z</time></trkpt><trkpt lat="34.4121045" lon="8.0811165"><ele>485.0</ele><time>2026-04-30T16:07:41.78Z</time></trkpt><trkpt lat="34.4120706" lon="8.0814199"><ele>484.5</ele><time>2026-04-30T16:07:42.763Z</time></trkpt><trkpt lat="34.4120375" lon="8.0817204"><ele>484.0</ele><time>2026-04-30T16:07:43.776Z</time></trkpt><trkpt lat="34.412008" lon="8.0820168"><ele>484.0</ele><time>2026-04-30T16:07:44.793Z</time></trkpt><trkpt lat="34.4119839" lon="8.0822993"><ele>484.0</ele><time>2026-04-30T16:07:45.784Z</time></trkpt><trkpt lat="34.4119555" lon="8.0825645"><ele>485.0</ele><time>2026-04-30T16:07:46.783Z</time></trkpt><trkpt lat="34.4119267" lon="8.0828177"><ele>486.0</ele><time>2026-04-30T16:07:47.784Z</time></trkpt><trkpt lat="34.411897" lon="8.0830784"><ele>487.0</ele><time>2026-04-30T16:07:48.794Z</time></trkpt><trkpt lat="34.411862" lon="8.0833409"><ele>487.5</ele><time>2026-04-30T16:07:49.766Z</time></trkpt><trkpt lat="34.4118301" lon="8.083611"><ele>488.0</ele><time>2026-04-30T16:07:50.79Z</time></trkpt><trkpt lat="34.4117993" lon="8.0838926"><ele>488.0</ele><time>2026-04-30T16:07:51.758Z</time></trkpt><trkpt lat="34.4117784" lon="8.0841784"><ele>488.0</ele><time>2026-04-30T16:07:52.748Z</time></trkpt><trkpt lat="34.4117585" lon="8.0844599"><ele>488.0</ele><time>2026-04-30T16:07:53.776Z</time></trkpt><trkpt lat="34.411748" lon="8.0847253"><ele>488.0</ele><time>2026-04-30T16:07:54.801Z</time></trkpt><trkpt lat="34.4117438" lon="8.0849605"><ele>488.0</ele><time>2026-04-30T16:07:55.787Z</time></trkpt><trkpt lat="34.4117431" lon="8.0851893"><ele>488.0</ele><time>2026-04-30T16:07:56.785Z</time></trkpt><trkpt lat="34.4117438" lon="8.0854052"><ele>488.0</ele><time>2026-04-30T16:07:57.78Z</time></trkpt><trkpt lat="34.4117489" lon="8.0856195"><ele>488.0</ele><time>2026-04-30T16:07:58.79Z</time></trkpt><trkpt lat="34.411756" lon="8.0858436"><ele>488.0</ele><time>2026-04-30T16:07:59.796Z</time></trkpt><trkpt lat="34.4117614" lon="8.0860787"><ele>488.0</ele><time>2026-04-30T16:08:00.747Z</time></trkpt><trkpt lat="34.4117607" lon="8.0863249"><ele>488.0</ele><time>2026-04-30T16:08:01.782Z</time></trkpt><trkpt lat="34.4117573" lon="8.0865784"><ele>488.3333333333333</ele><time>2026-04-30T16:08:02.781Z</time></trkpt><trkpt lat="34.4117573" lon="8.0868173"><ele>488.66666666666663</ele><time>2026-04-30T16:08:03.794Z</time></trkpt><trkpt lat="34.4117505" lon="8.0870551"><ele>489.0</ele><time>2026-04-30T16:08:04.797Z</time></trkpt><trkpt lat="34.4117394" lon="8.0872853"><ele>490.0</ele><time>2026-04-30T16:08:05.795Z</time></trkpt><trkpt lat="34.4117316" lon="8.0875216"><ele>491.0</ele><time>2026-04-30T16:08:06.761Z</time></trkpt><trkpt lat="34.4117266" lon="8.0877526"><ele>492.0</ele><time>2026-04-30T16:08:07.798Z</time></trkpt><trkpt lat="34.4117203" lon="8.087992"><ele>492.0</ele><time>2026-04-30T16:08:08.796Z</time></trkpt><trkpt lat="34.4117199" lon="8.0882261"><ele>492.0</ele><time>2026-04-30T16:08:09.755Z</time></trkpt><trkpt lat="34.4117217" lon="8.0884755"><ele>492.0</ele><time>2026-04-30T16:08:10.759Z</time></trkpt><trkpt lat="34.4117243" lon="8.0887238"><ele>492.66666666666663</ele><time>2026-04-30T16:08:11.786Z</time></trkpt><trkpt lat="34.4117302" lon="8.0889698"><ele>493.3333333333333</ele><time>2026-04-30T16:08:12.781Z</time></trkpt><trkpt lat="34.4117389" lon="8.0892165"><ele>494.0</ele><time>2026-04-30T16:08:13.775Z</time></trkpt><trkpt lat="34.4117597" lon="8.0894666"><ele>494.66666666666663</ele><time>2026-04-30T16:08:14.784Z</time></trkpt><trkpt lat="34.4117831" lon="8.0897126"><ele>495.33333333333337</ele><time>2026-04-30T16:08:15.731Z</time></trkpt><trkpt lat="34.4118122" lon="8.0899586"><ele>496.0</ele><time>2026-04-30T16:08:16.748Z</time></trkpt><trkpt lat="34.4118427" lon="8.0902051"><ele>497.0</ele><time>2026-04-30T16:08:17.719Z</time></trkpt><trkpt lat="34.41187" lon="8.0904526"><ele>498.0</ele><time>2026-04-30T16:08:18.727Z</time></trkpt><trkpt lat="34.4118979" lon="8.0906998"><ele>499.0</ele><time>2026-04-30T16:08:19.769Z</time></trkpt><trkpt lat="34.4119232" lon="8.0909496"><ele>501.0</ele><time>2026-04-30T16:08:20.782Z</time></trkpt><trkpt lat="34.4119516" lon="8.0912009"><ele>503.0</ele><time>2026-04-30T16:08:21.746Z</time></trkpt><trkpt lat="34.4119815" lon="8.0914452"><ele>505.0</ele><time>2026-04-30T16:08:22.766Z</time></trkpt><trkpt lat="34.4120082" lon="8.0916904"><ele>506.6666666666667</ele><time>2026-04-30T16:08:23.785Z</time></trkpt><trkpt lat="34.4120317" lon="8.0919348"><ele>508.33333333333337</ele><time>2026-04-30T16:08:24.781Z</time></trkpt><trkpt lat="34.4120579" lon="8.0921813"><ele>510.0</ele><time>2026-04-30T16:08:25.767Z</time></trkpt><trkpt lat="34.4120843" lon="8.0924311"><ele>510.0</ele><time>2026-04-30T16:08:26.777Z</time></trkpt><trkpt lat="34.4121114" lon="8.0926806"><ele>510.0</ele><time>2026-04-30T16:08:27.776Z</time></trkpt><trkpt lat="34.4121388" lon="8.0929309"><ele>510.0</ele><time>2026-04-30T16:08:28.773Z</time></trkpt><trkpt lat="34.412167" lon="8.0931837"><ele>509.66666666666663</ele><time>2026-04-30T16:08:29.724Z</time></trkpt><trkpt lat="34.4121984" lon="8.0934345"><ele>509.3333333333333</ele><time>2026-04-30T16:08:30.777Z</time></trkpt><trkpt lat="34.4122242" lon="8.0936861"><ele>509.0</ele><time>2026-04-30T16:08:31.761Z</time></trkpt><trkpt lat="34.4122561" lon="8.0939397"><ele>510.0</ele><time>2026-04-30T16:08:32.782Z</time></trkpt><trkpt lat="34.4122848" lon="8.0941898"><ele>511.0</ele><time>2026-04-30T16:08:33.751Z</time></trkpt><trkpt lat="34.4123146" lon="8.094443"><ele>512.0</ele><time>2026-04-30T16:08:34.761Z</time></trkpt><trkpt lat="34.4123423" lon="8.0946993"><ele>512.3333333333333</ele><time>2026-04-30T16:08:35.774Z</time></trkpt><trkpt lat="34.4123708" lon="8.0949558"><ele>512.6666666666666</ele><time>2026-04-30T16:08:36.765Z</time></trkpt><trkpt lat="34.412403" lon="8.0952091"><ele>513.0</ele><time>2026-04-30T16:08:37.752Z</time></trkpt><trkpt lat="34.4124349" lon="8.095466"><ele>513.0</ele><time>2026-04-30T16:08:38.761Z</time></trkpt><trkpt lat="34.4124667" lon="8.0957214"><ele>513.0</ele><time>2026-04-30T16:08:39.775Z</time></trkpt><trkpt lat="34.4124977" lon="8.0959796"><ele>513.0</ele><time>2026-04-30T16:08:40.764Z</time></trkpt><trkpt lat="34.4125274" lon="8.0962388"><ele>513.6666666666666</ele><time>2026-04-30T16:08:41.772Z</time></trkpt><trkpt lat="34.4125565" lon="8.0964974"><ele>514.3333333333333</ele><time>2026-04-30T16:08:42.767Z</time></trkpt><trkpt lat="34.4125863" lon="8.0967599"><ele>515.0</ele><time>2026-04-30T16:08:43.771Z</time></trkpt><trkpt lat="34.4126135" lon="8.0970175"><ele>516.0</ele><time>2026-04-30T16:08:44.764Z</time></trkpt><trkpt lat="34.4126415" lon="8.0972755"><ele>517.0</ele><time>2026-04-30T16:08:45.76Z</time></trkpt><trkpt lat="34.412668" lon="8.0975335"><ele>518.0</ele><time>2026-04-30T16:08:46.752Z</time></trkpt><trkpt lat="34.4126961" lon="8.0977916"><ele>518.3333333333333</ele><time>2026-04-30T16:08:47.762Z</time></trkpt><trkpt lat="34.4127238" lon="8.0980514"><ele>518.6666666666666</ele><time>2026-04-30T16:08:48.758Z</time></trkpt><trkpt lat="34.4127504" lon="8.0983156"><ele>519.0</ele><time>2026-04-30T16:08:49.771Z</time></trkpt><trkpt lat="34.412779" lon="8.0985716"><ele>519.3333333333334</ele><time>2026-04-30T16:08:50.768Z</time></trkpt><trkpt lat="34.4128089" lon="8.0988325"><ele>519.6666666666667</ele><time>2026-04-30T16:08:51.756Z</time></trkpt><trkpt lat="34.4128402" lon="8.09909"><ele>520.0</ele><time>2026-04-30T16:08:52.751Z</time></trkpt><trkpt lat="34.4128736" lon="8.0993496"><ele>520.6666666666667</ele><time>2026-04-30T16:08:53.763Z</time></trkpt><trkpt lat="34.4129113" lon="8.0996066"><ele>521.3333333333334</ele><time>2026-04-30T16:08:54.761Z</time></trkpt><trkpt lat="34.4129554" lon="8.0998593"><ele>522.0</ele><time>2026-04-30T16:08:55.776Z</time></trkpt><trkpt lat="34.4130109" lon="8.1001131"><ele>522.0</ele><time>2026-04-30T16:08:56.758Z</time></trkpt><trkpt lat="34.4130727" lon="8.1003586"><ele>522.0</ele><time>2026-04-30T16:08:57.736Z</time></trkpt><trkpt lat="34.4131384" lon="8.1006062"><ele>522.0</ele><time>2026-04-30T16:08:58.763Z</time></trkpt><trkpt lat="34.4131976" lon="8.1008442"><ele>522.3333333333334</ele><time>2026-04-30T16:08:59.766Z</time></trkpt><trkpt lat="34.413251" lon="8.1010951"><ele>522.6666666666667</ele><time>2026-04-30T16:09:00.747Z</time></trkpt><trkpt lat="34.4132929" lon="8.1013543"><ele>523.0</ele><time>2026-04-30T16:09:01.746Z</time></trkpt><trkpt lat="34.413328" lon="8.1016156"><ele>523.0</ele><time>2026-04-30T16:09:02.788Z</time></trkpt><trkpt lat="34.4133498" lon="8.1018747"><ele>523.0</ele><time>2026-04-30T16:09:03.75Z</time></trkpt><trkpt lat="34.4133467" lon="8.1021425"><ele>523.0</ele><time>2026-04-30T16:09:04.772Z</time></trkpt><trkpt lat="34.4133359" lon="8.1024151"><ele>523.6666666666667</ele><time>2026-04-30T16:09:05.756Z</time></trkpt><trkpt lat="34.4133232" lon="8.102681"><ele>524.3333333333334</ele><time>2026-04-30T16:09:06.793Z</time></trkpt><trkpt lat="34.4133038" lon="8.1029486"><ele>525.0</ele><time>2026-04-30T16:09:07.785Z</time></trkpt><trkpt lat="34.4132823" lon="8.1032155"><ele>524.6666666666666</ele><time>2026-04-30T16:09:08.761Z</time></trkpt><trkpt lat="34.4132676" lon="8.1034828"><ele>524.3333333333333</ele><time>2026-04-30T16:09:09.77Z</time></trkpt><trkpt lat="34.4132559" lon="8.103751"><ele>524.0</ele><time>2026-04-30T16:09:10.79Z</time></trkpt><trkpt lat="34.4132422" lon="8.1040153"><ele>524.0</ele><time>2026-04-30T16:09:11.766Z</time></trkpt><trkpt lat="34.4132285" lon="8.1042798"><ele>524.0</ele><time>2026-04-30T16:09:12.774Z</time></trkpt><trkpt lat="34.4132195" lon="8.1045404"><ele>524.0</ele><time>2026-04-30T16:09:13.757Z</time></trkpt><trkpt lat="34.4132084" lon="8.1048068"><ele>525.3333333333333</ele><time>2026-04-30T16:09:14.776Z</time></trkpt><trkpt lat="34.4131943" lon="8.1050703"><ele>526.6666666666666</ele><time>2026-04-30T16:09:15.769Z</time></trkpt><trkpt lat="34.4131821" lon="8.1053297"><ele>528.0</ele><time>2026-04-30T16:09:16.762Z</time></trkpt><trkpt lat="34.4131829" lon="8.1055967"><ele>528.3333333333334</ele><time>2026-04-30T16:09:17.765Z</time></trkpt><trkpt lat="34.4131999" lon="8.1058578"><ele>528.6666666666667</ele><time>2026-04-30T16:09:18.789Z</time></trkpt><trkpt lat="34.413231" lon="8.1061207"><ele>529.0</ele><time>2026-04-30T16:09:19.782Z</time></trkpt><trkpt lat="34.4132801" lon="8.1063741"><ele>529.0</ele><time>2026-04-30T16:09:20.782Z</time></trkpt><trkpt lat="34.4133288" lon="8.1066334"><ele>529.0</ele><time>2026-04-30T16:09:21.778Z</time></trkpt><trkpt lat="34.4133678" lon="8.1068835"><ele>529.0</ele><time>2026-04-30T16:09:22.751Z</time></trkpt><trkpt lat="34.4133973" lon="8.107127"><ele>529.0</ele><time>2026-04-30T16:09:23.731Z</time></trkpt><trkpt lat="34.4134107" lon="8.1073606"><ele>529.0</ele><time>2026-04-30T16:09:24.734Z</time></trkpt><trkpt lat="34.4134064" lon="8.1075901"><ele>529.0</ele><time>2026-04-30T16:09:25.789Z</time></trkpt><trkpt lat="34.4133881" lon="8.1078192"><ele>530.0</ele><time>2026-04-30T16:09:26.783Z</time></trkpt><trkpt lat="34.4133717" lon="8.1080518"><ele>531.0</ele><time>2026-04-30T16:09:27.786Z</time></trkpt><trkpt lat="34.413355" lon="8.1082884"><ele>532.0</ele><time>2026-04-30T16:09:28.764Z</time></trkpt><trkpt lat="34.4133453" lon="8.1085307"><ele>532.0</ele><time>2026-04-30T16:09:29.777Z</time></trkpt><trkpt lat="34.4133387" lon="8.1087738"><ele>532.0</ele><time>2026-04-30T16:09:30.785Z</time></trkpt><trkpt lat="34.4133346" lon="8.109012"><ele>532.0</ele><time>2026-04-30T16:09:31.787Z</time></trkpt><trkpt lat="34.4133267" lon="8.1092596"><ele>532.0</ele><time>2026-04-30T16:09:32.789Z</time></trkpt><trkpt lat="34.413317" lon="8.1095098"><ele>532.0</ele><time>2026-04-30T16:09:33.744Z</time></trkpt><trkpt lat="34.4133066" lon="8.1097622"><ele>532.0</ele><time>2026-04-30T16:09:34.76Z</time></trkpt><trkpt lat="34.4133014" lon="8.110011"><ele>532.6666666666667</ele><time>2026-04-30T16:09:35.782Z</time></trkpt><trkpt lat="34.4132937" lon="8.1102599"><ele>533.3333333333334</ele><time>2026-04-30T16:09:36.786Z</time></trkpt><trkpt lat="34.4132934" lon="8.110507"><ele>534.0</ele><time>2026-04-30T16:09:37.762Z</time></trkpt><trkpt lat="34.4132972" lon="8.1107616"><ele>534.6666666666666</ele><time>2026-04-30T16:09:38.775Z</time></trkpt><trkpt lat="34.4133114" lon="8.1110153"><ele>535.3333333333333</ele><time>2026-04-30T16:09:39.786Z</time></trkpt><trkpt lat="34.4133423" lon="8.111271"><ele>536.0</ele><time>2026-04-30T16:09:40.784Z</time></trkpt><trkpt lat="34.4133776" lon="8.1115225"><ele>536.3333333333333</ele><time>2026-04-30T16:09:41.738Z</time></trkpt><trkpt lat="34.4134171" lon="8.1117757"><ele>536.6666666666666</ele><time>2026-04-30T16:09:42.732Z</time></trkpt><trkpt lat="34.4134578" lon="8.1120253"><ele>537.0</ele><time>2026-04-30T16:09:43.723Z</time></trkpt><trkpt lat="34.4134997" lon="8.1122742"><ele>538.0</ele><time>2026-04-30T16:09:44.745Z</time></trkpt><trkpt lat="34.4135429" lon="8.1125172"><ele>539.0</ele><time>2026-04-30T16:09:45.744Z</time></trkpt><trkpt lat="34.4135812" lon="8.1127598"><ele>540.0</ele><time>2026-04-30T16:09:46.742Z</time></trkpt><trkpt lat="34.413619" lon="8.1130025"><ele>541.6666666666666</ele><time>2026-04-30T16:09:47.734Z</time></trkpt><trkpt lat="34.4136511" lon="8.1132473"><ele>543.3333333333333</ele><time>2026-04-30T16:09:48.734Z</time></trkpt><trkpt lat="34.4136795" lon="8.1134945"><ele>545.0</ele><time>2026-04-30T16:09:49.741Z</time></trkpt><trkpt lat="34.4137032" lon="8.1137478"><ele>545.0</ele><time>2026-04-30T16:09:50.743Z</time></trkpt><trkpt lat="34.413714" lon="8.1140088"><ele>545.0</ele><time>2026-04-30T16:09:51.753Z</time></trkpt><trkpt lat="34.4137221" lon="8.1142716"><ele>545.0</ele><time>2026-04-30T16:09:52.748Z</time></trkpt><trkpt lat="34.4137215" lon="8.1145331"><ele>544.6666666666666</ele><time>2026-04-30T16:09:53.785Z</time></trkpt><trkpt lat="34.4137158" lon="8.1147914"><ele>544.3333333333334</ele><time>2026-04-30T16:09:54.793Z</time></trkpt><trkpt lat="34.4137014" lon="8.1150483"><ele>544.0</ele><time>2026-04-30T16:09:55.719Z</time></trkpt><trkpt lat="34.4136744" lon="8.1153043"><ele>544.6666666666667</ele><time>2026-04-30T16:09:56.731Z</time></trkpt><trkpt lat="34.4136347" lon="8.1155594"><ele>545.3333333333334</ele><time>2026-04-30T16:09:57.724Z</time></trkpt><trkpt lat="34.4135898" lon="8.1158093"><ele>546.0</ele><time>2026-04-30T16:09:58.743Z</time></trkpt><trkpt lat="34.4135437" lon="8.11606"><ele>548.0</ele><time>2026-04-30T16:09:59.758Z</time></trkpt><trkpt lat="34.4134971" lon="8.1163076"><ele>550.0</ele><time>2026-04-30T16:10:00.737Z</time></trkpt><trkpt lat="34.4134507" lon="8.1165515"><ele>552.0</ele><time>2026-04-30T16:10:01.744Z</time></trkpt><trkpt lat="34.413411" lon="8.1167961"><ele>553.3333333333334</ele><time>2026-04-30T16:10:02.749Z</time></trkpt><trkpt lat="34.4133654" lon="8.1170426"><ele>554.6666666666667</ele><time>2026-04-30T16:10:03.777Z</time></trkpt><trkpt lat="34.4133156" lon="8.1172874"><ele>556.0</ele><time>2026-04-30T16:10:04.76Z</time></trkpt><trkpt lat="34.4132631" lon="8.1175282"><ele>556.0</ele><time>2026-04-30T16:10:05.761Z</time></trkpt><trkpt lat="34.413218" lon="8.1177736"><ele>556.0</ele><time>2026-04-30T16:10:06.767Z</time></trkpt><trkpt lat="34.4131744" lon="8.1180139"><ele>556.0</ele><time>2026-04-30T16:10:07.753Z</time></trkpt><trkpt lat="34.4131294" lon="8.1182576"><ele>556.3333333333334</ele><time>2026-04-30T16:10:08.766Z</time></trkpt><trkpt lat="34.4130826" lon="8.1184985"><ele>556.6666666666666</ele><time>2026-04-30T16:10:09.762Z</time></trkpt><trkpt lat="34.4130346" lon="8.1187387"><ele>557.0</ele><time>2026-04-30T16:10:10.758Z</time></trkpt><trkpt lat="34.4129898" lon="8.1189737"><ele>559.0</ele><time>2026-04-30T16:10:11.761Z</time></trkpt><trkpt lat="34.4129466" lon="8.1192172"><ele>561.0</ele><time>2026-04-30T16:10:12.739Z</time></trkpt><trkpt lat="34.412903" lon="8.1194623"><ele>563.0</ele><time>2026-04-30T16:10:13.765Z</time></trkpt><trkpt lat="34.4128598" lon="8.1197018"><ele>564.0</ele><time>2026-04-30T16:10:14.751Z</time></trkpt><trkpt lat="34.4128147" lon="8.1199495"><ele>565.0</ele><time>2026-04-30T16:10:15.774Z</time></trkpt><trkpt lat="34.4127681" lon="8.1201954"><ele>566.0</ele><time>2026-04-30T16:10:16.786Z</time></trkpt><trkpt lat="34.4127187" lon="8.1204426"><ele>566.0</ele><time>2026-04-30T16:10:17.756Z</time></trkpt><trkpt lat="34.4126753" lon="8.120687"><ele>566.0</ele><time>2026-04-30T16:10:18.763Z</time></trkpt><trkpt lat="34.4126323" lon="8.1209321"><ele>566.0</ele><time>2026-04-30T16:10:19.778Z</time></trkpt><trkpt lat="34.4125873" lon="8.121175"><ele>568.0</ele><time>2026-04-30T16:10:20.762Z</time></trkpt><trkpt lat="34.4125454" lon="8.1214197"><ele>570.0</ele><time>2026-04-30T16:10:21.781Z</time></trkpt><trkpt lat="34.4125006" lon="8.1216675"><ele>572.0</ele><time>2026-04-30T16:10:22.778Z</time></trkpt><trkpt lat="34.4124574" lon="8.1219163"><ele>572.6666666666666</ele><time>2026-04-30T16:10:23.733Z</time></trkpt><trkpt lat="34.4124181" lon="8.1221588"><ele>573.3333333333334</ele><time>2026-04-30T16:10:24.78Z</time></trkpt><trkpt lat="34.4123748" lon="8.1224032"><ele>574.0</ele><time>2026-04-30T16:10:25.777Z</time></trkpt><trkpt lat="34.4123295" lon="8.1226488"><ele>574.3333333333334</ele><time>2026-04-30T16:10:26.743Z</time></trkpt><trkpt lat="34.4122809" lon="8.1228967"><ele>574.6666666666666</ele><time>2026-04-30T16:10:27.785Z</time></trkpt><trkpt lat="34.4122355" lon="8.1231439"><ele>575.0</ele><time>2026-04-30T16:10:28.784Z</time></trkpt><trkpt lat="34.4121887" lon="8.1233895"><ele>576.6666666666666</ele><time>2026-04-30T16:10:29.796Z</time></trkpt><trkpt lat="34.4121414" lon="8.1236308"><ele>578.3333333333334</ele><time>2026-04-30T16:10:30.784Z</time></trkpt><trkpt lat="34.4120912" lon="8.1238775"><ele>580.0</ele><time>2026-04-30T16:10:31.785Z</time></trkpt><trkpt lat="34.4120445" lon="8.1241209"><ele>581.3333333333334</ele><time>2026-04-30T16:10:32.734Z</time></trkpt><trkpt lat="34.4120029" lon="8.1243626"><ele>582.6666666666666</ele><time>2026-04-30T16:10:33.765Z</time></trkpt><trkpt lat="34.4119624" lon="8.1246054"><ele>584.0</ele><time>2026-04-30T16:10:34.757Z</time></trkpt><trkpt lat="34.4119283" lon="8.1248551"><ele>585.0</ele><time>2026-04-30T16:10:35.785Z</time></trkpt><trkpt lat="34.4119045" lon="8.1251038"><ele>586.0</ele><time>2026-04-30T16:10:36.801Z</time></trkpt><trkpt lat="34.4118922" lon="8.1253586"><ele>587.0</ele><time>2026-04-30T16:10:37.756Z</time></trkpt><trkpt lat="34.4118901" lon="8.1256119"><ele>587.6666666666666</ele><time>2026-04-30T16:10:38.782Z</time></trkpt><trkpt lat="34.4118885" lon="8.1258634"><ele>588.3333333333334</ele><time>2026-04-30T16:10:39.782Z</time></trkpt><trkpt lat="34.4118859" lon="8.1261176"><ele>589.0</ele><time>2026-04-30T16:10:40.783Z</time></trkpt><trkpt lat="34.411887" lon="8.1263688"><ele>590.0</ele><time>2026-04-30T16:10:41.784Z</time></trkpt><trkpt lat="34.4118862" lon="8.1266227"><ele>591.0</ele><time>2026-04-30T16:10:42.774Z</time></trkpt><trkpt lat="34.4118875" lon="8.1268717"><ele>592.0</ele><time>2026-04-30T16:10:43.789Z</time></trkpt><trkpt lat="34.4118889" lon="8.1271242"><ele>592.0</ele><time>2026-04-30T16:10:44.79Z</time></trkpt><trkpt lat="34.4118844" lon="8.1273734"><ele>592.0</ele><time>2026-04-30T16:10:45.753Z</time></trkpt><trkpt lat="34.4118742" lon="8.1276196"><ele>592.0</ele><time>2026-04-30T16:10:46.778Z</time></trkpt><trkpt lat="34.4118485" lon="8.1278635"><ele>594.0</ele><time>2026-04-30T16:10:47.776Z</time></trkpt><trkpt lat="34.4118079" lon="8.1281162"><ele>596.0</ele><time>2026-04-30T16:10:48.773Z</time></trkpt><trkpt lat="34.4117581" lon="8.12836"><ele>598.0</ele><time>2026-04-30T16:10:49.775Z</time></trkpt><trkpt lat="34.4116982" lon="8.1285997"><ele>599.0</ele><time>2026-04-30T16:10:50.727Z</time></trkpt><trkpt lat="34.4116199" lon="8.1288358"><ele>600.0</ele><time>2026-04-30T16:10:51.771Z</time></trkpt><trkpt lat="34.4115354" lon="8.1290688"><ele>601.0</ele><time>2026-04-30T16:10:52.743Z</time></trkpt><trkpt lat="34.4114476" lon="8.1292993"><ele>601.0</ele><time>2026-04-30T16:10:53.777Z</time></trkpt><trkpt lat="34.4113665" lon="8.1295308"><ele>601.0</ele><time>2026-04-30T16:10:54.786Z</time></trkpt><trkpt lat="34.411287" lon="8.1297623"><ele>601.0</ele><time>2026-04-30T16:10:55.757Z</time></trkpt><trkpt lat="34.4111958" lon="8.129991"><ele>601.6666666666667</ele><time>2026-04-30T16:10:56.809Z</time></trkpt><trkpt lat="34.4111027" lon="8.1302205"><ele>602.3333333333334</ele><time>2026-04-30T16:10:57.757Z</time></trkpt><trkpt lat="34.4110079" lon="8.1304439"><ele>603.0</ele><time>2026-04-30T16:10:58.788Z</time></trkpt><trkpt lat="34.4109038" lon="8.1306655"><ele>604.0</ele><time>2026-04-30T16:10:59.8Z</time></trkpt><trkpt lat="34.4107969" lon="8.1308831"><ele>605.0</ele><time>2026-04-30T16:11:00.738Z</time></trkpt><trkpt lat="34.4106874" lon="8.1311013"><ele>606.0</ele><time>2026-04-30T16:11:01.769Z</time></trkpt><trkpt lat="34.4105813" lon="8.1313164"><ele>605.6666666666666</ele><time>2026-04-30T16:11:02.781Z</time></trkpt><trkpt lat="34.4104749" lon="8.1315309"><ele>605.3333333333333</ele><time>2026-04-30T16:11:03.778Z</time></trkpt><trkpt lat="34.4103697" lon="8.1317449"><ele>605.0</ele><time>2026-04-30T16:11:04.784Z</time></trkpt><trkpt lat="34.4102638" lon="8.1319608"><ele>606.3333333333333</ele><time>2026-04-30T16:11:05.793Z</time></trkpt><trkpt lat="34.4101565" lon="8.1321745"><ele>607.6666666666666</ele><time>2026-04-30T16:11:06.785Z</time></trkpt><trkpt lat="34.4100493" lon="8.1323888"><ele>609.0</ele><time>2026-04-30T16:11:07.779Z</time></trkpt><trkpt lat="34.4099432" lon="8.1326074"><ele>610.0</ele><time>2026-04-30T16:11:08.782Z</time></trkpt><trkpt lat="34.4098385" lon="8.1328256"><ele>611.0</ele><time>2026-04-30T16:11:09.788Z</time></trkpt><trkpt lat="34.4097337" lon="8.1330476"><ele>612.0</ele><time>2026-04-30T16:11:10.814Z</time></trkpt><trkpt lat="34.4096244" lon="8.1332717"><ele>612.0</ele><time>2026-04-30T16:11:11.789Z</time></trkpt><trkpt lat="34.4095185" lon="8.1334888"><ele>612.0</ele><time>2026-04-30T16:11:12.761Z</time></trkpt><trkpt lat="34.4094143" lon="8.1337024"><ele>612.0</ele><time>2026-04-30T16:11:13.789Z</time></trkpt><trkpt lat="34.4093086" lon="8.133918"><ele>613.6666666666666</ele><time>2026-04-30T16:11:14.787Z</time></trkpt><trkpt lat="34.4092021" lon="8.134134"><ele>615.3333333333333</ele><time>2026-04-30T16:11:15.797Z</time></trkpt><trkpt lat="34.4090996" lon="8.1343534"><ele>617.0</ele><time>2026-04-30T16:11:16.779Z</time></trkpt><trkpt lat="34.4089918" lon="8.1345684"><ele>617.0</ele><time>2026-04-30T16:11:17.793Z</time></trkpt><trkpt lat="34.4088792" lon="8.1347833"><ele>617.0</ele><time>2026-04-30T16:11:18.739Z</time></trkpt><trkpt lat="34.408762" lon="8.1349912"><ele>617.0</ele><time>2026-04-30T16:11:19.769Z</time></trkpt><trkpt lat="34.4086374" lon="8.1351969"><ele>617.6666666666666</ele><time>2026-04-30T16:11:20.783Z</time></trkpt><trkpt lat="34.4085002" lon="8.1353947"><ele>618.3333333333334</ele><time>2026-04-30T16:11:21.778Z</time></trkpt><trkpt lat="34.4083544" lon="8.1355922"><ele>619.0</ele><time>2026-04-30T16:11:22.773Z</time></trkpt><trkpt lat="34.4081989" lon="8.1358066"><ele>620.0</ele><time>2026-04-30T16:11:23.78Z</time></trkpt><trkpt lat="34.4080457" lon="8.1360193"><ele>621.0</ele><time>2026-04-30T16:11:24.76Z</time></trkpt><trkpt lat="34.4078929" lon="8.1362323"><ele>619.0</ele><time>2026-04-30T16:11:25.781Z</time></trkpt><trkpt lat="34.407741" lon="8.1364448"><ele>617.0</ele><time>2026-04-30T16:11:26.726Z</time></trkpt><trkpt lat="34.4075901" lon="8.1366567"><ele>617.0</ele><time>2026-04-30T16:11:27.725Z</time></trkpt><trkpt lat="34.4074388" lon="8.1368642"><ele>617.0</ele><time>2026-04-30T16:11:28.773Z</time></trkpt><trkpt lat="34.407282" lon="8.1370685"><ele>616.0</ele><time>2026-04-30T16:11:29.727Z</time></trkpt><trkpt lat="34.4071127" lon="8.1372643"><ele>615.0</ele><time>2026-04-30T16:11:30.753Z</time></trkpt><trkpt lat="34.4069263" lon="8.1374508"><ele>615.0</ele><time>2026-04-30T16:11:31.719Z</time></trkpt><trkpt lat="34.4067238" lon="8.1376207"><ele>615.0</ele><time>2026-04-30T16:11:32.736Z</time></trkpt><trkpt lat="34.4065226" lon="8.1377857"><ele>614.5</ele><time>2026-04-30T16:11:33.727Z</time></trkpt><trkpt lat="34.4063163" lon="8.1379419"><ele>614.0</ele><time>2026-04-30T16:11:34.726Z</time></trkpt><trkpt lat="34.4061086" lon="8.1380947"><ele>614.5</ele><time>2026-04-30T16:11:35.722Z</time></trkpt><trkpt lat="34.4059" lon="8.138247"><ele>615.0</ele><time>2026-04-30T16:11:36.73Z</time></trkpt><trkpt lat="34.4056922" lon="8.1383968"><ele>614.5</ele><time>2026-04-30T16:11:37.736Z</time></trkpt><trkpt lat="34.4054864" lon="8.1385489"><ele>614.0</ele><time>2026-04-30T16:11:38.73Z</time></trkpt><trkpt lat="34.405284" lon="8.1386992"><ele>614.0</ele><time>2026-04-30T16:11:39.734Z</time></trkpt><trkpt lat="34.4050859" lon="8.1388463"><ele>614.0</ele><time>2026-04-30T16:11:40.74Z</time></trkpt><trkpt lat="34.4048851" lon="8.1389944"><ele>614.5</ele><time>2026-04-30T16:11:41.73Z</time></trkpt><trkpt lat="34.4046871" lon="8.1391446"><ele>615.0</ele><time>2026-04-30T16:11:42.736Z</time></trkpt><trkpt lat="34.4044877" lon="8.1392977"><ele>616.5</ele><time>2026-04-30T16:11:43.73Z</time></trkpt><trkpt lat="34.4042948" lon="8.1394498"><ele>618.0</ele><time>2026-04-30T16:11:44.732Z</time></trkpt><trkpt lat="34.4041057" lon="8.1396025"><ele>618.0</ele><time>2026-04-30T16:11:45.724Z</time></trkpt><trkpt lat="34.4039189" lon="8.1397591"><ele>618.0</ele><time>2026-04-30T16:11:46.728Z</time></trkpt><trkpt lat="34.4037382" lon="8.1399204"><ele>617.5</ele><time>2026-04-30T16:11:47.73Z</time></trkpt><trkpt lat="34.4035574" lon="8.1400861"><ele>617.0</ele><time>2026-04-30T16:11:48.734Z</time></trkpt><trkpt lat="34.4033753" lon="8.1402547"><ele>617.0</ele><time>2026-04-30T16:11:49.744Z</time></trkpt><trkpt lat="34.4031866" lon="8.140434"><ele>617.0</ele><time>2026-04-30T16:11:50.737Z</time></trkpt><trkpt lat="34.4029946" lon="8.1406169"><ele>616.5</ele><time>2026-04-30T16:11:51.737Z</time></trkpt><trkpt lat="34.4028009" lon="8.1408039"><ele>616.0</ele><time>2026-04-30T16:11:52.736Z</time></trkpt><trkpt lat="34.4026075" lon="8.1409888"><ele>616.0</ele><time>2026-04-30T16:11:53.738Z</time></trkpt><trkpt lat="34.4024059" lon="8.1411753"><ele>616.0</ele><time>2026-04-30T16:11:54.731Z</time></trkpt><trkpt lat="34.4022076" lon="8.1413647"><ele>615.0</ele><time>2026-04-30T16:11:55.738Z</time></trkpt><trkpt lat="34.4020078" lon="8.1415551"><ele>614.0</ele><time>2026-04-30T16:11:56.734Z</time></trkpt><trkpt lat="34.4018057" lon="8.1417406"><ele>614.0</ele><time>2026-04-30T16:11:57.728Z</time></trkpt><trkpt lat="34.4016052" lon="8.1419288"><ele>614.0</ele><time>2026-04-30T16:11:58.721Z</time></trkpt><trkpt lat="34.4014076" lon="8.1421196"><ele>613.0</ele><time>2026-04-30T16:11:59.749Z</time></trkpt><trkpt lat="34.4012078" lon="8.1423078"><ele>612.0</ele><time>2026-04-30T16:12:00.763Z</time></trkpt><trkpt lat="34.4010126" lon="8.1424927"><ele>612.0</ele><time>2026-04-30T16:12:01.738Z</time></trkpt><trkpt lat="34.4008185" lon="8.1426765"><ele>612.0</ele><time>2026-04-30T16:12:02.734Z</time></trkpt><trkpt lat="34.400627" lon="8.1428621"><ele>612.0</ele><time>2026-04-30T16:12:03.735Z</time></trkpt><trkpt lat="34.4004316" lon="8.1430517"><ele>612.0</ele><time>2026-04-30T16:12:04.74Z</time></trkpt><trkpt lat="34.4002427" lon="8.1432411"><ele>609.5</ele><time>2026-04-30T16:12:05.735Z</time></trkpt><trkpt lat="34.4000605" lon="8.1434467"><ele>607.0</ele><time>2026-04-30T16:12:06.738Z</time></trkpt><trkpt lat="34.3998808" lon="8.1436606"><ele>607.0</ele><time>2026-04-30T16:12:07.729Z</time></trkpt><trkpt lat="34.3997066" lon="8.1438758"><ele>607.0</ele><time>2026-04-30T16:12:08.741Z</time></trkpt><trkpt lat="34.3995405" lon="8.1440959"><ele>606.5</ele><time>2026-04-30T16:12:09.737Z</time></trkpt><trkpt lat="34.3993793" lon="8.144317"><ele>606.0</ele><time>2026-04-30T16:12:10.736Z</time></trkpt><trkpt lat="34.399221" lon="8.1445479"><ele>606.0</ele><time>2026-04-30T16:12:11.757Z</time></trkpt><trkpt lat="34.3990738" lon="8.144779"><ele>606.0</ele><time>2026-04-30T16:12:12.732Z</time></trkpt><trkpt lat="34.3989213" lon="8.1450145"><ele>604.5</ele><time>2026-04-30T16:12:13.732Z</time></trkpt><trkpt lat="34.3987795" lon="8.1452577"><ele>603.0</ele><time>2026-04-30T16:12:14.737Z</time></trkpt><trkpt lat="34.3986468" lon="8.1455058"><ele>603.0</ele><time>2026-04-30T16:12:15.735Z</time></trkpt><trkpt lat="34.3985249" lon="8.1457616"><ele>603.0</ele><time>2026-04-30T16:12:16.736Z</time></trkpt><trkpt lat="34.3984039" lon="8.1460162"><ele>603.0</ele><time>2026-04-30T16:12:17.725Z</time></trkpt><trkpt lat="34.3982782" lon="8.1462635"><ele>603.0</ele><time>2026-04-30T16:12:18.724Z</time></trkpt><trkpt lat="34.3981476" lon="8.1465043"><ele>603.0</ele><time>2026-04-30T16:12:19.734Z</time></trkpt><trkpt lat="34.3980053" lon="8.1467376"><ele>603.0</ele><time>2026-04-30T16:12:20.746Z</time></trkpt><trkpt lat="34.3978587" lon="8.1469582"><ele>603.0</ele><time>2026-04-30T16:12:21.734Z</time></trkpt><trkpt lat="34.3976992" lon="8.147187"><ele>603.0</ele><time>2026-04-30T16:12:22.726Z</time></trkpt><trkpt lat="34.3975336" lon="8.1474081"><ele>601.0</ele><time>2026-04-30T16:12:23.73Z</time></trkpt><trkpt lat="34.3973628" lon="8.1476205"><ele>599.0</ele><time>2026-04-30T16:12:24.73Z</time></trkpt><trkpt lat="34.3971868" lon="8.1478289"><ele>599.0</ele><time>2026-04-30T16:12:25.73Z</time></trkpt><trkpt lat="34.3970111" lon="8.148013"><ele>599.0</ele><time>2026-04-30T16:12:26.724Z</time></trkpt><trkpt lat="34.3968225" lon="8.1481801"><ele>597.5</ele><time>2026-04-30T16:12:27.721Z</time></trkpt><trkpt lat="34.3966294" lon="8.1483406"><ele>596.0</ele><time>2026-04-30T16:12:28.725Z</time></trkpt><trkpt lat="34.3964266" lon="8.1484862"><ele>597.5</ele><time>2026-04-30T16:12:29.729Z</time></trkpt><trkpt lat="34.3962236" lon="8.1486214"><ele>599.0</ele><time>2026-04-30T16:12:30.731Z</time></trkpt><trkpt lat="34.3960253" lon="8.1487418"><ele>599.0</ele><time>2026-04-30T16:12:31.734Z</time></trkpt><trkpt lat="34.3958352" lon="8.1488439"><ele>599.0</ele><time>2026-04-30T16:12:32.749Z</time></trkpt><trkpt lat="34.3956521" lon="8.1489345"><ele>599.0</ele><time>2026-04-30T16:12:33.738Z</time></trkpt><trkpt lat="34.3954818" lon="8.1490125"><ele>601.0</ele><time>2026-04-30T16:12:34.741Z</time></trkpt><trkpt lat="34.3953202" lon="8.1490877"><ele>603.0</ele><time>2026-04-30T16:12:35.73Z</time></trkpt><trkpt lat="34.3951724" lon="8.1491681"><ele>605.0</ele><time>2026-04-30T16:12:36.739Z</time></trkpt><trkpt lat="34.3950497" lon="8.1492728"><ele>605.0</ele><time>2026-04-30T16:12:37.729Z</time></trkpt><trkpt lat="34.3949499" lon="8.1493966"><ele>605.0</ele><time>2026-04-30T16:12:38.734Z</time></trkpt><trkpt lat="34.3948611" lon="8.1495457"><ele>605.0</ele><time>2026-04-30T16:12:39.752Z</time></trkpt><trkpt lat="34.3947867" lon="8.1497231"><ele>605.0</ele><time>2026-04-30T16:12:40.741Z</time></trkpt><trkpt lat="34.3947133" lon="8.1499238"><ele>605.0</ele><time>2026-04-30T16:12:41.738Z</time></trkpt><trkpt lat="34.3946404" lon="8.1501395"><ele>605.0</ele><time>2026-04-30T16:12:42.734Z</time></trkpt><trkpt lat="34.3945508" lon="8.1503477"><ele>604.3333333333333</ele><time>2026-04-30T16:12:43.733Z</time></trkpt><trkpt lat="34.3944415" lon="8.1505485"><ele>603.6666666666666</ele><time>2026-04-30T16:12:44.728Z</time></trkpt><trkpt lat="34.3943268" lon="8.1507465"><ele>603.0</ele><time>2026-04-30T16:12:45.732Z</time></trkpt><trkpt lat="34.3941883" lon="8.1509172"><ele>601.6666666666666</ele><time>2026-04-30T16:12:46.725Z</time></trkpt><trkpt lat="34.3940433" lon="8.1510724"><ele>600.3333333333333</ele><time>2026-04-30T16:12:47.726Z</time></trkpt><trkpt lat="34.3938856" lon="8.1512075"><ele>599.0</ele><time>2026-04-30T16:12:48.725Z</time></trkpt><trkpt lat="34.3937242" lon="8.1513124"><ele>599.0</ele><time>2026-04-30T16:12:49.744Z</time></trkpt><trkpt lat="34.3935736" lon="8.1513885"><ele>599.0</ele><time>2026-04-30T16:12:50.736Z</time></trkpt><trkpt lat="34.3934202" lon="8.1514105"><ele>599.0</ele><time>2026-04-30T16:12:51.738Z</time></trkpt><trkpt lat="34.3932667" lon="8.1513972"><ele>599.0</ele><time>2026-04-30T16:12:52.727Z</time></trkpt><trkpt lat="34.3931085" lon="8.1513874"><ele>599.0</ele><time>2026-04-30T16:12:53.733Z</time></trkpt><trkpt lat="34.392951" lon="8.1513891"><ele>599.0</ele><time>2026-04-30T16:12:54.738Z</time></trkpt><trkpt lat="34.392789" lon="8.1514162"><ele>598.3333333333333</ele><time>2026-04-30T16:12:55.737Z</time></trkpt><trkpt lat="34.3926328" lon="8.1514919"><ele>597.6666666666666</ele><time>2026-04-30T16:12:56.73Z</time></trkpt><trkpt lat="34.3924697" lon="8.1515813"><ele>597.0</ele><time>2026-04-30T16:12:57.737Z</time></trkpt><trkpt lat="34.3923254" lon="8.1516719"><ele>595.25</ele><time>2026-04-30T16:12:58.725Z</time></trkpt><trkpt lat="34.3922" lon="8.151775"><ele>593.5</ele><time>2026-04-30T16:12:59.729Z</time></trkpt><trkpt lat="34.3921081" lon="8.1519057"><ele>591.75</ele><time>2026-04-30T16:13:00.73Z</time></trkpt><trkpt lat="34.3920334" lon="8.1520395"><ele>590.0</ele><time>2026-04-30T16:13:01.733Z</time></trkpt><trkpt lat="34.3919952" lon="8.1521844"><ele>590.0</ele><time>2026-04-30T16:13:02.72Z</time></trkpt><trkpt lat="34.3919866" lon="8.1523383"><ele>590.0</ele><time>2026-04-30T16:13:03.728Z</time></trkpt><trkpt lat="34.3920107" lon="8.1524922"><ele>590.0</ele><time>2026-04-30T16:13:04.725Z</time></trkpt><trkpt lat="34.3920444" lon="8.15265"><ele>590.0</ele><time>2026-04-30T16:13:05.728Z</time></trkpt><trkpt lat="34.3920571" lon="8.1528049"><ele>590.25</ele><time>2026-04-30T16:13:06.726Z</time></trkpt><trkpt lat="34.3920506" lon="8.15296"><ele>590.5</ele><time>2026-04-30T16:13:07.723Z</time></trkpt><trkpt lat="34.3920085" lon="8.1530864"><ele>590.75</ele><time>2026-04-30T16:13:08.728Z</time></trkpt><trkpt lat="34.3919481" lon="8.1531922"><ele>591.0</ele><time>2026-04-30T16:13:09.73Z</time></trkpt><trkpt lat="34.3918711" lon="8.1532855"><ele>589.2</ele><time>2026-04-30T16:13:10.725Z</time></trkpt><trkpt lat="34.3917859" lon="8.1533566"><ele>587.4000000000001</ele><time>2026-04-30T16:13:11.734Z</time></trkpt><trkpt lat="34.3917026" lon="8.1533982"><ele>585.6</ele><time>2026-04-30T16:13:12.736Z</time></trkpt><trkpt lat="34.3916088" lon="8.1534251"><ele>583.8000000000001</ele><time>2026-04-30T16:13:13.734Z</time></trkpt><trkpt lat="34.3915138" lon="8.1534316"><ele>582.0</ele><time>2026-04-30T16:13:14.723Z</time></trkpt><trkpt lat="34.3914287" lon="8.1534299"><ele>582.0</ele><time>2026-04-30T16:13:15.727Z</time></trkpt><trkpt lat="34.3913455" lon="8.1534354"><ele>582.0</ele><time>2026-04-30T16:13:16.73Z</time></trkpt><trkpt lat="34.3912616" lon="8.1534433"><ele>582.0</ele><time>2026-04-30T16:13:17.727Z</time></trkpt><trkpt lat="34.391185" lon="8.153456"><ele>582.0</ele><time>2026-04-30T16:13:18.726Z</time></trkpt><trkpt lat="34.3911114" lon="8.1534806"><ele>582.0</ele><time>2026-04-30T16:13:19.729Z</time></trkpt><trkpt lat="34.3910457" lon="8.1535215"><ele>582.0</ele><time>2026-04-30T16:13:20.731Z</time></trkpt><trkpt lat="34.3909801" lon="8.1535905"><ele>582.2</ele><time>2026-04-30T16:13:21.732Z</time></trkpt><trkpt lat="34.3909123" lon="8.1536674"><ele>582.4000000000001</ele><time>2026-04-30T16:13:22.734Z</time></trkpt><trkpt lat="34.3908512" lon="8.1537607"><ele>582.5999999999999</ele><time>2026-04-30T16:13:23.724Z</time></trkpt><trkpt lat="34.3907758" lon="8.153854"><ele>582.8</ele><time>2026-04-30T16:13:24.73Z</time></trkpt><trkpt lat="34.390693" lon="8.1539562"><ele>583.0</ele><time>2026-04-30T16:13:25.736Z</time></trkpt><trkpt lat="34.3906077" lon="8.1540551"><ele>581.25</ele><time>2026-04-30T16:13:26.732Z</time></trkpt><trkpt lat="34.390516" lon="8.1541617"><ele>579.5</ele><time>2026-04-30T16:13:27.731Z</time></trkpt><trkpt lat="34.3904281" lon="8.1542654"><ele>577.75</ele><time>2026-04-30T16:13:28.753Z</time></trkpt><trkpt lat="34.3903375" lon="8.1543718"><ele>576.0</ele><time>2026-04-30T16:13:29.728Z</time></trkpt><trkpt lat="34.3902522" lon="8.1544701"><ele>576.0</ele><time>2026-04-30T16:13:30.729Z</time></trkpt><trkpt lat="34.390172" lon="8.1545554"><ele>576.0</ele><time>2026-04-30T16:13:31.729Z</time></trkpt><trkpt lat="34.3901009" lon="8.1546262"><ele>576.0</ele><time>2026-04-30T16:13:32.724Z</time></trkpt><trkpt lat="34.3900397" lon="8.1546851"><ele>576.0</ele><time>2026-04-30T16:13:33.721Z</time></trkpt><trkpt lat="34.3899443" lon="8.1547487"><ele>576.0</ele><time>2026-04-30T16:13:35.722Z</time></trkpt><trkpt lat="34.3898565" lon="8.1548128"><ele>576.0</ele><time>2026-04-30T16:13:38.727Z</time></trkpt><trkpt lat="34.3897432" lon="8.1548518"><ele>576.0</ele><time>2026-04-30T16:13:40.734Z</time></trkpt><trkpt lat="34.3896768" lon="8.1548479"><ele>576.0</ele><time>2026-04-30T16:13:41.725Z</time></trkpt><trkpt lat="34.3895613" lon="8.1548201"><ele>576.0</ele><time>2026-04-30T16:13:43.734Z</time></trkpt><trkpt lat="34.3894617" lon="8.1547615"><ele>576.0</ele><time>2026-04-30T16:13:45.741Z</time></trkpt><trkpt lat="34.3893555" lon="8.1546991"><ele>575.8333333333334</ele><time>2026-04-30T16:13:47.736Z</time></trkpt><trkpt lat="34.3892663" lon="8.1546445"><ele>575.6666666666666</ele><time>2026-04-30T16:13:49.729Z</time></trkpt><trkpt lat="34.3892041" lon="8.1546052"><ele>575.5</ele><time>2026-04-30T16:13:51.725Z</time></trkpt><trkpt lat="34.3891326" lon="8.1545572"><ele>575.3333333333333</ele><time>2026-04-30T16:13:54.73Z</time></trkpt><trkpt lat="34.3890553" lon="8.154526"><ele>575.1666666666666</ele><time>2026-04-30T16:13:57.727Z</time></trkpt><trkpt lat="34.38899" lon="8.1545035"><ele>575.0</ele><time>2026-04-30T16:14:00.731Z</time></trkpt><trkpt lat="34.3889244" lon="8.1544707"><ele>574.6666666666666</ele><time>2026-04-30T16:14:02.734Z</time></trkpt><trkpt lat="34.3888408" lon="8.1544312"><ele>574.3333333333333</ele><time>2026-04-30T16:14:04.724Z</time></trkpt><trkpt lat="34.388761" lon="8.1543855"><ele>574.0</ele><time>2026-04-30T16:14:06.722Z</time></trkpt><trkpt lat="34.3886874" lon="8.1543278"><ele>573.6666666666666</ele><time>2026-04-30T16:14:08.735Z</time></trkpt><trkpt lat="34.3886149" lon="8.154283"><ele>573.3333333333334</ele><time>2026-04-30T16:14:10.732Z</time></trkpt><trkpt lat="34.3885477" lon="8.1542396"><ele>573.0</ele><time>2026-04-30T16:14:12.728Z</time></trkpt><trkpt lat="34.3884905" lon="8.1542013"><ele>573.0</ele><time>2026-04-30T16:14:14.721Z</time></trkpt><trkpt lat="34.3884195" lon="8.1541579"><ele>573.0</ele><time>2026-04-30T16:14:17.731Z</time></trkpt><trkpt lat="34.3883575" lon="8.1541066"><ele>573.0</ele><time>2026-04-30T16:14:22.741Z</time></trkpt><trkpt lat="34.3882628" lon="8.154074"><ele>573.0</ele><time>2026-04-30T16:15:55.734Z</time></trkpt><trkpt lat="34.3881737" lon="8.154035"><ele>573.0</ele><time>2026-04-30T16:15:57.786Z</time></trkpt><trkpt lat="34.3880914" lon="8.1539784"><ele>573.0</ele><time>2026-04-30T16:15:59.726Z</time></trkpt><trkpt lat="34.3879867" lon="8.1538952"><ele>572.8333333333334</ele><time>2026-04-30T16:16:01.719Z</time></trkpt><trkpt lat="34.3879312" lon="8.153848"><ele>572.6666666666666</ele><time>2026-04-30T16:16:02.749Z</time></trkpt><trkpt lat="34.3878746" lon="8.1538079"><ele>572.5</ele><time>2026-04-30T16:16:03.77Z</time></trkpt><trkpt lat="34.3877562" lon="8.1537358"><ele>572.3333333333333</ele><time>2026-04-30T16:16:05.793Z</time></trkpt><trkpt lat="34.3876905" lon="8.1536929"><ele>572.1666666666666</ele><time>2026-04-30T16:16:06.745Z</time></trkpt><trkpt lat="34.3876136" lon="8.1536593"><ele>572.0</ele><time>2026-04-30T16:16:07.732Z</time></trkpt><trkpt lat="34.3875293" lon="8.1536237"><ele>572.0</ele><time>2026-04-30T16:16:08.728Z</time></trkpt><trkpt lat="34.3874425" lon="8.1535966"><ele>572.0</ele><time>2026-04-30T16:16:09.738Z</time></trkpt><trkpt lat="34.3873484" lon="8.1535809"><ele>572.0</ele><time>2026-04-30T16:16:10.744Z</time></trkpt><trkpt lat="34.3869517" lon="8.1535707"><ele>570.6666666666666</ele><time>2026-04-30T16:16:14.733Z</time></trkpt><trkpt lat="34.38665" lon="8.153573"><ele>569.3333333333334</ele><time>2026-04-30T16:16:17.746Z</time></trkpt><trkpt lat="34.3865508" lon="8.1535807"><ele>568.0</ele><time>2026-04-30T16:16:18.727Z</time></trkpt><trkpt lat="34.3864439" lon="8.1535888"><ele>568.0</ele><time>2026-04-30T16:16:19.725Z</time></trkpt><trkpt lat="34.3863421" lon="8.1536031"><ele>568.0</ele><time>2026-04-30T16:16:20.733Z</time></trkpt><trkpt lat="34.3862449" lon="8.1536153"><ele>568.0</ele><time>2026-04-30T16:16:21.776Z</time></trkpt><trkpt lat="34.3861455" lon="8.1536261"><ele>568.0</ele><time>2026-04-30T16:16:22.724Z</time></trkpt><trkpt lat="34.3860481" lon="8.1536312"><ele>568.0</ele><time>2026-04-30T16:16:23.731Z</time></trkpt><trkpt lat="34.3859494" lon="8.1536426"><ele>568.0</ele><time>2026-04-30T16:16:24.78Z</time></trkpt><trkpt lat="34.385848" lon="8.153655"><ele>568.0</ele><time>2026-04-30T16:16:25.764Z</time></trkpt><trkpt lat="34.3857473" lon="8.1536656"><ele>568.0</ele><time>2026-04-30T16:16:26.749Z</time></trkpt><trkpt lat="34.3856488" lon="8.1536732"><ele>568.0</ele><time>2026-04-30T16:16:27.729Z</time></trkpt><trkpt lat="34.3855469" lon="8.153683"><ele>568.0</ele><time>2026-04-30T16:16:28.771Z</time></trkpt><trkpt lat="34.3854514" lon="8.1536904"><ele>568.3333333333334</ele><time>2026-04-30T16:16:29.73Z</time></trkpt><trkpt lat="34.385355" lon="8.1537021"><ele>568.6666666666667</ele><time>2026-04-30T16:16:30.731Z</time></trkpt><trkpt lat="34.3852571" lon="8.1537098"><ele>569.0</ele><time>2026-04-30T16:16:31.739Z</time></trkpt><trkpt lat="34.3851669" lon="8.1537152"><ele>569.3333333333334</ele><time>2026-04-30T16:16:32.723Z</time></trkpt><trkpt lat="34.3850881" lon="8.1537278"><ele>569.6666666666666</ele><time>2026-04-30T16:16:33.729Z</time></trkpt><trkpt lat="34.3850185" lon="8.1537348"><ele>570.0</ele><time>2026-04-30T16:16:34.734Z</time></trkpt><trkpt lat="34.3849505" lon="8.1537331"><ele>570.0</ele><time>2026-04-30T16:16:35.759Z</time></trkpt><trkpt lat="34.3848842" lon="8.1537309"><ele>570.0</ele><time>2026-04-30T16:16:36.745Z</time></trkpt><trkpt lat="34.3848109" lon="8.1537276"><ele>570.0</ele><time>2026-04-30T16:16:37.741Z</time></trkpt><trkpt lat="34.384742" lon="8.1537208"><ele>570.0</ele><time>2026-04-30T16:16:38.74Z</time></trkpt><trkpt lat="34.3846291" lon="8.1537182"><ele>570.0</ele><time>2026-04-30T16:16:40.732Z</time></trkpt><trkpt lat="34.3845482" lon="8.1537128"><ele>570.0</ele><time>2026-04-30T16:16:43.749Z</time></trkpt><trkpt lat="34.3844816" lon="8.1536985"><ele>569.8</ele><time>2026-04-30T16:16:46.739Z</time></trkpt><trkpt lat="34.3843936" lon="8.1537123"><ele>569.6</ele><time>2026-04-30T16:16:48.754Z</time></trkpt><trkpt lat="34.3843307" lon="8.1538088"><ele>569.4</ele><time>2026-04-30T16:16:50.742Z</time></trkpt><trkpt lat="34.3843287" lon="8.153938"><ele>569.2</ele><time>2026-04-30T16:16:52.754Z</time></trkpt><trkpt lat="34.3843912" lon="8.1540587"><ele>569.0</ele><time>2026-04-30T16:16:54.76Z</time></trkpt><trkpt lat="34.384446" lon="8.1541193"><ele>568.25</ele><time>2026-04-30T16:16:55.748Z</time></trkpt><trkpt lat="34.3845061" lon="8.1541882"><ele>567.5</ele><time>2026-04-30T16:16:56.757Z</time></trkpt><trkpt lat="34.3845776" lon="8.1542994"><ele>566.75</ele><time>2026-04-30T16:16:57.75Z</time></trkpt><trkpt lat="34.3846785" lon="8.1544643"><ele>566.0</ele><time>2026-04-30T16:16:58.757Z</time></trkpt><trkpt lat="34.3847957" lon="8.1546403"><ele>566.0</ele><time>2026-04-30T16:16:59.744Z</time></trkpt><trkpt lat="34.3849028" lon="8.1547922"><ele>566.0</ele><time>2026-04-30T16:17:00.749Z</time></trkpt><trkpt lat="34.3849997" lon="8.1549394"><ele>566.0</ele><time>2026-04-30T16:17:01.743Z</time></trkpt><trkpt lat="34.3850878" lon="8.1550595"><ele>565.25</ele><time>2026-04-30T16:17:02.765Z</time></trkpt><trkpt lat="34.3851693" lon="8.1551879"><ele>564.5</ele><time>2026-04-30T16:17:03.756Z</time></trkpt><trkpt lat="34.385244" lon="8.1553078"><ele>563.75</ele><time>2026-04-30T16:17:04.739Z</time></trkpt><trkpt lat="34.3853202" lon="8.1554256"><ele>563.0</ele><time>2026-04-30T16:17:05.748Z</time></trkpt><trkpt lat="34.3853907" lon="8.1555422"><ele>563.0</ele><time>2026-04-30T16:17:06.759Z</time></trkpt><trkpt lat="34.3854591" lon="8.1556548"><ele>563.0</ele><time>2026-04-30T16:17:07.755Z</time></trkpt><trkpt lat="34.3855298" lon="8.1557655"><ele>563.0</ele><time>2026-04-30T16:17:08.756Z</time></trkpt><trkpt lat="34.3856015" lon="8.1558774"><ele>563.0</ele><time>2026-04-30T16:17:09.738Z</time></trkpt><trkpt lat="34.3856673" lon="8.1559839"><ele>563.0</ele><time>2026-04-30T16:17:10.757Z</time></trkpt><trkpt lat="34.38574" lon="8.1560912"><ele>563.0</ele><time>2026-04-30T16:17:11.749Z</time></trkpt><trkpt lat="34.3858128" lon="8.156196"><ele>563.0</ele><time>2026-04-30T16:17:12.757Z</time></trkpt><trkpt lat="34.3858758" lon="8.1562938"><ele>563.0</ele><time>2026-04-30T16:17:13.749Z</time></trkpt><trkpt lat="34.3859364" lon="8.1563933"><ele>563.0</ele><time>2026-04-30T16:17:14.74Z</time></trkpt><trkpt lat="34.3859989" lon="8.1564943"><ele>562.6</ele><time>2026-04-30T16:17:15.751Z</time></trkpt><trkpt lat="34.3860628" lon="8.1565924"><ele>562.1999999999999</ele><time>2026-04-30T16:17:16.749Z</time></trkpt><trkpt lat="34.3861251" lon="8.1566865"><ele>561.8</ele><time>2026-04-30T16:17:17.741Z</time></trkpt><trkpt lat="34.3861856" lon="8.1567835"><ele>561.4</ele><time>2026-04-30T16:17:18.748Z</time></trkpt><trkpt lat="34.3862456" lon="8.1568787"><ele>561.0</ele><time>2026-04-30T16:17:19.741Z</time></trkpt><trkpt lat="34.3863101" lon="8.1569739"><ele>560.8</ele><time>2026-04-30T16:17:20.745Z</time></trkpt><trkpt lat="34.3863721" lon="8.1570626"><ele>560.6</ele><time>2026-04-30T16:17:21.744Z</time></trkpt><trkpt lat="34.3864325" lon="8.1571486"><ele>560.4</ele><time>2026-04-30T16:17:22.75Z</time></trkpt><trkpt lat="34.38649" lon="8.1572386"><ele>560.2</ele><time>2026-04-30T16:17:23.756Z</time></trkpt><trkpt lat="34.3865448" lon="8.1573249"><ele>560.0</ele><time>2026-04-30T16:17:24.756Z</time></trkpt><trkpt lat="34.3865987" lon="8.1574075"><ele>560.0</ele><time>2026-04-30T16:17:25.756Z</time></trkpt><trkpt lat="34.3866472" lon="8.1574848"><ele>560.0</ele><time>2026-04-30T16:17:26.752Z</time></trkpt><trkpt lat="34.386691" lon="8.1575483"><ele>560.0</ele><time>2026-04-30T16:17:27.744Z</time></trkpt><trkpt lat="34.3867333" lon="8.1576065"><ele>560.0</ele><time>2026-04-30T16:17:28.749Z</time></trkpt><trkpt lat="34.3868103" lon="8.1577258"><ele>560.0</ele><time>2026-04-30T16:17:30.743Z</time></trkpt><trkpt lat="34.386851" lon="8.1577932"><ele>560.0</ele><time>2026-04-30T16:17:31.735Z</time></trkpt><trkpt lat="34.3868947" lon="8.1578604"><ele>560.0</ele><time>2026-04-30T16:17:32.75Z</time></trkpt><trkpt lat="34.3869351" lon="8.1579282"><ele>560.0</ele><time>2026-04-30T16:17:33.736Z</time></trkpt><trkpt lat="34.3869745" lon="8.1579878"><ele>560.0</ele><time>2026-04-30T16:17:34.757Z</time></trkpt><trkpt lat="34.387041" lon="8.1581012"><ele>560.0</ele><time>2026-04-30T16:17:36.743Z</time></trkpt><trkpt lat="34.3871022" lon="8.1582025"><ele>560.0</ele><time>2026-04-30T16:17:38.76Z</time></trkpt><trkpt lat="34.3871709" lon="8.1583175"><ele>560.6666666666666</ele><time>2026-04-30T16:17:40.758Z</time></trkpt><trkpt lat="34.3872129" lon="8.1583754"><ele>561.3333333333333</ele><time>2026-04-30T16:17:41.738Z</time></trkpt><trkpt lat="34.3872538" lon="8.1584383"><ele>562.0</ele><time>2026-04-30T16:17:42.758Z</time></trkpt><trkpt lat="34.3873217" lon="8.1585545"><ele>562.6666666666666</ele><time>2026-04-30T16:17:44.76Z</time></trkpt><trkpt lat="34.3873823" lon="8.1586508"><ele>563.3333333333334</ele><time>2026-04-30T16:17:46.757Z</time></trkpt><trkpt lat="34.3874297" lon="8.1587363"><ele>564.0</ele><time>2026-04-30T16:17:48.734Z</time></trkpt><trkpt lat="34.3874779" lon="8.1588099"><ele>564.0</ele><time>2026-04-30T16:17:50.762Z</time></trkpt><trkpt lat="34.3875447" lon="8.1588986"><ele>564.0</ele><time>2026-04-30T16:17:52.867Z</time></trkpt><trkpt lat="34.3876135" lon="8.1590145"><ele>564.0</ele><time>2026-04-30T16:17:54.833Z</time></trkpt><trkpt lat="34.3876932" lon="8.159131"><ele>564.0</ele><time>2026-04-30T16:17:56.808Z</time></trkpt><trkpt lat="34.3877358" lon="8.1591951"><ele>564.0</ele><time>2026-04-30T16:17:57.849Z</time></trkpt><trkpt lat="34.3877817" lon="8.1592696"><ele>563.8571428571429</ele><time>2026-04-30T16:17:58.834Z</time></trkpt><trkpt lat="34.3878195" lon="8.1593411"><ele>563.7142857142857</ele><time>2026-04-30T16:17:59.844Z</time></trkpt><trkpt lat="34.3878591" lon="8.1594059"><ele>563.5714285714286</ele><time>2026-04-30T16:18:00.79Z</time></trkpt><trkpt lat="34.3878994" lon="8.1594717"><ele>563.4285714285714</ele><time>2026-04-30T16:18:01.836Z</time></trkpt><trkpt lat="34.3879423" lon="8.1595386"><ele>563.2857142857143</ele><time>2026-04-30T16:18:02.853Z</time></trkpt><trkpt lat="34.3879909" lon="8.1596003"><ele>563.1428571428571</ele><time>2026-04-30T16:18:03.834Z</time></trkpt><trkpt lat="34.3880376" lon="8.15966"><ele>563.0</ele><time>2026-04-30T16:18:04.838Z</time></trkpt><trkpt lat="34.388076" lon="8.1597299"><ele>563.0</ele><time>2026-04-30T16:18:05.841Z</time></trkpt><trkpt lat="34.3881163" lon="8.159792"><ele>563.0</ele><time>2026-04-30T16:18:06.843Z</time></trkpt><trkpt lat="34.3881819" lon="8.1599081"><ele>563.0</ele><time>2026-04-30T16:18:08.847Z</time></trkpt><trkpt lat="34.3882565" lon="8.1600302"><ele>563.0</ele><time>2026-04-30T16:18:10.851Z</time></trkpt><trkpt lat="34.3882971" lon="8.1600976"><ele>563.0</ele><time>2026-04-30T16:18:11.837Z</time></trkpt><trkpt lat="34.3883406" lon="8.1601641"><ele>563.0</ele><time>2026-04-30T16:18:12.834Z</time></trkpt><trkpt lat="34.3883836" lon="8.1602319"><ele>562.6666666666666</ele><time>2026-04-30T16:18:13.857Z</time></trkpt><trkpt lat="34.3884274" lon="8.1603043"><ele>562.3333333333333</ele><time>2026-04-30T16:18:14.855Z</time></trkpt><trkpt lat="34.3884794" lon="8.1603787"><ele>562.0</ele><time>2026-04-30T16:18:15.841Z</time></trkpt><trkpt lat="34.3885291" lon="8.1604576"><ele>561.6666666666666</ele><time>2026-04-30T16:18:16.815Z</time></trkpt><trkpt lat="34.3885747" lon="8.16053"><ele>561.3333333333334</ele><time>2026-04-30T16:18:17.84Z</time></trkpt><trkpt lat="34.3886189" lon="8.1606125"><ele>561.0</ele><time>2026-04-30T16:18:18.809Z</time></trkpt><trkpt lat="34.3886626" lon="8.1606944"><ele>560.8333333333334</ele><time>2026-04-30T16:18:19.841Z</time></trkpt><trkpt lat="34.3887103" lon="8.1607711"><ele>560.6666666666666</ele><time>2026-04-30T16:18:20.812Z</time></trkpt><trkpt lat="34.388763" lon="8.1608488"><ele>560.5</ele><time>2026-04-30T16:18:21.817Z</time></trkpt><trkpt lat="34.3888176" lon="8.160928"><ele>560.3333333333333</ele><time>2026-04-30T16:18:22.86Z</time></trkpt><trkpt lat="34.3888677" lon="8.1610082"><ele>560.1666666666666</ele><time>2026-04-30T16:18:23.858Z</time></trkpt><trkpt lat="34.3889223" lon="8.1610955"><ele>560.0</ele><time>2026-04-30T16:18:24.87Z</time></trkpt><trkpt lat="34.3889741" lon="8.1611838"><ele>560.2</ele><time>2026-04-30T16:18:25.841Z</time></trkpt><trkpt lat="34.3890306" lon="8.161272"><ele>560.4</ele><time>2026-04-30T16:18:26.853Z</time></trkpt><trkpt lat="34.3890894" lon="8.1613704"><ele>560.6</ele><time>2026-04-30T16:18:27.849Z</time></trkpt><trkpt lat="34.3891459" lon="8.1614645"><ele>560.8</ele><time>2026-04-30T16:18:28.813Z</time></trkpt><trkpt lat="34.3892069" lon="8.1615636"><ele>561.0</ele><time>2026-04-30T16:18:29.837Z</time></trkpt><trkpt lat="34.3892672" lon="8.161657"><ele>561.0</ele><time>2026-04-30T16:18:30.832Z</time></trkpt><trkpt lat="34.3893233" lon="8.161752"><ele>561.0</ele><time>2026-04-30T16:18:31.845Z</time></trkpt><trkpt lat="34.3893863" lon="8.1618457"><ele>561.0</ele><time>2026-04-30T16:18:32.832Z</time></trkpt><trkpt lat="34.3894364" lon="8.1619225"><ele>561.0</ele><time>2026-04-30T16:18:33.859Z</time></trkpt><trkpt lat="34.3894834" lon="8.1619883"><ele>561.0</ele><time>2026-04-30T16:18:34.836Z</time></trkpt><trkpt lat="34.3895253" lon="8.1620539"><ele>561.0</ele><time>2026-04-30T16:18:35.788Z</time></trkpt><trkpt lat="34.3895927" lon="8.1621179"><ele>561.1666666666666</ele><time>2026-04-30T16:18:37.812Z</time></trkpt><trkpt lat="34.38968" lon="8.1621097"><ele>561.3333333333334</ele><time>2026-04-30T16:18:40.835Z</time></trkpt><trkpt lat="34.389747" lon="8.1621261"><ele>561.5</ele><time>2026-04-30T16:18:43.842Z</time></trkpt><trkpt lat="34.3898091" lon="8.1621789"><ele>561.6666666666667</ele><time>2026-04-30T16:18:56.844Z</time></trkpt><trkpt lat="34.3898385" lon="8.1623013"><ele>561.8333333333334</ele><time>2026-04-30T16:19:01.774Z</time></trkpt><trkpt lat="34.3898854" lon="8.1622455"><ele>562.0</ele><time>2026-04-30T16:25:02.733Z</time></trkpt><trkpt lat="34.3898732" lon="8.1621593"><ele>562.0</ele><time>2026-04-30T16:25:05.739Z</time></trkpt><trkpt lat="34.3898068" lon="8.1621211"><ele>562.0</ele><time>2026-04-30T16:25:10.737Z</time></trkpt><trkpt lat="34.3897315" lon="8.1620865"><ele>562.0</ele><time>2026-04-30T16:31:15.791Z</time></trkpt><trkpt lat="34.3896544" lon="8.1620666"><ele>562.0</ele><time>2026-04-30T16:31:18.776Z</time></trkpt><trkpt lat="34.3895724" lon="8.1619934"><ele>562.0</ele><time>2026-04-30T16:31:21.77Z</time></trkpt><trkpt lat="34.38951" lon="8.1618901"><ele>562.0</ele><time>2026-04-30T16:31:23.778Z</time></trkpt><trkpt lat="34.3894482" lon="8.1617885"><ele>562.0</ele><time>2026-04-30T16:31:25.719Z</time></trkpt><trkpt lat="34.3893862" lon="8.1617035"><ele>562.0</ele><time>2026-04-30T16:31:27.773Z</time></trkpt><trkpt lat="34.3893203" lon="8.16161"><ele>562.0</ele><time>2026-04-30T16:31:29.76Z</time></trkpt><trkpt lat="34.3892581" lon="8.1615097"><ele>562.0</ele><time>2026-04-30T16:31:31.787Z</time></trkpt><trkpt lat="34.3892196" lon="8.1614493"><ele>562.0</ele><time>2026-04-30T16:31:32.778Z</time></trkpt><trkpt lat="34.3891774" lon="8.1613885"><ele>562.0</ele><time>2026-04-30T16:31:33.753Z</time></trkpt><trkpt lat="34.389136" lon="8.1613262"><ele>562.0</ele><time>2026-04-30T16:31:34.752Z</time></trkpt><trkpt lat="34.3890874" lon="8.1612545"><ele>562.0</ele><time>2026-04-30T16:31:35.73Z</time></trkpt><trkpt lat="34.3890412" lon="8.1611777"><ele>562.0</ele><time>2026-04-30T16:31:36.727Z</time></trkpt><trkpt lat="34.3889953" lon="8.1611004"><ele>562.0</ele><time>2026-04-30T16:31:37.721Z</time></trkpt><trkpt lat="34.388946" lon="8.1610215"><ele>562.0</ele><time>2026-04-30T16:31:38.722Z</time></trkpt><trkpt lat="34.3888476" lon="8.1608763"><ele>561.75</ele><time>2026-04-30T16:31:40.731Z</time></trkpt><trkpt lat="34.3887626" lon="8.1607353"><ele>561.5</ele><time>2026-04-30T16:31:42.766Z</time></trkpt><trkpt lat="34.3886416" lon="8.1605498"><ele>561.25</ele><time>2026-04-30T16:31:45.733Z</time></trkpt><trkpt lat="34.3885986" lon="8.1604822"><ele>561.0</ele><time>2026-04-30T16:31:46.714Z</time></trkpt><trkpt lat="34.3885608" lon="8.1604111"><ele>561.0</ele><time>2026-04-30T16:31:47.761Z</time></trkpt><trkpt lat="34.3885178" lon="8.1603436"><ele>561.0</ele><time>2026-04-30T16:31:48.752Z</time></trkpt><trkpt lat="34.3884733" lon="8.1602763"><ele>561.0</ele><time>2026-04-30T16:31:49.75Z</time></trkpt><trkpt lat="34.3884342" lon="8.1602103"><ele>561.0</ele><time>2026-04-30T16:31:50.776Z</time></trkpt><trkpt lat="34.3883903" lon="8.1601418"><ele>561.0</ele><time>2026-04-30T16:31:51.781Z</time></trkpt><trkpt lat="34.3883454" lon="8.1600823"><ele>561.0</ele><time>2026-04-30T16:31:52.735Z</time></trkpt><trkpt lat="34.3883038" lon="8.1600226"><ele>561.0</ele><time>2026-04-30T16:31:53.772Z</time></trkpt><trkpt lat="34.3882594" lon="8.1599171"><ele>561.1666666666666</ele><time>2026-04-30T16:31:55.778Z</time></trkpt><trkpt lat="34.3882113" lon="8.1598246"><ele>561.3333333333334</ele><time>2026-04-30T16:31:58.722Z</time></trkpt><trkpt lat="34.3881783" lon="8.1597475"><ele>561.5</ele><time>2026-04-30T16:32:02.745Z</time></trkpt><trkpt lat="34.388122" lon="8.1596736"><ele>561.6666666666667</ele><time>2026-04-30T16:37:34.754Z</time></trkpt><trkpt lat="34.3880818" lon="8.1596102"><ele>561.8333333333334</ele><time>2026-04-30T16:37:36.738Z</time></trkpt><trkpt lat="34.3880328" lon="8.1595422"><ele>562.0</ele><time>2026-04-30T16:37:38.712Z</time></trkpt><trkpt lat="34.3879819" lon="8.1594529"><ele>562.0</ele><time>2026-04-30T16:37:40.734Z</time></trkpt><trkpt lat="34.3879161" lon="8.1593536"><ele>562.0</ele><time>2026-04-30T16:37:42.761Z</time></trkpt><trkpt lat="34.3878468" lon="8.159237"><ele>562.0</ele><time>2026-04-30T16:37:44.74Z</time></trkpt><trkpt lat="34.387798" lon="8.1591709"><ele>562.0</ele><time>2026-04-30T16:37:45.721Z</time></trkpt><trkpt lat="34.3877521" lon="8.1591033"><ele>562.0</ele><time>2026-04-30T16:37:46.724Z</time></trkpt><trkpt lat="34.3877104" lon="8.1590409"><ele>562.0</ele><time>2026-04-30T16:37:47.732Z</time></trkpt><trkpt lat="34.3876687" lon="8.1589784"><ele>562.5</ele><time>2026-04-30T16:37:48.714Z</time></trkpt><trkpt lat="34.3876325" lon="8.1589135"><ele>563.0</ele><time>2026-04-30T16:37:49.726Z</time></trkpt><trkpt lat="34.3875006" lon="8.1587131"><ele>563.5</ele><time>2026-04-30T16:37:52.766Z</time></trkpt><trkpt lat="34.3874158" lon="8.1585885"><ele>564.0</ele><time>2026-04-30T16:37:54.74Z</time></trkpt><trkpt lat="34.3873765" lon="8.1585281"><ele>564.0</ele><time>2026-04-30T16:37:55.713Z</time></trkpt><trkpt lat="34.3873023" lon="8.1583986"><ele>564.0</ele><time>2026-04-30T16:37:57.726Z</time></trkpt><trkpt lat="34.3872558" lon="8.1583275"><ele>564.0</ele><time>2026-04-30T16:37:58.714Z</time></trkpt><trkpt lat="34.3872094" lon="8.1582614"><ele>564.0</ele><time>2026-04-30T16:37:59.751Z</time></trkpt><trkpt lat="34.3871648" lon="8.1581891"><ele>564.0</ele><time>2026-04-30T16:38:00.751Z</time></trkpt><trkpt lat="34.3871111" lon="8.1581157"><ele>564.0</ele><time>2026-04-30T16:38:01.735Z</time></trkpt><trkpt lat="34.3870598" lon="8.1580412"><ele>563.2</ele><time>2026-04-30T16:38:02.748Z</time></trkpt><trkpt lat="34.3870132" lon="8.1579575"><ele>562.4</ele><time>2026-04-30T16:38:03.747Z</time></trkpt><trkpt lat="34.386957" lon="8.1578711"><ele>561.6</ele><time>2026-04-30T16:38:04.761Z</time></trkpt><trkpt lat="34.3868941" lon="8.1577821"><ele>560.8</ele><time>2026-04-30T16:38:05.78Z</time></trkpt><trkpt lat="34.3868353" lon="8.1576868"><ele>560.0</ele><time>2026-04-30T16:38:06.729Z</time></trkpt><trkpt lat="34.386771" lon="8.1575842"><ele>560.0</ele><time>2026-04-30T16:38:07.731Z</time></trkpt><trkpt lat="34.3867113" lon="8.1574835"><ele>560.0</ele><time>2026-04-30T16:38:08.727Z</time></trkpt><trkpt lat="34.3866432" lon="8.1573813"><ele>560.0</ele><time>2026-04-30T16:38:09.735Z</time></trkpt><trkpt lat="34.3865849" lon="8.1572801"><ele>560.0</ele><time>2026-04-30T16:38:10.714Z</time></trkpt><trkpt lat="34.3865238" lon="8.1571767"><ele>560.0</ele><time>2026-04-30T16:38:11.725Z</time></trkpt><trkpt lat="34.3864657" lon="8.1570692"><ele>560.25</ele><time>2026-04-30T16:38:12.746Z</time></trkpt><trkpt lat="34.3864014" lon="8.1569646"><ele>560.5</ele><time>2026-04-30T16:38:13.751Z</time></trkpt><trkpt lat="34.3863298" lon="8.1568546"><ele>560.75</ele><time>2026-04-30T16:38:14.72Z</time></trkpt><trkpt lat="34.3862562" lon="8.1567407"><ele>561.0</ele><time>2026-04-30T16:38:15.77Z</time></trkpt><trkpt lat="34.3861811" lon="8.1566308"><ele>561.5</ele><time>2026-04-30T16:38:16.746Z</time></trkpt><trkpt lat="34.3861084" lon="8.1565175"><ele>562.0</ele><time>2026-04-30T16:38:17.775Z</time></trkpt><trkpt lat="34.3860322" lon="8.156404"><ele>562.5</ele><time>2026-04-30T16:38:18.741Z</time></trkpt><trkpt lat="34.3859589" lon="8.156297"><ele>563.0</ele><time>2026-04-30T16:38:19.749Z</time></trkpt><trkpt lat="34.3858865" lon="8.1561854"><ele>563.0</ele><time>2026-04-30T16:38:20.756Z</time></trkpt><trkpt lat="34.3858162" lon="8.1560735"><ele>563.0</ele><time>2026-04-30T16:38:21.761Z</time></trkpt><trkpt lat="34.3857385" lon="8.1559608"><ele>563.0</ele><time>2026-04-30T16:38:22.751Z</time></trkpt><trkpt lat="34.3856627" lon="8.155853"><ele>563.0</ele><time>2026-04-30T16:38:23.751Z</time></trkpt><trkpt lat="34.3855885" lon="8.1557418"><ele>563.0</ele><time>2026-04-30T16:38:24.756Z</time></trkpt><trkpt lat="34.3855118" lon="8.1556292"><ele>563.0</ele><time>2026-04-30T16:38:25.768Z</time></trkpt><trkpt lat="34.3854402" lon="8.1555151"><ele>563.0</ele><time>2026-04-30T16:38:26.777Z</time></trkpt><trkpt lat="34.3853729" lon="8.1554012"><ele>563.0</ele><time>2026-04-30T16:38:27.749Z</time></trkpt><trkpt lat="34.3853044" lon="8.1552929"><ele>563.0</ele><time>2026-04-30T16:38:28.744Z</time></trkpt><trkpt lat="34.3852386" lon="8.1551891"><ele>563.0</ele><time>2026-04-30T16:38:29.73Z</time></trkpt><trkpt lat="34.3851787" lon="8.1550889"><ele>563.0</ele><time>2026-04-30T16:38:30.731Z</time></trkpt><trkpt lat="34.3851156" lon="8.1549908"><ele>563.0</ele><time>2026-04-30T16:38:31.719Z</time></trkpt><trkpt lat="34.3850567" lon="8.1548977"><ele>563.0</ele><time>2026-04-30T16:38:32.737Z</time></trkpt><trkpt lat="34.3850013" lon="8.1548039"><ele>563.5</ele><time>2026-04-30T16:38:33.752Z</time></trkpt><trkpt lat="34.384946" lon="8.1547194"><ele>564.0</ele><time>2026-04-30T16:38:34.723Z</time></trkpt><trkpt lat="34.3848954" lon="8.1546406"><ele>564.5</ele><time>2026-04-30T16:38:35.727Z</time></trkpt><trkpt lat="34.3848529" lon="8.1545693"><ele>565.0</ele><time>2026-04-30T16:38:36.738Z</time></trkpt><trkpt lat="34.3848032" lon="8.1544971"><ele>565.5</ele><time>2026-04-30T16:38:37.736Z</time></trkpt><trkpt lat="34.3847565" lon="8.1544298"><ele>566.0</ele><time>2026-04-30T16:38:38.736Z</time></trkpt><trkpt lat="34.384704" lon="8.1543553"><ele>565.8</ele><time>2026-04-30T16:38:39.738Z</time></trkpt><trkpt lat="34.384652" lon="8.1542788"><ele>565.6</ele><time>2026-04-30T16:38:40.75Z</time></trkpt><trkpt lat="34.3846091" lon="8.1542132"><ele>565.4</ele><time>2026-04-30T16:38:41.723Z</time></trkpt><trkpt lat="34.3845541" lon="8.1541277"><ele>565.2</ele><time>2026-04-30T16:38:43.736Z</time></trkpt><trkpt lat="34.3845268" lon="8.1539912"><ele>565.0</ele><time>2026-04-30T16:38:53.731Z</time></trkpt><trkpt lat="34.3845333" lon="8.153868"><ele>565.6666666666667</ele><time>2026-04-30T16:38:55.725Z</time></trkpt><trkpt lat="34.3845254" lon="8.1537894"><ele>566.3333333333334</ele><time>2026-04-30T16:38:57.744Z</time></trkpt><trkpt lat="34.3844796" lon="8.1537336"><ele>567.0</ele><time>2026-04-30T16:38:59.753Z</time></trkpt><trkpt lat="34.3843822" lon="8.1537258"><ele>567.6666666666666</ele><time>2026-04-30T16:39:01.747Z</time></trkpt><trkpt lat="34.3842729" lon="8.1537248"><ele>568.3333333333333</ele><time>2026-04-30T16:39:03.73Z</time></trkpt><trkpt lat="34.3841647" lon="8.1536973"><ele>569.0</ele><time>2026-04-30T16:39:05.745Z</time></trkpt><trkpt lat="34.3840734" lon="8.1536512"><ele>569.0</ele><time>2026-04-30T16:39:07.738Z</time></trkpt><trkpt lat="34.383981" lon="8.1535907"><ele>569.0</ele><time>2026-04-30T16:39:09.738Z</time></trkpt><trkpt lat="34.3838901" lon="8.1535293"><ele>569.0</ele><time>2026-04-30T16:39:11.728Z</time></trkpt><trkpt lat="34.3838008" lon="8.1534716"><ele>569.0</ele><time>2026-04-30T16:39:13.727Z</time></trkpt><trkpt lat="34.3837451" lon="8.1534319"><ele>569.0</ele><time>2026-04-30T16:39:14.726Z</time></trkpt><trkpt lat="34.3836879" lon="8.153393"><ele>569.0</ele><time>2026-04-30T16:39:15.737Z</time></trkpt><trkpt lat="34.3836278" lon="8.1533525"><ele>568.7142857142858</ele><time>2026-04-30T16:39:16.732Z</time></trkpt><trkpt lat="34.3835671" lon="8.1533121"><ele>568.4285714285714</ele><time>2026-04-30T16:39:17.735Z</time></trkpt><trkpt lat="34.3835063" lon="8.1532695"><ele>568.1428571428571</ele><time>2026-04-30T16:39:18.736Z</time></trkpt><trkpt lat="34.3834416" lon="8.1532219"><ele>567.8571428571429</ele><time>2026-04-30T16:39:19.743Z</time></trkpt><trkpt lat="34.3833786" lon="8.1531784"><ele>567.5714285714286</ele><time>2026-04-30T16:39:20.729Z</time></trkpt><trkpt lat="34.3833175" lon="8.1531309"><ele>567.2857142857143</ele><time>2026-04-30T16:39:21.738Z</time></trkpt><trkpt lat="34.3832566" lon="8.1530847"><ele>567.0</ele><time>2026-04-30T16:39:22.744Z</time></trkpt><trkpt lat="34.3831917" lon="8.1530416"><ele>567.0</ele><time>2026-04-30T16:39:23.747Z</time></trkpt><trkpt lat="34.383129" lon="8.1529962"><ele>567.0</ele><time>2026-04-30T16:39:24.748Z</time></trkpt><trkpt lat="34.3830657" lon="8.1529505"><ele>567.0</ele><time>2026-04-30T16:39:25.741Z</time></trkpt><trkpt lat="34.383" lon="8.1529013"><ele>567.0</ele><time>2026-04-30T16:39:26.75Z</time></trkpt><trkpt lat="34.3829325" lon="8.1528522"><ele>567.0</ele><time>2026-04-30T16:39:27.744Z</time></trkpt><trkpt lat="34.382868" lon="8.1527954"><ele>567.0</ele><time>2026-04-30T16:39:28.746Z</time></trkpt><trkpt lat="34.3828001" lon="8.1527427"><ele>567.0</ele><time>2026-04-30T16:39:29.737Z</time></trkpt><trkpt lat="34.3827343" lon="8.1526963"><ele>567.0</ele><time>2026-04-30T16:39:30.737Z</time></trkpt><trkpt lat="34.382664" lon="8.1526422"><ele>567.0</ele><time>2026-04-30T16:39:31.758Z</time></trkpt><trkpt lat="34.3826012" lon="8.1525975"><ele>567.0</ele><time>2026-04-30T16:39:32.729Z</time></trkpt><trkpt lat="34.3825328" lon="8.1525538"><ele>567.0</ele><time>2026-04-30T16:39:33.732Z</time></trkpt><trkpt lat="34.3824643" lon="8.1525066"><ele>567.0</ele><time>2026-04-30T16:39:34.739Z</time></trkpt><trkpt lat="34.3823984" lon="8.1524551"><ele>567.0</ele><time>2026-04-30T16:39:35.738Z</time></trkpt><trkpt lat="34.3823348" lon="8.1524059"><ele>567.0</ele><time>2026-04-30T16:39:36.738Z</time></trkpt><trkpt lat="34.3822743" lon="8.1523616"><ele>567.0</ele><time>2026-04-30T16:39:37.753Z</time></trkpt><trkpt lat="34.3822152" lon="8.1523242"><ele>567.0</ele><time>2026-04-30T16:39:38.74Z</time></trkpt><trkpt lat="34.3821241" lon="8.1522596"><ele>567.0</ele><time>2026-04-30T16:39:40.754Z</time></trkpt><trkpt lat="34.3820531" lon="8.152208"><ele>567.0</ele><time>2026-04-30T16:39:42.738Z</time></trkpt><trkpt lat="34.3819801" lon="8.1521624"><ele>567.2</ele><time>2026-04-30T16:39:44.748Z</time></trkpt><trkpt lat="34.3819022" lon="8.1521002"><ele>567.4000000000001</ele><time>2026-04-30T16:39:46.734Z</time></trkpt><trkpt lat="34.3818176" lon="8.1520445"><ele>567.5999999999999</ele><time>2026-04-30T16:39:48.73Z</time></trkpt><trkpt lat="34.3817265" lon="8.1519648"><ele>567.8</ele><time>2026-04-30T16:39:50.738Z</time></trkpt><trkpt lat="34.3816297" lon="8.1518939"><ele>568.0</ele><time>2026-04-30T16:39:52.739Z</time></trkpt><trkpt lat="34.3815514" lon="8.1518234"><ele>568.0</ele><time>2026-04-30T16:39:54.747Z</time></trkpt><trkpt lat="34.3814782" lon="8.1517585"><ele>568.0</ele><time>2026-04-30T16:39:56.76Z</time></trkpt><trkpt lat="34.3814147" lon="8.1517033"><ele>568.0</ele><time>2026-04-30T16:39:58.737Z</time></trkpt><trkpt lat="34.3813428" lon="8.151627"><ele>568.0</ele><time>2026-04-30T16:40:00.754Z</time></trkpt><trkpt lat="34.381293" lon="8.1515231"><ele>568.0</ele><time>2026-04-30T16:40:02.758Z</time></trkpt><trkpt lat="34.3812466" lon="8.151394"><ele>568.0</ele><time>2026-04-30T16:40:04.752Z</time></trkpt><trkpt lat="34.3811923" lon="8.1512606"><ele>568.0</ele><time>2026-04-30T16:40:06.738Z</time></trkpt><trkpt lat="34.3811641" lon="8.1511837"><ele>568.0</ele><time>2026-04-30T16:40:07.747Z</time></trkpt><trkpt lat="34.381135" lon="8.151112"><ele>568.0</ele><time>2026-04-30T16:40:08.734Z</time></trkpt><trkpt lat="34.3811049" lon="8.1510433"><ele>568.0</ele><time>2026-04-30T16:40:09.741Z</time></trkpt><trkpt lat="34.3810548" lon="8.1509104"><ele>568.0</ele><time>2026-04-30T16:40:11.744Z</time></trkpt><trkpt lat="34.3810227" lon="8.1507909"><ele>568.1666666666667</ele><time>2026-04-30T16:40:13.741Z</time></trkpt><trkpt lat="34.3810339" lon="8.1506771"><ele>568.3333333333334</ele><time>2026-04-30T16:40:15.752Z</time></trkpt><trkpt lat="34.3810609" lon="8.1505857"><ele>568.5</ele><time>2026-04-30T16:40:17.739Z</time></trkpt><trkpt lat="34.3810898" lon="8.1504897"><ele>568.6666666666666</ele><time>2026-04-30T16:40:19.748Z</time></trkpt><trkpt lat="34.381068" lon="8.1504116"><ele>568.8333333333333</ele><time>2026-04-30T16:40:21.77Z</time></trkpt><trkpt lat="34.3810038" lon="8.1503687"><ele>569.0</ele><time>2026-04-30T16:40:23.774Z</time></trkpt><trkpt lat="34.3809315" lon="8.1503083"><ele>569.0</ele><time>2026-04-30T16:40:25.743Z</time></trkpt><trkpt lat="34.3808556" lon="8.150231"><ele>569.0</ele><time>2026-04-30T16:40:27.731Z</time></trkpt><trkpt lat="34.3807778" lon="8.1501348"><ele>569.0</ele><time>2026-04-30T16:40:29.743Z</time></trkpt><trkpt lat="34.3806968" lon="8.1500232"><ele>569.0</ele><time>2026-04-30T16:40:31.737Z</time></trkpt><trkpt lat="34.3806485" lon="8.1499636"><ele>569.0</ele><time>2026-04-30T16:40:32.739Z</time></trkpt><trkpt lat="34.3805989" lon="8.1499135"><ele>569.2857142857143</ele><time>2026-04-30T16:40:33.743Z</time></trkpt><trkpt lat="34.3805473" lon="8.149867"><ele>569.5714285714286</ele><time>2026-04-30T16:40:34.746Z</time></trkpt><trkpt lat="34.3804942" lon="8.1498094"><ele>569.8571428571429</ele><time>2026-04-30T16:40:35.74Z</time></trkpt><trkpt lat="34.3804479" lon="8.1497477"><ele>570.1428571428571</ele><time>2026-04-30T16:40:36.748Z</time></trkpt><trkpt lat="34.3803974" lon="8.1496825"><ele>570.4285714285714</ele><time>2026-04-30T16:40:37.748Z</time></trkpt><trkpt lat="34.3803425" lon="8.1496097"><ele>570.7142857142858</ele><time>2026-04-30T16:40:38.744Z</time></trkpt><trkpt lat="34.3802891" lon="8.1495369"><ele>571.0</ele><time>2026-04-30T16:40:39.748Z</time></trkpt><trkpt lat="34.3802311" lon="8.1494642"><ele>571.0</ele><time>2026-04-30T16:40:40.74Z</time></trkpt><trkpt lat="34.3801761" lon="8.1493927"><ele>571.0</ele><time>2026-04-30T16:40:41.752Z</time></trkpt><trkpt lat="34.3801246" lon="8.1493259"><ele>571.0</ele><time>2026-04-30T16:40:42.752Z</time></trkpt><trkpt lat="34.3800723" lon="8.1492596"><ele>571.0</ele><time>2026-04-30T16:40:43.753Z</time></trkpt><trkpt lat="34.3800198" lon="8.1491999"><ele>571.0</ele><time>2026-04-30T16:40:44.742Z</time></trkpt><trkpt lat="34.3799763" lon="8.1491425"><ele>571.0</ele><time>2026-04-30T16:40:45.748Z</time></trkpt><trkpt lat="34.3799271" lon="8.1490764"><ele>571.0</ele><time>2026-04-30T16:40:46.751Z</time></trkpt><trkpt lat="34.3798815" lon="8.1490206"><ele>571.0</ele><time>2026-04-30T16:40:47.732Z</time></trkpt><trkpt lat="34.3798367" lon="8.1489656"><ele>571.0</ele><time>2026-04-30T16:40:48.748Z</time></trkpt><trkpt lat="34.3797912" lon="8.1489067"><ele>571.0</ele><time>2026-04-30T16:40:49.753Z</time></trkpt><trkpt lat="34.379735" lon="8.1488488"><ele>571.0</ele><time>2026-04-30T16:40:50.749Z</time></trkpt><trkpt lat="34.3796838" lon="8.1487891"><ele>571.0</ele><time>2026-04-30T16:40:51.739Z</time></trkpt><trkpt lat="34.3796383" lon="8.1487276"><ele>571.0</ele><time>2026-04-30T16:40:52.74Z</time></trkpt><trkpt lat="34.3795957" lon="8.1486694"><ele>571.0</ele><time>2026-04-30T16:40:53.746Z</time></trkpt><trkpt lat="34.379522" lon="8.1485654"><ele>571.4</ele><time>2026-04-30T16:40:55.756Z</time></trkpt><trkpt lat="34.3794748" lon="8.1484776"><ele>571.8</ele><time>2026-04-30T16:40:57.741Z</time></trkpt><trkpt lat="34.3794212" lon="8.1483899"><ele>572.1999999999999</ele><time>2026-04-30T16:41:01.741Z</time></trkpt><trkpt lat="34.3793609" lon="8.1483206"><ele>572.6</ele><time>2026-04-30T16:41:03.742Z</time></trkpt><trkpt lat="34.3793057" lon="8.1482401"><ele>573.0</ele><time>2026-04-30T16:41:05.745Z</time></trkpt><trkpt lat="34.379241" lon="8.1481354"><ele>573.0</ele><time>2026-04-30T16:41:07.758Z</time></trkpt><trkpt lat="34.3791622" lon="8.1480334"><ele>573.0</ele><time>2026-04-30T16:41:09.745Z</time></trkpt><trkpt lat="34.3790835" lon="8.1479236"><ele>573.0</ele><time>2026-04-30T16:41:11.747Z</time></trkpt><trkpt lat="34.3790374" lon="8.1478545"><ele>573.0</ele><time>2026-04-30T16:41:12.748Z</time></trkpt><trkpt lat="34.3789879" lon="8.1477845"><ele>573.0</ele><time>2026-04-30T16:41:13.757Z</time></trkpt><trkpt lat="34.3789407" lon="8.1477084"><ele>573.0</ele><time>2026-04-30T16:41:14.744Z</time></trkpt><trkpt lat="34.3788905" lon="8.1476319"><ele>573.0</ele><time>2026-04-30T16:41:15.741Z</time></trkpt><trkpt lat="34.3788367" lon="8.1475594"><ele>573.0</ele><time>2026-04-30T16:41:16.756Z</time></trkpt><trkpt lat="34.3787846" lon="8.1474793"><ele>573.0</ele><time>2026-04-30T16:41:17.751Z</time></trkpt><trkpt lat="34.3787346" lon="8.1474035"><ele>573.0</ele><time>2026-04-30T16:41:18.739Z</time></trkpt><trkpt lat="34.3786851" lon="8.1473335"><ele>573.0</ele><time>2026-04-30T16:41:19.738Z</time></trkpt><trkpt lat="34.3786362" lon="8.1472567"><ele>573.1666666666666</ele><time>2026-04-30T16:41:20.764Z</time></trkpt><trkpt lat="34.3785886" lon="8.1471751"><ele>573.3333333333334</ele><time>2026-04-30T16:41:21.759Z</time></trkpt><trkpt lat="34.3785339" lon="8.1471013"><ele>573.5</ele><time>2026-04-30T16:41:22.735Z</time></trkpt><trkpt lat="34.3784785" lon="8.1470204"><ele>573.6666666666667</ele><time>2026-04-30T16:41:23.744Z</time></trkpt><trkpt lat="34.3784194" lon="8.1469352"><ele>573.8333333333334</ele><time>2026-04-30T16:41:24.743Z</time></trkpt><trkpt lat="34.378344" lon="8.1468488"><ele>574.0</ele><time>2026-04-30T16:41:25.751Z</time></trkpt><trkpt lat="34.3782801" lon="8.146751"><ele>574.0</ele><time>2026-04-30T16:41:26.749Z</time></trkpt><trkpt lat="34.3782205" lon="8.1466578"><ele>574.0</ele><time>2026-04-30T16:41:27.745Z</time></trkpt><trkpt lat="34.3781602" lon="8.1465698"><ele>574.0</ele><time>2026-04-30T16:41:28.744Z</time></trkpt><trkpt lat="34.3781041" lon="8.1464819"><ele>574.0</ele><time>2026-04-30T16:41:29.752Z</time></trkpt><trkpt lat="34.3780527" lon="8.1463988"><ele>574.0</ele><time>2026-04-30T16:41:30.737Z</time></trkpt><trkpt lat="34.3780022" lon="8.1463176"><ele>574.0</ele><time>2026-04-30T16:41:31.743Z</time></trkpt><trkpt lat="34.3779489" lon="8.1462399"><ele>574.0</ele><time>2026-04-30T16:41:32.749Z</time></trkpt><trkpt lat="34.3779027" lon="8.1461626"><ele>574.0</ele><time>2026-04-30T16:41:33.751Z</time></trkpt><trkpt lat="34.3778612" lon="8.146101"><ele>574.0</ele><time>2026-04-30T16:41:34.756Z</time></trkpt><trkpt lat="34.3777771" lon="8.1460008"><ele>574.0</ele><time>2026-04-30T16:41:36.753Z</time></trkpt><trkpt lat="34.3777102" lon="8.1459053"><ele>574.0</ele><time>2026-04-30T16:41:38.743Z</time></trkpt><trkpt lat="34.3776651" lon="8.1458328"><ele>574.0</ele><time>2026-04-30T16:41:40.755Z</time></trkpt><trkpt lat="34.3775914" lon="8.1457177"><ele>574.0</ele><time>2026-04-30T16:41:43.757Z</time></trkpt><trkpt lat="34.3775507" lon="8.1456578"><ele>574.0</ele><time>2026-04-30T16:41:44.753Z</time></trkpt><trkpt lat="34.3775007" lon="8.1455964"><ele>574.0</ele><time>2026-04-30T16:41:45.783Z</time></trkpt><trkpt lat="34.3774535" lon="8.1455306"><ele>574.0</ele><time>2026-04-30T16:41:46.717Z</time></trkpt><trkpt lat="34.3774107" lon="8.1454613"><ele>574.0</ele><time>2026-04-30T16:41:47.757Z</time></trkpt><trkpt lat="34.3773702" lon="8.1453942"><ele>574.3333333333334</ele><time>2026-04-30T16:41:48.754Z</time></trkpt><trkpt lat="34.377323" lon="8.1453198"><ele>574.6666666666667</ele><time>2026-04-30T16:41:49.753Z</time></trkpt><trkpt lat="34.3772751" lon="8.1452499"><ele>575.0</ele><time>2026-04-30T16:41:50.727Z</time></trkpt><trkpt lat="34.3772197" lon="8.1451823"><ele>575.3333333333334</ele><time>2026-04-30T16:41:51.752Z</time></trkpt><trkpt lat="34.3771674" lon="8.1451041"><ele>575.6666666666666</ele><time>2026-04-30T16:41:52.753Z</time></trkpt><trkpt lat="34.3771151" lon="8.1450297"><ele>576.0</ele><time>2026-04-30T16:41:53.736Z</time></trkpt><trkpt lat="34.3770608" lon="8.1449453"><ele>576.4</ele><time>2026-04-30T16:41:54.73Z</time></trkpt><trkpt lat="34.3770028" lon="8.1448629"><ele>576.8</ele><time>2026-04-30T16:41:55.734Z</time></trkpt><trkpt lat="34.3769403" lon="8.1447742"><ele>577.1999999999999</ele><time>2026-04-30T16:41:56.74Z</time></trkpt><trkpt lat="34.3768821" lon="8.1446873"><ele>577.6</ele><time>2026-04-30T16:41:57.756Z</time></trkpt><trkpt lat="34.3768224" lon="8.1446004"><ele>578.0</ele><time>2026-04-30T16:41:58.747Z</time></trkpt><trkpt lat="34.3767586" lon="8.1445122"><ele>578.0</ele><time>2026-04-30T16:41:59.749Z</time></trkpt><trkpt lat="34.3766978" lon="8.1444198"><ele>578.0</ele><time>2026-04-30T16:42:00.75Z</time></trkpt><trkpt lat="34.3766318" lon="8.1443332"><ele>578.0</ele><time>2026-04-30T16:42:01.73Z</time></trkpt><trkpt lat="34.3765675" lon="8.1442436"><ele>578.0</ele><time>2026-04-30T16:42:02.746Z</time></trkpt><trkpt lat="34.376512" lon="8.1441587"><ele>578.0</ele><time>2026-04-30T16:42:03.761Z</time></trkpt><trkpt lat="34.3764626" lon="8.1440758"><ele>578.0</ele><time>2026-04-30T16:42:04.746Z</time></trkpt><trkpt lat="34.3764118" lon="8.143988"><ele>578.0</ele><time>2026-04-30T16:42:05.757Z</time></trkpt><trkpt lat="34.3763606" lon="8.1438999"><ele>578.0</ele><time>2026-04-30T16:42:06.752Z</time></trkpt><trkpt lat="34.3763069" lon="8.143816"><ele>578.0</ele><time>2026-04-30T16:42:07.734Z</time></trkpt><trkpt lat="34.3762522" lon="8.1437354"><ele>578.0</ele><time>2026-04-30T16:42:08.736Z</time></trkpt><trkpt lat="34.3761961" lon="8.1436583"><ele>578.0</ele><time>2026-04-30T16:42:09.743Z</time></trkpt><trkpt lat="34.3761441" lon="8.143587"><ele>578.0</ele><time>2026-04-30T16:42:10.749Z</time></trkpt><trkpt lat="34.3760904" lon="8.143521"><ele>578.0</ele><time>2026-04-30T16:42:11.766Z</time></trkpt><trkpt lat="34.3760427" lon="8.1434572"><ele>578.0</ele><time>2026-04-30T16:42:12.748Z</time></trkpt><trkpt lat="34.3759934" lon="8.1434"><ele>578.0</ele><time>2026-04-30T16:42:13.75Z</time></trkpt><trkpt lat="34.3759231" lon="8.1432929"><ele>578.0</ele><time>2026-04-30T16:42:15.742Z</time></trkpt><trkpt lat="34.3758555" lon="8.1432092"><ele>578.0</ele><time>2026-04-30T16:42:17.752Z</time></trkpt><trkpt lat="34.3757783" lon="8.1430998"><ele>578.6</ele><time>2026-04-30T16:42:19.755Z</time></trkpt><trkpt lat="34.375718" lon="8.1430048"><ele>579.1999999999999</ele><time>2026-04-30T16:42:21.752Z</time></trkpt><trkpt lat="34.3756823" lon="8.1428924"><ele>579.8</ele><time>2026-04-30T16:42:23.759Z</time></trkpt><trkpt lat="34.37568" lon="8.1427873"><ele>580.4</ele><time>2026-04-30T16:42:25.758Z</time></trkpt><trkpt lat="34.3756849" lon="8.1426667"><ele>581.0</ele><time>2026-04-30T16:42:27.759Z</time></trkpt><trkpt lat="34.3756773" lon="8.1425516"><ele>581.0</ele><time>2026-04-30T16:42:29.754Z</time></trkpt><trkpt lat="34.3756794" lon="8.142426"><ele>581.0</ele><time>2026-04-30T16:42:31.733Z</time></trkpt><trkpt lat="34.375687" lon="8.1423017"><ele>581.0</ele><time>2026-04-30T16:42:33.753Z</time></trkpt><trkpt lat="34.3757006" lon="8.1421917"><ele>581.0</ele><time>2026-04-30T16:42:35.748Z</time></trkpt><trkpt lat="34.3757212" lon="8.1420805"><ele>581.0</ele><time>2026-04-30T16:42:37.738Z</time></trkpt><trkpt lat="34.3757327" lon="8.1419762"><ele>581.6</ele><time>2026-04-30T16:42:39.748Z</time></trkpt><trkpt lat="34.3757386" lon="8.1418575"><ele>582.2</ele><time>2026-04-30T16:42:41.752Z</time></trkpt><trkpt lat="34.3757359" lon="8.141731"><ele>582.8</ele><time>2026-04-30T16:42:43.741Z</time></trkpt><trkpt lat="34.3757437" lon="8.141597"><ele>583.4</ele><time>2026-04-30T16:42:45.75Z</time></trkpt><trkpt lat="34.3757327" lon="8.141469"><ele>584.0</ele><time>2026-04-30T16:42:47.737Z</time></trkpt><trkpt lat="34.3757099" lon="8.1413553"><ele>584.4</ele><time>2026-04-30T16:42:49.734Z</time></trkpt><trkpt lat="34.3756931" lon="8.1412213"><ele>584.8</ele><time>2026-04-30T16:42:51.733Z</time></trkpt><trkpt lat="34.375695" lon="8.1410884"><ele>585.2</ele><time>2026-04-30T16:42:53.762Z</time></trkpt><trkpt lat="34.375697" lon="8.1409913"><ele>585.6</ele><time>2026-04-30T16:42:55.742Z</time></trkpt><trkpt lat="34.375731" lon="8.1409203"><ele>586.0</ele><time>2026-04-30T16:42:58.75Z</time></trkpt><trkpt lat="34.3757574" lon="8.1408235"><ele>586.2</ele><time>2026-04-30T16:43:01.755Z</time></trkpt><trkpt lat="34.3757369" lon="8.1407079"><ele>586.4000000000001</ele><time>2026-04-30T16:43:03.747Z</time></trkpt><trkpt lat="34.3757185" lon="8.140631"><ele>586.6</ele><time>2026-04-30T16:43:04.755Z</time></trkpt><trkpt lat="34.3756726" lon="8.1404932"><ele>586.8000000000001</ele><time>2026-04-30T16:43:06.756Z</time></trkpt><trkpt lat="34.3756024" lon="8.1403824"><ele>587.0</ele><time>2026-04-30T16:43:08.751Z</time></trkpt><trkpt lat="34.3755111" lon="8.1402661"><ele>587.1666666666666</ele><time>2026-04-30T16:43:10.752Z</time></trkpt><trkpt lat="34.3754518" lon="8.1401978"><ele>587.3333333333333</ele><time>2026-04-30T16:43:11.754Z</time></trkpt><trkpt lat="34.3753871" lon="8.1401418"><ele>587.5</ele><time>2026-04-30T16:43:12.761Z</time></trkpt><trkpt lat="34.3753189" lon="8.1400815"><ele>587.6666666666666</ele><time>2026-04-30T16:43:13.741Z</time></trkpt><trkpt lat="34.375246" lon="8.1400198"><ele>587.8333333333334</ele><time>2026-04-30T16:43:14.759Z</time></trkpt><trkpt lat="34.3751811" lon="8.1399537"><ele>588.0</ele><time>2026-04-30T16:43:15.747Z</time></trkpt><trkpt lat="34.3751179" lon="8.139888"><ele>588.0</ele><time>2026-04-30T16:43:16.736Z</time></trkpt><trkpt lat="34.3750565" lon="8.1398348"><ele>588.0</ele><time>2026-04-30T16:43:17.755Z</time></trkpt><trkpt lat="34.3750006" lon="8.1397828"><ele>588.0</ele><time>2026-04-30T16:43:18.757Z</time></trkpt><trkpt lat="34.3749502" lon="8.1397325"><ele>588.0</ele><time>2026-04-30T16:43:19.746Z</time></trkpt><trkpt lat="34.3749001" lon="8.139685"><ele>588.0</ele><time>2026-04-30T16:43:20.731Z</time></trkpt><trkpt lat="34.3748481" lon="8.1396383"><ele>588.0</ele><time>2026-04-30T16:43:21.742Z</time></trkpt><trkpt lat="34.3747913" lon="8.1395905"><ele>588.0</ele><time>2026-04-30T16:43:22.744Z</time></trkpt><trkpt lat="34.3747392" lon="8.1395367"><ele>588.0</ele><time>2026-04-30T16:43:23.757Z</time></trkpt><trkpt lat="34.3746885" lon="8.1394827"><ele>588.0</ele><time>2026-04-30T16:43:24.748Z</time></trkpt><trkpt lat="34.3746422" lon="8.1394281"><ele>588.0</ele><time>2026-04-30T16:43:25.734Z</time></trkpt><trkpt lat="34.3745904" lon="8.1393792"><ele>588.0</ele><time>2026-04-30T16:43:26.745Z</time></trkpt><trkpt lat="34.3745327" lon="8.1393409"><ele>588.0</ele><time>2026-04-30T16:43:27.754Z</time></trkpt><trkpt lat="34.374474" lon="8.1392938"><ele>588.0</ele><time>2026-04-30T16:43:28.752Z</time></trkpt><trkpt lat="34.3744194" lon="8.1392385"><ele>588.0</ele><time>2026-04-30T16:43:29.756Z</time></trkpt><trkpt lat="34.3743648" lon="8.1391826"><ele>588.1666666666666</ele><time>2026-04-30T16:43:30.746Z</time></trkpt><trkpt lat="34.3743109" lon="8.1391307"><ele>588.3333333333334</ele><time>2026-04-30T16:43:31.74Z</time></trkpt><trkpt lat="34.3742455" lon="8.1390753"><ele>588.5</ele><time>2026-04-30T16:43:32.755Z</time></trkpt><trkpt lat="34.3741886" lon="8.1390186"><ele>588.6666666666667</ele><time>2026-04-30T16:43:33.747Z</time></trkpt><trkpt lat="34.3741193" lon="8.1389556"><ele>588.8333333333334</ele><time>2026-04-30T16:43:34.74Z</time></trkpt><trkpt lat="34.374042" lon="8.1388767"><ele>589.0</ele><time>2026-04-30T16:43:35.743Z</time></trkpt><trkpt lat="34.3739608" lon="8.138784"><ele>590.0</ele><time>2026-04-30T16:43:36.747Z</time></trkpt><trkpt lat="34.3738671" lon="8.1386869"><ele>591.0</ele><time>2026-04-30T16:43:37.737Z</time></trkpt><trkpt lat="34.3737819" lon="8.1385815"><ele>592.0</ele><time>2026-04-30T16:43:38.732Z</time></trkpt><trkpt lat="34.3737007" lon="8.138468"><ele>593.0</ele><time>2026-04-30T16:43:39.741Z</time></trkpt><trkpt lat="34.3736251" lon="8.1383535"><ele>593.0</ele><time>2026-04-30T16:43:40.744Z</time></trkpt><trkpt lat="34.373552" lon="8.138238"><ele>593.0</ele><time>2026-04-30T16:43:41.751Z</time></trkpt><trkpt lat="34.3734853" lon="8.1381297"><ele>593.0</ele><time>2026-04-30T16:43:42.751Z</time></trkpt><trkpt lat="34.3734245" lon="8.1380245"><ele>593.0</ele><time>2026-04-30T16:43:43.758Z</time></trkpt><trkpt lat="34.373372" lon="8.1379085"><ele>593.0</ele><time>2026-04-30T16:43:44.746Z</time></trkpt><trkpt lat="34.3733294" lon="8.1377832"><ele>593.1999999999999</ele><time>2026-04-30T16:43:45.753Z</time></trkpt><trkpt lat="34.373294" lon="8.1376565"><ele>593.4</ele><time>2026-04-30T16:43:46.743Z</time></trkpt><trkpt lat="34.3732538" lon="8.1375255"><ele>593.5999999999999</ele><time>2026-04-30T16:43:47.747Z</time></trkpt><trkpt lat="34.3732164" lon="8.1373995"><ele>593.8</ele><time>2026-04-30T16:43:48.734Z</time></trkpt><trkpt lat="34.3731794" lon="8.1372711"><ele>594.0</ele><time>2026-04-30T16:43:49.736Z</time></trkpt><trkpt lat="34.3731474" lon="8.1371423"><ele>594.4</ele><time>2026-04-30T16:43:50.752Z</time></trkpt><trkpt lat="34.3731211" lon="8.1370108"><ele>594.8</ele><time>2026-04-30T16:43:51.749Z</time></trkpt><trkpt lat="34.3730962" lon="8.1368853"><ele>595.2</ele><time>2026-04-30T16:43:52.736Z</time></trkpt><trkpt lat="34.3730785" lon="8.1367626"><ele>595.6</ele><time>2026-04-30T16:43:53.753Z</time></trkpt><trkpt lat="34.3730725" lon="8.1366431"><ele>596.0</ele><time>2026-04-30T16:43:54.742Z</time></trkpt><trkpt lat="34.3730647" lon="8.1365184"><ele>596.25</ele><time>2026-04-30T16:43:55.752Z</time></trkpt><trkpt lat="34.3730523" lon="8.1363842"><ele>596.5</ele><time>2026-04-30T16:43:56.742Z</time></trkpt><trkpt lat="34.3730455" lon="8.1362362"><ele>596.75</ele><time>2026-04-30T16:43:57.754Z</time></trkpt><trkpt lat="34.3730409" lon="8.136091"><ele>597.0</ele><time>2026-04-30T16:43:58.733Z</time></trkpt><trkpt lat="34.3730349" lon="8.1359455"><ele>597.0</ele><time>2026-04-30T16:43:59.745Z</time></trkpt><trkpt lat="34.3730258" lon="8.1358064"><ele>597.0</ele><time>2026-04-30T16:44:00.76Z</time></trkpt><trkpt lat="34.3730282" lon="8.1356756"><ele>597.0</ele><time>2026-04-30T16:44:01.744Z</time></trkpt><trkpt lat="34.3730256" lon="8.1355533"><ele>597.0</ele><time>2026-04-30T16:44:02.754Z</time></trkpt><trkpt lat="34.3730171" lon="8.1354405"><ele>597.0</ele><time>2026-04-30T16:44:03.76Z</time></trkpt><trkpt lat="34.3730044" lon="8.1353367"><ele>596.4</ele><time>2026-04-30T16:44:04.733Z</time></trkpt><trkpt lat="34.3729893" lon="8.13523"><ele>595.8000000000001</ele><time>2026-04-30T16:44:05.741Z</time></trkpt><trkpt lat="34.3729699" lon="8.135119"><ele>595.2</ele><time>2026-04-30T16:44:06.742Z</time></trkpt><trkpt lat="34.3729501" lon="8.135001"><ele>594.6</ele><time>2026-04-30T16:44:07.732Z</time></trkpt><trkpt lat="34.3729301" lon="8.1348761"><ele>594.0</ele><time>2026-04-30T16:44:08.735Z</time></trkpt><trkpt lat="34.372908" lon="8.1347493"><ele>594.0</ele><time>2026-04-30T16:44:09.744Z</time></trkpt><trkpt lat="34.372874" lon="8.134624"><ele>594.0</ele><time>2026-04-30T16:44:10.74Z</time></trkpt><trkpt lat="34.3728369" lon="8.1344995"><ele>594.0</ele><time>2026-04-30T16:44:11.737Z</time></trkpt><trkpt lat="34.3728012" lon="8.1343716"><ele>594.0</ele><time>2026-04-30T16:44:12.738Z</time></trkpt><trkpt lat="34.3727673" lon="8.134252"><ele>594.0</ele><time>2026-04-30T16:44:13.739Z</time></trkpt><trkpt lat="34.3727352" lon="8.1341234"><ele>594.0</ele><time>2026-04-30T16:44:14.743Z</time></trkpt><trkpt lat="34.3726962" lon="8.1339889"><ele>594.0</ele><time>2026-04-30T16:44:15.754Z</time></trkpt><trkpt lat="34.3726571" lon="8.1338481"><ele>594.0</ele><time>2026-04-30T16:44:16.738Z</time></trkpt><trkpt lat="34.3726067" lon="8.1336985"><ele>594.0</ele><time>2026-04-30T16:44:17.747Z</time></trkpt><trkpt lat="34.3725494" lon="8.1335394"><ele>594.0</ele><time>2026-04-30T16:44:18.734Z</time></trkpt><trkpt lat="34.3724749" lon="8.1333776"><ele>594.0</ele><time>2026-04-30T16:44:19.74Z</time></trkpt><trkpt lat="34.3723878" lon="8.1332136"><ele>594.0</ele><time>2026-04-30T16:44:20.739Z</time></trkpt><trkpt lat="34.3722949" lon="8.1330366"><ele>595.3333333333334</ele><time>2026-04-30T16:44:21.74Z</time></trkpt><trkpt lat="34.3721993" lon="8.1328535"><ele>596.6666666666667</ele><time>2026-04-30T16:44:22.743Z</time></trkpt><trkpt lat="34.3721054" lon="8.1326619"><ele>598.0</ele><time>2026-04-30T16:44:23.741Z</time></trkpt><trkpt lat="34.3720248" lon="8.1324618"><ele>597.6666666666667</ele><time>2026-04-30T16:44:24.734Z</time></trkpt><trkpt lat="34.3719427" lon="8.132259"><ele>597.3333333333334</ele><time>2026-04-30T16:44:25.746Z</time></trkpt><trkpt lat="34.3718658" lon="8.1320492"><ele>597.0</ele><time>2026-04-30T16:44:26.769Z</time></trkpt><trkpt lat="34.3717983" lon="8.1318394"><ele>597.0</ele><time>2026-04-30T16:44:27.741Z</time></trkpt><trkpt lat="34.3717293" lon="8.1316195"><ele>597.0</ele><time>2026-04-30T16:44:28.728Z</time></trkpt><trkpt lat="34.3716546" lon="8.1314071"><ele>597.0</ele><time>2026-04-30T16:44:29.737Z</time></trkpt><trkpt lat="34.3715864" lon="8.1311958"><ele>598.0</ele><time>2026-04-30T16:44:30.737Z</time></trkpt><trkpt lat="34.3715227" lon="8.1309772"><ele>599.0</ele><time>2026-04-30T16:44:31.736Z</time></trkpt><trkpt lat="34.3714713" lon="8.1307593"><ele>600.0</ele><time>2026-04-30T16:44:32.738Z</time></trkpt><trkpt lat="34.3714317" lon="8.1305422"><ele>601.0</ele><time>2026-04-30T16:44:33.734Z</time></trkpt><trkpt lat="34.371425" lon="8.1303211"><ele>602.0</ele><time>2026-04-30T16:44:34.742Z</time></trkpt><trkpt lat="34.371452" lon="8.130107"><ele>603.0</ele><time>2026-04-30T16:44:35.745Z</time></trkpt><trkpt lat="34.371498" lon="8.129895"><ele>603.3333333333334</ele><time>2026-04-30T16:44:36.737Z</time></trkpt><trkpt lat="34.3715579" lon="8.129693"><ele>603.6666666666667</ele><time>2026-04-30T16:44:37.737Z</time></trkpt><trkpt lat="34.3716291" lon="8.129505"><ele>604.0</ele><time>2026-04-30T16:44:38.727Z</time></trkpt><trkpt lat="34.3716987" lon="8.1292993"><ele>604.0</ele><time>2026-04-30T16:44:39.757Z</time></trkpt><trkpt lat="34.3717615" lon="8.1290926"><ele>604.0</ele><time>2026-04-30T16:44:40.742Z</time></trkpt><trkpt lat="34.3718232" lon="8.1288836"><ele>604.0</ele><time>2026-04-30T16:44:41.746Z</time></trkpt><trkpt lat="34.3718793" lon="8.1286798"><ele>603.6666666666667</ele><time>2026-04-30T16:44:42.734Z</time></trkpt><trkpt lat="34.3719364" lon="8.1284778"><ele>603.3333333333334</ele><time>2026-04-30T16:44:43.762Z</time></trkpt><trkpt lat="34.3719873" lon="8.1282871"><ele>603.0</ele><time>2026-04-30T16:44:44.748Z</time></trkpt><trkpt lat="34.3720414" lon="8.128103"><ele>603.0</ele><time>2026-04-30T16:44:45.749Z</time></trkpt><trkpt lat="34.3720901" lon="8.1279141"><ele>603.0</ele><time>2026-04-30T16:44:46.75Z</time></trkpt><trkpt lat="34.3721233" lon="8.1277421"><ele>603.0</ele><time>2026-04-30T16:44:47.748Z</time></trkpt><trkpt lat="34.3721341" lon="8.1275816"><ele>603.0</ele><time>2026-04-30T16:44:48.754Z</time></trkpt><trkpt lat="34.3721124" lon="8.1274151"><ele>605.0</ele><time>2026-04-30T16:44:49.736Z</time></trkpt><trkpt lat="34.372052" lon="8.1272389"><ele>607.0</ele><time>2026-04-30T16:44:50.761Z</time></trkpt><trkpt lat="34.3719627" lon="8.12709"><ele>609.0</ele><time>2026-04-30T16:44:51.754Z</time></trkpt><trkpt lat="34.3718457" lon="8.1269585"><ele>609.0</ele><time>2026-04-30T16:44:52.746Z</time></trkpt><trkpt lat="34.3717038" lon="8.1268451"><ele>609.0</ele><time>2026-04-30T16:44:53.753Z</time></trkpt><trkpt lat="34.3715407" lon="8.1267479"><ele>609.0</ele><time>2026-04-30T16:44:54.739Z</time></trkpt><trkpt lat="34.371383" lon="8.1266617"><ele>609.6666666666666</ele><time>2026-04-30T16:44:55.746Z</time></trkpt><trkpt lat="34.371234" lon="8.1265675"><ele>610.3333333333333</ele><time>2026-04-30T16:44:56.74Z</time></trkpt><trkpt lat="34.3711011" lon="8.1264814"><ele>611.0</ele><time>2026-04-30T16:44:57.749Z</time></trkpt><trkpt lat="34.3709704" lon="8.1263843"><ele>611.0</ele><time>2026-04-30T16:44:58.753Z</time></trkpt><trkpt lat="34.3708486" lon="8.1262744"><ele>611.0</ele><time>2026-04-30T16:44:59.753Z</time></trkpt><trkpt lat="34.3707565" lon="8.1261379"><ele>611.0</ele><time>2026-04-30T16:45:00.744Z</time></trkpt><trkpt lat="34.3706983" lon="8.1259896"><ele>611.0</ele><time>2026-04-30T16:45:01.742Z</time></trkpt><trkpt lat="34.3706735" lon="8.1258265"><ele>610.6666666666666</ele><time>2026-04-30T16:45:02.75Z</time></trkpt><trkpt lat="34.3706715" lon="8.1256499"><ele>610.3333333333334</ele><time>2026-04-30T16:45:03.741Z</time></trkpt><trkpt lat="34.3706781" lon="8.1254512"><ele>610.0</ele><time>2026-04-30T16:45:04.743Z</time></trkpt><trkpt lat="34.370694" lon="8.1252443"><ele>610.0</ele><time>2026-04-30T16:45:05.775Z</time></trkpt><trkpt lat="34.3707206" lon="8.1250315"><ele>610.0</ele><time>2026-04-30T16:45:06.756Z</time></trkpt><trkpt lat="34.370741" lon="8.1248171"><ele>610.0</ele><time>2026-04-30T16:45:07.752Z</time></trkpt><trkpt lat="34.3707459" lon="8.124597"><ele>610.3333333333334</ele><time>2026-04-30T16:45:08.741Z</time></trkpt><trkpt lat="34.3707423" lon="8.1243786"><ele>610.6666666666666</ele><time>2026-04-30T16:45:09.743Z</time></trkpt><trkpt lat="34.3707352" lon="8.124159"><ele>611.0</ele><time>2026-04-30T16:45:10.755Z</time></trkpt><trkpt lat="34.3707298" lon="8.1239353"><ele>612.0</ele><time>2026-04-30T16:45:11.764Z</time></trkpt><trkpt lat="34.3707189" lon="8.1237076"><ele>613.0</ele><time>2026-04-30T16:45:12.743Z</time></trkpt><trkpt lat="34.3707149" lon="8.1234816"><ele>614.0</ele><time>2026-04-30T16:45:13.749Z</time></trkpt><trkpt lat="34.3707182" lon="8.1232621"><ele>613.6666666666666</ele><time>2026-04-30T16:45:14.752Z</time></trkpt><trkpt lat="34.3707223" lon="8.1230418"><ele>613.3333333333334</ele><time>2026-04-30T16:45:15.757Z</time></trkpt><trkpt lat="34.3707288" lon="8.122825"><ele>613.0</ele><time>2026-04-30T16:45:16.754Z</time></trkpt><trkpt lat="34.3707329" lon="8.1226092"><ele>613.3333333333334</ele><time>2026-04-30T16:45:17.73Z</time></trkpt><trkpt lat="34.370738" lon="8.1223878"><ele>613.6666666666666</ele><time>2026-04-30T16:45:18.747Z</time></trkpt><trkpt lat="34.3707372" lon="8.1221691"><ele>614.0</ele><time>2026-04-30T16:45:19.746Z</time></trkpt><trkpt lat="34.3707406" lon="8.1219524"><ele>614.0</ele><time>2026-04-30T16:45:20.729Z</time></trkpt><trkpt lat="34.3707497" lon="8.1217309"><ele>614.0</ele><time>2026-04-30T16:45:21.743Z</time></trkpt><trkpt lat="34.3707544" lon="8.1215126"><ele>614.0</ele><time>2026-04-30T16:45:22.738Z</time></trkpt><trkpt lat="34.37076" lon="8.1213003"><ele>615.3333333333333</ele><time>2026-04-30T16:45:23.736Z</time></trkpt><trkpt lat="34.3707567" lon="8.121092"><ele>616.6666666666666</ele><time>2026-04-30T16:45:24.739Z</time></trkpt><trkpt lat="34.3707439" lon="8.1208902"><ele>618.0</ele><time>2026-04-30T16:45:25.735Z</time></trkpt><trkpt lat="34.3707203" lon="8.12069"><ele>618.6666666666666</ele><time>2026-04-30T16:45:26.746Z</time></trkpt><trkpt lat="34.3706897" lon="8.1204894"><ele>619.3333333333333</ele><time>2026-04-30T16:45:27.74Z</time></trkpt><trkpt lat="34.3706436" lon="8.12029"><ele>620.0</ele><time>2026-04-30T16:45:28.737Z</time></trkpt><trkpt lat="34.3705838" lon="8.1200995"><ele>619.6666666666666</ele><time>2026-04-30T16:45:29.746Z</time></trkpt><trkpt lat="34.3705011" lon="8.1199056"><ele>619.3333333333334</ele><time>2026-04-30T16:45:30.749Z</time></trkpt><trkpt lat="34.3703989" lon="8.1197249"><ele>619.0</ele><time>2026-04-30T16:45:31.76Z</time></trkpt><trkpt lat="34.37029" lon="8.1195467"><ele>619.6666666666667</ele><time>2026-04-30T16:45:32.74Z</time></trkpt><trkpt lat="34.3701651" lon="8.1193799"><ele>620.3333333333334</ele><time>2026-04-30T16:45:33.746Z</time></trkpt><trkpt lat="34.3700373" lon="8.1192132"><ele>621.0</ele><time>2026-04-30T16:45:34.742Z</time></trkpt><trkpt lat="34.3699023" lon="8.1190515"><ele>621.0</ele><time>2026-04-30T16:45:35.752Z</time></trkpt><trkpt lat="34.3697698" lon="8.1188896"><ele>621.0</ele><time>2026-04-30T16:45:36.749Z</time></trkpt><trkpt lat="34.3696384" lon="8.118724"><ele>621.0</ele><time>2026-04-30T16:45:37.763Z</time></trkpt><trkpt lat="34.3695061" lon="8.1185615"><ele>621.0</ele><time>2026-04-30T16:45:38.739Z</time></trkpt><trkpt lat="34.3693703" lon="8.1184011"><ele>621.0</ele><time>2026-04-30T16:45:39.737Z</time></trkpt><trkpt lat="34.3692327" lon="8.1182421"><ele>621.0</ele><time>2026-04-30T16:45:40.734Z</time></trkpt><trkpt lat="34.3690931" lon="8.1180885"><ele>622.3333333333334</ele><time>2026-04-30T16:45:41.736Z</time></trkpt><trkpt lat="34.3689631" lon="8.1179411"><ele>623.6666666666667</ele><time>2026-04-30T16:45:42.75Z</time></trkpt><trkpt lat="34.3688394" lon="8.1177984"><ele>625.0</ele><time>2026-04-30T16:45:43.746Z</time></trkpt><trkpt lat="34.3687264" lon="8.1176483"><ele>626.0</ele><time>2026-04-30T16:45:44.741Z</time></trkpt><trkpt lat="34.3686409" lon="8.1174885"><ele>627.0</ele><time>2026-04-30T16:45:45.755Z</time></trkpt><trkpt lat="34.3685617" lon="8.1173121"><ele>628.0</ele><time>2026-04-30T16:45:46.729Z</time></trkpt><trkpt lat="34.3684956" lon="8.1171193"><ele>628.6666666666667</ele><time>2026-04-30T16:45:47.749Z</time></trkpt><trkpt lat="34.3684405" lon="8.1169213"><ele>629.3333333333334</ele><time>2026-04-30T16:45:48.753Z</time></trkpt><trkpt lat="34.3683902" lon="8.1167269"><ele>630.0</ele><time>2026-04-30T16:45:49.744Z</time></trkpt><trkpt lat="34.368347" lon="8.116538"><ele>630.6666666666666</ele><time>2026-04-30T16:45:50.756Z</time></trkpt><trkpt lat="34.3683371" lon="8.1163517"><ele>631.3333333333333</ele><time>2026-04-30T16:45:51.744Z</time></trkpt><trkpt lat="34.3683616" lon="8.1161554"><ele>632.0</ele><time>2026-04-30T16:45:52.745Z</time></trkpt><trkpt lat="34.3684149" lon="8.1159561"><ele>632.0</ele><time>2026-04-30T16:45:53.745Z</time></trkpt><trkpt lat="34.3684601" lon="8.1157526"><ele>632.0</ele><time>2026-04-30T16:45:54.751Z</time></trkpt><trkpt lat="34.3684848" lon="8.1155471"><ele>632.0</ele><time>2026-04-30T16:45:55.751Z</time></trkpt><trkpt lat="34.3684916" lon="8.1153271"><ele>633.3333333333333</ele><time>2026-04-30T16:45:56.746Z</time></trkpt><trkpt lat="34.3684886" lon="8.115126"><ele>634.6666666666666</ele><time>2026-04-30T16:45:57.747Z</time></trkpt><trkpt lat="34.3684803" lon="8.1149355"><ele>636.0</ele><time>2026-04-30T16:45:58.743Z</time></trkpt><trkpt lat="34.3684709" lon="8.1147426"><ele>637.0</ele><time>2026-04-30T16:45:59.758Z</time></trkpt><trkpt lat="34.3684531" lon="8.1145564"><ele>638.0</ele><time>2026-04-30T16:46:00.764Z</time></trkpt><trkpt lat="34.3684305" lon="8.1143636"><ele>639.0</ele><time>2026-04-30T16:46:01.753Z</time></trkpt><trkpt lat="34.3684052" lon="8.1141752"><ele>640.0</ele><time>2026-04-30T16:46:02.735Z</time></trkpt><trkpt lat="34.3683679" lon="8.1139825"><ele>641.0</ele><time>2026-04-30T16:46:03.764Z</time></trkpt><trkpt lat="34.3683102" lon="8.1137747"><ele>642.0</ele><time>2026-04-30T16:46:04.746Z</time></trkpt><trkpt lat="34.3682387" lon="8.1135718"><ele>642.0</ele><time>2026-04-30T16:46:05.741Z</time></trkpt><trkpt lat="34.3681646" lon="8.1133667"><ele>642.0</ele><time>2026-04-30T16:46:06.746Z</time></trkpt><trkpt lat="34.3680917" lon="8.1131655"><ele>642.0</ele><time>2026-04-30T16:46:07.748Z</time></trkpt><trkpt lat="34.3680228" lon="8.1129625"><ele>642.3333333333334</ele><time>2026-04-30T16:46:08.747Z</time></trkpt><trkpt lat="34.3679574" lon="8.1127602"><ele>642.6666666666667</ele><time>2026-04-30T16:46:09.733Z</time></trkpt><trkpt lat="34.3678863" lon="8.1125463"><ele>643.0</ele><time>2026-04-30T16:46:10.75Z</time></trkpt><trkpt lat="34.3678155" lon="8.1123258"><ele>644.6666666666667</ele><time>2026-04-30T16:46:11.743Z</time></trkpt><trkpt lat="34.3677417" lon="8.1121055"><ele>646.3333333333334</ele><time>2026-04-30T16:46:12.746Z</time></trkpt><trkpt lat="34.3676511" lon="8.1118892"><ele>648.0</ele><time>2026-04-30T16:46:13.744Z</time></trkpt><trkpt lat="34.3675572" lon="8.111681"><ele>649.3333333333334</ele><time>2026-04-30T16:46:14.74Z</time></trkpt><trkpt lat="34.3674585" lon="8.1114805"><ele>650.6666666666667</ele><time>2026-04-30T16:46:15.757Z</time></trkpt><trkpt lat="34.3673783" lon="8.1112761"><ele>652.0</ele><time>2026-04-30T16:46:16.76Z</time></trkpt><trkpt lat="34.3673033" lon="8.1110767"><ele>652.0</ele><time>2026-04-30T16:46:17.755Z</time></trkpt><trkpt lat="34.3672149" lon="8.110884"><ele>652.0</ele><time>2026-04-30T16:46:18.743Z</time></trkpt><trkpt lat="34.3671168" lon="8.1106945"><ele>652.0</ele><time>2026-04-30T16:46:19.749Z</time></trkpt><trkpt lat="34.3670122" lon="8.1105104"><ele>652.6666666666667</ele><time>2026-04-30T16:46:20.745Z</time></trkpt><trkpt lat="34.3668855" lon="8.1103495"><ele>653.3333333333334</ele><time>2026-04-30T16:46:21.777Z</time></trkpt><trkpt lat="34.3667531" lon="8.1101926"><ele>654.0</ele><time>2026-04-30T16:46:22.734Z</time></trkpt><trkpt lat="34.3666251" lon="8.110038"><ele>653.3333333333334</ele><time>2026-04-30T16:46:23.741Z</time></trkpt><trkpt lat="34.3664972" lon="8.1098868"><ele>652.6666666666667</ele><time>2026-04-30T16:46:24.727Z</time></trkpt><trkpt lat="34.3663731" lon="8.1097313"><ele>652.0</ele><time>2026-04-30T16:46:25.717Z</time></trkpt><trkpt lat="34.3662512" lon="8.1095705"><ele>652.0</ele><time>2026-04-30T16:46:26.76Z</time></trkpt><trkpt lat="34.3661322" lon="8.1094014"><ele>652.0</ele><time>2026-04-30T16:46:27.729Z</time></trkpt><trkpt lat="34.366018" lon="8.1092429"><ele>652.0</ele><time>2026-04-30T16:46:28.745Z</time></trkpt><trkpt lat="34.3659136" lon="8.1090767"><ele>652.0</ele><time>2026-04-30T16:46:29.734Z</time></trkpt><trkpt lat="34.3658295" lon="8.1089147"><ele>652.0</ele><time>2026-04-30T16:46:30.753Z</time></trkpt><trkpt lat="34.3657599" lon="8.1087095"><ele>652.0</ele><time>2026-04-30T16:46:31.787Z</time></trkpt><trkpt lat="34.365694" lon="8.1085089"><ele>652.0</ele><time>2026-04-30T16:46:32.73Z</time></trkpt><trkpt lat="34.3656094" lon="8.108317"><ele>652.0</ele><time>2026-04-30T16:46:33.756Z</time></trkpt><trkpt lat="34.3655163" lon="8.1081328"><ele>652.0</ele><time>2026-04-30T16:46:34.732Z</time></trkpt><trkpt lat="34.3654071" lon="8.1079435"><ele>653.3333333333334</ele><time>2026-04-30T16:46:35.762Z</time></trkpt><trkpt lat="34.36529" lon="8.1077531"><ele>654.6666666666666</ele><time>2026-04-30T16:46:36.776Z</time></trkpt><trkpt lat="34.3651692" lon="8.1075607"><ele>656.0</ele><time>2026-04-30T16:46:37.753Z</time></trkpt><trkpt lat="34.3650431" lon="8.1073795"><ele>658.6666666666666</ele><time>2026-04-30T16:46:38.725Z</time></trkpt><trkpt lat="34.3649157" lon="8.1072003"><ele>661.3333333333334</ele><time>2026-04-30T16:46:39.751Z</time></trkpt><trkpt lat="34.3647924" lon="8.1070296"><ele>664.0</ele><time>2026-04-30T16:46:40.758Z</time></trkpt><trkpt lat="34.3646673" lon="8.1068577"><ele>665.0</ele><time>2026-04-30T16:46:41.789Z</time></trkpt><trkpt lat="34.3645398" lon="8.1066906"><ele>666.0</ele><time>2026-04-30T16:46:42.749Z</time></trkpt><trkpt lat="34.3644144" lon="8.1065132"><ele>667.0</ele><time>2026-04-30T16:46:43.74Z</time></trkpt><trkpt lat="34.3642952" lon="8.1063275"><ele>668.6666666666667</ele><time>2026-04-30T16:46:44.719Z</time></trkpt><trkpt lat="34.3641794" lon="8.1061421"><ele>670.3333333333334</ele><time>2026-04-30T16:46:45.76Z</time></trkpt><trkpt lat="34.3640653" lon="8.1059563"><ele>672.0</ele><time>2026-04-30T16:46:46.768Z</time></trkpt><trkpt lat="34.3639548" lon="8.1057719"><ele>675.0</ele><time>2026-04-30T16:46:47.775Z</time></trkpt><trkpt lat="34.3638507" lon="8.1055928"><ele>678.0</ele><time>2026-04-30T16:46:48.771Z</time></trkpt><trkpt lat="34.3637516" lon="8.1054031"><ele>681.0</ele><time>2026-04-30T16:46:49.731Z</time></trkpt><trkpt lat="34.3636584" lon="8.1052186"><ele>681.0</ele><time>2026-04-30T16:46:50.722Z</time></trkpt><trkpt lat="34.3635649" lon="8.1050408"><ele>681.0</ele><time>2026-04-30T16:46:51.762Z</time></trkpt><trkpt lat="34.3634671" lon="8.1048652"><ele>681.0</ele><time>2026-04-30T16:46:52.77Z</time></trkpt><trkpt lat="34.3633642" lon="8.1046902"><ele>680.0</ele><time>2026-04-30T16:46:53.763Z</time></trkpt><trkpt lat="34.3632539" lon="8.1045182"><ele>679.0</ele><time>2026-04-30T16:46:54.782Z</time></trkpt><trkpt lat="34.3631436" lon="8.1043475"><ele>678.0</ele><time>2026-04-30T16:46:55.77Z</time></trkpt><trkpt lat="34.3630257" lon="8.1041864"><ele>679.6666666666666</ele><time>2026-04-30T16:46:56.751Z</time></trkpt><trkpt lat="34.362914" lon="8.104031"><ele>681.3333333333333</ele><time>2026-04-30T16:46:57.744Z</time></trkpt><trkpt lat="34.3628011" lon="8.1038692"><ele>683.0</ele><time>2026-04-30T16:46:58.78Z</time></trkpt><trkpt lat="34.3626968" lon="8.1037035"><ele>683.0</ele><time>2026-04-30T16:46:59.751Z</time></trkpt><trkpt lat="34.3625994" lon="8.1035308"><ele>683.0</ele><time>2026-04-30T16:47:00.771Z</time></trkpt><trkpt lat="34.362506" lon="8.1033523"><ele>683.0</ele><time>2026-04-30T16:47:01.769Z</time></trkpt><trkpt lat="34.3624194" lon="8.1031744"><ele>683.0</ele><time>2026-04-30T16:47:02.777Z</time></trkpt><trkpt lat="34.362334" lon="8.1029875"><ele>683.0</ele><time>2026-04-30T16:47:03.759Z</time></trkpt><trkpt lat="34.3622424" lon="8.1028078"><ele>683.0</ele><time>2026-04-30T16:47:04.779Z</time></trkpt><trkpt lat="34.3621544" lon="8.102624"><ele>681.6666666666666</ele><time>2026-04-30T16:47:05.743Z</time></trkpt><trkpt lat="34.3620766" lon="8.1024493"><ele>680.3333333333334</ele><time>2026-04-30T16:47:06.77Z</time></trkpt><trkpt lat="34.3619968" lon="8.1022799"><ele>679.0</ele><time>2026-04-30T16:47:07.763Z</time></trkpt><trkpt lat="34.3619258" lon="8.1021223"><ele>679.0</ele><time>2026-04-30T16:47:08.731Z</time></trkpt><trkpt lat="34.361862" lon="8.1019643"><ele>679.0</ele><time>2026-04-30T16:47:09.749Z</time></trkpt><trkpt lat="34.3618079" lon="8.1018138"><ele>679.0</ele><time>2026-04-30T16:47:10.778Z</time></trkpt><trkpt lat="34.361761" lon="8.1016628"><ele>679.0</ele><time>2026-04-30T16:47:11.772Z</time></trkpt><trkpt lat="34.3617241" lon="8.1015161"><ele>680.0</ele><time>2026-04-30T16:47:12.787Z</time></trkpt><trkpt lat="34.3616988" lon="8.1013616"><ele>681.0</ele><time>2026-04-30T16:47:13.782Z</time></trkpt><trkpt lat="34.3617084" lon="8.1011992"><ele>682.0</ele><time>2026-04-30T16:47:14.765Z</time></trkpt><trkpt lat="34.3617431" lon="8.1010445"><ele>683.0</ele><time>2026-04-30T16:47:15.778Z</time></trkpt><trkpt lat="34.3617973" lon="8.1008943"><ele>684.5</ele><time>2026-04-30T16:47:16.759Z</time></trkpt><trkpt lat="34.3618525" lon="8.1007339"><ele>686.0</ele><time>2026-04-30T16:47:17.783Z</time></trkpt><trkpt lat="34.3619173" lon="8.1005829"><ele>687.5</ele><time>2026-04-30T16:47:18.777Z</time></trkpt><trkpt lat="34.3619834" lon="8.1004234"><ele>689.0</ele><time>2026-04-30T16:47:19.747Z</time></trkpt><trkpt lat="34.3620521" lon="8.1002623"><ele>689.0</ele><time>2026-04-30T16:47:20.778Z</time></trkpt><trkpt lat="34.3621221" lon="8.1001048"><ele>689.0</ele><time>2026-04-30T16:47:21.77Z</time></trkpt><trkpt lat="34.3621897" lon="8.0999483"><ele>689.0</ele><time>2026-04-30T16:47:22.775Z</time></trkpt><trkpt lat="34.3622528" lon="8.0997975"><ele>689.0</ele><time>2026-04-30T16:47:23.77Z</time></trkpt><trkpt lat="34.3623015" lon="8.0996456"><ele>690.0</ele><time>2026-04-30T16:47:24.777Z</time></trkpt><trkpt lat="34.3623283" lon="8.0994862"><ele>691.0</ele><time>2026-04-30T16:47:25.736Z</time></trkpt><trkpt lat="34.3623406" lon="8.0993285"><ele>692.0</ele><time>2026-04-30T16:47:26.762Z</time></trkpt><trkpt lat="34.3630257" lon="8.1041864"><ele>689.0</ele><time>2026-04-30T16:46:56.751Z</time></trkpt><trkpt lat="34.362914" lon="8.104031"><ele>686.0</ele><time>2026-04-30T16:46:57.744Z</time></trkpt><trkpt lat="34.3628011" lon="8.1038692"><ele>683.0</ele><time>2026-04-30T16:46:58.78Z</time></trkpt><trkpt lat="34.3626968" lon="8.1037035"><ele>683.0</ele><time>2026-04-30T16:46:59.751Z</time></trkpt><trkpt lat="34.3625994" lon="8.1035308"><ele>683.0</ele><time>2026-04-30T16:47:00.771Z</time></trkpt><trkpt lat="34.362506" lon="8.1033523"><ele>683.0</ele><time>2026-04-30T16:47:01.769Z</time></trkpt><trkpt lat="34.3624194" lon="8.1031744"><ele>683.0</ele><time>2026-04-30T16:47:02.777Z</time></trkpt><trkpt lat="34.362334" lon="8.1029875"><ele>683.0</ele><time>2026-04-30T16:47:03.759Z</time></trkpt><trkpt lat="34.3622424" lon="8.1028078"><ele>683.0</ele><time>2026-04-30T16:47:04.779Z</time></trkpt><trkpt lat="34.3621544" lon="8.102624"><ele>681.6666666666666</ele><time>2026-04-30T16:47:05.743Z</time></trkpt><trkpt lat="34.3620766" lon="8.1024493"><ele>680.3333333333334</ele><time>2026-04-30T16:47:06.77Z</time></trkpt><trkpt lat="34.3619968" lon="8.1022799"><ele>679.0</ele><time>2026-04-30T16:47:07.763Z</time></trkpt><trkpt lat="34.3619258" lon="8.1021223"><ele>679.0</ele><time>2026-04-30T16:47:08.731Z</time></trkpt><trkpt lat="34.361862" lon="8.1019643"><ele>679.0</ele><time>2026-04-30T16:47:09.749Z</time></trkpt><trkpt lat="34.3618079" lon="8.1018138"><ele>679.0</ele><time>2026-04-30T16:47:10.778Z</time></trkpt><trkpt lat="34.361761" lon="8.1016628"><ele>679.0</ele><time>2026-04-30T16:47:11.772Z</time></trkpt><trkpt lat="34.3617241" lon="8.1015161"><ele>680.0</ele><time>2026-04-30T16:47:12.787Z</time></trkpt><trkpt lat="34.3616988" lon="8.1013616"><ele>681.0</ele><time>2026-04-30T16:47:13.782Z</time></trkpt><trkpt lat="34.3617084" lon="8.1011992"><ele>682.0</ele><time>2026-04-30T16:47:14.765Z</time></trkpt><trkpt lat="34.3617431" lon="8.1010445"><ele>683.0</ele><time>2026-04-30T16:47:15.778Z</time></trkpt><trkpt lat="34.3617973" lon="8.1008943"><ele>684.5</ele><time>2026-04-30T16:47:16.759Z</time></trkpt><trkpt lat="34.3618525" lon="8.1007339"><ele>686.0</ele><time>2026-04-30T16:47:17.783Z</time></trkpt><trkpt lat="34.3619173" lon="8.1005829"><ele>687.5</ele><time>2026-04-30T16:47:18.777Z</time></trkpt><trkpt lat="34.3619834" lon="8.1004234"><ele>689.0</ele><time>2026-04-30T16:47:19.747Z</time></trkpt><trkpt lat="34.3620521" lon="8.1002623"><ele>689.0</ele><time>2026-04-30T16:47:20.778Z</time></trkpt><trkpt lat="34.3621221" lon="8.1001048"><ele>689.0</ele><time>2026-04-30T16:47:21.77Z</time></trkpt><trkpt lat="34.3621897" lon="8.0999483"><ele>689.0</ele><time>2026-04-30T16:47:22.775Z</time></trkpt><trkpt lat="34.3622528" lon="8.0997975"><ele>689.0</ele><time>2026-04-30T16:47:23.77Z</time></trkpt><trkpt lat="34.3623015" lon="8.0996456"><ele>688.5</ele><time>2026-04-30T16:47:24.777Z</time></trkpt><trkpt lat="34.3623283" lon="8.0994862"><ele>688.0</ele><time>2026-04-30T16:47:25.736Z</time></trkpt><trkpt lat="34.3623406" lon="8.0993285"><ele>687.5</ele><time>2026-04-30T16:47:26.762Z</time></trkpt><trkpt lat="34.3623264" lon="8.0991679"><ele>687.0</ele><time>2026-04-30T16:47:27.768Z</time></trkpt><trkpt lat="34.3622964" lon="8.0990116"><ele>687.0</ele><time>2026-04-30T16:47:28.754Z</time></trkpt><trkpt lat="34.3622537" lon="8.0988399"><ele>687.0</ele><time>2026-04-30T16:47:29.74Z</time></trkpt><trkpt lat="34.3621985" lon="8.0986763"><ele>687.0</ele><time>2026-04-30T16:47:30.77Z</time></trkpt><trkpt lat="34.3621415" lon="8.0985131"><ele>687.0</ele><time>2026-04-30T16:47:31.743Z</time></trkpt><trkpt lat="34.3620726" lon="8.0983319"><ele>690.0</ele><time>2026-04-30T16:47:32.747Z</time></trkpt><trkpt lat="34.3619915" lon="8.0981395"><ele>693.0</ele><time>2026-04-30T16:47:33.774Z</time></trkpt><trkpt lat="34.3619003" lon="8.0979363"><ele>696.0</ele><time>2026-04-30T16:47:34.768Z</time></trkpt><trkpt lat="34.3617964" lon="8.0977408"><ele>696.0</ele><time>2026-04-30T16:47:35.73Z</time></trkpt><trkpt lat="34.3616778" lon="8.0975427"><ele>696.0</ele><time>2026-04-30T16:47:36.766Z</time></trkpt><trkpt lat="34.3615495" lon="8.0973553"><ele>696.0</ele><time>2026-04-30T16:47:37.747Z</time></trkpt><trkpt lat="34.3614301" lon="8.0971653"><ele>698.3333333333334</ele><time>2026-04-30T16:47:38.757Z</time></trkpt><trkpt lat="34.3613206" lon="8.096974"><ele>700.6666666666667</ele><time>2026-04-30T16:47:39.786Z</time></trkpt><trkpt lat="34.3612267" lon="8.0967849"><ele>703.0</ele><time>2026-04-30T16:47:40.759Z</time></trkpt><trkpt lat="34.3611292" lon="8.0965957"><ele>693.0</ele><time>2026-04-30T16:47:41.74Z</time></trkpt><trkpt lat="34.3610346" lon="8.0964191"><ele>683.0</ele><time>2026-04-30T16:47:42.719Z</time></trkpt><trkpt lat="34.3609392" lon="8.0962581"><ele>673.0</ele><time>2026-04-30T16:47:43.763Z</time></trkpt><trkpt lat="34.3608352" lon="8.096122"><ele>673.0</ele><time>2026-04-30T16:47:44.756Z</time></trkpt><trkpt lat="34.3607164" lon="8.0960068"><ele>673.0</ele><time>2026-04-30T16:47:45.76Z</time></trkpt><trkpt lat="34.3606044" lon="8.0958879"><ele>673.0</ele><time>2026-04-30T16:47:46.77Z</time></trkpt><trkpt lat="34.3604937" lon="8.0957721"><ele>673.0</ele><time>2026-04-30T16:47:47.76Z</time></trkpt><trkpt lat="34.3603777" lon="8.0956657"><ele>671.25</ele><time>2026-04-30T16:47:48.766Z</time></trkpt><trkpt lat="34.3602746" lon="8.0955522"><ele>669.5</ele><time>2026-04-30T16:47:49.763Z</time></trkpt><trkpt lat="34.3601742" lon="8.0954454"><ele>667.75</ele><time>2026-04-30T16:47:50.727Z</time></trkpt><trkpt lat="34.360073" lon="8.0953406"><ele>666.0</ele><time>2026-04-30T16:47:51.766Z</time></trkpt><trkpt lat="34.3599682" lon="8.0952525"><ele>666.0</ele><time>2026-04-30T16:47:52.748Z</time></trkpt><trkpt lat="34.359866" lon="8.0951651"><ele>666.0</ele><time>2026-04-30T16:47:53.761Z</time></trkpt><trkpt lat="34.3597591" lon="8.0950803"><ele>666.0</ele><time>2026-04-30T16:47:54.719Z</time></trkpt><trkpt lat="34.3596433" lon="8.0949823"><ele>666.0</ele><time>2026-04-30T16:47:55.751Z</time></trkpt><trkpt lat="34.3595199" lon="8.0948831"><ele>663.25</ele><time>2026-04-30T16:47:56.758Z</time></trkpt><trkpt lat="34.3594001" lon="8.0947792"><ele>660.5</ele><time>2026-04-30T16:47:57.759Z</time></trkpt><trkpt lat="34.3592798" lon="8.0946866"><ele>657.75</ele><time>2026-04-30T16:47:58.741Z</time></trkpt><trkpt lat="34.3591611" lon="8.0946092"><ele>655.0</ele><time>2026-04-30T16:47:59.761Z</time></trkpt><trkpt lat="34.3590368" lon="8.0945511"><ele>655.0</ele><time>2026-04-30T16:48:00.773Z</time></trkpt><trkpt lat="34.3589118" lon="8.0944873"><ele>655.0</ele><time>2026-04-30T16:48:01.756Z</time></trkpt><trkpt lat="34.3587865" lon="8.094431"><ele>655.0</ele><time>2026-04-30T16:48:02.759Z</time></trkpt><trkpt lat="34.3586607" lon="8.0943818"><ele>655.0</ele><time>2026-04-30T16:48:03.762Z</time></trkpt><trkpt lat="34.3585419" lon="8.094334"><ele>655.25</ele><time>2026-04-30T16:48:04.758Z</time></trkpt><trkpt lat="34.3584152" lon="8.0942906"><ele>655.5</ele><time>2026-04-30T16:48:05.764Z</time></trkpt><trkpt lat="34.3582787" lon="8.0942566"><ele>655.75</ele><time>2026-04-30T16:48:06.758Z</time></trkpt><trkpt lat="34.3581427" lon="8.0942503"><ele>656.0</ele><time>2026-04-30T16:48:07.772Z</time></trkpt><trkpt lat="34.3579932" lon="8.0942648"><ele>656.0</ele><time>2026-04-30T16:48:08.763Z</time></trkpt><trkpt lat="34.3578259" lon="8.0942921"><ele>656.0</ele><time>2026-04-30T16:48:09.768Z</time></trkpt><trkpt lat="34.3576362" lon="8.0943065"><ele>656.0</ele><time>2026-04-30T16:48:10.732Z</time></trkpt><trkpt lat="34.3574383" lon="8.0943171"><ele>656.0</ele><time>2026-04-30T16:48:11.761Z</time></trkpt><trkpt lat="34.3572365" lon="8.0943175"><ele>656.0</ele><time>2026-04-30T16:48:12.742Z</time></trkpt><trkpt lat="34.3570436" lon="8.0943118"><ele>656.0</ele><time>2026-04-30T16:48:13.782Z</time></trkpt><trkpt lat="34.3568542" lon="8.0943145"><ele>656.0</ele><time>2026-04-30T16:48:14.776Z</time></trkpt><trkpt lat="34.3566759" lon="8.0943243"><ele>656.0</ele><time>2026-04-30T16:48:15.769Z</time></trkpt><trkpt lat="34.3564962" lon="8.0943373"><ele>656.0</ele><time>2026-04-30T16:48:16.757Z</time></trkpt><trkpt lat="34.3563287" lon="8.0943588"><ele>653.0</ele><time>2026-04-30T16:48:17.759Z</time></trkpt><trkpt lat="34.3561606" lon="8.0943726"><ele>650.0</ele><time>2026-04-30T16:48:18.747Z</time></trkpt><trkpt lat="34.3559944" lon="8.0943762"><ele>647.0</ele><time>2026-04-30T16:48:19.763Z</time></trkpt><trkpt lat="34.3558349" lon="8.0943642"><ele>647.0</ele><time>2026-04-30T16:48:20.747Z</time></trkpt><trkpt lat="34.3556756" lon="8.0943508"><ele>647.0</ele><time>2026-04-30T16:48:21.743Z</time></trkpt><trkpt lat="34.3555327" lon="8.0943578"><ele>647.0</ele><time>2026-04-30T16:48:22.755Z</time></trkpt><trkpt lat="34.355383" lon="8.0943863"><ele>643.0</ele><time>2026-04-30T16:48:23.737Z</time></trkpt><trkpt lat="34.3552456" lon="8.0944277"><ele>639.0</ele><time>2026-04-30T16:48:24.762Z</time></trkpt><trkpt lat="34.3551208" lon="8.0944768"><ele>635.0</ele><time>2026-04-30T16:48:25.776Z</time></trkpt><trkpt lat="34.3549932" lon="8.0945308"><ele>631.0</ele><time>2026-04-30T16:48:26.746Z</time></trkpt><trkpt lat="34.3548653" lon="8.0945787"><ele>631.0</ele><time>2026-04-30T16:48:27.761Z</time></trkpt><trkpt lat="34.3547404" lon="8.0946268"><ele>631.0</ele><time>2026-04-30T16:48:28.782Z</time></trkpt><trkpt lat="34.3546117" lon="8.0946683"><ele>631.0</ele><time>2026-04-30T16:48:29.775Z</time></trkpt><trkpt lat="34.3544916" lon="8.094708"><ele>631.0</ele><time>2026-04-30T16:48:30.771Z</time></trkpt><trkpt lat="34.3543714" lon="8.0947437"><ele>630.8</ele><time>2026-04-30T16:48:31.733Z</time></trkpt><trkpt lat="34.3542591" lon="8.094787"><ele>630.6</ele><time>2026-04-30T16:48:32.763Z</time></trkpt><trkpt lat="34.3541612" lon="8.0948303"><ele>630.4</ele><time>2026-04-30T16:48:33.74Z</time></trkpt><trkpt lat="34.3540653" lon="8.0948735"><ele>630.2</ele><time>2026-04-30T16:48:34.748Z</time></trkpt><trkpt lat="34.3539829" lon="8.0949227"><ele>630.0</ele><time>2026-04-30T16:48:35.765Z</time></trkpt><trkpt lat="34.3539157" lon="8.0949831"><ele>624.5</ele><time>2026-04-30T16:48:36.745Z</time></trkpt><trkpt lat="34.3538495" lon="8.0950682"><ele>619.0</ele><time>2026-04-30T16:48:37.735Z</time></trkpt><trkpt lat="34.3538176" lon="8.0952029"><ele>613.5</ele><time>2026-04-30T16:48:38.751Z</time></trkpt><trkpt lat="34.3538043" lon="8.0953673"><ele>608.0</ele><time>2026-04-30T16:48:39.765Z</time></trkpt><trkpt lat="34.3537942" lon="8.0955457"><ele>608.0</ele><time>2026-04-30T16:48:40.751Z</time></trkpt><trkpt lat="34.3537674" lon="8.0957235"><ele>608.0</ele><time>2026-04-30T16:48:41.743Z</time></trkpt><trkpt lat="34.3537469" lon="8.0959021"><ele>608.0</ele><time>2026-04-30T16:48:42.756Z</time></trkpt><trkpt lat="34.3537239" lon="8.0960678"><ele>608.0</ele><time>2026-04-30T16:48:43.774Z</time></trkpt><trkpt lat="34.3537015" lon="8.0962296"><ele>608.75</ele><time>2026-04-30T16:48:44.751Z</time></trkpt><trkpt lat="34.3536719" lon="8.0963893"><ele>609.5</ele><time>2026-04-30T16:48:45.76Z</time></trkpt><trkpt lat="34.3536375" lon="8.096534"><ele>610.25</ele><time>2026-04-30T16:48:46.767Z</time></trkpt><trkpt lat="34.3535986" lon="8.096658"><ele>611.0</ele><time>2026-04-30T16:48:47.744Z</time></trkpt><trkpt lat="34.3535331" lon="8.0967564"><ele>611.4</ele><time>2026-04-30T16:48:48.766Z</time></trkpt><trkpt lat="34.3534642" lon="8.0968355"><ele>611.8</ele><time>2026-04-30T16:48:49.745Z</time></trkpt><trkpt lat="34.3533778" lon="8.0968797"><ele>612.1999999999999</ele><time>2026-04-30T16:48:50.739Z</time></trkpt><trkpt lat="34.3532869" lon="8.0968936"><ele>612.6</ele><time>2026-04-30T16:48:51.762Z</time></trkpt><trkpt lat="34.3531961" lon="8.0968709"><ele>613.0</ele><time>2026-04-30T16:48:52.766Z</time></trkpt><trkpt lat="34.353104" lon="8.0968108"><ele>611.0</ele><time>2026-04-30T16:48:53.751Z</time></trkpt><trkpt lat="34.3530216" lon="8.0967118"><ele>609.0</ele><time>2026-04-30T16:48:54.765Z</time></trkpt><trkpt lat="34.3529524" lon="8.0965803"><ele>607.0</ele><time>2026-04-30T16:48:55.773Z</time></trkpt><trkpt lat="34.3528933" lon="8.0963958"><ele>605.0</ele><time>2026-04-30T16:48:56.757Z</time></trkpt><trkpt lat="34.3528455" lon="8.0961659"><ele>603.0</ele><time>2026-04-30T16:48:57.74Z</time></trkpt><trkpt lat="34.3528129" lon="8.0959406"><ele>601.0</ele><time>2026-04-30T16:48:58.737Z</time></trkpt><trkpt lat="34.3527795" lon="8.0957484"><ele>599.0</ele><time>2026-04-30T16:48:59.762Z</time></trkpt><trkpt lat="34.352756" lon="8.0955723"><ele>596.75</ele><time>2026-04-30T16:49:00.767Z</time></trkpt><trkpt lat="34.3527196" lon="8.0954083"><ele>594.5</ele><time>2026-04-30T16:49:01.757Z</time></trkpt><trkpt lat="34.3526628" lon="8.0952789"><ele>592.25</ele><time>2026-04-30T16:49:02.736Z</time></trkpt><trkpt lat="34.3525872" lon="8.0951908"><ele>590.0</ele><time>2026-04-30T16:49:03.764Z</time></trkpt><trkpt lat="34.3525033" lon="8.0951197"><ele>590.0</ele><time>2026-04-30T16:49:04.756Z</time></trkpt><trkpt lat="34.352419" lon="8.0950502"><ele>590.0</ele><time>2026-04-30T16:49:05.758Z</time></trkpt><trkpt lat="34.3523438" lon="8.094977"><ele>590.0</ele><time>2026-04-30T16:49:06.737Z</time></trkpt><trkpt lat="34.3522682" lon="8.0949067"><ele>590.0</ele><time>2026-04-30T16:49:07.732Z</time></trkpt><trkpt lat="34.352192" lon="8.0948403"><ele>590.0</ele><time>2026-04-30T16:49:08.788Z</time></trkpt><trkpt lat="34.3521147" lon="8.0947839"><ele>585.1666666666666</ele><time>2026-04-30T16:49:09.768Z</time></trkpt><trkpt lat="34.3520382" lon="8.0947404"><ele>580.3333333333333</ele><time>2026-04-30T16:49:10.772Z</time></trkpt><trkpt lat="34.3519711" lon="8.0947025"><ele>575.5</ele><time>2026-04-30T16:49:11.774Z</time></trkpt><trkpt lat="34.351888" lon="8.0946603"><ele>570.6666666666666</ele><time>2026-04-30T16:49:13.774Z</time></trkpt><trkpt lat="34.3518405" lon="8.094601"><ele>565.8333333333334</ele><time>2026-04-30T16:49:16.766Z</time></trkpt><trkpt lat="34.3517937" lon="8.0945237"><ele>561.0</ele><time>2026-04-30T16:49:24.725Z</time></trkpt><trkpt lat="34.3518649" lon="8.0944907"><ele>561.0</ele><time>2026-04-30T16:49:37.749Z</time></trkpt><trkpt lat="34.3519354" lon="8.0944424"><ele>561.0</ele><time>2026-04-30T16:49:40.709Z</time></trkpt><trkpt lat="34.3519165" lon="8.0945307"><ele>561.0</ele><time>2026-04-30T17:01:17.734Z</time></trkpt><trkpt lat="34.3518489" lon="8.0945861"><ele>561.0</ele><time>2026-04-30T17:01:20.732Z</time></trkpt><trkpt lat="34.3517771" lon="8.0946057"><ele>561.0</ele><time>2026-04-30T17:01:22.743Z</time></trkpt><trkpt lat="34.3516764" lon="8.0946424"><ele>561.0</ele><time>2026-04-30T17:01:24.738Z</time></trkpt><trkpt lat="34.3516147" lon="8.0946586"><ele>561.0</ele><time>2026-04-30T17:01:25.744Z</time></trkpt><trkpt lat="34.3515406" lon="8.0946854"><ele>561.0</ele><time>2026-04-30T17:01:26.736Z</time></trkpt><trkpt lat="34.3514653" lon="8.0947267"><ele>561.0</ele><time>2026-04-30T17:01:27.711Z</time></trkpt><trkpt lat="34.3513981" lon="8.094777"><ele>561.0</ele><time>2026-04-30T17:01:28.707Z</time></trkpt><trkpt lat="34.351327" lon="8.0948325"><ele>561.0</ele><time>2026-04-30T17:01:29.717Z</time></trkpt><trkpt lat="34.3512529" lon="8.0948987"><ele>561.0</ele><time>2026-04-30T17:01:30.746Z</time></trkpt><trkpt lat="34.3511814" lon="8.0949705"><ele>562.5</ele><time>2026-04-30T17:01:31.725Z</time></trkpt><trkpt lat="34.3511137" lon="8.09504"><ele>564.0</ele><time>2026-04-30T17:01:32.738Z</time></trkpt><trkpt lat="34.3510483" lon="8.0951066"><ele>565.5</ele><time>2026-04-30T17:01:33.736Z</time></trkpt><trkpt lat="34.3509794" lon="8.0951711"><ele>567.0</ele><time>2026-04-30T17:01:34.722Z</time></trkpt><trkpt lat="34.3509102" lon="8.0952374"><ele>568.5</ele><time>2026-04-30T17:01:35.722Z</time></trkpt><trkpt lat="34.350833" lon="8.0952939"><ele>570.0</ele><time>2026-04-30T17:01:36.731Z</time></trkpt><trkpt lat="34.3507494" lon="8.0953446"><ele>570.0</ele><time>2026-04-30T17:01:37.715Z</time></trkpt><trkpt lat="34.3506632" lon="8.0954016"><ele>570.0</ele><time>2026-04-30T17:01:38.726Z</time></trkpt><trkpt lat="34.3505779" lon="8.0954615"><ele>570.0</ele><time>2026-04-30T17:01:39.737Z</time></trkpt><trkpt lat="34.3504948" lon="8.095519"><ele>570.0</ele><time>2026-04-30T17:01:40.726Z</time></trkpt><trkpt lat="34.3504101" lon="8.095592"><ele>570.0</ele><time>2026-04-30T17:01:41.724Z</time></trkpt><trkpt lat="34.350332" lon="8.0956644"><ele>565.8</ele><time>2026-04-30T17:01:42.737Z</time></trkpt><trkpt lat="34.3502601" lon="8.0957442"><ele>561.6</ele><time>2026-04-30T17:01:43.737Z</time></trkpt><trkpt lat="34.350182" lon="8.0958429"><ele>557.4</ele><time>2026-04-30T17:01:44.739Z</time></trkpt><trkpt lat="34.3501098" lon="8.0959457"><ele>553.2</ele><time>2026-04-30T17:01:45.734Z</time></trkpt><trkpt lat="34.3500432" lon="8.0960558"><ele>549.0</ele><time>2026-04-30T17:01:46.716Z</time></trkpt><trkpt lat="34.3499853" lon="8.0961658"><ele>549.0</ele><time>2026-04-30T17:01:47.734Z</time></trkpt><trkpt lat="34.3499301" lon="8.0962768"><ele>549.0</ele><time>2026-04-30T17:01:48.727Z</time></trkpt><trkpt lat="34.3498704" lon="8.0963709"><ele>549.0</ele><time>2026-04-30T17:01:49.718Z</time></trkpt><trkpt lat="34.3498031" lon="8.0964457"><ele>549.0</ele><time>2026-04-30T17:01:50.728Z</time></trkpt><trkpt lat="34.3497232" lon="8.0965138"><ele>549.0</ele><time>2026-04-30T17:01:51.774Z</time></trkpt><trkpt lat="34.3496434" lon="8.0965662"><ele>547.0</ele><time>2026-04-30T17:01:52.734Z</time></trkpt><trkpt lat="34.3495621" lon="8.0966"><ele>545.0</ele><time>2026-04-30T17:01:53.76Z</time></trkpt><trkpt lat="34.3494763" lon="8.0966308"><ele>543.0</ele><time>2026-04-30T17:01:54.731Z</time></trkpt><trkpt lat="34.3493967" lon="8.0966544"><ele>541.0</ele><time>2026-04-30T17:01:55.751Z</time></trkpt><trkpt lat="34.349316" lon="8.096681"><ele>539.0</ele><time>2026-04-30T17:01:56.736Z</time></trkpt><trkpt lat="34.3492334" lon="8.0967173"><ele>537.0</ele><time>2026-04-30T17:01:57.714Z</time></trkpt><trkpt lat="34.3491447" lon="8.0967611"><ele>537.0</ele><time>2026-04-30T17:01:58.737Z</time></trkpt><trkpt lat="34.3490471" lon="8.0968026"><ele>537.0</ele><time>2026-04-30T17:01:59.723Z</time></trkpt><trkpt lat="34.3489518" lon="8.0968501"><ele>537.0</ele><time>2026-04-30T17:02:00.727Z</time></trkpt><trkpt lat="34.3488452" lon="8.0969007"><ele>537.0</ele><time>2026-04-30T17:02:01.726Z</time></trkpt><trkpt lat="34.348737" lon="8.0969568"><ele>537.0</ele><time>2026-04-30T17:02:02.733Z</time></trkpt><trkpt lat="34.3486311" lon="8.0970175"><ele>534.0</ele><time>2026-04-30T17:02:03.744Z</time></trkpt><trkpt lat="34.3485289" lon="8.0970789"><ele>531.0</ele><time>2026-04-30T17:02:04.717Z</time></trkpt><trkpt lat="34.3484292" lon="8.0971429"><ele>528.0</ele><time>2026-04-30T17:02:05.722Z</time></trkpt><trkpt lat="34.3483221" lon="8.0972052"><ele>525.0</ele><time>2026-04-30T17:02:06.728Z</time></trkpt><trkpt lat="34.3482174" lon="8.0972708"><ele>525.0</ele><time>2026-04-30T17:02:07.739Z</time></trkpt><trkpt lat="34.3481104" lon="8.0973464"><ele>525.0</ele><time>2026-04-30T17:02:08.725Z</time></trkpt><trkpt lat="34.3480031" lon="8.0974236"><ele>525.0</ele><time>2026-04-30T17:02:09.733Z</time></trkpt><trkpt lat="34.3478892" lon="8.0974982"><ele>525.0</ele><time>2026-04-30T17:02:10.741Z</time></trkpt><trkpt lat="34.3477769" lon="8.0975749"><ele>526.75</ele><time>2026-04-30T17:02:11.729Z</time></trkpt><trkpt lat="34.3476639" lon="8.0976532"><ele>528.5</ele><time>2026-04-30T17:02:12.719Z</time></trkpt><trkpt lat="34.3475479" lon="8.097724"><ele>530.25</ele><time>2026-04-30T17:02:13.728Z</time></trkpt><trkpt lat="34.3474308" lon="8.0977948"><ele>532.0</ele><time>2026-04-30T17:02:14.732Z</time></trkpt><trkpt lat="34.3473178" lon="8.0978755"><ele>532.5</ele><time>2026-04-30T17:02:15.727Z</time></trkpt><trkpt lat="34.3472102" lon="8.0979667"><ele>533.0</ele><time>2026-04-30T17:02:16.711Z</time></trkpt><trkpt lat="34.3471022" lon="8.0980648"><ele>533.5</ele><time>2026-04-30T17:02:17.722Z</time></trkpt><trkpt lat="34.3469984" lon="8.0981522"><ele>534.0</ele><time>2026-04-30T17:02:18.727Z</time></trkpt><trkpt lat="34.3468905" lon="8.0982303"><ele>530.5</ele><time>2026-04-30T17:02:19.738Z</time></trkpt><trkpt lat="34.3467796" lon="8.0983029"><ele>527.0</ele><time>2026-04-30T17:02:20.732Z</time></trkpt><trkpt lat="34.3466581" lon="8.0983659"><ele>523.5</ele><time>2026-04-30T17:02:21.728Z</time></trkpt><trkpt lat="34.3465328" lon="8.0984334"><ele>520.0</ele><time>2026-04-30T17:02:22.774Z</time></trkpt><trkpt lat="34.3464056" lon="8.0984959"><ele>521.0</ele><time>2026-04-30T17:02:23.738Z</time></trkpt><trkpt lat="34.3462774" lon="8.098556"><ele>522.0</ele><time>2026-04-30T17:02:24.742Z</time></trkpt><trkpt lat="34.3461454" lon="8.09861"><ele>523.0</ele><time>2026-04-30T17:02:25.733Z</time></trkpt><trkpt lat="34.3460114" lon="8.0986689"><ele>524.0</ele><time>2026-04-30T17:02:26.749Z</time></trkpt><trkpt lat="34.3458829" lon="8.0987138"><ele>524.0</ele><time>2026-04-30T17:02:27.719Z</time></trkpt><trkpt lat="34.3457515" lon="8.098754"><ele>524.0</ele><time>2026-04-30T17:02:28.716Z</time></trkpt><trkpt lat="34.3456256" lon="8.0987924"><ele>524.0</ele><time>2026-04-30T17:02:29.726Z</time></trkpt><trkpt lat="34.3455039" lon="8.098825"><ele>524.0</ele><time>2026-04-30T17:02:30.745Z</time></trkpt><trkpt lat="34.3453819" lon="8.0988464"><ele>522.75</ele><time>2026-04-30T17:02:31.749Z</time></trkpt><trkpt lat="34.3452564" lon="8.0988544"><ele>521.5</ele><time>2026-04-30T17:02:32.743Z</time></trkpt><trkpt lat="34.3451355" lon="8.0988493"><ele>520.25</ele><time>2026-04-30T17:02:33.75Z</time></trkpt><trkpt lat="34.3450091" lon="8.0988398"><ele>519.0</ele><time>2026-04-30T17:02:34.734Z</time></trkpt><trkpt lat="34.3448854" lon="8.0988255"><ele>519.0</ele><time>2026-04-30T17:02:35.723Z</time></trkpt><trkpt lat="34.3447614" lon="8.0988144"><ele>519.0</ele><time>2026-04-30T17:02:36.735Z</time></trkpt><trkpt lat="34.3446353" lon="8.0988183"><ele>519.0</ele><time>2026-04-30T17:02:37.728Z</time></trkpt><trkpt lat="34.3445076" lon="8.0988466"><ele>519.0</ele><time>2026-04-30T17:02:38.707Z</time></trkpt><trkpt lat="34.3443805" lon="8.09889"><ele>518.25</ele><time>2026-04-30T17:02:39.731Z</time></trkpt><trkpt lat="34.344265" lon="8.0989486"><ele>517.5</ele><time>2026-04-30T17:02:40.738Z</time></trkpt><trkpt lat="34.3441502" lon="8.0990095"><ele>516.75</ele><time>2026-04-30T17:02:41.729Z</time></trkpt><trkpt lat="34.3440419" lon="8.0990693"><ele>516.0</ele><time>2026-04-30T17:02:42.735Z</time></trkpt><trkpt lat="34.3439294" lon="8.0991355"><ele>510.20000000000005</ele><time>2026-04-30T17:02:43.725Z</time></trkpt><trkpt lat="34.3438218" lon="8.099202"><ele>504.40000000000003</ele><time>2026-04-30T17:02:44.733Z</time></trkpt><trkpt lat="34.343721" lon="8.0992662"><ele>498.6</ele><time>2026-04-30T17:02:45.751Z</time></trkpt><trkpt lat="34.3436327" lon="8.0993195"><ele>492.8</ele><time>2026-04-30T17:02:46.742Z</time></trkpt><trkpt lat="34.3435512" lon="8.0993682"><ele>487.0</ele><time>2026-04-30T17:02:47.732Z</time></trkpt><trkpt lat="34.343491" lon="8.0994301"><ele>487.00000000000006</ele><time>2026-04-30T17:02:48.734Z</time></trkpt><trkpt lat="34.3434534" lon="8.0994974"><ele>487.0</ele><time>2026-04-30T17:02:49.77Z</time></trkpt><trkpt lat="34.3434935" lon="8.0996338"><ele>487.0</ele><time>2026-04-30T17:02:51.73Z</time></trkpt><trkpt lat="34.3435544" lon="8.0996726"><ele>487.0</ele><time>2026-04-30T17:02:52.732Z</time></trkpt><trkpt lat="34.3436177" lon="8.0997057"><ele>487.00000000000006</ele><time>2026-04-30T17:02:53.745Z</time></trkpt><trkpt lat="34.3436827" lon="8.0997311"><ele>487.0</ele><time>2026-04-30T17:02:54.74Z</time></trkpt><trkpt lat="34.3437427" lon="8.0997588"><ele>487.0</ele><time>2026-04-30T17:02:55.728Z</time></trkpt><trkpt lat="34.3438081" lon="8.0997885"><ele>487.0</ele><time>2026-04-30T17:02:56.743Z</time></trkpt><trkpt lat="34.3438663" lon="8.0998199"><ele>487.0</ele><time>2026-04-30T17:02:57.727Z</time></trkpt><trkpt lat="34.3439236" lon="8.0998615"><ele>487.0</ele><time>2026-04-30T17:02:58.731Z</time></trkpt><trkpt lat="34.3439822" lon="8.0998979"><ele>487.0</ele><time>2026-04-30T17:02:59.736Z</time></trkpt><trkpt lat="34.3440386" lon="8.0999382"><ele>487.0</ele><time>2026-04-30T17:03:00.738Z</time></trkpt><trkpt lat="34.3440865" lon="8.1000012"><ele>487.0</ele><time>2026-04-30T17:03:01.742Z</time></trkpt><trkpt lat="34.3441274" lon="8.1000739"><ele>483.1666666666667</ele><time>2026-04-30T17:03:02.734Z</time></trkpt><trkpt lat="34.3441611" lon="8.1001518"><ele>479.33333333333337</ele><time>2026-04-30T17:03:03.739Z</time></trkpt><trkpt lat="34.3441737" lon="8.1002292"><ele>475.5</ele><time>2026-04-30T17:03:04.724Z</time></trkpt><trkpt lat="34.3441757" lon="8.1003184"><ele>471.66666666666663</ele><time>2026-04-30T17:03:05.725Z</time></trkpt><trkpt lat="34.3441699" lon="8.100423"><ele>467.8333333333333</ele><time>2026-04-30T17:03:06.737Z</time></trkpt><trkpt lat="34.3441653" lon="8.1005281"><ele>464.0</ele><time>2026-04-30T17:03:07.737Z</time></trkpt><trkpt lat="34.3441547" lon="8.1006366"><ele>463.99999999999994</ele><time>2026-04-30T17:03:08.732Z</time></trkpt><trkpt lat="34.3441413" lon="8.1007363"><ele>464.0</ele><time>2026-04-30T17:03:09.727Z</time></trkpt><trkpt lat="34.3441288" lon="8.1008419"><ele>464.0</ele><time>2026-04-30T17:03:10.707Z</time></trkpt><trkpt lat="34.3441123" lon="8.1009445"><ele>464.0</ele><time>2026-04-30T17:03:11.759Z</time></trkpt><trkpt lat="34.344072" lon="8.1010279"><ele>463.99999999999994</ele><time>2026-04-30T17:03:12.755Z</time></trkpt><trkpt lat="34.3440262" lon="8.1010858"><ele>464.0</ele><time>2026-04-30T17:03:13.76Z</time></trkpt><trkpt lat="34.3439653" lon="8.1011248"><ele>464.2</ele><time>2026-04-30T17:03:14.786Z</time></trkpt><trkpt lat="34.3438848" lon="8.1011399"><ele>464.4</ele><time>2026-04-30T17:03:15.753Z</time></trkpt><trkpt lat="34.3437995" lon="8.1011166"><ele>464.6</ele><time>2026-04-30T17:03:16.724Z</time></trkpt><trkpt lat="34.3437132" lon="8.1010537"><ele>464.8</ele><time>2026-04-30T17:03:17.728Z</time></trkpt><trkpt lat="34.3436341" lon="8.1009769"><ele>465.0</ele><time>2026-04-30T17:03:18.754Z</time></trkpt><trkpt lat="34.3435602" lon="8.1008787"><ele>462.4</ele><time>2026-04-30T17:03:19.748Z</time></trkpt><trkpt lat="34.3434975" lon="8.1007704"><ele>459.8</ele><time>2026-04-30T17:03:20.765Z</time></trkpt><trkpt lat="34.3434404" lon="8.1006573"><ele>457.20000000000005</ele><time>2026-04-30T17:03:21.74Z</time></trkpt><trkpt lat="34.3433897" lon="8.10055"><ele>454.6</ele><time>2026-04-30T17:03:22.768Z</time></trkpt><trkpt lat="34.3433313" lon="8.1004516"><ele>452.0</ele><time>2026-04-30T17:03:23.762Z</time></trkpt><trkpt lat="34.3432686" lon="8.1003758"><ele>452.0</ele><time>2026-04-30T17:03:24.739Z</time></trkpt><trkpt lat="34.3431947" lon="8.1003095"><ele>452.00000000000006</ele><time>2026-04-30T17:03:25.715Z</time></trkpt><trkpt lat="34.3431196" lon="8.1002631"><ele>452.00000000000006</ele><time>2026-04-30T17:03:26.771Z</time></trkpt><trkpt lat="34.343034" lon="8.1002337"><ele>452.0</ele><time>2026-04-30T17:03:27.724Z</time></trkpt><trkpt lat="34.3429469" lon="8.1002494"><ele>452.0</ele><time>2026-04-30T17:03:28.724Z</time></trkpt><trkpt lat="34.3428396" lon="8.1002752"><ele>450.25</ele><time>2026-04-30T17:03:29.774Z</time></trkpt><trkpt lat="34.3427322" lon="8.1003129"><ele>448.5</ele><time>2026-04-30T17:03:30.8Z</time></trkpt><trkpt lat="34.3426172" lon="8.100328"><ele>446.75</ele><time>2026-04-30T17:03:31.724Z</time></trkpt><trkpt lat="34.3424938" lon="8.1003157"><ele>445.0</ele><time>2026-04-30T17:03:32.724Z</time></trkpt><trkpt lat="34.3423616" lon="8.1002996"><ele>445.0</ele><time>2026-04-30T17:03:33.771Z</time></trkpt><trkpt lat="34.3422281" lon="8.1002974"><ele>445.0</ele><time>2026-04-30T17:03:34.777Z</time></trkpt><trkpt lat="34.3420887" lon="8.1003213"><ele>445.0</ele><time>2026-04-30T17:03:35.778Z</time></trkpt><trkpt lat="34.3419553" lon="8.1003614"><ele>445.0</ele><time>2026-04-30T17:03:36.765Z</time></trkpt><trkpt lat="34.3418194" lon="8.100425"><ele>444.75</ele><time>2026-04-30T17:03:37.76Z</time></trkpt><trkpt lat="34.3416918" lon="8.1005015"><ele>444.5</ele><time>2026-04-30T17:03:38.77Z</time></trkpt><trkpt lat="34.3415628" lon="8.1005769"><ele>444.25</ele><time>2026-04-30T17:03:39.721Z</time></trkpt><trkpt lat="34.3414389" lon="8.1006474"><ele>444.0</ele><time>2026-04-30T17:03:40.767Z</time></trkpt><trkpt lat="34.3413083" lon="8.1007186"><ele>436.75</ele><time>2026-04-30T17:03:41.766Z</time></trkpt><trkpt lat="34.3411828" lon="8.1007891"><ele>429.5</ele><time>2026-04-30T17:03:42.77Z</time></trkpt><trkpt lat="34.3410492" lon="8.1008545"><ele>422.25</ele><time>2026-04-30T17:03:43.766Z</time></trkpt><trkpt lat="34.3409117" lon="8.1009111"><ele>415.0</ele><time>2026-04-30T17:03:44.76Z</time></trkpt><trkpt lat="34.3407787" lon="8.1009553"><ele>415.0</ele><time>2026-04-30T17:03:45.718Z</time></trkpt><trkpt lat="34.3406498" lon="8.1009874"><ele>415.0</ele><time>2026-04-30T17:03:46.752Z</time></trkpt><trkpt lat="34.3405236" lon="8.1010071"><ele>415.0</ele><time>2026-04-30T17:03:47.75Z</time></trkpt><trkpt lat="34.340408" lon="8.1010372"><ele>415.0</ele><time>2026-04-30T17:03:48.748Z</time></trkpt><trkpt lat="34.3402954" lon="8.1010802"><ele>415.5</ele><time>2026-04-30T17:03:49.81Z</time></trkpt><trkpt lat="34.34018" lon="8.1011496"><ele>416.0</ele><time>2026-04-30T17:03:50.743Z</time></trkpt><trkpt lat="34.3400799" lon="8.1012543"><ele>416.5</ele><time>2026-04-30T17:03:51.761Z</time></trkpt><trkpt lat="34.3399895" lon="8.1013622"><ele>417.0</ele><time>2026-04-30T17:03:52.782Z</time></trkpt><trkpt lat="34.3399054" lon="8.101471"><ele>417.0</ele><time>2026-04-30T17:03:53.772Z</time></trkpt><trkpt lat="34.3398279" lon="8.1015667"><ele>417.0</ele><time>2026-04-30T17:03:54.755Z</time></trkpt><trkpt lat="34.3397563" lon="8.1016659"><ele>417.0</ele><time>2026-04-30T17:03:55.75Z</time></trkpt><trkpt lat="34.3396877" lon="8.1017676"><ele>417.0</ele><time>2026-04-30T17:03:56.746Z</time></trkpt><trkpt lat="34.3396249" lon="8.1018667"><ele>417.0</ele><time>2026-04-30T17:03:57.745Z</time></trkpt><trkpt lat="34.3395552" lon="8.1019645"><ele>412.8</ele><time>2026-04-30T17:03:58.754Z</time></trkpt><trkpt lat="34.339485" lon="8.1020716"><ele>408.6</ele><time>2026-04-30T17:03:59.755Z</time></trkpt><trkpt lat="34.3394157" lon="8.1021747"><ele>404.40000000000003</ele><time>2026-04-30T17:04:00.711Z</time></trkpt><trkpt lat="34.339345" lon="8.1022688"><ele>400.20000000000005</ele><time>2026-04-30T17:04:01.755Z</time></trkpt><trkpt lat="34.33927" lon="8.1023547"><ele>396.0</ele><time>2026-04-30T17:04:02.739Z</time></trkpt><trkpt lat="34.3391979" lon="8.102423"><ele>391.8</ele><time>2026-04-30T17:04:03.754Z</time></trkpt><trkpt lat="34.3391097" lon="8.1024717"><ele>387.6</ele><time>2026-04-30T17:04:04.75Z</time></trkpt><trkpt lat="34.3390179" lon="8.1025037"><ele>383.4</ele><time>2026-04-30T17:04:05.74Z</time></trkpt><trkpt lat="34.3389188" lon="8.1025186"><ele>379.2</ele><time>2026-04-30T17:04:06.737Z</time></trkpt><trkpt lat="34.3388074" lon="8.1025198"><ele>375.0</ele><time>2026-04-30T17:04:07.732Z</time></trkpt><trkpt lat="34.3386901" lon="8.1025047"><ele>372.5</ele><time>2026-04-30T17:04:08.771Z</time></trkpt><trkpt lat="34.338565" lon="8.1024759"><ele>370.0</ele><time>2026-04-30T17:04:09.807Z</time></trkpt><trkpt lat="34.338434" lon="8.1024345"><ele>367.5</ele><time>2026-04-30T17:04:10.743Z</time></trkpt><trkpt lat="34.3383082" lon="8.1023877"><ele>365.0</ele><time>2026-04-30T17:04:11.758Z</time></trkpt><trkpt lat="34.3381837" lon="8.1023507"><ele>369.25</ele><time>2026-04-30T17:04:12.741Z</time></trkpt><trkpt lat="34.3380611" lon="8.1023213"><ele>373.5</ele><time>2026-04-30T17:04:13.724Z</time></trkpt><trkpt lat="34.3379447" lon="8.1023149"><ele>377.75</ele><time>2026-04-30T17:04:14.731Z</time></trkpt><trkpt lat="34.3378325" lon="8.102331"><ele>382.0</ele><time>2026-04-30T17:04:15.751Z</time></trkpt><trkpt lat="34.3377174" lon="8.1023545"><ele>382.0</ele><time>2026-04-30T17:04:16.758Z</time></trkpt><trkpt lat="34.3376159" lon="8.1023878"><ele>382.0</ele><time>2026-04-30T17:04:17.739Z</time></trkpt><trkpt lat="34.3375187" lon="8.1024338"><ele>382.0</ele><time>2026-04-30T17:04:18.755Z</time></trkpt><trkpt lat="34.3374276" lon="8.1024857"><ele>382.0</ele><time>2026-04-30T17:04:19.761Z</time></trkpt><trkpt lat="34.3373451" lon="8.1025384"><ele>382.0</ele><time>2026-04-30T17:04:20.769Z</time></trkpt><trkpt lat="34.3372764" lon="8.1026004"><ele>378.5</ele><time>2026-04-30T17:04:21.762Z</time></trkpt><trkpt lat="34.3372339" lon="8.1026736"><ele>375.0</ele><time>2026-04-30T17:04:22.763Z</time></trkpt><trkpt lat="34.3372106" lon="8.1027638"><ele>371.5</ele><time>2026-04-30T17:04:23.755Z</time></trkpt><trkpt lat="34.3372337" lon="8.1028658"><ele>368.0</ele><time>2026-04-30T17:04:24.753Z</time></trkpt><trkpt lat="34.3372785" lon="8.102957"><ele>364.5</ele><time>2026-04-30T17:04:25.79Z</time></trkpt><trkpt lat="34.3373327" lon="8.1030393"><ele>361.0</ele><time>2026-04-30T17:04:26.738Z</time></trkpt><trkpt lat="34.3374026" lon="8.1031134"><ele>361.0</ele><time>2026-04-30T17:04:27.745Z</time></trkpt><trkpt lat="34.3374816" lon="8.1031804"><ele>361.0</ele><time>2026-04-30T17:04:28.717Z</time></trkpt><trkpt lat="34.3375666" lon="8.1032381"><ele>361.0</ele><time>2026-04-30T17:04:29.758Z</time></trkpt><trkpt lat="34.3376553" lon="8.1032924"><ele>361.0</ele><time>2026-04-30T17:04:30.77Z</time></trkpt><trkpt lat="34.3377538" lon="8.1033424"><ele>361.0</ele><time>2026-04-30T17:04:31.773Z</time></trkpt><trkpt lat="34.3378527" lon="8.1033949"><ele>358.3333333333333</ele><time>2026-04-30T17:04:32.776Z</time></trkpt><trkpt lat="34.3379362" lon="8.1034621"><ele>355.66666666666663</ele><time>2026-04-30T17:04:33.759Z</time></trkpt><trkpt lat="34.3379934" lon="8.103533"><ele>353.0</ele><time>2026-04-30T17:04:34.767Z</time></trkpt><trkpt lat="34.3380286" lon="8.1036247"><ele>350.3333333333333</ele><time>2026-04-30T17:04:35.749Z</time></trkpt><trkpt lat="34.3380351" lon="8.1037172"><ele>347.6666666666667</ele><time>2026-04-30T17:04:36.773Z</time></trkpt><trkpt lat="34.3380058" lon="8.1038258"><ele>345.0</ele><time>2026-04-30T17:04:37.733Z</time></trkpt><trkpt lat="34.3379553" lon="8.1039186"><ele>345.0</ele><time>2026-04-30T17:04:38.757Z</time></trkpt><trkpt lat="34.337886" lon="8.1040232"><ele>345.0</ele><time>2026-04-30T17:04:39.741Z</time></trkpt><trkpt lat="34.3378113" lon="8.1041425"><ele>345.0</ele><time>2026-04-30T17:04:40.751Z</time></trkpt><trkpt lat="34.3377284" lon="8.1042605"><ele>345.0</ele><time>2026-04-30T17:04:41.769Z</time></trkpt><trkpt lat="34.3376302" lon="8.1043716"><ele>341.75</ele><time>2026-04-30T17:04:42.744Z</time></trkpt><trkpt lat="34.3375124" lon="8.1044624"><ele>338.5</ele><time>2026-04-30T17:04:43.708Z</time></trkpt><trkpt lat="34.3373889" lon="8.1045485"><ele>335.25</ele><time>2026-04-30T17:04:44.787Z</time></trkpt><trkpt lat="34.3372614" lon="8.1046449"><ele>332.0</ele><time>2026-04-30T17:04:45.759Z</time></trkpt><trkpt lat="34.3371266" lon="8.1047409"><ele>331.6666666666667</ele><time>2026-04-30T17:04:46.735Z</time></trkpt><trkpt lat="34.3369783" lon="8.1048407"><ele>331.3333333333333</ele><time>2026-04-30T17:04:47.739Z</time></trkpt><trkpt lat="34.3368294" lon="8.1049283"><ele>331.0</ele><time>2026-04-30T17:04:48.747Z</time></trkpt><trkpt lat="34.3366607" lon="8.1050114"><ele>325.66666666666663</ele><time>2026-04-30T17:04:49.761Z</time></trkpt><trkpt lat="34.3364865" lon="8.105082"><ele>320.3333333333333</ele><time>2026-04-30T17:04:50.754Z</time></trkpt><trkpt lat="34.3362989" lon="8.1051484"><ele>315.0</ele><time>2026-04-30T17:04:51.753Z</time></trkpt><trkpt lat="34.3361113" lon="8.1052147"><ele>315.0</ele><time>2026-04-30T17:04:52.756Z</time></trkpt><trkpt lat="34.3359132" lon="8.1052801"><ele>315.0</ele><time>2026-04-30T17:04:53.749Z</time></trkpt><trkpt lat="34.3357085" lon="8.1053517"><ele>315.0</ele><time>2026-04-30T17:04:54.738Z</time></trkpt><trkpt lat="34.3354999" lon="8.1054208"><ele>313.5</ele><time>2026-04-30T17:04:55.762Z</time></trkpt><trkpt lat="34.3352911" lon="8.1055017"><ele>312.0</ele><time>2026-04-30T17:04:56.714Z</time></trkpt><trkpt lat="34.3350734" lon="8.1055976"><ele>312.0</ele><time>2026-04-30T17:04:57.739Z</time></trkpt><trkpt lat="34.3348631" lon="8.1057045"><ele>312.0</ele><time>2026-04-30T17:04:58.785Z</time></trkpt><trkpt lat="34.3346588" lon="8.1058248"><ele>303.0</ele><time>2026-04-30T17:04:59.725Z</time></trkpt><trkpt lat="34.3344531" lon="8.1059397"><ele>294.0</ele><time>2026-04-30T17:05:00.729Z</time></trkpt><trkpt lat="34.3342481" lon="8.106037"><ele>285.0</ele><time>2026-04-30T17:05:01.771Z</time></trkpt><trkpt lat="34.3340463" lon="8.1061446"><ele>284.3333333333333</ele><time>2026-04-30T17:05:02.717Z</time></trkpt><trkpt lat="34.3338506" lon="8.1062701"><ele>283.66666666666663</ele><time>2026-04-30T17:05:03.76Z</time></trkpt><trkpt lat="34.3336659" lon="8.1063945"><ele>283.0</ele><time>2026-04-30T17:05:04.721Z</time></trkpt><trkpt lat="34.3334828" lon="8.1065167"><ele>275.3333333333333</ele><time>2026-04-30T17:05:05.737Z</time></trkpt><trkpt lat="34.3332997" lon="8.1066253"><ele>267.6666666666667</ele><time>2026-04-30T17:05:06.786Z</time></trkpt><trkpt lat="34.3331215" lon="8.1067331"><ele>260.0</ele><time>2026-04-30T17:05:07.768Z</time></trkpt><trkpt lat="34.3329432" lon="8.1068452"><ele>258.0</ele><time>2026-04-30T17:05:08.767Z</time></trkpt><trkpt lat="34.33278" lon="8.1069671"><ele>256.0</ele><time>2026-04-30T17:05:09.757Z</time></trkpt><trkpt lat="34.3326373" lon="8.1070897"><ele>254.0</ele><time>2026-04-30T17:05:10.738Z</time></trkpt><trkpt lat="34.3325131" lon="8.1072055"><ele>254.0</ele><time>2026-04-30T17:05:11.775Z</time></trkpt><trkpt lat="34.3324089" lon="8.1073222"><ele>254.0</ele><time>2026-04-30T17:05:12.742Z</time></trkpt><trkpt lat="34.3323111" lon="8.1074245"><ele>254.0</ele><time>2026-04-30T17:05:13.775Z</time></trkpt><trkpt lat="34.3322215" lon="8.1074867"><ele>254.0</ele><time>2026-04-30T17:05:14.765Z</time></trkpt><trkpt lat="34.3321273" lon="8.1075144"><ele>249.25</ele><time>2026-04-30T17:05:15.822Z</time></trkpt><trkpt lat="34.3319513" lon="8.1074694"><ele>244.5</ele><time>2026-04-30T17:05:17.776Z</time></trkpt><trkpt lat="34.3318731" lon="8.1073923"><ele>239.75</ele><time>2026-04-30T17:05:18.769Z</time></trkpt><trkpt lat="34.3318117" lon="8.1072999"><ele>235.0</ele><time>2026-04-30T17:05:19.759Z</time></trkpt><trkpt lat="34.3317643" lon="8.1071897"><ele>235.0</ele><time>2026-04-30T17:05:20.767Z</time></trkpt><trkpt lat="34.3317352" lon="8.1070787"><ele>235.0</ele><time>2026-04-30T17:05:21.765Z</time></trkpt><trkpt lat="34.3317589" lon="8.1069482"><ele>235.0</ele><time>2026-04-30T17:05:22.751Z</time></trkpt><trkpt lat="34.3318103" lon="8.1068172"><ele>235.0</ele><time>2026-04-30T17:05:23.758Z</time></trkpt><trkpt lat="34.3318624" lon="8.1067043"><ele>235.0</ele><time>2026-04-30T17:05:24.751Z</time></trkpt><trkpt lat="34.331909" lon="8.1066058"><ele>236.49999999999997</ele><time>2026-04-30T17:05:25.749Z</time></trkpt><trkpt lat="34.3319291" lon="8.1065118"><ele>238.0</ele><time>2026-04-30T17:05:26.749Z</time></trkpt><trkpt lat="34.3319218" lon="8.1064295"><ele>239.5</ele><time>2026-04-30T17:05:27.735Z</time></trkpt><trkpt lat="34.331878" lon="8.1063641"><ele>241.0</ele><time>2026-04-30T17:05:28.758Z</time></trkpt><trkpt lat="34.3318029" lon="8.106343"><ele>242.49999999999997</ele><time>2026-04-30T17:05:29.776Z</time></trkpt><trkpt lat="34.3317187" lon="8.1063415"><ele>244.0</ele><time>2026-04-30T17:05:30.792Z</time></trkpt><trkpt lat="34.3316367" lon="8.106357"><ele>243.99999999999997</ele><time>2026-04-30T17:05:31.786Z</time></trkpt><trkpt lat="34.3315549" lon="8.1063787"><ele>244.0</ele><time>2026-04-30T17:05:32.702Z</time></trkpt><trkpt lat="34.3314675" lon="8.1064061"><ele>244.0</ele><time>2026-04-30T17:05:33.707Z</time></trkpt><trkpt lat="34.3313843" lon="8.1064358"><ele>244.0</ele><time>2026-04-30T17:05:34.709Z</time></trkpt><trkpt lat="34.3313014" lon="8.1064723"><ele>243.99999999999997</ele><time>2026-04-30T17:05:35.702Z</time></trkpt><trkpt lat="34.3312069" lon="8.1065122"><ele>244.0</ele><time>2026-04-30T17:05:36.749Z</time></trkpt><trkpt lat="34.3311191" lon="8.1065538"><ele>240.49999999999997</ele><time>2026-04-30T17:05:37.751Z</time></trkpt><trkpt lat="34.3310439" lon="8.1066065"><ele>237.0</ele><time>2026-04-30T17:05:38.731Z</time></trkpt><trkpt lat="34.3309884" lon="8.1066742"><ele>233.5</ele><time>2026-04-30T17:05:39.721Z</time></trkpt><trkpt lat="34.3309625" lon="8.1067623"><ele>230.0</ele><time>2026-04-30T17:05:40.703Z</time></trkpt><trkpt lat="34.3309783" lon="8.1068606"><ele>226.49999999999997</ele><time>2026-04-30T17:05:41.745Z</time></trkpt><trkpt lat="34.3310255" lon="8.1069582"><ele>223.0</ele><time>2026-04-30T17:05:42.748Z</time></trkpt><trkpt lat="34.3310802" lon="8.1070467"><ele>223.0</ele><time>2026-04-30T17:05:43.73Z</time></trkpt><trkpt lat="34.3311324" lon="8.1071401"><ele>223.0</ele><time>2026-04-30T17:05:44.747Z</time></trkpt><trkpt lat="34.3311887" lon="8.1072511"><ele>223.0</ele><time>2026-04-30T17:05:45.756Z</time></trkpt><trkpt lat="34.3312465" lon="8.1073574"><ele>223.0</ele><time>2026-04-30T17:05:46.754Z</time></trkpt><trkpt lat="34.3313132" lon="8.1074631"><ele>223.0</ele><time>2026-04-30T17:05:47.719Z</time></trkpt><trkpt lat="34.3313749" lon="8.1075779"><ele>223.60000000000002</ele><time>2026-04-30T17:05:48.758Z</time></trkpt><trkpt lat="34.3314331" lon="8.1076921"><ele>224.20000000000002</ele><time>2026-04-30T17:05:49.743Z</time></trkpt><trkpt lat="34.3314919" lon="8.1077967"><ele>224.8</ele><time>2026-04-30T17:05:50.758Z</time></trkpt><trkpt lat="34.331555" lon="8.1079031"><ele>225.4</ele><time>2026-04-30T17:05:51.764Z</time></trkpt><trkpt lat="34.3316014" lon="8.108005"><ele>226.0</ele><time>2026-04-30T17:05:52.746Z</time></trkpt><trkpt lat="34.3316152" lon="8.1081125"><ele>225.99999999999997</ele><time>2026-04-30T17:05:53.764Z</time></trkpt><trkpt lat="34.3316058" lon="8.1082131"><ele>226.0</ele><time>2026-04-30T17:05:54.728Z</time></trkpt><trkpt lat="34.3315664" lon="8.1082932"><ele>226.0</ele><time>2026-04-30T17:05:55.747Z</time></trkpt><trkpt lat="34.3314944" lon="8.1083393"><ele>226.0</ele><time>2026-04-30T17:05:56.737Z</time></trkpt><trkpt lat="34.3314261" lon="8.1083668"><ele>225.99999999999997</ele><time>2026-04-30T17:05:57.761Z</time></trkpt><trkpt lat="34.3313625" lon="8.1083721"><ele>226.0</ele><time>2026-04-30T17:05:58.737Z</time></trkpt><trkpt lat="34.3312863" lon="8.1083633"><ele>219.5</ele><time>2026-04-30T17:05:59.774Z</time></trkpt><trkpt lat="34.3311947" lon="8.1083576"><ele>213.0</ele><time>2026-04-30T17:06:00.704Z</time></trkpt><trkpt lat="34.3310795" lon="8.1083434"><ele>206.5</ele><time>2026-04-30T17:06:01.712Z</time></trkpt><trkpt lat="34.3309582" lon="8.1083507"><ele>200.0</ele><time>2026-04-30T17:06:02.726Z</time></trkpt><trkpt lat="34.3308355" lon="8.1083707"><ele>200.0</ele><time>2026-04-30T17:06:03.703Z</time></trkpt><trkpt lat="34.3307104" lon="8.1084111"><ele>200.0</ele><time>2026-04-30T17:06:04.714Z</time></trkpt><trkpt lat="34.3305896" lon="8.1084687"><ele>200.0</ele><time>2026-04-30T17:06:05.71Z</time></trkpt><trkpt lat="34.330467" lon="8.1085352"><ele>200.0</ele><time>2026-04-30T17:06:06.7Z</time></trkpt><trkpt lat="34.3303469" lon="8.1085929"><ele>196.5</ele><time>2026-04-30T17:06:07.701Z</time></trkpt><trkpt lat="34.3302246" lon="8.1086269"><ele>193.0</ele><time>2026-04-30T17:06:08.702Z</time></trkpt><trkpt lat="34.3300909" lon="8.1086229"><ele>189.5</ele><time>2026-04-30T17:06:09.708Z</time></trkpt><trkpt lat="34.3299523" lon="8.1086017"><ele>186.0</ele><time>2026-04-30T17:06:10.717Z</time></trkpt><trkpt lat="34.3298127" lon="8.1086049"><ele>182.66666666666666</ele><time>2026-04-30T17:06:11.718Z</time></trkpt><trkpt lat="34.3296644" lon="8.1086458"><ele>179.33333333333331</ele><time>2026-04-30T17:06:12.7Z</time></trkpt><trkpt lat="34.3295182" lon="8.1087132"><ele>176.0</ele><time>2026-04-30T17:06:13.7Z</time></trkpt><trkpt lat="34.3293672" lon="8.1087794"><ele>176.0</ele><time>2026-04-30T17:06:14.71Z</time></trkpt><trkpt lat="34.3292173" lon="8.1088209"><ele>176.0</ele><time>2026-04-30T17:06:15.706Z</time></trkpt><trkpt lat="34.3290593" lon="8.1088583"><ele>176.0</ele><time>2026-04-30T17:06:16.704Z</time></trkpt><trkpt lat="34.3288997" lon="8.1089037"><ele>176.33333333333331</ele><time>2026-04-30T17:06:17.704Z</time></trkpt><trkpt lat="34.3287389" lon="8.108978"><ele>176.66666666666666</ele><time>2026-04-30T17:06:18.693Z</time></trkpt><trkpt lat="34.328578" lon="8.1090572"><ele>177.0</ele><time>2026-04-30T17:06:19.69Z</time></trkpt><trkpt lat="34.3284282" lon="8.1091268"><ele>177.0</ele><time>2026-04-30T17:06:20.698Z</time></trkpt><trkpt lat="34.3282876" lon="8.1091713"><ele>177.0</ele><time>2026-04-30T17:06:21.693Z</time></trkpt><trkpt lat="34.3281447" lon="8.1092093"><ele>177.0</ele><time>2026-04-30T17:06:22.702Z</time></trkpt><trkpt lat="34.3280059" lon="8.1092374"><ele>177.0</ele><time>2026-04-30T17:06:23.69Z</time></trkpt><trkpt lat="34.3278786" lon="8.1092679"><ele>176.0</ele><time>2026-04-30T17:06:24.705Z</time></trkpt><trkpt lat="34.3277612" lon="8.1093001"><ele>175.0</ele><time>2026-04-30T17:06:25.709Z</time></trkpt><trkpt lat="34.3276491" lon="8.1093356"><ele>174.0</ele><time>2026-04-30T17:06:26.702Z</time></trkpt><trkpt lat="34.32754" lon="8.1093938"><ele>173.0</ele><time>2026-04-30T17:06:27.699Z</time></trkpt><trkpt lat="34.3274436" lon="8.109483"><ele>173.0</ele><time>2026-04-30T17:06:28.709Z</time></trkpt><trkpt lat="34.3273548" lon="8.1095872"><ele>173.0</ele><time>2026-04-30T17:06:29.7Z</time></trkpt><trkpt lat="34.3272793" lon="8.1097035"><ele>173.0</ele><time>2026-04-30T17:06:30.705Z</time></trkpt><trkpt lat="34.3272216" lon="8.1098268"><ele>173.0</ele><time>2026-04-30T17:06:31.698Z</time></trkpt><trkpt lat="34.3271701" lon="8.1099295"><ele>169.0</ele><time>2026-04-30T17:06:32.711Z</time></trkpt><trkpt lat="34.3271121" lon="8.1100192"><ele>165.0</ele><time>2026-04-30T17:06:33.697Z</time></trkpt><trkpt lat="34.3270497" lon="8.1100938"><ele>161.0</ele><time>2026-04-30T17:06:34.709Z</time></trkpt><trkpt lat="34.3269662" lon="8.1101429"><ele>157.0</ele><time>2026-04-30T17:06:35.717Z</time></trkpt><trkpt lat="34.3268737" lon="8.1101496"><ele>153.0</ele><time>2026-04-30T17:06:36.699Z</time></trkpt><trkpt lat="34.3267772" lon="8.1101133"><ele>153.0</ele><time>2026-04-30T17:06:37.709Z</time></trkpt><trkpt lat="34.3266716" lon="8.1100542"><ele>153.0</ele><time>2026-04-30T17:06:38.698Z</time></trkpt><trkpt lat="34.326564" lon="8.1099993"><ele>153.0</ele><time>2026-04-30T17:06:39.703Z</time></trkpt><trkpt lat="34.3264415" lon="8.1099765"><ele>153.0</ele><time>2026-04-30T17:06:40.709Z</time></trkpt><trkpt lat="34.3263258" lon="8.1099749"><ele>148.25</ele><time>2026-04-30T17:06:41.705Z</time></trkpt><trkpt lat="34.3262128" lon="8.1100233"><ele>143.5</ele><time>2026-04-30T17:06:42.714Z</time></trkpt><trkpt lat="34.3261004" lon="8.1101003"><ele>138.75</ele><time>2026-04-30T17:06:43.712Z</time></trkpt><trkpt lat="34.3260145" lon="8.1102296"><ele>134.0</ele><time>2026-04-30T17:06:44.702Z</time></trkpt><trkpt lat="34.3259305" lon="8.110379"><ele>134.0</ele><time>2026-04-30T17:06:45.707Z</time></trkpt><trkpt lat="34.3258502" lon="8.1105298"><ele>134.0</ele><time>2026-04-30T17:06:46.699Z</time></trkpt><trkpt lat="34.3257608" lon="8.1106735"><ele>134.0</ele><time>2026-04-30T17:06:47.706Z</time></trkpt><trkpt lat="34.3256769" lon="8.1108176"><ele>134.0</ele><time>2026-04-30T17:06:48.72Z</time></trkpt><trkpt lat="34.3255965" lon="8.1109667"><ele>137.5</ele><time>2026-04-30T17:06:49.701Z</time></trkpt><trkpt lat="34.3255212" lon="8.1111119"><ele>141.0</ele><time>2026-04-30T17:06:50.709Z</time></trkpt><trkpt lat="34.3254499" lon="8.1112567"><ele>144.5</ele><time>2026-04-30T17:06:51.708Z</time></trkpt><trkpt lat="34.3253669" lon="8.1113897"><ele>148.0</ele><time>2026-04-30T17:06:52.71Z</time></trkpt><trkpt lat="34.3252791" lon="8.1115093"><ele>144.0</ele><time>2026-04-30T17:06:53.712Z</time></trkpt><trkpt lat="34.325183" lon="8.1116066"><ele>140.0</ele><time>2026-04-30T17:06:54.709Z</time></trkpt><trkpt lat="34.3250602" lon="8.1117038"><ele>136.0</ele><time>2026-04-30T17:06:55.713Z</time></trkpt><trkpt lat="34.3249253" lon="8.1117865"><ele>132.0</ele><time>2026-04-30T17:06:56.712Z</time></trkpt><trkpt lat="34.3247992" lon="8.1118753"><ele>134.0</ele><time>2026-04-30T17:06:57.71Z</time></trkpt><trkpt lat="34.3246901" lon="8.1119709"><ele>136.0</ele><time>2026-04-30T17:06:58.704Z</time></trkpt><trkpt lat="34.3246003" lon="8.1120783"><ele>138.0</ele><time>2026-04-30T17:06:59.707Z</time></trkpt><trkpt lat="34.3245177" lon="8.1121945"><ele>140.0</ele><time>2026-04-30T17:07:00.712Z</time></trkpt><trkpt lat="34.3244437" lon="8.1123031"><ele>140.0</ele><time>2026-04-30T17:07:01.706Z</time></trkpt><trkpt lat="34.3243695" lon="8.112396"><ele>140.0</ele><time>2026-04-30T17:07:02.704Z</time></trkpt><trkpt lat="34.3242896" lon="8.1124578"><ele>140.0</ele><time>2026-04-30T17:07:03.713Z</time></trkpt><trkpt lat="34.3242194" lon="8.1124733"><ele>140.0</ele><time>2026-04-30T17:07:04.713Z</time></trkpt><trkpt lat="34.3241454" lon="8.1124789"><ele>140.0</ele><time>2026-04-30T17:07:05.711Z</time></trkpt><trkpt lat="34.3240862" lon="8.112426"><ele>140.0</ele><time>2026-04-30T17:07:06.712Z</time></trkpt><trkpt lat="34.3240651" lon="8.1123339"><ele>140.0</ele><time>2026-04-30T17:07:07.712Z</time></trkpt><trkpt lat="34.3240383" lon="8.1122314"><ele>140.0</ele><time>2026-04-30T17:07:08.738Z</time></trkpt><trkpt lat="34.323991" lon="8.1121301"><ele>140.0</ele><time>2026-04-30T17:07:09.702Z</time></trkpt><trkpt lat="34.3239168" lon="8.1120581"><ele>140.0</ele><time>2026-04-30T17:07:10.711Z</time></trkpt><trkpt lat="34.3238225" lon="8.1120039"><ele>140.0</ele><time>2026-04-30T17:07:11.707Z</time></trkpt><trkpt lat="34.323728" lon="8.1119694"><ele>135.33333333333331</ele><time>2026-04-30T17:07:12.71Z</time></trkpt><trkpt lat="34.3236478" lon="8.1119432"><ele>130.66666666666666</ele><time>2026-04-30T17:07:13.695Z</time></trkpt><trkpt lat="34.3235839" lon="8.1119014"><ele>126.0</ele><time>2026-04-30T17:07:14.713Z</time></trkpt><trkpt lat="34.3235433" lon="8.1118404"><ele>121.33333333333334</ele><time>2026-04-30T17:07:15.713Z</time></trkpt><trkpt lat="34.3235044" lon="8.1117627"><ele>116.66666666666667</ele><time>2026-04-30T17:07:16.709Z</time></trkpt><trkpt lat="34.3234652" lon="8.1116778"><ele>112.0</ele><time>2026-04-30T17:07:17.717Z</time></trkpt><trkpt lat="34.3234331" lon="8.1115922"><ele>113.16666666666667</ele><time>2026-04-30T17:07:18.702Z</time></trkpt><trkpt lat="34.3234016" lon="8.1115139"><ele>114.33333333333334</ele><time>2026-04-30T17:07:19.709Z</time></trkpt><trkpt lat="34.323361" lon="8.1114409"><ele>115.5</ele><time>2026-04-30T17:07:20.713Z</time></trkpt><trkpt lat="34.3232989" lon="8.1113871"><ele>116.66666666666666</ele><time>2026-04-30T17:07:21.714Z</time></trkpt><trkpt lat="34.3232337" lon="8.1113383"><ele>117.83333333333333</ele><time>2026-04-30T17:07:22.695Z</time></trkpt><trkpt lat="34.3231473" lon="8.1113215"><ele>119.0</ele><time>2026-04-30T17:07:23.717Z</time></trkpt><trkpt lat="34.3230624" lon="8.1113221"><ele>115.2</ele><time>2026-04-30T17:07:24.714Z</time></trkpt><trkpt lat="34.3229767" lon="8.1113276"><ele>111.4</ele><time>2026-04-30T17:07:25.714Z</time></trkpt><trkpt lat="34.3228794" lon="8.1113305"><ele>107.6</ele><time>2026-04-30T17:07:26.704Z</time></trkpt><trkpt lat="34.3227809" lon="8.1113292"><ele>103.8</ele><time>2026-04-30T17:07:27.704Z</time></trkpt><trkpt lat="34.322685" lon="8.111327"><ele>100.0</ele><time>2026-04-30T17:07:28.71Z</time></trkpt><trkpt lat="34.3225889" lon="8.1113311"><ele>100.0</ele><time>2026-04-30T17:07:29.701Z</time></trkpt><trkpt lat="34.3224952" lon="8.1113325"><ele>100.0</ele><time>2026-04-30T17:07:30.711Z</time></trkpt><trkpt lat="34.3223998" lon="8.1113354"><ele>100.0</ele><time>2026-04-30T17:07:31.718Z</time></trkpt><trkpt lat="34.3223048" lon="8.1113322"><ele>100.0</ele><time>2026-04-30T17:07:32.712Z</time></trkpt><trkpt lat="34.3222073" lon="8.1113359"><ele>100.0</ele><time>2026-04-30T17:07:33.715Z</time></trkpt><trkpt lat="34.3221067" lon="8.1113399"><ele>98.2</ele><time>2026-04-30T17:07:34.712Z</time></trkpt><trkpt lat="34.322004" lon="8.1113396"><ele>96.4</ele><time>2026-04-30T17:07:35.705Z</time></trkpt><trkpt lat="34.3219064" lon="8.1113242"><ele>94.6</ele><time>2026-04-30T17:07:36.706Z</time></trkpt><trkpt lat="34.3218125" lon="8.111285"><ele>92.8</ele><time>2026-04-30T17:07:37.749Z</time></trkpt><trkpt lat="34.3217292" lon="8.111227"><ele>91.0</ele><time>2026-04-30T17:07:38.711Z</time></trkpt><trkpt lat="34.3216418" lon="8.1111478"><ele>91.0</ele><time>2026-04-30T17:07:39.706Z</time></trkpt><trkpt lat="34.3215581" lon="8.1110484"><ele>91.0</ele><time>2026-04-30T17:07:40.724Z</time></trkpt><trkpt lat="34.3214667" lon="8.1109374"><ele>91.0</ele><time>2026-04-30T17:07:41.707Z</time></trkpt><trkpt lat="34.3213626" lon="8.1108189"><ele>91.0</ele><time>2026-04-30T17:07:42.712Z</time></trkpt><trkpt lat="34.3212321" lon="8.1106715"><ele>85.5</ele><time>2026-04-30T17:07:43.718Z</time></trkpt><trkpt lat="34.3210584" lon="8.110466"><ele>80.0</ele><time>2026-04-30T17:07:44.716Z</time></trkpt><trkpt lat="34.3208764" lon="8.1102374"><ele>80.0</ele><time>2026-04-30T17:07:45.713Z</time></trkpt><trkpt lat="34.3206743" lon="8.1099669"><ele>80.0</ele><time>2026-04-30T17:07:46.699Z</time></trkpt><trkpt lat="34.3204625" lon="8.1096782"><ele>78.0</ele><time>2026-04-30T17:07:47.718Z</time></trkpt><trkpt lat="34.3202561" lon="8.1093994"><ele>76.0</ele><time>2026-04-30T17:07:48.713Z</time></trkpt><trkpt lat="34.3200772" lon="8.1091566"><ele>75.5</ele><time>2026-04-30T17:07:49.695Z</time></trkpt><trkpt lat="34.3199147" lon="8.1089102"><ele>75.0</ele><time>2026-04-30T17:07:50.722Z</time></trkpt><trkpt lat="34.3197704" lon="8.1086875"><ele>74.33333333333333</ele><time>2026-04-30T17:07:51.715Z</time></trkpt><trkpt lat="34.3196382" lon="8.1084864"><ele>73.66666666666666</ele><time>2026-04-30T17:07:52.725Z</time></trkpt><trkpt lat="34.3195143" lon="8.1082961"><ele>73.0</ele><time>2026-04-30T17:07:53.749Z</time></trkpt><trkpt lat="34.3194015" lon="8.1081165"><ele>73.0</ele><time>2026-04-30T17:07:54.715Z</time></trkpt><trkpt lat="34.3192915" lon="8.1079608"><ele>73.0</ele><time>2026-04-30T17:07:55.706Z</time></trkpt><trkpt lat="34.3191797" lon="8.1078168"><ele>73.0</ele><time>2026-04-30T17:07:56.704Z</time></trkpt><trkpt lat="34.3190732" lon="8.107677"><ele>73.0</ele><time>2026-04-30T17:07:57.721Z</time></trkpt><trkpt lat="34.3189639" lon="8.1075386"><ele>73.0</ele><time>2026-04-30T17:07:58.715Z</time></trkpt><trkpt lat="34.3188589" lon="8.1074048"><ele>73.0</ele><time>2026-04-30T17:07:59.716Z</time></trkpt><trkpt lat="34.3187515" lon="8.1072743"><ele>72.0</ele><time>2026-04-30T17:08:00.712Z</time></trkpt><trkpt lat="34.318648" lon="8.1071454"><ele>71.0</ele><time>2026-04-30T17:08:01.718Z</time></trkpt><trkpt lat="34.318537" lon="8.107025"><ele>70.0</ele><time>2026-04-30T17:08:02.709Z</time></trkpt><trkpt lat="34.3184278" lon="8.1069081"><ele>69.0</ele><time>2026-04-30T17:08:03.71Z</time></trkpt><trkpt lat="34.3183186" lon="8.1067886"><ele>69.0</ele><time>2026-04-30T17:08:04.761Z</time></trkpt><trkpt lat="34.3182119" lon="8.106678"><ele>69.0</ele><time>2026-04-30T17:08:05.761Z</time></trkpt><trkpt lat="34.3181066" lon="8.1065695"><ele>69.0</ele><time>2026-04-30T17:08:06.714Z</time></trkpt><trkpt lat="34.3180007" lon="8.10647"><ele>69.0</ele><time>2026-04-30T17:08:07.718Z</time></trkpt><trkpt lat="34.3178931" lon="8.1063643"><ele>68.5</ele><time>2026-04-30T17:08:08.717Z</time></trkpt><trkpt lat="34.3177845" lon="8.1062609"><ele>68.0</ele><time>2026-04-30T17:08:09.738Z</time></trkpt><trkpt lat="34.3176801" lon="8.1061522"><ele>67.5</ele><time>2026-04-30T17:08:10.718Z</time></trkpt><trkpt lat="34.3175804" lon="8.1060378"><ele>67.0</ele><time>2026-04-30T17:08:11.711Z</time></trkpt><trkpt lat="34.3174776" lon="8.1059265"><ele>67.0</ele><time>2026-04-30T17:08:12.759Z</time></trkpt><trkpt lat="34.3173741" lon="8.105814"><ele>67.0</ele><time>2026-04-30T17:08:13.736Z</time></trkpt><trkpt lat="34.3172669" lon="8.1057093"><ele>67.0</ele><time>2026-04-30T17:08:14.739Z</time></trkpt><trkpt lat="34.3171613" lon="8.1056023"><ele>67.0</ele><time>2026-04-30T17:08:15.753Z</time></trkpt><trkpt lat="34.3170548" lon="8.1054944"><ele>67.0</ele><time>2026-04-30T17:08:16.765Z</time></trkpt><trkpt lat="34.316944" lon="8.1053895"><ele>67.0</ele><time>2026-04-30T17:08:17.767Z</time></trkpt><trkpt lat="34.316835" lon="8.105288"><ele>67.0</ele><time>2026-04-30T17:08:18.771Z</time></trkpt><trkpt lat="34.3167273" lon="8.1051968"><ele>67.0</ele><time>2026-04-30T17:08:19.77Z</time></trkpt><trkpt lat="34.316618" lon="8.1051114"><ele>67.0</ele><time>2026-04-30T17:08:20.75Z</time></trkpt><trkpt lat="34.3165115" lon="8.1050286"><ele>67.0</ele><time>2026-04-30T17:08:21.758Z</time></trkpt><trkpt lat="34.3164079" lon="8.104948"><ele>67.0</ele><time>2026-04-30T17:08:22.751Z</time></trkpt><trkpt lat="34.3163147" lon="8.1048793"><ele>67.0</ele><time>2026-04-30T17:08:23.756Z</time></trkpt><trkpt lat="34.3162239" lon="8.1048259"><ele>66.0</ele><time>2026-04-30T17:08:24.745Z</time></trkpt><trkpt lat="34.3161371" lon="8.1047944"><ele>65.0</ele><time>2026-04-30T17:08:25.776Z</time></trkpt><trkpt lat="34.3160484" lon="8.1047681"><ele>64.0</ele><time>2026-04-30T17:08:26.721Z</time></trkpt><trkpt lat="34.3159592" lon="8.1047607"><ele>63.0</ele><time>2026-04-30T17:08:27.756Z</time></trkpt><trkpt lat="34.3158715" lon="8.1047601"><ele>62.0</ele><time>2026-04-30T17:08:28.757Z</time></trkpt><trkpt lat="34.3157733" lon="8.104784"><ele>62.0</ele><time>2026-04-30T17:08:29.738Z</time></trkpt><trkpt lat="34.3156773" lon="8.1048186"><ele>62.0</ele><time>2026-04-30T17:08:30.758Z</time></trkpt><trkpt lat="34.3155822" lon="8.1048591"><ele>62.0</ele><time>2026-04-30T17:08:31.767Z</time></trkpt><trkpt lat="34.3154903" lon="8.1049031"><ele>62.0</ele><time>2026-04-30T17:08:32.763Z</time></trkpt><trkpt lat="34.3153983" lon="8.1049597"><ele>62.0</ele><time>2026-04-30T17:08:33.773Z</time></trkpt><trkpt lat="34.3153169" lon="8.1050149"><ele>62.0</ele><time>2026-04-30T17:08:34.732Z</time></trkpt><trkpt lat="34.3152366" lon="8.1050668"><ele>62.0</ele><time>2026-04-30T17:08:35.723Z</time></trkpt><trkpt lat="34.3151545" lon="8.1051317"><ele>62.0</ele><time>2026-04-30T17:08:36.762Z</time></trkpt><trkpt lat="34.3150634" lon="8.1051794"><ele>62.0</ele><time>2026-04-30T17:08:37.765Z</time></trkpt><trkpt lat="34.3149557" lon="8.1052246"><ele>62.0</ele><time>2026-04-30T17:08:38.76Z</time></trkpt><trkpt lat="34.3148554" lon="8.1052576"><ele>62.0</ele><time>2026-04-30T17:08:39.731Z</time></trkpt><trkpt lat="34.3147632" lon="8.1052941"><ele>62.0</ele><time>2026-04-30T17:08:40.748Z</time></trkpt><trkpt lat="34.3146739" lon="8.1053303"><ele>62.0</ele><time>2026-04-30T17:08:41.754Z</time></trkpt><trkpt lat="34.3145881" lon="8.1053711"><ele>62.0</ele><time>2026-04-30T17:08:42.75Z</time></trkpt><trkpt lat="34.3145021" lon="8.1054193"><ele>62.0</ele><time>2026-04-30T17:08:43.753Z</time></trkpt><trkpt lat="34.3144109" lon="8.1054607"><ele>61.8</ele><time>2026-04-30T17:08:44.757Z</time></trkpt><trkpt lat="34.3143206" lon="8.1054975"><ele>61.6</ele><time>2026-04-30T17:08:45.772Z</time></trkpt><trkpt lat="34.3142296" lon="8.1055294"><ele>61.39999999999999</ele><time>2026-04-30T17:08:46.754Z</time></trkpt><trkpt lat="34.314138" lon="8.1055609"><ele>61.199999999999996</ele><time>2026-04-30T17:08:47.758Z</time></trkpt><trkpt lat="34.3140509" lon="8.1055994"><ele>61.0</ele><time>2026-04-30T17:08:48.772Z</time></trkpt><trkpt lat="34.3139608" lon="8.1056414"><ele>60.8</ele><time>2026-04-30T17:08:49.759Z</time></trkpt><trkpt lat="34.3138666" lon="8.1056847"><ele>60.599999999999994</ele><time>2026-04-30T17:08:50.757Z</time></trkpt><trkpt lat="34.3137726" lon="8.1057297"><ele>60.4</ele><time>2026-04-30T17:08:51.758Z</time></trkpt><trkpt lat="34.3136697" lon="8.1057842"><ele>60.2</ele><time>2026-04-30T17:08:52.755Z</time></trkpt><trkpt lat="34.3135609" lon="8.1058399"><ele>60.0</ele><time>2026-04-30T17:08:53.766Z</time></trkpt><trkpt lat="34.3134449" lon="8.105884"><ele>60.0</ele><time>2026-04-30T17:08:54.761Z</time></trkpt><trkpt lat="34.3133274" lon="8.1059315"><ele>60.0</ele><time>2026-04-30T17:08:55.75Z</time></trkpt><trkpt lat="34.3132104" lon="8.1059767"><ele>60.0</ele><time>2026-04-30T17:08:56.775Z</time></trkpt><trkpt lat="34.3130954" lon="8.1060265"><ele>60.0</ele><time>2026-04-30T17:08:57.757Z</time></trkpt><trkpt lat="34.3129809" lon="8.1060808"><ele>59.5</ele><time>2026-04-30T17:08:58.756Z</time></trkpt><trkpt lat="34.3128668" lon="8.1061353"><ele>59.0</ele><time>2026-04-30T17:08:59.76Z</time></trkpt><trkpt lat="34.3127567" lon="8.1061914"><ele>58.5</ele><time>2026-04-30T17:09:00.754Z</time></trkpt><trkpt lat="34.3126381" lon="8.1062497"><ele>58.0</ele><time>2026-04-30T17:09:01.764Z</time></trkpt><trkpt lat="34.3125164" lon="8.1063148"><ele>58.0</ele><time>2026-04-30T17:09:02.764Z</time></trkpt><trkpt lat="34.3123902" lon="8.1063792"><ele>58.0</ele><time>2026-04-30T17:09:03.756Z</time></trkpt><trkpt lat="34.3122567" lon="8.1064453"><ele>58.0</ele><time>2026-04-30T17:09:04.764Z</time></trkpt><trkpt lat="34.3121228" lon="8.1065142"><ele>58.0</ele><time>2026-04-30T17:09:05.759Z</time></trkpt><trkpt lat="34.311987" lon="8.1065821"><ele>57.33333333333333</ele><time>2026-04-30T17:09:06.753Z</time></trkpt><trkpt lat="34.3118473" lon="8.1066515"><ele>56.66666666666667</ele><time>2026-04-30T17:09:07.735Z</time></trkpt><trkpt lat="34.3117041" lon="8.1067246"><ele>56.0</ele><time>2026-04-30T17:09:08.751Z</time></trkpt><trkpt lat="34.311563" lon="8.1067959"><ele>56.0</ele><time>2026-04-30T17:09:09.735Z</time></trkpt><trkpt lat="34.3114177" lon="8.1068693"><ele>56.0</ele><time>2026-04-30T17:09:10.743Z</time></trkpt><trkpt lat="34.3112685" lon="8.1069376"><ele>56.0</ele><time>2026-04-30T17:09:11.764Z</time></trkpt><trkpt lat="34.3111176" lon="8.1070086"><ele>55.333333333333336</ele><time>2026-04-30T17:09:12.759Z</time></trkpt><trkpt lat="34.3109681" lon="8.1070789"><ele>54.66666666666667</ele><time>2026-04-30T17:09:13.739Z</time></trkpt><trkpt lat="34.3108168" lon="8.1071477"><ele>54.0</ele><time>2026-04-30T17:09:14.752Z</time></trkpt><trkpt lat="34.3106643" lon="8.1072198"><ele>54.33333333333333</ele><time>2026-04-30T17:09:15.738Z</time></trkpt><trkpt lat="34.3105132" lon="8.1072896"><ele>54.666666666666664</ele><time>2026-04-30T17:09:16.764Z</time></trkpt><trkpt lat="34.3103649" lon="8.1073591"><ele>55.0</ele><time>2026-04-30T17:09:17.713Z</time></trkpt><trkpt lat="34.3102184" lon="8.10743"><ele>55.33333333333333</ele><time>2026-04-30T17:09:18.751Z</time></trkpt><trkpt lat="34.3100734" lon="8.1075005"><ele>55.66666666666667</ele><time>2026-04-30T17:09:19.769Z</time></trkpt><trkpt lat="34.3099301" lon="8.1075707"><ele>56.0</ele><time>2026-04-30T17:09:20.76Z</time></trkpt><trkpt lat="34.3097947" lon="8.107635"><ele>55.5</ele><time>2026-04-30T17:09:21.765Z</time></trkpt><trkpt lat="34.3096667" lon="8.1077009"><ele>55.0</ele><time>2026-04-30T17:09:22.781Z</time></trkpt><trkpt lat="34.3095434" lon="8.1077691"><ele>54.5</ele><time>2026-04-30T17:09:23.739Z</time></trkpt><trkpt lat="34.3094238" lon="8.1078277"><ele>54.0</ele><time>2026-04-30T17:09:24.76Z</time></trkpt><trkpt lat="34.3093122" lon="8.1078822"><ele>54.0</ele><time>2026-04-30T17:09:25.714Z</time></trkpt><trkpt lat="34.309205" lon="8.1079374"><ele>54.0</ele><time>2026-04-30T17:09:26.742Z</time></trkpt><trkpt lat="34.3091237" lon="8.1079744"><ele>54.0</ele><time>2026-04-30T17:09:27.755Z</time></trkpt><trkpt lat="34.3090559" lon="8.1080128"><ele>54.0</ele><time>2026-04-30T17:09:28.766Z</time></trkpt><trkpt lat="34.3089988" lon="8.108047"><ele>54.0</ele><time>2026-04-30T17:09:29.76Z</time></trkpt><trkpt lat="34.3089286" lon="8.1081051"><ele>54.0</ele><time>2026-04-30T17:09:31.772Z</time></trkpt><trkpt lat="34.3088815" lon="8.1081707"><ele>53.800000000000004</ele><time>2026-04-30T17:09:33.759Z</time></trkpt><trkpt lat="34.3088575" lon="8.1082666"><ele>53.60000000000001</ele><time>2026-04-30T17:09:35.746Z</time></trkpt><trkpt lat="34.3088652" lon="8.1084243"><ele>53.4</ele><time>2026-04-30T17:09:37.765Z</time></trkpt><trkpt lat="34.3088754" lon="8.1085106"><ele>53.2</ele><time>2026-04-30T17:09:38.726Z</time></trkpt><trkpt lat="34.3088824" lon="8.1086158"><ele>53.0</ele><time>2026-04-30T17:09:39.751Z</time></trkpt><trkpt lat="34.3088861" lon="8.1087481"><ele>53.0</ele><time>2026-04-30T17:09:40.754Z</time></trkpt><trkpt lat="34.3088931" lon="8.1088991"><ele>53.0</ele><time>2026-04-30T17:09:41.748Z</time></trkpt><trkpt lat="34.3089044" lon="8.1090612"><ele>53.0</ele><time>2026-04-30T17:09:42.73Z</time></trkpt><trkpt lat="34.3089184" lon="8.1092256"><ele>53.0</ele><time>2026-04-30T17:09:43.748Z</time></trkpt><trkpt lat="34.3089298" lon="8.1093904"><ele>52.75</ele><time>2026-04-30T17:09:44.75Z</time></trkpt><trkpt lat="34.3089419" lon="8.1095599"><ele>52.5</ele><time>2026-04-30T17:09:45.767Z</time></trkpt><trkpt lat="34.3089463" lon="8.1097306"><ele>52.25</ele><time>2026-04-30T17:09:46.754Z</time></trkpt><trkpt lat="34.3089585" lon="8.1098968"><ele>52.0</ele><time>2026-04-30T17:09:47.718Z</time></trkpt><trkpt lat="34.3089807" lon="8.1100664"><ele>51.75</ele><time>2026-04-30T17:09:48.764Z</time></trkpt><trkpt lat="34.309004" lon="8.1102233"><ele>51.5</ele><time>2026-04-30T17:09:49.764Z</time></trkpt><trkpt lat="34.3090332" lon="8.1103858"><ele>51.25</ele><time>2026-04-30T17:09:50.765Z</time></trkpt><trkpt lat="34.3090698" lon="8.1105479"><ele>51.0</ele><time>2026-04-30T17:09:51.754Z</time></trkpt><trkpt lat="34.3091072" lon="8.1107106"><ele>50.75</ele><time>2026-04-30T17:09:52.761Z</time></trkpt><trkpt lat="34.3091418" lon="8.1108706"><ele>50.5</ele><time>2026-04-30T17:09:53.753Z</time></trkpt><trkpt lat="34.3091799" lon="8.11103"><ele>50.25</ele><time>2026-04-30T17:09:54.763Z</time></trkpt><trkpt lat="34.3092188" lon="8.1111835"><ele>50.0</ele><time>2026-04-30T17:09:55.767Z</time></trkpt><trkpt lat="34.3092533" lon="8.1113316"><ele>50.0</ele><time>2026-04-30T17:09:56.748Z</time></trkpt><trkpt lat="34.3092796" lon="8.1114802"><ele>50.0</ele><time>2026-04-30T17:09:57.742Z</time></trkpt><trkpt lat="34.3093078" lon="8.1116346"><ele>50.0</ele><time>2026-04-30T17:09:58.755Z</time></trkpt><trkpt lat="34.3093337" lon="8.1117939"><ele>50.0</ele><time>2026-04-30T17:09:59.732Z</time></trkpt><trkpt lat="34.3093549" lon="8.1119521"><ele>50.25</ele><time>2026-04-30T17:10:00.745Z</time></trkpt><trkpt lat="34.3093804" lon="8.1121128"><ele>50.5</ele><time>2026-04-30T17:10:01.753Z</time></trkpt><trkpt lat="34.3094063" lon="8.1122717"><ele>50.75</ele><time>2026-04-30T17:10:02.739Z</time></trkpt><trkpt lat="34.3094226" lon="8.1124314"><ele>51.0</ele><time>2026-04-30T17:10:03.757Z</time></trkpt><trkpt lat="34.309441" lon="8.1125883"><ele>51.25</ele><time>2026-04-30T17:10:04.733Z</time></trkpt><trkpt lat="34.3094574" lon="8.112751"><ele>51.5</ele><time>2026-04-30T17:10:05.741Z</time></trkpt><trkpt lat="34.3094743" lon="8.1129178"><ele>51.75</ele><time>2026-04-30T17:10:06.727Z</time></trkpt><trkpt lat="34.3094967" lon="8.1130794"><ele>52.0</ele><time>2026-04-30T17:10:07.753Z</time></trkpt><trkpt lat="34.3095146" lon="8.1132406"><ele>52.5</ele><time>2026-04-30T17:10:08.757Z</time></trkpt><trkpt lat="34.3095274" lon="8.113405"><ele>53.0</ele><time>2026-04-30T17:10:09.754Z</time></trkpt><trkpt lat="34.3095383" lon="8.1135709"><ele>53.5</ele><time>2026-04-30T17:10:10.732Z</time></trkpt><trkpt lat="34.309551" lon="8.1137352"><ele>54.0</ele><time>2026-04-30T17:10:11.738Z</time></trkpt><trkpt lat="34.3095659" lon="8.1139061"><ele>53.5</ele><time>2026-04-30T17:10:12.766Z</time></trkpt><trkpt lat="34.3095818" lon="8.1140745"><ele>53.0</ele><time>2026-04-30T17:10:13.757Z</time></trkpt><trkpt lat="34.3095978" lon="8.1142429"><ele>52.5</ele><time>2026-04-30T17:10:14.753Z</time></trkpt><trkpt lat="34.3096145" lon="8.1144119"><ele>52.0</ele><time>2026-04-30T17:10:15.758Z</time></trkpt><trkpt lat="34.3096316" lon="8.1145775"><ele>52.0</ele><time>2026-04-30T17:10:16.728Z</time></trkpt><trkpt lat="34.3096481" lon="8.1147471"><ele>52.0</ele><time>2026-04-30T17:10:17.747Z</time></trkpt><trkpt lat="34.3096623" lon="8.1149181"><ele>52.0</ele><time>2026-04-30T17:10:18.753Z</time></trkpt><trkpt lat="34.30968" lon="8.1150906"><ele>52.0</ele><time>2026-04-30T17:10:19.721Z</time></trkpt><trkpt lat="34.3097065" lon="8.1152598"><ele>52.0</ele><time>2026-04-30T17:10:20.733Z</time></trkpt><trkpt lat="34.3097338" lon="8.1154324"><ele>52.0</ele><time>2026-04-30T17:10:21.772Z</time></trkpt><trkpt lat="34.3097515" lon="8.1156022"><ele>52.0</ele><time>2026-04-30T17:10:22.774Z</time></trkpt><trkpt lat="34.3097748" lon="8.1157718"><ele>52.0</ele><time>2026-04-30T17:10:23.756Z</time></trkpt><trkpt lat="34.3098082" lon="8.1159405"><ele>52.25</ele><time>2026-04-30T17:10:24.753Z</time></trkpt><trkpt lat="34.3098458" lon="8.1161133"><ele>52.5</ele><time>2026-04-30T17:10:25.709Z</time></trkpt><trkpt lat="34.309887" lon="8.1162795"><ele>52.75</ele><time>2026-04-30T17:10:26.764Z</time></trkpt><trkpt lat="34.3099342" lon="8.1164421"><ele>53.0</ele><time>2026-04-30T17:10:27.722Z</time></trkpt><trkpt lat="34.3099879" lon="8.1166056"><ele>53.25</ele><time>2026-04-30T17:10:28.766Z</time></trkpt><trkpt lat="34.3100459" lon="8.1167737"><ele>53.5</ele><time>2026-04-30T17:10:29.734Z</time></trkpt><trkpt lat="34.3101132" lon="8.1169338"><ele>53.75</ele><time>2026-04-30T17:10:30.771Z</time></trkpt><trkpt lat="34.3101745" lon="8.1171004"><ele>54.0</ele><time>2026-04-30T17:10:31.77Z</time></trkpt><trkpt lat="34.3102333" lon="8.1172676"><ele>53.66666666666667</ele><time>2026-04-30T17:10:32.736Z</time></trkpt><trkpt lat="34.3102959" lon="8.1174334"><ele>53.333333333333336</ele><time>2026-04-30T17:10:33.753Z</time></trkpt><trkpt lat="34.3103617" lon="8.1175954"><ele>53.0</ele><time>2026-04-30T17:10:34.764Z</time></trkpt><trkpt lat="34.310424" lon="8.1177604"><ele>53.0</ele><time>2026-04-30T17:10:35.749Z</time></trkpt><trkpt lat="34.3104789" lon="8.1179228"><ele>53.0</ele><time>2026-04-30T17:10:36.762Z</time></trkpt><trkpt lat="34.3105316" lon="8.1180855"><ele>53.0</ele><time>2026-04-30T17:10:37.753Z</time></trkpt><trkpt lat="34.3105736" lon="8.118244"><ele>53.0</ele><time>2026-04-30T17:10:38.756Z</time></trkpt><trkpt lat="34.3106096" lon="8.1183951"><ele>53.0</ele><time>2026-04-30T17:10:39.731Z</time></trkpt><trkpt lat="34.3106377" lon="8.118548"><ele>53.0</ele><time>2026-04-30T17:10:40.738Z</time></trkpt><trkpt lat="34.310663" lon="8.1187133"><ele>53.0</ele><time>2026-04-30T17:10:41.766Z</time></trkpt><trkpt lat="34.3106888" lon="8.1188808"><ele>53.0</ele><time>2026-04-30T17:10:42.743Z</time></trkpt><trkpt lat="34.3107123" lon="8.1190525"><ele>52.5</ele><time>2026-04-30T17:10:43.765Z</time></trkpt><trkpt lat="34.3107307" lon="8.1192251"><ele>52.0</ele><time>2026-04-30T17:10:44.719Z</time></trkpt><trkpt lat="34.3107389" lon="8.1194022"><ele>51.5</ele><time>2026-04-30T17:10:45.717Z</time></trkpt><trkpt lat="34.3107422" lon="8.1195859"><ele>51.0</ele><time>2026-04-30T17:10:46.75Z</time></trkpt><trkpt lat="34.3107358" lon="8.1197638"><ele>51.5</ele><time>2026-04-30T17:10:47.761Z</time></trkpt><trkpt lat="34.3107312" lon="8.1199441"><ele>52.0</ele><time>2026-04-30T17:10:48.754Z</time></trkpt><trkpt lat="34.3107215" lon="8.1201256"><ele>52.5</ele><time>2026-04-30T17:10:49.744Z</time></trkpt><trkpt lat="34.3107073" lon="8.1202955"><ele>53.0</ele><time>2026-04-30T17:10:50.732Z</time></trkpt><trkpt lat="34.3106897" lon="8.1204621"><ele>53.0</ele><time>2026-04-30T17:10:51.765Z</time></trkpt><trkpt lat="34.3106579" lon="8.1206196"><ele>53.0</ele><time>2026-04-30T17:10:52.752Z</time></trkpt><trkpt lat="34.3106157" lon="8.1207782"><ele>53.0</ele><time>2026-04-30T17:10:53.759Z</time></trkpt><trkpt lat="34.3105775" lon="8.1209469"><ele>53.0</ele><time>2026-04-30T17:10:54.762Z</time></trkpt><trkpt lat="34.3105429" lon="8.1211144"><ele>53.333333333333336</ele><time>2026-04-30T17:10:55.762Z</time></trkpt><trkpt lat="34.3105051" lon="8.1212858"><ele>53.66666666666667</ele><time>2026-04-30T17:10:56.764Z</time></trkpt><trkpt lat="34.3104629" lon="8.1214629"><ele>54.0</ele><time>2026-04-30T17:10:57.766Z</time></trkpt><trkpt lat="34.3104178" lon="8.1216487"><ele>54.0</ele><time>2026-04-30T17:10:58.764Z</time></trkpt><trkpt lat="34.3103715" lon="8.1218311"><ele>54.0</ele><time>2026-04-30T17:10:59.768Z</time></trkpt><trkpt lat="34.3103264" lon="8.1220188"><ele>54.0</ele><time>2026-04-30T17:11:00.776Z</time></trkpt><trkpt lat="34.3102926" lon="8.122208"><ele>54.66666666666667</ele><time>2026-04-30T17:11:01.752Z</time></trkpt><trkpt lat="34.3102609" lon="8.1224013"><ele>55.333333333333336</ele><time>2026-04-30T17:11:02.76Z</time></trkpt><trkpt lat="34.3102342" lon="8.1226002"><ele>56.0</ele><time>2026-04-30T17:11:03.759Z</time></trkpt><trkpt lat="34.3102041" lon="8.1227968"><ele>56.0</ele><time>2026-04-30T17:11:04.761Z</time></trkpt><trkpt lat="34.3101728" lon="8.1229977"><ele>56.0</ele><time>2026-04-30T17:11:05.749Z</time></trkpt><trkpt lat="34.3101485" lon="8.1231952"><ele>56.0</ele><time>2026-04-30T17:11:06.754Z</time></trkpt><trkpt lat="34.3101227" lon="8.1233914"><ele>56.333333333333336</ele><time>2026-04-30T17:11:07.736Z</time></trkpt><trkpt lat="34.310095" lon="8.1235887"><ele>56.66666666666667</ele><time>2026-04-30T17:11:08.749Z</time></trkpt><trkpt lat="34.3100678" lon="8.123786"><ele>57.0</ele><time>2026-04-30T17:11:09.758Z</time></trkpt><trkpt lat="34.3100384" lon="8.123979"><ele>56.33333333333333</ele><time>2026-04-30T17:11:10.768Z</time></trkpt><trkpt lat="34.3100102" lon="8.124175"><ele>55.666666666666664</ele><time>2026-04-30T17:11:11.765Z</time></trkpt><trkpt lat="34.3099799" lon="8.1243706"><ele>55.0</ele><time>2026-04-30T17:11:12.757Z</time></trkpt><trkpt lat="34.3099509" lon="8.1245633"><ele>55.0</ele><time>2026-04-30T17:11:13.743Z</time></trkpt><trkpt lat="34.3099211" lon="8.1247592"><ele>55.0</ele><time>2026-04-30T17:11:14.743Z</time></trkpt><trkpt lat="34.3098921" lon="8.1249534"><ele>55.0</ele><time>2026-04-30T17:11:15.753Z</time></trkpt><trkpt lat="34.3098629" lon="8.1251472"><ele>55.0</ele><time>2026-04-30T17:11:16.762Z</time></trkpt><trkpt lat="34.3098357" lon="8.1253443"><ele>55.0</ele><time>2026-04-30T17:11:17.755Z</time></trkpt><trkpt lat="34.3098144" lon="8.1255351"><ele>55.0</ele><time>2026-04-30T17:11:18.753Z</time></trkpt><trkpt lat="34.3097963" lon="8.1257262"><ele>55.0</ele><time>2026-04-30T17:11:19.771Z</time></trkpt><trkpt lat="34.3097739" lon="8.1259194"><ele>55.0</ele><time>2026-04-30T17:11:20.739Z</time></trkpt><trkpt lat="34.3097543" lon="8.1261104"><ele>55.0</ele><time>2026-04-30T17:11:21.759Z</time></trkpt><trkpt lat="34.3097373" lon="8.1262986"><ele>55.0</ele><time>2026-04-30T17:11:22.766Z</time></trkpt><trkpt lat="34.3097202" lon="8.126475"><ele>55.0</ele><time>2026-04-30T17:11:23.745Z</time></trkpt><trkpt lat="34.3097071" lon="8.1266413"><ele>55.0</ele><time>2026-04-30T17:11:24.758Z</time></trkpt><trkpt lat="34.3096944" lon="8.1268212"><ele>55.0</ele><time>2026-04-30T17:11:25.765Z</time></trkpt><trkpt lat="34.3096781" lon="8.1269938"><ele>55.0</ele><time>2026-04-30T17:11:26.761Z</time></trkpt><trkpt lat="34.3096614" lon="8.1271692"><ele>55.0</ele><time>2026-04-30T17:11:27.714Z</time></trkpt><trkpt lat="34.3096422" lon="8.1273475"><ele>55.0</ele><time>2026-04-30T17:11:28.725Z</time></trkpt><trkpt lat="34.3096293" lon="8.1275205"><ele>55.0</ele><time>2026-04-30T17:11:29.758Z</time></trkpt><trkpt lat="34.3096127" lon="8.1276971"><ele>55.0</ele><time>2026-04-30T17:11:30.726Z</time></trkpt><trkpt lat="34.3095977" lon="8.127877"><ele>55.0</ele><time>2026-04-30T17:11:31.752Z</time></trkpt><trkpt lat="34.3095837" lon="8.1280544"><ele>55.0</ele><time>2026-04-30T17:11:32.757Z</time></trkpt><trkpt lat="34.3095702" lon="8.1282328"><ele>55.0</ele><time>2026-04-30T17:11:33.752Z</time></trkpt><trkpt lat="34.3095601" lon="8.1284084"><ele>55.0</ele><time>2026-04-30T17:11:34.751Z</time></trkpt><trkpt lat="34.3095543" lon="8.1285895"><ele>55.0</ele><time>2026-04-30T17:11:35.763Z</time></trkpt><trkpt lat="34.3095469" lon="8.1287708"><ele>55.0</ele><time>2026-04-30T17:11:36.771Z</time></trkpt><trkpt lat="34.3095435" lon="8.1289561"><ele>55.666666666666664</ele><time>2026-04-30T17:11:37.775Z</time></trkpt><trkpt lat="34.3095423" lon="8.1291437"><ele>56.33333333333333</ele><time>2026-04-30T17:11:38.767Z</time></trkpt><trkpt lat="34.3095344" lon="8.1293339"><ele>57.0</ele><time>2026-04-30T17:11:39.762Z</time></trkpt><trkpt lat="34.3095299" lon="8.1295227"><ele>57.0</ele><time>2026-04-30T17:11:40.761Z</time></trkpt><trkpt lat="34.3095215" lon="8.1297193"><ele>57.0</ele><time>2026-04-30T17:11:41.772Z</time></trkpt><trkpt lat="34.3095162" lon="8.1299093"><ele>57.0</ele><time>2026-04-30T17:11:42.759Z</time></trkpt><trkpt lat="34.3095135" lon="8.1300979"><ele>57.33333333333333</ele><time>2026-04-30T17:11:43.76Z</time></trkpt><trkpt lat="34.3095094" lon="8.1302867"><ele>57.666666666666664</ele><time>2026-04-30T17:11:44.756Z</time></trkpt><trkpt lat="34.3095045" lon="8.1304731"><ele>58.0</ele><time>2026-04-30T17:11:45.747Z</time></trkpt><trkpt lat="34.3094987" lon="8.1306599"><ele>58.0</ele><time>2026-04-30T17:11:46.763Z</time></trkpt><trkpt lat="34.3094899" lon="8.1308462"><ele>58.0</ele><time>2026-04-30T17:11:47.741Z</time></trkpt><trkpt lat="34.3094845" lon="8.1310274"><ele>58.0</ele><time>2026-04-30T17:11:48.752Z</time></trkpt><trkpt lat="34.3094818" lon="8.1312075"><ele>58.0</ele><time>2026-04-30T17:11:49.756Z</time></trkpt><trkpt lat="34.3094783" lon="8.1313874"><ele>58.0</ele><time>2026-04-30T17:11:50.719Z</time></trkpt><trkpt lat="34.3094738" lon="8.1315603"><ele>58.0</ele><time>2026-04-30T17:11:51.746Z</time></trkpt><trkpt lat="34.3094733" lon="8.1317289"><ele>58.0</ele><time>2026-04-30T17:11:52.742Z</time></trkpt><trkpt lat="34.3094692" lon="8.1319017"><ele>58.0</ele><time>2026-04-30T17:11:53.745Z</time></trkpt><trkpt lat="34.309462" lon="8.1320699"><ele>58.0</ele><time>2026-04-30T17:11:54.762Z</time></trkpt><trkpt lat="34.3094537" lon="8.1322111"><ele>58.0</ele><time>2026-04-30T17:11:55.779Z</time></trkpt><trkpt lat="34.3094389" lon="8.1323396"><ele>58.0</ele><time>2026-04-30T17:11:56.773Z</time></trkpt><trkpt lat="34.3094117" lon="8.1324461"><ele>58.33333333333333</ele><time>2026-04-30T17:11:57.764Z</time></trkpt><trkpt lat="34.3093622" lon="8.1325326"><ele>58.666666666666664</ele><time>2026-04-30T17:11:58.772Z</time></trkpt><trkpt lat="34.3092905" lon="8.1325935"><ele>59.0</ele><time>2026-04-30T17:11:59.76Z</time></trkpt><trkpt lat="34.3092254" lon="8.1326441"><ele>59.33333333333333</ele><time>2026-04-30T17:12:00.714Z</time></trkpt><trkpt lat="34.3091625" lon="8.1326876"><ele>59.666666666666664</ele><time>2026-04-30T17:12:01.768Z</time></trkpt><trkpt lat="34.3090904" lon="8.1327646"><ele>60.0</ele><time>2026-04-30T17:12:03.766Z</time></trkpt><trkpt lat="34.3090957" lon="8.1328766"><ele>60.0</ele><time>2026-04-30T17:12:05.709Z</time></trkpt><trkpt lat="34.3090997" lon="8.1329611"><ele>60.0</ele><time>2026-04-30T17:12:06.757Z</time></trkpt><trkpt lat="34.309104" lon="8.133079"><ele>60.0</ele><time>2026-04-30T17:12:07.736Z</time></trkpt><trkpt lat="34.3091079" lon="8.1332097"><ele>60.0</ele><time>2026-04-30T17:12:08.745Z</time></trkpt><trkpt lat="34.3091092" lon="8.1333561"><ele>60.0</ele><time>2026-04-30T17:12:09.765Z</time></trkpt><trkpt lat="34.3091119" lon="8.1335084"><ele>60.0</ele><time>2026-04-30T17:12:10.721Z</time></trkpt><trkpt lat="34.3091185" lon="8.1336636"><ele>60.0</ele><time>2026-04-30T17:12:11.712Z</time></trkpt><trkpt lat="34.3091242" lon="8.1338242"><ele>60.0</ele><time>2026-04-30T17:12:12.702Z</time></trkpt><trkpt lat="34.309123" lon="8.1339908"><ele>60.0</ele><time>2026-04-30T17:12:13.752Z</time></trkpt><trkpt lat="34.3091247" lon="8.1341581"><ele>60.0</ele><time>2026-04-30T17:12:14.754Z</time></trkpt><trkpt lat="34.3091246" lon="8.1343268"><ele>60.0</ele><time>2026-04-30T17:12:15.75Z</time></trkpt><trkpt lat="34.3091292" lon="8.1344991"><ele>60.0</ele><time>2026-04-30T17:12:16.732Z</time></trkpt><trkpt lat="34.3091357" lon="8.1346746"><ele>60.0</ele><time>2026-04-30T17:12:17.77Z</time></trkpt><trkpt lat="34.3091399" lon="8.1348551"><ele>60.66666666666667</ele><time>2026-04-30T17:12:18.752Z</time></trkpt><trkpt lat="34.3091482" lon="8.1350575"><ele>61.333333333333336</ele><time>2026-04-30T17:12:19.724Z</time></trkpt><trkpt lat="34.3091511" lon="8.1352597"><ele>62.0</ele><time>2026-04-30T17:12:20.746Z</time></trkpt><trkpt lat="34.3091537" lon="8.1354655"><ele>62.0</ele><time>2026-04-30T17:12:21.759Z</time></trkpt><trkpt lat="34.3091509" lon="8.1356751"><ele>62.0</ele><time>2026-04-30T17:12:22.752Z</time></trkpt><trkpt lat="34.3091464" lon="8.1358842"><ele>62.0</ele><time>2026-04-30T17:12:23.765Z</time></trkpt><trkpt lat="34.3091502" lon="8.1360884"><ele>62.333333333333336</ele><time>2026-04-30T17:12:24.768Z</time></trkpt><trkpt lat="34.3091501" lon="8.1362899"><ele>62.66666666666667</ele><time>2026-04-30T17:12:25.696Z</time></trkpt><trkpt lat="34.3091537" lon="8.1364874"><ele>63.0</ele><time>2026-04-30T17:12:26.693Z</time></trkpt><trkpt lat="34.3091543" lon="8.1366842"><ele>62.599999999999994</ele><time>2026-04-30T17:12:27.701Z</time></trkpt><trkpt lat="34.3091526" lon="8.1368459"><ele>62.199999999999996</ele><time>2026-04-30T17:12:28.73Z</time></trkpt><trkpt lat="34.309153" lon="8.1369802"><ele>61.8</ele><time>2026-04-30T17:12:29.713Z</time></trkpt><trkpt lat="34.3091541" lon="8.1370881"><ele>61.4</ele><time>2026-04-30T17:12:30.718Z</time></trkpt><trkpt lat="34.3091669" lon="8.1371895"><ele>61.0</ele><time>2026-04-30T17:12:31.739Z</time></trkpt><trkpt lat="34.3091695" lon="8.137301"><ele>61.0</ele><time>2026-04-30T17:12:32.752Z</time></trkpt><trkpt lat="34.3091728" lon="8.1374274"><ele>61.0</ele><time>2026-04-30T17:12:33.773Z</time></trkpt><trkpt lat="34.3091724" lon="8.1375575"><ele>61.0</ele><time>2026-04-30T17:12:34.748Z</time></trkpt><trkpt lat="34.3091703" lon="8.1377038"><ele>61.0</ele><time>2026-04-30T17:12:35.752Z</time></trkpt><trkpt lat="34.3091673" lon="8.1378525"><ele>61.0</ele><time>2026-04-30T17:12:36.752Z</time></trkpt><trkpt lat="34.3091715" lon="8.1380161"><ele>61.0</ele><time>2026-04-30T17:12:37.707Z</time></trkpt><trkpt lat="34.309171" lon="8.1381857"><ele>61.0</ele><time>2026-04-30T17:12:38.721Z</time></trkpt><trkpt lat="34.309168" lon="8.1383541"><ele>61.0</ele><time>2026-04-30T17:12:39.756Z</time></trkpt><trkpt lat="34.3091693" lon="8.1385194"><ele>61.0</ele><time>2026-04-30T17:12:40.728Z</time></trkpt><trkpt lat="34.3091692" lon="8.1386953"><ele>61.0</ele><time>2026-04-30T17:12:41.75Z</time></trkpt><trkpt lat="34.3091698" lon="8.1388675"><ele>61.0</ele><time>2026-04-30T17:12:42.739Z</time></trkpt><trkpt lat="34.3091691" lon="8.1390421"><ele>61.0</ele><time>2026-04-30T17:12:43.75Z</time></trkpt><trkpt lat="34.3091689" lon="8.1392182"><ele>61.25</ele><time>2026-04-30T17:12:44.755Z</time></trkpt><trkpt lat="34.3091672" lon="8.1393964"><ele>61.5</ele><time>2026-04-30T17:12:45.727Z</time></trkpt><trkpt lat="34.3091698" lon="8.1395756"><ele>61.75</ele><time>2026-04-30T17:12:46.71Z</time></trkpt><trkpt lat="34.3091712" lon="8.1397519"><ele>62.0</ele><time>2026-04-30T17:12:47.736Z</time></trkpt><trkpt lat="34.3091768" lon="8.1399263"><ele>62.5</ele><time>2026-04-30T17:12:48.761Z</time></trkpt><trkpt lat="34.3091815" lon="8.1401078"><ele>63.0</ele><time>2026-04-30T17:12:49.748Z</time></trkpt><trkpt lat="34.3091828" lon="8.1402843"><ele>63.5</ele><time>2026-04-30T17:12:50.726Z</time></trkpt><trkpt lat="34.3091875" lon="8.140464"><ele>64.0</ele><time>2026-04-30T17:12:51.773Z</time></trkpt><trkpt lat="34.3091902" lon="8.1406413"><ele>64.0</ele><time>2026-04-30T17:12:52.752Z</time></trkpt><trkpt lat="34.3091931" lon="8.1408176"><ele>64.0</ele><time>2026-04-30T17:12:53.761Z</time></trkpt><trkpt lat="34.3091953" lon="8.1409919"><ele>64.0</ele><time>2026-04-30T17:12:54.783Z</time></trkpt><trkpt lat="34.3091924" lon="8.1411737"><ele>64.0</ele><time>2026-04-30T17:12:55.767Z</time></trkpt><trkpt lat="34.3091918" lon="8.1413508"><ele>64.0</ele><time>2026-04-30T17:12:56.738Z</time></trkpt><trkpt lat="34.3091939" lon="8.1415332"><ele>64.0</ele><time>2026-04-30T17:12:57.746Z</time></trkpt><trkpt lat="34.3091967" lon="8.1417129"><ele>64.0</ele><time>2026-04-30T17:12:58.764Z</time></trkpt><trkpt lat="34.3092001" lon="8.141897"><ele>64.66666666666666</ele><time>2026-04-30T17:12:59.765Z</time></trkpt><trkpt lat="34.3092035" lon="8.1420856"><ele>65.33333333333333</ele><time>2026-04-30T17:13:00.765Z</time></trkpt><trkpt lat="34.3092066" lon="8.1422726"><ele>66.0</ele><time>2026-04-30T17:13:01.741Z</time></trkpt><trkpt lat="34.3092055" lon="8.1424632"><ele>66.33333333333333</ele><time>2026-04-30T17:13:02.753Z</time></trkpt><trkpt lat="34.3092024" lon="8.1426568"><ele>66.66666666666666</ele><time>2026-04-30T17:13:03.762Z</time></trkpt><trkpt lat="34.3091985" lon="8.1428484"><ele>67.0</ele><time>2026-04-30T17:13:04.764Z</time></trkpt><trkpt lat="34.3091933" lon="8.1430391"><ele>67.66666666666666</ele><time>2026-04-30T17:13:05.76Z</time></trkpt><trkpt lat="34.3091901" lon="8.1432267"><ele>68.33333333333333</ele><time>2026-04-30T17:13:06.708Z</time></trkpt><trkpt lat="34.3091893" lon="8.1434128"><ele>69.0</ele><time>2026-04-30T17:13:07.758Z</time></trkpt><trkpt lat="34.3091806" lon="8.1436014"><ele>69.0</ele><time>2026-04-30T17:13:08.757Z</time></trkpt><trkpt lat="34.3091676" lon="8.1437872"><ele>69.0</ele><time>2026-04-30T17:13:09.754Z</time></trkpt><trkpt lat="34.3091518" lon="8.1439736"><ele>69.0</ele><time>2026-04-30T17:13:10.738Z</time></trkpt><trkpt lat="34.3091338" lon="8.1441588"><ele>68.66666666666667</ele><time>2026-04-30T17:13:11.742Z</time></trkpt><trkpt lat="34.3091158" lon="8.1443405"><ele>68.33333333333334</ele><time>2026-04-30T17:13:12.749Z</time></trkpt><trkpt lat="34.309096" lon="8.1445179"><ele>68.0</ele><time>2026-04-30T17:13:13.758Z</time></trkpt><trkpt lat="34.309081" lon="8.1446994"><ele>67.66666666666667</ele><time>2026-04-30T17:13:14.758Z</time></trkpt><trkpt lat="34.3090699" lon="8.1448795"><ele>67.33333333333333</ele><time>2026-04-30T17:13:15.756Z</time></trkpt><trkpt lat="34.3090619" lon="8.1450621"><ele>67.0</ele><time>2026-04-30T17:13:16.741Z</time></trkpt><trkpt lat="34.3090576" lon="8.1452437"><ele>67.0</ele><time>2026-04-30T17:13:17.732Z</time></trkpt><trkpt lat="34.3090532" lon="8.1454229"><ele>67.0</ele><time>2026-04-30T17:13:18.754Z</time></trkpt><trkpt lat="34.3090566" lon="8.145604"><ele>67.0</ele><time>2026-04-30T17:13:19.759Z</time></trkpt><trkpt lat="34.3090717" lon="8.1457885"><ele>67.33333333333333</ele><time>2026-04-30T17:13:20.785Z</time></trkpt><trkpt lat="34.3090888" lon="8.1459758"><ele>67.66666666666667</ele><time>2026-04-30T17:13:21.772Z</time></trkpt><trkpt lat="34.3091031" lon="8.1461643"><ele>68.0</ele><time>2026-04-30T17:13:22.76Z</time></trkpt><trkpt lat="34.3091163" lon="8.1463505"><ele>68.0</ele><time>2026-04-30T17:13:23.764Z</time></trkpt><trkpt lat="34.3091384" lon="8.1465413"><ele>68.0</ele><time>2026-04-30T17:13:24.76Z</time></trkpt><trkpt lat="34.3091512" lon="8.1467328"><ele>68.0</ele><time>2026-04-30T17:13:25.741Z</time></trkpt><trkpt lat="34.3091699" lon="8.1469243"><ele>68.0</ele><time>2026-04-30T17:13:26.745Z</time></trkpt><trkpt lat="34.3091874" lon="8.1471139"><ele>68.0</ele><time>2026-04-30T17:13:27.727Z</time></trkpt><trkpt lat="34.3092034" lon="8.1473095"><ele>68.0</ele><time>2026-04-30T17:13:28.746Z</time></trkpt><trkpt lat="34.3092231" lon="8.1474996"><ele>68.0</ele><time>2026-04-30T17:13:29.763Z</time></trkpt><trkpt lat="34.3092469" lon="8.1476918"><ele>68.0</ele><time>2026-04-30T17:13:30.764Z</time></trkpt><trkpt lat="34.3092685" lon="8.1478814"><ele>68.0</ele><time>2026-04-30T17:13:31.74Z</time></trkpt><trkpt lat="34.3092872" lon="8.1480678"><ele>68.33333333333334</ele><time>2026-04-30T17:13:32.756Z</time></trkpt><trkpt lat="34.3093027" lon="8.148258"><ele>68.66666666666667</ele><time>2026-04-30T17:13:33.771Z</time></trkpt><trkpt lat="34.3093166" lon="8.1484431"><ele>69.0</ele><time>2026-04-30T17:13:34.765Z</time></trkpt><trkpt lat="34.3093361" lon="8.148628"><ele>69.0</ele><time>2026-04-30T17:13:35.757Z</time></trkpt><trkpt lat="34.3093507" lon="8.1488112"><ele>69.0</ele><time>2026-04-30T17:13:36.764Z</time></trkpt><trkpt lat="34.3093675" lon="8.1489894"><ele>69.0</ele><time>2026-04-30T17:13:37.761Z</time></trkpt><trkpt lat="34.3093899" lon="8.1491662"><ele>69.0</ele><time>2026-04-30T17:13:38.762Z</time></trkpt><trkpt lat="34.3094148" lon="8.1493365"><ele>69.25</ele><time>2026-04-30T17:13:39.733Z</time></trkpt><trkpt lat="34.3094456" lon="8.1494966"><ele>69.5</ele><time>2026-04-30T17:13:40.753Z</time></trkpt><trkpt lat="34.3094826" lon="8.1496416"><ele>69.75</ele><time>2026-04-30T17:13:41.756Z</time></trkpt><trkpt lat="34.3095192" lon="8.1497733"><ele>70.0</ele><time>2026-04-30T17:13:42.756Z</time></trkpt><trkpt lat="34.3095537" lon="8.1498771"><ele>70.2</ele><time>2026-04-30T17:13:43.743Z</time></trkpt><trkpt lat="34.3095821" lon="8.1499586"><ele>70.4</ele><time>2026-04-30T17:13:44.779Z</time></trkpt><trkpt lat="34.3096186" lon="8.1500784"><ele>70.6</ele><time>2026-04-30T17:13:46.763Z</time></trkpt><trkpt lat="34.3096608" lon="8.15017"><ele>70.8</ele><time>2026-04-30T17:13:48.746Z</time></trkpt><trkpt lat="34.3097353" lon="8.1502902"><ele>71.0</ele><time>2026-04-30T17:13:50.758Z</time></trkpt><trkpt lat="34.3098069" lon="8.1503572"><ele>70.5</ele><time>2026-04-30T17:13:51.75Z</time></trkpt><trkpt lat="34.3098982" lon="8.1504229"><ele>70.0</ele><time>2026-04-30T17:13:52.767Z</time></trkpt><trkpt lat="34.3100015" lon="8.1504916"><ele>69.5</ele><time>2026-04-30T17:13:53.769Z</time></trkpt><trkpt lat="34.3101119" lon="8.1505663"><ele>69.0</ele><time>2026-04-30T17:13:54.768Z</time></trkpt><trkpt lat="34.3102214" lon="8.1506481"><ele>69.75</ele><time>2026-04-30T17:13:55.781Z</time></trkpt><trkpt lat="34.3103291" lon="8.1507335"><ele>70.5</ele><time>2026-04-30T17:13:56.738Z</time></trkpt><trkpt lat="34.3104291" lon="8.1508262"><ele>71.25</ele><time>2026-04-30T17:13:57.766Z</time></trkpt><trkpt lat="34.3105292" lon="8.1509195"><ele>72.0</ele><time>2026-04-30T17:13:58.766Z</time></trkpt><trkpt lat="34.3106313" lon="8.151012"><ele>72.0</ele><time>2026-04-30T17:13:59.743Z</time></trkpt><trkpt lat="34.3107341" lon="8.1511003"><ele>72.0</ele><time>2026-04-30T17:14:00.748Z</time></trkpt><trkpt lat="34.3108326" lon="8.151188"><ele>72.0</ele><time>2026-04-30T17:14:01.761Z</time></trkpt><trkpt lat="34.3109293" lon="8.1512819"><ele>72.0</ele><time>2026-04-30T17:14:02.736Z</time></trkpt><trkpt lat="34.3110234" lon="8.1513799"><ele>72.0</ele><time>2026-04-30T17:14:03.757Z</time></trkpt><trkpt lat="34.3111152" lon="8.151476"><ele>72.0</ele><time>2026-04-30T17:14:04.772Z</time></trkpt><trkpt lat="34.3112079" lon="8.1515707"><ele>72.0</ele><time>2026-04-30T17:14:05.764Z</time></trkpt><trkpt lat="34.3113099" lon="8.1516545"><ele>72.0</ele><time>2026-04-30T17:14:06.754Z</time></trkpt><trkpt lat="34.3114197" lon="8.15173"><ele>72.25</ele><time>2026-04-30T17:14:07.713Z</time></trkpt><trkpt lat="34.3115351" lon="8.1517996"><ele>72.5</ele><time>2026-04-30T17:14:08.739Z</time></trkpt><trkpt lat="34.3116514" lon="8.1518638"><ele>72.75</ele><time>2026-04-30T17:14:09.767Z</time></trkpt><trkpt lat="34.3117729" lon="8.1519253"><ele>73.0</ele><time>2026-04-30T17:14:10.743Z</time></trkpt><trkpt lat="34.311894" lon="8.1519791"><ele>73.0</ele><time>2026-04-30T17:14:11.723Z</time></trkpt><trkpt lat="34.3120154" lon="8.1520433"><ele>73.0</ele><time>2026-04-30T17:14:12.735Z</time></trkpt><trkpt lat="34.3121382" lon="8.1521141"><ele>73.0</ele><time>2026-04-30T17:14:13.764Z</time></trkpt><trkpt lat="34.3122568" lon="8.1521926"><ele>73.0</ele><time>2026-04-30T17:14:14.727Z</time></trkpt><trkpt lat="34.3123775" lon="8.1522797"><ele>73.25</ele><time>2026-04-30T17:14:15.766Z</time></trkpt><trkpt lat="34.3124928" lon="8.1523674"><ele>73.5</ele><time>2026-04-30T17:14:16.742Z</time></trkpt><trkpt lat="34.3126147" lon="8.152456"><ele>73.75</ele><time>2026-04-30T17:14:17.767Z</time></trkpt><trkpt lat="34.3127382" lon="8.1525437"><ele>74.0</ele><time>2026-04-30T17:14:18.75Z</time></trkpt><trkpt lat="34.3128689" lon="8.1526336"><ele>74.33333333333334</ele><time>2026-04-30T17:14:19.728Z</time></trkpt><trkpt lat="34.313005" lon="8.1527192"><ele>74.66666666666667</ele><time>2026-04-30T17:14:20.756Z</time></trkpt><trkpt lat="34.3131418" lon="8.1528022"><ele>75.0</ele><time>2026-04-30T17:14:21.76Z</time></trkpt><trkpt lat="34.3132737" lon="8.1528796"><ele>75.0</ele><time>2026-04-30T17:14:22.774Z</time></trkpt><trkpt lat="34.313404" lon="8.1529571"><ele>75.0</ele><time>2026-04-30T17:14:23.774Z</time></trkpt><trkpt lat="34.3135362" lon="8.1530332"><ele>75.0</ele><time>2026-04-30T17:14:24.755Z</time></trkpt><trkpt lat="34.3136708" lon="8.1530914"><ele>75.0</ele><time>2026-04-30T17:14:25.759Z</time></trkpt><trkpt lat="34.3138077" lon="8.1531423"><ele>75.25</ele><time>2026-04-30T17:14:26.76Z</time></trkpt><trkpt lat="34.31395" lon="8.153187"><ele>75.5</ele><time>2026-04-30T17:14:27.734Z</time></trkpt><trkpt lat="34.3140882" lon="8.1532308"><ele>75.75</ele><time>2026-04-30T17:14:28.736Z</time></trkpt><trkpt lat="34.3142238" lon="8.1532849"><ele>76.0</ele><time>2026-04-30T17:14:29.761Z</time></trkpt><trkpt lat="34.3143616" lon="8.1533529"><ele>76.0</ele><time>2026-04-30T17:14:30.74Z</time></trkpt><trkpt lat="34.3144967" lon="8.1534293"><ele>76.0</ele><time>2026-04-30T17:14:31.75Z</time></trkpt><trkpt lat="34.3146254" lon="8.1535092"><ele>76.0</ele><time>2026-04-30T17:14:32.746Z</time></trkpt><trkpt lat="34.3147565" lon="8.1535908"><ele>76.0</ele><time>2026-04-30T17:14:33.753Z</time></trkpt><trkpt lat="34.3148849" lon="8.1536691"><ele>76.5</ele><time>2026-04-30T17:14:34.758Z</time></trkpt><trkpt lat="34.3150127" lon="8.1537489"><ele>77.0</ele><time>2026-04-30T17:14:35.767Z</time></trkpt><trkpt lat="34.315138" lon="8.1538295"><ele>77.5</ele><time>2026-04-30T17:14:36.758Z</time></trkpt><trkpt lat="34.3152639" lon="8.153909"><ele>78.0</ele><time>2026-04-30T17:14:37.714Z</time></trkpt><trkpt lat="34.3153897" lon="8.153991"><ele>78.0</ele><time>2026-04-30T17:14:38.77Z</time></trkpt><trkpt lat="34.3155107" lon="8.1540716"><ele>78.0</ele><time>2026-04-30T17:14:39.752Z</time></trkpt><trkpt lat="34.3156386" lon="8.154148"><ele>78.0</ele><time>2026-04-30T17:14:40.754Z</time></trkpt><trkpt lat="34.3157666" lon="8.1542275"><ele>78.0</ele><time>2026-04-30T17:14:41.755Z</time></trkpt><trkpt lat="34.3158911" lon="8.1543068"><ele>78.0</ele><time>2026-04-30T17:14:42.759Z</time></trkpt><trkpt lat="34.3160063" lon="8.1543803"><ele>78.0</ele><time>2026-04-30T17:14:43.732Z</time></trkpt><trkpt lat="34.3161031" lon="8.1544389"><ele>78.0</ele><time>2026-04-30T17:14:44.737Z</time></trkpt><trkpt lat="34.3161941" lon="8.1544973"><ele>78.0</ele><time>2026-04-30T17:14:45.756Z</time></trkpt><trkpt lat="34.3162848" lon="8.1545525"><ele>78.0</ele><time>2026-04-30T17:14:46.77Z</time></trkpt><trkpt lat="34.3163713" lon="8.1546038"><ele>78.6</ele><time>2026-04-30T17:14:47.76Z</time></trkpt><trkpt lat="34.3164637" lon="8.1546615"><ele>79.19999999999999</ele><time>2026-04-30T17:14:48.732Z</time></trkpt><trkpt lat="34.3165615" lon="8.1547191"><ele>79.8</ele><time>2026-04-30T17:14:49.767Z</time></trkpt><trkpt lat="34.3166661" lon="8.1547762"><ele>80.39999999999999</ele><time>2026-04-30T17:14:50.749Z</time></trkpt><trkpt lat="34.3167716" lon="8.154839"><ele>81.0</ele><time>2026-04-30T17:14:51.742Z</time></trkpt><trkpt lat="34.3168786" lon="8.1549053"><ele>81.0</ele><time>2026-04-30T17:14:52.759Z</time></trkpt><trkpt lat="34.3169845" lon="8.1549726"><ele>81.0</ele><time>2026-04-30T17:14:53.752Z</time></trkpt><trkpt lat="34.3170837" lon="8.1550491"><ele>81.0</ele><time>2026-04-30T17:14:54.734Z</time></trkpt><trkpt lat="34.317184" lon="8.1551383"><ele>81.0</ele><time>2026-04-30T17:14:55.76Z</time></trkpt><trkpt lat="34.3172789" lon="8.15524"><ele>81.25</ele><time>2026-04-30T17:14:56.763Z</time></trkpt><trkpt lat="34.3173746" lon="8.1553356"><ele>81.5</ele><time>2026-04-30T17:14:57.768Z</time></trkpt><trkpt lat="34.317473" lon="8.1554328"><ele>81.75</ele><time>2026-04-30T17:14:58.76Z</time></trkpt><trkpt lat="34.3175725" lon="8.15552"><ele>82.0</ele><time>2026-04-30T17:14:59.758Z</time></trkpt><trkpt lat="34.3176696" lon="8.1555979"><ele>82.0</ele><time>2026-04-30T17:15:00.755Z</time></trkpt><trkpt lat="34.3177652" lon="8.1556623"><ele>82.0</ele><time>2026-04-30T17:15:01.75Z</time></trkpt><trkpt lat="34.3178446" lon="8.1557308"><ele>82.0</ele><time>2026-04-30T17:15:02.726Z</time></trkpt><trkpt lat="34.3179011" lon="8.1558014"><ele>82.0</ele><time>2026-04-30T17:15:03.765Z</time></trkpt><trkpt lat="34.3179515" lon="8.155879"><ele>82.0</ele><time>2026-04-30T17:15:04.745Z</time></trkpt><trkpt lat="34.3179939" lon="8.1559505"><ele>82.0</ele><time>2026-04-30T17:15:05.762Z</time></trkpt><trkpt lat="34.3180373" lon="8.1560447"><ele>81.75</ele><time>2026-04-30T17:15:06.774Z</time></trkpt><trkpt lat="34.3180746" lon="8.1561542"><ele>81.5</ele><time>2026-04-30T17:15:07.751Z</time></trkpt><trkpt lat="34.3181016" lon="8.1562844"><ele>81.25</ele><time>2026-04-30T17:15:08.765Z</time></trkpt><trkpt lat="34.3181203" lon="8.156432"><ele>81.0</ele><time>2026-04-30T17:15:09.754Z</time></trkpt><trkpt lat="34.318136" lon="8.1565767"><ele>80.66666666666667</ele><time>2026-04-30T17:15:10.748Z</time></trkpt><trkpt lat="34.3181502" lon="8.1567026"><ele>80.33333333333333</ele><time>2026-04-30T17:15:11.738Z</time></trkpt><trkpt lat="34.3181674" lon="8.1568198"><ele>80.0</ele><time>2026-04-30T17:15:12.727Z</time></trkpt><trkpt lat="34.3181932" lon="8.156916"><ele>79.66666666666666</ele><time>2026-04-30T17:15:13.755Z</time></trkpt><trkpt lat="34.3182217" lon="8.1570064"><ele>79.33333333333333</ele><time>2026-04-30T17:15:14.769Z</time></trkpt><trkpt lat="34.3182518" lon="8.1570953"><ele>79.0</ele><time>2026-04-30T17:15:15.75Z</time></trkpt><trkpt lat="34.3182926" lon="8.1571931"><ele>79.0</ele><time>2026-04-30T17:15:16.728Z</time></trkpt><trkpt lat="34.318343" lon="8.1573035"><ele>79.0</ele><time>2026-04-30T17:15:17.759Z</time></trkpt><trkpt lat="34.3184049" lon="8.1574356"><ele>79.0</ele><time>2026-04-30T17:15:18.781Z</time></trkpt><trkpt lat="34.3184659" lon="8.157585"><ele>79.0</ele><time>2026-04-30T17:15:19.761Z</time></trkpt><trkpt lat="34.3185219" lon="8.1577618"><ele>79.66666666666666</ele><time>2026-04-30T17:15:20.744Z</time></trkpt><trkpt lat="34.3185729" lon="8.1579474"><ele>80.33333333333333</ele><time>2026-04-30T17:15:21.704Z</time></trkpt><trkpt lat="34.3186272" lon="8.1581349"><ele>81.0</ele><time>2026-04-30T17:15:22.707Z</time></trkpt><trkpt lat="34.3186838" lon="8.1583313"><ele>81.0</ele><time>2026-04-30T17:15:23.731Z</time></trkpt><trkpt lat="34.3187373" lon="8.1585223"><ele>81.0</ele><time>2026-04-30T17:15:24.753Z</time></trkpt><trkpt lat="34.318788" lon="8.1587177"><ele>81.0</ele><time>2026-04-30T17:15:25.762Z</time></trkpt><trkpt lat="34.3188401" lon="8.1589085"><ele>81.0</ele><time>2026-04-30T17:15:26.708Z</time></trkpt><trkpt lat="34.3188875" lon="8.1591003"><ele>81.0</ele><time>2026-04-30T17:15:27.713Z</time></trkpt><trkpt lat="34.3189364" lon="8.1592889"><ele>81.0</ele><time>2026-04-30T17:15:28.753Z</time></trkpt><trkpt lat="34.3189801" lon="8.1594711"><ele>81.75</ele><time>2026-04-30T17:15:29.757Z</time></trkpt><trkpt lat="34.319017" lon="8.1596495"><ele>82.5</ele><time>2026-04-30T17:15:30.74Z</time></trkpt><trkpt lat="34.3190505" lon="8.1598178"><ele>83.25</ele><time>2026-04-30T17:15:31.721Z</time></trkpt><trkpt lat="34.3190854" lon="8.1599805"><ele>84.0</ele><time>2026-04-30T17:15:32.731Z</time></trkpt><trkpt lat="34.3191192" lon="8.1601442"><ele>84.0</ele><time>2026-04-30T17:15:33.747Z</time></trkpt><trkpt lat="34.3191602" lon="8.1603062"><ele>84.0</ele><time>2026-04-30T17:15:34.73Z</time></trkpt><trkpt lat="34.3192075" lon="8.1604576"><ele>84.0</ele><time>2026-04-30T17:15:35.749Z</time></trkpt><trkpt lat="34.3192554" lon="8.1605918"><ele>84.0</ele><time>2026-04-30T17:15:36.752Z</time></trkpt><trkpt lat="34.3193036" lon="8.1607247"><ele>84.75</ele><time>2026-04-30T17:15:37.749Z</time></trkpt><trkpt lat="34.3193501" lon="8.1608591"><ele>85.5</ele><time>2026-04-30T17:15:38.723Z</time></trkpt><trkpt lat="34.3193974" lon="8.160987"><ele>86.25</ele><time>2026-04-30T17:15:39.723Z</time></trkpt><trkpt lat="34.3194454" lon="8.1611207"><ele>87.0</ele><time>2026-04-30T17:15:40.75Z</time></trkpt><trkpt lat="34.3194939" lon="8.1612574"><ele>87.0</ele><time>2026-04-30T17:15:41.753Z</time></trkpt><trkpt lat="34.3195407" lon="8.1613839"><ele>87.0</ele><time>2026-04-30T17:15:42.751Z</time></trkpt><trkpt lat="34.3195823" lon="8.1615062"><ele>87.0</ele><time>2026-04-30T17:15:43.733Z</time></trkpt><trkpt lat="34.3196189" lon="8.161633"><ele>87.0</ele><time>2026-04-30T17:15:44.722Z</time></trkpt><trkpt lat="34.3196557" lon="8.1617639"><ele>87.0</ele><time>2026-04-30T17:15:45.752Z</time></trkpt><trkpt lat="34.319689" lon="8.1618955"><ele>87.5</ele><time>2026-04-30T17:15:46.728Z</time></trkpt><trkpt lat="34.3197308" lon="8.1620321"><ele>88.0</ele><time>2026-04-30T17:15:47.744Z</time></trkpt><trkpt lat="34.3197814" lon="8.1621725"><ele>88.5</ele><time>2026-04-30T17:15:48.749Z</time></trkpt><trkpt lat="34.319835" lon="8.162317"><ele>89.0</ele><time>2026-04-30T17:15:49.752Z</time></trkpt><trkpt lat="34.3198954" lon="8.1624612"><ele>89.5</ele><time>2026-04-30T17:15:50.76Z</time></trkpt><trkpt lat="34.319957" lon="8.162603"><ele>90.0</ele><time>2026-04-30T17:15:51.753Z</time></trkpt><trkpt lat="34.320016" lon="8.1627413"><ele>90.5</ele><time>2026-04-30T17:15:52.748Z</time></trkpt><trkpt lat="34.32008" lon="8.1628788"><ele>91.0</ele><time>2026-04-30T17:15:53.751Z</time></trkpt><trkpt lat="34.3201537" lon="8.1630052"><ele>91.0</ele><time>2026-04-30T17:15:54.757Z</time></trkpt><trkpt lat="34.3202326" lon="8.1631223"><ele>91.0</ele><time>2026-04-30T17:15:55.721Z</time></trkpt><trkpt lat="34.3203203" lon="8.1632259"><ele>91.0</ele><time>2026-04-30T17:15:56.764Z</time></trkpt><trkpt lat="34.3204145" lon="8.1633279"><ele>91.0</ele><time>2026-04-30T17:15:57.707Z</time></trkpt><trkpt lat="34.3204963" lon="8.1634273"><ele>91.19999999999999</ele><time>2026-04-30T17:15:58.713Z</time></trkpt><trkpt lat="34.320561" lon="8.1635286"><ele>91.39999999999999</ele><time>2026-04-30T17:15:59.757Z</time></trkpt><trkpt lat="34.3206136" lon="8.1636305"><ele>91.6</ele><time>2026-04-30T17:16:00.742Z</time></trkpt><trkpt lat="34.3206483" lon="8.1637309"><ele>91.8</ele><time>2026-04-30T17:16:01.756Z</time></trkpt><trkpt lat="34.3206739" lon="8.1638288"><ele>92.0</ele><time>2026-04-30T17:16:02.754Z</time></trkpt><trkpt lat="34.3206877" lon="8.163934"><ele>92.8</ele><time>2026-04-30T17:16:03.761Z</time></trkpt><trkpt lat="34.3206919" lon="8.164045"><ele>93.6</ele><time>2026-04-30T17:16:04.712Z</time></trkpt><trkpt lat="34.3206985" lon="8.1641603"><ele>94.39999999999999</ele><time>2026-04-30T17:16:05.74Z</time></trkpt><trkpt lat="34.3207028" lon="8.1642686"><ele>95.19999999999999</ele><time>2026-04-30T17:16:06.751Z</time></trkpt><trkpt lat="34.3207084" lon="8.164381"><ele>96.0</ele><time>2026-04-30T17:16:07.707Z</time></trkpt><trkpt lat="34.3207134" lon="8.1644952"><ele>96.0</ele><time>2026-04-30T17:16:08.718Z</time></trkpt><trkpt lat="34.3207185" lon="8.1646063"><ele>96.0</ele><time>2026-04-30T17:16:09.763Z</time></trkpt><trkpt lat="34.3207183" lon="8.1647126"><ele>96.0</ele><time>2026-04-30T17:16:10.766Z</time></trkpt><trkpt lat="34.3207212" lon="8.1648162"><ele>96.0</ele><time>2026-04-30T17:16:11.752Z</time></trkpt><trkpt lat="34.3207208" lon="8.1649155"><ele>96.0</ele><time>2026-04-30T17:16:12.752Z</time></trkpt><trkpt lat="34.3207247" lon="8.1650073"><ele>96.0</ele><time>2026-04-30T17:16:13.745Z</time></trkpt><trkpt lat="34.3207232" lon="8.1650991"><ele>95.8</ele><time>2026-04-30T17:16:14.747Z</time></trkpt><trkpt lat="34.3207143" lon="8.1651841"><ele>95.6</ele><time>2026-04-30T17:16:15.757Z</time></trkpt><trkpt lat="34.3206851" lon="8.1653352"><ele>95.4</ele><time>2026-04-30T17:16:17.73Z</time></trkpt><trkpt lat="34.3206491" lon="8.1654751"><ele>95.2</ele><time>2026-04-30T17:16:19.766Z</time></trkpt><trkpt lat="34.3206078" lon="8.165615"><ele>95.0</ele><time>2026-04-30T17:16:21.766Z</time></trkpt><trkpt lat="34.320562" lon="8.1657404"><ele>95.0</ele><time>2026-04-30T17:16:23.738Z</time></trkpt><trkpt lat="34.3205213" lon="8.1658398"><ele>95.0</ele><time>2026-04-30T17:16:25.734Z</time></trkpt><trkpt lat="34.3204888" lon="8.1659093"><ele>95.0</ele><time>2026-04-30T17:16:28.751Z</time></trkpt><trkpt lat="34.3204432" lon="8.1659967"><ele>95.0</ele><time>2026-04-30T17:16:38.75Z</time></trkpt><trkpt lat="34.3203813" lon="8.1660729"><ele>95.0</ele><time>2026-04-30T17:16:42.75Z</time></trkpt><trkpt lat="34.3203214" lon="8.1661522"><ele>95.0</ele><time>2026-04-30T17:16:44.735Z</time></trkpt><trkpt lat="34.320224" lon="8.1662453"><ele>95.0</ele><time>2026-04-30T17:16:46.757Z</time></trkpt><trkpt lat="34.3201187" lon="8.1663026"><ele>95.0</ele><time>2026-04-30T17:16:48.772Z</time></trkpt><trkpt lat="34.3200107" lon="8.1663557"><ele>95.0</ele><time>2026-04-30T17:16:50.767Z</time></trkpt><trkpt lat="34.3198952" lon="8.1664213"><ele>95.0</ele><time>2026-04-30T17:16:52.706Z</time></trkpt><trkpt lat="34.3198329" lon="8.1664607"><ele>95.0</ele><time>2026-04-30T17:16:53.755Z</time></trkpt><trkpt lat="34.3197701" lon="8.1665024"><ele>95.4</ele><time>2026-04-30T17:16:54.744Z</time></trkpt><trkpt lat="34.3197097" lon="8.1665411"><ele>95.8</ele><time>2026-04-30T17:16:55.73Z</time></trkpt><trkpt lat="34.3196513" lon="8.1665784"><ele>96.19999999999999</ele><time>2026-04-30T17:16:56.721Z</time></trkpt><trkpt lat="34.3195465" lon="8.1666501"><ele>96.6</ele><time>2026-04-30T17:16:58.752Z</time></trkpt><trkpt lat="34.3194642" lon="8.166747"><ele>97.0</ele><time>2026-04-30T17:17:00.757Z</time></trkpt><trkpt lat="34.3194284" lon="8.1668817"><ele>97.0</ele><time>2026-04-30T17:17:02.745Z</time></trkpt><trkpt lat="34.3194288" lon="8.1669604"><ele>97.0</ele><time>2026-04-30T17:17:03.753Z</time></trkpt><trkpt lat="34.3194537" lon="8.1670845"><ele>97.0</ele><time>2026-04-30T17:17:05.755Z</time></trkpt><trkpt lat="34.3194906" lon="8.1671954"><ele>97.0</ele><time>2026-04-30T17:17:07.75Z</time></trkpt><trkpt lat="34.3195372" lon="8.1673191"><ele>97.0</ele><time>2026-04-30T17:17:09.76Z</time></trkpt><trkpt lat="34.3195956" lon="8.1674264"><ele>97.33333333333334</ele><time>2026-04-30T17:17:11.755Z</time></trkpt><trkpt lat="34.3196587" lon="8.1675487"><ele>97.66666666666667</ele><time>2026-04-30T17:17:13.763Z</time></trkpt><trkpt lat="34.3196873" lon="8.1676181"><ele>98.0</ele><time>2026-04-30T17:17:14.762Z</time></trkpt><trkpt lat="34.3197144" lon="8.1676879"><ele>98.33333333333334</ele><time>2026-04-30T17:17:15.752Z</time></trkpt><trkpt lat="34.3197401" lon="8.1677605"><ele>98.66666666666667</ele><time>2026-04-30T17:17:16.752Z</time></trkpt><trkpt lat="34.3197631" lon="8.1678338"><ele>99.0</ele><time>2026-04-30T17:17:17.752Z</time></trkpt><trkpt lat="34.3197893" lon="8.167916"><ele>99.33333333333333</ele><time>2026-04-30T17:17:18.754Z</time></trkpt><trkpt lat="34.3198296" lon="8.1680076"><ele>99.66666666666666</ele><time>2026-04-30T17:17:19.761Z</time></trkpt><trkpt lat="34.3198668" lon="8.1680912"><ele>100.0</ele><time>2026-04-30T17:17:20.753Z</time></trkpt><trkpt lat="34.3199017" lon="8.1681644"><ele>100.33333333333333</ele><time>2026-04-30T17:17:21.755Z</time></trkpt><trkpt lat="34.3199397" lon="8.1682439"><ele>100.66666666666666</ele><time>2026-04-30T17:17:22.756Z</time></trkpt><trkpt lat="34.3199749" lon="8.1683193"><ele>101.0</ele><time>2026-04-30T17:17:23.753Z</time></trkpt><trkpt lat="34.3200149" lon="8.1684006"><ele>101.49999999999999</ele><time>2026-04-30T17:17:24.749Z</time></trkpt><trkpt lat="34.3200551" lon="8.1684836"><ele>102.0</ele><time>2026-04-30T17:17:25.752Z</time></trkpt><trkpt lat="34.3200979" lon="8.1685675"><ele>102.5</ele><time>2026-04-30T17:17:26.755Z</time></trkpt><trkpt lat="34.320143" lon="8.1686432"><ele>103.0</ele><time>2026-04-30T17:17:27.749Z</time></trkpt><trkpt lat="34.3201863" lon="8.1687165"><ele>103.49999999999999</ele><time>2026-04-30T17:17:28.738Z</time></trkpt><trkpt lat="34.3202241" lon="8.1687868"><ele>104.0</ele><time>2026-04-30T17:17:29.764Z</time></trkpt><trkpt lat="34.3202657" lon="8.1688679"><ele>103.99999999999999</ele><time>2026-04-30T17:17:30.727Z</time></trkpt><trkpt lat="34.3203125" lon="8.168959"><ele>104.0</ele><time>2026-04-30T17:17:31.76Z</time></trkpt><trkpt lat="34.3203659" lon="8.1690428"><ele>104.0</ele><time>2026-04-30T17:17:32.728Z</time></trkpt><trkpt lat="34.3204097" lon="8.169122"><ele>104.0</ele><time>2026-04-30T17:17:33.753Z</time></trkpt><trkpt lat="34.3204566" lon="8.1691993"><ele>103.99999999999999</ele><time>2026-04-30T17:17:34.735Z</time></trkpt><trkpt lat="34.3205065" lon="8.1693014"><ele>104.0</ele><time>2026-04-30T17:17:35.723Z</time></trkpt><trkpt lat="34.3205553" lon="8.1694041"><ele>104.80000000000001</ele><time>2026-04-30T17:17:36.752Z</time></trkpt><trkpt lat="34.3206077" lon="8.1695028"><ele>105.60000000000001</ele><time>2026-04-30T17:17:37.748Z</time></trkpt><trkpt lat="34.3206583" lon="8.1696041"><ele>106.4</ele><time>2026-04-30T17:17:38.756Z</time></trkpt><trkpt lat="34.3207068" lon="8.1697012"><ele>107.2</ele><time>2026-04-30T17:17:39.749Z</time></trkpt><trkpt lat="34.3207541" lon="8.1697943"><ele>108.0</ele><time>2026-04-30T17:17:40.77Z</time></trkpt><trkpt lat="34.3208004" lon="8.1698896"><ele>108.60000000000001</ele><time>2026-04-30T17:17:41.755Z</time></trkpt><trkpt lat="34.3208497" lon="8.1699876"><ele>109.20000000000002</ele><time>2026-04-30T17:17:42.75Z</time></trkpt><trkpt lat="34.3208991" lon="8.1700787"><ele>109.8</ele><time>2026-04-30T17:17:43.758Z</time></trkpt><trkpt lat="34.3209504" lon="8.1701624"><ele>110.4</ele><time>2026-04-30T17:17:44.74Z</time></trkpt><trkpt lat="34.321007" lon="8.170249"><ele>111.0</ele><time>2026-04-30T17:17:45.747Z</time></trkpt><trkpt lat="34.3210672" lon="8.1703268"><ele>111.0</ele><time>2026-04-30T17:17:46.745Z</time></trkpt><trkpt lat="34.3211267" lon="8.1703972"><ele>111.0</ele><time>2026-04-30T17:17:47.756Z</time></trkpt><trkpt lat="34.3211801" lon="8.1704728"><ele>111.0</ele><time>2026-04-30T17:17:48.72Z</time></trkpt><trkpt lat="34.3212253" lon="8.1705606"><ele>111.0</ele><time>2026-04-30T17:17:49.753Z</time></trkpt><trkpt lat="34.3212724" lon="8.1706484"><ele>111.0</ele><time>2026-04-30T17:17:50.753Z</time></trkpt><trkpt lat="34.3213191" lon="8.1707317"><ele>111.0</ele><time>2026-04-30T17:17:51.762Z</time></trkpt><trkpt lat="34.3213642" lon="8.1708158"><ele>112.4</ele><time>2026-04-30T17:17:52.738Z</time></trkpt><trkpt lat="34.3214085" lon="8.1709033"><ele>113.8</ele><time>2026-04-30T17:17:53.753Z</time></trkpt><trkpt lat="34.3214491" lon="8.1709989"><ele>115.20000000000002</ele><time>2026-04-30T17:17:54.751Z</time></trkpt><trkpt lat="34.3214937" lon="8.1710986"><ele>116.60000000000001</ele><time>2026-04-30T17:17:55.751Z</time></trkpt><trkpt lat="34.3215434" lon="8.1711981"><ele>118.0</ele><time>2026-04-30T17:17:56.759Z</time></trkpt><trkpt lat="34.3215853" lon="8.1713026"><ele>118.0</ele><time>2026-04-30T17:17:57.747Z</time></trkpt><trkpt lat="34.3216295" lon="8.1714172"><ele>118.00000000000001</ele><time>2026-04-30T17:17:58.74Z</time></trkpt><trkpt lat="34.3216646" lon="8.1715299"><ele>118.00000000000001</ele><time>2026-04-30T17:17:59.748Z</time></trkpt><trkpt lat="34.3217078" lon="8.1716295"><ele>118.0</ele><time>2026-04-30T17:18:00.748Z</time></trkpt><trkpt lat="34.3217502" lon="8.171725"><ele>118.0</ele><time>2026-04-30T17:18:01.751Z</time></trkpt><trkpt lat="34.3217995" lon="8.1718185"><ele>118.00000000000001</ele><time>2026-04-30T17:18:02.706Z</time></trkpt><trkpt lat="34.321848" lon="8.1719062"><ele>118.0</ele><time>2026-04-30T17:18:03.759Z</time></trkpt><trkpt lat="34.3218942" lon="8.1719865"><ele>118.0</ele><time>2026-04-30T17:18:04.723Z</time></trkpt><trkpt lat="34.3219425" lon="8.1720605"><ele>118.0</ele><time>2026-04-30T17:18:05.754Z</time></trkpt><trkpt lat="34.3219923" lon="8.1721317"><ele>118.00000000000001</ele><time>2026-04-30T17:18:06.759Z</time></trkpt><trkpt lat="34.3220368" lon="8.1722071"><ele>118.0</ele><time>2026-04-30T17:18:07.758Z</time></trkpt><trkpt lat="34.3220786" lon="8.1722876"><ele>118.4</ele><time>2026-04-30T17:18:08.768Z</time></trkpt><trkpt lat="34.3221184" lon="8.1723738"><ele>118.80000000000001</ele><time>2026-04-30T17:18:09.755Z</time></trkpt><trkpt lat="34.3221632" lon="8.1724638"><ele>119.2</ele><time>2026-04-30T17:18:10.758Z</time></trkpt><trkpt lat="34.3222142" lon="8.1725555"><ele>119.6</ele><time>2026-04-30T17:18:11.745Z</time></trkpt><trkpt lat="34.3222706" lon="8.1726434"><ele>120.0</ele><time>2026-04-30T17:18:12.741Z</time></trkpt><trkpt lat="34.3223448" lon="8.1727283"><ele>120.83333333333333</ele><time>2026-04-30T17:18:13.742Z</time></trkpt><trkpt lat="34.3224153" lon="8.1728036"><ele>121.66666666666666</ele><time>2026-04-30T17:18:14.75Z</time></trkpt><trkpt lat="34.3224823" lon="8.1728764"><ele>122.5</ele><time>2026-04-30T17:18:15.739Z</time></trkpt><trkpt lat="34.3225528" lon="8.1729428"><ele>123.33333333333333</ele><time>2026-04-30T17:18:16.748Z</time></trkpt><trkpt lat="34.322619" lon="8.1730059"><ele>124.16666666666666</ele><time>2026-04-30T17:18:17.762Z</time></trkpt><trkpt lat="34.3226859" lon="8.1730639"><ele>125.0</ele><time>2026-04-30T17:18:18.709Z</time></trkpt><trkpt lat="34.3227548" lon="8.173122"><ele>124.99999999999999</ele><time>2026-04-30T17:18:19.754Z</time></trkpt><trkpt lat="34.322823" lon="8.1731778"><ele>125.0</ele><time>2026-04-30T17:18:20.75Z</time></trkpt><trkpt lat="34.3228882" lon="8.1732245"><ele>125.0</ele><time>2026-04-30T17:18:21.756Z</time></trkpt><trkpt lat="34.3229647" lon="8.173271"><ele>125.0</ele><time>2026-04-30T17:18:22.751Z</time></trkpt><trkpt lat="34.3230399" lon="8.1733031"><ele>124.99999999999999</ele><time>2026-04-30T17:18:23.74Z</time></trkpt><trkpt lat="34.3231217" lon="8.1733343"><ele>125.0</ele><time>2026-04-30T17:18:24.755Z</time></trkpt><trkpt lat="34.3232062" lon="8.1733524"><ele>125.33333333333333</ele><time>2026-04-30T17:18:25.753Z</time></trkpt><trkpt lat="34.3232951" lon="8.1733665"><ele>125.66666666666666</ele><time>2026-04-30T17:18:26.755Z</time></trkpt><trkpt lat="34.3233774" lon="8.1733792"><ele>126.0</ele><time>2026-04-30T17:18:27.746Z</time></trkpt><trkpt lat="34.3234589" lon="8.1733843"><ele>126.33333333333334</ele><time>2026-04-30T17:18:28.753Z</time></trkpt><trkpt lat="34.3235357" lon="8.173379"><ele>126.66666666666667</ele><time>2026-04-30T17:18:29.759Z</time></trkpt><trkpt lat="34.3236144" lon="8.1733724"><ele>127.0</ele><time>2026-04-30T17:18:30.772Z</time></trkpt><trkpt lat="34.3236934" lon="8.1733747"><ele>127.00000000000001</ele><time>2026-04-30T17:18:31.754Z</time></trkpt><trkpt lat="34.3237773" lon="8.1733775"><ele>127.0</ele><time>2026-04-30T17:18:32.757Z</time></trkpt><trkpt lat="34.3238645" lon="8.173374"><ele>127.0</ele><time>2026-04-30T17:18:33.75Z</time></trkpt><trkpt lat="34.3239411" lon="8.1733856"><ele>127.0</ele><time>2026-04-30T17:18:34.781Z</time></trkpt><trkpt lat="34.3240127" lon="8.1734054"><ele>127.00000000000001</ele><time>2026-04-30T17:18:35.738Z</time></trkpt><trkpt lat="34.3240737" lon="8.1734358"><ele>127.0</ele><time>2026-04-30T17:18:36.741Z</time></trkpt><trkpt lat="34.3241348" lon="8.1734664"><ele>128.0</ele><time>2026-04-30T17:18:37.751Z</time></trkpt><trkpt lat="34.3241963" lon="8.1734957"><ele>129.0</ele><time>2026-04-30T17:18:38.748Z</time></trkpt><trkpt lat="34.3242588" lon="8.1735241"><ele>130.0</ele><time>2026-04-30T17:18:39.762Z</time></trkpt><trkpt lat="34.3243198" lon="8.1735541"><ele>131.0</ele><time>2026-04-30T17:18:40.767Z</time></trkpt><trkpt lat="34.3243871" lon="8.1735852"><ele>132.0</ele><time>2026-04-30T17:18:41.769Z</time></trkpt><trkpt lat="34.3244567" lon="8.1736142"><ele>133.0</ele><time>2026-04-30T17:18:42.742Z</time></trkpt><trkpt lat="34.3245269" lon="8.1736347"><ele>134.0</ele><time>2026-04-30T17:18:43.709Z</time></trkpt><trkpt lat="34.3246026" lon="8.1736371"><ele>134.0</ele><time>2026-04-30T17:18:44.722Z</time></trkpt><trkpt lat="34.3246749" lon="8.1736296"><ele>134.0</ele><time>2026-04-30T17:18:45.72Z</time></trkpt><trkpt lat="34.3247391" lon="8.1736243"><ele>134.0</ele><time>2026-04-30T17:18:46.719Z</time></trkpt><trkpt lat="34.3248059" lon="8.1736109"><ele>134.0</ele><time>2026-04-30T17:18:47.763Z</time></trkpt><trkpt lat="34.3248756" lon="8.1736089"><ele>134.0</ele><time>2026-04-30T17:18:48.757Z</time></trkpt><trkpt lat="34.3249517" lon="8.1736075"><ele>134.0</ele><time>2026-04-30T17:18:49.721Z</time></trkpt><trkpt lat="34.3250287" lon="8.1736125"><ele>134.0</ele><time>2026-04-30T17:18:50.744Z</time></trkpt><trkpt lat="34.3250941" lon="8.1736193"><ele>135.0</ele><time>2026-04-30T17:18:51.771Z</time></trkpt><trkpt lat="34.3251563" lon="8.1736373"><ele>136.0</ele><time>2026-04-30T17:18:52.755Z</time></trkpt><trkpt lat="34.3252712" lon="8.1736773"><ele>137.0</ele><time>2026-04-30T17:18:54.712Z</time></trkpt><trkpt lat="34.3253833" lon="8.1737221"><ele>138.0</ele><time>2026-04-30T17:18:56.709Z</time></trkpt><trkpt lat="34.3254977" lon="8.1737768"><ele>139.0</ele><time>2026-04-30T17:18:58.758Z</time></trkpt><trkpt lat="34.3255616" lon="8.173819"><ele>138.66666666666669</ele><time>2026-04-30T17:18:59.745Z</time></trkpt><trkpt lat="34.3256243" lon="8.1738677"><ele>138.33333333333334</ele><time>2026-04-30T17:19:00.742Z</time></trkpt><trkpt lat="34.3256923" lon="8.1739151"><ele>138.0</ele><time>2026-04-30T17:19:01.752Z</time></trkpt><trkpt lat="34.3257572" lon="8.173972"><ele>137.66666666666666</ele><time>2026-04-30T17:19:02.739Z</time></trkpt><trkpt lat="34.3258215" lon="8.1740237"><ele>137.33333333333331</ele><time>2026-04-30T17:19:03.738Z</time></trkpt><trkpt lat="34.3258876" lon="8.1740735"><ele>137.0</ele><time>2026-04-30T17:19:04.74Z</time></trkpt><trkpt lat="34.3259595" lon="8.1741165"><ele>137.0</ele><time>2026-04-30T17:19:05.697Z</time></trkpt><trkpt lat="34.3260243" lon="8.1741473"><ele>137.0</ele><time>2026-04-30T17:19:06.756Z</time></trkpt><trkpt lat="34.3260862" lon="8.1741735"><ele>137.0</ele><time>2026-04-30T17:19:07.751Z</time></trkpt><trkpt lat="34.3261799" lon="8.1742332"><ele>137.0</ele><time>2026-04-30T17:19:09.758Z</time></trkpt><trkpt lat="34.3262281" lon="8.1742884"><ele>137.0</ele><time>2026-04-30T17:19:11.741Z</time></trkpt><trkpt lat="34.3262891" lon="8.1743355"><ele>137.0</ele><time>2026-04-30T17:19:14.76Z</time></trkpt><trkpt lat="34.3263845" lon="8.1743668"><ele>138.33333333333331</ele><time>2026-04-30T17:19:17.727Z</time></trkpt><trkpt lat="34.32645" lon="8.1743996"><ele>139.66666666666666</ele><time>2026-04-30T17:19:19.744Z</time></trkpt><trkpt lat="34.3265274" lon="8.1744369"><ele>141.0</ele><time>2026-04-30T17:19:22.728Z</time></trkpt><trkpt lat="34.3266063" lon="8.1744811"><ele>142.33333333333334</ele><time>2026-04-30T17:19:28.723Z</time></trkpt><trkpt lat="34.3267241" lon="8.1745285"><ele>143.66666666666669</ele><time>2026-04-30T17:19:30.733Z</time></trkpt><trkpt lat="34.326794" lon="8.1745583"><ele>145.0</ele><time>2026-04-30T17:19:31.711Z</time></trkpt><trkpt lat="34.3268684" lon="8.1745999"><ele>145.0</ele><time>2026-04-30T17:19:32.753Z</time></trkpt><trkpt lat="34.3269464" lon="8.174654"><ele>145.0</ele><time>2026-04-30T17:19:33.735Z</time></trkpt><trkpt lat="34.3270166" lon="8.1747066"><ele>145.0</ele><time>2026-04-30T17:19:34.721Z</time></trkpt><trkpt lat="34.3270767" lon="8.1747613"><ele>145.0</ele><time>2026-04-30T17:19:35.731Z</time></trkpt><trkpt lat="34.3271392" lon="8.1748234"><ele>145.0</ele><time>2026-04-30T17:19:36.708Z</time></trkpt><trkpt lat="34.3271961" lon="8.1749077"><ele>145.0</ele><time>2026-04-30T17:19:37.762Z</time></trkpt><trkpt lat="34.3272491" lon="8.1749969"><ele>145.66666666666669</ele><time>2026-04-30T17:19:38.755Z</time></trkpt><trkpt lat="34.3273057" lon="8.1750816"><ele>146.33333333333334</ele><time>2026-04-30T17:19:39.747Z</time></trkpt><trkpt lat="34.3273614" lon="8.1751672"><ele>147.0</ele><time>2026-04-30T17:19:40.752Z</time></trkpt><trkpt lat="34.32742" lon="8.175252"><ele>147.66666666666666</ele><time>2026-04-30T17:19:41.746Z</time></trkpt><trkpt lat="34.3274788" lon="8.1753337"><ele>148.33333333333331</ele><time>2026-04-30T17:19:42.758Z</time></trkpt><trkpt lat="34.3275224" lon="8.1754084"><ele>149.0</ele><time>2026-04-30T17:19:43.718Z</time></trkpt><trkpt lat="34.3275606" lon="8.1754935"><ele>149.0</ele><time>2026-04-30T17:19:44.742Z</time></trkpt><trkpt lat="34.3275895" lon="8.1755839"><ele>149.0</ele><time>2026-04-30T17:19:45.73Z</time></trkpt><trkpt lat="34.3276298" lon="8.1756656"><ele>149.0</ele><time>2026-04-30T17:19:46.725Z</time></trkpt><trkpt lat="34.3276671" lon="8.1757357"><ele>149.0</ele><time>2026-04-30T17:19:47.75Z</time></trkpt><trkpt lat="34.3277124" lon="8.1757988"><ele>149.0</ele><time>2026-04-30T17:19:48.759Z</time></trkpt><trkpt lat="34.3277705" lon="8.175856"><ele>149.0</ele><time>2026-04-30T17:19:49.739Z</time></trkpt><trkpt lat="34.3278359" lon="8.1759222"><ele>149.5</ele><time>2026-04-30T17:19:50.747Z</time></trkpt><trkpt lat="34.3279078" lon="8.1759905"><ele>150.0</ele><time>2026-04-30T17:19:51.748Z</time></trkpt><trkpt lat="34.3279893" lon="8.1760513"><ele>150.5</ele><time>2026-04-30T17:19:52.742Z</time></trkpt><trkpt lat="34.3280662" lon="8.1761133"><ele>151.0</ele><time>2026-04-30T17:19:53.747Z</time></trkpt><trkpt lat="34.3281411" lon="8.176171"><ele>151.5</ele><time>2026-04-30T17:19:54.723Z</time></trkpt><trkpt lat="34.3282055" lon="8.1762223"><ele>152.0</ele><time>2026-04-30T17:19:55.754Z</time></trkpt><trkpt lat="34.3282614" lon="8.1762768"><ele>152.66666666666666</ele><time>2026-04-30T17:19:56.741Z</time></trkpt><trkpt lat="34.3283074" lon="8.1763396"><ele>153.33333333333331</ele><time>2026-04-30T17:19:57.737Z</time></trkpt><trkpt lat="34.3283478" lon="8.1764139"><ele>154.0</ele><time>2026-04-30T17:19:58.745Z</time></trkpt><trkpt lat="34.328372" lon="8.1764954"><ele>154.66666666666666</ele><time>2026-04-30T17:19:59.732Z</time></trkpt><trkpt lat="34.3283855" lon="8.1765908"><ele>155.33333333333334</ele><time>2026-04-30T17:20:00.687Z</time></trkpt><trkpt lat="34.3283938" lon="8.1766846"><ele>156.0</ele><time>2026-04-30T17:20:01.734Z</time></trkpt><trkpt lat="34.3284035" lon="8.1767792"><ele>156.14285714285714</ele><time>2026-04-30T17:20:02.724Z</time></trkpt><trkpt lat="34.3284112" lon="8.1768705"><ele>156.28571428571428</ele><time>2026-04-30T17:20:03.744Z</time></trkpt><trkpt lat="34.3284245" lon="8.1769622"><ele>156.42857142857142</ele><time>2026-04-30T17:20:04.741Z</time></trkpt><trkpt lat="34.3284485" lon="8.177045"><ele>156.57142857142856</ele><time>2026-04-30T17:20:05.725Z</time></trkpt><trkpt lat="34.3284768" lon="8.1771223"><ele>156.71428571428572</ele><time>2026-04-30T17:20:06.745Z</time></trkpt><trkpt lat="34.3285025" lon="8.177198"><ele>156.85714285714283</ele><time>2026-04-30T17:20:07.746Z</time></trkpt><trkpt lat="34.3285204" lon="8.177279"><ele>157.0</ele><time>2026-04-30T17:20:08.743Z</time></trkpt><trkpt lat="34.3285335" lon="8.1773665"><ele>158.16666666666669</ele><time>2026-04-30T17:20:09.765Z</time></trkpt><trkpt lat="34.3285366" lon="8.1774599"><ele>159.33333333333334</ele><time>2026-04-30T17:20:10.73Z</time></trkpt><trkpt lat="34.3285434" lon="8.1775573"><ele>160.5</ele><time>2026-04-30T17:20:11.743Z</time></trkpt><trkpt lat="34.3285393" lon="8.1776507"><ele>161.66666666666666</ele><time>2026-04-30T17:20:12.742Z</time></trkpt><trkpt lat="34.3285345" lon="8.177738"><ele>162.83333333333331</ele><time>2026-04-30T17:20:13.722Z</time></trkpt><trkpt lat="34.3285202" lon="8.1778286"><ele>164.0</ele><time>2026-04-30T17:20:14.717Z</time></trkpt><trkpt lat="34.3285037" lon="8.1779142"><ele>163.99999999999997</ele><time>2026-04-30T17:20:15.76Z</time></trkpt><trkpt lat="34.3285024" lon="8.1780038"><ele>164.0</ele><time>2026-04-30T17:20:16.705Z</time></trkpt><trkpt lat="34.3285226" lon="8.1781026"><ele>164.0</ele><time>2026-04-30T17:20:17.723Z</time></trkpt><trkpt lat="34.3285369" lon="8.1781979"><ele>164.0</ele><time>2026-04-30T17:20:18.742Z</time></trkpt><trkpt lat="34.3285299" lon="8.178288"><ele>164.0</ele><time>2026-04-30T17:20:19.742Z</time></trkpt><trkpt lat="34.3285151" lon="8.1783624"><ele>163.99999999999997</ele><time>2026-04-30T17:20:20.736Z</time></trkpt><trkpt lat="34.3285105" lon="8.1784429"><ele>164.0</ele><time>2026-04-30T17:20:21.735Z</time></trkpt><trkpt lat="34.3285112" lon="8.1785387"><ele>164.2</ele><time>2026-04-30T17:20:22.731Z</time></trkpt><trkpt lat="34.3285355" lon="8.1786434"><ele>164.39999999999998</ele><time>2026-04-30T17:20:23.744Z</time></trkpt><trkpt lat="34.328562" lon="8.1787581"><ele>164.6</ele><time>2026-04-30T17:20:24.746Z</time></trkpt><trkpt lat="34.328585" lon="8.1788751"><ele>164.8</ele><time>2026-04-30T17:20:25.754Z</time></trkpt><trkpt lat="34.3286049" lon="8.1790072"><ele>165.0</ele><time>2026-04-30T17:20:26.727Z</time></trkpt><trkpt lat="34.3286131" lon="8.1791572"><ele>165.0</ele><time>2026-04-30T17:20:27.751Z</time></trkpt><trkpt lat="34.3286055" lon="8.179285"><ele>165.0</ele><time>2026-04-30T17:20:28.757Z</time></trkpt><trkpt lat="34.3286059" lon="8.1794062"><ele>165.0</ele><time>2026-04-30T17:20:29.732Z</time></trkpt><trkpt lat="34.3286112" lon="8.1795239"><ele>165.0</ele><time>2026-04-30T17:20:30.736Z</time></trkpt><trkpt lat="34.3286" lon="8.1796353"><ele>165.0</ele><time>2026-04-30T17:20:31.735Z</time></trkpt><trkpt lat="34.3285874" lon="8.1797465"><ele>166.0</ele><time>2026-04-30T17:20:32.757Z</time></trkpt><trkpt lat="34.3285902" lon="8.179856"><ele>167.0</ele><time>2026-04-30T17:20:33.742Z</time></trkpt><trkpt lat="34.3286007" lon="8.1799638"><ele>168.0</ele><time>2026-04-30T17:20:34.748Z</time></trkpt><trkpt lat="34.3286273" lon="8.1800709"><ele>169.0</ele><time>2026-04-30T17:20:35.751Z</time></trkpt><trkpt lat="34.3286578" lon="8.1801861"><ele>170.0</ele><time>2026-04-30T17:20:36.745Z</time></trkpt><trkpt lat="34.3286925" lon="8.1802982"><ele>170.0</ele><time>2026-04-30T17:20:37.745Z</time></trkpt><trkpt lat="34.3287158" lon="8.1804091"><ele>170.0</ele><time>2026-04-30T17:20:38.752Z</time></trkpt><trkpt lat="34.3287509" lon="8.1805222"><ele>170.0</ele><time>2026-04-30T17:20:39.747Z</time></trkpt><trkpt lat="34.3287758" lon="8.1806407"><ele>170.0</ele><time>2026-04-30T17:20:40.749Z</time></trkpt><trkpt lat="34.3287959" lon="8.1807596"><ele>170.0</ele><time>2026-04-30T17:20:41.747Z</time></trkpt><trkpt lat="34.3288163" lon="8.1808739"><ele>171.0</ele><time>2026-04-30T17:20:42.746Z</time></trkpt><trkpt lat="34.3288365" lon="8.1809838"><ele>172.0</ele><time>2026-04-30T17:20:43.703Z</time></trkpt><trkpt lat="34.3288533" lon="8.1810895"><ele>173.0</ele><time>2026-04-30T17:20:44.735Z</time></trkpt><trkpt lat="34.3288775" lon="8.1811999"><ele>174.0</ele><time>2026-04-30T17:20:45.757Z</time></trkpt><trkpt lat="34.32891" lon="8.1812896"><ele>175.0</ele><time>2026-04-30T17:20:46.737Z</time></trkpt><trkpt lat="34.3289512" lon="8.1813749"><ele>176.0</ele><time>2026-04-30T17:20:47.717Z</time></trkpt><trkpt lat="34.3289965" lon="8.1814356"><ele>175.60000000000002</ele><time>2026-04-30T17:20:48.743Z</time></trkpt><trkpt lat="34.3290747" lon="8.1815272"><ele>175.2</ele><time>2026-04-30T17:20:50.734Z</time></trkpt><trkpt lat="34.3291756" lon="8.1815729"><ele>174.8</ele><time>2026-04-30T17:20:52.743Z</time></trkpt><trkpt lat="34.329237" lon="8.1816048"><ele>174.39999999999998</ele><time>2026-04-30T17:20:53.733Z</time></trkpt><trkpt lat="34.3293446" lon="8.1816761"><ele>174.0</ele><time>2026-04-30T17:20:55.739Z</time></trkpt><trkpt lat="34.3293913" lon="8.1817292"><ele>174.0</ele><time>2026-04-30T17:20:56.734Z</time></trkpt><trkpt lat="34.3294352" lon="8.1817911"><ele>174.0</ele><time>2026-04-30T17:20:57.754Z</time></trkpt><trkpt lat="34.3294671" lon="8.1818661"><ele>174.0</ele><time>2026-04-30T17:20:58.748Z</time></trkpt><trkpt lat="34.3294953" lon="8.1819361"><ele>174.0</ele><time>2026-04-30T17:20:59.747Z</time></trkpt><trkpt lat="34.32956" lon="8.1820536"><ele>174.0</ele><time>2026-04-30T17:21:01.736Z</time></trkpt><trkpt lat="34.329645" lon="8.182168"><ele>174.0</ele><time>2026-04-30T17:21:03.751Z</time></trkpt><trkpt lat="34.3297029" lon="8.1822207"><ele>174.16666666666666</ele><time>2026-04-30T17:21:04.746Z</time></trkpt><trkpt lat="34.3297695" lon="8.1822654"><ele>174.33333333333334</ele><time>2026-04-30T17:21:05.753Z</time></trkpt><trkpt lat="34.3298306" lon="8.182308"><ele>174.5</ele><time>2026-04-30T17:21:06.755Z</time></trkpt><trkpt lat="34.3298886" lon="8.1823564"><ele>174.66666666666669</ele><time>2026-04-30T17:21:07.725Z</time></trkpt><trkpt lat="34.3299479" lon="8.182393"><ele>174.83333333333334</ele><time>2026-04-30T17:21:08.757Z</time></trkpt><trkpt lat="34.3300788" lon="8.1824345"><ele>175.0</ele><time>2026-04-30T17:21:10.749Z</time></trkpt><trkpt lat="34.3301558" lon="8.1824455"><ele>175.0</ele><time>2026-04-30T17:21:11.762Z</time></trkpt><trkpt lat="34.3302338" lon="8.1824446"><ele>175.0</ele><time>2026-04-30T17:21:12.738Z</time></trkpt><trkpt lat="34.3303082" lon="8.1824291"><ele>175.0</ele><time>2026-04-30T17:21:13.741Z</time></trkpt><trkpt lat="34.3303771" lon="8.1823954"><ele>175.0</ele><time>2026-04-30T17:21:14.76Z</time></trkpt><trkpt lat="34.3304334" lon="8.1823475"><ele>175.0</ele><time>2026-04-30T17:21:15.751Z</time></trkpt><trkpt lat="34.330484" lon="8.1823016"><ele>175.0</ele><time>2026-04-30T17:21:16.741Z</time></trkpt><trkpt lat="34.3305924" lon="8.1822565"><ele>175.4</ele><time>2026-04-30T17:21:18.747Z</time></trkpt><trkpt lat="34.3306599" lon="8.1822636"><ele>175.8</ele><time>2026-04-30T17:21:19.77Z</time></trkpt><trkpt lat="34.3307402" lon="8.1822948"><ele>176.2</ele><time>2026-04-30T17:21:20.747Z</time></trkpt><trkpt lat="34.3308167" lon="8.1823638"><ele>176.6</ele><time>2026-04-30T17:21:21.754Z</time></trkpt><trkpt lat="34.3308875" lon="8.1824575"><ele>177.0</ele><time>2026-04-30T17:21:22.745Z</time></trkpt><trkpt lat="34.3309512" lon="8.1825559"><ele>177.0</ele><time>2026-04-30T17:21:23.76Z</time></trkpt><trkpt lat="34.3310019" lon="8.1826603"><ele>177.0</ele><time>2026-04-30T17:21:24.753Z</time></trkpt><trkpt lat="34.3310564" lon="8.1827634"><ele>177.0</ele><time>2026-04-30T17:21:25.738Z</time></trkpt><trkpt lat="34.3311013" lon="8.1828712"><ele>177.0</ele><time>2026-04-30T17:21:26.761Z</time></trkpt><trkpt lat="34.3311396" lon="8.1829688"><ele>177.0</ele><time>2026-04-30T17:21:27.725Z</time></trkpt><trkpt lat="34.3311805" lon="8.1830582"><ele>177.0</ele><time>2026-04-30T17:21:28.698Z</time></trkpt><trkpt lat="34.3312204" lon="8.1831481"><ele>177.0</ele><time>2026-04-30T17:21:29.729Z</time></trkpt><trkpt lat="34.3312604" lon="8.1832316"><ele>177.0</ele><time>2026-04-30T17:21:30.748Z</time></trkpt><trkpt lat="34.3312971" lon="8.1833219"><ele>177.0</ele><time>2026-04-30T17:21:31.752Z</time></trkpt><trkpt lat="34.331333" lon="8.1834236"><ele>177.0</ele><time>2026-04-30T17:21:32.736Z</time></trkpt><trkpt lat="34.33138" lon="8.1835275"><ele>177.0</ele><time>2026-04-30T17:21:33.742Z</time></trkpt><trkpt lat="34.3314211" lon="8.1836241"><ele>177.33333333333334</ele><time>2026-04-30T17:21:34.732Z</time></trkpt><trkpt lat="34.3314661" lon="8.18372"><ele>177.66666666666666</ele><time>2026-04-30T17:21:35.73Z</time></trkpt><trkpt lat="34.3315073" lon="8.1838116"><ele>178.0</ele><time>2026-04-30T17:21:36.743Z</time></trkpt><trkpt lat="34.3315472" lon="8.1839017"><ele>178.33333333333331</ele><time>2026-04-30T17:21:37.718Z</time></trkpt><trkpt lat="34.3316012" lon="8.1839881"><ele>178.66666666666666</ele><time>2026-04-30T17:21:38.739Z</time></trkpt><trkpt lat="34.3316522" lon="8.1840612"><ele>179.0</ele><time>2026-04-30T17:21:39.719Z</time></trkpt><trkpt lat="34.3317033" lon="8.1841354"><ele>180.0</ele><time>2026-04-30T17:21:40.742Z</time></trkpt><trkpt lat="34.3317502" lon="8.1842142"><ele>181.0</ele><time>2026-04-30T17:21:41.743Z</time></trkpt><trkpt lat="34.3317967" lon="8.184306"><ele>182.0</ele><time>2026-04-30T17:21:42.753Z</time></trkpt><trkpt lat="34.3318417" lon="8.1843914"><ele>183.0</ele><time>2026-04-30T17:21:43.755Z</time></trkpt><trkpt lat="34.3318872" lon="8.1844819"><ele>184.0</ele><time>2026-04-30T17:21:44.739Z</time></trkpt><trkpt lat="34.3319365" lon="8.1845658"><ele>185.0</ele><time>2026-04-30T17:21:45.724Z</time></trkpt><trkpt lat="34.3319941" lon="8.1846372"><ele>185.0</ele><time>2026-04-30T17:21:46.732Z</time></trkpt><trkpt lat="34.3320448" lon="8.1847206"><ele>185.0</ele><time>2026-04-30T17:21:47.741Z</time></trkpt><trkpt lat="34.3320838" lon="8.1848167"><ele>185.0</ele><time>2026-04-30T17:21:48.714Z</time></trkpt><trkpt lat="34.3321176" lon="8.1848913"><ele>185.0</ele><time>2026-04-30T17:21:49.759Z</time></trkpt><trkpt lat="34.3321622" lon="8.1850061"><ele>185.0</ele><time>2026-04-30T17:21:51.742Z</time></trkpt><trkpt lat="34.3322587" lon="8.185052"><ele>185.5</ele><time>2026-04-30T17:21:53.738Z</time></trkpt><trkpt lat="34.3323738" lon="8.1850041"><ele>186.0</ele><time>2026-04-30T17:21:55.741Z</time></trkpt><trkpt lat="34.3324475" lon="8.1849056"><ele>186.5</ele><time>2026-04-30T17:21:57.742Z</time></trkpt><trkpt lat="34.3325464" lon="8.1848527"><ele>187.0</ele><time>2026-04-30T17:21:59.752Z</time></trkpt><trkpt lat="34.3326573" lon="8.1848424"><ele>187.0</ele><time>2026-04-30T17:22:01.747Z</time></trkpt><trkpt lat="34.3327799" lon="8.1848047"><ele>187.0</ele><time>2026-04-30T17:22:03.747Z</time></trkpt><trkpt lat="34.3328489" lon="8.1847676"><ele>187.0</ele><time>2026-04-30T17:22:04.736Z</time></trkpt><trkpt lat="34.3329281" lon="8.1847242"><ele>187.0</ele><time>2026-04-30T17:22:05.755Z</time></trkpt><trkpt lat="34.3330084" lon="8.1846825"><ele>187.0</ele><time>2026-04-30T17:22:06.754Z</time></trkpt><trkpt lat="34.3330896" lon="8.184657"><ele>187.8</ele><time>2026-04-30T17:22:07.702Z</time></trkpt><trkpt lat="34.3331793" lon="8.1846311"><ele>188.6</ele><time>2026-04-30T17:22:08.745Z</time></trkpt><trkpt lat="34.333271" lon="8.1846027"><ele>189.4</ele><time>2026-04-30T17:22:09.744Z</time></trkpt><trkpt lat="34.3333546" lon="8.1845626"><ele>190.20000000000002</ele><time>2026-04-30T17:22:10.75Z</time></trkpt><trkpt lat="34.3334419" lon="8.1845239"><ele>191.0</ele><time>2026-04-30T17:22:11.756Z</time></trkpt><trkpt lat="34.3335328" lon="8.1844941"><ele>191.0</ele><time>2026-04-30T17:22:12.757Z</time></trkpt><trkpt lat="34.3336194" lon="8.1844695"><ele>191.0</ele><time>2026-04-30T17:22:13.751Z</time></trkpt><trkpt lat="34.3337056" lon="8.1844534"><ele>191.0</ele><time>2026-04-30T17:22:14.745Z</time></trkpt><trkpt lat="34.333791" lon="8.1844407"><ele>191.0</ele><time>2026-04-30T17:22:15.76Z</time></trkpt><trkpt lat="34.3338675" lon="8.1844286"><ele>191.0</ele><time>2026-04-30T17:22:16.708Z</time></trkpt><trkpt lat="34.3339442" lon="8.1844044"><ele>191.0</ele><time>2026-04-30T17:22:17.721Z</time></trkpt><trkpt lat="34.3340133" lon="8.1843773"><ele>195.20000000000002</ele><time>2026-04-30T17:22:18.757Z</time></trkpt><trkpt lat="34.3341163" lon="8.1843481"><ele>199.4</ele><time>2026-04-30T17:22:20.754Z</time></trkpt><trkpt lat="34.3341979" lon="8.1844215"><ele>203.6</ele><time>2026-04-30T17:22:22.736Z</time></trkpt><trkpt lat="34.3342369" lon="8.1844938"><ele>207.8</ele><time>2026-04-30T17:22:23.703Z</time></trkpt><trkpt lat="34.334279" lon="8.184572"><ele>212.0</ele><time>2026-04-30T17:22:24.742Z</time></trkpt><trkpt lat="34.3343145" lon="8.1846803"><ele>212.0</ele><time>2026-04-30T17:22:25.746Z</time></trkpt><trkpt lat="34.3343467" lon="8.1848166"><ele>212.0</ele><time>2026-04-30T17:22:26.753Z</time></trkpt><trkpt lat="34.334374" lon="8.1849704"><ele>212.0</ele><time>2026-04-30T17:22:27.728Z</time></trkpt><trkpt lat="34.3343968" lon="8.1851108"><ele>212.0</ele><time>2026-04-30T17:22:28.724Z</time></trkpt><trkpt lat="34.3344238" lon="8.1852452"><ele>212.0</ele><time>2026-04-30T17:22:29.743Z</time></trkpt><trkpt lat="34.3344531" lon="8.185379"><ele>212.0</ele><time>2026-04-30T17:22:30.713Z</time></trkpt><trkpt lat="34.3344849" lon="8.1854993"><ele>212.0</ele><time>2026-04-30T17:22:31.745Z</time></trkpt><trkpt lat="34.3345181" lon="8.1856189"><ele>212.0</ele><time>2026-04-30T17:22:32.749Z</time></trkpt><trkpt lat="34.3345479" lon="8.1857353"><ele>212.0</ele><time>2026-04-30T17:22:33.733Z</time></trkpt><trkpt lat="34.334573" lon="8.1858474"><ele>211.8</ele><time>2026-04-30T17:22:34.736Z</time></trkpt><trkpt lat="34.3345991" lon="8.1859561"><ele>211.6</ele><time>2026-04-30T17:22:35.753Z</time></trkpt><trkpt lat="34.3346268" lon="8.1860676"><ele>211.4</ele><time>2026-04-30T17:22:36.762Z</time></trkpt><trkpt lat="34.3346466" lon="8.1861722"><ele>211.20000000000002</ele><time>2026-04-30T17:22:37.754Z</time></trkpt><trkpt lat="34.3346709" lon="8.1862718"><ele>211.0</ele><time>2026-04-30T17:22:38.709Z</time></trkpt><trkpt lat="34.3346945" lon="8.1863716"><ele>215.99999999999997</ele><time>2026-04-30T17:22:39.738Z</time></trkpt><trkpt lat="34.334724" lon="8.1864676"><ele>221.0</ele><time>2026-04-30T17:22:40.724Z</time></trkpt><trkpt lat="34.3347499" lon="8.1865617"><ele>226.0</ele><time>2026-04-30T17:22:41.759Z</time></trkpt><trkpt lat="34.3347786" lon="8.1866592"><ele>231.0</ele><time>2026-04-30T17:22:42.748Z</time></trkpt><trkpt lat="34.3348074" lon="8.1867513"><ele>235.99999999999997</ele><time>2026-04-30T17:22:43.751Z</time></trkpt><trkpt lat="34.3348416" lon="8.1868331"><ele>241.0</ele><time>2026-04-30T17:22:44.753Z</time></trkpt><trkpt lat="34.3348706" lon="8.1869208"><ele>240.99999999999997</ele><time>2026-04-30T17:22:45.775Z</time></trkpt><trkpt lat="34.3348905" lon="8.1870184"><ele>241.0</ele><time>2026-04-30T17:22:46.739Z</time></trkpt><trkpt lat="34.3348939" lon="8.1871307"><ele>241.0</ele><time>2026-04-30T17:22:47.763Z</time></trkpt><trkpt lat="34.3348785" lon="8.1872351"><ele>241.0</ele><time>2026-04-30T17:22:48.755Z</time></trkpt><trkpt lat="34.3348637" lon="8.1873388"><ele>240.99999999999997</ele><time>2026-04-30T17:22:49.74Z</time></trkpt><trkpt lat="34.334846" lon="8.1874263"><ele>241.0</ele><time>2026-04-30T17:22:50.759Z</time></trkpt><trkpt lat="34.3348257" lon="8.1875044"><ele>240.99999999999997</ele><time>2026-04-30T17:22:51.754Z</time></trkpt><trkpt lat="34.3348167" lon="8.1876218"><ele>241.0</ele><time>2026-04-30T17:22:53.739Z</time></trkpt><trkpt lat="34.3348678" lon="8.1876961"><ele>241.0</ele><time>2026-04-30T17:22:55.748Z</time></trkpt><trkpt lat="34.3349328" lon="8.1876554"><ele>241.0</ele><time>2026-04-30T17:22:57.71Z</time></trkpt><trkpt lat="34.334982" lon="8.187526"><ele>240.99999999999997</ele><time>2026-04-30T17:22:59.741Z</time></trkpt><trkpt lat="34.3350114" lon="8.1874418"><ele>241.0</ele><time>2026-04-30T17:23:00.752Z</time></trkpt><trkpt lat="34.3350415" lon="8.1873415"><ele>241.0</ele><time>2026-04-30T17:23:01.742Z</time></trkpt><trkpt lat="34.3350705" lon="8.1872232"><ele>241.00000000000003</ele><time>2026-04-30T17:23:02.716Z</time></trkpt><trkpt lat="34.335094" lon="8.1871033"><ele>241.00000000000003</ele><time>2026-04-30T17:23:03.758Z</time></trkpt><trkpt lat="34.3351136" lon="8.186988"><ele>241.0</ele><time>2026-04-30T17:23:04.742Z</time></trkpt><trkpt lat="34.3351335" lon="8.1868689"><ele>241.0</ele><time>2026-04-30T17:23:05.762Z</time></trkpt><trkpt lat="34.3351468" lon="8.1867519"><ele>240.99999999999997</ele><time>2026-04-30T17:23:06.752Z</time></trkpt><trkpt lat="34.3351498" lon="8.1866392"><ele>241.0</ele><time>2026-04-30T17:23:07.742Z</time></trkpt><trkpt lat="34.3351545" lon="8.1865312"><ele>241.0</ele><time>2026-04-30T17:23:08.764Z</time></trkpt><trkpt lat="34.3351619" lon="8.1864357"><ele>241.0</ele><time>2026-04-30T17:23:09.757Z</time></trkpt><trkpt lat="34.3351872" lon="8.1863457"><ele>240.99999999999997</ele><time>2026-04-30T17:23:10.754Z</time></trkpt><trkpt lat="34.3352227" lon="8.1862618"><ele>241.0</ele><time>2026-04-30T17:23:11.742Z</time></trkpt><trkpt lat="34.335263" lon="8.1861824"><ele>241.49999999999997</ele><time>2026-04-30T17:23:12.723Z</time></trkpt><trkpt lat="34.3353024" lon="8.186096"><ele>242.0</ele><time>2026-04-30T17:23:13.762Z</time></trkpt><trkpt lat="34.3353349" lon="8.1860092"><ele>242.5</ele><time>2026-04-30T17:23:14.711Z</time></trkpt><trkpt lat="34.3353612" lon="8.1859288"><ele>243.0</ele><time>2026-04-30T17:23:15.736Z</time></trkpt><trkpt lat="34.3354058" lon="8.1858331"><ele>243.49999999999997</ele><time>2026-04-30T17:23:17.765Z</time></trkpt><trkpt lat="34.3354831" lon="8.1858117"><ele>244.0</ele><time>2026-04-30T17:23:19.751Z</time></trkpt><trkpt lat="34.3355226" lon="8.1858917"><ele>244.0</ele><time>2026-04-30T17:23:21.751Z</time></trkpt><trkpt lat="34.3355116" lon="8.1860329"><ele>243.99999999999997</ele><time>2026-04-30T17:23:23.704Z</time></trkpt><trkpt lat="34.3354933" lon="8.1861591"><ele>243.99999999999997</ele><time>2026-04-30T17:23:25.75Z</time></trkpt><trkpt lat="34.3355225" lon="8.1862294"><ele>244.0</ele><time>2026-04-30T17:23:27.698Z</time></trkpt><trkpt lat="34.3355866" lon="8.1862313"><ele>244.0</ele><time>2026-04-30T17:23:29.741Z</time></trkpt><trkpt lat="34.3356266" lon="8.1861216"><ele>244.2</ele><time>2026-04-30T17:23:31.747Z</time></trkpt><trkpt lat="34.3356454" lon="8.1860413"><ele>244.39999999999998</ele><time>2026-04-30T17:23:32.714Z</time></trkpt><trkpt lat="34.3356764" lon="8.1859422"><ele>244.6</ele><time>2026-04-30T17:23:33.724Z</time></trkpt><trkpt lat="34.3357101" lon="8.1858261"><ele>244.8</ele><time>2026-04-30T17:23:34.699Z</time></trkpt><trkpt lat="34.3357477" lon="8.1857152"><ele>245.0</ele><time>2026-04-30T17:23:35.702Z</time></trkpt><trkpt lat="34.3357748" lon="8.1855994"><ele>249.8</ele><time>2026-04-30T17:23:36.713Z</time></trkpt><trkpt lat="34.3357972" lon="8.1854858"><ele>254.6</ele><time>2026-04-30T17:23:37.724Z</time></trkpt><trkpt lat="34.3358271" lon="8.1853757"><ele>259.4</ele><time>2026-04-30T17:23:38.727Z</time></trkpt><trkpt lat="34.3358631" lon="8.1852675"><ele>264.2</ele><time>2026-04-30T17:23:39.745Z</time></trkpt><trkpt lat="34.3359012" lon="8.1851589"><ele>269.0</ele><time>2026-04-30T17:23:40.749Z</time></trkpt><trkpt lat="34.335948" lon="8.1850702"><ele>269.0</ele><time>2026-04-30T17:23:41.724Z</time></trkpt><trkpt lat="34.3359882" lon="8.1849839"><ele>269.0</ele><time>2026-04-30T17:23:42.745Z</time></trkpt><trkpt lat="34.3360253" lon="8.1848895"><ele>269.0</ele><time>2026-04-30T17:23:43.761Z</time></trkpt><trkpt lat="34.3360619" lon="8.1847951"><ele>269.0</ele><time>2026-04-30T17:23:44.738Z</time></trkpt><trkpt lat="34.3360837" lon="8.1847002"><ele>269.0</ele><time>2026-04-30T17:23:45.756Z</time></trkpt><trkpt lat="34.3360965" lon="8.1846026"><ele>269.0</ele><time>2026-04-30T17:23:46.725Z</time></trkpt><trkpt lat="34.3361068" lon="8.1844984"><ele>269.5</ele><time>2026-04-30T17:23:47.701Z</time></trkpt><trkpt lat="34.3361168" lon="8.184404"><ele>270.0</ele><time>2026-04-30T17:23:48.702Z</time></trkpt><trkpt lat="34.3361307" lon="8.1843022"><ele>270.5</ele><time>2026-04-30T17:23:49.75Z</time></trkpt><trkpt lat="34.3361501" lon="8.1841986"><ele>271.0</ele><time>2026-04-30T17:23:50.743Z</time></trkpt><trkpt lat="34.3361675" lon="8.1840986"><ele>271.5</ele><time>2026-04-30T17:23:51.749Z</time></trkpt><trkpt lat="34.3361928" lon="8.1839953"><ele>272.0</ele><time>2026-04-30T17:23:52.708Z</time></trkpt><trkpt lat="34.3362197" lon="8.1838877"><ele>272.0</ele><time>2026-04-30T17:23:53.766Z</time></trkpt><trkpt lat="34.3362539" lon="8.1837751"><ele>272.0</ele><time>2026-04-30T17:23:54.76Z</time></trkpt><trkpt lat="34.3363007" lon="8.1836552"><ele>272.0</ele><time>2026-04-30T17:23:55.721Z</time></trkpt><trkpt lat="34.33635" lon="8.1835421"><ele>272.0</ele><time>2026-04-30T17:23:56.722Z</time></trkpt><trkpt lat="34.3363994" lon="8.1834236"><ele>272.0</ele><time>2026-04-30T17:23:57.725Z</time></trkpt><trkpt lat="34.3364366" lon="8.1833258"><ele>276.33333333333337</ele><time>2026-04-30T17:23:58.746Z</time></trkpt><trkpt lat="34.336468" lon="8.1832418"><ele>280.6666666666667</ele><time>2026-04-30T17:23:59.747Z</time></trkpt><trkpt lat="34.3365216" lon="8.1831234"><ele>285.0</ele><time>2026-04-30T17:24:01.733Z</time></trkpt><trkpt lat="34.336596" lon="8.1830815"><ele>289.3333333333333</ele><time>2026-04-30T17:24:03.754Z</time></trkpt><trkpt lat="34.3366504" lon="8.1831449"><ele>293.66666666666663</ele><time>2026-04-30T17:24:05.749Z</time></trkpt><trkpt lat="34.3366405" lon="8.1832213"><ele>298.0</ele><time>2026-04-30T17:24:06.743Z</time></trkpt><trkpt lat="34.3366179" lon="8.1833118"><ele>298.2</ele><time>2026-04-30T17:24:07.76Z</time></trkpt><trkpt lat="34.3366014" lon="8.183421"><ele>298.4</ele><time>2026-04-30T17:24:08.762Z</time></trkpt><trkpt lat="34.3366018" lon="8.1835231"><ele>298.59999999999997</ele><time>2026-04-30T17:24:09.743Z</time></trkpt><trkpt lat="34.336598" lon="8.1836252"><ele>298.8</ele><time>2026-04-30T17:24:10.756Z</time></trkpt><trkpt lat="34.3366053" lon="8.1837577"><ele>299.0</ele><time>2026-04-30T17:24:12.762Z</time></trkpt><trkpt lat="34.3366648" lon="8.183825"><ele>299.0</ele><time>2026-04-30T17:24:14.758Z</time></trkpt><trkpt lat="34.3367295" lon="8.1838045"><ele>299.0</ele><time>2026-04-30T17:24:16.751Z</time></trkpt><trkpt lat="34.3367644" lon="8.1837397"><ele>299.0</ele><time>2026-04-30T17:24:17.745Z</time></trkpt><trkpt lat="34.3367951" lon="8.1836646"><ele>299.0</ele><time>2026-04-30T17:24:18.742Z</time></trkpt><trkpt lat="34.3368281" lon="8.1835473"><ele>299.0</ele><time>2026-04-30T17:24:19.74Z</time></trkpt><trkpt lat="34.336874" lon="8.183433"><ele>299.0</ele><time>2026-04-30T17:24:20.755Z</time></trkpt><trkpt lat="34.3369233" lon="8.1833047"><ele>299.0</ele><time>2026-04-30T17:24:21.743Z</time></trkpt><trkpt lat="34.3369806" lon="8.1831815"><ele>299.0</ele><time>2026-04-30T17:24:22.744Z</time></trkpt><trkpt lat="34.3370454" lon="8.1830716"><ele>299.0</ele><time>2026-04-30T17:24:23.75Z</time></trkpt><trkpt lat="34.3371111" lon="8.1829691"><ele>299.0</ele><time>2026-04-30T17:24:24.755Z</time></trkpt><trkpt lat="34.3371643" lon="8.1828692"><ele>299.0</ele><time>2026-04-30T17:24:25.753Z</time></trkpt><trkpt lat="34.337197" lon="8.1827648"><ele>303.4</ele><time>2026-04-30T17:24:26.753Z</time></trkpt><trkpt lat="34.33723" lon="8.1826544"><ele>307.79999999999995</ele><time>2026-04-30T17:24:27.733Z</time></trkpt><trkpt lat="34.337269" lon="8.1825556"><ele>312.20000000000005</ele><time>2026-04-30T17:24:28.748Z</time></trkpt><trkpt lat="34.337325" lon="8.1824598"><ele>316.6</ele><time>2026-04-30T17:24:29.732Z</time></trkpt><trkpt lat="34.3373873" lon="8.1823696"><ele>321.0</ele><time>2026-04-30T17:24:30.738Z</time></trkpt><trkpt lat="34.3374381" lon="8.1822774"><ele>321.0</ele><time>2026-04-30T17:24:31.708Z</time></trkpt><trkpt lat="34.3374828" lon="8.1821869"><ele>321.0</ele><time>2026-04-30T17:24:32.741Z</time></trkpt><trkpt lat="34.3375331" lon="8.1821053"><ele>321.0</ele><time>2026-04-30T17:24:33.746Z</time></trkpt><trkpt lat="34.3375869" lon="8.1820504"><ele>321.0</ele><time>2026-04-30T17:24:34.733Z</time></trkpt><trkpt lat="34.3376557" lon="8.182021"><ele>321.0</ele><time>2026-04-30T17:24:35.697Z</time></trkpt><trkpt lat="34.3377691" lon="8.1819923"><ele>321.0</ele><time>2026-04-30T17:24:37.741Z</time></trkpt><trkpt lat="34.3378371" lon="8.1819164"><ele>321.0</ele><time>2026-04-30T17:24:39.745Z</time></trkpt><trkpt lat="34.3378219" lon="8.1817758"><ele>321.0</ele><time>2026-04-30T17:24:41.74Z</time></trkpt><trkpt lat="34.3378092" lon="8.1816927"><ele>321.0</ele><time>2026-04-30T17:24:42.722Z</time></trkpt><trkpt lat="34.337813" lon="8.1815926"><ele>321.0</ele><time>2026-04-30T17:24:43.749Z</time></trkpt><trkpt lat="34.3378282" lon="8.1815006"><ele>321.0</ele><time>2026-04-30T17:24:44.754Z</time></trkpt><trkpt lat="34.3378527" lon="8.1814062"><ele>321.0</ele><time>2026-04-30T17:24:45.73Z</time></trkpt><trkpt lat="34.3378871" lon="8.1813166"><ele>321.6666666666667</ele><time>2026-04-30T17:24:46.741Z</time></trkpt><trkpt lat="34.337926" lon="8.1812265"><ele>322.3333333333333</ele><time>2026-04-30T17:24:47.754Z</time></trkpt><trkpt lat="34.3379641" lon="8.1811311"><ele>323.0</ele><time>2026-04-30T17:24:48.755Z</time></trkpt><trkpt lat="34.3380054" lon="8.1810418"><ele>323.66666666666663</ele><time>2026-04-30T17:24:49.753Z</time></trkpt><trkpt lat="34.3380533" lon="8.1809543"><ele>324.3333333333333</ele><time>2026-04-30T17:24:50.743Z</time></trkpt><trkpt lat="34.3381052" lon="8.1808683"><ele>325.0</ele><time>2026-04-30T17:24:51.729Z</time></trkpt><trkpt lat="34.3381591" lon="8.1807766"><ele>328.8</ele><time>2026-04-30T17:24:52.749Z</time></trkpt><trkpt lat="34.3382142" lon="8.1806814"><ele>332.6</ele><time>2026-04-30T17:24:53.747Z</time></trkpt><trkpt lat="34.3382737" lon="8.180586"><ele>336.4</ele><time>2026-04-30T17:24:54.728Z</time></trkpt><trkpt lat="34.338334" lon="8.180501"><ele>340.2</ele><time>2026-04-30T17:24:55.723Z</time></trkpt><trkpt lat="34.3383933" lon="8.1804233"><ele>344.0</ele><time>2026-04-30T17:24:56.762Z</time></trkpt><trkpt lat="34.3384513" lon="8.1803443"><ele>344.0</ele><time>2026-04-30T17:24:57.747Z</time></trkpt><trkpt lat="34.3385059" lon="8.1802743"><ele>344.0</ele><time>2026-04-30T17:24:58.763Z</time></trkpt><trkpt lat="34.3385591" lon="8.1802144"><ele>344.0</ele><time>2026-04-30T17:24:59.746Z</time></trkpt><trkpt lat="34.3386087" lon="8.1801555"><ele>344.0</ele><time>2026-04-30T17:25:00.753Z</time></trkpt><trkpt lat="34.33868" lon="8.180096"><ele>344.0</ele><time>2026-04-30T17:25:02.748Z</time></trkpt><trkpt lat="34.3387503" lon="8.1801156"><ele>344.0</ele><time>2026-04-30T17:25:04.741Z</time></trkpt><trkpt lat="34.3388081" lon="8.180213"><ele>344.0</ele><time>2026-04-30T17:25:06.759Z</time></trkpt><trkpt lat="34.3388388" lon="8.1803076"><ele>344.0</ele><time>2026-04-30T17:25:07.736Z</time></trkpt><trkpt lat="34.3388546" lon="8.180414"><ele>344.0</ele><time>2026-04-30T17:25:08.755Z</time></trkpt><trkpt lat="34.3388676" lon="8.1805276"><ele>344.0</ele><time>2026-04-30T17:25:09.759Z</time></trkpt><trkpt lat="34.3388773" lon="8.1806327"><ele>344.0</ele><time>2026-04-30T17:25:10.749Z</time></trkpt><trkpt lat="34.3388846" lon="8.1807346"><ele>344.0</ele><time>2026-04-30T17:25:11.748Z</time></trkpt><trkpt lat="34.3389021" lon="8.1808315"><ele>347.14285714285717</ele><time>2026-04-30T17:25:12.76Z</time></trkpt><trkpt lat="34.3389314" lon="8.1809221"><ele>350.2857142857143</ele><time>2026-04-30T17:25:13.759Z</time></trkpt><trkpt lat="34.3389736" lon="8.1809951"><ele>353.42857142857144</ele><time>2026-04-30T17:25:14.73Z</time></trkpt><trkpt lat="34.3390291" lon="8.1810612"><ele>356.57142857142856</ele><time>2026-04-30T17:25:15.767Z</time></trkpt><trkpt lat="34.3390735" lon="8.1811331"><ele>359.7142857142857</ele><time>2026-04-30T17:25:16.741Z</time></trkpt><trkpt lat="34.3390961" lon="8.1812163"><ele>362.8571428571429</ele><time>2026-04-30T17:25:17.725Z</time></trkpt><trkpt lat="34.3390961" lon="8.1812999"><ele>366.0</ele><time>2026-04-30T17:25:18.756Z</time></trkpt><trkpt lat="34.33909" lon="8.18139"><ele>366.0</ele><time>2026-04-30T17:25:19.735Z</time></trkpt><trkpt lat="34.3390815" lon="8.1814822"><ele>366.0</ele><time>2026-04-30T17:25:20.693Z</time></trkpt><trkpt lat="34.3390748" lon="8.18157"><ele>366.0</ele><time>2026-04-30T17:25:21.717Z</time></trkpt><trkpt lat="34.3390768" lon="8.1816676"><ele>366.0</ele><time>2026-04-30T17:25:22.747Z</time></trkpt><trkpt lat="34.3390828" lon="8.1817735"><ele>366.0</ele><time>2026-04-30T17:25:23.72Z</time></trkpt><trkpt lat="34.3391037" lon="8.1818719"><ele>366.0</ele><time>2026-04-30T17:25:24.75Z</time></trkpt><trkpt lat="34.3391291" lon="8.1819664"><ele>365.8333333333333</ele><time>2026-04-30T17:25:25.749Z</time></trkpt><trkpt lat="34.3391664" lon="8.1820576"><ele>365.6666666666667</ele><time>2026-04-30T17:25:26.725Z</time></trkpt><trkpt lat="34.3392029" lon="8.182143"><ele>365.5</ele><time>2026-04-30T17:25:27.72Z</time></trkpt><trkpt lat="34.3392479" lon="8.18222"><ele>365.33333333333337</ele><time>2026-04-30T17:25:28.744Z</time></trkpt><trkpt lat="34.3392923" lon="8.1822868"><ele>365.1666666666667</ele><time>2026-04-30T17:25:29.753Z</time></trkpt><trkpt lat="34.3393484" lon="8.1823296"><ele>365.0</ele><time>2026-04-30T17:25:30.76Z</time></trkpt><trkpt lat="34.339426" lon="8.1823503"><ele>366.33333333333337</ele><time>2026-04-30T17:25:32.694Z</time></trkpt><trkpt lat="34.3395036" lon="8.1822581"><ele>367.6666666666667</ele><time>2026-04-30T17:25:34.714Z</time></trkpt><trkpt lat="34.3395318" lon="8.1821824"><ele>369.0</ele><time>2026-04-30T17:25:35.729Z</time></trkpt><trkpt lat="34.3395648" lon="8.1820983"><ele>370.3333333333333</ele><time>2026-04-30T17:25:36.729Z</time></trkpt><trkpt lat="34.3396009" lon="8.1819908"><ele>371.66666666666663</ele><time>2026-04-30T17:25:37.701Z</time></trkpt><trkpt lat="34.3396412" lon="8.1818872"><ele>373.0</ele><time>2026-04-30T17:25:38.748Z</time></trkpt><trkpt lat="34.3396807" lon="8.1817749"><ele>375.79999999999995</ele><time>2026-04-30T17:25:39.755Z</time></trkpt><trkpt lat="34.3397253" lon="8.1816677"><ele>378.6</ele><time>2026-04-30T17:25:40.706Z</time></trkpt><trkpt lat="34.3397684" lon="8.1815632"><ele>381.4</ele><time>2026-04-30T17:25:41.737Z</time></trkpt><trkpt lat="34.3398031" lon="8.1814574"><ele>384.20000000000005</ele><time>2026-04-30T17:25:42.755Z</time></trkpt><trkpt lat="34.339848" lon="8.1813504"><ele>387.0</ele><time>2026-04-30T17:25:43.716Z</time></trkpt><trkpt lat="34.3399079" lon="8.1812444"><ele>387.75</ele><time>2026-04-30T17:25:44.762Z</time></trkpt><trkpt lat="34.3399859" lon="8.1811462"><ele>388.5</ele><time>2026-04-30T17:25:45.728Z</time></trkpt><trkpt lat="34.3400734" lon="8.1810502"><ele>389.25</ele><time>2026-04-30T17:25:46.753Z</time></trkpt><trkpt lat="34.3401593" lon="8.1809549"><ele>390.0</ele><time>2026-04-30T17:25:47.743Z</time></trkpt><trkpt lat="34.3402397" lon="8.1808625"><ele>390.0</ele><time>2026-04-30T17:25:48.731Z</time></trkpt><trkpt lat="34.3403042" lon="8.1807833"><ele>390.0</ele><time>2026-04-30T17:25:49.739Z</time></trkpt><trkpt lat="34.3403589" lon="8.1807074"><ele>390.0</ele><time>2026-04-30T17:25:50.751Z</time></trkpt><trkpt lat="34.3404267" lon="8.1806309"><ele>390.0</ele><time>2026-04-30T17:25:51.705Z</time></trkpt><trkpt lat="34.3405174" lon="8.1805569"><ele>390.0</ele><time>2026-04-30T17:25:52.757Z</time></trkpt><trkpt lat="34.3406265" lon="8.1804876"><ele>392.75</ele><time>2026-04-30T17:25:53.756Z</time></trkpt><trkpt lat="34.3407425" lon="8.1804037"><ele>395.5</ele><time>2026-04-30T17:25:54.757Z</time></trkpt><trkpt lat="34.3408428" lon="8.1803213"><ele>398.25</ele><time>2026-04-30T17:25:55.739Z</time></trkpt><trkpt lat="34.3409346" lon="8.1802492"><ele>401.0</ele><time>2026-04-30T17:25:56.762Z</time></trkpt><trkpt lat="34.3410139" lon="8.1801897"><ele>400.99999999999994</ele><time>2026-04-30T17:25:57.747Z</time></trkpt><trkpt lat="34.341087" lon="8.1801284"><ele>401.0</ele><time>2026-04-30T17:25:58.745Z</time></trkpt><trkpt lat="34.3411416" lon="8.1800664"><ele>401.0</ele><time>2026-04-30T17:25:59.746Z</time></trkpt><trkpt lat="34.3411821" lon="8.1799805"><ele>401.0</ele><time>2026-04-30T17:26:00.75Z</time></trkpt><trkpt lat="34.3412073" lon="8.1798827"><ele>400.99999999999994</ele><time>2026-04-30T17:26:01.762Z</time></trkpt><trkpt lat="34.3412114" lon="8.1797818"><ele>401.0</ele><time>2026-04-30T17:26:02.73Z</time></trkpt><trkpt lat="34.3411995" lon="8.1796753"><ele>401.8571428571429</ele><time>2026-04-30T17:26:03.749Z</time></trkpt><trkpt lat="34.3411776" lon="8.1795719"><ele>402.7142857142857</ele><time>2026-04-30T17:26:04.707Z</time></trkpt><trkpt lat="34.3411652" lon="8.1794795"><ele>403.57142857142856</ele><time>2026-04-30T17:26:05.695Z</time></trkpt><trkpt lat="34.3411597" lon="8.1793968"><ele>404.42857142857144</ele><time>2026-04-30T17:26:06.747Z</time></trkpt><trkpt lat="34.3411547" lon="8.1793165"><ele>405.2857142857143</ele><time>2026-04-30T17:26:07.757Z</time></trkpt><trkpt lat="34.3411584" lon="8.1792282"><ele>406.14285714285717</ele><time>2026-04-30T17:26:08.74Z</time></trkpt><trkpt lat="34.3411813" lon="8.1791462"><ele>407.0</ele><time>2026-04-30T17:26:09.746Z</time></trkpt><trkpt lat="34.3412113" lon="8.1790604"><ele>406.8333333333333</ele><time>2026-04-30T17:26:10.763Z</time></trkpt><trkpt lat="34.3412368" lon="8.178974"><ele>406.66666666666663</ele><time>2026-04-30T17:26:11.759Z</time></trkpt><trkpt lat="34.3412594" lon="8.1788793"><ele>406.5</ele><time>2026-04-30T17:26:12.748Z</time></trkpt><trkpt lat="34.3412813" lon="8.1787787"><ele>406.33333333333337</ele><time>2026-04-30T17:26:13.755Z</time></trkpt><trkpt lat="34.341315" lon="8.1786848"><ele>406.1666666666667</ele><time>2026-04-30T17:26:14.767Z</time></trkpt><trkpt lat="34.341359" lon="8.1785943"><ele>406.0</ele><time>2026-04-30T17:26:15.741Z</time></trkpt><trkpt lat="34.3414178" lon="8.178521"><ele>409.8</ele><time>2026-04-30T17:26:16.722Z</time></trkpt><trkpt lat="34.3414872" lon="8.1784489"><ele>413.6</ele><time>2026-04-30T17:26:17.732Z</time></trkpt><trkpt lat="34.3415569" lon="8.1783909"><ele>417.4</ele><time>2026-04-30T17:26:18.761Z</time></trkpt><trkpt lat="34.3416424" lon="8.1783418"><ele>421.2</ele><time>2026-04-30T17:26:19.747Z</time></trkpt><trkpt lat="34.3417293" lon="8.1782903"><ele>425.0</ele><time>2026-04-30T17:26:20.728Z</time></trkpt><trkpt lat="34.3418148" lon="8.1782417"><ele>424.99999999999994</ele><time>2026-04-30T17:26:21.762Z</time></trkpt><trkpt lat="34.3418911" lon="8.1781988"><ele>425.0</ele><time>2026-04-30T17:26:22.714Z</time></trkpt><trkpt lat="34.3419686" lon="8.1781636"><ele>425.0</ele><time>2026-04-30T17:26:23.741Z</time></trkpt><trkpt lat="34.342048" lon="8.1781171"><ele>425.0</ele><time>2026-04-30T17:26:24.742Z</time></trkpt><trkpt lat="34.3421266" lon="8.1780579"><ele>424.99999999999994</ele><time>2026-04-30T17:26:25.748Z</time></trkpt><trkpt lat="34.3422039" lon="8.1779915"><ele>425.0</ele><time>2026-04-30T17:26:26.763Z</time></trkpt><trkpt lat="34.3422781" lon="8.177916"><ele>426.8333333333333</ele><time>2026-04-30T17:26:27.721Z</time></trkpt><trkpt lat="34.3423457" lon="8.1778361"><ele>428.66666666666663</ele><time>2026-04-30T17:26:28.73Z</time></trkpt><trkpt lat="34.3423989" lon="8.177759"><ele>430.5</ele><time>2026-04-30T17:26:29.757Z</time></trkpt><trkpt lat="34.342442" lon="8.1776641"><ele>432.33333333333337</ele><time>2026-04-30T17:26:30.754Z</time></trkpt><trkpt lat="34.3424691" lon="8.1775694"><ele>434.1666666666667</ele><time>2026-04-30T17:26:31.735Z</time></trkpt><trkpt lat="34.3424791" lon="8.1774738"><ele>436.0</ele><time>2026-04-30T17:26:32.761Z</time></trkpt><trkpt lat="34.3424822" lon="8.177385"><ele>436.00000000000006</ele><time>2026-04-30T17:26:33.759Z</time></trkpt><trkpt lat="34.3424864" lon="8.177293"><ele>436.0</ele><time>2026-04-30T17:26:34.758Z</time></trkpt><trkpt lat="34.3425011" lon="8.177211"><ele>436.0</ele><time>2026-04-30T17:26:35.727Z</time></trkpt><trkpt lat="34.342529" lon="8.17713"><ele>436.0</ele><time>2026-04-30T17:26:36.761Z</time></trkpt><trkpt lat="34.3425745" lon="8.1770474"><ele>436.00000000000006</ele><time>2026-04-30T17:26:37.744Z</time></trkpt><trkpt lat="34.3426161" lon="8.1769535"><ele>436.0</ele><time>2026-04-30T17:26:38.729Z</time></trkpt><trkpt lat="34.3426578" lon="8.1768613"><ele>436.0</ele><time>2026-04-30T17:26:39.753Z</time></trkpt><trkpt lat="34.3426975" lon="8.1767601"><ele>436.0</ele><time>2026-04-30T17:26:40.746Z</time></trkpt><trkpt lat="34.3427478" lon="8.1766625"><ele>436.0</ele><time>2026-04-30T17:26:41.757Z</time></trkpt><trkpt lat="34.3428049" lon="8.1765713"><ele>436.0</ele><time>2026-04-30T17:26:42.758Z</time></trkpt><trkpt lat="34.3428571" lon="8.1764666"><ele>436.0</ele><time>2026-04-30T17:26:43.723Z</time></trkpt><trkpt lat="34.3429008" lon="8.1763538"><ele>436.6</ele><time>2026-04-30T17:26:44.749Z</time></trkpt><trkpt lat="34.3429332" lon="8.1762401"><ele>437.20000000000005</ele><time>2026-04-30T17:26:45.729Z</time></trkpt><trkpt lat="34.3429671" lon="8.1761246"><ele>437.79999999999995</ele><time>2026-04-30T17:26:46.723Z</time></trkpt><trkpt lat="34.3429966" lon="8.1760229"><ele>438.4</ele><time>2026-04-30T17:26:47.705Z</time></trkpt><trkpt lat="34.3430203" lon="8.1759398"><ele>439.0</ele><time>2026-04-30T17:26:48.769Z</time></trkpt><trkpt lat="34.3430658" lon="8.1758106"><ele>439.57142857142856</ele><time>2026-04-30T17:26:50.729Z</time></trkpt><trkpt lat="34.3431078" lon="8.1757136"><ele>440.1428571428571</ele><time>2026-04-30T17:26:52.733Z</time></trkpt><trkpt lat="34.3431565" lon="8.1756572"><ele>440.7142857142857</ele><time>2026-04-30T17:26:54.752Z</time></trkpt><trkpt lat="34.3432161" lon="8.1756128"><ele>441.2857142857143</ele><time>2026-04-30T17:26:57.744Z</time></trkpt><trkpt lat="34.3432808" lon="8.175585"><ele>441.8571428571429</ele><time>2026-04-30T17:27:00.75Z</time></trkpt><trkpt lat="34.3433439" lon="8.175584"><ele>442.42857142857144</ele><time>2026-04-30T17:27:03.699Z</time></trkpt><trkpt lat="34.3434239" lon="8.1755667"><ele>443.0</ele><time>2026-04-30T17:27:06.727Z</time></trkpt><trkpt lat="34.3435007" lon="8.1755511"><ele>443.0</ele><time>2026-04-30T17:27:09.693Z</time></trkpt><trkpt lat="34.3435733" lon="8.1755799"><ele>443.0</ele><time>2026-04-30T17:28:04.713Z</time></trkpt><trkpt lat="34.3436361" lon="8.1756407"><ele>443.0</ele><time>2026-04-30T17:28:07.706Z</time></trkpt><trkpt lat="34.3437214" lon="8.1757684"><ele>443.0</ele><time>2026-04-30T17:28:11.748Z</time></trkpt><trkpt lat="34.3438383" lon="8.1759493"><ele>443.49999999999994</ele><time>2026-04-30T17:28:15.69Z</time></trkpt><trkpt lat="34.3439013" lon="8.176042"><ele>444.0</ele><time>2026-04-30T17:28:17.724Z</time></trkpt><trkpt lat="34.3439762" lon="8.1761177"><ele>444.5</ele><time>2026-04-30T17:28:19.707Z</time></trkpt><trkpt lat="34.3440355" lon="8.1761692"><ele>445.0</ele><time>2026-04-30T17:28:20.705Z</time></trkpt><trkpt lat="34.3441053" lon="8.176226"><ele>445.49999999999994</ele><time>2026-04-30T17:28:21.697Z</time></trkpt><trkpt lat="34.3441707" lon="8.1762851"><ele>446.0</ele><time>2026-04-30T17:28:22.7Z</time></trkpt><trkpt lat="34.3442387" lon="8.1763398"><ele>446.0</ele><time>2026-04-30T17:28:23.695Z</time></trkpt><trkpt lat="34.3443016" lon="8.176404"><ele>446.0</ele><time>2026-04-30T17:28:24.707Z</time></trkpt><trkpt lat="34.3443581" lon="8.1764889"><ele>446.0</ele><time>2026-04-30T17:28:25.737Z</time></trkpt><trkpt lat="34.3443922" lon="8.1766037"><ele>446.0</ele><time>2026-04-30T17:28:26.703Z</time></trkpt><trkpt lat="34.3444277" lon="8.1767197"><ele>446.0</ele><time>2026-04-30T17:28:27.711Z</time></trkpt><trkpt lat="34.3444447" lon="8.176825"><ele>445.99999999999994</ele><time>2026-04-30T17:28:28.735Z</time></trkpt><trkpt lat="34.3444646" lon="8.1769249"><ele>446.0</ele><time>2026-04-30T17:28:29.697Z</time></trkpt><trkpt lat="34.3444862" lon="8.1770261"><ele>446.0</ele><time>2026-04-30T17:28:30.713Z</time></trkpt><trkpt lat="34.3445068" lon="8.1771288"><ele>446.0</ele><time>2026-04-30T17:28:31.714Z</time></trkpt><trkpt lat="34.3445267" lon="8.1772289"><ele>445.99999999999994</ele><time>2026-04-30T17:28:32.713Z</time></trkpt><trkpt lat="34.3445545" lon="8.1773151"><ele>446.0</ele><time>2026-04-30T17:28:33.695Z</time></trkpt><trkpt lat="34.344585" lon="8.1773872"><ele>445.4</ele><time>2026-04-30T17:28:34.707Z</time></trkpt><trkpt lat="34.3446687" lon="8.1774301"><ele>444.8</ele><time>2026-04-30T17:28:36.725Z</time></trkpt><trkpt lat="34.344747" lon="8.1773539"><ele>444.19999999999993</ele><time>2026-04-30T17:28:38.716Z</time></trkpt><trkpt lat="34.3447717" lon="8.1772725"><ele>443.59999999999997</ele><time>2026-04-30T17:28:39.721Z</time></trkpt><trkpt lat="34.3447945" lon="8.177136"><ele>443.0</ele><time>2026-04-30T17:28:40.714Z</time></trkpt><trkpt lat="34.3448171" lon="8.1769837"><ele>446.25</ele><time>2026-04-30T17:28:41.717Z</time></trkpt><trkpt lat="34.3448401" lon="8.1768299"><ele>449.5</ele><time>2026-04-30T17:28:42.724Z</time></trkpt><trkpt lat="34.3448703" lon="8.1766782"><ele>452.75</ele><time>2026-04-30T17:28:43.719Z</time></trkpt><trkpt lat="34.3449138" lon="8.1765573"><ele>456.0</ele><time>2026-04-30T17:28:44.714Z</time></trkpt><trkpt lat="34.3449674" lon="8.1764513"><ele>457.5</ele><time>2026-04-30T17:28:45.703Z</time></trkpt><trkpt lat="34.3450288" lon="8.1763674"><ele>459.0</ele><time>2026-04-30T17:28:46.714Z</time></trkpt><trkpt lat="34.3450896" lon="8.1762848"><ele>460.5</ele><time>2026-04-30T17:28:47.728Z</time></trkpt><trkpt lat="34.3451447" lon="8.1762203"><ele>462.0</ele><time>2026-04-30T17:28:48.736Z</time></trkpt><trkpt lat="34.3452069" lon="8.1761699"><ele>463.5</ele><time>2026-04-30T17:28:49.761Z</time></trkpt><trkpt lat="34.3452759" lon="8.1761305"><ele>465.0</ele><time>2026-04-30T17:28:50.765Z</time></trkpt><trkpt lat="34.3453712" lon="8.1760549"><ele>465.0</ele><time>2026-04-30T17:28:52.757Z</time></trkpt><trkpt lat="34.345447" lon="8.1759"><ele>465.0</ele><time>2026-04-30T17:28:54.773Z</time></trkpt><trkpt lat="34.3454999" lon="8.1757994"><ele>465.0</ele><time>2026-04-30T17:28:55.723Z</time></trkpt><trkpt lat="34.3455679" lon="8.1757049"><ele>465.0</ele><time>2026-04-30T17:28:56.756Z</time></trkpt><trkpt lat="34.3456415" lon="8.1756283"><ele>465.0</ele><time>2026-04-30T17:28:57.754Z</time></trkpt><trkpt lat="34.3457205" lon="8.1755562"><ele>468.0</ele><time>2026-04-30T17:28:58.727Z</time></trkpt><trkpt lat="34.3458073" lon="8.1754997"><ele>471.0</ele><time>2026-04-30T17:28:59.738Z</time></trkpt><trkpt lat="34.3458899" lon="8.175452"><ele>474.0</ele><time>2026-04-30T17:29:00.725Z</time></trkpt><trkpt lat="34.3459747" lon="8.1754331"><ele>477.0</ele><time>2026-04-30T17:29:01.753Z</time></trkpt><trkpt lat="34.3460671" lon="8.1754276"><ele>480.0</ele><time>2026-04-30T17:29:02.769Z</time></trkpt><trkpt lat="34.3461658" lon="8.1754341"><ele>480.0</ele><time>2026-04-30T17:29:03.745Z</time></trkpt><trkpt lat="34.3462722" lon="8.1754448"><ele>480.0</ele><time>2026-04-30T17:29:04.786Z</time></trkpt><trkpt lat="34.3463875" lon="8.1754532"><ele>480.0</ele><time>2026-04-30T17:29:05.749Z</time></trkpt><trkpt lat="34.3464891" lon="8.1754638"><ele>480.0</ele><time>2026-04-30T17:29:06.728Z</time></trkpt><trkpt lat="34.3465698" lon="8.1754729"><ele>480.0</ele><time>2026-04-30T17:29:07.772Z</time></trkpt><trkpt lat="34.3466791" lon="8.1754965"><ele>480.3333333333333</ele><time>2026-04-30T17:29:09.709Z</time></trkpt><trkpt lat="34.3467614" lon="8.1755892"><ele>480.66666666666663</ele><time>2026-04-30T17:29:11.703Z</time></trkpt><trkpt lat="34.3468229" lon="8.1756932"><ele>481.0</ele><time>2026-04-30T17:29:13.737Z</time></trkpt><trkpt lat="34.3468445" lon="8.1757732"><ele>481.3333333333333</ele><time>2026-04-30T17:29:14.703Z</time></trkpt><trkpt lat="34.3468496" lon="8.1758634"><ele>481.66666666666663</ele><time>2026-04-30T17:29:15.702Z</time></trkpt><trkpt lat="34.3468591" lon="8.1759434"><ele>482.0</ele><time>2026-04-30T17:29:16.734Z</time></trkpt><trkpt lat="34.346877" lon="8.1760803"><ele>481.16666666666663</ele><time>2026-04-30T17:29:18.739Z</time></trkpt><trkpt lat="34.3469093" lon="8.1761932"><ele>480.3333333333333</ele><time>2026-04-30T17:29:20.723Z</time></trkpt><trkpt lat="34.3469885" lon="8.1762486"><ele>479.5</ele><time>2026-04-30T17:29:22.702Z</time></trkpt><trkpt lat="34.3470945" lon="8.1762442"><ele>478.66666666666663</ele><time>2026-04-30T17:29:24.693Z</time></trkpt><trkpt lat="34.3471654" lon="8.1762015"><ele>477.8333333333333</ele><time>2026-04-30T17:29:26.701Z</time></trkpt><trkpt lat="34.3471915" lon="8.176128"><ele>477.0</ele><time>2026-04-30T17:29:28.693Z</time></trkpt><trkpt lat="34.3471982" lon="8.1760472"><ele>477.0</ele><time>2026-04-30T17:29:30.729Z</time></trkpt><trkpt lat="34.3471964" lon="8.1759559"><ele>477.0</ele><time>2026-04-30T17:29:32.725Z</time></trkpt><trkpt lat="34.3471987" lon="8.1758272"><ele>477.0</ele><time>2026-04-30T17:29:34.735Z</time></trkpt><trkpt lat="34.3472013" lon="8.1757316"><ele>477.0</ele><time>2026-04-30T17:29:35.714Z</time></trkpt><trkpt lat="34.3472044" lon="8.1756301"><ele>477.0</ele><time>2026-04-30T17:29:36.729Z</time></trkpt><trkpt lat="34.3472091" lon="8.1755182"><ele>477.0</ele><time>2026-04-30T17:29:37.742Z</time></trkpt><trkpt lat="34.3472085" lon="8.1754016"><ele>477.5</ele><time>2026-04-30T17:29:38.737Z</time></trkpt><trkpt lat="34.3472042" lon="8.1752906"><ele>478.0</ele><time>2026-04-30T17:29:39.734Z</time></trkpt><trkpt lat="34.3472068" lon="8.1751939"><ele>478.5</ele><time>2026-04-30T17:29:40.743Z</time></trkpt><trkpt lat="34.3472218" lon="8.1751074"><ele>479.0</ele><time>2026-04-30T17:29:41.732Z</time></trkpt><trkpt lat="34.34727" lon="8.1750371"><ele>479.5</ele><time>2026-04-30T17:29:42.717Z</time></trkpt><trkpt lat="34.3473408" lon="8.1749674"><ele>480.0</ele><time>2026-04-30T17:29:43.745Z</time></trkpt><trkpt lat="34.3474192" lon="8.1749422"><ele>480.0</ele><time>2026-04-30T17:29:44.752Z</time></trkpt><trkpt lat="34.3475055" lon="8.174935"><ele>480.0</ele><time>2026-04-30T17:29:45.748Z</time></trkpt><trkpt lat="34.3475951" lon="8.1749526"><ele>480.0</ele><time>2026-04-30T17:29:46.727Z</time></trkpt><trkpt lat="34.3476815" lon="8.1749963"><ele>480.0</ele><time>2026-04-30T17:29:47.716Z</time></trkpt><trkpt lat="34.3477565" lon="8.1750651"><ele>480.0</ele><time>2026-04-30T17:29:48.736Z</time></trkpt><trkpt lat="34.3478274" lon="8.1751486"><ele>480.0</ele><time>2026-04-30T17:29:49.723Z</time></trkpt><trkpt lat="34.3478902" lon="8.1752484"><ele>480.0</ele><time>2026-04-30T17:29:50.712Z</time></trkpt><trkpt lat="34.3479577" lon="8.1753473"><ele>480.0</ele><time>2026-04-30T17:29:51.726Z</time></trkpt><trkpt lat="34.3480201" lon="8.1754361"><ele>480.0</ele><time>2026-04-30T17:29:52.7Z</time></trkpt><trkpt lat="34.3480832" lon="8.1755157"><ele>480.0</ele><time>2026-04-30T17:29:53.794Z</time></trkpt><trkpt lat="34.3481461" lon="8.175599"><ele>480.2</ele><time>2026-04-30T17:29:54.768Z</time></trkpt><trkpt lat="34.3482164" lon="8.1756879"><ele>480.4</ele><time>2026-04-30T17:29:55.73Z</time></trkpt><trkpt lat="34.3482915" lon="8.175774"><ele>480.6</ele><time>2026-04-30T17:29:56.753Z</time></trkpt><trkpt lat="34.3483646" lon="8.1758565"><ele>480.8</ele><time>2026-04-30T17:29:57.727Z</time></trkpt><trkpt lat="34.3484324" lon="8.1759301"><ele>481.0</ele><time>2026-04-30T17:29:58.737Z</time></trkpt><trkpt lat="34.3484951" lon="8.1760005"><ele>481.00000000000006</ele><time>2026-04-30T17:29:59.765Z</time></trkpt><trkpt lat="34.3485465" lon="8.1760625"><ele>481.0</ele><time>2026-04-30T17:30:00.749Z</time></trkpt><trkpt lat="34.3485923" lon="8.1761246"><ele>481.0</ele><time>2026-04-30T17:30:01.733Z</time></trkpt><trkpt lat="34.3486325" lon="8.1762024"><ele>481.0</ele><time>2026-04-30T17:30:02.744Z</time></trkpt><trkpt lat="34.348663" lon="8.1762932"><ele>481.00000000000006</ele><time>2026-04-30T17:30:03.724Z</time></trkpt><trkpt lat="34.3486714" lon="8.1763949"><ele>481.0</ele><time>2026-04-30T17:30:04.732Z</time></trkpt><trkpt lat="34.3486722" lon="8.176487"><ele>479.6</ele><time>2026-04-30T17:30:05.746Z</time></trkpt><trkpt lat="34.3486734" lon="8.1765831"><ele>478.20000000000005</ele><time>2026-04-30T17:30:06.763Z</time></trkpt><trkpt lat="34.3486705" lon="8.1766895"><ele>476.79999999999995</ele><time>2026-04-30T17:30:07.699Z</time></trkpt><trkpt lat="34.348659" lon="8.1767971"><ele>475.4</ele><time>2026-04-30T17:30:08.71Z</time></trkpt><trkpt lat="34.3486458" lon="8.1769135"><ele>474.0</ele><time>2026-04-30T17:30:09.695Z</time></trkpt><trkpt lat="34.3486457" lon="8.1770361"><ele>474.0</ele><time>2026-04-30T17:30:10.702Z</time></trkpt><trkpt lat="34.3486547" lon="8.1771586"><ele>474.0</ele><time>2026-04-30T17:30:11.707Z</time></trkpt><trkpt lat="34.3486778" lon="8.1772868"><ele>474.0</ele><time>2026-04-30T17:30:12.724Z</time></trkpt><trkpt lat="34.3487064" lon="8.1774192"><ele>474.0</ele><time>2026-04-30T17:30:13.756Z</time></trkpt><trkpt lat="34.3487344" lon="8.1775479"><ele>474.0</ele><time>2026-04-30T17:30:14.737Z</time></trkpt><trkpt lat="34.348754" lon="8.1776758"><ele>473.5</ele><time>2026-04-30T17:30:15.715Z</time></trkpt><trkpt lat="34.3487755" lon="8.1777963"><ele>473.0</ele><time>2026-04-30T17:30:16.714Z</time></trkpt><trkpt lat="34.3488017" lon="8.1779094"><ele>472.5</ele><time>2026-04-30T17:30:17.72Z</time></trkpt><trkpt lat="34.3488228" lon="8.1780178"><ele>472.0</ele><time>2026-04-30T17:30:18.721Z</time></trkpt><trkpt lat="34.3488407" lon="8.178114"><ele>471.5</ele><time>2026-04-30T17:30:19.75Z</time></trkpt><trkpt lat="34.3488654" lon="8.1781945"><ele>471.0</ele><time>2026-04-30T17:30:20.699Z</time></trkpt><trkpt lat="34.3489173" lon="8.178319"><ele>470.4</ele><time>2026-04-30T17:30:22.743Z</time></trkpt><trkpt lat="34.3489698" lon="8.1784066"><ele>469.8</ele><time>2026-04-30T17:30:24.755Z</time></trkpt><trkpt lat="34.3490203" lon="8.1785077"><ele>469.19999999999993</ele><time>2026-04-30T17:30:26.761Z</time></trkpt><trkpt lat="34.3490598" lon="8.1786417"><ele>468.59999999999997</ele><time>2026-04-30T17:30:28.733Z</time></trkpt><trkpt lat="34.3490762" lon="8.1788045"><ele>468.0</ele><time>2026-04-30T17:30:30.753Z</time></trkpt><trkpt lat="34.3490902" lon="8.1789262"><ele>468.66666666666663</ele><time>2026-04-30T17:30:31.743Z</time></trkpt><trkpt lat="34.3491194" lon="8.1790852"><ele>469.3333333333333</ele><time>2026-04-30T17:30:32.749Z</time></trkpt><trkpt lat="34.349152" lon="8.179278"><ele>470.0</ele><time>2026-04-30T17:30:33.708Z</time></trkpt><trkpt lat="34.3491989" lon="8.1794648"><ele>470.0</ele><time>2026-04-30T17:30:34.748Z</time></trkpt><trkpt lat="34.3492458" lon="8.1796304"><ele>470.0</ele><time>2026-04-30T17:30:35.728Z</time></trkpt><trkpt lat="34.3493003" lon="8.1798007"><ele>470.0</ele><time>2026-04-30T17:30:36.76Z</time></trkpt><trkpt lat="34.349356" lon="8.1799693"><ele>470.0</ele><time>2026-04-30T17:30:37.759Z</time></trkpt><trkpt lat="34.3494131" lon="8.1801415"><ele>469.75</ele><time>2026-04-30T17:30:38.763Z</time></trkpt><trkpt lat="34.3494677" lon="8.1803012"><ele>469.5</ele><time>2026-04-30T17:30:39.763Z</time></trkpt><trkpt lat="34.3495237" lon="8.1804508"><ele>469.25</ele><time>2026-04-30T17:30:40.729Z</time></trkpt><trkpt lat="34.3495732" lon="8.1805962"><ele>469.0</ele><time>2026-04-30T17:30:41.774Z</time></trkpt><trkpt lat="34.3496202" lon="8.1807332"><ele>468.79999999999995</ele><time>2026-04-30T17:30:42.742Z</time></trkpt><trkpt lat="34.3496593" lon="8.1808656"><ele>468.59999999999997</ele><time>2026-04-30T17:30:43.744Z</time></trkpt><trkpt lat="34.3496981" lon="8.1809962"><ele>468.4</ele><time>2026-04-30T17:30:44.748Z</time></trkpt><trkpt lat="34.3497303" lon="8.1811128"><ele>468.2</ele><time>2026-04-30T17:30:45.761Z</time></trkpt><trkpt lat="34.3497586" lon="8.1812342"><ele>468.0</ele><time>2026-04-30T17:30:46.743Z</time></trkpt><trkpt lat="34.349788" lon="8.1813611"><ele>469.1666666666667</ele><time>2026-04-30T17:30:47.728Z</time></trkpt><trkpt lat="34.3498065" lon="8.1814818"><ele>470.33333333333337</ele><time>2026-04-30T17:30:48.758Z</time></trkpt><trkpt lat="34.349827" lon="8.1815883"><ele>471.5</ele><time>2026-04-30T17:30:49.768Z</time></trkpt><trkpt lat="34.3498509" lon="8.1816795"><ele>472.6666666666667</ele><time>2026-04-30T17:30:50.768Z</time></trkpt><trkpt lat="34.3498832" lon="8.1817649"><ele>473.83333333333337</ele><time>2026-04-30T17:30:51.769Z</time></trkpt><trkpt lat="34.3499196" lon="8.1818454"><ele>475.0</ele><time>2026-04-30T17:30:52.756Z</time></trkpt><trkpt lat="34.3499711" lon="8.1819179"><ele>475.00000000000006</ele><time>2026-04-30T17:30:53.762Z</time></trkpt><trkpt lat="34.3500282" lon="8.1819733"><ele>475.0</ele><time>2026-04-30T17:30:54.75Z</time></trkpt><trkpt lat="34.350076" lon="8.1820236"><ele>475.0</ele><time>2026-04-30T17:30:55.732Z</time></trkpt><trkpt lat="34.3501595" lon="8.1821065"><ele>475.0</ele><time>2026-04-30T17:30:57.766Z</time></trkpt><trkpt lat="34.35023" lon="8.1821903"><ele>475.00000000000006</ele><time>2026-04-30T17:30:59.753Z</time></trkpt><trkpt lat="34.3502775" lon="8.1822859"><ele>475.0</ele><time>2026-04-30T17:31:01.749Z</time></trkpt><trkpt lat="34.3503367" lon="8.1823922"><ele>474.6</ele><time>2026-04-30T17:31:03.713Z</time></trkpt><trkpt lat="34.3503824" lon="8.1825054"><ele>474.2</ele><time>2026-04-30T17:31:05.73Z</time></trkpt><trkpt lat="34.3504303" lon="8.1826026"><ele>473.79999999999995</ele><time>2026-04-30T17:31:07.763Z</time></trkpt><trkpt lat="34.3504738" lon="8.1826925"><ele>473.4</ele><time>2026-04-30T17:31:09.75Z</time></trkpt><trkpt lat="34.350544" lon="8.1827766"><ele>473.0</ele><time>2026-04-30T17:31:11.762Z</time></trkpt><trkpt lat="34.3506305" lon="8.182804"><ele>474.99999999999994</ele><time>2026-04-30T17:31:13.738Z</time></trkpt><trkpt lat="34.3507385" lon="8.1827519"><ele>477.0</ele><time>2026-04-30T17:31:15.765Z</time></trkpt><trkpt lat="34.3508074" lon="8.1826993"><ele>479.0</ele><time>2026-04-30T17:31:16.767Z</time></trkpt><trkpt lat="34.3508763" lon="8.1826362"><ele>481.0</ele><time>2026-04-30T17:31:17.763Z</time></trkpt><trkpt lat="34.3509411" lon="8.1825801"><ele>482.99999999999994</ele><time>2026-04-30T17:31:18.726Z</time></trkpt><trkpt lat="34.350997" lon="8.1825333"><ele>485.0</ele><time>2026-04-30T17:31:19.761Z</time></trkpt><trkpt lat="34.3510777" lon="8.1824524"><ele>485.6</ele><time>2026-04-30T17:31:21.768Z</time></trkpt><trkpt lat="34.351106" lon="8.1822887"><ele>486.2</ele><time>2026-04-30T17:31:23.729Z</time></trkpt><trkpt lat="34.3511159" lon="8.1821886"><ele>486.79999999999995</ele><time>2026-04-30T17:31:24.762Z</time></trkpt><trkpt lat="34.3511302" lon="8.1820935"><ele>487.4</ele><time>2026-04-30T17:31:25.74Z</time></trkpt><trkpt lat="34.3511498" lon="8.181997"><ele>488.0</ele><time>2026-04-30T17:31:26.774Z</time></trkpt><trkpt lat="34.3511792" lon="8.1819021"><ele>487.99999999999994</ele><time>2026-04-30T17:31:27.748Z</time></trkpt><trkpt lat="34.3512248" lon="8.1818157"><ele>488.0</ele><time>2026-04-30T17:31:28.721Z</time></trkpt><trkpt lat="34.3512822" lon="8.1817471"><ele>488.0</ele><time>2026-04-30T17:31:29.761Z</time></trkpt><trkpt lat="34.3513541" lon="8.1816799"><ele>488.0</ele><time>2026-04-30T17:31:30.767Z</time></trkpt><trkpt lat="34.3514189" lon="8.1816289"><ele>487.99999999999994</ele><time>2026-04-30T17:31:31.778Z</time></trkpt><trkpt lat="34.3514834" lon="8.1815813"><ele>488.0</ele><time>2026-04-30T17:31:32.738Z</time></trkpt><trkpt lat="34.3515407" lon="8.1815227"><ele>490.16666666666663</ele><time>2026-04-30T17:31:33.775Z</time></trkpt><trkpt lat="34.351584" lon="8.1814573"><ele>492.3333333333333</ele><time>2026-04-30T17:31:34.773Z</time></trkpt><trkpt lat="34.3516174" lon="8.1813903"><ele>494.5</ele><time>2026-04-30T17:31:35.706Z</time></trkpt><trkpt lat="34.3516621" lon="8.181282"><ele>496.66666666666663</ele><time>2026-04-30T17:31:37.749Z</time></trkpt><trkpt lat="34.3516971" lon="8.1812088"><ele>498.8333333333333</ele><time>2026-04-30T17:31:38.711Z</time></trkpt><trkpt lat="34.3517322" lon="8.1811278"><ele>501.0</ele><time>2026-04-30T17:31:39.728Z</time></trkpt><trkpt lat="34.3517629" lon="8.1810403"><ele>501.0</ele><time>2026-04-30T17:31:40.754Z</time></trkpt><trkpt lat="34.3517852" lon="8.180946"><ele>501.0</ele><time>2026-04-30T17:31:41.766Z</time></trkpt><trkpt lat="34.3517999" lon="8.18085"><ele>501.0</ele><time>2026-04-30T17:31:42.767Z</time></trkpt><trkpt lat="34.3518108" lon="8.1807564"><ele>501.0</ele><time>2026-04-30T17:31:43.736Z</time></trkpt><trkpt lat="34.3518244" lon="8.1806591"><ele>501.0</ele><time>2026-04-30T17:31:44.738Z</time></trkpt><trkpt lat="34.3518439" lon="8.1805621"><ele>501.0</ele><time>2026-04-30T17:31:45.76Z</time></trkpt><trkpt lat="34.3518631" lon="8.1804616"><ele>501.3333333333333</ele><time>2026-04-30T17:31:46.733Z</time></trkpt><trkpt lat="34.3518795" lon="8.180358"><ele>501.66666666666663</ele><time>2026-04-30T17:31:47.743Z</time></trkpt><trkpt lat="34.3518911" lon="8.1802571"><ele>502.0</ele><time>2026-04-30T17:31:48.749Z</time></trkpt><trkpt lat="34.3519001" lon="8.1801621"><ele>502.3333333333333</ele><time>2026-04-30T17:31:49.749Z</time></trkpt><trkpt lat="34.3519161" lon="8.1800606"><ele>502.66666666666663</ele><time>2026-04-30T17:31:50.749Z</time></trkpt><trkpt lat="34.3519263" lon="8.1799695"><ele>503.0</ele><time>2026-04-30T17:31:51.757Z</time></trkpt><trkpt lat="34.3519452" lon="8.17984"><ele>504.4</ele><time>2026-04-30T17:31:53.779Z</time></trkpt><trkpt lat="34.3520062" lon="8.1797277"><ele>505.79999999999995</ele><time>2026-04-30T17:31:55.734Z</time></trkpt><trkpt lat="34.3521318" lon="8.179686"><ele>507.2</ele><time>2026-04-30T17:31:57.772Z</time></trkpt><trkpt lat="34.3522115" lon="8.1796973"><ele>508.6</ele><time>2026-04-30T17:31:58.757Z</time></trkpt><trkpt lat="34.3523029" lon="8.1797265"><ele>510.0</ele><time>2026-04-30T17:31:59.723Z</time></trkpt><trkpt lat="34.3523894" lon="8.1797689"><ele>510.1666666666667</ele><time>2026-04-30T17:32:00.749Z</time></trkpt><trkpt lat="34.3524645" lon="8.1797986"><ele>510.33333333333337</ele><time>2026-04-30T17:32:01.771Z</time></trkpt><trkpt lat="34.3525274" lon="8.1798328"><ele>510.5</ele><time>2026-04-30T17:32:02.752Z</time></trkpt><trkpt lat="34.3525838" lon="8.1798794"><ele>510.6666666666667</ele><time>2026-04-30T17:32:03.77Z</time></trkpt><trkpt lat="34.3526466" lon="8.1799383"><ele>510.83333333333337</ele><time>2026-04-30T17:32:04.763Z</time></trkpt><trkpt lat="34.3527031" lon="8.1800068"><ele>511.0</ele><time>2026-04-30T17:32:05.755Z</time></trkpt><trkpt lat="34.3527655" lon="8.1800653"><ele>511.8</ele><time>2026-04-30T17:32:06.736Z</time></trkpt><trkpt lat="34.3528261" lon="8.1801244"><ele>512.6</ele><time>2026-04-30T17:32:07.733Z</time></trkpt><trkpt lat="34.3529353" lon="8.1801827"><ele>513.4</ele><time>2026-04-30T17:32:09.745Z</time></trkpt><trkpt lat="34.3530556" lon="8.1801529"><ele>514.2</ele><time>2026-04-30T17:32:11.722Z</time></trkpt><trkpt lat="34.3531638" lon="8.1800999"><ele>515.0</ele><time>2026-04-30T17:32:13.726Z</time></trkpt><trkpt lat="34.3532254" lon="8.1801216"><ele>518.0</ele><time>2026-04-30T17:32:14.753Z</time></trkpt><trkpt lat="34.353279" lon="8.1801786"><ele>521.0</ele><time>2026-04-30T17:32:15.749Z</time></trkpt><trkpt lat="34.3533174" lon="8.1802608"><ele>524.0</ele><time>2026-04-30T17:32:16.752Z</time></trkpt><trkpt lat="34.353348" lon="8.1803518"><ele>527.0</ele><time>2026-04-30T17:32:17.713Z</time></trkpt><trkpt lat="34.3533925" lon="8.1804506"><ele>530.0</ele><time>2026-04-30T17:32:18.719Z</time></trkpt><trkpt lat="34.3534274" lon="8.1805492"><ele>533.0</ele><time>2026-04-30T17:32:19.697Z</time></trkpt><trkpt lat="34.3534547" lon="8.1806571"><ele>531.8333333333333</ele><time>2026-04-30T17:32:20.744Z</time></trkpt><trkpt lat="34.353469" lon="8.1807691"><ele>530.6666666666666</ele><time>2026-04-30T17:32:21.761Z</time></trkpt><trkpt lat="34.3534739" lon="8.1808677"><ele>529.5</ele><time>2026-04-30T17:32:22.767Z</time></trkpt><trkpt lat="34.3534806" lon="8.1809521"><ele>528.3333333333334</ele><time>2026-04-30T17:32:23.728Z</time></trkpt><trkpt lat="34.3535004" lon="8.1810254"><ele>527.1666666666667</ele><time>2026-04-30T17:32:24.725Z</time></trkpt><trkpt lat="34.3535602" lon="8.1811454"><ele>526.0</ele><time>2026-04-30T17:32:26.769Z</time></trkpt><trkpt lat="34.3536608" lon="8.1811896"><ele>526.0</ele><time>2026-04-30T17:32:28.722Z</time></trkpt><trkpt lat="34.3537646" lon="8.1811292"><ele>526.0</ele><time>2026-04-30T17:32:30.741Z</time></trkpt><trkpt lat="34.3538517" lon="8.181019"><ele>526.0</ele><time>2026-04-30T17:32:32.707Z</time></trkpt><trkpt lat="34.3538689" lon="8.1809385"><ele>526.0</ele><time>2026-04-30T17:32:33.747Z</time></trkpt><trkpt lat="34.3538619" lon="8.1808539"><ele>526.0</ele><time>2026-04-30T17:32:34.724Z</time></trkpt><trkpt lat="34.353843" lon="8.1807681"><ele>527.1666666666667</ele><time>2026-04-30T17:32:35.724Z</time></trkpt><trkpt lat="34.3538134" lon="8.180674"><ele>528.3333333333334</ele><time>2026-04-30T17:32:36.743Z</time></trkpt><trkpt lat="34.3537863" lon="8.1805781"><ele>529.5</ele><time>2026-04-30T17:32:37.735Z</time></trkpt><trkpt lat="34.3537667" lon="8.1804809"><ele>530.6666666666666</ele><time>2026-04-30T17:32:38.752Z</time></trkpt><trkpt lat="34.3537507" lon="8.1803734"><ele>531.8333333333333</ele><time>2026-04-30T17:32:39.747Z</time></trkpt><trkpt lat="34.3537336" lon="8.1802762"><ele>533.0</ele><time>2026-04-30T17:32:40.746Z</time></trkpt><trkpt lat="34.3537063" lon="8.1801882"><ele>533.0</ele><time>2026-04-30T17:32:41.725Z</time></trkpt><trkpt lat="34.3536807" lon="8.1800958"><ele>533.0</ele><time>2026-04-30T17:32:42.749Z</time></trkpt><trkpt lat="34.3536754" lon="8.1800089"><ele>533.0</ele><time>2026-04-30T17:32:43.752Z</time></trkpt><trkpt lat="34.3536894" lon="8.1799267"><ele>533.0</ele><time>2026-04-30T17:32:44.765Z</time></trkpt><trkpt lat="34.3537225" lon="8.1798384"><ele>533.0</ele><time>2026-04-30T17:32:45.696Z</time></trkpt><trkpt lat="34.3537744" lon="8.1797549"><ele>533.0</ele><time>2026-04-30T17:32:46.731Z</time></trkpt><trkpt lat="34.3538225" lon="8.1796684"><ele>531.8333333333333</ele><time>2026-04-30T17:32:47.718Z</time></trkpt><trkpt lat="34.3538681" lon="8.1795897"><ele>530.6666666666666</ele><time>2026-04-30T17:32:48.726Z</time></trkpt><trkpt lat="34.3539184" lon="8.17952"><ele>529.5</ele><time>2026-04-30T17:32:49.729Z</time></trkpt><trkpt lat="34.3539621" lon="8.1794557"><ele>528.3333333333334</ele><time>2026-04-30T17:32:50.741Z</time></trkpt><trkpt lat="34.3539994" lon="8.1793883"><ele>527.1666666666667</ele><time>2026-04-30T17:32:51.714Z</time></trkpt><trkpt lat="34.3540497" lon="8.1792597"><ele>526.0</ele><time>2026-04-30T17:32:53.759Z</time></trkpt><trkpt lat="34.3540701" lon="8.1791841"><ele>529.1666666666667</ele><time>2026-04-30T17:32:55.738Z</time></trkpt><trkpt lat="34.3540481" lon="8.1790912"><ele>532.3333333333334</ele><time>2026-04-30T17:32:58.75Z</time></trkpt><trkpt lat="34.3540025" lon="8.1790086"><ele>535.5</ele><time>2026-04-30T17:33:01.749Z</time></trkpt><trkpt lat="34.3540312" lon="8.1789123"><ele>538.6666666666666</ele><time>2026-04-30T17:33:27.735Z</time></trkpt><trkpt lat="34.3540991" lon="8.1788624"><ele>541.8333333333333</ele><time>2026-04-30T17:33:29.735Z</time></trkpt><trkpt lat="34.3541649" lon="8.1788372"><ele>545.0</ele><time>2026-04-30T17:33:31.732Z</time></trkpt><trkpt lat="34.3542436" lon="8.1787781"><ele>545.0</ele><time>2026-04-30T17:33:34.725Z</time></trkpt><trkpt lat="34.3543169" lon="8.1787019"><ele>545.0</ele><time>2026-04-30T17:33:37.712Z</time></trkpt><trkpt lat="34.3543584" lon="8.1786443"><ele>545.0</ele><time>2026-04-30T17:33:39.754Z</time></trkpt><trkpt lat="34.3544356" lon="8.1785774"><ele>545.0</ele><time>2026-04-30T17:33:41.702Z</time></trkpt><trkpt lat="34.3545311" lon="8.178503"><ele>545.0</ele><time>2026-04-30T17:33:43.736Z</time></trkpt><trkpt lat="34.3546133" lon="8.1784213"><ele>545.0</ele><time>2026-04-30T17:33:45.725Z</time></trkpt><trkpt lat="34.3546617" lon="8.1783635"><ele>545.0</ele><time>2026-04-30T17:33:46.722Z</time></trkpt><trkpt lat="34.3547415" lon="8.178269"><ele>545.0</ele><time>2026-04-30T17:33:48.714Z</time></trkpt><trkpt lat="34.3548232" lon="8.178186"><ele>545.0</ele><time>2026-04-30T17:33:50.731Z</time></trkpt><trkpt lat="34.3549054" lon="8.1781189"><ele>545.0</ele><time>2026-04-30T17:33:52.718Z</time></trkpt><trkpt lat="34.3549812" lon="8.1780552"><ele>547.0</ele><time>2026-04-30T17:33:54.705Z</time></trkpt><trkpt lat="34.3550608" lon="8.1780228"><ele>549.0</ele><time>2026-04-30T17:33:56.756Z</time></trkpt><trkpt lat="34.355147" lon="8.1779571"><ele>551.0</ele><time>2026-04-30T17:33:58.705Z</time></trkpt><trkpt lat="34.355224" lon="8.1778701"><ele>553.0</ele><time>2026-04-30T17:34:00.712Z</time></trkpt><trkpt lat="34.3552935" lon="8.177776"><ele>555.0</ele><time>2026-04-30T17:34:02.74Z</time></trkpt><trkpt lat="34.3553482" lon="8.1776772"><ele>555.0</ele><time>2026-04-30T17:34:04.729Z</time></trkpt><trkpt lat="34.3553994" lon="8.1775804"><ele>555.0</ele><time>2026-04-30T17:34:06.741Z</time></trkpt><trkpt lat="34.3554553" lon="8.1774945"><ele>555.0</ele><time>2026-04-30T17:34:08.72Z</time></trkpt><trkpt lat="34.3555058" lon="8.1774106"><ele>555.0</ele><time>2026-04-30T17:34:10.724Z</time></trkpt><trkpt lat="34.3555601" lon="8.1773215"><ele>555.0</ele><time>2026-04-30T17:34:12.73Z</time></trkpt><trkpt lat="34.3556075" lon="8.1772308"><ele>559.0</ele><time>2026-04-30T17:34:14.723Z</time></trkpt><trkpt lat="34.3556552" lon="8.1771417"><ele>563.0</ele><time>2026-04-30T17:34:16.717Z</time></trkpt><trkpt lat="34.3557124" lon="8.1770929"><ele>567.0</ele><time>2026-04-30T17:34:18.723Z</time></trkpt><trkpt lat="34.3557862" lon="8.1770813"><ele>571.0</ele><time>2026-04-30T17:34:20.732Z</time></trkpt><trkpt lat="34.3558506" lon="8.1770921"><ele>575.0</ele><time>2026-04-30T17:34:23.746Z</time></trkpt><trkpt lat="34.3559155" lon="8.1771044"><ele>579.0</ele><time>2026-04-30T17:36:42.731Z</time></trkpt><trkpt lat="34.3560134" lon="8.1770955"><ele>579.0</ele><time>2026-04-30T17:36:44.743Z</time></trkpt><trkpt lat="34.3561047" lon="8.1770551"><ele>579.0</ele><time>2026-04-30T17:36:46.731Z</time></trkpt><trkpt lat="34.3561865" lon="8.1770267"><ele>579.0</ele><time>2026-04-30T17:36:48.719Z</time></trkpt><trkpt lat="34.3562828" lon="8.1769982"><ele>579.0</ele><time>2026-04-30T17:36:50.729Z</time></trkpt><trkpt lat="34.3563884" lon="8.1769455"><ele>579.0</ele><time>2026-04-30T17:36:52.752Z</time></trkpt><trkpt lat="34.356492" lon="8.1768788"><ele>578.7142857142857</ele><time>2026-04-30T17:36:54.729Z</time></trkpt><trkpt lat="34.3565461" lon="8.1768374"><ele>578.4285714285714</ele><time>2026-04-30T17:36:55.737Z</time></trkpt><trkpt lat="34.3565961" lon="8.1767832"><ele>578.1428571428571</ele><time>2026-04-30T17:36:56.73Z</time></trkpt><trkpt lat="34.3566449" lon="8.1767281"><ele>577.8571428571429</ele><time>2026-04-30T17:36:57.754Z</time></trkpt><trkpt lat="34.3566938" lon="8.1766697"><ele>577.5714285714286</ele><time>2026-04-30T17:36:58.76Z</time></trkpt><trkpt lat="34.3567461" lon="8.1766043"><ele>577.2857142857142</ele><time>2026-04-30T17:36:59.754Z</time></trkpt><trkpt lat="34.3568024" lon="8.1765418"><ele>577.0</ele><time>2026-04-30T17:37:00.739Z</time></trkpt><trkpt lat="34.3568566" lon="8.1764821"><ele>577.0</ele><time>2026-04-30T17:37:01.739Z</time></trkpt><trkpt lat="34.3569158" lon="8.1764222"><ele>577.0</ele><time>2026-04-30T17:37:02.724Z</time></trkpt><trkpt lat="34.3569762" lon="8.1763606"><ele>577.0</ele><time>2026-04-30T17:37:03.739Z</time></trkpt><trkpt lat="34.3570358" lon="8.1763154"><ele>577.0</ele><time>2026-04-30T17:37:04.743Z</time></trkpt><trkpt lat="34.3570911" lon="8.1762695"><ele>577.0</ele><time>2026-04-30T17:37:05.737Z</time></trkpt><trkpt lat="34.3571482" lon="8.1762204"><ele>577.0</ele><time>2026-04-30T17:37:06.728Z</time></trkpt><trkpt lat="34.3572008" lon="8.176174"><ele>577.0</ele><time>2026-04-30T17:37:07.715Z</time></trkpt><trkpt lat="34.3572519" lon="8.1761193"><ele>577.0</ele><time>2026-04-30T17:37:08.723Z</time></trkpt><trkpt lat="34.3573005" lon="8.176062"><ele>577.0</ele><time>2026-04-30T17:37:09.748Z</time></trkpt><trkpt lat="34.3573563" lon="8.1760083"><ele>577.0</ele><time>2026-04-30T17:37:10.723Z</time></trkpt><trkpt lat="34.3574186" lon="8.1759549"><ele>577.0</ele><time>2026-04-30T17:37:11.741Z</time></trkpt><trkpt lat="34.3574897" lon="8.1758986"><ele>577.0</ele><time>2026-04-30T17:37:12.731Z</time></trkpt><trkpt lat="34.3575658" lon="8.175841"><ele>577.0</ele><time>2026-04-30T17:37:13.738Z</time></trkpt><trkpt lat="34.3576452" lon="8.1757759"><ele>577.0</ele><time>2026-04-30T17:37:14.766Z</time></trkpt><trkpt lat="34.3577272" lon="8.1757284"><ele>577.0</ele><time>2026-04-30T17:37:15.719Z</time></trkpt><trkpt lat="34.3578103" lon="8.1756627"><ele>577.0</ele><time>2026-04-30T17:37:16.719Z</time></trkpt><trkpt lat="34.3578913" lon="8.1755985"><ele>577.0</ele><time>2026-04-30T17:37:17.74Z</time></trkpt><trkpt lat="34.3580305" lon="8.1754833"><ele>577.1666666666667</ele><time>2026-04-30T17:37:19.76Z</time></trkpt><trkpt lat="34.3580842" lon="8.1754347"><ele>577.3333333333334</ele><time>2026-04-30T17:37:20.705Z</time></trkpt><trkpt lat="34.3581901" lon="8.1753452"><ele>577.5</ele><time>2026-04-30T17:37:22.735Z</time></trkpt><trkpt lat="34.3582529" lon="8.1752999"><ele>577.6666666666666</ele><time>2026-04-30T17:37:23.744Z</time></trkpt><trkpt lat="34.3583076" lon="8.1752517"><ele>577.8333333333333</ele><time>2026-04-30T17:37:24.75Z</time></trkpt><trkpt lat="34.3583682" lon="8.1751921"><ele>578.0</ele><time>2026-04-30T17:37:25.765Z</time></trkpt><trkpt lat="34.3584382" lon="8.175108"><ele>578.0</ele><time>2026-04-30T17:37:26.741Z</time></trkpt><trkpt lat="34.3585121" lon="8.1750218"><ele>578.0</ele><time>2026-04-30T17:37:27.746Z</time></trkpt><trkpt lat="34.3585848" lon="8.1749466"><ele>578.0</ele><time>2026-04-30T17:37:28.74Z</time></trkpt><trkpt lat="34.3586559" lon="8.1748744"><ele>578.0</ele><time>2026-04-30T17:37:29.713Z</time></trkpt><trkpt lat="34.358723" lon="8.1748121"><ele>578.0</ele><time>2026-04-30T17:37:30.727Z</time></trkpt><trkpt lat="34.3587846" lon="8.1747497"><ele>579.0</ele><time>2026-04-30T17:37:31.725Z</time></trkpt><trkpt lat="34.3588482" lon="8.1746879"><ele>580.0</ele><time>2026-04-30T17:37:32.749Z</time></trkpt><trkpt lat="34.3589101" lon="8.1746306"><ele>581.0</ele><time>2026-04-30T17:37:33.734Z</time></trkpt><trkpt lat="34.3589774" lon="8.1745778"><ele>582.0</ele><time>2026-04-30T17:37:34.736Z</time></trkpt><trkpt lat="34.3590382" lon="8.1745194"><ele>583.0</ele><time>2026-04-30T17:37:35.719Z</time></trkpt><trkpt lat="34.3590963" lon="8.1744626"><ele>584.0</ele><time>2026-04-30T17:37:36.733Z</time></trkpt><trkpt lat="34.3591521" lon="8.1744071"><ele>584.6</ele><time>2026-04-30T17:37:37.749Z</time></trkpt><trkpt lat="34.3592082" lon="8.1743446"><ele>585.2</ele><time>2026-04-30T17:37:38.733Z</time></trkpt><trkpt lat="34.3592645" lon="8.1742869"><ele>585.8000000000001</ele><time>2026-04-30T17:37:39.732Z</time></trkpt><trkpt lat="34.3593214" lon="8.1742077"><ele>586.4</ele><time>2026-04-30T17:37:40.728Z</time></trkpt><trkpt lat="34.3593821" lon="8.1741026"><ele>587.0</ele><time>2026-04-30T17:37:41.734Z</time></trkpt><trkpt lat="34.3594527" lon="8.1739871"><ele>587.8000000000001</ele><time>2026-04-30T17:37:42.748Z</time></trkpt><trkpt lat="34.3595167" lon="8.1738931"><ele>588.6</ele><time>2026-04-30T17:37:43.71Z</time></trkpt><trkpt lat="34.3595719" lon="8.1738035"><ele>589.4000000000001</ele><time>2026-04-30T17:37:44.746Z</time></trkpt><trkpt lat="34.3596304" lon="8.173714"><ele>590.2</ele><time>2026-04-30T17:37:45.729Z</time></trkpt><trkpt lat="34.3596887" lon="8.1736267"><ele>591.0</ele><time>2026-04-30T17:37:46.725Z</time></trkpt><trkpt lat="34.359743" lon="8.1735275"><ele>591.0</ele><time>2026-04-30T17:37:47.731Z</time></trkpt><trkpt lat="34.359804" lon="8.1734399"><ele>591.0</ele><time>2026-04-30T17:37:48.724Z</time></trkpt><trkpt lat="34.3598719" lon="8.1733636"><ele>591.0</ele><time>2026-04-30T17:37:49.728Z</time></trkpt><trkpt lat="34.3599394" lon="8.1732996"><ele>591.0</ele><time>2026-04-30T17:37:50.729Z</time></trkpt><trkpt lat="34.3600049" lon="8.1732329"><ele>591.0</ele><time>2026-04-30T17:37:51.712Z</time></trkpt><trkpt lat="34.3600704" lon="8.1731731"><ele>591.0</ele><time>2026-04-30T17:37:52.725Z</time></trkpt><trkpt lat="34.360135" lon="8.173114"><ele>591.8333333333334</ele><time>2026-04-30T17:37:53.756Z</time></trkpt><trkpt lat="34.3601927" lon="8.1730462"><ele>592.6666666666666</ele><time>2026-04-30T17:37:54.739Z</time></trkpt><trkpt lat="34.3602486" lon="8.1729744"><ele>593.5</ele><time>2026-04-30T17:37:55.734Z</time></trkpt><trkpt lat="34.3603082" lon="8.1728993"><ele>594.3333333333333</ele><time>2026-04-30T17:37:56.738Z</time></trkpt><trkpt lat="34.3603679" lon="8.1728264"><ele>595.1666666666666</ele><time>2026-04-30T17:37:57.739Z</time></trkpt><trkpt lat="34.3604266" lon="8.1727548"><ele>596.0</ele><time>2026-04-30T17:37:58.73Z</time></trkpt><trkpt lat="34.3604836" lon="8.1726819"><ele>595.0</ele><time>2026-04-30T17:37:59.743Z</time></trkpt><trkpt lat="34.360539" lon="8.17261"><ele>594.0</ele><time>2026-04-30T17:38:00.725Z</time></trkpt><trkpt lat="34.3606116" lon="8.1725127"><ele>593.0</ele><time>2026-04-30T17:38:01.739Z</time></trkpt><trkpt lat="34.3606953" lon="8.1723831"><ele>592.0</ele><time>2026-04-30T17:38:02.727Z</time></trkpt><trkpt lat="34.3607688" lon="8.172279"><ele>591.0</ele><time>2026-04-30T17:38:03.725Z</time></trkpt><trkpt lat="34.3608382" lon="8.1721857"><ele>591.0</ele><time>2026-04-30T17:38:04.725Z</time></trkpt><trkpt lat="34.360902" lon="8.1720885"><ele>591.0</ele><time>2026-04-30T17:38:05.741Z</time></trkpt><trkpt lat="34.3609696" lon="8.1719868"><ele>591.0</ele><time>2026-04-30T17:38:06.744Z</time></trkpt><trkpt lat="34.3610497" lon="8.1718668"><ele>591.0</ele><time>2026-04-30T17:38:07.733Z</time></trkpt><trkpt lat="34.3611269" lon="8.1717352"><ele>591.0</ele><time>2026-04-30T17:38:08.717Z</time></trkpt><trkpt lat="34.3612012" lon="8.1716216"><ele>591.0</ele><time>2026-04-30T17:38:09.72Z</time></trkpt><trkpt lat="34.361262" lon="8.1715228"><ele>591.0</ele><time>2026-04-30T17:38:10.749Z</time></trkpt><trkpt lat="34.3613222" lon="8.1714451"><ele>591.0</ele><time>2026-04-30T17:38:11.726Z</time></trkpt><trkpt lat="34.3613751" lon="8.1713641"><ele>591.0</ele><time>2026-04-30T17:38:12.694Z</time></trkpt><trkpt lat="34.3614287" lon="8.1712932"><ele>590.6</ele><time>2026-04-30T17:38:13.729Z</time></trkpt><trkpt lat="34.3614859" lon="8.1712126"><ele>590.2</ele><time>2026-04-30T17:38:14.741Z</time></trkpt><trkpt lat="34.3615437" lon="8.1711284"><ele>589.8</ele><time>2026-04-30T17:38:15.755Z</time></trkpt><trkpt lat="34.3616036" lon="8.1710424"><ele>589.4</ele><time>2026-04-30T17:38:16.765Z</time></trkpt><trkpt lat="34.3616696" lon="8.1709489"><ele>589.0</ele><time>2026-04-30T17:38:17.743Z</time></trkpt><trkpt lat="34.3617396" lon="8.1708535"><ele>589.0</ele><time>2026-04-30T17:38:18.762Z</time></trkpt><trkpt lat="34.3618025" lon="8.1707677"><ele>589.0</ele><time>2026-04-30T17:38:19.748Z</time></trkpt><trkpt lat="34.3618549" lon="8.1706891"><ele>589.0</ele><time>2026-04-30T17:38:20.783Z</time></trkpt><trkpt lat="34.361908" lon="8.1705959"><ele>589.0</ele><time>2026-04-30T17:38:21.762Z</time></trkpt><trkpt lat="34.3619619" lon="8.1704968"><ele>589.0</ele><time>2026-04-30T17:38:22.744Z</time></trkpt><trkpt lat="34.3620125" lon="8.1703941"><ele>589.2</ele><time>2026-04-30T17:38:23.746Z</time></trkpt><trkpt lat="34.3620715" lon="8.1702939"><ele>589.4</ele><time>2026-04-30T17:38:24.723Z</time></trkpt><trkpt lat="34.3621269" lon="8.1701901"><ele>589.6</ele><time>2026-04-30T17:38:25.764Z</time></trkpt><trkpt lat="34.3621762" lon="8.1700855"><ele>589.8</ele><time>2026-04-30T17:38:26.73Z</time></trkpt><trkpt lat="34.3622204" lon="8.1699821"><ele>590.0</ele><time>2026-04-30T17:38:27.726Z</time></trkpt><trkpt lat="34.3622611" lon="8.1698769"><ele>589.8</ele><time>2026-04-30T17:38:28.742Z</time></trkpt><trkpt lat="34.3622969" lon="8.1697786"><ele>589.6</ele><time>2026-04-30T17:38:29.767Z</time></trkpt><trkpt lat="34.3623332" lon="8.1696936"><ele>589.4</ele><time>2026-04-30T17:38:30.778Z</time></trkpt><trkpt lat="34.3623711" lon="8.1696021"><ele>589.2</ele><time>2026-04-30T17:38:31.755Z</time></trkpt><trkpt lat="34.3624309" lon="8.1694809"><ele>589.0</ele><time>2026-04-30T17:38:33.757Z</time></trkpt><trkpt lat="34.3624989" lon="8.1693456"><ele>589.0</ele><time>2026-04-30T17:38:35.745Z</time></trkpt><trkpt lat="34.3625422" lon="8.1692744"><ele>589.0</ele><time>2026-04-30T17:38:36.763Z</time></trkpt><trkpt lat="34.3625906" lon="8.1692011"><ele>589.0</ele><time>2026-04-30T17:38:37.715Z</time></trkpt><trkpt lat="34.3626402" lon="8.1691284"><ele>589.0</ele><time>2026-04-30T17:38:38.755Z</time></trkpt><trkpt lat="34.3626933" lon="8.1690573"><ele>589.0</ele><time>2026-04-30T17:38:39.75Z</time></trkpt><trkpt lat="34.3627522" lon="8.1689815"><ele>589.0</ele><time>2026-04-30T17:38:40.768Z</time></trkpt><trkpt lat="34.3628079" lon="8.1688957"><ele>589.3333333333334</ele><time>2026-04-30T17:38:41.764Z</time></trkpt><trkpt lat="34.3628605" lon="8.168812"><ele>589.6666666666667</ele><time>2026-04-30T17:38:42.751Z</time></trkpt><trkpt lat="34.3629116" lon="8.1687343"><ele>590.0</ele><time>2026-04-30T17:38:43.724Z</time></trkpt><trkpt lat="34.3629637" lon="8.1686564"><ele>590.3333333333334</ele><time>2026-04-30T17:38:44.758Z</time></trkpt><trkpt lat="34.3630261" lon="8.1685717"><ele>590.6666666666666</ele><time>2026-04-30T17:38:45.758Z</time></trkpt><trkpt lat="34.3630842" lon="8.1684796"><ele>591.0</ele><time>2026-04-30T17:38:46.713Z</time></trkpt><trkpt lat="34.3631402" lon="8.1683954"><ele>591.1666666666666</ele><time>2026-04-30T17:38:47.752Z</time></trkpt><trkpt lat="34.3631964" lon="8.1683064"><ele>591.3333333333334</ele><time>2026-04-30T17:38:48.757Z</time></trkpt><trkpt lat="34.3632492" lon="8.1682258"><ele>591.5</ele><time>2026-04-30T17:38:49.752Z</time></trkpt><trkpt lat="34.3633061" lon="8.1681417"><ele>591.6666666666667</ele><time>2026-04-30T17:38:50.754Z</time></trkpt><trkpt lat="34.3633671" lon="8.1680667"><ele>591.8333333333334</ele><time>2026-04-30T17:38:51.751Z</time></trkpt><trkpt lat="34.3634298" lon="8.1680048"><ele>592.0</ele><time>2026-04-30T17:38:52.75Z</time></trkpt><trkpt lat="34.3634958" lon="8.167952"><ele>592.0</ele><time>2026-04-30T17:38:53.766Z</time></trkpt><trkpt lat="34.3635642" lon="8.1678956"><ele>592.0</ele><time>2026-04-30T17:38:54.727Z</time></trkpt><trkpt lat="34.3636293" lon="8.1678403"><ele>592.0</ele><time>2026-04-30T17:38:55.728Z</time></trkpt><trkpt lat="34.3636946" lon="8.1677851"><ele>592.0</ele><time>2026-04-30T17:38:56.738Z</time></trkpt><trkpt lat="34.3637637" lon="8.1677398"><ele>592.0</ele><time>2026-04-30T17:38:57.744Z</time></trkpt><trkpt lat="34.3638317" lon="8.1676953"><ele>592.0</ele><time>2026-04-30T17:38:58.768Z</time></trkpt><trkpt lat="34.3638999" lon="8.1676461"><ele>592.0</ele><time>2026-04-30T17:38:59.765Z</time></trkpt><trkpt lat="34.3639638" lon="8.1676062"><ele>592.0</ele><time>2026-04-30T17:39:00.772Z</time></trkpt><trkpt lat="34.3640258" lon="8.1675726"><ele>592.0</ele><time>2026-04-30T17:39:01.746Z</time></trkpt><trkpt lat="34.364138" lon="8.1675236"><ele>592.0</ele><time>2026-04-30T17:39:03.762Z</time></trkpt><trkpt lat="34.3642253" lon="8.1674859"><ele>592.0</ele><time>2026-04-30T17:39:05.753Z</time></trkpt><trkpt lat="34.3642928" lon="8.1674557"><ele>592.0</ele><time>2026-04-30T17:39:07.723Z</time></trkpt><trkpt lat="34.3643796" lon="8.1674316"><ele>592.0</ele><time>2026-04-30T17:39:10.74Z</time></trkpt><trkpt lat="34.36444" lon="8.1674047"><ele>592.0</ele><time>2026-04-30T17:39:29.734Z</time></trkpt><trkpt lat="34.3645191" lon="8.1673733"><ele>592.0</ele><time>2026-04-30T17:39:31.711Z</time></trkpt><trkpt lat="34.3646212" lon="8.1673213"><ele>592.0</ele><time>2026-04-30T17:39:33.751Z</time></trkpt><trkpt lat="34.3646787" lon="8.1672899"><ele>592.0</ele><time>2026-04-30T17:39:34.744Z</time></trkpt><trkpt lat="34.3647372" lon="8.1672524"><ele>592.0</ele><time>2026-04-30T17:39:35.734Z</time></trkpt><trkpt lat="34.3648017" lon="8.1672259"><ele>591.0</ele><time>2026-04-30T17:39:36.736Z</time></trkpt><trkpt lat="34.3648694" lon="8.1672052"><ele>590.0</ele><time>2026-04-30T17:39:37.751Z</time></trkpt><trkpt lat="34.3649389" lon="8.1671851"><ele>589.0</ele><time>2026-04-30T17:39:38.731Z</time></trkpt><trkpt lat="34.3650089" lon="8.1671701"><ele>588.0</ele><time>2026-04-30T17:39:39.765Z</time></trkpt><trkpt lat="34.3650752" lon="8.1671592"><ele>587.0</ele><time>2026-04-30T17:39:40.763Z</time></trkpt><trkpt lat="34.3651443" lon="8.1671523"><ele>586.0</ele><time>2026-04-30T17:39:41.757Z</time></trkpt><trkpt lat="34.3652594" lon="8.1671564"><ele>586.0</ele><time>2026-04-30T17:39:43.741Z</time></trkpt><trkpt lat="34.3653737" lon="8.1671413"><ele>586.0</ele><time>2026-04-30T17:39:45.761Z</time></trkpt><trkpt lat="34.3654787" lon="8.1671498"><ele>586.0</ele><time>2026-04-30T17:39:47.759Z</time></trkpt><trkpt lat="34.3655819" lon="8.1671519"><ele>586.0</ele><time>2026-04-30T17:39:49.739Z</time></trkpt><trkpt lat="34.3656876" lon="8.167157"><ele>586.0</ele><time>2026-04-30T17:39:51.748Z</time></trkpt><trkpt lat="34.3657925" lon="8.1671595"><ele>585.0</ele><time>2026-04-30T17:39:53.748Z</time></trkpt><trkpt lat="34.3658897" lon="8.1671606"><ele>584.0</ele><time>2026-04-30T17:39:55.737Z</time></trkpt><trkpt lat="34.3659828" lon="8.1671608"><ele>583.0</ele><time>2026-04-30T17:39:57.759Z</time></trkpt><trkpt lat="34.3660796" lon="8.1671707"><ele>582.0</ele><time>2026-04-30T17:39:59.764Z</time></trkpt><trkpt lat="34.3661452" lon="8.1671731"><ele>581.0</ele><time>2026-04-30T17:40:00.754Z</time></trkpt><trkpt lat="34.3662123" lon="8.1671765"><ele>580.0</ele><time>2026-04-30T17:40:01.749Z</time></trkpt><trkpt lat="34.3662799" lon="8.1671763"><ele>580.0</ele><time>2026-04-30T17:40:02.757Z</time></trkpt><trkpt lat="34.3663516" lon="8.1671773"><ele>580.0</ele><time>2026-04-30T17:40:03.754Z</time></trkpt><trkpt lat="34.3664267" lon="8.1671747"><ele>580.0</ele><time>2026-04-30T17:40:04.75Z</time></trkpt><trkpt lat="34.3665043" lon="8.1671769"><ele>580.0</ele><time>2026-04-30T17:40:05.758Z</time></trkpt><trkpt lat="34.3665805" lon="8.1671801"><ele>580.0</ele><time>2026-04-30T17:40:06.755Z</time></trkpt><trkpt lat="34.3666489" lon="8.1671817"><ele>580.0</ele><time>2026-04-30T17:40:07.733Z</time></trkpt><trkpt lat="34.3667553" lon="8.1671847"><ele>578.8</ele><time>2026-04-30T17:40:09.765Z</time></trkpt><trkpt lat="34.3668608" lon="8.1671811"><ele>577.6</ele><time>2026-04-30T17:40:11.747Z</time></trkpt><trkpt lat="34.3669755" lon="8.1671783"><ele>576.4</ele><time>2026-04-30T17:40:13.759Z</time></trkpt><trkpt lat="34.3670776" lon="8.1671839"><ele>575.2</ele><time>2026-04-30T17:40:15.765Z</time></trkpt><trkpt lat="34.3671765" lon="8.1671857"><ele>574.0</ele><time>2026-04-30T17:40:17.739Z</time></trkpt><trkpt lat="34.3672729" lon="8.1671907"><ele>573.0</ele><time>2026-04-30T17:40:19.757Z</time></trkpt><trkpt lat="34.3673651" lon="8.1672109"><ele>572.0</ele><time>2026-04-30T17:40:21.737Z</time></trkpt><trkpt lat="34.3674658" lon="8.1672076"><ele>571.0</ele><time>2026-04-30T17:40:23.702Z</time></trkpt><trkpt lat="34.367567" lon="8.1672076"><ele>570.0</ele><time>2026-04-30T17:40:25.724Z</time></trkpt><trkpt lat="34.367632" lon="8.1672091"><ele>569.0</ele><time>2026-04-30T17:40:26.709Z</time></trkpt><trkpt lat="34.3677031" lon="8.1672135"><ele>568.0</ele><time>2026-04-30T17:40:27.749Z</time></trkpt><trkpt lat="34.3677805" lon="8.1672167"><ele>568.0</ele><time>2026-04-30T17:40:28.735Z</time></trkpt><trkpt lat="34.3678629" lon="8.1672074"><ele>568.0</ele><time>2026-04-30T17:40:29.723Z</time></trkpt><trkpt lat="34.3679404" lon="8.1672017"><ele>568.0</ele><time>2026-04-30T17:40:30.722Z</time></trkpt><trkpt lat="34.3680205" lon="8.1672001"><ele>568.0</ele><time>2026-04-30T17:40:31.865Z</time></trkpt><trkpt lat="34.368111" lon="8.1672006"><ele>568.0</ele><time>2026-04-30T17:40:32.81Z</time></trkpt><trkpt lat="34.3682047" lon="8.1672059"><ele>568.0</ele><time>2026-04-30T17:40:33.822Z</time></trkpt><trkpt lat="34.3683006" lon="8.1672079"><ele>566.8</ele><time>2026-04-30T17:40:34.774Z</time></trkpt><trkpt lat="34.3683969" lon="8.1672099"><ele>565.5999999999999</ele><time>2026-04-30T17:40:35.762Z</time></trkpt><trkpt lat="34.3684961" lon="8.1672137"><ele>564.4000000000001</ele><time>2026-04-30T17:40:36.805Z</time></trkpt><trkpt lat="34.3685937" lon="8.1672192"><ele>563.2</ele><time>2026-04-30T17:40:37.783Z</time></trkpt><trkpt lat="34.3686869" lon="8.1672197"><ele>562.0</ele><time>2026-04-30T17:40:38.814Z</time></trkpt><trkpt lat="34.3687793" lon="8.1672182"><ele>563.1666666666667</ele><time>2026-04-30T17:40:39.827Z</time></trkpt><trkpt lat="34.3688722" lon="8.1672151"><ele>564.3333333333334</ele><time>2026-04-30T17:40:40.831Z</time></trkpt><trkpt lat="34.3689619" lon="8.1672184"><ele>565.5</ele><time>2026-04-30T17:40:41.812Z</time></trkpt><trkpt lat="34.3690424" lon="8.1672213"><ele>566.6666666666666</ele><time>2026-04-30T17:40:42.817Z</time></trkpt><trkpt lat="34.3691234" lon="8.1672255"><ele>567.8333333333333</ele><time>2026-04-30T17:40:43.814Z</time></trkpt><trkpt lat="34.3692082" lon="8.1672293"><ele>569.0</ele><time>2026-04-30T17:40:44.806Z</time></trkpt><trkpt lat="34.3692946" lon="8.1672256"><ele>569.0</ele><time>2026-04-30T17:40:45.801Z</time></trkpt><trkpt lat="34.369378" lon="8.1672213"><ele>569.0</ele><time>2026-04-30T17:40:46.814Z</time></trkpt><trkpt lat="34.3694551" lon="8.1672108"><ele>569.0</ele><time>2026-04-30T17:40:47.83Z</time></trkpt><trkpt lat="34.369534" lon="8.1671866"><ele>569.0</ele><time>2026-04-30T17:40:48.782Z</time></trkpt><trkpt lat="34.3696154" lon="8.1671592"><ele>569.0</ele><time>2026-04-30T17:40:49.745Z</time></trkpt><trkpt lat="34.3696897" lon="8.1671405"><ele>569.0</ele><time>2026-04-30T17:40:50.771Z</time></trkpt><trkpt lat="34.3697613" lon="8.1671086"><ele>569.8571428571429</ele><time>2026-04-30T17:40:51.782Z</time></trkpt><trkpt lat="34.3698327" lon="8.1670645"><ele>570.7142857142858</ele><time>2026-04-30T17:40:52.779Z</time></trkpt><trkpt lat="34.3698939" lon="8.1670105"><ele>571.5714285714286</ele><time>2026-04-30T17:40:53.814Z</time></trkpt><trkpt lat="34.3699521" lon="8.1669565"><ele>572.4285714285714</ele><time>2026-04-30T17:40:54.822Z</time></trkpt><trkpt lat="34.3700062" lon="8.1669101"><ele>573.2857142857142</ele><time>2026-04-30T17:40:55.777Z</time></trkpt><trkpt lat="34.3700585" lon="8.1668583"><ele>574.1428571428571</ele><time>2026-04-30T17:40:56.775Z</time></trkpt><trkpt lat="34.3701122" lon="8.1667995"><ele>575.0</ele><time>2026-04-30T17:40:57.824Z</time></trkpt><trkpt lat="34.370159" lon="8.1667318"><ele>575.0</ele><time>2026-04-30T17:40:58.793Z</time></trkpt><trkpt lat="34.3702064" lon="8.1666631"><ele>575.0</ele><time>2026-04-30T17:40:59.808Z</time></trkpt><trkpt lat="34.3702513" lon="8.1665994"><ele>575.0</ele><time>2026-04-30T17:41:00.806Z</time></trkpt><trkpt lat="34.3702993" lon="8.1665328"><ele>575.0</ele><time>2026-04-30T17:41:01.823Z</time></trkpt><trkpt lat="34.3703476" lon="8.1664638"><ele>575.0</ele><time>2026-04-30T17:41:02.798Z</time></trkpt><trkpt lat="34.370397" lon="8.1663985"><ele>575.0</ele><time>2026-04-30T17:41:03.798Z</time></trkpt><trkpt lat="34.3704426" lon="8.1663285"><ele>575.0</ele><time>2026-04-30T17:41:04.826Z</time></trkpt><trkpt lat="34.3704892" lon="8.166263"><ele>575.1428571428571</ele><time>2026-04-30T17:41:05.786Z</time></trkpt><trkpt lat="34.37053" lon="8.1661909"><ele>575.2857142857142</ele><time>2026-04-30T17:41:06.845Z</time></trkpt><trkpt lat="34.3705651" lon="8.1661245"><ele>575.4285714285714</ele><time>2026-04-30T17:41:07.762Z</time></trkpt><trkpt lat="34.3705939" lon="8.166055"><ele>575.5714285714286</ele><time>2026-04-30T17:41:08.775Z</time></trkpt><trkpt lat="34.3706263" lon="8.165984"><ele>575.7142857142858</ele><time>2026-04-30T17:41:09.82Z</time></trkpt><trkpt lat="34.370655" lon="8.1659144"><ele>575.8571428571429</ele><time>2026-04-30T17:41:10.828Z</time></trkpt><trkpt lat="34.3706989" lon="8.1657922"><ele>576.0</ele><time>2026-04-30T17:41:12.821Z</time></trkpt><trkpt lat="34.3707389" lon="8.1657003"><ele>575.8333333333334</ele><time>2026-04-30T17:41:14.829Z</time></trkpt><trkpt lat="34.3707684" lon="8.1656084"><ele>575.6666666666666</ele><time>2026-04-30T17:41:16.815Z</time></trkpt><trkpt lat="34.3707965" lon="8.1655165"><ele>575.5</ele><time>2026-04-30T17:41:19.766Z</time></trkpt><trkpt lat="34.3707485" lon="8.1654633"><ele>575.3333333333333</ele><time>2026-04-30T17:41:22.824Z</time></trkpt><trkpt lat="34.3707839" lon="8.1653841"><ele>575.1666666666666</ele><time>2026-04-30T17:41:24.786Z</time></trkpt><trkpt lat="34.3708246" lon="8.1652511"><ele>575.0</ele><time>2026-04-30T17:41:26.819Z</time></trkpt><trkpt lat="34.3708487" lon="8.1651798"><ele>575.0</ele><time>2026-04-30T17:41:27.825Z</time></trkpt><trkpt lat="34.370872" lon="8.1651024"><ele>575.0</ele><time>2026-04-30T17:41:28.81Z</time></trkpt><trkpt lat="34.3708929" lon="8.1650208"><ele>575.0</ele><time>2026-04-30T17:41:29.798Z</time></trkpt><trkpt lat="34.3709106" lon="8.1649414"><ele>575.0</ele><time>2026-04-30T17:41:30.79Z</time></trkpt><trkpt lat="34.3709352" lon="8.1648625"><ele>575.0</ele><time>2026-04-30T17:41:31.81Z</time></trkpt><trkpt lat="34.3709634" lon="8.1647819"><ele>575.0</ele><time>2026-04-30T17:41:32.794Z</time></trkpt><trkpt lat="34.3709937" lon="8.1646964"><ele>575.0</ele><time>2026-04-30T17:41:33.797Z</time></trkpt><trkpt lat="34.3710147" lon="8.1646082"><ele>575.5</ele><time>2026-04-30T17:41:34.817Z</time></trkpt><trkpt lat="34.3710371" lon="8.1645176"><ele>576.0</ele><time>2026-04-30T17:41:35.83Z</time></trkpt><trkpt lat="34.3710624" lon="8.1644246"><ele>576.5</ele><time>2026-04-30T17:41:36.82Z</time></trkpt><trkpt lat="34.3710877" lon="8.164333"><ele>577.0</ele><time>2026-04-30T17:41:37.804Z</time></trkpt><trkpt lat="34.3711048" lon="8.1642453"><ele>577.5</ele><time>2026-04-30T17:41:38.813Z</time></trkpt><trkpt lat="34.3711251" lon="8.1641612"><ele>578.0</ele><time>2026-04-30T17:41:39.817Z</time></trkpt><trkpt lat="34.3711498" lon="8.1640757"><ele>578.3333333333333</ele><time>2026-04-30T17:41:40.815Z</time></trkpt><trkpt lat="34.3711774" lon="8.1639893"><ele>578.6666666666666</ele><time>2026-04-30T17:41:41.82Z</time></trkpt><trkpt lat="34.3712073" lon="8.163904"><ele>579.0</ele><time>2026-04-30T17:41:42.803Z</time></trkpt><trkpt lat="34.3712409" lon="8.1638232"><ele>579.3333333333334</ele><time>2026-04-30T17:41:43.817Z</time></trkpt><trkpt lat="34.3712756" lon="8.1637423"><ele>579.6666666666667</ele><time>2026-04-30T17:41:44.765Z</time></trkpt><trkpt lat="34.3713199" lon="8.1636631"><ele>580.0</ele><time>2026-04-30T17:41:45.796Z</time></trkpt><trkpt lat="34.3713655" lon="8.1635907"><ele>579.5</ele><time>2026-04-30T17:41:46.759Z</time></trkpt><trkpt lat="34.371417" lon="8.1635143"><ele>579.0</ele><time>2026-04-30T17:41:47.787Z</time></trkpt><trkpt lat="34.3714714" lon="8.1634422"><ele>578.5</ele><time>2026-04-30T17:41:48.75Z</time></trkpt><trkpt lat="34.3715231" lon="8.163374"><ele>578.0</ele><time>2026-04-30T17:41:49.773Z</time></trkpt><trkpt lat="34.3715735" lon="8.1633098"><ele>577.5</ele><time>2026-04-30T17:41:50.794Z</time></trkpt><trkpt lat="34.3716227" lon="8.1632481"><ele>577.0</ele><time>2026-04-30T17:41:51.78Z</time></trkpt><trkpt lat="34.3716716" lon="8.1631894"><ele>577.0</ele><time>2026-04-30T17:41:52.813Z</time></trkpt><trkpt lat="34.3717211" lon="8.1631356"><ele>577.0</ele><time>2026-04-30T17:41:53.836Z</time></trkpt><trkpt lat="34.3717764" lon="8.1630833"><ele>577.0</ele><time>2026-04-30T17:41:54.785Z</time></trkpt><trkpt lat="34.3718334" lon="8.1630236"><ele>577.0</ele><time>2026-04-30T17:41:55.78Z</time></trkpt><trkpt lat="34.3718913" lon="8.1629593"><ele>577.0</ele><time>2026-04-30T17:41:56.82Z</time></trkpt><trkpt lat="34.371944" lon="8.1628904"><ele>577.0</ele><time>2026-04-30T17:41:57.765Z</time></trkpt><trkpt lat="34.3720003" lon="8.1628151"><ele>577.0</ele><time>2026-04-30T17:41:58.822Z</time></trkpt><trkpt lat="34.3720586" lon="8.1627397"><ele>577.0</ele><time>2026-04-30T17:41:59.827Z</time></trkpt><trkpt lat="34.3721185" lon="8.1626633"><ele>577.0</ele><time>2026-04-30T17:42:00.81Z</time></trkpt><trkpt lat="34.3721748" lon="8.1625877"><ele>577.0</ele><time>2026-04-30T17:42:01.785Z</time></trkpt><trkpt lat="34.3722293" lon="8.1625162"><ele>577.0</ele><time>2026-04-30T17:42:02.81Z</time></trkpt><trkpt lat="34.3722815" lon="8.1624489"><ele>577.0</ele><time>2026-04-30T17:42:03.815Z</time></trkpt><trkpt lat="34.3723379" lon="8.1623717"><ele>575.2</ele><time>2026-04-30T17:42:04.839Z</time></trkpt><trkpt lat="34.3723987" lon="8.1622972"><ele>573.4000000000001</ele><time>2026-04-30T17:42:05.774Z</time></trkpt><trkpt lat="34.3724582" lon="8.162219"><ele>571.5999999999999</ele><time>2026-04-30T17:42:06.781Z</time></trkpt><trkpt lat="34.3725231" lon="8.1621396"><ele>569.8</ele><time>2026-04-30T17:42:07.833Z</time></trkpt><trkpt lat="34.3725895" lon="8.1620574"><ele>568.0</ele><time>2026-04-30T17:42:08.828Z</time></trkpt><trkpt lat="34.3726569" lon="8.1619702"><ele>568.0</ele><time>2026-04-30T17:42:09.815Z</time></trkpt><trkpt lat="34.3727299" lon="8.161886"><ele>568.0</ele><time>2026-04-30T17:42:10.819Z</time></trkpt><trkpt lat="34.3728012" lon="8.1617982"><ele>568.0</ele><time>2026-04-30T17:42:11.767Z</time></trkpt><trkpt lat="34.3728687" lon="8.1617047"><ele>568.0</ele><time>2026-04-30T17:42:12.82Z</time></trkpt><trkpt lat="34.3729372" lon="8.1616168"><ele>568.0</ele><time>2026-04-30T17:42:13.81Z</time></trkpt><trkpt lat="34.3730035" lon="8.1615281"><ele>568.0</ele><time>2026-04-30T17:42:14.784Z</time></trkpt><trkpt lat="34.3730782" lon="8.1614393"><ele>568.0</ele><time>2026-04-30T17:42:15.788Z</time></trkpt><trkpt lat="34.3731439" lon="8.1613588"><ele>568.0</ele><time>2026-04-30T17:42:16.807Z</time></trkpt><trkpt lat="34.373204" lon="8.1612758"><ele>568.0</ele><time>2026-04-30T17:42:17.836Z</time></trkpt><trkpt lat="34.3732608" lon="8.1611994"><ele>568.0</ele><time>2026-04-30T17:42:18.772Z</time></trkpt><trkpt lat="34.3733149" lon="8.1611235"><ele>568.0</ele><time>2026-04-30T17:42:19.797Z</time></trkpt><trkpt lat="34.3733693" lon="8.1610513"><ele>568.0</ele><time>2026-04-30T17:42:20.822Z</time></trkpt><trkpt lat="34.3734342" lon="8.1609864"><ele>568.0</ele><time>2026-04-30T17:42:21.805Z</time></trkpt><trkpt lat="34.3734997" lon="8.1609276"><ele>568.0</ele><time>2026-04-30T17:42:22.835Z</time></trkpt><trkpt lat="34.373565" lon="8.1608645"><ele>568.0</ele><time>2026-04-30T17:42:23.82Z</time></trkpt><trkpt lat="34.3736299" lon="8.1608011"><ele>568.0</ele><time>2026-04-30T17:42:24.803Z</time></trkpt><trkpt lat="34.3736933" lon="8.1607374"><ele>568.0</ele><time>2026-04-30T17:42:25.828Z</time></trkpt><trkpt lat="34.3737555" lon="8.1606686"><ele>568.0</ele><time>2026-04-30T17:42:26.797Z</time></trkpt><trkpt lat="34.3738171" lon="8.1606084"><ele>568.0</ele><time>2026-04-30T17:42:27.831Z</time></trkpt><trkpt lat="34.3738806" lon="8.1605466"><ele>568.0</ele><time>2026-04-30T17:42:28.822Z</time></trkpt><trkpt lat="34.3739584" lon="8.1604847"><ele>568.0</ele><time>2026-04-30T17:42:29.818Z</time></trkpt><trkpt lat="34.3740409" lon="8.1604238"><ele>568.0</ele><time>2026-04-30T17:42:30.828Z</time></trkpt><trkpt lat="34.3741524" lon="8.1603597"><ele>567.5</ele><time>2026-04-30T17:42:31.812Z</time></trkpt><trkpt lat="34.3743032" lon="8.1602701"><ele>567.0</ele><time>2026-04-30T17:42:32.754Z</time></trkpt><trkpt lat="34.3744308" lon="8.1601927"><ele>566.5</ele><time>2026-04-30T17:42:33.753Z</time></trkpt><trkpt lat="34.3745455" lon="8.1601282"><ele>566.0</ele><time>2026-04-30T17:42:34.744Z</time></trkpt><trkpt lat="34.3746536" lon="8.1600802"><ele>566.0</ele><time>2026-04-30T17:42:35.736Z</time></trkpt><trkpt lat="34.3747489" lon="8.1600378"><ele>566.0</ele><time>2026-04-30T17:42:36.751Z</time></trkpt><trkpt lat="34.3748372" lon="8.1599968"><ele>566.0</ele><time>2026-04-30T17:42:37.76Z</time></trkpt><trkpt lat="34.3749265" lon="8.1599593"><ele>566.0</ele><time>2026-04-30T17:42:38.747Z</time></trkpt><trkpt lat="34.375018" lon="8.1599141"><ele>566.0</ele><time>2026-04-30T17:42:39.721Z</time></trkpt><trkpt lat="34.3751085" lon="8.1598763"><ele>567.0</ele><time>2026-04-30T17:42:40.749Z</time></trkpt><trkpt lat="34.3751955" lon="8.1598291"><ele>568.0</ele><time>2026-04-30T17:42:41.737Z</time></trkpt><trkpt lat="34.3752903" lon="8.1597754"><ele>569.0</ele><time>2026-04-30T17:42:42.721Z</time></trkpt><trkpt lat="34.3753889" lon="8.159724"><ele>570.0</ele><time>2026-04-30T17:42:43.743Z</time></trkpt><trkpt lat="34.3754953" lon="8.1596737"><ele>571.0</ele><time>2026-04-30T17:42:44.743Z</time></trkpt><trkpt lat="34.3756014" lon="8.1596159"><ele>571.0</ele><time>2026-04-30T17:42:45.743Z</time></trkpt><trkpt lat="34.3757094" lon="8.1595425"><ele>571.0</ele><time>2026-04-30T17:42:46.745Z</time></trkpt><trkpt lat="34.3758128" lon="8.1594667"><ele>571.0</ele><time>2026-04-30T17:42:47.745Z</time></trkpt><trkpt lat="34.3759084" lon="8.1593792"><ele>571.0</ele><time>2026-04-30T17:42:48.725Z</time></trkpt><trkpt lat="34.3759993" lon="8.1592906"><ele>571.0</ele><time>2026-04-30T17:42:49.753Z</time></trkpt><trkpt lat="34.3760785" lon="8.1592004"><ele>571.0</ele><time>2026-04-30T17:42:50.731Z</time></trkpt><trkpt lat="34.3761461" lon="8.1591098"><ele>571.0</ele><time>2026-04-30T17:42:51.768Z</time></trkpt><trkpt lat="34.3762087" lon="8.1590215"><ele>571.0</ele><time>2026-04-30T17:42:52.76Z</time></trkpt><trkpt lat="34.376272" lon="8.1589325"><ele>571.0</ele><time>2026-04-30T17:42:53.759Z</time></trkpt><trkpt lat="34.3763429" lon="8.1588396"><ele>570.25</ele><time>2026-04-30T17:42:54.743Z</time></trkpt><trkpt lat="34.3764196" lon="8.1587472"><ele>569.5</ele><time>2026-04-30T17:42:55.752Z</time></trkpt><trkpt lat="34.3764951" lon="8.1586421"><ele>568.75</ele><time>2026-04-30T17:42:56.761Z</time></trkpt><trkpt lat="34.3765873" lon="8.1585047"><ele>568.0</ele><time>2026-04-30T17:42:57.732Z</time></trkpt><trkpt lat="34.3766814" lon="8.1583476"><ele>568.0</ele><time>2026-04-30T17:42:58.798Z</time></trkpt><trkpt lat="34.3767792" lon="8.1582115"><ele>568.0</ele><time>2026-04-30T17:42:59.736Z</time></trkpt><trkpt lat="34.3768698" lon="8.1581007"><ele>568.0</ele><time>2026-04-30T17:43:00.748Z</time></trkpt><trkpt lat="34.3769483" lon="8.1579904"><ele>568.0</ele><time>2026-04-30T17:43:01.711Z</time></trkpt><trkpt lat="34.3770158" lon="8.1578881"><ele>568.8</ele><time>2026-04-30T17:43:02.744Z</time></trkpt><trkpt lat="34.3770783" lon="8.1577949"><ele>569.5999999999999</ele><time>2026-04-30T17:43:03.752Z</time></trkpt><trkpt lat="34.3771404" lon="8.1577062"><ele>570.4000000000001</ele><time>2026-04-30T17:43:04.747Z</time></trkpt><trkpt lat="34.3772" lon="8.1576179"><ele>571.2</ele><time>2026-04-30T17:43:05.729Z</time></trkpt><trkpt lat="34.3772604" lon="8.1575431"><ele>572.0</ele><time>2026-04-30T17:43:06.743Z</time></trkpt><trkpt lat="34.3773152" lon="8.1574702"><ele>572.1666666666666</ele><time>2026-04-30T17:43:07.726Z</time></trkpt><trkpt lat="34.3773717" lon="8.1574025"><ele>572.3333333333333</ele><time>2026-04-30T17:43:08.758Z</time></trkpt><trkpt lat="34.3774262" lon="8.1573293"><ele>572.5</ele><time>2026-04-30T17:43:09.752Z</time></trkpt><trkpt lat="34.3774784" lon="8.1572545"><ele>572.6666666666666</ele><time>2026-04-30T17:43:10.737Z</time></trkpt><trkpt lat="34.3775288" lon="8.1571854"><ele>572.8333333333334</ele><time>2026-04-30T17:43:11.698Z</time></trkpt><trkpt lat="34.3775825" lon="8.157113"><ele>573.0</ele><time>2026-04-30T17:43:12.706Z</time></trkpt><trkpt lat="34.3776365" lon="8.1570434"><ele>573.0</ele><time>2026-04-30T17:43:13.755Z</time></trkpt><trkpt lat="34.3776777" lon="8.1569807"><ele>573.0</ele><time>2026-04-30T17:43:14.736Z</time></trkpt><trkpt lat="34.3777215" lon="8.1569208"><ele>573.0</ele><time>2026-04-30T17:43:15.756Z</time></trkpt><trkpt lat="34.3777975" lon="8.1568339"><ele>573.0</ele><time>2026-04-30T17:43:17.749Z</time></trkpt><trkpt lat="34.3778545" lon="8.1567455"><ele>573.0</ele><time>2026-04-30T17:43:19.752Z</time></trkpt><trkpt lat="34.3779214" lon="8.1566441"><ele>573.0</ele><time>2026-04-30T17:43:21.745Z</time></trkpt><trkpt lat="34.3779888" lon="8.1565316"><ele>573.0</ele><time>2026-04-30T17:43:23.751Z</time></trkpt><trkpt lat="34.3780236" lon="8.1564658"><ele>573.0</ele><time>2026-04-30T17:43:24.755Z</time></trkpt><trkpt lat="34.3780579" lon="8.1563882"><ele>573.0</ele><time>2026-04-30T17:43:25.765Z</time></trkpt><trkpt lat="34.378097" lon="8.1563089"><ele>573.0</ele><time>2026-04-30T17:43:26.757Z</time></trkpt><trkpt lat="34.3781394" lon="8.1562331"><ele>573.0</ele><time>2026-04-30T17:43:27.746Z</time></trkpt><trkpt lat="34.3781786" lon="8.156149"><ele>573.0</ele><time>2026-04-30T17:43:28.748Z</time></trkpt><trkpt lat="34.3782171" lon="8.156062"><ele>573.0</ele><time>2026-04-30T17:43:29.732Z</time></trkpt><trkpt lat="34.3782586" lon="8.1559729"><ele>573.0</ele><time>2026-04-30T17:43:30.746Z</time></trkpt><trkpt lat="34.3783005" lon="8.1558878"><ele>573.0</ele><time>2026-04-30T17:43:31.744Z</time></trkpt><trkpt lat="34.3783429" lon="8.1558049"><ele>573.0</ele><time>2026-04-30T17:43:32.761Z</time></trkpt><trkpt lat="34.3783835" lon="8.1557211"><ele>573.0</ele><time>2026-04-30T17:43:33.743Z</time></trkpt><trkpt lat="34.3784244" lon="8.15564"><ele>573.0</ele><time>2026-04-30T17:43:34.758Z</time></trkpt><trkpt lat="34.3784652" lon="8.1555597"><ele>572.5</ele><time>2026-04-30T17:43:35.73Z</time></trkpt><trkpt lat="34.378505" lon="8.1554796"><ele>572.0</ele><time>2026-04-30T17:43:36.749Z</time></trkpt><trkpt lat="34.3785463" lon="8.1553977"><ele>571.5</ele><time>2026-04-30T17:43:37.717Z</time></trkpt><trkpt lat="34.378586" lon="8.1553178"><ele>571.0</ele><time>2026-04-30T17:43:38.731Z</time></trkpt><trkpt lat="34.3786284" lon="8.1552444"><ele>570.5</ele><time>2026-04-30T17:43:39.715Z</time></trkpt><trkpt lat="34.3786683" lon="8.1551696"><ele>570.0</ele><time>2026-04-30T17:43:40.722Z</time></trkpt><trkpt lat="34.3787067" lon="8.1550883"><ele>570.0</ele><time>2026-04-30T17:43:41.751Z</time></trkpt><trkpt lat="34.3787434" lon="8.1550096"><ele>570.0</ele><time>2026-04-30T17:43:42.758Z</time></trkpt><trkpt lat="34.3787853" lon="8.1549357"><ele>570.0</ele><time>2026-04-30T17:43:43.752Z</time></trkpt><trkpt lat="34.3788346" lon="8.154856"><ele>570.0</ele><time>2026-04-30T17:43:44.739Z</time></trkpt><trkpt lat="34.3788823" lon="8.1547829"><ele>570.0</ele><time>2026-04-30T17:43:45.742Z</time></trkpt><trkpt lat="34.3789291" lon="8.154724"><ele>570.0</ele><time>2026-04-30T17:43:46.745Z</time></trkpt><trkpt lat="34.3789742" lon="8.1546526"><ele>570.0</ele><time>2026-04-30T17:43:47.733Z</time></trkpt><trkpt lat="34.3790172" lon="8.154584"><ele>569.8571428571429</ele><time>2026-04-30T17:43:48.742Z</time></trkpt><trkpt lat="34.3790654" lon="8.1545166"><ele>569.7142857142858</ele><time>2026-04-30T17:43:49.721Z</time></trkpt><trkpt lat="34.379113" lon="8.154458"><ele>569.5714285714287</ele><time>2026-04-30T17:43:50.756Z</time></trkpt><trkpt lat="34.3791633" lon="8.1544031"><ele>569.4285714285714</ele><time>2026-04-30T17:43:51.728Z</time></trkpt><trkpt lat="34.3792093" lon="8.1543468"><ele>569.2857142857143</ele><time>2026-04-30T17:43:52.731Z</time></trkpt><trkpt lat="34.3792549" lon="8.1542937"><ele>569.1428571428572</ele><time>2026-04-30T17:43:53.752Z</time></trkpt><trkpt lat="34.3793029" lon="8.1542301"><ele>569.0</ele><time>2026-04-30T17:43:54.755Z</time></trkpt><trkpt lat="34.3793511" lon="8.1541747"><ele>569.0</ele><time>2026-04-30T17:43:55.749Z</time></trkpt><trkpt lat="34.379394" lon="8.154112"><ele>569.0</ele><time>2026-04-30T17:43:56.749Z</time></trkpt><trkpt lat="34.3794345" lon="8.1540499"><ele>569.0</ele><time>2026-04-30T17:43:57.746Z</time></trkpt><trkpt lat="34.3794777" lon="8.1539851"><ele>569.0</ele><time>2026-04-30T17:43:58.747Z</time></trkpt><trkpt lat="34.3795553" lon="8.1538777"><ele>569.0</ele><time>2026-04-30T17:44:00.747Z</time></trkpt><trkpt lat="34.3795954" lon="8.1538104"><ele>569.0</ele><time>2026-04-30T17:44:01.757Z</time></trkpt><trkpt lat="34.3796432" lon="8.1537362"><ele>568.8333333333333</ele><time>2026-04-30T17:44:02.755Z</time></trkpt><trkpt lat="34.379693" lon="8.153667"><ele>568.6666666666666</ele><time>2026-04-30T17:44:03.748Z</time></trkpt><trkpt lat="34.3797452" lon="8.1535967"><ele>568.5</ele><time>2026-04-30T17:44:04.752Z</time></trkpt><trkpt lat="34.3798022" lon="8.1535316"><ele>568.3333333333334</ele><time>2026-04-30T17:44:05.723Z</time></trkpt><trkpt lat="34.3798596" lon="8.1534618"><ele>568.1666666666667</ele><time>2026-04-30T17:44:06.712Z</time></trkpt><trkpt lat="34.3798991" lon="8.1533993"><ele>568.0</ele><time>2026-04-30T17:44:07.723Z</time></trkpt><trkpt lat="34.3799782" lon="8.153305"><ele>568.0</ele><time>2026-04-30T17:44:09.762Z</time></trkpt><trkpt lat="34.3800459" lon="8.1532092"><ele>568.0</ele><time>2026-04-30T17:44:11.742Z</time></trkpt><trkpt lat="34.3801289" lon="8.153086"><ele>568.0</ele><time>2026-04-30T17:44:13.733Z</time></trkpt><trkpt lat="34.380173" lon="8.1530114"><ele>568.0</ele><time>2026-04-30T17:44:14.733Z</time></trkpt><trkpt lat="34.3802173" lon="8.1529382"><ele>568.0</ele><time>2026-04-30T17:44:15.701Z</time></trkpt><trkpt lat="34.3802658" lon="8.1528568"><ele>568.0</ele><time>2026-04-30T17:44:16.747Z</time></trkpt><trkpt lat="34.3803128" lon="8.1527706"><ele>568.0</ele><time>2026-04-30T17:44:17.748Z</time></trkpt><trkpt lat="34.3803464" lon="8.152685"><ele>568.0</ele><time>2026-04-30T17:44:18.75Z</time></trkpt><trkpt lat="34.3803791" lon="8.1526047"><ele>568.0</ele><time>2026-04-30T17:44:19.755Z</time></trkpt><trkpt lat="34.3804062" lon="8.1525296"><ele>568.0</ele><time>2026-04-30T17:44:20.743Z</time></trkpt><trkpt lat="34.3804422" lon="8.1524396"><ele>568.0</ele><time>2026-04-30T17:44:22.743Z</time></trkpt><trkpt lat="34.380466" lon="8.1523539"><ele>568.0</ele><time>2026-04-30T17:44:24.756Z</time></trkpt><trkpt lat="34.3805287" lon="8.1521864"><ele>568.0</ele><time>2026-04-30T17:44:26.722Z</time></trkpt><trkpt lat="34.3805698" lon="8.152043"><ele>568.0</ele><time>2026-04-30T17:44:27.749Z</time></trkpt><trkpt lat="34.3806183" lon="8.1519087"><ele>568.0</ele><time>2026-04-30T17:44:28.721Z</time></trkpt><trkpt lat="34.3806601" lon="8.1518006"><ele>568.0</ele><time>2026-04-30T17:44:29.741Z</time></trkpt><trkpt lat="34.3806933" lon="8.1516962"><ele>568.0</ele><time>2026-04-30T17:44:30.755Z</time></trkpt><trkpt lat="34.380721" lon="8.1516002"><ele>568.0</ele><time>2026-04-30T17:44:31.743Z</time></trkpt><trkpt lat="34.3807531" lon="8.1515164"><ele>568.0</ele><time>2026-04-30T17:44:32.708Z</time></trkpt><trkpt lat="34.3807832" lon="8.151442"><ele>568.0</ele><time>2026-04-30T17:44:33.725Z</time></trkpt><trkpt lat="34.3808411" lon="8.1513796"><ele>568.0</ele><time>2026-04-30T17:44:35.706Z</time></trkpt><trkpt lat="34.3809371" lon="8.1513879"><ele>568.0</ele><time>2026-04-30T17:44:37.721Z</time></trkpt><trkpt lat="34.3810412" lon="8.1514535"><ele>568.0</ele><time>2026-04-30T17:44:39.738Z</time></trkpt><trkpt lat="34.3811434" lon="8.1515488"><ele>568.0</ele><time>2026-04-30T17:44:41.736Z</time></trkpt><trkpt lat="34.3812033" lon="8.151596"><ele>568.0</ele><time>2026-04-30T17:44:42.729Z</time></trkpt><trkpt lat="34.3812711" lon="8.151639"><ele>568.0</ele><time>2026-04-30T17:44:43.754Z</time></trkpt><trkpt lat="34.3813359" lon="8.1516937"><ele>568.0</ele><time>2026-04-30T17:44:44.692Z</time></trkpt><trkpt lat="34.3814003" lon="8.1517483"><ele>568.0</ele><time>2026-04-30T17:44:45.707Z</time></trkpt><trkpt lat="34.3814661" lon="8.1517986"><ele>568.0</ele><time>2026-04-30T17:44:46.7Z</time></trkpt><trkpt lat="34.3815299" lon="8.1518468"><ele>568.0</ele><time>2026-04-30T17:44:47.715Z</time></trkpt><trkpt lat="34.381596" lon="8.1518946"><ele>568.0</ele><time>2026-04-30T17:44:48.715Z</time></trkpt><trkpt lat="34.3816556" lon="8.151943"><ele>568.0</ele><time>2026-04-30T17:44:49.71Z</time></trkpt><trkpt lat="34.3817194" lon="8.1519855"><ele>568.0</ele><time>2026-04-30T17:44:50.712Z</time></trkpt><trkpt lat="34.3817836" lon="8.1520412"><ele>568.0</ele><time>2026-04-30T17:44:51.71Z</time></trkpt><trkpt lat="34.3818487" lon="8.1520915"><ele>568.0</ele><time>2026-04-30T17:44:52.704Z</time></trkpt><trkpt lat="34.3819173" lon="8.152137"><ele>568.0</ele><time>2026-04-30T17:44:53.7Z</time></trkpt><trkpt lat="34.3819834" lon="8.1521886"><ele>568.0</ele><time>2026-04-30T17:44:54.707Z</time></trkpt><trkpt lat="34.3820554" lon="8.1522337"><ele>568.0</ele><time>2026-04-30T17:44:55.706Z</time></trkpt><trkpt lat="34.3821281" lon="8.1522801"><ele>568.1666666666667</ele><time>2026-04-30T17:44:56.723Z</time></trkpt><trkpt lat="34.3821959" lon="8.1523306"><ele>568.3333333333334</ele><time>2026-04-30T17:44:57.708Z</time></trkpt><trkpt lat="34.3822591" lon="8.152385"><ele>568.5</ele><time>2026-04-30T17:44:58.701Z</time></trkpt><trkpt lat="34.3823268" lon="8.1524395"><ele>568.6666666666666</ele><time>2026-04-30T17:44:59.691Z</time></trkpt><trkpt lat="34.3823942" lon="8.1524921"><ele>568.8333333333333</ele><time>2026-04-30T17:45:00.725Z</time></trkpt><trkpt lat="34.3824657" lon="8.152545"><ele>569.0</ele><time>2026-04-30T17:45:01.722Z</time></trkpt><trkpt lat="34.3825348" lon="8.1526031"><ele>568.6666666666666</ele><time>2026-04-30T17:45:02.708Z</time></trkpt><trkpt lat="34.3826103" lon="8.1526564"><ele>568.3333333333333</ele><time>2026-04-30T17:45:03.713Z</time></trkpt><trkpt lat="34.3826843" lon="8.1527108"><ele>568.0</ele><time>2026-04-30T17:45:04.698Z</time></trkpt><trkpt lat="34.3827562" lon="8.1527694"><ele>567.6666666666666</ele><time>2026-04-30T17:45:05.689Z</time></trkpt><trkpt lat="34.3828322" lon="8.152828"><ele>567.3333333333334</ele><time>2026-04-30T17:45:06.708Z</time></trkpt><trkpt lat="34.3829087" lon="8.1528872"><ele>567.0</ele><time>2026-04-30T17:45:07.705Z</time></trkpt><trkpt lat="34.3829846" lon="8.152946"><ele>567.0</ele><time>2026-04-30T17:45:08.71Z</time></trkpt><trkpt lat="34.3830593" lon="8.1530048"><ele>567.0</ele><time>2026-04-30T17:45:09.712Z</time></trkpt><trkpt lat="34.3831339" lon="8.1530589"><ele>567.0</ele><time>2026-04-30T17:45:10.696Z</time></trkpt><trkpt lat="34.3832152" lon="8.1531133"><ele>567.0</ele><time>2026-04-30T17:45:11.705Z</time></trkpt><trkpt lat="34.3832896" lon="8.1531729"><ele>567.0</ele><time>2026-04-30T17:45:12.706Z</time></trkpt><trkpt lat="34.3833755" lon="8.1532461"><ele>566.6</ele><time>2026-04-30T17:45:13.706Z</time></trkpt><trkpt lat="34.383475" lon="8.1533277"><ele>566.2</ele><time>2026-04-30T17:45:14.716Z</time></trkpt><trkpt lat="34.3835706" lon="8.1533992"><ele>565.8</ele><time>2026-04-30T17:45:15.703Z</time></trkpt><trkpt lat="34.3836604" lon="8.1534609"><ele>565.4</ele><time>2026-04-30T17:45:16.705Z</time></trkpt><trkpt lat="34.383754" lon="8.1535229"><ele>565.0</ele><time>2026-04-30T17:45:17.704Z</time></trkpt><trkpt lat="34.3838531" lon="8.1535897"><ele>565.8</ele><time>2026-04-30T17:45:18.707Z</time></trkpt><trkpt lat="34.383951" lon="8.1536544"><ele>566.6</ele><time>2026-04-30T17:45:19.7Z</time></trkpt><trkpt lat="34.3840475" lon="8.1537148"><ele>567.4</ele><time>2026-04-30T17:45:20.7Z</time></trkpt><trkpt lat="34.3841293" lon="8.1537686"><ele>568.2</ele><time>2026-04-30T17:45:21.704Z</time></trkpt><trkpt lat="34.3841998" lon="8.1538191"><ele>569.0</ele><time>2026-04-30T17:45:22.739Z</time></trkpt><trkpt lat="34.384254" lon="8.1538703"><ele>569.0</ele><time>2026-04-30T17:45:23.709Z</time></trkpt><trkpt lat="34.3843047" lon="8.1539203"><ele>569.0</ele><time>2026-04-30T17:45:24.706Z</time></trkpt><trkpt lat="34.3843565" lon="8.1539863"><ele>569.0</ele><time>2026-04-30T17:45:25.703Z</time></trkpt><trkpt lat="34.3844105" lon="8.1540476"><ele>569.0</ele><time>2026-04-30T17:45:26.703Z</time></trkpt><trkpt lat="34.3844693" lon="8.1541174"><ele>569.0</ele><time>2026-04-30T17:45:27.707Z</time></trkpt><trkpt lat="34.3845397" lon="8.15421"><ele>569.0</ele><time>2026-04-30T17:45:28.71Z</time></trkpt><trkpt lat="34.384618" lon="8.1543122"><ele>568.0</ele><time>2026-04-30T17:45:29.702Z</time></trkpt><trkpt lat="34.3847051" lon="8.1544266"><ele>567.0</ele><time>2026-04-30T17:45:30.686Z</time></trkpt><trkpt lat="34.3847972" lon="8.1545658"><ele>566.0</ele><time>2026-04-30T17:45:31.699Z</time></trkpt><trkpt lat="34.384916" lon="8.1547533"><ele>565.0</ele><time>2026-04-30T17:45:32.719Z</time></trkpt><trkpt lat="34.3850467" lon="8.1549504"><ele>564.0</ele><time>2026-04-30T17:45:33.739Z</time></trkpt><trkpt lat="34.3851631" lon="8.1551335"><ele>563.0</ele><time>2026-04-30T17:45:34.695Z</time></trkpt><trkpt lat="34.3852447" lon="8.1552827"><ele>563.0</ele><time>2026-04-30T17:45:35.701Z</time></trkpt><trkpt lat="34.3853278" lon="8.1554156"><ele>563.0</ele><time>2026-04-30T17:45:36.71Z</time></trkpt><trkpt lat="34.3854047" lon="8.1555345"><ele>563.0</ele><time>2026-04-30T17:45:37.701Z</time></trkpt><trkpt lat="34.3854831" lon="8.1556541"><ele>563.0</ele><time>2026-04-30T17:45:38.712Z</time></trkpt><trkpt lat="34.385563" lon="8.1557779"><ele>563.0</ele><time>2026-04-30T17:45:39.697Z</time></trkpt><trkpt lat="34.3856343" lon="8.1558966"><ele>563.0</ele><time>2026-04-30T17:45:40.711Z</time></trkpt><trkpt lat="34.3857073" lon="8.1560133"><ele>563.0</ele><time>2026-04-30T17:45:41.709Z</time></trkpt><trkpt lat="34.3857844" lon="8.1561271"><ele>563.0</ele><time>2026-04-30T17:45:42.706Z</time></trkpt><trkpt lat="34.385856" lon="8.1562293"><ele>563.0</ele><time>2026-04-30T17:45:43.698Z</time></trkpt><trkpt lat="34.3859262" lon="8.1563307"><ele>563.0</ele><time>2026-04-30T17:45:44.715Z</time></trkpt><trkpt lat="34.3859933" lon="8.1564351"><ele>563.0</ele><time>2026-04-30T17:45:45.707Z</time></trkpt><trkpt lat="34.386056" lon="8.1565444"><ele>563.0</ele><time>2026-04-30T17:45:46.705Z</time></trkpt><trkpt lat="34.386118" lon="8.1566507"><ele>563.0</ele><time>2026-04-30T17:45:47.738Z</time></trkpt><trkpt lat="34.3861836" lon="8.1567513"><ele>563.0</ele><time>2026-04-30T17:45:48.698Z</time></trkpt><trkpt lat="34.3862499" lon="8.1568595"><ele>563.0</ele><time>2026-04-30T17:45:49.753Z</time></trkpt><trkpt lat="34.3863219" lon="8.1569663"><ele>563.0</ele><time>2026-04-30T17:45:50.744Z</time></trkpt><trkpt lat="34.3864023" lon="8.1570732"><ele>563.0</ele><time>2026-04-30T17:45:51.694Z</time></trkpt><trkpt lat="34.3864836" lon="8.1571925"><ele>563.0</ele><time>2026-04-30T17:45:52.708Z</time></trkpt><trkpt lat="34.3865674" lon="8.1573124"><ele>563.0</ele><time>2026-04-30T17:45:53.701Z</time></trkpt><trkpt lat="34.3866438" lon="8.1574282"><ele>563.0</ele><time>2026-04-30T17:45:54.71Z</time></trkpt><trkpt lat="34.3867203" lon="8.1575454"><ele>563.0</ele><time>2026-04-30T17:45:55.711Z</time></trkpt><trkpt lat="34.3867931" lon="8.1576614"><ele>562.4</ele><time>2026-04-30T17:45:56.695Z</time></trkpt><trkpt lat="34.3868595" lon="8.1577702"><ele>561.8</ele><time>2026-04-30T17:45:57.708Z</time></trkpt><trkpt lat="34.3869238" lon="8.1578787"><ele>561.2</ele><time>2026-04-30T17:45:58.704Z</time></trkpt><trkpt lat="34.386982" lon="8.1579795"><ele>560.6</ele><time>2026-04-30T17:45:59.729Z</time></trkpt><trkpt lat="34.3870459" lon="8.1580863"><ele>560.0</ele><time>2026-04-30T17:46:00.709Z</time></trkpt><trkpt lat="34.3871114" lon="8.1581889"><ele>559.8</ele><time>2026-04-30T17:46:01.703Z</time></trkpt><trkpt lat="34.3871736" lon="8.1582867"><ele>559.6</ele><time>2026-04-30T17:46:02.703Z</time></trkpt><trkpt lat="34.3872361" lon="8.1583802"><ele>559.4</ele><time>2026-04-30T17:46:03.698Z</time></trkpt><trkpt lat="34.3872943" lon="8.1584654"><ele>559.2</ele><time>2026-04-30T17:46:04.705Z</time></trkpt><trkpt lat="34.3873377" lon="8.1585496"><ele>559.0</ele><time>2026-04-30T17:46:05.709Z</time></trkpt><trkpt lat="34.3873825" lon="8.1586277"><ele>559.6</ele><time>2026-04-30T17:46:06.714Z</time></trkpt><trkpt lat="34.3874251" lon="8.1586865"><ele>560.2</ele><time>2026-04-30T17:46:07.702Z</time></trkpt><trkpt lat="34.3874815" lon="8.158778"><ele>560.8000000000001</ele><time>2026-04-30T17:46:09.707Z</time></trkpt><trkpt lat="34.3875389" lon="8.1588614"><ele>561.4</ele><time>2026-04-30T17:46:11.698Z</time></trkpt><trkpt lat="34.3876035" lon="8.1589589"><ele>562.0</ele><time>2026-04-30T17:46:13.694Z</time></trkpt><trkpt lat="34.3876763" lon="8.1590651"><ele>562.0</ele><time>2026-04-30T17:46:15.7Z</time></trkpt><trkpt lat="34.3877459" lon="8.1591676"><ele>562.0</ele><time>2026-04-30T17:46:17.705Z</time></trkpt><trkpt lat="34.3877867" lon="8.1592258"><ele>562.0</ele><time>2026-04-30T17:46:18.7Z</time></trkpt><trkpt lat="34.3878253" lon="8.1592926"><ele>562.0</ele><time>2026-04-30T17:46:19.706Z</time></trkpt><trkpt lat="34.3878959" lon="8.1594206"><ele>562.0</ele><time>2026-04-30T17:46:21.705Z</time></trkpt><trkpt lat="34.3879347" lon="8.1594828"><ele>562.0</ele><time>2026-04-30T17:46:22.703Z</time></trkpt><trkpt lat="34.387979" lon="8.1595402"><ele>562.1666666666667</ele><time>2026-04-30T17:46:23.718Z</time></trkpt><trkpt lat="34.3880396" lon="8.1596295"><ele>562.3333333333334</ele><time>2026-04-30T17:46:25.71Z</time></trkpt><trkpt lat="34.3880876" lon="8.1597094"><ele>562.5</ele><time>2026-04-30T17:46:28.706Z</time></trkpt><trkpt lat="34.388128" lon="8.1597813"><ele>562.6666666666666</ele><time>2026-04-30T17:46:30.702Z</time></trkpt><trkpt lat="34.3881919" lon="8.1598954"><ele>562.8333333333333</ele><time>2026-04-30T17:46:32.704Z</time></trkpt><trkpt lat="34.3882314" lon="8.1599567"><ele>563.0</ele><time>2026-04-30T17:46:33.7Z</time></trkpt><trkpt lat="34.3882722" lon="8.1600169"><ele>562.7142857142857</ele><time>2026-04-30T17:46:34.702Z</time></trkpt><trkpt lat="34.3883177" lon="8.1600806"><ele>562.4285714285714</ele><time>2026-04-30T17:46:35.709Z</time></trkpt><trkpt lat="34.3883574" lon="8.1601493"><ele>562.1428571428571</ele><time>2026-04-30T17:46:36.709Z</time></trkpt><trkpt lat="34.388396" lon="8.1602198"><ele>561.8571428571429</ele><time>2026-04-30T17:46:37.7Z</time></trkpt><trkpt lat="34.3884458" lon="8.1602936"><ele>561.5714285714286</ele><time>2026-04-30T17:46:38.71Z</time></trkpt><trkpt lat="34.3884983" lon="8.1603708"><ele>561.2857142857142</ele><time>2026-04-30T17:46:39.699Z</time></trkpt><trkpt lat="34.388547" lon="8.1604473"><ele>561.0</ele><time>2026-04-30T17:46:40.706Z</time></trkpt><trkpt lat="34.3885951" lon="8.1605223"><ele>561.0</ele><time>2026-04-30T17:46:41.703Z</time></trkpt><trkpt lat="34.3886481" lon="8.1605972"><ele>561.0</ele><time>2026-04-30T17:46:42.755Z</time></trkpt><trkpt lat="34.3887025" lon="8.1606825"><ele>561.0</ele><time>2026-04-30T17:46:43.706Z</time></trkpt><trkpt lat="34.3887548" lon="8.1607703"><ele>561.0</ele><time>2026-04-30T17:46:44.707Z</time></trkpt><trkpt lat="34.3888083" lon="8.1608536"><ele>561.0</ele><time>2026-04-30T17:46:45.698Z</time></trkpt><trkpt lat="34.388863" lon="8.1609409"><ele>561.0</ele><time>2026-04-30T17:46:46.71Z</time></trkpt><trkpt lat="34.3889143" lon="8.1610256"><ele>561.2</ele><time>2026-04-30T17:46:47.708Z</time></trkpt><trkpt lat="34.3889702" lon="8.1611148"><ele>561.4000000000001</ele><time>2026-04-30T17:46:48.72Z</time></trkpt><trkpt lat="34.3890273" lon="8.1612028"><ele>561.6</ele><time>2026-04-30T17:46:49.705Z</time></trkpt><trkpt lat="34.389083" lon="8.1612951"><ele>561.8000000000001</ele><time>2026-04-30T17:46:50.709Z</time></trkpt><trkpt lat="34.3891418" lon="8.1613877"><ele>562.0</ele><time>2026-04-30T17:46:51.752Z</time></trkpt><trkpt lat="34.3891987" lon="8.1614725"><ele>561.8333333333334</ele><time>2026-04-30T17:46:52.742Z</time></trkpt><trkpt lat="34.3892544" lon="8.1615567"><ele>561.6666666666667</ele><time>2026-04-30T17:46:53.753Z</time></trkpt><trkpt lat="34.3893064" lon="8.1616456"><ele>561.5</ele><time>2026-04-30T17:46:54.728Z</time></trkpt><trkpt lat="34.389358" lon="8.1617326"><ele>561.3333333333334</ele><time>2026-04-30T17:46:55.756Z</time></trkpt><trkpt lat="34.38941" lon="8.1618161"><ele>561.1666666666666</ele><time>2026-04-30T17:46:56.752Z</time></trkpt><trkpt lat="34.3894604" lon="8.1618971"><ele>561.0</ele><time>2026-04-30T17:46:57.724Z</time></trkpt><trkpt lat="34.3895125" lon="8.161979"><ele>561.0</ele><time>2026-04-30T17:46:58.75Z</time></trkpt><trkpt lat="34.3895674" lon="8.1620604"><ele>561.0</ele><time>2026-04-30T17:46:59.755Z</time></trkpt><trkpt lat="34.3896255" lon="8.1621427"><ele>561.0</ele><time>2026-04-30T17:47:00.707Z</time></trkpt><trkpt lat="34.3896838" lon="8.162227"><ele>561.0</ele><time>2026-04-30T17:47:01.749Z</time></trkpt><trkpt lat="34.3897458" lon="8.1623188"><ele>561.0</ele><time>2026-04-30T17:47:02.744Z</time></trkpt><trkpt lat="34.3898068" lon="8.1624211"><ele>561.4</ele><time>2026-04-30T17:47:03.747Z</time></trkpt><trkpt lat="34.3898773" lon="8.1625274"><ele>561.8</ele><time>2026-04-30T17:47:04.746Z</time></trkpt><trkpt lat="34.3899387" lon="8.162626"><ele>562.1999999999999</ele><time>2026-04-30T17:47:05.734Z</time></trkpt><trkpt lat="34.3900017" lon="8.162728"><ele>562.6</ele><time>2026-04-30T17:47:06.705Z</time></trkpt><trkpt lat="34.3900648" lon="8.1628322"><ele>563.0</ele><time>2026-04-30T17:47:07.748Z</time></trkpt><trkpt lat="34.3901325" lon="8.1629366"><ele>563.0</ele><time>2026-04-30T17:47:08.725Z</time></trkpt><trkpt lat="34.3901906" lon="8.1630322"><ele>563.0</ele><time>2026-04-30T17:47:09.748Z</time></trkpt><trkpt lat="34.3902566" lon="8.1631179"><ele>563.0</ele><time>2026-04-30T17:47:10.788Z</time></trkpt><trkpt lat="34.3903202" lon="8.1632055"><ele>563.0</ele><time>2026-04-30T17:47:11.703Z</time></trkpt><trkpt lat="34.3903852" lon="8.1632871"><ele>563.0</ele><time>2026-04-30T17:47:12.704Z</time></trkpt><trkpt lat="34.3904424" lon="8.1633666"><ele>563.0</ele><time>2026-04-30T17:47:13.742Z</time></trkpt><trkpt lat="34.3904989" lon="8.163444"><ele>563.0</ele><time>2026-04-30T17:47:14.754Z</time></trkpt><trkpt lat="34.3905502" lon="8.163514"><ele>563.0</ele><time>2026-04-30T17:47:15.731Z</time></trkpt><trkpt lat="34.3905972" lon="8.1635881"><ele>563.0</ele><time>2026-04-30T17:47:16.752Z</time></trkpt><trkpt lat="34.3906557" lon="8.1636601"><ele>563.0</ele><time>2026-04-30T17:47:17.763Z</time></trkpt><trkpt lat="34.3907144" lon="8.1637392"><ele>563.0</ele><time>2026-04-30T17:47:18.748Z</time></trkpt><trkpt lat="34.3907759" lon="8.1638234"><ele>563.1999999999999</ele><time>2026-04-30T17:47:19.743Z</time></trkpt><trkpt lat="34.3908361" lon="8.1639068"><ele>563.4</ele><time>2026-04-30T17:47:20.739Z</time></trkpt><trkpt lat="34.3909018" lon="8.1639995"><ele>563.5999999999999</ele><time>2026-04-30T17:47:21.749Z</time></trkpt><trkpt lat="34.3909739" lon="8.164095"><ele>563.8</ele><time>2026-04-30T17:47:22.741Z</time></trkpt><trkpt lat="34.3910551" lon="8.1641958"><ele>564.0</ele><time>2026-04-30T17:47:23.711Z</time></trkpt><trkpt lat="34.391136" lon="8.1643064"><ele>564.0</ele><time>2026-04-30T17:47:24.732Z</time></trkpt><trkpt lat="34.39121" lon="8.1644199"><ele>564.0</ele><time>2026-04-30T17:47:25.745Z</time></trkpt><trkpt lat="34.3912853" lon="8.1645311"><ele>564.0</ele><time>2026-04-30T17:47:26.754Z</time></trkpt><trkpt lat="34.391359" lon="8.1646353"><ele>564.0</ele><time>2026-04-30T17:47:27.748Z</time></trkpt><trkpt lat="34.3914217" lon="8.1647277"><ele>564.3333333333334</ele><time>2026-04-30T17:47:28.746Z</time></trkpt><trkpt lat="34.3914793" lon="8.1648154"><ele>564.6666666666666</ele><time>2026-04-30T17:47:29.751Z</time></trkpt><trkpt lat="34.3915337" lon="8.1648928"><ele>565.0</ele><time>2026-04-30T17:47:30.753Z</time></trkpt><trkpt lat="34.3915881" lon="8.1649764"><ele>565.3333333333333</ele><time>2026-04-30T17:47:31.748Z</time></trkpt><trkpt lat="34.391637" lon="8.1650581"><ele>565.6666666666666</ele><time>2026-04-30T17:47:32.751Z</time></trkpt><trkpt lat="34.3916856" lon="8.1651274"><ele>566.0</ele><time>2026-04-30T17:47:33.732Z</time></trkpt><trkpt lat="34.3917334" lon="8.1651963"><ele>566.0</ele><time>2026-04-30T17:47:34.755Z</time></trkpt><trkpt lat="34.3917911" lon="8.165275"><ele>566.0</ele><time>2026-04-30T17:47:35.743Z</time></trkpt><trkpt lat="34.3918508" lon="8.1653659"><ele>566.0</ele><time>2026-04-30T17:47:36.748Z</time></trkpt><trkpt lat="34.3919088" lon="8.1654628"><ele>566.0</ele><time>2026-04-30T17:47:37.74Z</time></trkpt><trkpt lat="34.391979" lon="8.1655635"><ele>566.0</ele><time>2026-04-30T17:47:38.731Z</time></trkpt><trkpt lat="34.3920478" lon="8.1656709"><ele>565.75</ele><time>2026-04-30T17:47:39.738Z</time></trkpt><trkpt lat="34.3921223" lon="8.1657892"><ele>565.5</ele><time>2026-04-30T17:47:40.741Z</time></trkpt><trkpt lat="34.3922" lon="8.1659217"><ele>565.25</ele><time>2026-04-30T17:47:41.745Z</time></trkpt><trkpt lat="34.3922817" lon="8.166047"><ele>565.0</ele><time>2026-04-30T17:47:42.747Z</time></trkpt><trkpt lat="34.3923658" lon="8.1661722"><ele>565.0</ele><time>2026-04-30T17:47:43.746Z</time></trkpt><trkpt lat="34.3924537" lon="8.1662942"><ele>565.0</ele><time>2026-04-30T17:47:44.753Z</time></trkpt><trkpt lat="34.3925351" lon="8.1664209"><ele>565.0</ele><time>2026-04-30T17:47:45.759Z</time></trkpt><trkpt lat="34.3926173" lon="8.1665474"><ele>565.0</ele><time>2026-04-30T17:47:46.724Z</time></trkpt><trkpt lat="34.3926961" lon="8.1666736"><ele>564.75</ele><time>2026-04-30T17:47:47.756Z</time></trkpt><trkpt lat="34.3927772" lon="8.16679"><ele>564.5</ele><time>2026-04-30T17:47:48.755Z</time></trkpt><trkpt lat="34.392857" lon="8.1669017"><ele>564.25</ele><time>2026-04-30T17:47:49.717Z</time></trkpt><trkpt lat="34.392933" lon="8.1670187"><ele>564.0</ele><time>2026-04-30T17:47:50.735Z</time></trkpt><trkpt lat="34.3930138" lon="8.1671359"><ele>564.0</ele><time>2026-04-30T17:47:51.75Z</time></trkpt><trkpt lat="34.3930901" lon="8.1672547"><ele>564.0</ele><time>2026-04-30T17:47:52.711Z</time></trkpt><trkpt lat="34.3931661" lon="8.167373"><ele>564.0</ele><time>2026-04-30T17:47:53.749Z</time></trkpt><trkpt lat="34.3932457" lon="8.1674904"><ele>564.0</ele><time>2026-04-30T17:47:54.75Z</time></trkpt><trkpt lat="34.3933199" lon="8.1676114"><ele>563.5</ele><time>2026-04-30T17:47:55.743Z</time></trkpt><trkpt lat="34.3933927" lon="8.1677338"><ele>563.0</ele><time>2026-04-30T17:47:56.726Z</time></trkpt><trkpt lat="34.3934665" lon="8.1678517"><ele>562.5</ele><time>2026-04-30T17:47:57.75Z</time></trkpt><trkpt lat="34.3935445" lon="8.1679673"><ele>562.0</ele><time>2026-04-30T17:47:58.745Z</time></trkpt><trkpt lat="34.3936184" lon="8.1680872"><ele>561.25</ele><time>2026-04-30T17:47:59.751Z</time></trkpt><trkpt lat="34.3936969" lon="8.1682027"><ele>560.5</ele><time>2026-04-30T17:48:00.753Z</time></trkpt><trkpt lat="34.3937767" lon="8.1683149"><ele>559.75</ele><time>2026-04-30T17:48:01.725Z</time></trkpt><trkpt lat="34.3938603" lon="8.1684321"><ele>559.0</ele><time>2026-04-30T17:48:02.733Z</time></trkpt><trkpt lat="34.3939474" lon="8.1685396"><ele>558.75</ele><time>2026-04-30T17:48:03.746Z</time></trkpt><trkpt lat="34.3940433" lon="8.1686455"><ele>558.5</ele><time>2026-04-30T17:48:04.754Z</time></trkpt><trkpt lat="34.3941385" lon="8.1687495"><ele>558.25</ele><time>2026-04-30T17:48:05.743Z</time></trkpt><trkpt lat="34.3942416" lon="8.1688467"><ele>558.0</ele><time>2026-04-30T17:48:06.748Z</time></trkpt><trkpt lat="34.3943423" lon="8.1689415"><ele>557.5</ele><time>2026-04-30T17:48:07.755Z</time></trkpt><trkpt lat="34.3944473" lon="8.1690324"><ele>557.0</ele><time>2026-04-30T17:48:08.726Z</time></trkpt><trkpt lat="34.3945539" lon="8.1691227"><ele>556.5</ele><time>2026-04-30T17:48:09.747Z</time></trkpt><trkpt lat="34.3946588" lon="8.1692092"><ele>556.0</ele><time>2026-04-30T17:48:10.767Z</time></trkpt><trkpt lat="34.3947647" lon="8.1692927"><ele>556.0</ele><time>2026-04-30T17:48:11.743Z</time></trkpt><trkpt lat="34.3948725" lon="8.1693733"><ele>556.0</ele><time>2026-04-30T17:48:12.751Z</time></trkpt><trkpt lat="34.3949868" lon="8.1694447"><ele>556.0</ele><time>2026-04-30T17:48:13.753Z</time></trkpt><trkpt lat="34.3951045" lon="8.1695044"><ele>556.0</ele><time>2026-04-30T17:48:14.732Z</time></trkpt><trkpt lat="34.3952266" lon="8.1695538"><ele>556.0</ele><time>2026-04-30T17:48:15.718Z</time></trkpt><trkpt lat="34.3953472" lon="8.1696035"><ele>556.0</ele><time>2026-04-30T17:48:16.737Z</time></trkpt><trkpt lat="34.395464" lon="8.1696559"><ele>556.0</ele><time>2026-04-30T17:48:17.76Z</time></trkpt><trkpt lat="34.3955819" lon="8.1697085"><ele>556.0</ele><time>2026-04-30T17:48:18.739Z</time></trkpt><trkpt lat="34.3957008" lon="8.1697547"><ele>555.75</ele><time>2026-04-30T17:48:19.739Z</time></trkpt><trkpt lat="34.3958245" lon="8.1698017"><ele>555.5</ele><time>2026-04-30T17:48:20.764Z</time></trkpt><trkpt lat="34.3959441" lon="8.1698525"><ele>555.25</ele><time>2026-04-30T17:48:21.752Z</time></trkpt><trkpt lat="34.3960648" lon="8.169903"><ele>555.0</ele><time>2026-04-30T17:48:22.746Z</time></trkpt><trkpt lat="34.3961887" lon="8.169954"><ele>553.75</ele><time>2026-04-30T17:48:23.745Z</time></trkpt><trkpt lat="34.3963141" lon="8.1700007"><ele>552.5</ele><time>2026-04-30T17:48:24.692Z</time></trkpt><trkpt lat="34.3964331" lon="8.1700501"><ele>551.25</ele><time>2026-04-30T17:48:25.697Z</time></trkpt><trkpt lat="34.3965581" lon="8.1701016"><ele>550.0</ele><time>2026-04-30T17:48:26.701Z</time></trkpt><trkpt lat="34.3966892" lon="8.1701504"><ele>549.3333333333334</ele><time>2026-04-30T17:48:27.721Z</time></trkpt><trkpt lat="34.3968397" lon="8.1702077"><ele>548.6666666666666</ele><time>2026-04-30T17:48:28.724Z</time></trkpt><trkpt lat="34.3969965" lon="8.1702649"><ele>548.0</ele><time>2026-04-30T17:48:29.723Z</time></trkpt><trkpt lat="34.3971519" lon="8.1703311"><ele>547.5</ele><time>2026-04-30T17:48:30.756Z</time></trkpt><trkpt lat="34.3972968" lon="8.1703886"><ele>547.0</ele><time>2026-04-30T17:48:31.74Z</time></trkpt><trkpt lat="34.3974312" lon="8.1704409"><ele>546.5</ele><time>2026-04-30T17:48:32.75Z</time></trkpt><trkpt lat="34.3975511" lon="8.1704919"><ele>546.0</ele><time>2026-04-30T17:48:33.702Z</time></trkpt><trkpt lat="34.3976569" lon="8.170535"><ele>546.0</ele><time>2026-04-30T17:48:34.731Z</time></trkpt><trkpt lat="34.3977453" lon="8.1705718"><ele>546.0</ele><time>2026-04-30T17:48:35.7Z</time></trkpt><trkpt lat="34.397816" lon="8.1706034"><ele>546.0</ele><time>2026-04-30T17:48:36.74Z</time></trkpt><trkpt lat="34.3978834" lon="8.1706311"><ele>546.0</ele><time>2026-04-30T17:48:37.743Z</time></trkpt><trkpt lat="34.397958" lon="8.1706557"><ele>546.0</ele><time>2026-04-30T17:48:38.763Z</time></trkpt><trkpt lat="34.3980481" lon="8.1706894"><ele>546.0</ele><time>2026-04-30T17:48:39.757Z</time></trkpt><trkpt lat="34.398147" lon="8.1707222"><ele>545.0</ele><time>2026-04-30T17:48:40.756Z</time></trkpt><trkpt lat="34.3982444" lon="8.1707608"><ele>544.0</ele><time>2026-04-30T17:48:41.736Z</time></trkpt><trkpt lat="34.3983193" lon="8.1707908"><ele>543.0</ele><time>2026-04-30T17:48:42.735Z</time></trkpt><trkpt lat="34.3984147" lon="8.1708413"><ele>542.0</ele><time>2026-04-30T17:48:44.739Z</time></trkpt><trkpt lat="34.3984795" lon="8.1708643"><ele>541.0</ele><time>2026-04-30T17:48:45.743Z</time></trkpt><trkpt lat="34.3985864" lon="8.170897"><ele>541.0</ele><time>2026-04-30T17:48:46.749Z</time></trkpt><trkpt lat="34.3987401" lon="8.1709476"><ele>541.0</ele><time>2026-04-30T17:48:47.753Z</time></trkpt><trkpt lat="34.3989292" lon="8.1710222"><ele>541.0</ele><time>2026-04-30T17:48:48.744Z</time></trkpt><trkpt lat="34.3991021" lon="8.1710777"><ele>539.6666666666667</ele><time>2026-04-30T17:48:49.747Z</time></trkpt><trkpt lat="34.3992539" lon="8.1711463"><ele>538.3333333333334</ele><time>2026-04-30T17:48:50.751Z</time></trkpt><trkpt lat="34.399397" lon="8.1712048"><ele>537.0</ele><time>2026-04-30T17:48:51.704Z</time></trkpt><trkpt lat="34.3995347" lon="8.1712535"><ele>536.3333333333334</ele><time>2026-04-30T17:48:52.743Z</time></trkpt><trkpt lat="34.3996778" lon="8.1713062"><ele>535.6666666666667</ele><time>2026-04-30T17:48:53.751Z</time></trkpt><trkpt lat="34.3998264" lon="8.1713663"><ele>535.0</ele><time>2026-04-30T17:48:54.698Z</time></trkpt><trkpt lat="34.3999809" lon="8.1714375"><ele>535.0</ele><time>2026-04-30T17:48:55.745Z</time></trkpt><trkpt lat="34.4001341" lon="8.1715001"><ele>535.0</ele><time>2026-04-30T17:48:56.743Z</time></trkpt><trkpt lat="34.4002833" lon="8.1715596"><ele>535.0</ele><time>2026-04-30T17:48:57.764Z</time></trkpt><trkpt lat="34.4004321" lon="8.1716129"><ele>535.3333333333334</ele><time>2026-04-30T17:48:58.747Z</time></trkpt><trkpt lat="34.4005777" lon="8.1716665"><ele>535.6666666666666</ele><time>2026-04-30T17:48:59.746Z</time></trkpt><trkpt lat="34.4007226" lon="8.1717238"><ele>536.0</ele><time>2026-04-30T17:49:00.752Z</time></trkpt><trkpt lat="34.4008694" lon="8.1717795"><ele>536.0</ele><time>2026-04-30T17:49:01.706Z</time></trkpt><trkpt lat="34.4010192" lon="8.1718349"><ele>536.0</ele><time>2026-04-30T17:49:02.744Z</time></trkpt><trkpt lat="34.4011647" lon="8.1718936"><ele>536.0</ele><time>2026-04-30T17:49:03.748Z</time></trkpt><trkpt lat="34.4013064" lon="8.1719569"><ele>537.0</ele><time>2026-04-30T17:49:04.741Z</time></trkpt><trkpt lat="34.401453" lon="8.1720137"><ele>538.0</ele><time>2026-04-30T17:49:05.751Z</time></trkpt><trkpt lat="34.4016005" lon="8.1720725"><ele>539.0</ele><time>2026-04-30T17:49:06.726Z</time></trkpt><trkpt lat="34.4017416" lon="8.1721254"><ele>539.0</ele><time>2026-04-30T17:49:07.744Z</time></trkpt><trkpt lat="34.4018816" lon="8.172183"><ele>539.0</ele><time>2026-04-30T17:49:08.755Z</time></trkpt><trkpt lat="34.4020246" lon="8.172232"><ele>539.0</ele><time>2026-04-30T17:49:09.744Z</time></trkpt><trkpt lat="34.402165" lon="8.1722895"><ele>539.0</ele><time>2026-04-30T17:49:10.758Z</time></trkpt><trkpt lat="34.4023075" lon="8.172348"><ele>538.6666666666666</ele><time>2026-04-30T17:49:11.724Z</time></trkpt><trkpt lat="34.4024506" lon="8.1723977"><ele>538.3333333333334</ele><time>2026-04-30T17:49:12.748Z</time></trkpt><trkpt lat="34.4025949" lon="8.1724493"><ele>538.0</ele><time>2026-04-30T17:49:13.754Z</time></trkpt><trkpt lat="34.4027442" lon="8.1725035"><ele>538.0</ele><time>2026-04-30T17:49:14.747Z</time></trkpt><trkpt lat="34.4028941" lon="8.1725594"><ele>538.0</ele><time>2026-04-30T17:49:15.746Z</time></trkpt><trkpt lat="34.4030439" lon="8.1726184"><ele>538.0</ele><time>2026-04-30T17:49:16.748Z</time></trkpt><trkpt lat="34.4031944" lon="8.1726795"><ele>537.6666666666667</ele><time>2026-04-30T17:49:17.753Z</time></trkpt><trkpt lat="34.4033445" lon="8.1727422"><ele>537.3333333333334</ele><time>2026-04-30T17:49:18.734Z</time></trkpt><trkpt lat="34.4034939" lon="8.1728043"><ele>537.0</ele><time>2026-04-30T17:49:19.749Z</time></trkpt><trkpt lat="34.403641" lon="8.1728629"><ele>537.0</ele><time>2026-04-30T17:49:20.735Z</time></trkpt><trkpt lat="34.4037884" lon="8.1729166"><ele>537.0</ele><time>2026-04-30T17:49:21.732Z</time></trkpt><trkpt lat="34.4039358" lon="8.1729768"><ele>537.0</ele><time>2026-04-30T17:49:22.757Z</time></trkpt><trkpt lat="34.4040894" lon="8.1730306"><ele>537.3333333333334</ele><time>2026-04-30T17:49:23.732Z</time></trkpt><trkpt lat="34.4042515" lon="8.1730959"><ele>537.6666666666667</ele><time>2026-04-30T17:49:24.739Z</time></trkpt><trkpt lat="34.4044242" lon="8.1731649"><ele>538.0</ele><time>2026-04-30T17:49:25.746Z</time></trkpt><trkpt lat="34.4046044" lon="8.1732408"><ele>539.6666666666667</ele><time>2026-04-30T17:49:26.76Z</time></trkpt><trkpt lat="34.404786" lon="8.1733102"><ele>541.3333333333334</ele><time>2026-04-30T17:49:27.745Z</time></trkpt><trkpt lat="34.4049645" lon="8.1733876"><ele>543.0</ele><time>2026-04-30T17:49:28.751Z</time></trkpt><trkpt lat="34.4051408" lon="8.1734565"><ele>543.0</ele><time>2026-04-30T17:49:29.731Z</time></trkpt><trkpt lat="34.4053133" lon="8.1735279"><ele>543.0</ele><time>2026-04-30T17:49:30.748Z</time></trkpt><trkpt lat="34.4054805" lon="8.1735912"><ele>543.0</ele><time>2026-04-30T17:49:31.695Z</time></trkpt><trkpt lat="34.4056193" lon="8.1736492"><ele>543.8</ele><time>2026-04-30T17:49:32.758Z</time></trkpt><trkpt lat="34.4057256" lon="8.1736908"><ele>544.5999999999999</ele><time>2026-04-30T17:49:33.754Z</time></trkpt><trkpt lat="34.4058016" lon="8.173733"><ele>545.4000000000001</ele><time>2026-04-30T17:49:34.745Z</time></trkpt><trkpt lat="34.405866" lon="8.1737557"><ele>546.2</ele><time>2026-04-30T17:49:35.725Z</time></trkpt><trkpt lat="34.4060055" lon="8.173799"><ele>547.0</ele><time>2026-04-30T17:49:37.753Z</time></trkpt><trkpt lat="34.4060959" lon="8.1738347"><ele>547.0</ele><time>2026-04-30T17:49:38.736Z</time></trkpt><trkpt lat="34.4061863" lon="8.1738712"><ele>547.0</ele><time>2026-04-30T17:49:39.773Z</time></trkpt><trkpt lat="34.4062763" lon="8.1739102"><ele>547.0</ele><time>2026-04-30T17:49:40.754Z</time></trkpt><trkpt lat="34.4063597" lon="8.1739368"><ele>547.0</ele><time>2026-04-30T17:49:41.724Z</time></trkpt><trkpt lat="34.4064241" lon="8.1739581"><ele>547.0</ele><time>2026-04-30T17:49:42.73Z</time></trkpt><trkpt lat="34.4064868" lon="8.1739871"><ele>547.0</ele><time>2026-04-30T17:49:43.746Z</time></trkpt><trkpt lat="34.4065675" lon="8.1740195"><ele>547.25</ele><time>2026-04-30T17:49:44.758Z</time></trkpt><trkpt lat="34.4066564" lon="8.1740555"><ele>547.5</ele><time>2026-04-30T17:49:45.759Z</time></trkpt><trkpt lat="34.406752" lon="8.1741024"><ele>547.75</ele><time>2026-04-30T17:49:46.755Z</time></trkpt><trkpt lat="34.406872" lon="8.174152"><ele>548.0</ele><time>2026-04-30T17:49:47.752Z</time></trkpt><trkpt lat="34.4069983" lon="8.1742084"><ele>548.0</ele><time>2026-04-30T17:49:48.751Z</time></trkpt><trkpt lat="34.4071262" lon="8.1742647"><ele>548.0</ele><time>2026-04-30T17:49:49.745Z</time></trkpt><trkpt lat="34.4072585" lon="8.1743299"><ele>548.0</ele><time>2026-04-30T17:49:50.757Z</time></trkpt><trkpt lat="34.4074005" lon="8.1743963"><ele>548.0</ele><time>2026-04-30T17:49:51.752Z</time></trkpt><trkpt lat="34.4075463" lon="8.1744738"><ele>548.3333333333333</ele><time>2026-04-30T17:49:52.747Z</time></trkpt><trkpt lat="34.4076988" lon="8.1745581"><ele>548.6666666666666</ele><time>2026-04-30T17:49:53.76Z</time></trkpt><trkpt lat="34.4078517" lon="8.1746429"><ele>549.0</ele><time>2026-04-30T17:49:54.754Z</time></trkpt><trkpt lat="34.4079989" lon="8.1747311"><ele>548.3333333333334</ele><time>2026-04-30T17:49:55.758Z</time></trkpt><trkpt lat="34.4081393" lon="8.1748246"><ele>547.6666666666667</ele><time>2026-04-30T17:49:56.749Z</time></trkpt><trkpt lat="34.4082728" lon="8.1749198"><ele>547.0</ele><time>2026-04-30T17:49:57.748Z</time></trkpt><trkpt lat="34.4083995" lon="8.1750135"><ele>547.0</ele><time>2026-04-30T17:49:58.748Z</time></trkpt><trkpt lat="34.4085148" lon="8.1751023"><ele>547.0</ele><time>2026-04-30T17:49:59.717Z</time></trkpt><trkpt lat="34.408621" lon="8.1751847"><ele>547.0</ele><time>2026-04-30T17:50:00.734Z</time></trkpt><trkpt lat="34.4087228" lon="8.1752607"><ele>547.0</ele><time>2026-04-30T17:50:01.748Z</time></trkpt><trkpt lat="34.4088" lon="8.1753322"><ele>546.1666666666667</ele><time>2026-04-30T17:50:02.73Z</time></trkpt><trkpt lat="34.4088581" lon="8.1753929"><ele>545.3333333333334</ele><time>2026-04-30T17:50:03.746Z</time></trkpt><trkpt lat="34.4089092" lon="8.1754498"><ele>544.5</ele><time>2026-04-30T17:50:04.733Z</time></trkpt><trkpt lat="34.408975" lon="8.1755241"><ele>543.6666666666666</ele><time>2026-04-30T17:50:06.752Z</time></trkpt><trkpt lat="34.4090289" lon="8.1755943"><ele>542.8333333333333</ele><time>2026-04-30T17:50:09.738Z</time></trkpt><trkpt lat="34.4090923" lon="8.1756162"><ele>542.0</ele><time>2026-04-30T18:04:30.733Z</time></trkpt><trkpt lat="34.4091851" lon="8.175679"><ele>542.2</ele><time>2026-04-30T18:04:32.758Z</time></trkpt><trkpt lat="34.409247" lon="8.1757423"><ele>542.4000000000001</ele><time>2026-04-30T18:04:33.706Z</time></trkpt><trkpt lat="34.4093203" lon="8.1758178"><ele>542.5999999999999</ele><time>2026-04-30T18:04:34.708Z</time></trkpt><trkpt lat="34.4094039" lon="8.1758951"><ele>542.8</ele><time>2026-04-30T18:04:35.685Z</time></trkpt><trkpt lat="34.4094907" lon="8.1759768"><ele>543.0</ele><time>2026-04-30T18:04:36.693Z</time></trkpt><trkpt lat="34.409576" lon="8.1760668"><ele>542.0</ele><time>2026-04-30T18:04:37.69Z</time></trkpt><trkpt lat="34.4096689" lon="8.1761584"><ele>541.0</ele><time>2026-04-30T18:04:38.719Z</time></trkpt><trkpt lat="34.4097629" lon="8.1762569"><ele>540.0</ele><time>2026-04-30T18:04:39.728Z</time></trkpt><trkpt lat="34.4098596" lon="8.1763599"><ele>539.0</ele><time>2026-04-30T18:04:40.717Z</time></trkpt><trkpt lat="34.4099574" lon="8.1764649"><ele>539.5</ele><time>2026-04-30T18:04:41.7Z</time></trkpt><trkpt lat="34.4100597" lon="8.1765742"><ele>540.0</ele><time>2026-04-30T18:04:42.703Z</time></trkpt><trkpt lat="34.410163" lon="8.176686"><ele>540.5</ele><time>2026-04-30T18:04:43.693Z</time></trkpt><trkpt lat="34.4102727" lon="8.176802"><ele>541.0</ele><time>2026-04-30T18:04:44.706Z</time></trkpt><trkpt lat="34.4103902" lon="8.1769194"><ele>540.5</ele><time>2026-04-30T18:04:45.715Z</time></trkpt><trkpt lat="34.4106231" lon="8.1771725"><ele>540.0</ele><time>2026-04-30T18:04:47.713Z</time></trkpt><trkpt lat="34.4108416" lon="8.1774061"><ele>539.0</ele><time>2026-04-30T18:04:49.697Z</time></trkpt><trkpt lat="34.4109463" lon="8.1775187"><ele>538.0</ele><time>2026-04-30T18:04:50.728Z</time></trkpt><trkpt lat="34.4110473" lon="8.1776262"><ele>537.0</ele><time>2026-04-30T18:04:51.717Z</time></trkpt><trkpt lat="34.4112398" lon="8.1778311"><ele>537.25</ele><time>2026-04-30T18:04:53.695Z</time></trkpt><trkpt lat="34.4113361" lon="8.1779338"><ele>537.5</ele><time>2026-04-30T18:04:54.686Z</time></trkpt><trkpt lat="34.4114275" lon="8.1780306"><ele>537.75</ele><time>2026-04-30T18:04:55.705Z</time></trkpt><trkpt lat="34.4115184" lon="8.1781283"><ele>538.0</ele><time>2026-04-30T18:04:56.718Z</time></trkpt><trkpt lat="34.4116145" lon="8.1782275"><ele>536.5</ele><time>2026-04-30T18:04:57.712Z</time></trkpt><trkpt lat="34.4117168" lon="8.178332"><ele>535.0</ele><time>2026-04-30T18:04:58.7Z</time></trkpt><trkpt lat="34.4118275" lon="8.178444"><ele>533.5</ele><time>2026-04-30T18:04:59.731Z</time></trkpt><trkpt lat="34.4119404" lon="8.1785654"><ele>532.0</ele><time>2026-04-30T18:05:00.724Z</time></trkpt><trkpt lat="34.412059" lon="8.1786897"><ele>530.6666666666667</ele><time>2026-04-30T18:05:01.722Z</time></trkpt><trkpt lat="34.4121781" lon="8.1788149"><ele>529.3333333333334</ele><time>2026-04-30T18:05:02.69Z</time></trkpt><trkpt lat="34.4123014" lon="8.1789497"><ele>528.0</ele><time>2026-04-30T18:05:03.686Z</time></trkpt><trkpt lat="34.4124204" lon="8.1790806"><ele>526.6666666666666</ele><time>2026-04-30T18:05:04.719Z</time></trkpt><trkpt lat="34.4125422" lon="8.1792106"><ele>525.3333333333333</ele><time>2026-04-30T18:05:05.694Z</time></trkpt><trkpt lat="34.4126625" lon="8.1793404"><ele>524.0</ele><time>2026-04-30T18:05:06.705Z</time></trkpt><trkpt lat="34.412785" lon="8.1794742"><ele>524.0</ele><time>2026-04-30T18:05:07.735Z</time></trkpt><trkpt lat="34.4129088" lon="8.1796052"><ele>524.0</ele><time>2026-04-30T18:05:08.687Z</time></trkpt><trkpt lat="34.4130343" lon="8.1797375"><ele>524.0</ele><time>2026-04-30T18:05:09.706Z</time></trkpt><trkpt lat="34.4131605" lon="8.1798688"><ele>522.0</ele><time>2026-04-30T18:05:10.713Z</time></trkpt><trkpt lat="34.4132867" lon="8.1800038"><ele>520.0</ele><time>2026-04-30T18:05:11.688Z</time></trkpt><trkpt lat="34.4134116" lon="8.1801408"><ele>518.0</ele><time>2026-04-30T18:05:12.712Z</time></trkpt><trkpt lat="34.4135406" lon="8.1802814"><ele>518.0</ele><time>2026-04-30T18:05:13.699Z</time></trkpt><trkpt lat="34.4136664" lon="8.1804158"><ele>518.0</ele><time>2026-04-30T18:05:14.699Z</time></trkpt><trkpt lat="34.4137927" lon="8.180552"><ele>518.0</ele><time>2026-04-30T18:05:15.703Z</time></trkpt><trkpt lat="34.4139181" lon="8.1806844"><ele>516.3333333333333</ele><time>2026-04-30T18:05:16.691Z</time></trkpt><trkpt lat="34.4140443" lon="8.1808191"><ele>514.6666666666666</ele><time>2026-04-30T18:05:17.745Z</time></trkpt><trkpt lat="34.4141696" lon="8.1809525"><ele>513.0</ele><time>2026-04-30T18:05:18.75Z</time></trkpt><trkpt lat="34.4142952" lon="8.181085"><ele>513.0</ele><time>2026-04-30T18:05:19.716Z</time></trkpt><trkpt lat="34.4144211" lon="8.1812154"><ele>513.0</ele><time>2026-04-30T18:05:20.687Z</time></trkpt><trkpt lat="34.4145432" lon="8.1813462"><ele>513.0</ele><time>2026-04-30T18:05:21.7Z</time></trkpt><trkpt lat="34.414661" lon="8.1814714"><ele>512.0</ele><time>2026-04-30T18:05:22.725Z</time></trkpt><trkpt lat="34.4147808" lon="8.1815971"><ele>511.0</ele><time>2026-04-30T18:05:23.719Z</time></trkpt><trkpt lat="34.4148976" lon="8.181723"><ele>510.0</ele><time>2026-04-30T18:05:24.707Z</time></trkpt><trkpt lat="34.4150143" lon="8.1818454"><ele>510.0</ele><time>2026-04-30T18:05:25.71Z</time></trkpt><trkpt lat="34.415133" lon="8.1819686"><ele>510.0</ele><time>2026-04-30T18:05:26.71Z</time></trkpt><trkpt lat="34.415251" lon="8.1820861"><ele>510.0</ele><time>2026-04-30T18:05:27.71Z</time></trkpt><trkpt lat="34.4153683" lon="8.1822115"><ele>510.0</ele><time>2026-04-30T18:05:28.712Z</time></trkpt><trkpt lat="34.4154846" lon="8.1823421"><ele>510.0</ele><time>2026-04-30T18:05:29.729Z</time></trkpt><trkpt lat="34.4156006" lon="8.1824715"><ele>510.0</ele><time>2026-04-30T18:05:30.719Z</time></trkpt><trkpt lat="34.4157211" lon="8.1825958"><ele>509.0</ele><time>2026-04-30T18:05:31.717Z</time></trkpt><trkpt lat="34.4158396" lon="8.1827215"><ele>508.0</ele><time>2026-04-30T18:05:32.724Z</time></trkpt><trkpt lat="34.4159598" lon="8.1828507"><ele>507.0</ele><time>2026-04-30T18:05:33.727Z</time></trkpt><trkpt lat="34.416086" lon="8.1829789"><ele>507.0</ele><time>2026-04-30T18:05:34.733Z</time></trkpt><trkpt lat="34.4162146" lon="8.1831184"><ele>507.0</ele><time>2026-04-30T18:05:35.73Z</time></trkpt><trkpt lat="34.4163576" lon="8.1832671"><ele>507.0</ele><time>2026-04-30T18:05:36.713Z</time></trkpt><trkpt lat="34.4165085" lon="8.183423"><ele>506.66666666666663</ele><time>2026-04-30T18:05:37.72Z</time></trkpt><trkpt lat="34.4166609" lon="8.1835812"><ele>506.3333333333333</ele><time>2026-04-30T18:05:38.786Z</time></trkpt><trkpt lat="34.4168089" lon="8.1837371"><ele>506.0</ele><time>2026-04-30T18:05:39.716Z</time></trkpt><trkpt lat="34.4169531" lon="8.1838848"><ele>506.3333333333333</ele><time>2026-04-30T18:05:40.723Z</time></trkpt><trkpt lat="34.4170939" lon="8.18403"><ele>506.66666666666663</ele><time>2026-04-30T18:05:41.738Z</time></trkpt><trkpt lat="34.4172272" lon="8.1841697"><ele>507.0</ele><time>2026-04-30T18:05:42.722Z</time></trkpt><trkpt lat="34.4173564" lon="8.1843105"><ele>508.0</ele><time>2026-04-30T18:05:43.707Z</time></trkpt><trkpt lat="34.4174906" lon="8.1844524"><ele>509.0</ele><time>2026-04-30T18:05:44.719Z</time></trkpt><trkpt lat="34.4176236" lon="8.1845981"><ele>510.0</ele><time>2026-04-30T18:05:45.723Z</time></trkpt><trkpt lat="34.4177516" lon="8.1847387"><ele>510.66666666666663</ele><time>2026-04-30T18:05:46.716Z</time></trkpt><trkpt lat="34.4178864" lon="8.1848833"><ele>511.3333333333333</ele><time>2026-04-30T18:05:47.726Z</time></trkpt><trkpt lat="34.4180202" lon="8.1850201"><ele>512.0</ele><time>2026-04-30T18:05:48.713Z</time></trkpt><trkpt lat="34.4181534" lon="8.1851626"><ele>512.6666666666666</ele><time>2026-04-30T18:05:49.723Z</time></trkpt><trkpt lat="34.4182878" lon="8.1853004"><ele>513.3333333333334</ele><time>2026-04-30T18:05:50.747Z</time></trkpt><trkpt lat="34.4184229" lon="8.1854377"><ele>514.0</ele><time>2026-04-30T18:05:51.708Z</time></trkpt><trkpt lat="34.4185564" lon="8.1855869"><ele>514.3333333333334</ele><time>2026-04-30T18:05:52.703Z</time></trkpt><trkpt lat="34.418697" lon="8.1857322"><ele>514.6666666666666</ele><time>2026-04-30T18:05:53.708Z</time></trkpt><trkpt lat="34.4188398" lon="8.185874"><ele>515.0</ele><time>2026-04-30T18:05:54.713Z</time></trkpt><trkpt lat="34.4189841" lon="8.1860204"><ele>515.6666666666666</ele><time>2026-04-30T18:05:55.696Z</time></trkpt><trkpt lat="34.4191234" lon="8.186171"><ele>516.3333333333334</ele><time>2026-04-30T18:05:56.732Z</time></trkpt><trkpt lat="34.4192608" lon="8.1863211"><ele>517.0</ele><time>2026-04-30T18:05:57.766Z</time></trkpt><trkpt lat="34.4193989" lon="8.186465"><ele>517.6666666666667</ele><time>2026-04-30T18:05:58.731Z</time></trkpt><trkpt lat="34.4195306" lon="8.186613"><ele>518.3333333333334</ele><time>2026-04-30T18:05:59.703Z</time></trkpt><trkpt lat="34.4196698" lon="8.1867572"><ele>519.0</ele><time>2026-04-30T18:06:00.709Z</time></trkpt><trkpt lat="34.4198131" lon="8.1869063"><ele>519.0</ele><time>2026-04-30T18:06:01.709Z</time></trkpt><trkpt lat="34.4199549" lon="8.1870574"><ele>519.0</ele><time>2026-04-30T18:06:02.725Z</time></trkpt><trkpt lat="34.4200946" lon="8.1872077"><ele>519.0</ele><time>2026-04-30T18:06:03.734Z</time></trkpt><trkpt lat="34.4202374" lon="8.1873593"><ele>518.3333333333334</ele><time>2026-04-30T18:06:04.741Z</time></trkpt><trkpt lat="34.4203799" lon="8.1875035"><ele>517.6666666666667</ele><time>2026-04-30T18:06:05.712Z</time></trkpt><trkpt lat="34.420524" lon="8.1876564"><ele>517.0</ele><time>2026-04-30T18:06:06.715Z</time></trkpt><trkpt lat="34.4206669" lon="8.1878094"><ele>517.0</ele><time>2026-04-30T18:06:07.713Z</time></trkpt><trkpt lat="34.420807" lon="8.1879674"><ele>517.0</ele><time>2026-04-30T18:06:08.683Z</time></trkpt><trkpt lat="34.4209457" lon="8.1881191"><ele>517.0</ele><time>2026-04-30T18:06:09.721Z</time></trkpt><trkpt lat="34.4210765" lon="8.1882792"><ele>516.0</ele><time>2026-04-30T18:06:10.709Z</time></trkpt><trkpt lat="34.4212006" lon="8.188447"><ele>515.0</ele><time>2026-04-30T18:06:11.713Z</time></trkpt><trkpt lat="34.4213238" lon="8.1886221"><ele>514.0</ele><time>2026-04-30T18:06:12.715Z</time></trkpt><trkpt lat="34.421431" lon="8.1888091"><ele>514.0</ele><time>2026-04-30T18:06:13.684Z</time></trkpt><trkpt lat="34.4215197" lon="8.1890058"><ele>514.0</ele><time>2026-04-30T18:06:14.713Z</time></trkpt><trkpt lat="34.4215992" lon="8.1892079"><ele>514.0</ele><time>2026-04-30T18:06:15.734Z</time></trkpt><trkpt lat="34.421674" lon="8.1894159"><ele>513.0</ele><time>2026-04-30T18:06:16.72Z</time></trkpt><trkpt lat="34.4217342" lon="8.1896184"><ele>512.0</ele><time>2026-04-30T18:06:17.75Z</time></trkpt><trkpt lat="34.4217771" lon="8.1898194"><ele>511.0</ele><time>2026-04-30T18:06:18.711Z</time></trkpt><trkpt lat="34.4218038" lon="8.1900184"><ele>510.33333333333337</ele><time>2026-04-30T18:06:19.723Z</time></trkpt><trkpt lat="34.4218338" lon="8.1902259"><ele>509.66666666666663</ele><time>2026-04-30T18:06:20.712Z</time></trkpt><trkpt lat="34.4218486" lon="8.1904384"><ele>509.0</ele><time>2026-04-30T18:06:21.758Z</time></trkpt><trkpt lat="34.421849" lon="8.1906607"><ele>509.3333333333333</ele><time>2026-04-30T18:06:22.751Z</time></trkpt><trkpt lat="34.4218313" lon="8.1908798"><ele>509.66666666666663</ele><time>2026-04-30T18:06:23.734Z</time></trkpt><trkpt lat="34.4218056" lon="8.191095"><ele>510.0</ele><time>2026-04-30T18:06:24.738Z</time></trkpt><trkpt lat="34.4217692" lon="8.1912991"><ele>510.0</ele><time>2026-04-30T18:06:25.798Z</time></trkpt><trkpt lat="34.4217262" lon="8.1914934"><ele>510.0</ele><time>2026-04-30T18:06:26.742Z</time></trkpt><trkpt lat="34.4216698" lon="8.1916884"><ele>510.0</ele><time>2026-04-30T18:06:27.754Z</time></trkpt><trkpt lat="34.4216108" lon="8.1918824"><ele>511.0</ele><time>2026-04-30T18:06:28.743Z</time></trkpt><trkpt lat="34.4215372" lon="8.1920674"><ele>512.0</ele><time>2026-04-30T18:06:29.689Z</time></trkpt><trkpt lat="34.4214574" lon="8.192244"><ele>513.0</ele><time>2026-04-30T18:06:30.749Z</time></trkpt><trkpt lat="34.421369" lon="8.1924183"><ele>512.3333333333334</ele><time>2026-04-30T18:06:31.729Z</time></trkpt><trkpt lat="34.4212796" lon="8.192593"><ele>511.6666666666667</ele><time>2026-04-30T18:06:32.73Z</time></trkpt><trkpt lat="34.4211858" lon="8.1927658"><ele>511.0</ele><time>2026-04-30T18:06:33.755Z</time></trkpt><trkpt lat="34.4210959" lon="8.1929407"><ele>511.0</ele><time>2026-04-30T18:06:34.716Z</time></trkpt><trkpt lat="34.4210046" lon="8.1931155"><ele>511.0</ele><time>2026-04-30T18:06:35.719Z</time></trkpt><trkpt lat="34.4209115" lon="8.193298"><ele>511.0</ele><time>2026-04-30T18:06:36.743Z</time></trkpt><trkpt lat="34.420818" lon="8.1934816"><ele>511.0</ele><time>2026-04-30T18:06:37.737Z</time></trkpt><trkpt lat="34.4207219" lon="8.1936719"><ele>511.0</ele><time>2026-04-30T18:06:38.749Z</time></trkpt><trkpt lat="34.4206225" lon="8.1938659"><ele>511.0</ele><time>2026-04-30T18:06:39.717Z</time></trkpt><trkpt lat="34.4205248" lon="8.1940573"><ele>510.6666666666667</ele><time>2026-04-30T18:06:40.697Z</time></trkpt><trkpt lat="34.4204287" lon="8.194253"><ele>510.33333333333337</ele><time>2026-04-30T18:06:41.7Z</time></trkpt><trkpt lat="34.4203289" lon="8.1944497"><ele>510.0</ele><time>2026-04-30T18:06:42.712Z</time></trkpt><trkpt lat="34.4202236" lon="8.1946501"><ele>509.33333333333337</ele><time>2026-04-30T18:06:43.703Z</time></trkpt><trkpt lat="34.4201242" lon="8.1948554"><ele>508.6666666666667</ele><time>2026-04-30T18:06:44.726Z</time></trkpt><trkpt lat="34.4200186" lon="8.1950599"><ele>508.0</ele><time>2026-04-30T18:06:45.744Z</time></trkpt><trkpt lat="34.4199161" lon="8.1952569"><ele>508.0</ele><time>2026-04-30T18:06:46.717Z</time></trkpt><trkpt lat="34.419815" lon="8.1954614"><ele>508.0</ele><time>2026-04-30T18:06:47.741Z</time></trkpt><trkpt lat="34.4197161" lon="8.1956622"><ele>508.0</ele><time>2026-04-30T18:06:48.72Z</time></trkpt><trkpt lat="34.4196188" lon="8.1958625"><ele>506.6666666666667</ele><time>2026-04-30T18:06:49.728Z</time></trkpt><trkpt lat="34.4195272" lon="8.1960703"><ele>505.33333333333337</ele><time>2026-04-30T18:06:50.743Z</time></trkpt><trkpt lat="34.4194476" lon="8.1962832"><ele>504.0</ele><time>2026-04-30T18:06:51.744Z</time></trkpt><trkpt lat="34.4193774" lon="8.1965044"><ele>503.66666666666663</ele><time>2026-04-30T18:06:52.696Z</time></trkpt><trkpt lat="34.4193088" lon="8.1967261"><ele>503.3333333333333</ele><time>2026-04-30T18:06:53.745Z</time></trkpt><trkpt lat="34.4192528" lon="8.1969586"><ele>503.0</ele><time>2026-04-30T18:06:54.749Z</time></trkpt><trkpt lat="34.4192168" lon="8.1971904"><ele>503.0</ele><time>2026-04-30T18:06:55.74Z</time></trkpt><trkpt lat="34.4191865" lon="8.1974241"><ele>503.0</ele><time>2026-04-30T18:06:56.73Z</time></trkpt><trkpt lat="34.4191619" lon="8.1976577"><ele>503.0</ele><time>2026-04-30T18:06:57.747Z</time></trkpt><trkpt lat="34.4191482" lon="8.1978911"><ele>503.0</ele><time>2026-04-30T18:06:58.798Z</time></trkpt><trkpt lat="34.4191435" lon="8.1981165"><ele>503.0</ele><time>2026-04-30T18:06:59.731Z</time></trkpt><trkpt lat="34.4191509" lon="8.1983524"><ele>503.0</ele><time>2026-04-30T18:07:00.731Z</time></trkpt><trkpt lat="34.4191689" lon="8.198588"><ele>502.0</ele><time>2026-04-30T18:07:01.742Z</time></trkpt><trkpt lat="34.4192078" lon="8.1988234"><ele>501.0</ele><time>2026-04-30T18:07:02.712Z</time></trkpt><trkpt lat="34.4192474" lon="8.1990659"><ele>500.0</ele><time>2026-04-30T18:07:03.734Z</time></trkpt><trkpt lat="34.4192978" lon="8.1993033"><ele>499.0</ele><time>2026-04-30T18:07:04.73Z</time></trkpt><trkpt lat="34.4193562" lon="8.1995509"><ele>498.0</ele><time>2026-04-30T18:07:05.735Z</time></trkpt><trkpt lat="34.4194204" lon="8.199788"><ele>497.0</ele><time>2026-04-30T18:07:06.694Z</time></trkpt><trkpt lat="34.4194863" lon="8.2000289"><ele>496.3333333333333</ele><time>2026-04-30T18:07:07.723Z</time></trkpt><trkpt lat="34.4195496" lon="8.2002721"><ele>495.66666666666663</ele><time>2026-04-30T18:07:08.689Z</time></trkpt><trkpt lat="34.4196129" lon="8.2005146"><ele>495.0</ele><time>2026-04-30T18:07:09.701Z</time></trkpt><trkpt lat="34.4196784" lon="8.2007552"><ele>494.33333333333337</ele><time>2026-04-30T18:07:10.717Z</time></trkpt><trkpt lat="34.4197402" lon="8.2009931"><ele>493.6666666666667</ele><time>2026-04-30T18:07:11.72Z</time></trkpt><trkpt lat="34.4198069" lon="8.2012307"><ele>493.0</ele><time>2026-04-30T18:07:12.712Z</time></trkpt><trkpt lat="34.4198712" lon="8.2014632"><ele>492.33333333333337</ele><time>2026-04-30T18:07:13.71Z</time></trkpt><trkpt lat="34.4199371" lon="8.20169"><ele>491.66666666666663</ele><time>2026-04-30T18:07:14.726Z</time></trkpt><trkpt lat="34.4200024" lon="8.2019124"><ele>491.0</ele><time>2026-04-30T18:07:15.745Z</time></trkpt><trkpt lat="34.4200611" lon="8.2021348"><ele>490.66666666666663</ele><time>2026-04-30T18:07:16.71Z</time></trkpt><trkpt lat="34.4201261" lon="8.2023503"><ele>490.33333333333337</ele><time>2026-04-30T18:07:17.745Z</time></trkpt><trkpt lat="34.4201858" lon="8.2025736"><ele>490.0</ele><time>2026-04-30T18:07:18.724Z</time></trkpt><trkpt lat="34.4202479" lon="8.2027968"><ele>490.0</ele><time>2026-04-30T18:07:19.709Z</time></trkpt><trkpt lat="34.4203096" lon="8.2030213"><ele>490.0</ele><time>2026-04-30T18:07:20.69Z</time></trkpt><trkpt lat="34.4203715" lon="8.2032492"><ele>490.0</ele><time>2026-04-30T18:07:21.726Z</time></trkpt><trkpt lat="34.4204307" lon="8.2034733"><ele>489.0</ele><time>2026-04-30T18:07:22.733Z</time></trkpt><trkpt lat="34.4204905" lon="8.2036998"><ele>488.0</ele><time>2026-04-30T18:07:23.729Z</time></trkpt><trkpt lat="34.4205507" lon="8.2039259"><ele>487.0</ele><time>2026-04-30T18:07:24.726Z</time></trkpt><trkpt lat="34.4206128" lon="8.2041463"><ele>486.0</ele><time>2026-04-30T18:07:25.724Z</time></trkpt><trkpt lat="34.4206794" lon="8.2043676"><ele>485.0</ele><time>2026-04-30T18:07:26.735Z</time></trkpt><trkpt lat="34.4207508" lon="8.2045825"><ele>484.0</ele><time>2026-04-30T18:07:27.724Z</time></trkpt><trkpt lat="34.4208278" lon="8.2047991"><ele>483.0</ele><time>2026-04-30T18:07:28.7Z</time></trkpt><trkpt lat="34.4209107" lon="8.2050112"><ele>482.0</ele><time>2026-04-30T18:07:29.722Z</time></trkpt><trkpt lat="34.4210015" lon="8.2052179"><ele>481.0</ele><time>2026-04-30T18:07:30.695Z</time></trkpt><trkpt lat="34.4211063" lon="8.2054223"><ele>481.0</ele><time>2026-04-30T18:07:31.721Z</time></trkpt><trkpt lat="34.4212177" lon="8.205625"><ele>481.0</ele><time>2026-04-30T18:07:32.73Z</time></trkpt><trkpt lat="34.4213297" lon="8.2058139"><ele>481.0</ele><time>2026-04-30T18:07:33.706Z</time></trkpt><trkpt lat="34.4214509" lon="8.2059912"><ele>480.0</ele><time>2026-04-30T18:07:34.796Z</time></trkpt><trkpt lat="34.421582" lon="8.2061632"><ele>479.0</ele><time>2026-04-30T18:07:35.72Z</time></trkpt><trkpt lat="34.4217197" lon="8.20632"><ele>478.0</ele><time>2026-04-30T18:07:36.733Z</time></trkpt><trkpt lat="34.4218622" lon="8.2064671"><ele>478.0</ele><time>2026-04-30T18:07:37.718Z</time></trkpt><trkpt lat="34.4220036" lon="8.2066063"><ele>478.0</ele><time>2026-04-30T18:07:38.716Z</time></trkpt><trkpt lat="34.4221467" lon="8.2067398"><ele>478.0</ele><time>2026-04-30T18:07:39.73Z</time></trkpt><trkpt lat="34.422295" lon="8.2068624"><ele>478.6666666666667</ele><time>2026-04-30T18:07:40.729Z</time></trkpt><trkpt lat="34.422449" lon="8.206975"><ele>479.33333333333337</ele><time>2026-04-30T18:07:41.727Z</time></trkpt><trkpt lat="34.4226132" lon="8.2070866"><ele>480.0</ele><time>2026-04-30T18:07:42.722Z</time></trkpt><trkpt lat="34.4227903" lon="8.2071893"><ele>480.0</ele><time>2026-04-30T18:07:43.723Z</time></trkpt><trkpt lat="34.42298" lon="8.2072872"><ele>480.0</ele><time>2026-04-30T18:07:44.724Z</time></trkpt><trkpt lat="34.4231702" lon="8.2073895"><ele>480.0</ele><time>2026-04-30T18:07:45.731Z</time></trkpt><trkpt lat="34.42336" lon="8.2074847"><ele>479.33333333333337</ele><time>2026-04-30T18:07:46.724Z</time></trkpt><trkpt lat="34.423543" lon="8.2075837"><ele>478.6666666666667</ele><time>2026-04-30T18:07:47.72Z</time></trkpt><trkpt lat="34.4237261" lon="8.2076754"><ele>478.0</ele><time>2026-04-30T18:07:48.727Z</time></trkpt><trkpt lat="34.4239054" lon="8.2077703"><ele>477.6666666666667</ele><time>2026-04-30T18:07:49.703Z</time></trkpt><trkpt lat="34.4240827" lon="8.2078663"><ele>477.33333333333337</ele><time>2026-04-30T18:07:50.712Z</time></trkpt><trkpt lat="34.4242598" lon="8.2079626"><ele>477.0</ele><time>2026-04-30T18:07:51.72Z</time></trkpt><trkpt lat="34.4244369" lon="8.208056"><ele>477.0</ele><time>2026-04-30T18:07:52.702Z</time></trkpt><trkpt lat="34.4246138" lon="8.2081513"><ele>477.0</ele><time>2026-04-30T18:07:53.718Z</time></trkpt><trkpt lat="34.4247911" lon="8.2082446"><ele>477.0</ele><time>2026-04-30T18:07:54.712Z</time></trkpt><trkpt lat="34.4249674" lon="8.2083416"><ele>476.0</ele><time>2026-04-30T18:07:55.733Z</time></trkpt><trkpt lat="34.4251497" lon="8.2084385"><ele>475.0</ele><time>2026-04-30T18:07:56.726Z</time></trkpt><trkpt lat="34.4253272" lon="8.2085338"><ele>474.0</ele><time>2026-04-30T18:07:57.733Z</time></trkpt><trkpt lat="34.4255068" lon="8.2086238"><ele>473.0</ele><time>2026-04-30T18:07:58.718Z</time></trkpt><trkpt lat="34.4256884" lon="8.2087188"><ele>472.0</ele><time>2026-04-30T18:07:59.717Z</time></trkpt><trkpt lat="34.4258644" lon="8.2088134"><ele>471.0</ele><time>2026-04-30T18:08:00.709Z</time></trkpt><trkpt lat="34.4260429" lon="8.2089102"><ele>471.33333333333337</ele><time>2026-04-30T18:08:01.73Z</time></trkpt><trkpt lat="34.4262225" lon="8.2090021"><ele>471.6666666666667</ele><time>2026-04-30T18:08:02.718Z</time></trkpt><trkpt lat="34.4264012" lon="8.2090953"><ele>472.0</ele><time>2026-04-30T18:08:03.723Z</time></trkpt><trkpt lat="34.4265837" lon="8.2091899"><ele>472.0</ele><time>2026-04-30T18:08:04.722Z</time></trkpt><trkpt lat="34.4267628" lon="8.2092879"><ele>472.0</ele><time>2026-04-30T18:08:05.701Z</time></trkpt><trkpt lat="34.4269414" lon="8.2093827"><ele>472.0</ele><time>2026-04-30T18:08:06.714Z</time></trkpt><trkpt lat="34.4271167" lon="8.2094753"><ele>471.33333333333337</ele><time>2026-04-30T18:08:07.727Z</time></trkpt><trkpt lat="34.4272972" lon="8.209572"><ele>470.66666666666663</ele><time>2026-04-30T18:08:08.728Z</time></trkpt><trkpt lat="34.4274757" lon="8.2096619"><ele>470.0</ele><time>2026-04-30T18:08:09.723Z</time></trkpt><trkpt lat="34.4276524" lon="8.209759"><ele>469.0</ele><time>2026-04-30T18:08:10.717Z</time></trkpt><trkpt lat="34.4278266" lon="8.2098494"><ele>468.0</ele><time>2026-04-30T18:08:11.728Z</time></trkpt><trkpt lat="34.4280068" lon="8.209942"><ele>467.0</ele><time>2026-04-30T18:08:12.722Z</time></trkpt><trkpt lat="34.4281859" lon="8.2100374"><ele>466.0</ele><time>2026-04-30T18:08:13.714Z</time></trkpt><trkpt lat="34.4283655" lon="8.2101315"><ele>465.0</ele><time>2026-04-30T18:08:14.711Z</time></trkpt><trkpt lat="34.4285449" lon="8.210227"><ele>464.0</ele><time>2026-04-30T18:08:15.72Z</time></trkpt><trkpt lat="34.4287188" lon="8.2103156"><ele>464.0</ele><time>2026-04-30T18:08:16.731Z</time></trkpt><trkpt lat="34.4288976" lon="8.2104125"><ele>464.0</ele><time>2026-04-30T18:08:17.726Z</time></trkpt><trkpt lat="34.4290742" lon="8.2105078"><ele>464.0</ele><time>2026-04-30T18:08:18.718Z</time></trkpt><trkpt lat="34.4292533" lon="8.2106049"><ele>463.66666666666663</ele><time>2026-04-30T18:08:19.723Z</time></trkpt><trkpt lat="34.4294341" lon="8.2106999"><ele>463.33333333333337</ele><time>2026-04-30T18:08:20.724Z</time></trkpt><trkpt lat="34.4296134" lon="8.2107948"><ele>463.0</ele><time>2026-04-30T18:08:21.753Z</time></trkpt><trkpt lat="34.4297913" lon="8.210892"><ele>462.6666666666667</ele><time>2026-04-30T18:08:22.715Z</time></trkpt><trkpt lat="34.4299681" lon="8.2109879"><ele>462.33333333333337</ele><time>2026-04-30T18:08:23.72Z</time></trkpt><trkpt lat="34.4301454" lon="8.2110833"><ele>462.0</ele><time>2026-04-30T18:08:24.724Z</time></trkpt><trkpt lat="34.4303251" lon="8.2111801"><ele>461.0</ele><time>2026-04-30T18:08:25.705Z</time></trkpt><trkpt lat="34.4305039" lon="8.2112717"><ele>460.0</ele><time>2026-04-30T18:08:26.716Z</time></trkpt><trkpt lat="34.4306844" lon="8.211364"><ele>459.0</ele><time>2026-04-30T18:08:27.751Z</time></trkpt><trkpt lat="34.4308617" lon="8.2114608"><ele>459.0</ele><time>2026-04-30T18:08:28.72Z</time></trkpt><trkpt lat="34.4310385" lon="8.2115592"><ele>459.0</ele><time>2026-04-30T18:08:29.728Z</time></trkpt><trkpt lat="34.4312191" lon="8.2116536"><ele>459.0</ele><time>2026-04-30T18:08:30.723Z</time></trkpt><trkpt lat="34.4313963" lon="8.2117471"><ele>459.0</ele><time>2026-04-30T18:08:31.728Z</time></trkpt><trkpt lat="34.4315775" lon="8.2118427"><ele>459.0</ele><time>2026-04-30T18:08:32.735Z</time></trkpt><trkpt lat="34.4317542" lon="8.2119375"><ele>459.0</ele><time>2026-04-30T18:08:33.752Z</time></trkpt><trkpt lat="34.4319346" lon="8.2120323"><ele>459.0</ele><time>2026-04-30T18:08:34.736Z</time></trkpt><trkpt lat="34.4321143" lon="8.2121254"><ele>459.0</ele><time>2026-04-30T18:08:35.736Z</time></trkpt><trkpt lat="34.432294" lon="8.2122236"><ele>459.0</ele><time>2026-04-30T18:08:36.721Z</time></trkpt><trkpt lat="34.4324725" lon="8.2123205"><ele>458.33333333333337</ele><time>2026-04-30T18:08:37.746Z</time></trkpt><trkpt lat="34.4326502" lon="8.2124177"><ele>457.6666666666667</ele><time>2026-04-30T18:08:38.728Z</time></trkpt><trkpt lat="34.4328285" lon="8.2125142"><ele>457.0</ele><time>2026-04-30T18:08:39.73Z</time></trkpt><trkpt lat="34.4330055" lon="8.2126111"><ele>456.0</ele><time>2026-04-30T18:08:40.729Z</time></trkpt><trkpt lat="34.4331838" lon="8.2127082"><ele>455.0</ele><time>2026-04-30T18:08:41.728Z</time></trkpt><trkpt lat="34.433364" lon="8.212801"><ele>454.0</ele><time>2026-04-30T18:08:42.694Z</time></trkpt><trkpt lat="34.4335396" lon="8.2129013"><ele>454.0</ele><time>2026-04-30T18:08:43.721Z</time></trkpt><trkpt lat="34.4337194" lon="8.2129937"><ele>454.0</ele><time>2026-04-30T18:08:44.714Z</time></trkpt><trkpt lat="34.4338967" lon="8.213091"><ele>454.0</ele><time>2026-04-30T18:08:45.696Z</time></trkpt><trkpt lat="34.4340751" lon="8.2131802"><ele>453.33333333333337</ele><time>2026-04-30T18:08:46.72Z</time></trkpt><trkpt lat="34.4342518" lon="8.2132738"><ele>452.66666666666663</ele><time>2026-04-30T18:08:47.713Z</time></trkpt><trkpt lat="34.4344311" lon="8.2133663"><ele>452.0</ele><time>2026-04-30T18:08:48.729Z</time></trkpt><trkpt lat="34.4346098" lon="8.2134594"><ele>451.66666666666663</ele><time>2026-04-30T18:08:49.688Z</time></trkpt><trkpt lat="34.4347888" lon="8.21355"><ele>451.33333333333337</ele><time>2026-04-30T18:08:50.709Z</time></trkpt><trkpt lat="34.4349711" lon="8.2136469"><ele>451.0</ele><time>2026-04-30T18:08:51.712Z</time></trkpt><trkpt lat="34.4351537" lon="8.2137438"><ele>451.0</ele><time>2026-04-30T18:08:52.725Z</time></trkpt><trkpt lat="34.4353329" lon="8.2138356"><ele>451.0</ele><time>2026-04-30T18:08:53.721Z</time></trkpt><trkpt lat="34.435511" lon="8.2139276"><ele>451.0</ele><time>2026-04-30T18:08:54.728Z</time></trkpt><trkpt lat="34.4356911" lon="8.2140268"><ele>450.0</ele><time>2026-04-30T18:08:55.733Z</time></trkpt><trkpt lat="34.435875" lon="8.2141253"><ele>449.0</ele><time>2026-04-30T18:08:56.717Z</time></trkpt><trkpt lat="34.4360598" lon="8.2142245"><ele>448.0</ele><time>2026-04-30T18:08:57.706Z</time></trkpt><trkpt lat="34.4362472" lon="8.2143246"><ele>447.33333333333337</ele><time>2026-04-30T18:08:58.723Z</time></trkpt><trkpt lat="34.4364369" lon="8.2144239"><ele>446.66666666666663</ele><time>2026-04-30T18:08:59.732Z</time></trkpt><trkpt lat="34.4366196" lon="8.2145197"><ele>446.0</ele><time>2026-04-30T18:09:00.727Z</time></trkpt><trkpt lat="34.4368019" lon="8.2146182"><ele>446.0</ele><time>2026-04-30T18:09:01.718Z</time></trkpt><trkpt lat="34.4369839" lon="8.2147139"><ele>446.0</ele><time>2026-04-30T18:09:02.728Z</time></trkpt><trkpt lat="34.4371737" lon="8.2148108"><ele>446.0</ele><time>2026-04-30T18:09:03.711Z</time></trkpt><trkpt lat="34.4373594" lon="8.2149133"><ele>445.3333333333333</ele><time>2026-04-30T18:09:04.732Z</time></trkpt><trkpt lat="34.4375421" lon="8.2150118"><ele>444.66666666666663</ele><time>2026-04-30T18:09:05.741Z</time></trkpt><trkpt lat="34.4377269" lon="8.2151128"><ele>444.0</ele><time>2026-04-30T18:09:06.708Z</time></trkpt><trkpt lat="34.4379115" lon="8.2152139"><ele>444.0</ele><time>2026-04-30T18:09:07.723Z</time></trkpt><trkpt lat="34.4380985" lon="8.2153113"><ele>444.0</ele><time>2026-04-30T18:09:08.741Z</time></trkpt><trkpt lat="34.4382844" lon="8.215411"><ele>444.0</ele><time>2026-04-30T18:09:09.752Z</time></trkpt><trkpt lat="34.438468" lon="8.2155065"><ele>444.0</ele><time>2026-04-30T18:09:10.699Z</time></trkpt><trkpt lat="34.4386537" lon="8.2155995"><ele>444.0</ele><time>2026-04-30T18:09:11.737Z</time></trkpt><trkpt lat="34.4388369" lon="8.2157005"><ele>444.0</ele><time>2026-04-30T18:09:12.728Z</time></trkpt><trkpt lat="34.4390174" lon="8.2157982"><ele>443.66666666666663</ele><time>2026-04-30T18:09:13.722Z</time></trkpt><trkpt lat="34.4391988" lon="8.2158979"><ele>443.3333333333333</ele><time>2026-04-30T18:09:14.729Z</time></trkpt><trkpt lat="34.4393785" lon="8.215993"><ele>443.0</ele><time>2026-04-30T18:09:15.723Z</time></trkpt><trkpt lat="34.4395596" lon="8.2160839"><ele>442.3333333333333</ele><time>2026-04-30T18:09:16.695Z</time></trkpt><trkpt lat="34.4397418" lon="8.21618"><ele>441.66666666666663</ele><time>2026-04-30T18:09:17.753Z</time></trkpt><trkpt lat="34.4399266" lon="8.2162731"><ele>441.0</ele><time>2026-04-30T18:09:18.741Z</time></trkpt><trkpt lat="34.4401074" lon="8.2163684"><ele>441.0</ele><time>2026-04-30T18:09:19.739Z</time></trkpt><trkpt lat="34.4402891" lon="8.216465"><ele>441.0</ele><time>2026-04-30T18:09:20.74Z</time></trkpt><trkpt lat="34.4404723" lon="8.2165605"><ele>441.0</ele><time>2026-04-30T18:09:21.694Z</time></trkpt><trkpt lat="34.4406534" lon="8.216658"><ele>441.66666666666663</ele><time>2026-04-30T18:09:22.691Z</time></trkpt><trkpt lat="34.4408413" lon="8.216756"><ele>442.3333333333333</ele><time>2026-04-30T18:09:23.721Z</time></trkpt><trkpt lat="34.4410279" lon="8.2168516"><ele>443.0</ele><time>2026-04-30T18:09:24.693Z</time></trkpt><trkpt lat="34.4412134" lon="8.2169512"><ele>442.66666666666663</ele><time>2026-04-30T18:09:25.719Z</time></trkpt><trkpt lat="34.441399" lon="8.2170538"><ele>442.33333333333337</ele><time>2026-04-30T18:09:26.718Z</time></trkpt><trkpt lat="34.4415839" lon="8.2171539"><ele>442.0</ele><time>2026-04-30T18:09:27.726Z</time></trkpt><trkpt lat="34.4417669" lon="8.2172517"><ele>441.6666666666667</ele><time>2026-04-30T18:09:28.733Z</time></trkpt><trkpt lat="34.4419479" lon="8.217345"><ele>441.33333333333337</ele><time>2026-04-30T18:09:29.735Z</time></trkpt><trkpt lat="34.4421334" lon="8.2174422"><ele>441.0</ele><time>2026-04-30T18:09:30.738Z</time></trkpt><trkpt lat="34.442322" lon="8.2175441"><ele>441.66666666666663</ele><time>2026-04-30T18:09:31.746Z</time></trkpt><trkpt lat="34.4425097" lon="8.2176482"><ele>442.3333333333333</ele><time>2026-04-30T18:09:32.714Z</time></trkpt><trkpt lat="34.4426937" lon="8.2177552"><ele>443.0</ele><time>2026-04-30T18:09:33.696Z</time></trkpt><trkpt lat="34.4428823" lon="8.2178536"><ele>443.0</ele><time>2026-04-30T18:09:34.747Z</time></trkpt><trkpt lat="34.4430707" lon="8.2179565"><ele>443.0</ele><time>2026-04-30T18:09:35.742Z</time></trkpt><trkpt lat="34.4432558" lon="8.2180564"><ele>443.0</ele><time>2026-04-30T18:09:36.744Z</time></trkpt><trkpt lat="34.4434437" lon="8.2181572"><ele>443.0</ele><time>2026-04-30T18:09:37.74Z</time></trkpt><trkpt lat="34.4436296" lon="8.2182598"><ele>443.0</ele><time>2026-04-30T18:09:38.715Z</time></trkpt><trkpt lat="34.4438147" lon="8.2183623"><ele>443.0</ele><time>2026-04-30T18:09:39.727Z</time></trkpt><trkpt lat="34.4440026" lon="8.2184656"><ele>442.66666666666663</ele><time>2026-04-30T18:09:40.735Z</time></trkpt><trkpt lat="34.4441905" lon="8.2185785"><ele>442.33333333333337</ele><time>2026-04-30T18:09:41.734Z</time></trkpt><trkpt lat="34.4443798" lon="8.2187025"><ele>442.0</ele><time>2026-04-30T18:09:42.717Z</time></trkpt><trkpt lat="34.4445739" lon="8.2188402"><ele>439.5</ele><time>2026-04-30T18:09:43.738Z</time></trkpt><trkpt lat="34.444771" lon="8.2189779"><ele>437.0</ele><time>2026-04-30T18:09:44.737Z</time></trkpt><trkpt lat="34.4449641" lon="8.2191153"><ele>436.5</ele><time>2026-04-30T18:09:45.716Z</time></trkpt><trkpt lat="34.4451609" lon="8.2192527"><ele>436.0</ele><time>2026-04-30T18:09:46.722Z</time></trkpt><trkpt lat="34.4453603" lon="8.2193988"><ele>435.0</ele><time>2026-04-30T18:09:47.712Z</time></trkpt><trkpt lat="34.44556" lon="8.2195478"><ele>434.0</ele><time>2026-04-30T18:09:48.742Z</time></trkpt><trkpt lat="34.4457597" lon="8.2196957"><ele>433.0</ele><time>2026-04-30T18:09:49.747Z</time></trkpt><trkpt lat="34.4459591" lon="8.2198425"><ele>432.0</ele><time>2026-04-30T18:09:50.738Z</time></trkpt><trkpt lat="34.4461599" lon="8.2199918"><ele>431.5</ele><time>2026-04-30T18:09:51.716Z</time></trkpt><trkpt lat="34.4463575" lon="8.2201386"><ele>431.0</ele><time>2026-04-30T18:09:52.712Z</time></trkpt><trkpt lat="34.4465562" lon="8.2202873"><ele>431.0</ele><time>2026-04-30T18:09:53.748Z</time></trkpt><trkpt lat="34.4467515" lon="8.2204332"><ele>431.0</ele><time>2026-04-30T18:09:54.715Z</time></trkpt><trkpt lat="34.4469484" lon="8.220583"><ele>430.0</ele><time>2026-04-30T18:09:55.744Z</time></trkpt><trkpt lat="34.447149" lon="8.2207281"><ele>429.0</ele><time>2026-04-30T18:09:56.749Z</time></trkpt><trkpt lat="34.4473468" lon="8.2208771"><ele>429.0</ele><time>2026-04-30T18:09:57.718Z</time></trkpt><trkpt lat="34.447546" lon="8.2210218"><ele>429.0</ele><time>2026-04-30T18:09:58.744Z</time></trkpt><trkpt lat="34.4477477" lon="8.2211666"><ele>429.0</ele><time>2026-04-30T18:09:59.747Z</time></trkpt><trkpt lat="34.4479437" lon="8.2213155"><ele>429.0</ele><time>2026-04-30T18:10:00.746Z</time></trkpt><trkpt lat="34.4481415" lon="8.2214621"><ele>428.0</ele><time>2026-04-30T18:10:01.741Z</time></trkpt><trkpt lat="34.4483378" lon="8.2216072"><ele>427.0</ele><time>2026-04-30T18:10:02.737Z</time></trkpt><trkpt lat="34.4485382" lon="8.2217526"><ele>427.0</ele><time>2026-04-30T18:10:03.75Z</time></trkpt><trkpt lat="34.4487379" lon="8.2219005"><ele>427.0</ele><time>2026-04-30T18:10:04.739Z</time></trkpt><trkpt lat="34.4489381" lon="8.2220491"><ele>427.5</ele><time>2026-04-30T18:10:05.746Z</time></trkpt><trkpt lat="34.4491377" lon="8.2222026"><ele>428.0</ele><time>2026-04-30T18:10:06.722Z</time></trkpt><trkpt lat="34.4493368" lon="8.2223476"><ele>427.5</ele><time>2026-04-30T18:10:07.739Z</time></trkpt><trkpt lat="34.4495351" lon="8.222494"><ele>427.0</ele><time>2026-04-30T18:10:08.758Z</time></trkpt><trkpt lat="34.4497321" lon="8.2226438"><ele>427.0</ele><time>2026-04-30T18:10:09.747Z</time></trkpt><trkpt lat="34.4499285" lon="8.2227886"><ele>427.0</ele><time>2026-04-30T18:10:10.759Z</time></trkpt><trkpt lat="34.4501177" lon="8.2229263"><ele>427.0</ele><time>2026-04-30T18:10:11.742Z</time></trkpt><trkpt lat="34.4502911" lon="8.223055"><ele>427.0</ele><time>2026-04-30T18:10:12.737Z</time></trkpt><trkpt lat="34.4504588" lon="8.2231788"><ele>427.0</ele><time>2026-04-30T18:10:13.734Z</time></trkpt><trkpt lat="34.4506226" lon="8.2233005"><ele>427.6666666666667</ele><time>2026-04-30T18:10:14.741Z</time></trkpt><trkpt lat="34.4507893" lon="8.2234144"><ele>428.33333333333337</ele><time>2026-04-30T18:10:15.704Z</time></trkpt><trkpt lat="34.4509574" lon="8.223538"><ele>429.0</ele><time>2026-04-30T18:10:16.697Z</time></trkpt><trkpt lat="34.4511282" lon="8.2236652"><ele>429.66666666666663</ele><time>2026-04-30T18:10:17.738Z</time></trkpt><trkpt lat="34.4513032" lon="8.223795"><ele>430.3333333333333</ele><time>2026-04-30T18:10:18.732Z</time></trkpt><trkpt lat="34.4514751" lon="8.2239267"><ele>431.0</ele><time>2026-04-30T18:10:19.74Z</time></trkpt><trkpt lat="34.4516441" lon="8.2240551"><ele>431.0</ele><time>2026-04-30T18:10:20.748Z</time></trkpt><trkpt lat="34.4518098" lon="8.2241773"><ele>431.0</ele><time>2026-04-30T18:10:21.714Z</time></trkpt><trkpt lat="34.4519698" lon="8.2242979"><ele>431.0</ele><time>2026-04-30T18:10:22.73Z</time></trkpt><trkpt lat="34.452124" lon="8.2244149"><ele>430.66666666666663</ele><time>2026-04-30T18:10:23.76Z</time></trkpt><trkpt lat="34.4522724" lon="8.2245247"><ele>430.33333333333337</ele><time>2026-04-30T18:10:24.727Z</time></trkpt><trkpt lat="34.4524182" lon="8.2246384"><ele>430.0</ele><time>2026-04-30T18:10:25.738Z</time></trkpt><trkpt lat="34.452564" lon="8.2247433"><ele>429.6666666666667</ele><time>2026-04-30T18:10:26.714Z</time></trkpt><trkpt lat="34.4527125" lon="8.2248524"><ele>429.33333333333337</ele><time>2026-04-30T18:10:27.736Z</time></trkpt><trkpt lat="34.4528683" lon="8.2249632"><ele>429.0</ele><time>2026-04-30T18:10:28.737Z</time></trkpt><trkpt lat="34.4530288" lon="8.2250707"><ele>429.0</ele><time>2026-04-30T18:10:29.737Z</time></trkpt><trkpt lat="34.4531944" lon="8.2251777"><ele>429.0</ele><time>2026-04-30T18:10:30.744Z</time></trkpt><trkpt lat="34.4533652" lon="8.225282"><ele>429.0</ele><time>2026-04-30T18:10:31.718Z</time></trkpt><trkpt lat="34.453532" lon="8.2253773"><ele>429.0</ele><time>2026-04-30T18:10:32.736Z</time></trkpt><trkpt lat="34.4537035" lon="8.2254646"><ele>429.0</ele><time>2026-04-30T18:10:33.74Z</time></trkpt><trkpt lat="34.4538717" lon="8.2255412"><ele>429.0</ele><time>2026-04-30T18:10:34.72Z</time></trkpt><trkpt lat="34.4540478" lon="8.225613"><ele>429.33333333333337</ele><time>2026-04-30T18:10:35.762Z</time></trkpt><trkpt lat="34.4542212" lon="8.2256774"><ele>429.6666666666667</ele><time>2026-04-30T18:10:36.708Z</time></trkpt><trkpt lat="34.4543998" lon="8.2257306"><ele>430.0</ele><time>2026-04-30T18:10:37.737Z</time></trkpt><trkpt lat="34.4545813" lon="8.2257765"><ele>431.0</ele><time>2026-04-30T18:10:38.733Z</time></trkpt><trkpt lat="34.4547619" lon="8.2258186"><ele>432.0</ele><time>2026-04-30T18:10:39.735Z</time></trkpt><trkpt lat="34.454941" lon="8.2258577"><ele>433.0</ele><time>2026-04-30T18:10:40.749Z</time></trkpt><trkpt lat="34.455124" lon="8.2258953"><ele>433.0</ele><time>2026-04-30T18:10:41.739Z</time></trkpt><trkpt lat="34.455307" lon="8.2259294"><ele>433.0</ele><time>2026-04-30T18:10:42.756Z</time></trkpt><trkpt lat="34.4554906" lon="8.2259687"><ele>433.0</ele><time>2026-04-30T18:10:43.726Z</time></trkpt><trkpt lat="34.4556749" lon="8.2260101"><ele>434.6666666666667</ele><time>2026-04-30T18:10:44.737Z</time></trkpt><trkpt lat="34.4558537" lon="8.2260556"><ele>436.33333333333337</ele><time>2026-04-30T18:10:45.722Z</time></trkpt><trkpt lat="34.4560332" lon="8.2261089"><ele>438.0</ele><time>2026-04-30T18:10:46.744Z</time></trkpt><trkpt lat="34.4562095" lon="8.2261717"><ele>437.66666666666663</ele><time>2026-04-30T18:10:47.802Z</time></trkpt><trkpt lat="34.4563872" lon="8.2262381"><ele>437.3333333333333</ele><time>2026-04-30T18:10:48.741Z</time></trkpt><trkpt lat="34.4565624" lon="8.22631"><ele>437.0</ele><time>2026-04-30T18:10:49.755Z</time></trkpt><trkpt lat="34.4567355" lon="8.2263942"><ele>436.66666666666663</ele><time>2026-04-30T18:10:50.74Z</time></trkpt><trkpt lat="34.4569007" lon="8.2264853"><ele>436.33333333333337</ele><time>2026-04-30T18:10:51.742Z</time></trkpt><trkpt lat="34.457065" lon="8.2265878"><ele>436.0</ele><time>2026-04-30T18:10:52.755Z</time></trkpt><trkpt lat="34.457231" lon="8.2266925"><ele>437.0</ele><time>2026-04-30T18:10:53.752Z</time></trkpt><trkpt lat="34.4573959" lon="8.2268059"><ele>438.0</ele><time>2026-04-30T18:10:54.709Z</time></trkpt><trkpt lat="34.4575525" lon="8.2269238"><ele>439.0</ele><time>2026-04-30T18:10:55.754Z</time></trkpt><trkpt lat="34.4577034" lon="8.2270469"><ele>439.0</ele><time>2026-04-30T18:10:56.698Z</time></trkpt><trkpt lat="34.4578513" lon="8.2271832"><ele>439.0</ele><time>2026-04-30T18:10:57.753Z</time></trkpt><trkpt lat="34.4579958" lon="8.2273206"><ele>439.0</ele><time>2026-04-30T18:10:58.749Z</time></trkpt><trkpt lat="34.4581418" lon="8.2274609"><ele>438.6666666666667</ele><time>2026-04-30T18:10:59.726Z</time></trkpt><trkpt lat="34.4582866" lon="8.227607"><ele>438.33333333333337</ele><time>2026-04-30T18:11:00.745Z</time></trkpt><trkpt lat="34.4584283" lon="8.227752"><ele>438.0</ele><time>2026-04-30T18:11:01.743Z</time></trkpt><trkpt lat="34.458567" lon="8.2279062"><ele>438.0</ele><time>2026-04-30T18:11:02.751Z</time></trkpt><trkpt lat="34.4587016" lon="8.2280622"><ele>438.0</ele><time>2026-04-30T18:11:03.703Z</time></trkpt><trkpt lat="34.4588279" lon="8.2282244"><ele>438.0</ele><time>2026-04-30T18:11:04.736Z</time></trkpt><trkpt lat="34.4589482" lon="8.2283926"><ele>438.0</ele><time>2026-04-30T18:11:05.713Z</time></trkpt><trkpt lat="34.4590599" lon="8.2285706"><ele>438.0</ele><time>2026-04-30T18:11:06.739Z</time></trkpt><trkpt lat="34.4591612" lon="8.2287579"><ele>438.0</ele><time>2026-04-30T18:11:07.736Z</time></trkpt><trkpt lat="34.4592598" lon="8.228953"><ele>439.0</ele><time>2026-04-30T18:11:08.741Z</time></trkpt><trkpt lat="34.4593512" lon="8.2291484"><ele>440.0</ele><time>2026-04-30T18:11:09.898Z</time></trkpt><trkpt lat="34.4594323" lon="8.2293487"><ele>441.0</ele><time>2026-04-30T18:11:10.803Z</time></trkpt><trkpt lat="34.4595075" lon="8.2295493"><ele>441.0</ele><time>2026-04-30T18:11:11.79Z</time></trkpt><trkpt lat="34.4595737" lon="8.2297627"><ele>441.0</ele><time>2026-04-30T18:11:12.811Z</time></trkpt><trkpt lat="34.4596337" lon="8.2299723"><ele>441.0</ele><time>2026-04-30T18:11:13.802Z</time></trkpt><trkpt lat="34.4596843" lon="8.2301885"><ele>441.0</ele><time>2026-04-30T18:11:14.792Z</time></trkpt><trkpt lat="34.4597277" lon="8.2304114"><ele>441.0</ele><time>2026-04-30T18:11:15.816Z</time></trkpt><trkpt lat="34.4597711" lon="8.2306373"><ele>441.0</ele><time>2026-04-30T18:11:16.791Z</time></trkpt><trkpt lat="34.4598149" lon="8.2308618"><ele>440.66666666666663</ele><time>2026-04-30T18:11:17.81Z</time></trkpt><trkpt lat="34.4598583" lon="8.2310843"><ele>440.3333333333333</ele><time>2026-04-30T18:11:18.808Z</time></trkpt><trkpt lat="34.4599042" lon="8.2313118"><ele>440.0</ele><time>2026-04-30T18:11:19.799Z</time></trkpt><trkpt lat="34.4599573" lon="8.2315334"><ele>439.66666666666663</ele><time>2026-04-30T18:11:20.815Z</time></trkpt><trkpt lat="34.4600088" lon="8.2317535"><ele>439.33333333333337</ele><time>2026-04-30T18:11:21.816Z</time></trkpt><trkpt lat="34.4600714" lon="8.2319778"><ele>439.0</ele><time>2026-04-30T18:11:22.783Z</time></trkpt><trkpt lat="34.4601382" lon="8.2322099"><ele>437.6666666666667</ele><time>2026-04-30T18:11:23.827Z</time></trkpt><trkpt lat="34.4602067" lon="8.2324402"><ele>436.33333333333337</ele><time>2026-04-30T18:11:24.822Z</time></trkpt><trkpt lat="34.4602808" lon="8.2326648"><ele>435.0</ele><time>2026-04-30T18:11:25.814Z</time></trkpt><trkpt lat="34.4603558" lon="8.2328873"><ele>435.0</ele><time>2026-04-30T18:11:26.802Z</time></trkpt><trkpt lat="34.4604343" lon="8.2331053"><ele>435.0</ele><time>2026-04-30T18:11:27.829Z</time></trkpt><trkpt lat="34.4605135" lon="8.2333204"><ele>435.0</ele><time>2026-04-30T18:11:28.827Z</time></trkpt><trkpt lat="34.460592" lon="8.2335264"><ele>435.0</ele><time>2026-04-30T18:11:29.823Z</time></trkpt><trkpt lat="34.460668" lon="8.2337338"><ele>435.0</ele><time>2026-04-30T18:11:30.825Z</time></trkpt><trkpt lat="34.4607429" lon="8.233943"><ele>435.0</ele><time>2026-04-30T18:11:31.787Z</time></trkpt><trkpt lat="34.4608132" lon="8.2341554"><ele>434.66666666666663</ele><time>2026-04-30T18:11:32.819Z</time></trkpt><trkpt lat="34.4608817" lon="8.2343664"><ele>434.3333333333333</ele><time>2026-04-30T18:11:33.783Z</time></trkpt><trkpt lat="34.4609577" lon="8.2345807"><ele>434.0</ele><time>2026-04-30T18:11:34.816Z</time></trkpt><trkpt lat="34.4610385" lon="8.2348048"><ele>433.66666666666663</ele><time>2026-04-30T18:11:35.815Z</time></trkpt><trkpt lat="34.4611166" lon="8.2350236"><ele>433.33333333333337</ele><time>2026-04-30T18:11:36.839Z</time></trkpt><trkpt lat="34.4611987" lon="8.2352431"><ele>433.0</ele><time>2026-04-30T18:11:37.829Z</time></trkpt><trkpt lat="34.4612825" lon="8.2354699"><ele>432.33333333333337</ele><time>2026-04-30T18:11:38.819Z</time></trkpt><trkpt lat="34.4613536" lon="8.2356842"><ele>431.66666666666663</ele><time>2026-04-30T18:11:39.821Z</time></trkpt><trkpt lat="34.4614334" lon="8.2359104"><ele>431.0</ele><time>2026-04-30T18:11:40.825Z</time></trkpt><trkpt lat="34.4615126" lon="8.2361353"><ele>431.0</ele><time>2026-04-30T18:11:41.826Z</time></trkpt><trkpt lat="34.4615902" lon="8.2363617"><ele>431.0</ele><time>2026-04-30T18:11:42.816Z</time></trkpt><trkpt lat="34.4616683" lon="8.2365821"><ele>431.0</ele><time>2026-04-30T18:11:43.819Z</time></trkpt><trkpt lat="34.4617434" lon="8.2367973"><ele>430.3333333333333</ele><time>2026-04-30T18:11:44.795Z</time></trkpt><trkpt lat="34.4618202" lon="8.2370062"><ele>429.66666666666663</ele><time>2026-04-30T18:11:45.825Z</time></trkpt><trkpt lat="34.4618996" lon="8.2372107"><ele>429.0</ele><time>2026-04-30T18:11:46.779Z</time></trkpt><trkpt lat="34.4619832" lon="8.2374153"><ele>428.0</ele><time>2026-04-30T18:11:47.827Z</time></trkpt><trkpt lat="34.4620737" lon="8.2376161"><ele>427.0</ele><time>2026-04-30T18:11:48.821Z</time></trkpt><trkpt lat="34.4621713" lon="8.2378145"><ele>426.0</ele><time>2026-04-30T18:11:49.813Z</time></trkpt><trkpt lat="34.4622769" lon="8.2380075"><ele>426.66666666666663</ele><time>2026-04-30T18:11:50.828Z</time></trkpt><trkpt lat="34.4623874" lon="8.2381961"><ele>427.3333333333333</ele><time>2026-04-30T18:11:51.813Z</time></trkpt><trkpt lat="34.4625009" lon="8.2383799"><ele>428.0</ele><time>2026-04-30T18:11:52.835Z</time></trkpt><trkpt lat="34.4626207" lon="8.2385581"><ele>428.0</ele><time>2026-04-30T18:11:53.829Z</time></trkpt><trkpt lat="34.4627473" lon="8.2387301"><ele>428.0</ele><time>2026-04-30T18:11:54.801Z</time></trkpt><trkpt lat="34.4628794" lon="8.2388968"><ele>428.0</ele><time>2026-04-30T18:11:55.826Z</time></trkpt><trkpt lat="34.4630155" lon="8.2390589"><ele>427.3333333333333</ele><time>2026-04-30T18:11:56.838Z</time></trkpt><trkpt lat="34.4631547" lon="8.2392196"><ele>426.66666666666663</ele><time>2026-04-30T18:11:57.831Z</time></trkpt><trkpt lat="34.4632986" lon="8.2393765"><ele>426.0</ele><time>2026-04-30T18:11:58.828Z</time></trkpt><trkpt lat="34.4634456" lon="8.2395317"><ele>426.0</ele><time>2026-04-30T18:11:59.806Z</time></trkpt><trkpt lat="34.4635942" lon="8.2396857"><ele>426.0</ele><time>2026-04-30T18:12:00.799Z</time></trkpt><trkpt lat="34.4637438" lon="8.2398395"><ele>426.0</ele><time>2026-04-30T18:12:01.821Z</time></trkpt><trkpt lat="34.4638928" lon="8.2399923"><ele>424.33333333333337</ele><time>2026-04-30T18:12:02.819Z</time></trkpt><trkpt lat="34.4640444" lon="8.2401433"><ele>422.6666666666667</ele><time>2026-04-30T18:12:03.788Z</time></trkpt><trkpt lat="34.4641944" lon="8.2402941"><ele>421.0</ele><time>2026-04-30T18:12:04.797Z</time></trkpt><trkpt lat="34.4643455" lon="8.2404489"><ele>421.0</ele><time>2026-04-30T18:12:05.83Z</time></trkpt><trkpt lat="34.4644986" lon="8.2406019"><ele>421.0</ele><time>2026-04-30T18:12:06.822Z</time></trkpt><trkpt lat="34.4646512" lon="8.2407555"><ele>421.0</ele><time>2026-04-30T18:12:07.818Z</time></trkpt><trkpt lat="34.4648041" lon="8.2409075"><ele>420.0</ele><time>2026-04-30T18:12:08.815Z</time></trkpt><trkpt lat="34.4649575" lon="8.241059"><ele>419.0</ele><time>2026-04-30T18:12:09.821Z</time></trkpt><trkpt lat="34.4651109" lon="8.2412102"><ele>418.0</ele><time>2026-04-30T18:12:10.839Z</time></trkpt><trkpt lat="34.4652624" lon="8.2413631"><ele>417.33333333333337</ele><time>2026-04-30T18:12:11.79Z</time></trkpt><trkpt lat="34.4654121" lon="8.2415162"><ele>416.66666666666663</ele><time>2026-04-30T18:12:12.83Z</time></trkpt><trkpt lat="34.4655616" lon="8.2416702"><ele>416.0</ele><time>2026-04-30T18:12:13.825Z</time></trkpt><trkpt lat="34.465711" lon="8.2418232"><ele>416.0</ele><time>2026-04-30T18:12:14.78Z</time></trkpt><trkpt lat="34.4658618" lon="8.2419764"><ele>416.0</ele><time>2026-04-30T18:12:15.832Z</time></trkpt><trkpt lat="34.4660124" lon="8.2421294"><ele>416.0</ele><time>2026-04-30T18:12:16.83Z</time></trkpt><trkpt lat="34.4661623" lon="8.2422842"><ele>416.66666666666663</ele><time>2026-04-30T18:12:17.829Z</time></trkpt><trkpt lat="34.466314" lon="8.2424363"><ele>417.33333333333337</ele><time>2026-04-30T18:12:18.798Z</time></trkpt><trkpt lat="34.4664672" lon="8.2425874"><ele>418.0</ele><time>2026-04-30T18:12:19.812Z</time></trkpt><trkpt lat="34.4666204" lon="8.242738"><ele>418.0</ele><time>2026-04-30T18:12:20.785Z</time></trkpt><trkpt lat="34.466773" lon="8.2428904"><ele>418.0</ele><time>2026-04-30T18:12:21.826Z</time></trkpt><trkpt lat="34.4669248" lon="8.2430393"><ele>418.0</ele><time>2026-04-30T18:12:22.817Z</time></trkpt><trkpt lat="34.4670774" lon="8.2431921"><ele>418.6666666666667</ele><time>2026-04-30T18:12:23.776Z</time></trkpt><trkpt lat="34.4672221" lon="8.2433393"><ele>419.33333333333337</ele><time>2026-04-30T18:12:24.783Z</time></trkpt><trkpt lat="34.4673591" lon="8.2434795"><ele>420.0</ele><time>2026-04-30T18:12:25.779Z</time></trkpt><trkpt lat="34.4674968" lon="8.2436196"><ele>420.0</ele><time>2026-04-30T18:12:26.79Z</time></trkpt><trkpt lat="34.467631" lon="8.2437564"><ele>420.0</ele><time>2026-04-30T18:12:27.763Z</time></trkpt><trkpt lat="34.4677655" lon="8.2438901"><ele>420.0</ele><time>2026-04-30T18:12:28.772Z</time></trkpt><trkpt lat="34.467898" lon="8.2440205"><ele>420.0</ele><time>2026-04-30T18:12:29.788Z</time></trkpt><trkpt lat="34.468031" lon="8.2441515"><ele>420.0</ele><time>2026-04-30T18:12:30.765Z</time></trkpt><trkpt lat="34.4681622" lon="8.244282"><ele>420.0</ele><time>2026-04-30T18:12:31.767Z</time></trkpt><trkpt lat="34.4682924" lon="8.2444154"><ele>420.0</ele><time>2026-04-30T18:12:32.777Z</time></trkpt><trkpt lat="34.4684243" lon="8.2445466"><ele>420.0</ele><time>2026-04-30T18:12:33.769Z</time></trkpt><trkpt lat="34.4685565" lon="8.2446803"><ele>420.0</ele><time>2026-04-30T18:12:34.777Z</time></trkpt><trkpt lat="34.4686905" lon="8.2448156"><ele>421.33333333333337</ele><time>2026-04-30T18:12:35.791Z</time></trkpt><trkpt lat="34.4688264" lon="8.2449495"><ele>422.6666666666667</ele><time>2026-04-30T18:12:36.814Z</time></trkpt><trkpt lat="34.4689632" lon="8.2450844"><ele>424.0</ele><time>2026-04-30T18:12:37.784Z</time></trkpt><trkpt lat="34.4690999" lon="8.2452201"><ele>424.0</ele><time>2026-04-30T18:12:38.793Z</time></trkpt><trkpt lat="34.4692375" lon="8.2453572"><ele>424.0</ele><time>2026-04-30T18:12:39.789Z</time></trkpt><trkpt lat="34.4693787" lon="8.2454943"><ele>424.0</ele><time>2026-04-30T18:12:40.802Z</time></trkpt><trkpt lat="34.4695213" lon="8.2456309"><ele>424.33333333333337</ele><time>2026-04-30T18:12:41.813Z</time></trkpt><trkpt lat="34.4696642" lon="8.2457661"><ele>424.66666666666663</ele><time>2026-04-30T18:12:42.763Z</time></trkpt><trkpt lat="34.4698077" lon="8.2458997"><ele>425.0</ele><time>2026-04-30T18:12:43.774Z</time></trkpt><trkpt lat="34.4699512" lon="8.2460322"><ele>425.0</ele><time>2026-04-30T18:12:44.766Z</time></trkpt><trkpt lat="34.470092" lon="8.2461658"><ele>425.0</ele><time>2026-04-30T18:12:45.754Z</time></trkpt><trkpt lat="34.4702329" lon="8.2462971"><ele>425.0</ele><time>2026-04-30T18:12:46.76Z</time></trkpt><trkpt lat="34.4703735" lon="8.2464284"><ele>425.3333333333333</ele><time>2026-04-30T18:12:47.784Z</time></trkpt><trkpt lat="34.4705125" lon="8.24656"><ele>425.66666666666663</ele><time>2026-04-30T18:12:48.779Z</time></trkpt><trkpt lat="34.4706532" lon="8.2466892"><ele>426.0</ele><time>2026-04-30T18:12:49.756Z</time></trkpt><trkpt lat="34.4707933" lon="8.2468204"><ele>426.0</ele><time>2026-04-30T18:12:50.807Z</time></trkpt><trkpt lat="34.4709332" lon="8.2469533"><ele>426.0</ele><time>2026-04-30T18:12:51.774Z</time></trkpt><trkpt lat="34.4710743" lon="8.2470878"><ele>426.0</ele><time>2026-04-30T18:12:52.815Z</time></trkpt><trkpt lat="34.4712154" lon="8.2472204"><ele>426.33333333333337</ele><time>2026-04-30T18:12:53.807Z</time></trkpt><trkpt lat="34.4713548" lon="8.2473538"><ele>426.6666666666667</ele><time>2026-04-30T18:12:54.823Z</time></trkpt><trkpt lat="34.4714964" lon="8.2474874"><ele>427.0</ele><time>2026-04-30T18:12:55.753Z</time></trkpt><trkpt lat="34.4716371" lon="8.2476196"><ele>427.0</ele><time>2026-04-30T18:12:56.775Z</time></trkpt><trkpt lat="34.4717765" lon="8.2477507"><ele>427.0</ele><time>2026-04-30T18:12:57.791Z</time></trkpt><trkpt lat="34.4719177" lon="8.2478854"><ele>427.0</ele><time>2026-04-30T18:12:58.831Z</time></trkpt><trkpt lat="34.4720607" lon="8.2480225"><ele>426.33333333333337</ele><time>2026-04-30T18:12:59.808Z</time></trkpt><trkpt lat="34.4722058" lon="8.2481608"><ele>425.66666666666663</ele><time>2026-04-30T18:13:00.802Z</time></trkpt><trkpt lat="34.4723518" lon="8.2482987"><ele>425.0</ele><time>2026-04-30T18:13:01.81Z</time></trkpt><trkpt lat="34.4724981" lon="8.2484353"><ele>425.0</ele><time>2026-04-30T18:13:02.809Z</time></trkpt><trkpt lat="34.4726428" lon="8.2485731"><ele>425.0</ele><time>2026-04-30T18:13:03.818Z</time></trkpt><trkpt lat="34.4727867" lon="8.2487114"><ele>425.0</ele><time>2026-04-30T18:13:04.795Z</time></trkpt><trkpt lat="34.4729298" lon="8.2488488"><ele>426.3333333333333</ele><time>2026-04-30T18:13:05.817Z</time></trkpt><trkpt lat="34.4730744" lon="8.2489845"><ele>427.66666666666663</ele><time>2026-04-30T18:13:06.778Z</time></trkpt><trkpt lat="34.4732194" lon="8.2491214"><ele>429.0</ele><time>2026-04-30T18:13:07.824Z</time></trkpt><trkpt lat="34.4733627" lon="8.2492597"><ele>429.0</ele><time>2026-04-30T18:13:08.799Z</time></trkpt><trkpt lat="34.4735079" lon="8.2493992"><ele>429.0</ele><time>2026-04-30T18:13:09.771Z</time></trkpt><trkpt lat="34.4736512" lon="8.2495371"><ele>429.0</ele><time>2026-04-30T18:13:10.77Z</time></trkpt><trkpt lat="34.4737942" lon="8.2496729"><ele>428.66666666666663</ele><time>2026-04-30T18:13:11.815Z</time></trkpt><trkpt lat="34.4739368" lon="8.2498067"><ele>428.3333333333333</ele><time>2026-04-30T18:13:12.781Z</time></trkpt><trkpt lat="34.4740811" lon="8.2499417"><ele>428.0</ele><time>2026-04-30T18:13:13.772Z</time></trkpt><trkpt lat="34.4742263" lon="8.250078"><ele>428.0</ele><time>2026-04-30T18:13:14.81Z</time></trkpt><trkpt lat="34.4743714" lon="8.2502153"><ele>428.0</ele><time>2026-04-30T18:13:15.809Z</time></trkpt><trkpt lat="34.4745172" lon="8.2503516"><ele>428.0</ele><time>2026-04-30T18:13:16.805Z</time></trkpt><trkpt lat="34.4746613" lon="8.2504883"><ele>428.0</ele><time>2026-04-30T18:13:17.83Z</time></trkpt><trkpt lat="34.4748021" lon="8.2506271"><ele>428.0</ele><time>2026-04-30T18:13:18.761Z</time></trkpt><trkpt lat="34.4749445" lon="8.2507636"><ele>428.0</ele><time>2026-04-30T18:13:19.788Z</time></trkpt><trkpt lat="34.4750872" lon="8.2508983"><ele>428.0</ele><time>2026-04-30T18:13:20.743Z</time></trkpt><trkpt lat="34.4752306" lon="8.2510332"><ele>428.0</ele><time>2026-04-30T18:13:21.79Z</time></trkpt><trkpt lat="34.4753734" lon="8.251168"><ele>428.0</ele><time>2026-04-30T18:13:22.824Z</time></trkpt><trkpt lat="34.4755161" lon="8.2513049"><ele>428.66666666666663</ele><time>2026-04-30T18:13:23.821Z</time></trkpt><trkpt lat="34.475659" lon="8.251443"><ele>429.33333333333337</ele><time>2026-04-30T18:13:24.815Z</time></trkpt><trkpt lat="34.4758011" lon="8.2515829"><ele>430.0</ele><time>2026-04-30T18:13:25.809Z</time></trkpt><trkpt lat="34.4759428" lon="8.2517197"><ele>431.6666666666667</ele><time>2026-04-30T18:13:26.806Z</time></trkpt><trkpt lat="34.4760856" lon="8.2518553"><ele>433.33333333333337</ele><time>2026-04-30T18:13:27.776Z</time></trkpt><trkpt lat="34.4762289" lon="8.25199"><ele>435.0</ele><time>2026-04-30T18:13:28.795Z</time></trkpt><trkpt lat="34.4763719" lon="8.2521259"><ele>435.0</ele><time>2026-04-30T18:13:29.766Z</time></trkpt><trkpt lat="34.4765143" lon="8.2522636"><ele>435.0</ele><time>2026-04-30T18:13:30.828Z</time></trkpt><trkpt lat="34.4766571" lon="8.2524009"><ele>435.0</ele><time>2026-04-30T18:13:31.826Z</time></trkpt><trkpt lat="34.4768006" lon="8.252539"><ele>436.33333333333337</ele><time>2026-04-30T18:13:32.823Z</time></trkpt><trkpt lat="34.4769458" lon="8.2526771"><ele>437.6666666666667</ele><time>2026-04-30T18:13:33.783Z</time></trkpt><trkpt lat="34.4770911" lon="8.2528155"><ele>439.0</ele><time>2026-04-30T18:13:34.81Z</time></trkpt><trkpt lat="34.4772352" lon="8.2529538"><ele>439.33333333333337</ele><time>2026-04-30T18:13:35.769Z</time></trkpt><trkpt lat="34.4773791" lon="8.253092"><ele>439.66666666666663</ele><time>2026-04-30T18:13:36.801Z</time></trkpt><trkpt lat="34.4775235" lon="8.2532298"><ele>440.0</ele><time>2026-04-30T18:13:37.803Z</time></trkpt><trkpt lat="34.4776667" lon="8.2533684"><ele>440.3333333333333</ele><time>2026-04-30T18:13:38.822Z</time></trkpt><trkpt lat="34.4778092" lon="8.253506"><ele>440.66666666666663</ele><time>2026-04-30T18:13:39.815Z</time></trkpt><trkpt lat="34.4779525" lon="8.2536435"><ele>441.0</ele><time>2026-04-30T18:13:40.811Z</time></trkpt><trkpt lat="34.4780963" lon="8.2537805"><ele>441.0</ele><time>2026-04-30T18:13:41.828Z</time></trkpt><trkpt lat="34.4782413" lon="8.2539174"><ele>441.0</ele><time>2026-04-30T18:13:42.827Z</time></trkpt><trkpt lat="34.4783856" lon="8.2540548"><ele>441.0</ele><time>2026-04-30T18:13:43.819Z</time></trkpt><trkpt lat="34.478529" lon="8.2541921"><ele>441.0</ele><time>2026-04-30T18:13:44.834Z</time></trkpt><trkpt lat="34.4786704" lon="8.2543316"><ele>441.0</ele><time>2026-04-30T18:13:45.817Z</time></trkpt><trkpt lat="34.4788136" lon="8.2544696"><ele>441.0</ele><time>2026-04-30T18:13:46.803Z</time></trkpt><trkpt lat="34.4789575" lon="8.2546047"><ele>441.0</ele><time>2026-04-30T18:13:47.782Z</time></trkpt><trkpt lat="34.4791021" lon="8.2547399"><ele>441.0</ele><time>2026-04-30T18:13:48.801Z</time></trkpt><trkpt lat="34.4792468" lon="8.2548771"><ele>441.0</ele><time>2026-04-30T18:13:49.819Z</time></trkpt><trkpt lat="34.4793899" lon="8.2550152"><ele>441.0</ele><time>2026-04-30T18:13:50.81Z</time></trkpt><trkpt lat="34.4795325" lon="8.2551561"><ele>441.0</ele><time>2026-04-30T18:13:51.828Z</time></trkpt><trkpt lat="34.4796742" lon="8.2552961"><ele>441.0</ele><time>2026-04-30T18:13:52.824Z</time></trkpt><trkpt lat="34.4798167" lon="8.2554347"><ele>441.0</ele><time>2026-04-30T18:13:53.809Z</time></trkpt><trkpt lat="34.4799602" lon="8.2555741"><ele>441.0</ele><time>2026-04-30T18:13:54.789Z</time></trkpt><trkpt lat="34.4801024" lon="8.255714"><ele>441.0</ele><time>2026-04-30T18:13:55.758Z</time></trkpt><trkpt lat="34.4802452" lon="8.2558528"><ele>441.0</ele><time>2026-04-30T18:13:56.807Z</time></trkpt><trkpt lat="34.4803867" lon="8.2559928"><ele>441.0</ele><time>2026-04-30T18:13:57.815Z</time></trkpt><trkpt lat="34.4805286" lon="8.2561326"><ele>441.0</ele><time>2026-04-30T18:13:58.812Z</time></trkpt><trkpt lat="34.4806726" lon="8.2562714"><ele>441.0</ele><time>2026-04-30T18:13:59.797Z</time></trkpt><trkpt lat="34.4808171" lon="8.2564061"><ele>441.0</ele><time>2026-04-30T18:14:00.818Z</time></trkpt><trkpt lat="34.4809608" lon="8.256538"><ele>441.0</ele><time>2026-04-30T18:14:01.82Z</time></trkpt><trkpt lat="34.4810956" lon="8.2566626"><ele>441.33333333333337</ele><time>2026-04-30T18:14:02.833Z</time></trkpt><trkpt lat="34.4812235" lon="8.2567847"><ele>441.6666666666667</ele><time>2026-04-30T18:14:03.817Z</time></trkpt><trkpt lat="34.4813462" lon="8.256902"><ele>442.0</ele><time>2026-04-30T18:14:04.808Z</time></trkpt><trkpt lat="34.4814685" lon="8.2570224"><ele>442.0</ele><time>2026-04-30T18:14:05.829Z</time></trkpt><trkpt lat="34.4815917" lon="8.257144"><ele>442.0</ele><time>2026-04-30T18:14:06.804Z</time></trkpt><trkpt lat="34.4817136" lon="8.2572612"><ele>442.0</ele><time>2026-04-30T18:14:07.814Z</time></trkpt><trkpt lat="34.4818253" lon="8.2573701"><ele>442.0</ele><time>2026-04-30T18:14:08.814Z</time></trkpt><trkpt lat="34.4819275" lon="8.2574698"><ele>442.00000000000006</ele><time>2026-04-30T18:14:09.811Z</time></trkpt><trkpt lat="34.4820202" lon="8.2575574"><ele>442.00000000000006</ele><time>2026-04-30T18:14:10.824Z</time></trkpt><trkpt lat="34.482104" lon="8.2576368"><ele>442.0</ele><time>2026-04-30T18:14:11.812Z</time></trkpt><trkpt lat="34.4821734" lon="8.2577023"><ele>442.0</ele><time>2026-04-30T18:14:12.823Z</time></trkpt><trkpt lat="34.4822379" lon="8.257758"><ele>442.40000000000003</ele><time>2026-04-30T18:14:13.752Z</time></trkpt><trkpt lat="34.4822867" lon="8.2578068"><ele>442.80000000000007</ele><time>2026-04-30T18:14:14.743Z</time></trkpt><trkpt lat="34.4823423" lon="8.2578699"><ele>443.2</ele><time>2026-04-30T18:14:15.733Z</time></trkpt><trkpt lat="34.4824191" lon="8.2579416"><ele>443.6</ele><time>2026-04-30T18:14:16.742Z</time></trkpt><trkpt lat="34.4825029" lon="8.2580224"><ele>444.0</ele><time>2026-04-30T18:14:17.751Z</time></trkpt><trkpt lat="34.4825938" lon="8.2581118"><ele>444.0</ele><time>2026-04-30T18:14:18.756Z</time></trkpt><trkpt lat="34.4826896" lon="8.2582004"><ele>444.0</ele><time>2026-04-30T18:14:19.722Z</time></trkpt><trkpt lat="34.4827896" lon="8.2582988"><ele>444.0</ele><time>2026-04-30T18:14:20.746Z</time></trkpt><trkpt lat="34.4828905" lon="8.258401"><ele>444.0</ele><time>2026-04-30T18:14:21.721Z</time></trkpt><trkpt lat="34.4829962" lon="8.2584983"><ele>444.5</ele><time>2026-04-30T18:14:22.745Z</time></trkpt><trkpt lat="34.4831016" lon="8.2585946"><ele>445.0</ele><time>2026-04-30T18:14:23.746Z</time></trkpt><trkpt lat="34.4832029" lon="8.2586926"><ele>445.5</ele><time>2026-04-30T18:14:24.757Z</time></trkpt><trkpt lat="34.4833067" lon="8.2587921"><ele>446.0</ele><time>2026-04-30T18:14:25.755Z</time></trkpt><trkpt lat="34.4834025" lon="8.2588892"><ele>446.25</ele><time>2026-04-30T18:14:26.754Z</time></trkpt><trkpt lat="34.483502" lon="8.2589846"><ele>446.5</ele><time>2026-04-30T18:14:27.747Z</time></trkpt><trkpt lat="34.4836008" lon="8.2590834"><ele>446.75</ele><time>2026-04-30T18:14:28.747Z</time></trkpt><trkpt lat="34.483703" lon="8.2591812"><ele>447.0</ele><time>2026-04-30T18:14:29.755Z</time></trkpt><trkpt lat="34.4838125" lon="8.2592745"><ele>447.25</ele><time>2026-04-30T18:14:30.747Z</time></trkpt><trkpt lat="34.4839164" lon="8.2593759"><ele>447.5</ele><time>2026-04-30T18:14:31.746Z</time></trkpt><trkpt lat="34.484021" lon="8.2594761"><ele>447.75</ele><time>2026-04-30T18:14:32.729Z</time></trkpt><trkpt lat="34.4841251" lon="8.2595792"><ele>448.0</ele><time>2026-04-30T18:14:33.739Z</time></trkpt><trkpt lat="34.4842288" lon="8.2596809"><ele>448.0</ele><time>2026-04-30T18:14:34.741Z</time></trkpt><trkpt lat="34.4843302" lon="8.2597731"><ele>448.0</ele><time>2026-04-30T18:14:35.731Z</time></trkpt><trkpt lat="34.4844255" lon="8.2598633"><ele>448.0</ele><time>2026-04-30T18:14:36.769Z</time></trkpt><trkpt lat="34.4845131" lon="8.2599498"><ele>448.0</ele><time>2026-04-30T18:14:37.746Z</time></trkpt><trkpt lat="34.484586" lon="8.2600146"><ele>448.2</ele><time>2026-04-30T18:14:38.74Z</time></trkpt><trkpt lat="34.4846435" lon="8.260066"><ele>448.4</ele><time>2026-04-30T18:14:39.75Z</time></trkpt><trkpt lat="34.4847252" lon="8.2601492"><ele>448.59999999999997</ele><time>2026-04-30T18:14:41.76Z</time></trkpt><trkpt lat="34.4847855" lon="8.2602054"><ele>448.79999999999995</ele><time>2026-04-30T18:14:42.723Z</time></trkpt><trkpt lat="34.4848597" lon="8.2602796"><ele>449.0</ele><time>2026-04-30T18:14:43.715Z</time></trkpt><trkpt lat="34.484947" lon="8.2603633"><ele>449.0</ele><time>2026-04-30T18:14:44.743Z</time></trkpt><trkpt lat="34.4850317" lon="8.260448"><ele>449.0</ele><time>2026-04-30T18:14:45.707Z</time></trkpt><trkpt lat="34.4851179" lon="8.2605345"><ele>449.0</ele><time>2026-04-30T18:14:46.714Z</time></trkpt><trkpt lat="34.4852002" lon="8.2606222"><ele>449.0</ele><time>2026-04-30T18:14:47.759Z</time></trkpt><trkpt lat="34.4852781" lon="8.2607007"><ele>449.0</ele><time>2026-04-30T18:14:48.74Z</time></trkpt><trkpt lat="34.4853579" lon="8.2607779"><ele>449.4</ele><time>2026-04-30T18:14:49.751Z</time></trkpt><trkpt lat="34.4854429" lon="8.2608579"><ele>449.79999999999995</ele><time>2026-04-30T18:14:50.75Z</time></trkpt><trkpt lat="34.4855189" lon="8.2609428"><ele>450.20000000000005</ele><time>2026-04-30T18:14:51.788Z</time></trkpt><trkpt lat="34.4855931" lon="8.2610296"><ele>450.6</ele><time>2026-04-30T18:14:52.739Z</time></trkpt><trkpt lat="34.4856718" lon="8.261122"><ele>451.0</ele><time>2026-04-30T18:14:53.742Z</time></trkpt><trkpt lat="34.4857498" lon="8.2612106"><ele>451.0</ele><time>2026-04-30T18:14:54.743Z</time></trkpt><trkpt lat="34.4858186" lon="8.261291"><ele>451.0</ele><time>2026-04-30T18:14:55.73Z</time></trkpt><trkpt lat="34.4858728" lon="8.2613534"><ele>451.0</ele><time>2026-04-30T18:14:56.748Z</time></trkpt><trkpt lat="34.4859334" lon="8.2614361"><ele>451.0</ele><time>2026-04-30T18:14:58.751Z</time></trkpt><trkpt lat="34.4860177" lon="8.2615635"><ele>451.0</ele><time>2026-04-30T18:15:00.75Z</time></trkpt><trkpt lat="34.4860663" lon="8.2616427"><ele>451.0</ele><time>2026-04-30T18:15:01.73Z</time></trkpt><trkpt lat="34.4861176" lon="8.2617204"><ele>451.0</ele><time>2026-04-30T18:15:02.746Z</time></trkpt><trkpt lat="34.4861764" lon="8.2618089"><ele>451.0</ele><time>2026-04-30T18:15:03.695Z</time></trkpt><trkpt lat="34.4862388" lon="8.2618971"><ele>451.0</ele><time>2026-04-30T18:15:04.731Z</time></trkpt><trkpt lat="34.4863061" lon="8.261986"><ele>451.0</ele><time>2026-04-30T18:15:05.715Z</time></trkpt><trkpt lat="34.4863743" lon="8.2620798"><ele>451.0</ele><time>2026-04-30T18:15:06.729Z</time></trkpt><trkpt lat="34.4864464" lon="8.2621736"><ele>451.0</ele><time>2026-04-30T18:15:07.747Z</time></trkpt><trkpt lat="34.4865136" lon="8.2622642"><ele>451.0</ele><time>2026-04-30T18:15:08.749Z</time></trkpt><trkpt lat="34.4865816" lon="8.26236"><ele>451.0</ele><time>2026-04-30T18:15:09.746Z</time></trkpt><trkpt lat="34.486648" lon="8.2624562"><ele>451.0</ele><time>2026-04-30T18:15:10.748Z</time></trkpt><trkpt lat="34.486714" lon="8.262551"><ele>451.20000000000005</ele><time>2026-04-30T18:15:11.746Z</time></trkpt><trkpt lat="34.4867791" lon="8.2626386"><ele>451.40000000000003</ele><time>2026-04-30T18:15:12.75Z</time></trkpt><trkpt lat="34.4868443" lon="8.262732"><ele>451.6</ele><time>2026-04-30T18:15:13.747Z</time></trkpt><trkpt lat="34.4869094" lon="8.2628242"><ele>451.8</ele><time>2026-04-30T18:15:14.753Z</time></trkpt><trkpt lat="34.486975" lon="8.262916"><ele>452.0</ele><time>2026-04-30T18:15:15.751Z</time></trkpt><trkpt lat="34.4870365" lon="8.2630107"><ele>452.0</ele><time>2026-04-30T18:15:16.735Z</time></trkpt><trkpt lat="34.4871026" lon="8.2631025"><ele>452.00000000000006</ele><time>2026-04-30T18:15:17.751Z</time></trkpt><trkpt lat="34.487165" lon="8.2631964"><ele>452.00000000000006</ele><time>2026-04-30T18:15:18.74Z</time></trkpt><trkpt lat="34.4872313" lon="8.2632918"><ele>452.0</ele><time>2026-04-30T18:15:19.721Z</time></trkpt><trkpt lat="34.4872986" lon="8.2633893"><ele>452.0</ele><time>2026-04-30T18:15:20.73Z</time></trkpt><trkpt lat="34.4873665" lon="8.2634847"><ele>452.16666666666663</ele><time>2026-04-30T18:15:21.722Z</time></trkpt><trkpt lat="34.4874334" lon="8.2635759"><ele>452.3333333333333</ele><time>2026-04-30T18:15:22.746Z</time></trkpt><trkpt lat="34.4874946" lon="8.2636515"><ele>452.5</ele><time>2026-04-30T18:15:23.743Z</time></trkpt><trkpt lat="34.4875465" lon="8.2637254"><ele>452.66666666666663</ele><time>2026-04-30T18:15:24.751Z</time></trkpt><trkpt lat="34.4875914" lon="8.2637856"><ele>452.8333333333333</ele><time>2026-04-30T18:15:25.747Z</time></trkpt><trkpt lat="34.4876491" lon="8.2638631"><ele>453.0</ele><time>2026-04-30T18:15:27.719Z</time></trkpt><trkpt lat="34.4877326" lon="8.2639887"><ele>453.4</ele><time>2026-04-30T18:15:29.756Z</time></trkpt><trkpt lat="34.4877882" lon="8.2640695"><ele>453.79999999999995</ele><time>2026-04-30T18:15:30.755Z</time></trkpt><trkpt lat="34.487847" lon="8.2641491"><ele>454.2</ele><time>2026-04-30T18:15:31.75Z</time></trkpt><trkpt lat="34.4879128" lon="8.2642425"><ele>454.6</ele><time>2026-04-30T18:15:32.696Z</time></trkpt><trkpt lat="34.4879776" lon="8.2643381"><ele>455.0</ele><time>2026-04-30T18:15:33.748Z</time></trkpt><trkpt lat="34.4880448" lon="8.2644274"><ele>455.3333333333333</ele><time>2026-04-30T18:15:34.743Z</time></trkpt><trkpt lat="34.4881021" lon="8.2645052"><ele>455.66666666666663</ele><time>2026-04-30T18:15:35.741Z</time></trkpt><trkpt lat="34.4881567" lon="8.2645819"><ele>456.0</ele><time>2026-04-30T18:15:36.873Z</time></trkpt><trkpt lat="34.4882131" lon="8.2646498"><ele>456.33333333333337</ele><time>2026-04-30T18:15:37.809Z</time></trkpt><trkpt lat="34.4882733" lon="8.2647141"><ele>456.6666666666667</ele><time>2026-04-30T18:15:38.799Z</time></trkpt><trkpt lat="34.4883384" lon="8.2647809"><ele>457.0</ele><time>2026-04-30T18:15:39.801Z</time></trkpt><trkpt lat="34.4884007" lon="8.2648397"><ele>457.00000000000006</ele><time>2026-04-30T18:15:40.811Z</time></trkpt><trkpt lat="34.4884683" lon="8.264899"><ele>457.0</ele><time>2026-04-30T18:15:41.813Z</time></trkpt><trkpt lat="34.4885324" lon="8.2649481"><ele>457.0</ele><time>2026-04-30T18:15:42.82Z</time></trkpt><trkpt lat="34.4886022" lon="8.2650019"><ele>457.0</ele><time>2026-04-30T18:15:43.813Z</time></trkpt><trkpt lat="34.4886735" lon="8.2650579"><ele>457.00000000000006</ele><time>2026-04-30T18:15:44.817Z</time></trkpt><trkpt lat="34.4887465" lon="8.2651134"><ele>457.0</ele><time>2026-04-30T18:15:45.812Z</time></trkpt><trkpt lat="34.4888164" lon="8.2651687"><ele>457.33333333333337</ele><time>2026-04-30T18:15:46.807Z</time></trkpt><trkpt lat="34.4888889" lon="8.2652191"><ele>457.6666666666667</ele><time>2026-04-30T18:15:47.812Z</time></trkpt><trkpt lat="34.4889516" lon="8.2652643"><ele>458.0</ele><time>2026-04-30T18:15:48.824Z</time></trkpt><trkpt lat="34.4890102" lon="8.2653058"><ele>458.33333333333337</ele><time>2026-04-30T18:15:49.822Z</time></trkpt><trkpt lat="34.4890745" lon="8.2653524"><ele>458.6666666666667</ele><time>2026-04-30T18:15:50.81Z</time></trkpt><trkpt lat="34.4891454" lon="8.2654078"><ele>459.0</ele><time>2026-04-30T18:15:51.803Z</time></trkpt><trkpt lat="34.4892253" lon="8.2654615"><ele>459.0</ele><time>2026-04-30T18:15:52.811Z</time></trkpt><trkpt lat="34.4893075" lon="8.265524"><ele>459.0</ele><time>2026-04-30T18:15:53.808Z</time></trkpt><trkpt lat="34.489394" lon="8.265581"><ele>459.0</ele><time>2026-04-30T18:15:54.822Z</time></trkpt><trkpt lat="34.4894742" lon="8.2656413"><ele>459.0</ele><time>2026-04-30T18:15:55.8Z</time></trkpt><trkpt lat="34.4895516" lon="8.2657012"><ele>459.0</ele><time>2026-04-30T18:15:56.773Z</time></trkpt><trkpt lat="34.4896231" lon="8.2657512"><ele>458.8333333333333</ele><time>2026-04-30T18:15:57.818Z</time></trkpt><trkpt lat="34.4896928" lon="8.2658001"><ele>458.66666666666663</ele><time>2026-04-30T18:15:58.808Z</time></trkpt><trkpt lat="34.4897607" lon="8.265855"><ele>458.5</ele><time>2026-04-30T18:15:59.766Z</time></trkpt><trkpt lat="34.4898316" lon="8.2659072"><ele>458.3333333333333</ele><time>2026-04-30T18:16:00.777Z</time></trkpt><trkpt lat="34.4899031" lon="8.2659566"><ele>458.16666666666663</ele><time>2026-04-30T18:16:01.817Z</time></trkpt><trkpt lat="34.4899694" lon="8.2660055"><ele>458.0</ele><time>2026-04-30T18:16:02.79Z</time></trkpt><trkpt lat="34.4900272" lon="8.2660612"><ele>457.99999999999994</ele><time>2026-04-30T18:16:03.812Z</time></trkpt><trkpt lat="34.4900893" lon="8.266094"><ele>458.0</ele><time>2026-04-30T18:16:04.818Z</time></trkpt><trkpt lat="34.4902067" lon="8.2661745"><ele>458.0</ele><time>2026-04-30T18:16:06.776Z</time></trkpt><trkpt lat="34.4902677" lon="8.2662182"><ele>458.0</ele><time>2026-04-30T18:16:07.791Z</time></trkpt><trkpt lat="34.4903263" lon="8.2662581"><ele>457.99999999999994</ele><time>2026-04-30T18:16:08.827Z</time></trkpt><trkpt lat="34.4903826" lon="8.2662985"><ele>458.0</ele><time>2026-04-30T18:16:09.828Z</time></trkpt><trkpt lat="34.4904439" lon="8.266343"><ele>458.3333333333333</ele><time>2026-04-30T18:16:10.821Z</time></trkpt><trkpt lat="34.4905055" lon="8.2663948"><ele>458.66666666666663</ele><time>2026-04-30T18:16:11.815Z</time></trkpt><trkpt lat="34.4905684" lon="8.2664434"><ele>459.0</ele><time>2026-04-30T18:16:12.821Z</time></trkpt><trkpt lat="34.490634" lon="8.2664933"><ele>459.33333333333337</ele><time>2026-04-30T18:16:13.815Z</time></trkpt><trkpt lat="34.4906977" lon="8.2665439"><ele>459.6666666666667</ele><time>2026-04-30T18:16:14.806Z</time></trkpt><trkpt lat="34.4907581" lon="8.266598"><ele>460.0</ele><time>2026-04-30T18:16:15.827Z</time></trkpt><trkpt lat="34.4908188" lon="8.2666538"><ele>460.1666666666667</ele><time>2026-04-30T18:16:16.769Z</time></trkpt><trkpt lat="34.4908767" lon="8.2667124"><ele>460.33333333333337</ele><time>2026-04-30T18:16:17.823Z</time></trkpt><trkpt lat="34.4909324" lon="8.2667807"><ele>460.5</ele><time>2026-04-30T18:16:18.815Z</time></trkpt><trkpt lat="34.4909852" lon="8.2668582"><ele>460.66666666666663</ele><time>2026-04-30T18:16:19.808Z</time></trkpt><trkpt lat="34.4910318" lon="8.2669398"><ele>460.8333333333333</ele><time>2026-04-30T18:16:20.778Z</time></trkpt><trkpt lat="34.4910742" lon="8.2670216"><ele>461.0</ele><time>2026-04-30T18:16:21.782Z</time></trkpt><trkpt lat="34.4911143" lon="8.2671027"><ele>460.99999999999994</ele><time>2026-04-30T18:16:22.831Z</time></trkpt><trkpt lat="34.4911524" lon="8.2671845"><ele>461.0</ele><time>2026-04-30T18:16:23.824Z</time></trkpt><trkpt lat="34.4911893" lon="8.2672648"><ele>461.0</ele><time>2026-04-30T18:16:24.752Z</time></trkpt><trkpt lat="34.4912185" lon="8.2673416"><ele>461.0</ele><time>2026-04-30T18:16:25.801Z</time></trkpt><trkpt lat="34.4912426" lon="8.2674158"><ele>460.99999999999994</ele><time>2026-04-30T18:16:26.817Z</time></trkpt><trkpt lat="34.4912768" lon="8.267553"><ele>461.0</ele><time>2026-04-30T18:16:28.807Z</time></trkpt><trkpt lat="34.4913014" lon="8.2676738"><ele>461.49999999999994</ele><time>2026-04-30T18:16:30.756Z</time></trkpt><trkpt lat="34.4913087" lon="8.2677704"><ele>462.0</ele><time>2026-04-30T18:16:32.765Z</time></trkpt><trkpt lat="34.4913144" lon="8.2678592"><ele>462.5</ele><time>2026-04-30T18:16:34.782Z</time></trkpt><trkpt lat="34.4913217" lon="8.2679615"><ele>463.0</ele><time>2026-04-30T18:16:37.809Z</time></trkpt><trkpt lat="34.4913289" lon="8.2680753"><ele>463.49999999999994</ele><time>2026-04-30T18:16:40.81Z</time></trkpt><trkpt lat="34.4913242" lon="8.2681967"><ele>464.0</ele><time>2026-04-30T18:16:42.825Z</time></trkpt><trkpt lat="34.4913309" lon="8.2683283"><ele>464.16666666666663</ele><time>2026-04-30T18:16:44.827Z</time></trkpt><trkpt lat="34.4913409" lon="8.2684487"><ele>464.3333333333333</ele><time>2026-04-30T18:16:46.814Z</time></trkpt><trkpt lat="34.4913357" lon="8.2685474"><ele>464.5</ele><time>2026-04-30T18:16:49.818Z</time></trkpt><trkpt lat="34.4913317" lon="8.2686452"><ele>464.66666666666663</ele><time>2026-04-30T18:16:54.794Z</time></trkpt><trkpt lat="34.4913378" lon="8.268731"><ele>464.8333333333333</ele><time>2026-04-30T18:16:57.809Z</time></trkpt><trkpt lat="34.4913464" lon="8.2688077"><ele>465.0</ele><time>2026-04-30T18:17:00.823Z</time></trkpt><trkpt lat="34.4913438" lon="8.268917"><ele>464.6</ele><time>2026-04-30T18:17:03.816Z</time></trkpt><trkpt lat="34.4913507" lon="8.2690265"><ele>464.2</ele><time>2026-04-30T18:17:05.786Z</time></trkpt><trkpt lat="34.4913519" lon="8.2691558"><ele>463.79999999999995</ele><time>2026-04-30T18:17:07.811Z</time></trkpt><trkpt lat="34.4913514" lon="8.2693093"><ele>463.4</ele><time>2026-04-30T18:17:09.819Z</time></trkpt><trkpt lat="34.4913538" lon="8.2693859"><ele>463.0</ele><time>2026-04-30T18:17:10.824Z</time></trkpt><trkpt lat="34.491354" lon="8.2694697"><ele>463.0</ele><time>2026-04-30T18:17:11.814Z</time></trkpt><trkpt lat="34.4913536" lon="8.2695624"><ele>462.99999999999994</ele><time>2026-04-30T18:17:12.817Z</time></trkpt><trkpt lat="34.4913554" lon="8.2696592"><ele>463.0</ele><time>2026-04-30T18:17:13.824Z</time></trkpt><trkpt lat="34.4913565" lon="8.2697489"><ele>463.0</ele><time>2026-04-30T18:17:14.825Z</time></trkpt><trkpt lat="34.4913592" lon="8.2698253"><ele>462.99999999999994</ele><time>2026-04-30T18:17:15.829Z</time></trkpt><trkpt lat="34.491361" lon="8.2699344"><ele>463.0</ele><time>2026-04-30T18:17:17.814Z</time></trkpt><trkpt lat="34.4913677" lon="8.2700142"><ele>463.0</ele><time>2026-04-30T18:17:19.813Z</time></trkpt><trkpt lat="34.4914222" lon="8.270093"><ele>462.6666666666667</ele><time>2026-04-30T18:17:22.814Z</time></trkpt><trkpt lat="34.4914887" lon="8.2701302"><ele>462.33333333333337</ele><time>2026-04-30T18:17:25.755Z</time></trkpt><trkpt lat="34.4915618" lon="8.270151"><ele>462.0</ele><time>2026-04-30T18:17:29.774Z</time></trkpt><trkpt lat="34.4916338" lon="8.2701453"><ele>461.66666666666663</ele><time>2026-04-30T18:20:59.714Z</time></trkpt><trkpt lat="34.4916675" lon="8.270239"><ele>461.3333333333333</ele><time>2026-04-30T18:21:03.709Z</time></trkpt><trkpt lat="34.4916229" lon="8.2703038"><ele>461.0</ele><time>2026-04-30T18:21:07.718Z</time></trkpt><trkpt lat="34.491546" lon="8.2703528"><ele>461.0</ele><time>2026-04-30T18:21:50.713Z</time></trkpt><trkpt lat="34.4914712" lon="8.2704091"><ele>461.0</ele><time>2026-04-30T18:21:53.717Z</time></trkpt><trkpt lat="34.4914241" lon="8.270468"><ele>461.0</ele><time>2026-04-30T18:21:57.71Z</time></trkpt><trkpt lat="34.4914187" lon="8.270634"><ele>461.0</ele><time>2026-04-30T18:21:59.71Z</time></trkpt><trkpt lat="34.4914139" lon="8.2707445"><ele>461.0</ele><time>2026-04-30T18:22:00.708Z</time></trkpt><trkpt lat="34.4914051" lon="8.2708538"><ele>460.8333333333333</ele><time>2026-04-30T18:22:01.709Z</time></trkpt><trkpt lat="34.4914059" lon="8.2709596"><ele>460.66666666666663</ele><time>2026-04-30T18:22:02.713Z</time></trkpt><trkpt lat="34.4914123" lon="8.2710673"><ele>460.5</ele><time>2026-04-30T18:22:03.711Z</time></trkpt><trkpt lat="34.4914141" lon="8.2711693"><ele>460.33333333333337</ele><time>2026-04-30T18:22:04.726Z</time></trkpt><trkpt lat="34.4914127" lon="8.2712672"><ele>460.1666666666667</ele><time>2026-04-30T18:22:05.72Z</time></trkpt><trkpt lat="34.4914099" lon="8.2713641"><ele>460.0</ele><time>2026-04-30T18:22:06.718Z</time></trkpt><trkpt lat="34.4914104" lon="8.2714613"><ele>459.99999999999994</ele><time>2026-04-30T18:22:07.71Z</time></trkpt><trkpt lat="34.4914155" lon="8.2715536"><ele>460.0</ele><time>2026-04-30T18:22:08.723Z</time></trkpt><trkpt lat="34.4914207" lon="8.2716461"><ele>459.99999999999994</ele><time>2026-04-30T18:22:09.717Z</time></trkpt><trkpt lat="34.4914205" lon="8.2717369"><ele>459.99999999999994</ele><time>2026-04-30T18:22:10.711Z</time></trkpt><trkpt lat="34.4914287" lon="8.2718222"><ele>460.0</ele><time>2026-04-30T18:22:11.7Z</time></trkpt><trkpt lat="34.4914334" lon="8.2719106"><ele>459.99999999999994</ele><time>2026-04-30T18:22:12.707Z</time></trkpt><trkpt lat="34.491435" lon="8.2719987"><ele>459.99999999999994</ele><time>2026-04-30T18:22:13.697Z</time></trkpt><trkpt lat="34.4914339" lon="8.2720906"><ele>460.00000000000006</ele><time>2026-04-30T18:22:14.695Z</time></trkpt><trkpt lat="34.4914354" lon="8.2721892"><ele>460.0</ele><time>2026-04-30T18:22:15.709Z</time></trkpt><trkpt lat="34.4914399" lon="8.2722882"><ele>460.0</ele><time>2026-04-30T18:22:16.712Z</time></trkpt><trkpt lat="34.491443" lon="8.2723927"><ele>460.0</ele><time>2026-04-30T18:22:17.721Z</time></trkpt><trkpt lat="34.4914413" lon="8.2724913"><ele>460.00000000000006</ele><time>2026-04-30T18:22:18.704Z</time></trkpt><trkpt lat="34.4914462" lon="8.2725905"><ele>460.0</ele><time>2026-04-30T18:22:19.708Z</time></trkpt><trkpt lat="34.491449" lon="8.2726767"><ele>459.83333333333337</ele><time>2026-04-30T18:22:20.724Z</time></trkpt><trkpt lat="34.4914463" lon="8.2727709"><ele>459.6666666666667</ele><time>2026-04-30T18:22:21.72Z</time></trkpt><trkpt lat="34.4914425" lon="8.2728587"><ele>459.5</ele><time>2026-04-30T18:22:22.709Z</time></trkpt><trkpt lat="34.491448" lon="8.2729561"><ele>459.33333333333337</ele><time>2026-04-30T18:22:23.725Z</time></trkpt><trkpt lat="34.4914486" lon="8.2730578"><ele>459.1666666666667</ele><time>2026-04-30T18:22:24.719Z</time></trkpt><trkpt lat="34.4914512" lon="8.2731429"><ele>459.0</ele><time>2026-04-30T18:22:25.722Z</time></trkpt><trkpt lat="34.4914617" lon="8.2732773"><ele>459.0</ele><time>2026-04-30T18:22:27.706Z</time></trkpt><trkpt lat="34.4914621" lon="8.2733544"><ele>459.0</ele><time>2026-04-30T18:22:28.719Z</time></trkpt><trkpt lat="34.4914725" lon="8.2734484"><ele>459.0</ele><time>2026-04-30T18:22:29.689Z</time></trkpt><trkpt lat="34.4914776" lon="8.2735494"><ele>459.0</ele><time>2026-04-30T18:22:30.701Z</time></trkpt><trkpt lat="34.4914749" lon="8.2736529"><ele>459.0</ele><time>2026-04-30T18:22:31.72Z</time></trkpt><trkpt lat="34.4914725" lon="8.273753"><ele>459.0</ele><time>2026-04-30T18:22:32.732Z</time></trkpt><trkpt lat="34.4914728" lon="8.2738545"><ele>459.0</ele><time>2026-04-30T18:22:33.697Z</time></trkpt><trkpt lat="34.4914751" lon="8.2739583"><ele>459.0</ele><time>2026-04-30T18:22:34.704Z</time></trkpt><trkpt lat="34.4914788" lon="8.2740645"><ele>459.0</ele><time>2026-04-30T18:22:35.716Z</time></trkpt><trkpt lat="34.4914804" lon="8.2741562"><ele>459.0</ele><time>2026-04-30T18:22:36.731Z</time></trkpt><trkpt lat="34.4914842" lon="8.2742524"><ele>459.0</ele><time>2026-04-30T18:22:37.714Z</time></trkpt><trkpt lat="34.4914879" lon="8.2743433"><ele>459.0</ele><time>2026-04-30T18:22:38.704Z</time></trkpt><trkpt lat="34.4914896" lon="8.2744337"><ele>459.0</ele><time>2026-04-30T18:22:39.707Z</time></trkpt><trkpt lat="34.4914894" lon="8.2745248"><ele>459.0</ele><time>2026-04-30T18:22:40.712Z</time></trkpt><trkpt lat="34.4914938" lon="8.2746209"><ele>459.0</ele><time>2026-04-30T18:22:41.708Z</time></trkpt><trkpt lat="34.4914964" lon="8.2747148"><ele>459.0</ele><time>2026-04-30T18:22:42.724Z</time></trkpt><trkpt lat="34.4914958" lon="8.2748078"><ele>459.0</ele><time>2026-04-30T18:22:43.712Z</time></trkpt><trkpt lat="34.4915052" lon="8.2749094"><ele>459.0</ele><time>2026-04-30T18:22:44.722Z</time></trkpt><trkpt lat="34.4915101" lon="8.2750073"><ele>458.8333333333333</ele><time>2026-04-30T18:22:45.708Z</time></trkpt><trkpt lat="34.4915133" lon="8.2750889"><ele>458.66666666666663</ele><time>2026-04-30T18:22:46.719Z</time></trkpt><trkpt lat="34.4915112" lon="8.27517"><ele>458.5</ele><time>2026-04-30T18:22:47.73Z</time></trkpt><trkpt lat="34.4915169" lon="8.2753139"><ele>458.3333333333333</ele><time>2026-04-30T18:22:49.705Z</time></trkpt><trkpt lat="34.4915179" lon="8.2753973"><ele>458.16666666666663</ele><time>2026-04-30T18:22:50.705Z</time></trkpt><trkpt lat="34.4915237" lon="8.2754884"><ele>458.0</ele><time>2026-04-30T18:22:51.708Z</time></trkpt><trkpt lat="34.4915279" lon="8.2755708"><ele>457.49999999999994</ele><time>2026-04-30T18:22:52.707Z</time></trkpt><trkpt lat="34.4915388" lon="8.2756615"><ele>457.0</ele><time>2026-04-30T18:22:53.722Z</time></trkpt><trkpt lat="34.4915513" lon="8.2757622"><ele>456.5</ele><time>2026-04-30T18:22:54.716Z</time></trkpt><trkpt lat="34.4915546" lon="8.2758666"><ele>456.0</ele><time>2026-04-30T18:22:55.713Z</time></trkpt><trkpt lat="34.491555" lon="8.2759742"><ele>455.49999999999994</ele><time>2026-04-30T18:22:56.725Z</time></trkpt><trkpt lat="34.4915533" lon="8.2760888"><ele>455.0</ele><time>2026-04-30T18:22:57.717Z</time></trkpt><trkpt lat="34.4915494" lon="8.2762033"><ele>454.99999999999994</ele><time>2026-04-30T18:22:58.701Z</time></trkpt><trkpt lat="34.4915529" lon="8.2763145"><ele>455.0</ele><time>2026-04-30T18:22:59.704Z</time></trkpt><trkpt lat="34.4915561" lon="8.2764271"><ele>455.0</ele><time>2026-04-30T18:23:00.718Z</time></trkpt><trkpt lat="34.4915642" lon="8.276532"><ele>455.0</ele><time>2026-04-30T18:23:01.718Z</time></trkpt><trkpt lat="34.4915696" lon="8.2766298"><ele>454.99999999999994</ele><time>2026-04-30T18:23:02.706Z</time></trkpt><trkpt lat="34.4915665" lon="8.2767292"><ele>455.0</ele><time>2026-04-30T18:23:03.705Z</time></trkpt><trkpt lat="34.4915688" lon="8.2768308"><ele>455.16666666666663</ele><time>2026-04-30T18:23:04.711Z</time></trkpt><trkpt lat="34.4915695" lon="8.2769366"><ele>455.3333333333333</ele><time>2026-04-30T18:23:05.726Z</time></trkpt><trkpt lat="34.4915714" lon="8.2770414"><ele>455.5</ele><time>2026-04-30T18:23:06.706Z</time></trkpt><trkpt lat="34.4915708" lon="8.2771382"><ele>455.66666666666663</ele><time>2026-04-30T18:23:07.729Z</time></trkpt><trkpt lat="34.4915634" lon="8.2772202"><ele>455.8333333333333</ele><time>2026-04-30T18:23:08.717Z</time></trkpt><trkpt lat="34.4915616" lon="8.2772966"><ele>456.0</ele><time>2026-04-30T18:23:09.699Z</time></trkpt><trkpt lat="34.4915599" lon="8.2774453"><ele>456.0</ele><time>2026-04-30T18:23:11.697Z</time></trkpt><trkpt lat="34.4915645" lon="8.2775457"><ele>456.0</ele><time>2026-04-30T18:23:12.698Z</time></trkpt><trkpt lat="34.4915656" lon="8.2776581"><ele>456.0</ele><time>2026-04-30T18:23:13.715Z</time></trkpt><trkpt lat="34.4915715" lon="8.2777765"><ele>456.0</ele><time>2026-04-30T18:23:14.71Z</time></trkpt><trkpt lat="34.4915791" lon="8.2779008"><ele>456.0</ele><time>2026-04-30T18:23:15.705Z</time></trkpt><trkpt lat="34.4915866" lon="8.2780174"><ele>455.8</ele><time>2026-04-30T18:23:16.705Z</time></trkpt><trkpt lat="34.4915914" lon="8.2781377"><ele>455.6</ele><time>2026-04-30T18:23:17.718Z</time></trkpt><trkpt lat="34.491594" lon="8.2782662"><ele>455.4</ele><time>2026-04-30T18:23:18.713Z</time></trkpt><trkpt lat="34.4915987" lon="8.2783987"><ele>455.2</ele><time>2026-04-30T18:23:19.713Z</time></trkpt><trkpt lat="34.4916004" lon="8.2785308"><ele>455.0</ele><time>2026-04-30T18:23:20.712Z</time></trkpt><trkpt lat="34.4916063" lon="8.2786596"><ele>455.0</ele><time>2026-04-30T18:23:21.732Z</time></trkpt><trkpt lat="34.4916135" lon="8.2787833"><ele>455.0</ele><time>2026-04-30T18:23:22.71Z</time></trkpt><trkpt lat="34.491619" lon="8.2789031"><ele>455.0</ele><time>2026-04-30T18:23:23.721Z</time></trkpt><trkpt lat="34.4916237" lon="8.27902"><ele>455.0</ele><time>2026-04-30T18:23:24.712Z</time></trkpt><trkpt lat="34.4916279" lon="8.2791365"><ele>455.0</ele><time>2026-04-30T18:23:25.705Z</time></trkpt><trkpt lat="34.4916326" lon="8.27925"><ele>454.8</ele><time>2026-04-30T18:23:26.708Z</time></trkpt><trkpt lat="34.4916389" lon="8.2793632"><ele>454.6</ele><time>2026-04-30T18:23:27.713Z</time></trkpt><trkpt lat="34.4916462" lon="8.2794761"><ele>454.4</ele><time>2026-04-30T18:23:28.713Z</time></trkpt><trkpt lat="34.4916564" lon="8.2795949"><ele>454.2</ele><time>2026-04-30T18:23:29.702Z</time></trkpt><trkpt lat="34.4916681" lon="8.2797201"><ele>454.0</ele><time>2026-04-30T18:23:30.696Z</time></trkpt><trkpt lat="34.4916787" lon="8.2798355"><ele>453.6</ele><time>2026-04-30T18:23:31.721Z</time></trkpt><trkpt lat="34.4916962" lon="8.2799553"><ele>453.2</ele><time>2026-04-30T18:23:32.693Z</time></trkpt><trkpt lat="34.4917173" lon="8.2800778"><ele>452.80000000000007</ele><time>2026-04-30T18:23:33.737Z</time></trkpt><trkpt lat="34.4917418" lon="8.2801995"><ele>452.40000000000003</ele><time>2026-04-30T18:23:34.72Z</time></trkpt><trkpt lat="34.4917683" lon="8.2803193"><ele>452.0</ele><time>2026-04-30T18:23:35.739Z</time></trkpt><trkpt lat="34.4918007" lon="8.2804436"><ele>452.0</ele><time>2026-04-30T18:23:36.706Z</time></trkpt><trkpt lat="34.4918291" lon="8.2805582"><ele>452.00000000000006</ele><time>2026-04-30T18:23:37.717Z</time></trkpt><trkpt lat="34.4918531" lon="8.2806709"><ele>452.00000000000006</ele><time>2026-04-30T18:23:38.739Z</time></trkpt><trkpt lat="34.491883" lon="8.2807893"><ele>452.0</ele><time>2026-04-30T18:23:39.706Z</time></trkpt><trkpt lat="34.4919106" lon="8.2809067"><ele>452.0</ele><time>2026-04-30T18:23:40.713Z</time></trkpt><trkpt lat="34.4919405" lon="8.2810281"><ele>451.8</ele><time>2026-04-30T18:23:41.695Z</time></trkpt><trkpt lat="34.4919724" lon="8.2811514"><ele>451.6</ele><time>2026-04-30T18:23:42.683Z</time></trkpt><trkpt lat="34.4920038" lon="8.2812767"><ele>451.40000000000003</ele><time>2026-04-30T18:23:43.712Z</time></trkpt><trkpt lat="34.4920297" lon="8.2814061"><ele>451.20000000000005</ele><time>2026-04-30T18:23:44.717Z</time></trkpt><trkpt lat="34.4920489" lon="8.2815295"><ele>451.0</ele><time>2026-04-30T18:23:45.712Z</time></trkpt><trkpt lat="34.4920513" lon="8.2816473"><ele>451.0</ele><time>2026-04-30T18:23:46.711Z</time></trkpt><trkpt lat="34.492038" lon="8.281763"><ele>451.0</ele><time>2026-04-30T18:23:47.707Z</time></trkpt><trkpt lat="34.4920074" lon="8.2818756"><ele>451.0</ele><time>2026-04-30T18:23:48.743Z</time></trkpt><trkpt lat="34.4919609" lon="8.2819825"><ele>451.0</ele><time>2026-04-30T18:23:49.727Z</time></trkpt><trkpt lat="34.4918955" lon="8.2820838"><ele>451.0</ele><time>2026-04-30T18:23:50.708Z</time></trkpt><trkpt lat="34.4918203" lon="8.2821713"><ele>451.0</ele><time>2026-04-30T18:23:51.692Z</time></trkpt><trkpt lat="34.4917386" lon="8.2822542"><ele>451.0</ele><time>2026-04-30T18:23:52.717Z</time></trkpt><trkpt lat="34.4916595" lon="8.2823085"><ele>451.0</ele><time>2026-04-30T18:23:53.709Z</time></trkpt><trkpt lat="34.4915823" lon="8.2823418"><ele>451.0</ele><time>2026-04-30T18:23:54.713Z</time></trkpt><trkpt lat="34.491491" lon="8.2823549"><ele>451.0</ele><time>2026-04-30T18:23:55.703Z</time></trkpt><trkpt lat="34.4913892" lon="8.2823577"><ele>450.6</ele><time>2026-04-30T18:23:56.714Z</time></trkpt><trkpt lat="34.4912879" lon="8.2823361"><ele>450.20000000000005</ele><time>2026-04-30T18:23:57.694Z</time></trkpt><trkpt lat="34.4911901" lon="8.2822938"><ele>449.79999999999995</ele><time>2026-04-30T18:23:58.716Z</time></trkpt><trkpt lat="34.4910843" lon="8.2822382"><ele>449.4</ele><time>2026-04-30T18:23:59.727Z</time></trkpt><trkpt lat="34.4909713" lon="8.2821811"><ele>449.0</ele><time>2026-04-30T18:24:00.714Z</time></trkpt><trkpt lat="34.4908633" lon="8.282123"><ele>449.0</ele><time>2026-04-30T18:24:01.723Z</time></trkpt><trkpt lat="34.490757" lon="8.2820634"><ele>449.0</ele><time>2026-04-30T18:24:02.722Z</time></trkpt><trkpt lat="34.4906492" lon="8.2820136"><ele>449.0</ele><time>2026-04-30T18:24:03.71Z</time></trkpt><trkpt lat="34.4905355" lon="8.2819781"><ele>449.0</ele><time>2026-04-30T18:24:04.714Z</time></trkpt><trkpt lat="34.4904228" lon="8.2819539"><ele>448.75</ele><time>2026-04-30T18:24:05.712Z</time></trkpt><trkpt lat="34.4903066" lon="8.2819434"><ele>448.5</ele><time>2026-04-30T18:24:06.708Z</time></trkpt><trkpt lat="34.4901852" lon="8.2819479"><ele>448.25</ele><time>2026-04-30T18:24:07.71Z</time></trkpt><trkpt lat="34.4900695" lon="8.2819696"><ele>448.0</ele><time>2026-04-30T18:24:08.735Z</time></trkpt><trkpt lat="34.4899591" lon="8.2819988"><ele>448.0</ele><time>2026-04-30T18:24:09.722Z</time></trkpt><trkpt lat="34.4898568" lon="8.2820325"><ele>448.0</ele><time>2026-04-30T18:24:10.723Z</time></trkpt><trkpt lat="34.489748" lon="8.2820714"><ele>448.0</ele><time>2026-04-30T18:24:11.725Z</time></trkpt><trkpt lat="34.4896351" lon="8.2821147"><ele>448.0</ele><time>2026-04-30T18:24:12.714Z</time></trkpt><trkpt lat="34.4895187" lon="8.2821631"><ele>447.75</ele><time>2026-04-30T18:24:13.71Z</time></trkpt><trkpt lat="34.4894057" lon="8.2822143"><ele>447.5</ele><time>2026-04-30T18:24:14.703Z</time></trkpt><trkpt lat="34.4892957" lon="8.2822571"><ele>447.25</ele><time>2026-04-30T18:24:15.72Z</time></trkpt><trkpt lat="34.4891887" lon="8.2823002"><ele>447.0</ele><time>2026-04-30T18:24:16.737Z</time></trkpt><trkpt lat="34.4890821" lon="8.2823435"><ele>447.0</ele><time>2026-04-30T18:24:17.736Z</time></trkpt><trkpt lat="34.4889726" lon="8.2823885"><ele>447.0</ele><time>2026-04-30T18:24:18.731Z</time></trkpt><trkpt lat="34.4888599" lon="8.2824347"><ele>447.0</ele><time>2026-04-30T18:24:19.708Z</time></trkpt><trkpt lat="34.4887498" lon="8.2824828"><ele>447.0</ele><time>2026-04-30T18:24:20.721Z</time></trkpt><trkpt lat="34.4886403" lon="8.2825283"><ele>446.8</ele><time>2026-04-30T18:24:21.728Z</time></trkpt><trkpt lat="34.4885337" lon="8.282571"><ele>446.6</ele><time>2026-04-30T18:24:22.718Z</time></trkpt><trkpt lat="34.4884313" lon="8.2826112"><ele>446.40000000000003</ele><time>2026-04-30T18:24:23.732Z</time></trkpt><trkpt lat="34.4883328" lon="8.2826544"><ele>446.20000000000005</ele><time>2026-04-30T18:24:24.699Z</time></trkpt><trkpt lat="34.4882389" lon="8.2826933"><ele>446.0</ele><time>2026-04-30T18:24:25.701Z</time></trkpt><trkpt lat="34.4881525" lon="8.2827238"><ele>446.0</ele><time>2026-04-30T18:24:26.698Z</time></trkpt><trkpt lat="34.4880697" lon="8.282752"><ele>446.0</ele><time>2026-04-30T18:24:27.765Z</time></trkpt><trkpt lat="34.4880007" lon="8.2827815"><ele>446.0</ele><time>2026-04-30T18:24:28.7Z</time></trkpt><trkpt lat="34.4878866" lon="8.2828287"><ele>446.0</ele><time>2026-04-30T18:24:30.723Z</time></trkpt><trkpt lat="34.487809" lon="8.2828614"><ele>446.0</ele><time>2026-04-30T18:24:31.729Z</time></trkpt><trkpt lat="34.4877154" lon="8.2828965"><ele>445.25</ele><time>2026-04-30T18:24:32.723Z</time></trkpt><trkpt lat="34.4876134" lon="8.2829387"><ele>444.5</ele><time>2026-04-30T18:24:33.722Z</time></trkpt><trkpt lat="34.4874989" lon="8.2829877"><ele>443.75</ele><time>2026-04-30T18:24:34.707Z</time></trkpt><trkpt lat="34.4873841" lon="8.2830304"><ele>443.0</ele><time>2026-04-30T18:24:35.731Z</time></trkpt><trkpt lat="34.4872837" lon="8.2830784"><ele>443.2</ele><time>2026-04-30T18:24:36.73Z</time></trkpt><trkpt lat="34.4871827" lon="8.2831203"><ele>443.4</ele><time>2026-04-30T18:24:37.703Z</time></trkpt><trkpt lat="34.4870871" lon="8.2831611"><ele>443.59999999999997</ele><time>2026-04-30T18:24:38.713Z</time></trkpt><trkpt lat="34.487008" lon="8.2831928"><ele>443.79999999999995</ele><time>2026-04-30T18:24:39.727Z</time></trkpt><trkpt lat="34.486944" lon="8.2832162"><ele>444.0</ele><time>2026-04-30T18:24:40.726Z</time></trkpt><trkpt lat="34.4868226" lon="8.2832616"><ele>444.0</ele><time>2026-04-30T18:24:42.728Z</time></trkpt><trkpt lat="34.4867348" lon="8.2833079"><ele>444.0</ele><time>2026-04-30T18:24:43.699Z</time></trkpt><trkpt lat="34.4866366" lon="8.2833504"><ele>444.0</ele><time>2026-04-30T18:24:44.718Z</time></trkpt><trkpt lat="34.4865241" lon="8.2833904"><ele>444.0</ele><time>2026-04-30T18:24:45.744Z</time></trkpt><trkpt lat="34.4864131" lon="8.2834354"><ele>444.0</ele><time>2026-04-30T18:24:46.715Z</time></trkpt><trkpt lat="34.4862975" lon="8.283483"><ele>443.25</ele><time>2026-04-30T18:24:47.716Z</time></trkpt><trkpt lat="34.4861823" lon="8.283533"><ele>442.5</ele><time>2026-04-30T18:24:48.722Z</time></trkpt><trkpt lat="34.4860678" lon="8.2835858"><ele>441.75</ele><time>2026-04-30T18:24:49.702Z</time></trkpt><trkpt lat="34.485957" lon="8.2836414"><ele>441.0</ele><time>2026-04-30T18:24:50.716Z</time></trkpt><trkpt lat="34.4858461" lon="8.2837015"><ele>441.0</ele><time>2026-04-30T18:24:51.712Z</time></trkpt><trkpt lat="34.4857428" lon="8.2837674"><ele>441.0</ele><time>2026-04-30T18:24:52.713Z</time></trkpt><trkpt lat="34.4856431" lon="8.2838348"><ele>441.0</ele><time>2026-04-30T18:24:53.725Z</time></trkpt><trkpt lat="34.485556" lon="8.2839066"><ele>441.0</ele><time>2026-04-30T18:24:54.723Z</time></trkpt><trkpt lat="34.4854686" lon="8.28397"><ele>441.0</ele><time>2026-04-30T18:24:55.709Z</time></trkpt><trkpt lat="34.4853916" lon="8.2840356"><ele>440.8</ele><time>2026-04-30T18:24:56.719Z</time></trkpt><trkpt lat="34.4853118" lon="8.2841117"><ele>440.6</ele><time>2026-04-30T18:24:57.705Z</time></trkpt><trkpt lat="34.4852333" lon="8.2841859"><ele>440.4</ele><time>2026-04-30T18:24:58.704Z</time></trkpt><trkpt lat="34.4851464" lon="8.2842752"><ele>440.2</ele><time>2026-04-30T18:24:59.722Z</time></trkpt><trkpt lat="34.4850583" lon="8.2843685"><ele>440.0</ele><time>2026-04-30T18:25:00.719Z</time></trkpt><trkpt lat="34.4849841" lon="8.2844568"><ele>439.99999999999994</ele><time>2026-04-30T18:25:01.719Z</time></trkpt><trkpt lat="34.4849228" lon="8.2845408"><ele>440.0</ele><time>2026-04-30T18:25:02.719Z</time></trkpt><trkpt lat="34.4848631" lon="8.2846116"><ele>440.0</ele><time>2026-04-30T18:25:03.715Z</time></trkpt><trkpt lat="34.4848184" lon="8.2846759"><ele>440.0</ele><time>2026-04-30T18:25:04.728Z</time></trkpt><trkpt lat="34.4847701" lon="8.284736"><ele>439.99999999999994</ele><time>2026-04-30T18:25:05.721Z</time></trkpt><trkpt lat="34.4847319" lon="8.2848019"><ele>440.0</ele><time>2026-04-30T18:25:06.713Z</time></trkpt><trkpt lat="34.484689" lon="8.2848698"><ele>440.2</ele><time>2026-04-30T18:25:07.708Z</time></trkpt><trkpt lat="34.4846458" lon="8.2849373"><ele>440.4</ele><time>2026-04-30T18:25:08.716Z</time></trkpt><trkpt lat="34.4846043" lon="8.2850292"><ele>440.6</ele><time>2026-04-30T18:25:09.718Z</time></trkpt><trkpt lat="34.484559" lon="8.2851404"><ele>440.8</ele><time>2026-04-30T18:25:10.713Z</time></trkpt><trkpt lat="34.4844984" lon="8.2852669"><ele>441.0</ele><time>2026-04-30T18:25:11.711Z</time></trkpt><trkpt lat="34.4844485" lon="8.2853909"><ele>440.6666666666667</ele><time>2026-04-30T18:25:12.719Z</time></trkpt><trkpt lat="34.4844078" lon="8.2855072"><ele>440.33333333333337</ele><time>2026-04-30T18:25:13.727Z</time></trkpt><trkpt lat="34.4843822" lon="8.2856093"><ele>440.0</ele><time>2026-04-30T18:25:14.709Z</time></trkpt><trkpt lat="34.4843633" lon="8.2856893"><ele>439.6666666666667</ele><time>2026-04-30T18:25:15.721Z</time></trkpt><trkpt lat="34.4843434" lon="8.2857643"><ele>439.33333333333337</ele><time>2026-04-30T18:25:16.715Z</time></trkpt><trkpt lat="34.4843149" lon="8.2858613"><ele>439.0</ele><time>2026-04-30T18:25:17.709Z</time></trkpt><trkpt lat="34.4842877" lon="8.2859865"><ele>439.0</ele><time>2026-04-30T18:25:18.715Z</time></trkpt><trkpt lat="34.4842597" lon="8.2861191"><ele>439.0</ele><time>2026-04-30T18:25:19.7Z</time></trkpt><trkpt lat="34.4842441" lon="8.2862564"><ele>439.0</ele><time>2026-04-30T18:25:20.721Z</time></trkpt><trkpt lat="34.4842223" lon="8.286403"><ele>439.0</ele><time>2026-04-30T18:25:21.718Z</time></trkpt><trkpt lat="34.4841991" lon="8.2865441"><ele>438.83333333333337</ele><time>2026-04-30T18:25:22.709Z</time></trkpt><trkpt lat="34.4841818" lon="8.2866843"><ele>438.6666666666667</ele><time>2026-04-30T18:25:23.696Z</time></trkpt><trkpt lat="34.4841646" lon="8.2868088"><ele>438.5</ele><time>2026-04-30T18:25:24.714Z</time></trkpt><trkpt lat="34.4841481" lon="8.2869127"><ele>438.33333333333337</ele><time>2026-04-30T18:25:25.69Z</time></trkpt><trkpt lat="34.4841348" lon="8.2869949"><ele>438.1666666666667</ele><time>2026-04-30T18:25:26.705Z</time></trkpt><trkpt lat="34.4841291" lon="8.2870795"><ele>438.0</ele><time>2026-04-30T18:25:27.68Z</time></trkpt><trkpt lat="34.4841155" lon="8.2871827"><ele>437.5</ele><time>2026-04-30T18:25:28.696Z</time></trkpt><trkpt lat="34.4840945" lon="8.2873086"><ele>437.0</ele><time>2026-04-30T18:25:29.712Z</time></trkpt><trkpt lat="34.4840692" lon="8.2874506"><ele>436.5</ele><time>2026-04-30T18:25:30.688Z</time></trkpt><trkpt lat="34.4840412" lon="8.2876032"><ele>436.0</ele><time>2026-04-30T18:25:31.713Z</time></trkpt><trkpt lat="34.484018" lon="8.2877535"><ele>436.0</ele><time>2026-04-30T18:25:32.71Z</time></trkpt><trkpt lat="34.483994" lon="8.2879126"><ele>436.0</ele><time>2026-04-30T18:25:33.715Z</time></trkpt><trkpt lat="34.4839707" lon="8.2880733"><ele>436.0</ele><time>2026-04-30T18:25:34.726Z</time></trkpt><trkpt lat="34.4839469" lon="8.2882319"><ele>436.0</ele><time>2026-04-30T18:25:35.712Z</time></trkpt><trkpt lat="34.4839232" lon="8.2883863"><ele>436.0</ele><time>2026-04-30T18:25:36.725Z</time></trkpt><trkpt lat="34.4838997" lon="8.2885425"><ele>436.0</ele><time>2026-04-30T18:25:37.707Z</time></trkpt><trkpt lat="34.483879" lon="8.2886978"><ele>436.0</ele><time>2026-04-30T18:25:38.744Z</time></trkpt><trkpt lat="34.4838558" lon="8.2888487"><ele>436.0</ele><time>2026-04-30T18:25:39.712Z</time></trkpt><trkpt lat="34.4838339" lon="8.2889997"><ele>436.0</ele><time>2026-04-30T18:25:40.719Z</time></trkpt><trkpt lat="34.4838145" lon="8.2891455"><ele>436.0</ele><time>2026-04-30T18:25:41.719Z</time></trkpt><trkpt lat="34.4837907" lon="8.2892908"><ele>436.0</ele><time>2026-04-30T18:25:42.734Z</time></trkpt><trkpt lat="34.4837685" lon="8.2894316"><ele>436.0</ele><time>2026-04-30T18:25:43.71Z</time></trkpt><trkpt lat="34.4837483" lon="8.2895696"><ele>435.6</ele><time>2026-04-30T18:25:44.721Z</time></trkpt><trkpt lat="34.4837301" lon="8.2897062"><ele>435.20000000000005</ele><time>2026-04-30T18:25:45.711Z</time></trkpt><trkpt lat="34.4837125" lon="8.2898366"><ele>434.79999999999995</ele><time>2026-04-30T18:25:46.714Z</time></trkpt><trkpt lat="34.4836915" lon="8.2899632"><ele>434.4</ele><time>2026-04-30T18:25:47.724Z</time></trkpt><trkpt lat="34.4836674" lon="8.2900961"><ele>434.0</ele><time>2026-04-30T18:25:48.707Z</time></trkpt><trkpt lat="34.4836438" lon="8.290227"><ele>434.0</ele><time>2026-04-30T18:25:49.723Z</time></trkpt><trkpt lat="34.4836212" lon="8.2903553"><ele>434.0</ele><time>2026-04-30T18:25:50.72Z</time></trkpt><trkpt lat="34.4836013" lon="8.2904828"><ele>434.0</ele><time>2026-04-30T18:25:51.706Z</time></trkpt><trkpt lat="34.4835848" lon="8.2906145"><ele>434.0</ele><time>2026-04-30T18:25:52.713Z</time></trkpt><trkpt lat="34.483562" lon="8.2907533"><ele>434.0</ele><time>2026-04-30T18:25:53.712Z</time></trkpt><trkpt lat="34.4835485" lon="8.2908971"><ele>434.5</ele><time>2026-04-30T18:25:54.713Z</time></trkpt><trkpt lat="34.4835285" lon="8.2910629"><ele>435.0</ele><time>2026-04-30T18:25:55.709Z</time></trkpt><trkpt lat="34.4835047" lon="8.2912256"><ele>435.5</ele><time>2026-04-30T18:25:56.708Z</time></trkpt><trkpt lat="34.4834876" lon="8.2913945"><ele>436.0</ele><time>2026-04-30T18:25:57.716Z</time></trkpt><trkpt lat="34.4834624" lon="8.2915627"><ele>436.25</ele><time>2026-04-30T18:25:58.716Z</time></trkpt><trkpt lat="34.4834381" lon="8.2917395"><ele>436.5</ele><time>2026-04-30T18:25:59.717Z</time></trkpt><trkpt lat="34.4834062" lon="8.2919173"><ele>436.75</ele><time>2026-04-30T18:26:00.712Z</time></trkpt><trkpt lat="34.4833818" lon="8.2920963"><ele>437.0</ele><time>2026-04-30T18:26:01.708Z</time></trkpt><trkpt lat="34.4833551" lon="8.2922658"><ele>437.25</ele><time>2026-04-30T18:26:02.718Z</time></trkpt><trkpt lat="34.4833263" lon="8.2924409"><ele>437.5</ele><time>2026-04-30T18:26:03.712Z</time></trkpt><trkpt lat="34.483304" lon="8.2926033"><ele>437.75</ele><time>2026-04-30T18:26:04.7Z</time></trkpt><trkpt lat="34.4832853" lon="8.2927654"><ele>438.0</ele><time>2026-04-30T18:26:05.714Z</time></trkpt><trkpt lat="34.483262" lon="8.2929291"><ele>437.75</ele><time>2026-04-30T18:26:06.699Z</time></trkpt><trkpt lat="34.4832351" lon="8.293092"><ele>437.5</ele><time>2026-04-30T18:26:07.711Z</time></trkpt><trkpt lat="34.4832077" lon="8.2932605"><ele>437.25</ele><time>2026-04-30T18:26:08.701Z</time></trkpt><trkpt lat="34.4831781" lon="8.2934329"><ele>437.0</ele><time>2026-04-30T18:26:09.715Z</time></trkpt><trkpt lat="34.4831513" lon="8.2935953"><ele>437.0</ele><time>2026-04-30T18:26:10.716Z</time></trkpt><trkpt lat="34.4831258" lon="8.2937578"><ele>437.0</ele><time>2026-04-30T18:26:11.728Z</time></trkpt><trkpt lat="34.4831034" lon="8.2939235"><ele>437.0</ele><time>2026-04-30T18:26:12.713Z</time></trkpt><trkpt lat="34.483082" lon="8.2940905"><ele>437.0</ele><time>2026-04-30T18:26:13.731Z</time></trkpt><trkpt lat="34.4830576" lon="8.2942532"><ele>437.25</ele><time>2026-04-30T18:26:14.705Z</time></trkpt><trkpt lat="34.4830342" lon="8.2944101"><ele>437.5</ele><time>2026-04-30T18:26:15.708Z</time></trkpt><trkpt lat="34.4830073" lon="8.2945673"><ele>437.75</ele><time>2026-04-30T18:26:16.723Z</time></trkpt><trkpt lat="34.4829836" lon="8.2947269"><ele>438.0</ele><time>2026-04-30T18:26:17.728Z</time></trkpt><trkpt lat="34.4829555" lon="8.29489"><ele>437.0</ele><time>2026-04-30T18:26:18.718Z</time></trkpt><trkpt lat="34.4829271" lon="8.2950507"><ele>436.0</ele><time>2026-04-30T18:26:19.721Z</time></trkpt><trkpt lat="34.4829051" lon="8.2952133"><ele>435.0</ele><time>2026-04-30T18:26:20.709Z</time></trkpt><trkpt lat="34.4828816" lon="8.2953733"><ele>434.0</ele><time>2026-04-30T18:26:21.714Z</time></trkpt><trkpt lat="34.4828652" lon="8.2955358"><ele>434.25</ele><time>2026-04-30T18:26:22.717Z</time></trkpt><trkpt lat="34.4828467" lon="8.2956847"><ele>434.5</ele><time>2026-04-30T18:26:23.722Z</time></trkpt><trkpt lat="34.4828258" lon="8.2958288"><ele>434.75</ele><time>2026-04-30T18:26:24.718Z</time></trkpt><trkpt lat="34.4828065" lon="8.2959706"><ele>435.0</ele><time>2026-04-30T18:26:25.723Z</time></trkpt><trkpt lat="34.4827831" lon="8.2961142"><ele>435.0</ele><time>2026-04-30T18:26:26.681Z</time></trkpt><trkpt lat="34.4827627" lon="8.2962657"><ele>435.0</ele><time>2026-04-30T18:26:27.695Z</time></trkpt><trkpt lat="34.4827436" lon="8.2964202"><ele>435.0</ele><time>2026-04-30T18:26:28.711Z</time></trkpt><trkpt lat="34.4827212" lon="8.29657"><ele>435.0</ele><time>2026-04-30T18:26:29.732Z</time></trkpt><trkpt lat="34.4827025" lon="8.29673"><ele>435.0</ele><time>2026-04-30T18:26:30.737Z</time></trkpt><trkpt lat="34.4826806" lon="8.2968864"><ele>435.0</ele><time>2026-04-30T18:26:31.677Z</time></trkpt><trkpt lat="34.4826543" lon="8.2970399"><ele>435.0</ele><time>2026-04-30T18:26:32.741Z</time></trkpt><trkpt lat="34.4826259" lon="8.2972012"><ele>435.0</ele><time>2026-04-30T18:26:33.713Z</time></trkpt><trkpt lat="34.4825984" lon="8.2973589"><ele>435.75</ele><time>2026-04-30T18:26:34.711Z</time></trkpt><trkpt lat="34.4825764" lon="8.2975163"><ele>436.5</ele><time>2026-04-30T18:26:35.725Z</time></trkpt><trkpt lat="34.4825528" lon="8.2976745"><ele>437.25</ele><time>2026-04-30T18:26:36.726Z</time></trkpt><trkpt lat="34.4825304" lon="8.2978279"><ele>438.0</ele><time>2026-04-30T18:26:37.735Z</time></trkpt><trkpt lat="34.4825108" lon="8.2979743"><ele>438.0</ele><time>2026-04-30T18:26:38.697Z</time></trkpt><trkpt lat="34.4824889" lon="8.29812"><ele>438.0</ele><time>2026-04-30T18:26:39.737Z</time></trkpt><trkpt lat="34.4824693" lon="8.2982627"><ele>438.0</ele><time>2026-04-30T18:26:40.713Z</time></trkpt><trkpt lat="34.4824455" lon="8.2984089"><ele>438.0</ele><time>2026-04-30T18:26:41.731Z</time></trkpt><trkpt lat="34.4824256" lon="8.2985562"><ele>438.0</ele><time>2026-04-30T18:26:42.711Z</time></trkpt><trkpt lat="34.4824052" lon="8.2987036"><ele>438.0</ele><time>2026-04-30T18:26:43.743Z</time></trkpt><trkpt lat="34.4823774" lon="8.2988522"><ele>438.0</ele><time>2026-04-30T18:26:44.715Z</time></trkpt><trkpt lat="34.4823527" lon="8.2990016"><ele>438.0</ele><time>2026-04-30T18:26:45.755Z</time></trkpt><trkpt lat="34.4823298" lon="8.2991564"><ele>437.75</ele><time>2026-04-30T18:26:46.73Z</time></trkpt><trkpt lat="34.4823079" lon="8.2993159"><ele>437.5</ele><time>2026-04-30T18:26:47.73Z</time></trkpt><trkpt lat="34.4822866" lon="8.2994719"><ele>437.25</ele><time>2026-04-30T18:26:48.717Z</time></trkpt><trkpt lat="34.482261" lon="8.2996287"><ele>437.0</ele><time>2026-04-30T18:26:49.692Z</time></trkpt><trkpt lat="34.4822411" lon="8.2997908"><ele>436.75</ele><time>2026-04-30T18:26:50.715Z</time></trkpt><trkpt lat="34.4822167" lon="8.2999512"><ele>436.5</ele><time>2026-04-30T18:26:51.728Z</time></trkpt><trkpt lat="34.4821898" lon="8.3001151"><ele>436.25</ele><time>2026-04-30T18:26:52.726Z</time></trkpt><trkpt lat="34.4821611" lon="8.300279"><ele>436.0</ele><time>2026-04-30T18:26:53.686Z</time></trkpt><trkpt lat="34.4821377" lon="8.3004441"><ele>436.0</ele><time>2026-04-30T18:26:54.733Z</time></trkpt><trkpt lat="34.4821134" lon="8.3006095"><ele>436.0</ele><time>2026-04-30T18:26:55.73Z</time></trkpt><trkpt lat="34.482091" lon="8.3007764"><ele>436.0</ele><time>2026-04-30T18:26:56.729Z</time></trkpt><trkpt lat="34.4820676" lon="8.3009458"><ele>436.0</ele><time>2026-04-30T18:26:57.744Z</time></trkpt><trkpt lat="34.4820461" lon="8.3011108"><ele>436.0</ele><time>2026-04-30T18:26:58.748Z</time></trkpt><trkpt lat="34.4820234" lon="8.3012818"><ele>436.0</ele><time>2026-04-30T18:26:59.734Z</time></trkpt><trkpt lat="34.482002" lon="8.3014527"><ele>436.0</ele><time>2026-04-30T18:27:00.726Z</time></trkpt><trkpt lat="34.4819754" lon="8.3016206"><ele>436.0</ele><time>2026-04-30T18:27:01.681Z</time></trkpt><trkpt lat="34.4819481" lon="8.3017908"><ele>436.0</ele><time>2026-04-30T18:27:02.73Z</time></trkpt><trkpt lat="34.481923" lon="8.3019577"><ele>436.0</ele><time>2026-04-30T18:27:03.726Z</time></trkpt><trkpt lat="34.4818949" lon="8.3021299"><ele>436.0</ele><time>2026-04-30T18:27:04.71Z</time></trkpt><trkpt lat="34.481867" lon="8.302309"><ele>436.0</ele><time>2026-04-30T18:27:05.715Z</time></trkpt><trkpt lat="34.4818389" lon="8.3024934"><ele>435.33333333333337</ele><time>2026-04-30T18:27:06.678Z</time></trkpt><trkpt lat="34.4818137" lon="8.3026892"><ele>434.66666666666663</ele><time>2026-04-30T18:27:07.732Z</time></trkpt><trkpt lat="34.4817837" lon="8.3028824"><ele>434.0</ele><time>2026-04-30T18:27:08.727Z</time></trkpt><trkpt lat="34.4817556" lon="8.3030781"><ele>434.66666666666663</ele><time>2026-04-30T18:27:09.731Z</time></trkpt><trkpt lat="34.4817284" lon="8.3032744"><ele>435.33333333333337</ele><time>2026-04-30T18:27:10.737Z</time></trkpt><trkpt lat="34.4816991" lon="8.3034667"><ele>436.0</ele><time>2026-04-30T18:27:11.717Z</time></trkpt><trkpt lat="34.4816715" lon="8.303665"><ele>436.0</ele><time>2026-04-30T18:27:12.741Z</time></trkpt><trkpt lat="34.4816412" lon="8.3038551"><ele>436.0</ele><time>2026-04-30T18:27:13.733Z</time></trkpt><trkpt lat="34.481614" lon="8.304051"><ele>436.0</ele><time>2026-04-30T18:27:14.72Z</time></trkpt><trkpt lat="34.4815899" lon="8.3042454"><ele>435.0</ele><time>2026-04-30T18:27:15.729Z</time></trkpt><trkpt lat="34.4815615" lon="8.3044401"><ele>434.0</ele><time>2026-04-30T18:27:16.741Z</time></trkpt><trkpt lat="34.4815324" lon="8.3046355"><ele>433.0</ele><time>2026-04-30T18:27:17.716Z</time></trkpt><trkpt lat="34.4815021" lon="8.3048328"><ele>433.0</ele><time>2026-04-30T18:27:18.713Z</time></trkpt><trkpt lat="34.481472" lon="8.3050279"><ele>433.0</ele><time>2026-04-30T18:27:19.735Z</time></trkpt><trkpt lat="34.4814462" lon="8.3052218"><ele>433.0</ele><time>2026-04-30T18:27:20.733Z</time></trkpt><trkpt lat="34.481418" lon="8.3054165"><ele>432.6666666666667</ele><time>2026-04-30T18:27:21.743Z</time></trkpt><trkpt lat="34.4813853" lon="8.3056103"><ele>432.33333333333337</ele><time>2026-04-30T18:27:22.735Z</time></trkpt><trkpt lat="34.4813542" lon="8.3058066"><ele>432.0</ele><time>2026-04-30T18:27:23.725Z</time></trkpt><trkpt lat="34.4813163" lon="8.3059982"><ele>432.0</ele><time>2026-04-30T18:27:24.697Z</time></trkpt><trkpt lat="34.4812773" lon="8.306194"><ele>432.0</ele><time>2026-04-30T18:27:25.734Z</time></trkpt><trkpt lat="34.4812283" lon="8.3063933"><ele>432.0</ele><time>2026-04-30T18:27:26.728Z</time></trkpt><trkpt lat="34.4811791" lon="8.3065836"><ele>431.66666666666663</ele><time>2026-04-30T18:27:27.722Z</time></trkpt><trkpt lat="34.4811246" lon="8.3067723"><ele>431.3333333333333</ele><time>2026-04-30T18:27:28.721Z</time></trkpt><trkpt lat="34.4810646" lon="8.3069612"><ele>431.0</ele><time>2026-04-30T18:27:29.734Z</time></trkpt><trkpt lat="34.4810025" lon="8.3071487"><ele>431.0</ele><time>2026-04-30T18:27:30.731Z</time></trkpt><trkpt lat="34.4809388" lon="8.3073345"><ele>431.0</ele><time>2026-04-30T18:27:31.709Z</time></trkpt><trkpt lat="34.4808716" lon="8.3075185"><ele>431.0</ele><time>2026-04-30T18:27:32.721Z</time></trkpt><trkpt lat="34.4808017" lon="8.3076914"><ele>431.0</ele><time>2026-04-30T18:27:33.719Z</time></trkpt><trkpt lat="34.4807296" lon="8.3078696"><ele>431.0</ele><time>2026-04-30T18:27:34.713Z</time></trkpt><trkpt lat="34.4806541" lon="8.3080453"><ele>431.0</ele><time>2026-04-30T18:27:35.746Z</time></trkpt><trkpt lat="34.480575" lon="8.3082248"><ele>430.3333333333333</ele><time>2026-04-30T18:27:36.735Z</time></trkpt><trkpt lat="34.4804963" lon="8.3084006"><ele>429.66666666666663</ele><time>2026-04-30T18:27:37.729Z</time></trkpt><trkpt lat="34.4804158" lon="8.3085752"><ele>429.0</ele><time>2026-04-30T18:27:38.692Z</time></trkpt><trkpt lat="34.4803386" lon="8.308752"><ele>428.33333333333337</ele><time>2026-04-30T18:27:39.73Z</time></trkpt><trkpt lat="34.4802565" lon="8.3089219"><ele>427.6666666666667</ele><time>2026-04-30T18:27:40.726Z</time></trkpt><trkpt lat="34.4801778" lon="8.3090926"><ele>427.0</ele><time>2026-04-30T18:27:41.734Z</time></trkpt><trkpt lat="34.4800967" lon="8.3092773"><ele>427.0</ele><time>2026-04-30T18:27:42.735Z</time></trkpt><trkpt lat="34.4800092" lon="8.3094644"><ele>427.0</ele><time>2026-04-30T18:27:43.73Z</time></trkpt><trkpt lat="34.4799219" lon="8.3096557"><ele>427.0</ele><time>2026-04-30T18:27:44.708Z</time></trkpt><trkpt lat="34.4798385" lon="8.309841"><ele>427.33333333333337</ele><time>2026-04-30T18:27:45.709Z</time></trkpt><trkpt lat="34.4797539" lon="8.3100268"><ele>427.66666666666663</ele><time>2026-04-30T18:27:46.711Z</time></trkpt><trkpt lat="34.479672" lon="8.3102083"><ele>428.0</ele><time>2026-04-30T18:27:47.742Z</time></trkpt><trkpt lat="34.4795935" lon="8.3103826"><ele>427.66666666666663</ele><time>2026-04-30T18:27:48.734Z</time></trkpt><trkpt lat="34.4795088" lon="8.310561"><ele>427.33333333333337</ele><time>2026-04-30T18:27:49.729Z</time></trkpt><trkpt lat="34.4794292" lon="8.3107407"><ele>427.0</ele><time>2026-04-30T18:27:50.748Z</time></trkpt><trkpt lat="34.4793488" lon="8.3109202"><ele>427.0</ele><time>2026-04-30T18:27:51.729Z</time></trkpt><trkpt lat="34.4792655" lon="8.311104"><ele>427.0</ele><time>2026-04-30T18:27:52.728Z</time></trkpt><trkpt lat="34.4791822" lon="8.3112907"><ele>427.0</ele><time>2026-04-30T18:27:53.727Z</time></trkpt><trkpt lat="34.4790968" lon="8.3114705"><ele>427.0</ele><time>2026-04-30T18:27:54.707Z</time></trkpt><trkpt lat="34.479012" lon="8.3116541"><ele>427.0</ele><time>2026-04-30T18:27:55.717Z</time></trkpt><trkpt lat="34.4789306" lon="8.3118367"><ele>427.0</ele><time>2026-04-30T18:27:56.739Z</time></trkpt><trkpt lat="34.4788461" lon="8.3120188"><ele>427.0</ele><time>2026-04-30T18:27:57.742Z</time></trkpt><trkpt lat="34.4787659" lon="8.3122071"><ele>427.0</ele><time>2026-04-30T18:27:58.736Z</time></trkpt><trkpt lat="34.4786852" lon="8.3123843"><ele>427.0</ele><time>2026-04-30T18:27:59.732Z</time></trkpt><trkpt lat="34.4786019" lon="8.3125627"><ele>427.0</ele><time>2026-04-30T18:28:00.728Z</time></trkpt><trkpt lat="34.4785234" lon="8.3127395"><ele>427.0</ele><time>2026-04-30T18:28:01.724Z</time></trkpt><trkpt lat="34.4784495" lon="8.312922"><ele>427.0</ele><time>2026-04-30T18:28:02.738Z</time></trkpt><trkpt lat="34.4783789" lon="8.3131121"><ele>426.33333333333337</ele><time>2026-04-30T18:28:03.733Z</time></trkpt><trkpt lat="34.4783168" lon="8.3133048"><ele>425.66666666666663</ele><time>2026-04-30T18:28:04.732Z</time></trkpt><trkpt lat="34.478256" lon="8.3135002"><ele>425.0</ele><time>2026-04-30T18:28:05.71Z</time></trkpt><trkpt lat="34.4781957" lon="8.3136928"><ele>425.0</ele><time>2026-04-30T18:28:06.737Z</time></trkpt><trkpt lat="34.4781441" lon="8.3138869"><ele>425.0</ele><time>2026-04-30T18:28:07.753Z</time></trkpt><trkpt lat="34.4781021" lon="8.3140881"><ele>425.0</ele><time>2026-04-30T18:28:08.733Z</time></trkpt><trkpt lat="34.4780647" lon="8.3142915"><ele>424.66666666666663</ele><time>2026-04-30T18:28:09.702Z</time></trkpt><trkpt lat="34.4780365" lon="8.3144932"><ele>424.33333333333337</ele><time>2026-04-30T18:28:10.713Z</time></trkpt><trkpt lat="34.4780102" lon="8.3146987"><ele>424.0</ele><time>2026-04-30T18:28:11.721Z</time></trkpt><trkpt lat="34.4779841" lon="8.3149023"><ele>424.0</ele><time>2026-04-30T18:28:12.726Z</time></trkpt><trkpt lat="34.4779605" lon="8.3151081"><ele>424.0</ele><time>2026-04-30T18:28:13.716Z</time></trkpt><trkpt lat="34.4779432" lon="8.3153112"><ele>424.0</ele><time>2026-04-30T18:28:14.735Z</time></trkpt><trkpt lat="34.4779288" lon="8.3155182"><ele>423.33333333333337</ele><time>2026-04-30T18:28:15.735Z</time></trkpt><trkpt lat="34.4779166" lon="8.3157247"><ele>422.66666666666663</ele><time>2026-04-30T18:28:16.728Z</time></trkpt><trkpt lat="34.4779045" lon="8.3159383"><ele>422.0</ele><time>2026-04-30T18:28:17.75Z</time></trkpt><trkpt lat="34.4778944" lon="8.3161463"><ele>422.0</ele><time>2026-04-30T18:28:18.732Z</time></trkpt><trkpt lat="34.4778841" lon="8.3163517"><ele>422.0</ele><time>2026-04-30T18:28:19.733Z</time></trkpt><trkpt lat="34.4778739" lon="8.3165623"><ele>422.0</ele><time>2026-04-30T18:28:20.729Z</time></trkpt><trkpt lat="34.4778632" lon="8.3167689"><ele>422.0</ele><time>2026-04-30T18:28:21.728Z</time></trkpt><trkpt lat="34.4778472" lon="8.3169744"><ele>422.0</ele><time>2026-04-30T18:28:22.735Z</time></trkpt><trkpt lat="34.4778352" lon="8.3171788"><ele>422.0</ele><time>2026-04-30T18:28:23.733Z</time></trkpt><trkpt lat="34.4778206" lon="8.3173888"><ele>422.0</ele><time>2026-04-30T18:28:24.728Z</time></trkpt><trkpt lat="34.4778099" lon="8.3175934"><ele>422.0</ele><time>2026-04-30T18:28:25.734Z</time></trkpt><trkpt lat="34.4777944" lon="8.3178001"><ele>422.0</ele><time>2026-04-30T18:28:26.732Z</time></trkpt><trkpt lat="34.4777827" lon="8.318007"><ele>421.66666666666663</ele><time>2026-04-30T18:28:27.718Z</time></trkpt><trkpt lat="34.4777714" lon="8.3182147"><ele>421.33333333333337</ele><time>2026-04-30T18:28:28.742Z</time></trkpt><trkpt lat="34.4777633" lon="8.3184222"><ele>421.0</ele><time>2026-04-30T18:28:29.733Z</time></trkpt><trkpt lat="34.4777559" lon="8.3186283"><ele>421.0</ele><time>2026-04-30T18:28:30.728Z</time></trkpt><trkpt lat="34.4777432" lon="8.3188342"><ele>421.0</ele><time>2026-04-30T18:28:31.736Z</time></trkpt><trkpt lat="34.4777324" lon="8.3190388"><ele>421.0</ele><time>2026-04-30T18:28:32.741Z</time></trkpt><trkpt lat="34.4777204" lon="8.3192436"><ele>421.33333333333337</ele><time>2026-04-30T18:28:33.716Z</time></trkpt><trkpt lat="34.4777114" lon="8.3194478"><ele>421.66666666666663</ele><time>2026-04-30T18:28:34.691Z</time></trkpt><trkpt lat="34.4777001" lon="8.3196589"><ele>422.0</ele><time>2026-04-30T18:28:35.732Z</time></trkpt><trkpt lat="34.4776876" lon="8.3198695"><ele>422.0</ele><time>2026-04-30T18:28:36.72Z</time></trkpt><trkpt lat="34.477677" lon="8.3200795"><ele>422.0</ele><time>2026-04-30T18:28:37.741Z</time></trkpt><trkpt lat="34.4776675" lon="8.320286"><ele>422.0</ele><time>2026-04-30T18:28:38.707Z</time></trkpt><trkpt lat="34.4776564" lon="8.3204953"><ele>421.3333333333333</ele><time>2026-04-30T18:28:39.74Z</time></trkpt><trkpt lat="34.477645" lon="8.3206991"><ele>420.66666666666663</ele><time>2026-04-30T18:28:40.732Z</time></trkpt><trkpt lat="34.4776302" lon="8.3209007"><ele>420.0</ele><time>2026-04-30T18:28:41.713Z</time></trkpt><trkpt lat="34.4776156" lon="8.3211095"><ele>420.0</ele><time>2026-04-30T18:28:42.727Z</time></trkpt><trkpt lat="34.477603" lon="8.321317"><ele>420.0</ele><time>2026-04-30T18:28:43.737Z</time></trkpt><trkpt lat="34.477591" lon="8.3215211"><ele>420.0</ele><time>2026-04-30T18:28:44.736Z</time></trkpt><trkpt lat="34.4775791" lon="8.3217302"><ele>420.0</ele><time>2026-04-30T18:28:45.731Z</time></trkpt><trkpt lat="34.4775671" lon="8.3219365"><ele>420.0</ele><time>2026-04-30T18:28:46.719Z</time></trkpt><trkpt lat="34.4775545" lon="8.3221381"><ele>420.0</ele><time>2026-04-30T18:28:47.735Z</time></trkpt><trkpt lat="34.4775384" lon="8.3223467"><ele>420.0</ele><time>2026-04-30T18:28:48.739Z</time></trkpt><trkpt lat="34.4775303" lon="8.3225546"><ele>420.0</ele><time>2026-04-30T18:28:49.729Z</time></trkpt><trkpt lat="34.4775214" lon="8.3227702"><ele>420.0</ele><time>2026-04-30T18:28:50.707Z</time></trkpt><trkpt lat="34.4775047" lon="8.3229828"><ele>420.0</ele><time>2026-04-30T18:28:51.736Z</time></trkpt><trkpt lat="34.4774922" lon="8.3232021"><ele>420.0</ele><time>2026-04-30T18:28:52.732Z</time></trkpt><trkpt lat="34.477481" lon="8.323424"><ele>420.0</ele><time>2026-04-30T18:28:53.737Z</time></trkpt><trkpt lat="34.4774674" lon="8.3236427"><ele>420.0</ele><time>2026-04-30T18:28:54.725Z</time></trkpt><trkpt lat="34.4774562" lon="8.3238632"><ele>420.0</ele><time>2026-04-30T18:28:55.731Z</time></trkpt><trkpt lat="34.4774451" lon="8.3240798"><ele>420.0</ele><time>2026-04-30T18:28:56.73Z</time></trkpt><trkpt lat="34.4774315" lon="8.3243014"><ele>420.33333333333337</ele><time>2026-04-30T18:28:57.74Z</time></trkpt><trkpt lat="34.4774206" lon="8.3245378"><ele>420.6666666666667</ele><time>2026-04-30T18:28:58.723Z</time></trkpt><trkpt lat="34.4774046" lon="8.324774"><ele>421.0</ele><time>2026-04-30T18:28:59.705Z</time></trkpt><trkpt lat="34.4773914" lon="8.3250121"><ele>420.33333333333337</ele><time>2026-04-30T18:29:00.727Z</time></trkpt><trkpt lat="34.4773806" lon="8.3252553"><ele>419.66666666666663</ele><time>2026-04-30T18:29:01.722Z</time></trkpt><trkpt lat="34.4773631" lon="8.3254891"><ele>419.0</ele><time>2026-04-30T18:29:02.726Z</time></trkpt><trkpt lat="34.477356" lon="8.3257261"><ele>419.0</ele><time>2026-04-30T18:29:03.729Z</time></trkpt><trkpt lat="34.477348" lon="8.325968"><ele>419.0</ele><time>2026-04-30T18:29:04.726Z</time></trkpt><trkpt lat="34.4773427" lon="8.326214"><ele>419.0</ele><time>2026-04-30T18:29:05.746Z</time></trkpt><trkpt lat="34.477341" lon="8.3264556"><ele>418.66666666666663</ele><time>2026-04-30T18:29:06.74Z</time></trkpt><trkpt lat="34.4773408" lon="8.3267067"><ele>418.33333333333337</ele><time>2026-04-30T18:29:07.745Z</time></trkpt><trkpt lat="34.4773412" lon="8.3269559"><ele>418.0</ele><time>2026-04-30T18:29:08.734Z</time></trkpt><trkpt lat="34.4773438" lon="8.3272014"><ele>418.0</ele><time>2026-04-30T18:29:09.727Z</time></trkpt><trkpt lat="34.4773492" lon="8.3274516"><ele>418.0</ele><time>2026-04-30T18:29:10.735Z</time></trkpt><trkpt lat="34.4773557" lon="8.3276968"><ele>418.0</ele><time>2026-04-30T18:29:11.7Z</time></trkpt><trkpt lat="34.4773652" lon="8.3279401"><ele>417.6666666666667</ele><time>2026-04-30T18:29:12.739Z</time></trkpt><trkpt lat="34.4773756" lon="8.3281808"><ele>417.33333333333337</ele><time>2026-04-30T18:29:13.741Z</time></trkpt><trkpt lat="34.4773893" lon="8.3284148"><ele>417.0</ele><time>2026-04-30T18:29:14.731Z</time></trkpt><trkpt lat="34.4774034" lon="8.3286446"><ele>417.0</ele><time>2026-04-30T18:29:15.728Z</time></trkpt><trkpt lat="34.477417" lon="8.3288756"><ele>417.0</ele><time>2026-04-30T18:29:16.731Z</time></trkpt><trkpt lat="34.4774293" lon="8.3291071"><ele>417.0</ele><time>2026-04-30T18:29:17.733Z</time></trkpt><trkpt lat="34.4774403" lon="8.3293317"><ele>416.66666666666663</ele><time>2026-04-30T18:29:18.74Z</time></trkpt><trkpt lat="34.4774539" lon="8.3295547"><ele>416.3333333333333</ele><time>2026-04-30T18:29:19.718Z</time></trkpt><trkpt lat="34.4774663" lon="8.3297745"><ele>416.0</ele><time>2026-04-30T18:29:20.733Z</time></trkpt><trkpt lat="34.4774798" lon="8.329996"><ele>416.0</ele><time>2026-04-30T18:29:21.742Z</time></trkpt><trkpt lat="34.4774945" lon="8.3302134"><ele>416.0</ele><time>2026-04-30T18:29:22.735Z</time></trkpt><trkpt lat="34.4775063" lon="8.3304345"><ele>416.0</ele><time>2026-04-30T18:29:23.748Z</time></trkpt><trkpt lat="34.477515" lon="8.3306554"><ele>416.0</ele><time>2026-04-30T18:29:24.735Z</time></trkpt><trkpt lat="34.4775258" lon="8.330878"><ele>416.0</ele><time>2026-04-30T18:29:25.74Z</time></trkpt><trkpt lat="34.4775358" lon="8.331101"><ele>416.0</ele><time>2026-04-30T18:29:26.725Z</time></trkpt><trkpt lat="34.4775449" lon="8.3313287"><ele>415.3333333333333</ele><time>2026-04-30T18:29:27.724Z</time></trkpt><trkpt lat="34.4775567" lon="8.331554"><ele>414.66666666666663</ele><time>2026-04-30T18:29:28.75Z</time></trkpt><trkpt lat="34.4775687" lon="8.3317791"><ele>414.0</ele><time>2026-04-30T18:29:29.748Z</time></trkpt><trkpt lat="34.4775878" lon="8.3320003"><ele>414.0</ele><time>2026-04-30T18:29:30.734Z</time></trkpt><trkpt lat="34.4776013" lon="8.3322176"><ele>414.0</ele><time>2026-04-30T18:29:31.71Z</time></trkpt><trkpt lat="34.477616" lon="8.3324377"><ele>414.0</ele><time>2026-04-30T18:29:32.705Z</time></trkpt><trkpt lat="34.4776293" lon="8.3326544"><ele>413.66666666666663</ele><time>2026-04-30T18:29:33.743Z</time></trkpt><trkpt lat="34.4776412" lon="8.3328791"><ele>413.3333333333333</ele><time>2026-04-30T18:29:34.705Z</time></trkpt><trkpt lat="34.4776525" lon="8.3331033"><ele>413.0</ele><time>2026-04-30T18:29:35.734Z</time></trkpt><trkpt lat="34.4776609" lon="8.3333258"><ele>412.66666666666663</ele><time>2026-04-30T18:29:36.729Z</time></trkpt><trkpt lat="34.4776736" lon="8.3335496"><ele>412.33333333333337</ele><time>2026-04-30T18:29:37.735Z</time></trkpt><trkpt lat="34.4776898" lon="8.3337775"><ele>412.0</ele><time>2026-04-30T18:29:38.755Z</time></trkpt><trkpt lat="34.4777067" lon="8.3340008"><ele>412.0</ele><time>2026-04-30T18:29:39.7Z</time></trkpt><trkpt lat="34.4777148" lon="8.3342323"><ele>412.0</ele><time>2026-04-30T18:29:40.724Z</time></trkpt><trkpt lat="34.4777282" lon="8.3344641"><ele>412.0</ele><time>2026-04-30T18:29:41.73Z</time></trkpt><trkpt lat="34.4777421" lon="8.3346974"><ele>412.33333333333337</ele><time>2026-04-30T18:29:42.719Z</time></trkpt><trkpt lat="34.4777535" lon="8.3349274"><ele>412.66666666666663</ele><time>2026-04-30T18:29:43.706Z</time></trkpt><trkpt lat="34.4777656" lon="8.3351578"><ele>413.0</ele><time>2026-04-30T18:29:44.699Z</time></trkpt><trkpt lat="34.4777786" lon="8.3353908"><ele>412.66666666666663</ele><time>2026-04-30T18:29:45.714Z</time></trkpt><trkpt lat="34.4777939" lon="8.335619"><ele>412.33333333333337</ele><time>2026-04-30T18:29:46.734Z</time></trkpt><trkpt lat="34.4778087" lon="8.3358522"><ele>412.0</ele><time>2026-04-30T18:29:47.732Z</time></trkpt><trkpt lat="34.477821" lon="8.3360867"><ele>412.0</ele><time>2026-04-30T18:29:48.742Z</time></trkpt><trkpt lat="34.4778333" lon="8.3363234"><ele>412.0</ele><time>2026-04-30T18:29:49.73Z</time></trkpt><trkpt lat="34.4778461" lon="8.3365568"><ele>412.0</ele><time>2026-04-30T18:29:50.736Z</time></trkpt><trkpt lat="34.477859" lon="8.3367898"><ele>411.6666666666667</ele><time>2026-04-30T18:29:51.729Z</time></trkpt><trkpt lat="34.4778723" lon="8.3370219"><ele>411.33333333333337</ele><time>2026-04-30T18:29:52.733Z</time></trkpt><trkpt lat="34.4778822" lon="8.3372586"><ele>411.0</ele><time>2026-04-30T18:29:53.741Z</time></trkpt><trkpt lat="34.4778931" lon="8.3374924"><ele>411.0</ele><time>2026-04-30T18:29:54.703Z</time></trkpt><trkpt lat="34.477906" lon="8.3377269"><ele>411.0</ele><time>2026-04-30T18:29:55.741Z</time></trkpt><trkpt lat="34.4779198" lon="8.3379615"><ele>411.0</ele><time>2026-04-30T18:29:56.741Z</time></trkpt><trkpt lat="34.477935" lon="8.3381935"><ele>411.33333333333337</ele><time>2026-04-30T18:29:57.737Z</time></trkpt><trkpt lat="34.4779492" lon="8.3384274"><ele>411.6666666666667</ele><time>2026-04-30T18:29:58.746Z</time></trkpt><trkpt lat="34.47796" lon="8.3386637"><ele>412.0</ele><time>2026-04-30T18:29:59.725Z</time></trkpt><trkpt lat="34.4779736" lon="8.3389018"><ele>411.33333333333337</ele><time>2026-04-30T18:30:00.736Z</time></trkpt><trkpt lat="34.4779835" lon="8.3391426"><ele>410.66666666666663</ele><time>2026-04-30T18:30:01.751Z</time></trkpt><trkpt lat="34.4780004" lon="8.3393756"><ele>410.0</ele><time>2026-04-30T18:30:02.709Z</time></trkpt><trkpt lat="34.4780152" lon="8.3396067"><ele>410.66666666666663</ele><time>2026-04-30T18:30:03.728Z</time></trkpt><trkpt lat="34.4780272" lon="8.3398384"><ele>411.33333333333337</ele><time>2026-04-30T18:30:04.729Z</time></trkpt><trkpt lat="34.478041" lon="8.3400714"><ele>412.0</ele><time>2026-04-30T18:30:05.731Z</time></trkpt><trkpt lat="34.4780537" lon="8.3403021"><ele>412.0</ele><time>2026-04-30T18:30:06.731Z</time></trkpt><trkpt lat="34.4780597" lon="8.3405366"><ele>412.0</ele><time>2026-04-30T18:30:07.75Z</time></trkpt><trkpt lat="34.4780744" lon="8.3407661"><ele>412.0</ele><time>2026-04-30T18:30:08.735Z</time></trkpt><trkpt lat="34.4780835" lon="8.3409878"><ele>412.0</ele><time>2026-04-30T18:30:09.698Z</time></trkpt><trkpt lat="34.4780912" lon="8.3412115"><ele>412.0</ele><time>2026-04-30T18:30:10.717Z</time></trkpt><trkpt lat="34.4781037" lon="8.3414363"><ele>412.0</ele><time>2026-04-30T18:30:11.737Z</time></trkpt><trkpt lat="34.4781154" lon="8.3416586"><ele>412.0</ele><time>2026-04-30T18:30:12.725Z</time></trkpt><trkpt lat="34.4781286" lon="8.3418789"><ele>412.0</ele><time>2026-04-30T18:30:13.729Z</time></trkpt><trkpt lat="34.4781445" lon="8.3420953"><ele>412.0</ele><time>2026-04-30T18:30:14.725Z</time></trkpt><trkpt lat="34.4781592" lon="8.342316"><ele>411.6666666666667</ele><time>2026-04-30T18:30:15.73Z</time></trkpt><trkpt lat="34.4781706" lon="8.3425394"><ele>411.33333333333337</ele><time>2026-04-30T18:30:16.741Z</time></trkpt><trkpt lat="34.4781795" lon="8.3427663"><ele>411.0</ele><time>2026-04-30T18:30:17.7Z</time></trkpt><trkpt lat="34.4781934" lon="8.3429891"><ele>411.0</ele><time>2026-04-30T18:30:18.676Z</time></trkpt><trkpt lat="34.4782029" lon="8.3432149"><ele>411.0</ele><time>2026-04-30T18:30:19.744Z</time></trkpt><trkpt lat="34.4782146" lon="8.3434367"><ele>411.0</ele><time>2026-04-30T18:30:20.735Z</time></trkpt><trkpt lat="34.4782254" lon="8.343655"><ele>411.0</ele><time>2026-04-30T18:30:21.754Z</time></trkpt><trkpt lat="34.4782394" lon="8.3438672"><ele>411.0</ele><time>2026-04-30T18:30:22.715Z</time></trkpt><trkpt lat="34.478252" lon="8.3440814"><ele>411.0</ele><time>2026-04-30T18:30:23.684Z</time></trkpt><trkpt lat="34.478261" lon="8.3442893"><ele>410.66666666666663</ele><time>2026-04-30T18:30:24.694Z</time></trkpt><trkpt lat="34.4782707" lon="8.344495"><ele>410.3333333333333</ele><time>2026-04-30T18:30:25.735Z</time></trkpt><trkpt lat="34.4782833" lon="8.3446935"><ele>410.0</ele><time>2026-04-30T18:30:26.733Z</time></trkpt><trkpt lat="34.4782876" lon="8.3448815"><ele>409.75</ele><time>2026-04-30T18:30:27.72Z</time></trkpt><trkpt lat="34.4783003" lon="8.3450617"><ele>409.5</ele><time>2026-04-30T18:30:28.73Z</time></trkpt><trkpt lat="34.4783108" lon="8.3452297"><ele>409.25</ele><time>2026-04-30T18:30:29.727Z</time></trkpt><trkpt lat="34.4783204" lon="8.3453888"><ele>409.0</ele><time>2026-04-30T18:30:30.736Z</time></trkpt><trkpt lat="34.478329" lon="8.3455268"><ele>409.00000000000006</ele><time>2026-04-30T18:30:31.734Z</time></trkpt><trkpt lat="34.4783373" lon="8.3456515"><ele>409.0</ele><time>2026-04-30T18:30:32.727Z</time></trkpt><trkpt lat="34.4783425" lon="8.3457619"><ele>409.0</ele><time>2026-04-30T18:30:33.721Z</time></trkpt><trkpt lat="34.4783507" lon="8.3458565"><ele>409.0</ele><time>2026-04-30T18:30:34.739Z</time></trkpt><trkpt lat="34.4783637" lon="8.3459414"><ele>409.00000000000006</ele><time>2026-04-30T18:30:35.733Z</time></trkpt><trkpt lat="34.4783769" lon="8.3460233"><ele>409.0</ele><time>2026-04-30T18:30:36.737Z</time></trkpt><trkpt lat="34.4784016" lon="8.3461735"><ele>409.00000000000006</ele><time>2026-04-30T18:30:38.743Z</time></trkpt><trkpt lat="34.4784064" lon="8.3462523"><ele>409.0</ele><time>2026-04-30T18:30:39.722Z</time></trkpt><trkpt lat="34.4784004" lon="8.346331"><ele>409.0</ele><time>2026-04-30T18:30:40.732Z</time></trkpt><trkpt lat="34.4783986" lon="8.3464186"><ele>409.0</ele><time>2026-04-30T18:30:41.736Z</time></trkpt><trkpt lat="34.4784005" lon="8.3465108"><ele>409.00000000000006</ele><time>2026-04-30T18:30:42.732Z</time></trkpt><trkpt lat="34.4784056" lon="8.3466172"><ele>409.0</ele><time>2026-04-30T18:30:43.733Z</time></trkpt><trkpt lat="34.4784022" lon="8.3467315"><ele>408.25</ele><time>2026-04-30T18:30:44.735Z</time></trkpt><trkpt lat="34.4784098" lon="8.3468482"><ele>407.5</ele><time>2026-04-30T18:30:45.727Z</time></trkpt><trkpt lat="34.4784246" lon="8.3469887"><ele>406.75</ele><time>2026-04-30T18:30:46.713Z</time></trkpt><trkpt lat="34.478443" lon="8.3471452"><ele>406.0</ele><time>2026-04-30T18:30:47.694Z</time></trkpt><trkpt lat="34.4784502" lon="8.3473152"><ele>406.0</ele><time>2026-04-30T18:30:48.7Z</time></trkpt><trkpt lat="34.4784571" lon="8.3475018"><ele>406.0</ele><time>2026-04-30T18:30:49.733Z</time></trkpt><trkpt lat="34.4784646" lon="8.3477006"><ele>406.0</ele><time>2026-04-30T18:30:50.724Z</time></trkpt><trkpt lat="34.4784714" lon="8.3479083"><ele>406.6666666666667</ele><time>2026-04-30T18:30:51.712Z</time></trkpt><trkpt lat="34.4784767" lon="8.3481277"><ele>407.33333333333337</ele><time>2026-04-30T18:30:52.698Z</time></trkpt><trkpt lat="34.4784887" lon="8.3483545"><ele>408.0</ele><time>2026-04-30T18:30:53.738Z</time></trkpt><trkpt lat="34.4785015" lon="8.3485861"><ele>408.0</ele><time>2026-04-30T18:30:54.743Z</time></trkpt><trkpt lat="34.4785145" lon="8.3488162"><ele>408.0</ele><time>2026-04-30T18:30:55.735Z</time></trkpt><trkpt lat="34.4785225" lon="8.3490485"><ele>408.0</ele><time>2026-04-30T18:30:56.73Z</time></trkpt><trkpt lat="34.4785347" lon="8.3492796"><ele>407.33333333333337</ele><time>2026-04-30T18:30:57.728Z</time></trkpt><trkpt lat="34.4785458" lon="8.3495086"><ele>406.6666666666667</ele><time>2026-04-30T18:30:58.708Z</time></trkpt><trkpt lat="34.478557" lon="8.3497414"><ele>406.0</ele><time>2026-04-30T18:30:59.713Z</time></trkpt><trkpt lat="34.4785668" lon="8.3499773"><ele>405.6666666666667</ele><time>2026-04-30T18:31:00.731Z</time></trkpt><trkpt lat="34.4785761" lon="8.3502137"><ele>405.33333333333337</ele><time>2026-04-30T18:31:01.735Z</time></trkpt><trkpt lat="34.4785867" lon="8.3504506"><ele>405.0</ele><time>2026-04-30T18:31:02.741Z</time></trkpt><trkpt lat="34.478597" lon="8.3506853"><ele>405.0</ele><time>2026-04-30T18:31:03.726Z</time></trkpt><trkpt lat="34.4786072" lon="8.3509206"><ele>405.0</ele><time>2026-04-30T18:31:04.733Z</time></trkpt><trkpt lat="34.4786165" lon="8.3511612"><ele>405.0</ele><time>2026-04-30T18:31:05.729Z</time></trkpt><trkpt lat="34.4786301" lon="8.3513952"><ele>405.0</ele><time>2026-04-30T18:31:06.734Z</time></trkpt><trkpt lat="34.4786425" lon="8.3516267"><ele>405.0</ele><time>2026-04-30T18:31:07.737Z</time></trkpt><trkpt lat="34.4786566" lon="8.3518639"><ele>405.0</ele><time>2026-04-30T18:31:08.709Z</time></trkpt><trkpt lat="34.4786671" lon="8.3520965"><ele>404.66666666666663</ele><time>2026-04-30T18:31:09.739Z</time></trkpt><trkpt lat="34.47868" lon="8.3523358"><ele>404.3333333333333</ele><time>2026-04-30T18:31:10.737Z</time></trkpt><trkpt lat="34.4786937" lon="8.3525725"><ele>404.0</ele><time>2026-04-30T18:31:11.737Z</time></trkpt><trkpt lat="34.4787031" lon="8.3528069"><ele>404.0</ele><time>2026-04-30T18:31:12.708Z</time></trkpt><trkpt lat="34.4787178" lon="8.3530378"><ele>404.0</ele><time>2026-04-30T18:31:13.735Z</time></trkpt><trkpt lat="34.4787341" lon="8.3532749"><ele>404.0</ele><time>2026-04-30T18:31:14.753Z</time></trkpt><trkpt lat="34.478751" lon="8.35351"><ele>404.0</ele><time>2026-04-30T18:31:15.709Z</time></trkpt><trkpt lat="34.4787632" lon="8.3537462"><ele>404.0</ele><time>2026-04-30T18:31:16.733Z</time></trkpt><trkpt lat="34.4787748" lon="8.3539802"><ele>404.0</ele><time>2026-04-30T18:31:17.737Z</time></trkpt><trkpt lat="34.4787791" lon="8.3542197"><ele>403.66666666666663</ele><time>2026-04-30T18:31:18.735Z</time></trkpt><trkpt lat="34.4787737" lon="8.3544519"><ele>403.33333333333337</ele><time>2026-04-30T18:31:19.731Z</time></trkpt><trkpt lat="34.4787676" lon="8.3546905"><ele>403.0</ele><time>2026-04-30T18:31:20.702Z</time></trkpt><trkpt lat="34.4787549" lon="8.354925"><ele>403.0</ele><time>2026-04-30T18:31:21.732Z</time></trkpt><trkpt lat="34.478737" lon="8.3551569"><ele>403.0</ele><time>2026-04-30T18:31:22.711Z</time></trkpt><trkpt lat="34.4787199" lon="8.3553855"><ele>403.0</ele><time>2026-04-30T18:31:23.743Z</time></trkpt><trkpt lat="34.4787154" lon="8.3555946"><ele>403.0</ele><time>2026-04-30T18:31:24.719Z</time></trkpt><trkpt lat="34.4787146" lon="8.3558001"><ele>403.0</ele><time>2026-04-30T18:31:25.738Z</time></trkpt><trkpt lat="34.4787235" lon="8.3560027"><ele>403.0</ele><time>2026-04-30T18:31:26.736Z</time></trkpt><trkpt lat="34.478753" lon="8.3562085"><ele>402.6666666666667</ele><time>2026-04-30T18:31:27.71Z</time></trkpt><trkpt lat="34.4787861" lon="8.3564204"><ele>402.33333333333337</ele><time>2026-04-30T18:31:28.724Z</time></trkpt><trkpt lat="34.4788313" lon="8.3566363"><ele>402.0</ele><time>2026-04-30T18:31:29.712Z</time></trkpt><trkpt lat="34.478884" lon="8.3568469"><ele>402.0</ele><time>2026-04-30T18:31:30.743Z</time></trkpt><trkpt lat="34.4789423" lon="8.3570585"><ele>402.0</ele><time>2026-04-30T18:31:31.742Z</time></trkpt><trkpt lat="34.4790056" lon="8.3572728"><ele>402.0</ele><time>2026-04-30T18:31:32.714Z</time></trkpt><trkpt lat="34.4790698" lon="8.3574847"><ele>401.33333333333337</ele><time>2026-04-30T18:31:33.724Z</time></trkpt><trkpt lat="34.4791356" lon="8.3576967"><ele>400.6666666666667</ele><time>2026-04-30T18:31:34.717Z</time></trkpt><trkpt lat="34.4791993" lon="8.3579098"><ele>400.0</ele><time>2026-04-30T18:31:35.736Z</time></trkpt><trkpt lat="34.4792638" lon="8.3581209"><ele>399.33333333333337</ele><time>2026-04-30T18:31:36.741Z</time></trkpt><trkpt lat="34.4793283" lon="8.3583349"><ele>398.66666666666663</ele><time>2026-04-30T18:31:37.725Z</time></trkpt><trkpt lat="34.4793897" lon="8.358547"><ele>398.0</ele><time>2026-04-30T18:31:38.732Z</time></trkpt><trkpt lat="34.4794448" lon="8.3587609"><ele>398.0</ele><time>2026-04-30T18:31:39.719Z</time></trkpt><trkpt lat="34.4794997" lon="8.3589654"><ele>398.0</ele><time>2026-04-30T18:31:40.716Z</time></trkpt><trkpt lat="34.4795554" lon="8.3591698"><ele>398.0</ele><time>2026-04-30T18:31:41.733Z</time></trkpt><trkpt lat="34.479607" lon="8.3593743"><ele>398.66666666666663</ele><time>2026-04-30T18:31:42.737Z</time></trkpt><trkpt lat="34.4796588" lon="8.359577"><ele>399.33333333333337</ele><time>2026-04-30T18:31:43.748Z</time></trkpt><trkpt lat="34.4797119" lon="8.3597795"><ele>400.0</ele><time>2026-04-30T18:31:44.727Z</time></trkpt><trkpt lat="34.4797655" lon="8.3599769"><ele>401.0</ele><time>2026-04-30T18:31:45.729Z</time></trkpt><trkpt lat="34.4798187" lon="8.3601812"><ele>402.0</ele><time>2026-04-30T18:31:46.729Z</time></trkpt><trkpt lat="34.4798712" lon="8.3603822"><ele>403.0</ele><time>2026-04-30T18:31:47.707Z</time></trkpt><trkpt lat="34.4799234" lon="8.3605863"><ele>403.6666666666667</ele><time>2026-04-30T18:31:48.742Z</time></trkpt><trkpt lat="34.4799789" lon="8.3607886"><ele>404.33333333333337</ele><time>2026-04-30T18:31:49.737Z</time></trkpt><trkpt lat="34.4800335" lon="8.3609964"><ele>405.0</ele><time>2026-04-30T18:31:50.73Z</time></trkpt><trkpt lat="34.4800885" lon="8.3612039"><ele>404.0</ele><time>2026-04-30T18:31:51.736Z</time></trkpt><trkpt lat="34.4801442" lon="8.3614078"><ele>403.0</ele><time>2026-04-30T18:31:52.725Z</time></trkpt><trkpt lat="34.4801978" lon="8.361612"><ele>402.0</ele><time>2026-04-30T18:31:53.738Z</time></trkpt><trkpt lat="34.4802523" lon="8.3618142"><ele>402.0</ele><time>2026-04-30T18:31:54.742Z</time></trkpt><trkpt lat="34.4803094" lon="8.3620159"><ele>402.0</ele><time>2026-04-30T18:31:55.73Z</time></trkpt><trkpt lat="34.4803648" lon="8.3622206"><ele>402.0</ele><time>2026-04-30T18:31:56.74Z</time></trkpt><trkpt lat="34.48042" lon="8.3624215"><ele>401.66666666666663</ele><time>2026-04-30T18:31:57.713Z</time></trkpt><trkpt lat="34.4804746" lon="8.3626246"><ele>401.3333333333333</ele><time>2026-04-30T18:31:58.716Z</time></trkpt><trkpt lat="34.4805332" lon="8.362825"><ele>401.0</ele><time>2026-04-30T18:31:59.741Z</time></trkpt><trkpt lat="34.4805896" lon="8.3630252"><ele>400.66666666666663</ele><time>2026-04-30T18:32:00.73Z</time></trkpt><trkpt lat="34.4806466" lon="8.3632266"><ele>400.33333333333337</ele><time>2026-04-30T18:32:01.743Z</time></trkpt><trkpt lat="34.4807024" lon="8.3634271"><ele>400.0</ele><time>2026-04-30T18:32:02.742Z</time></trkpt><trkpt lat="34.4807533" lon="8.3636194"><ele>400.0</ele><time>2026-04-30T18:32:03.733Z</time></trkpt><trkpt lat="34.480808" lon="8.3638164"><ele>400.0</ele><time>2026-04-30T18:32:04.738Z</time></trkpt><trkpt lat="34.4808652" lon="8.3640113"><ele>400.0</ele><time>2026-04-30T18:32:05.744Z</time></trkpt><trkpt lat="34.4809195" lon="8.3642073"><ele>400.33333333333337</ele><time>2026-04-30T18:32:06.7Z</time></trkpt><trkpt lat="34.4809704" lon="8.3644124"><ele>400.66666666666663</ele><time>2026-04-30T18:32:07.723Z</time></trkpt><trkpt lat="34.4810192" lon="8.3646151"><ele>401.0</ele><time>2026-04-30T18:32:08.725Z</time></trkpt><trkpt lat="34.4810598" lon="8.3648203"><ele>401.3333333333333</ele><time>2026-04-30T18:32:09.74Z</time></trkpt><trkpt lat="34.4810842" lon="8.3650302"><ele>401.66666666666663</ele><time>2026-04-30T18:32:10.73Z</time></trkpt><trkpt lat="34.4811074" lon="8.3652524"><ele>402.0</ele><time>2026-04-30T18:32:11.734Z</time></trkpt><trkpt lat="34.4811243" lon="8.3654726"><ele>401.66666666666663</ele><time>2026-04-30T18:32:12.735Z</time></trkpt><trkpt lat="34.481138" lon="8.3657014"><ele>401.3333333333333</ele><time>2026-04-30T18:32:13.73Z</time></trkpt><trkpt lat="34.4811531" lon="8.3659244"><ele>401.0</ele><time>2026-04-30T18:32:14.714Z</time></trkpt><trkpt lat="34.4811643" lon="8.3661509"><ele>401.0</ele><time>2026-04-30T18:32:15.725Z</time></trkpt><trkpt lat="34.4811724" lon="8.3663713"><ele>401.0</ele><time>2026-04-30T18:32:16.71Z</time></trkpt><trkpt lat="34.4811775" lon="8.3665932"><ele>401.0</ele><time>2026-04-30T18:32:17.732Z</time></trkpt><trkpt lat="34.4811773" lon="8.3668196"><ele>401.0</ele><time>2026-04-30T18:32:18.733Z</time></trkpt><trkpt lat="34.481164" lon="8.3670491"><ele>401.0</ele><time>2026-04-30T18:32:19.674Z</time></trkpt><trkpt lat="34.4811414" lon="8.3672757"><ele>401.0</ele><time>2026-04-30T18:32:20.742Z</time></trkpt><trkpt lat="34.4811141" lon="8.3675069"><ele>401.3333333333333</ele><time>2026-04-30T18:32:21.723Z</time></trkpt><trkpt lat="34.4810812" lon="8.367739"><ele>401.66666666666663</ele><time>2026-04-30T18:32:22.711Z</time></trkpt><trkpt lat="34.4810448" lon="8.3679683"><ele>402.0</ele><time>2026-04-30T18:32:23.739Z</time></trkpt><trkpt lat="34.4810112" lon="8.3682023"><ele>402.0</ele><time>2026-04-30T18:32:24.742Z</time></trkpt><trkpt lat="34.4809736" lon="8.3684366"><ele>402.0</ele><time>2026-04-30T18:32:25.717Z</time></trkpt><trkpt lat="34.4809367" lon="8.3686769"><ele>402.0</ele><time>2026-04-30T18:32:26.731Z</time></trkpt><trkpt lat="34.4808948" lon="8.3689145"><ele>402.33333333333337</ele><time>2026-04-30T18:32:27.742Z</time></trkpt><trkpt lat="34.4808623" lon="8.3691474"><ele>402.6666666666667</ele><time>2026-04-30T18:32:28.738Z</time></trkpt><trkpt lat="34.4808298" lon="8.3693787"><ele>403.0</ele><time>2026-04-30T18:32:29.735Z</time></trkpt><trkpt lat="34.4807945" lon="8.3696207"><ele>402.33333333333337</ele><time>2026-04-30T18:32:30.721Z</time></trkpt><trkpt lat="34.4807555" lon="8.369872"><ele>401.66666666666663</ele><time>2026-04-30T18:32:31.729Z</time></trkpt><trkpt lat="34.480717" lon="8.3701175"><ele>401.0</ele><time>2026-04-30T18:32:32.744Z</time></trkpt><trkpt lat="34.4806792" lon="8.3703622"><ele>401.3333333333333</ele><time>2026-04-30T18:32:33.736Z</time></trkpt><trkpt lat="34.4806398" lon="8.370614"><ele>401.66666666666663</ele><time>2026-04-30T18:32:34.71Z</time></trkpt><trkpt lat="34.4806005" lon="8.3708676"><ele>402.0</ele><time>2026-04-30T18:32:35.742Z</time></trkpt><trkpt lat="34.4805621" lon="8.3711188"><ele>402.33333333333337</ele><time>2026-04-30T18:32:36.71Z</time></trkpt><trkpt lat="34.4805215" lon="8.3713752"><ele>402.6666666666667</ele><time>2026-04-30T18:32:37.738Z</time></trkpt><trkpt lat="34.4804796" lon="8.3716275"><ele>403.0</ele><time>2026-04-30T18:32:38.733Z</time></trkpt><trkpt lat="34.4804405" lon="8.3718768"><ele>402.0</ele><time>2026-04-30T18:32:39.707Z</time></trkpt><trkpt lat="34.4804023" lon="8.3721265"><ele>401.0</ele><time>2026-04-30T18:32:40.691Z</time></trkpt><trkpt lat="34.4803598" lon="8.3723781"><ele>400.0</ele><time>2026-04-30T18:32:41.734Z</time></trkpt><trkpt lat="34.4803164" lon="8.3726267"><ele>400.0</ele><time>2026-04-30T18:32:42.751Z</time></trkpt><trkpt lat="34.4802739" lon="8.3728789"><ele>400.0</ele><time>2026-04-30T18:32:43.745Z</time></trkpt><trkpt lat="34.4802318" lon="8.3731252"><ele>400.0</ele><time>2026-04-30T18:32:44.729Z</time></trkpt><trkpt lat="34.4801869" lon="8.3733768"><ele>400.0</ele><time>2026-04-30T18:32:45.729Z</time></trkpt><trkpt lat="34.4801442" lon="8.3736267"><ele>400.0</ele><time>2026-04-30T18:32:46.739Z</time></trkpt><trkpt lat="34.4800969" lon="8.3738763"><ele>400.0</ele><time>2026-04-30T18:32:47.71Z</time></trkpt><trkpt lat="34.4800544" lon="8.3741264"><ele>400.33333333333337</ele><time>2026-04-30T18:32:48.732Z</time></trkpt><trkpt lat="34.4800126" lon="8.3743756"><ele>400.66666666666663</ele><time>2026-04-30T18:32:49.736Z</time></trkpt><trkpt lat="34.4799641" lon="8.3746278"><ele>401.0</ele><time>2026-04-30T18:32:50.686Z</time></trkpt><trkpt lat="34.4799201" lon="8.3748817"><ele>401.0</ele><time>2026-04-30T18:32:51.725Z</time></trkpt><trkpt lat="34.4798736" lon="8.3751313"><ele>401.0</ele><time>2026-04-30T18:32:52.723Z</time></trkpt><trkpt lat="34.4798279" lon="8.3753746"><ele>401.0</ele><time>2026-04-30T18:32:53.734Z</time></trkpt><trkpt lat="34.479781" lon="8.3756221"><ele>400.66666666666663</ele><time>2026-04-30T18:32:54.735Z</time></trkpt><trkpt lat="34.4797317" lon="8.3758664"><ele>400.33333333333337</ele><time>2026-04-30T18:32:55.738Z</time></trkpt><trkpt lat="34.4796882" lon="8.3761135"><ele>400.0</ele><time>2026-04-30T18:32:56.734Z</time></trkpt><trkpt lat="34.4796411" lon="8.376357"><ele>399.6666666666667</ele><time>2026-04-30T18:32:57.726Z</time></trkpt><trkpt lat="34.4795948" lon="8.3766052"><ele>399.33333333333337</ele><time>2026-04-30T18:32:58.724Z</time></trkpt><trkpt lat="34.4795498" lon="8.3768569"><ele>399.0</ele><time>2026-04-30T18:32:59.74Z</time></trkpt><trkpt lat="34.4795059" lon="8.3771021"><ele>399.33333333333337</ele><time>2026-04-30T18:33:00.702Z</time></trkpt><trkpt lat="34.4794604" lon="8.3773512"><ele>399.6666666666667</ele><time>2026-04-30T18:33:01.731Z</time></trkpt><trkpt lat="34.4794131" lon="8.3775993"><ele>400.0</ele><time>2026-04-30T18:33:02.731Z</time></trkpt><trkpt lat="34.4793652" lon="8.3778465"><ele>400.0</ele><time>2026-04-30T18:33:03.731Z</time></trkpt><trkpt lat="34.4793191" lon="8.3780917"><ele>400.0</ele><time>2026-04-30T18:33:04.73Z</time></trkpt><trkpt lat="34.479269" lon="8.3783392"><ele>400.0</ele><time>2026-04-30T18:33:05.737Z</time></trkpt><trkpt lat="34.4792207" lon="8.3785867"><ele>400.0</ele><time>2026-04-30T18:33:06.703Z</time></trkpt><trkpt lat="34.4791739" lon="8.3788287"><ele>400.0</ele><time>2026-04-30T18:33:07.725Z</time></trkpt><trkpt lat="34.4791332" lon="8.3790668"><ele>400.0</ele><time>2026-04-30T18:33:08.725Z</time></trkpt><trkpt lat="34.4790915" lon="8.379299"><ele>400.0</ele><time>2026-04-30T18:33:09.728Z</time></trkpt><trkpt lat="34.4790454" lon="8.3795321"><ele>400.0</ele><time>2026-04-30T18:33:10.731Z</time></trkpt><trkpt lat="34.4790019" lon="8.3797728"><ele>400.0</ele><time>2026-04-30T18:33:11.726Z</time></trkpt><trkpt lat="34.4789539" lon="8.3800098"><ele>400.0</ele><time>2026-04-30T18:33:12.748Z</time></trkpt><trkpt lat="34.4789079" lon="8.3802479"><ele>400.0</ele><time>2026-04-30T18:33:13.744Z</time></trkpt><trkpt lat="34.4788621" lon="8.3804824"><ele>400.0</ele><time>2026-04-30T18:33:14.749Z</time></trkpt><trkpt lat="34.4788196" lon="8.3807239"><ele>400.0</ele><time>2026-04-30T18:33:15.732Z</time></trkpt><trkpt lat="34.478782" lon="8.3809673"><ele>400.0</ele><time>2026-04-30T18:33:16.726Z</time></trkpt><trkpt lat="34.4787465" lon="8.3812164"><ele>400.0</ele><time>2026-04-30T18:33:17.738Z</time></trkpt><trkpt lat="34.4787161" lon="8.3814575"><ele>399.6666666666667</ele><time>2026-04-30T18:33:18.722Z</time></trkpt><trkpt lat="34.4786896" lon="8.3817007"><ele>399.33333333333337</ele><time>2026-04-30T18:33:19.747Z</time></trkpt><trkpt lat="34.4786671" lon="8.3819426"><ele>399.0</ele><time>2026-04-30T18:33:20.721Z</time></trkpt><trkpt lat="34.4786482" lon="8.382184"><ele>398.66666666666663</ele><time>2026-04-30T18:33:21.735Z</time></trkpt><trkpt lat="34.4786311" lon="8.382425"><ele>398.3333333333333</ele><time>2026-04-30T18:33:22.732Z</time></trkpt><trkpt lat="34.4786124" lon="8.3826544"><ele>398.0</ele><time>2026-04-30T18:33:23.725Z</time></trkpt><trkpt lat="34.4785937" lon="8.3828837"><ele>398.0</ele><time>2026-04-30T18:33:24.719Z</time></trkpt><trkpt lat="34.478573" lon="8.3831108"><ele>398.0</ele><time>2026-04-30T18:33:25.729Z</time></trkpt><trkpt lat="34.4785554" lon="8.3833435"><ele>398.0</ele><time>2026-04-30T18:33:26.73Z</time></trkpt><trkpt lat="34.4785408" lon="8.3835757"><ele>398.0</ele><time>2026-04-30T18:33:27.74Z</time></trkpt><trkpt lat="34.4785248" lon="8.3838127"><ele>398.0</ele><time>2026-04-30T18:33:28.721Z</time></trkpt><trkpt lat="34.478506" lon="8.384051"><ele>398.0</ele><time>2026-04-30T18:33:29.711Z</time></trkpt><trkpt lat="34.4784864" lon="8.3842916"><ele>398.3333333333333</ele><time>2026-04-30T18:33:30.702Z</time></trkpt><trkpt lat="34.478466" lon="8.3845286"><ele>398.66666666666663</ele><time>2026-04-30T18:33:31.727Z</time></trkpt><trkpt lat="34.4784451" lon="8.3847621"><ele>399.0</ele><time>2026-04-30T18:33:32.725Z</time></trkpt><trkpt lat="34.478429" lon="8.3849949"><ele>399.0</ele><time>2026-04-30T18:33:33.714Z</time></trkpt><trkpt lat="34.4784122" lon="8.3852298"><ele>399.0</ele><time>2026-04-30T18:33:34.707Z</time></trkpt><trkpt lat="34.4783925" lon="8.3854677"><ele>399.0</ele><time>2026-04-30T18:33:35.714Z</time></trkpt><trkpt lat="34.4783706" lon="8.3857041"><ele>399.33333333333337</ele><time>2026-04-30T18:33:36.682Z</time></trkpt><trkpt lat="34.4783489" lon="8.3859409"><ele>399.6666666666667</ele><time>2026-04-30T18:33:37.696Z</time></trkpt><trkpt lat="34.4783264" lon="8.3861751"><ele>400.0</ele><time>2026-04-30T18:33:38.713Z</time></trkpt><trkpt lat="34.4783031" lon="8.38641"><ele>400.33333333333337</ele><time>2026-04-30T18:33:39.716Z</time></trkpt><trkpt lat="34.4782766" lon="8.3866444"><ele>400.66666666666663</ele><time>2026-04-30T18:33:40.712Z</time></trkpt><trkpt lat="34.4782474" lon="8.3868817"><ele>401.0</ele><time>2026-04-30T18:33:41.703Z</time></trkpt><trkpt lat="34.4782091" lon="8.3871177"><ele>400.3333333333333</ele><time>2026-04-30T18:33:42.707Z</time></trkpt><trkpt lat="34.4781573" lon="8.3873532"><ele>399.66666666666663</ele><time>2026-04-30T18:33:43.71Z</time></trkpt><trkpt lat="34.478098" lon="8.3875751"><ele>399.0</ele><time>2026-04-30T18:33:44.703Z</time></trkpt><trkpt lat="34.4780322" lon="8.3877981"><ele>398.66666666666663</ele><time>2026-04-30T18:33:45.713Z</time></trkpt><trkpt lat="34.4779564" lon="8.388016"><ele>398.3333333333333</ele><time>2026-04-30T18:33:46.716Z</time></trkpt><trkpt lat="34.4778734" lon="8.3882319"><ele>398.0</ele><time>2026-04-30T18:33:47.7Z</time></trkpt><trkpt lat="34.4777831" lon="8.3884489"><ele>397.3333333333333</ele><time>2026-04-30T18:33:48.697Z</time></trkpt><trkpt lat="34.4776845" lon="8.3886612"><ele>396.66666666666663</ele><time>2026-04-30T18:33:49.698Z</time></trkpt><trkpt lat="34.4775731" lon="8.3888577"><ele>396.0</ele><time>2026-04-30T18:33:50.713Z</time></trkpt><trkpt lat="34.4774568" lon="8.3890498"><ele>396.0</ele><time>2026-04-30T18:33:51.714Z</time></trkpt><trkpt lat="34.4773452" lon="8.3892445"><ele>396.0</ele><time>2026-04-30T18:33:52.702Z</time></trkpt><trkpt lat="34.4772284" lon="8.3894358"><ele>396.0</ele><time>2026-04-30T18:33:53.693Z</time></trkpt><trkpt lat="34.4771134" lon="8.3896298"><ele>397.0</ele><time>2026-04-30T18:33:54.7Z</time></trkpt><trkpt lat="34.4769965" lon="8.389823"><ele>398.0</ele><time>2026-04-30T18:33:55.692Z</time></trkpt><trkpt lat="34.4768778" lon="8.390013"><ele>399.0</ele><time>2026-04-30T18:33:56.694Z</time></trkpt><trkpt lat="34.4767576" lon="8.3902044"><ele>399.0</ele><time>2026-04-30T18:33:57.708Z</time></trkpt><trkpt lat="34.4766354" lon="8.3903976"><ele>399.0</ele><time>2026-04-30T18:33:58.726Z</time></trkpt><trkpt lat="34.4765138" lon="8.3905892"><ele>399.0</ele><time>2026-04-30T18:33:59.71Z</time></trkpt><trkpt lat="34.4763956" lon="8.3907849"><ele>399.0</ele><time>2026-04-30T18:34:00.699Z</time></trkpt><trkpt lat="34.4762742" lon="8.390979"><ele>399.0</ele><time>2026-04-30T18:34:01.716Z</time></trkpt><trkpt lat="34.4761513" lon="8.3911704"><ele>399.0</ele><time>2026-04-30T18:34:02.708Z</time></trkpt><trkpt lat="34.476029" lon="8.3913617"><ele>399.0</ele><time>2026-04-30T18:34:03.709Z</time></trkpt><trkpt lat="34.4759126" lon="8.3915566"><ele>399.0</ele><time>2026-04-30T18:34:04.725Z</time></trkpt><trkpt lat="34.4757944" lon="8.391752"><ele>399.0</ele><time>2026-04-30T18:34:05.724Z</time></trkpt><trkpt lat="34.4756779" lon="8.3919463"><ele>399.0</ele><time>2026-04-30T18:34:06.71Z</time></trkpt><trkpt lat="34.4755637" lon="8.3921385"><ele>399.0</ele><time>2026-04-30T18:34:07.713Z</time></trkpt><trkpt lat="34.475445" lon="8.3923302"><ele>399.0</ele><time>2026-04-30T18:34:08.723Z</time></trkpt><trkpt lat="34.4753276" lon="8.392525"><ele>398.33333333333337</ele><time>2026-04-30T18:34:09.716Z</time></trkpt><trkpt lat="34.4752069" lon="8.3927157"><ele>397.6666666666667</ele><time>2026-04-30T18:34:10.722Z</time></trkpt><trkpt lat="34.4750888" lon="8.3929099"><ele>397.0</ele><time>2026-04-30T18:34:11.707Z</time></trkpt><trkpt lat="34.4749685" lon="8.3931011"><ele>396.6666666666667</ele><time>2026-04-30T18:34:12.709Z</time></trkpt><trkpt lat="34.4748459" lon="8.3932978"><ele>396.33333333333337</ele><time>2026-04-30T18:34:13.72Z</time></trkpt><trkpt lat="34.4747283" lon="8.3934919"><ele>396.0</ele><time>2026-04-30T18:34:14.737Z</time></trkpt><trkpt lat="34.4746078" lon="8.3936803"><ele>397.33333333333337</ele><time>2026-04-30T18:34:15.727Z</time></trkpt><trkpt lat="34.4744862" lon="8.3938747"><ele>398.6666666666667</ele><time>2026-04-30T18:34:16.691Z</time></trkpt><trkpt lat="34.4743679" lon="8.3940638"><ele>400.0</ele><time>2026-04-30T18:34:17.715Z</time></trkpt><trkpt lat="34.4742497" lon="8.3942577"><ele>400.0</ele><time>2026-04-30T18:34:18.702Z</time></trkpt><trkpt lat="34.4741284" lon="8.3944491"><ele>400.0</ele><time>2026-04-30T18:34:19.708Z</time></trkpt><trkpt lat="34.4740093" lon="8.394645"><ele>400.0</ele><time>2026-04-30T18:34:20.697Z</time></trkpt><trkpt lat="34.4738871" lon="8.394836"><ele>399.6666666666667</ele><time>2026-04-30T18:34:21.705Z</time></trkpt><trkpt lat="34.4737671" lon="8.3950315"><ele>399.33333333333337</ele><time>2026-04-30T18:34:22.716Z</time></trkpt><trkpt lat="34.4736488" lon="8.395228"><ele>399.0</ele><time>2026-04-30T18:34:23.732Z</time></trkpt><trkpt lat="34.4735299" lon="8.3954231"><ele>399.66666666666663</ele><time>2026-04-30T18:34:24.731Z</time></trkpt><trkpt lat="34.4734114" lon="8.3956108"><ele>400.3333333333333</ele><time>2026-04-30T18:34:25.707Z</time></trkpt><trkpt lat="34.4732924" lon="8.3958008"><ele>401.0</ele><time>2026-04-30T18:34:26.715Z</time></trkpt><trkpt lat="34.473172" lon="8.3959957"><ele>401.0</ele><time>2026-04-30T18:34:27.704Z</time></trkpt><trkpt lat="34.4730518" lon="8.3961874"><ele>401.0</ele><time>2026-04-30T18:34:28.717Z</time></trkpt><trkpt lat="34.4729301" lon="8.3963832"><ele>401.0</ele><time>2026-04-30T18:34:29.689Z</time></trkpt><trkpt lat="34.4728114" lon="8.3965758"><ele>401.3333333333333</ele><time>2026-04-30T18:34:30.681Z</time></trkpt><trkpt lat="34.4726918" lon="8.3967705"><ele>401.66666666666663</ele><time>2026-04-30T18:34:31.702Z</time></trkpt><trkpt lat="34.4725705" lon="8.3969675"><ele>402.0</ele><time>2026-04-30T18:34:32.694Z</time></trkpt><trkpt lat="34.472456" lon="8.3971623"><ele>401.66666666666663</ele><time>2026-04-30T18:34:33.714Z</time></trkpt><trkpt lat="34.4723338" lon="8.3973533"><ele>401.3333333333333</ele><time>2026-04-30T18:34:34.702Z</time></trkpt><trkpt lat="34.4722122" lon="8.3975435"><ele>401.0</ele><time>2026-04-30T18:34:35.701Z</time></trkpt><trkpt lat="34.4720954" lon="8.3977384"><ele>401.0</ele><time>2026-04-30T18:34:36.7Z</time></trkpt><trkpt lat="34.4719776" lon="8.3979298"><ele>401.0</ele><time>2026-04-30T18:34:37.705Z</time></trkpt><trkpt lat="34.4718574" lon="8.3981256"><ele>401.0</ele><time>2026-04-30T18:34:38.718Z</time></trkpt><trkpt lat="34.4717384" lon="8.3983183"><ele>400.66666666666663</ele><time>2026-04-30T18:34:39.68Z</time></trkpt><trkpt lat="34.4716222" lon="8.3985103"><ele>400.33333333333337</ele><time>2026-04-30T18:34:40.685Z</time></trkpt><trkpt lat="34.4715044" lon="8.3987025"><ele>400.0</ele><time>2026-04-30T18:34:41.702Z</time></trkpt><trkpt lat="34.4713854" lon="8.3988936"><ele>400.0</ele><time>2026-04-30T18:34:42.713Z</time></trkpt><trkpt lat="34.471267" lon="8.399087"><ele>400.0</ele><time>2026-04-30T18:34:43.709Z</time></trkpt><trkpt lat="34.4711463" lon="8.3992795"><ele>400.0</ele><time>2026-04-30T18:34:44.704Z</time></trkpt><trkpt lat="34.4710264" lon="8.3994713"><ele>400.0</ele><time>2026-04-30T18:34:45.71Z</time></trkpt><trkpt lat="34.4709058" lon="8.3996683"><ele>400.0</ele><time>2026-04-30T18:34:46.718Z</time></trkpt><trkpt lat="34.4707849" lon="8.3998591"><ele>400.0</ele><time>2026-04-30T18:34:47.714Z</time></trkpt><trkpt lat="34.4706665" lon="8.4000527"><ele>400.0</ele><time>2026-04-30T18:34:48.71Z</time></trkpt><trkpt lat="34.4705454" lon="8.4002456"><ele>400.0</ele><time>2026-04-30T18:34:49.719Z</time></trkpt><trkpt lat="34.470423" lon="8.4004373"><ele>400.0</ele><time>2026-04-30T18:34:50.715Z</time></trkpt><trkpt lat="34.4703044" lon="8.4006294"><ele>400.0</ele><time>2026-04-30T18:34:51.732Z</time></trkpt><trkpt lat="34.4701922" lon="8.4008202"><ele>400.0</ele><time>2026-04-30T18:34:52.714Z</time></trkpt><trkpt lat="34.4700752" lon="8.4010108"><ele>400.0</ele><time>2026-04-30T18:34:53.71Z</time></trkpt><trkpt lat="34.4699559" lon="8.4012072"><ele>400.0</ele><time>2026-04-30T18:34:54.706Z</time></trkpt><trkpt lat="34.469838" lon="8.401403"><ele>400.0</ele><time>2026-04-30T18:34:55.714Z</time></trkpt><trkpt lat="34.4697164" lon="8.4015962"><ele>400.0</ele><time>2026-04-30T18:34:56.712Z</time></trkpt><trkpt lat="34.4695981" lon="8.4017897"><ele>400.0</ele><time>2026-04-30T18:34:57.72Z</time></trkpt><trkpt lat="34.4694752" lon="8.4019852"><ele>400.0</ele><time>2026-04-30T18:34:58.684Z</time></trkpt><trkpt lat="34.4693566" lon="8.4021795"><ele>400.0</ele><time>2026-04-30T18:34:59.72Z</time></trkpt><trkpt lat="34.4692391" lon="8.4023727"><ele>400.6666666666667</ele><time>2026-04-30T18:35:00.71Z</time></trkpt><trkpt lat="34.4691217" lon="8.4025676"><ele>401.33333333333337</ele><time>2026-04-30T18:35:01.7Z</time></trkpt><trkpt lat="34.4690048" lon="8.4027578"><ele>402.0</ele><time>2026-04-30T18:35:02.701Z</time></trkpt><trkpt lat="34.4688829" lon="8.4029514"><ele>402.33333333333337</ele><time>2026-04-30T18:35:03.704Z</time></trkpt><trkpt lat="34.4687612" lon="8.403145"><ele>402.6666666666667</ele><time>2026-04-30T18:35:04.712Z</time></trkpt><trkpt lat="34.468641" lon="8.403338"><ele>403.0</ele><time>2026-04-30T18:35:05.717Z</time></trkpt><trkpt lat="34.4685232" lon="8.4035292"><ele>403.0</ele><time>2026-04-30T18:35:06.703Z</time></trkpt><trkpt lat="34.4684009" lon="8.4037211"><ele>403.0</ele><time>2026-04-30T18:35:07.717Z</time></trkpt><trkpt lat="34.4682831" lon="8.4039143"><ele>403.0</ele><time>2026-04-30T18:35:08.7Z</time></trkpt><trkpt lat="34.4681645" lon="8.4041065"><ele>402.6666666666667</ele><time>2026-04-30T18:35:09.722Z</time></trkpt><trkpt lat="34.4680428" lon="8.4043005"><ele>402.33333333333337</ele><time>2026-04-30T18:35:10.714Z</time></trkpt><trkpt lat="34.4679217" lon="8.4044953"><ele>402.0</ele><time>2026-04-30T18:35:11.72Z</time></trkpt><trkpt lat="34.467801" lon="8.4046843"><ele>402.0</ele><time>2026-04-30T18:35:12.686Z</time></trkpt><trkpt lat="34.4676829" lon="8.404877"><ele>402.0</ele><time>2026-04-30T18:35:13.721Z</time></trkpt><trkpt lat="34.4675633" lon="8.4050697"><ele>402.0</ele><time>2026-04-30T18:35:14.71Z</time></trkpt><trkpt lat="34.4674431" lon="8.4052643"><ele>402.0</ele><time>2026-04-30T18:35:15.714Z</time></trkpt><trkpt lat="34.467325" lon="8.4054626"><ele>402.0</ele><time>2026-04-30T18:35:16.718Z</time></trkpt><trkpt lat="34.4672074" lon="8.4056564"><ele>402.0</ele><time>2026-04-30T18:35:17.718Z</time></trkpt><trkpt lat="34.467088" lon="8.4058514"><ele>402.66666666666663</ele><time>2026-04-30T18:35:18.714Z</time></trkpt><trkpt lat="34.4669683" lon="8.4060447"><ele>403.3333333333333</ele><time>2026-04-30T18:35:19.711Z</time></trkpt><trkpt lat="34.4668499" lon="8.4062342"><ele>404.0</ele><time>2026-04-30T18:35:20.728Z</time></trkpt><trkpt lat="34.466727" lon="8.4064212"><ele>404.0</ele><time>2026-04-30T18:35:21.709Z</time></trkpt><trkpt lat="34.4666088" lon="8.4066108"><ele>404.0</ele><time>2026-04-30T18:35:22.728Z</time></trkpt><trkpt lat="34.4664886" lon="8.4068051"><ele>404.0</ele><time>2026-04-30T18:35:23.737Z</time></trkpt><trkpt lat="34.4663729" lon="8.4069957"><ele>403.66666666666663</ele><time>2026-04-30T18:35:24.747Z</time></trkpt><trkpt lat="34.466254" lon="8.4071904"><ele>403.33333333333337</ele><time>2026-04-30T18:35:25.749Z</time></trkpt><trkpt lat="34.466136" lon="8.4073873"><ele>403.0</ele><time>2026-04-30T18:35:26.715Z</time></trkpt><trkpt lat="34.4660157" lon="8.4075838"><ele>403.0</ele><time>2026-04-30T18:35:27.728Z</time></trkpt><trkpt lat="34.4658963" lon="8.4077746"><ele>403.0</ele><time>2026-04-30T18:35:28.726Z</time></trkpt><trkpt lat="34.4657786" lon="8.4079681"><ele>403.0</ele><time>2026-04-30T18:35:29.733Z</time></trkpt><trkpt lat="34.4656587" lon="8.4081607"><ele>403.0</ele><time>2026-04-30T18:35:30.691Z</time></trkpt><trkpt lat="34.4655413" lon="8.408353"><ele>403.0</ele><time>2026-04-30T18:35:31.685Z</time></trkpt><trkpt lat="34.465422" lon="8.408546"><ele>403.0</ele><time>2026-04-30T18:35:32.732Z</time></trkpt><trkpt lat="34.4653064" lon="8.408741"><ele>403.0</ele><time>2026-04-30T18:35:33.724Z</time></trkpt><trkpt lat="34.4651867" lon="8.408939"><ele>403.0</ele><time>2026-04-30T18:35:34.682Z</time></trkpt><trkpt lat="34.4650667" lon="8.4091351"><ele>403.0</ele><time>2026-04-30T18:35:35.729Z</time></trkpt><trkpt lat="34.4649447" lon="8.4093262"><ele>403.0</ele><time>2026-04-30T18:35:36.731Z</time></trkpt><trkpt lat="34.4648222" lon="8.4095181"><ele>403.0</ele><time>2026-04-30T18:35:37.732Z</time></trkpt><trkpt lat="34.4647022" lon="8.4097097"><ele>403.0</ele><time>2026-04-30T18:35:38.734Z</time></trkpt><trkpt lat="34.4645836" lon="8.4099017"><ele>403.6666666666667</ele><time>2026-04-30T18:35:39.731Z</time></trkpt><trkpt lat="34.464464" lon="8.4100926"><ele>404.33333333333337</ele><time>2026-04-30T18:35:40.708Z</time></trkpt><trkpt lat="34.464348" lon="8.4102886"><ele>405.0</ele><time>2026-04-30T18:35:41.716Z</time></trkpt><trkpt lat="34.4642301" lon="8.4104802"><ele>404.66666666666663</ele><time>2026-04-30T18:35:42.726Z</time></trkpt><trkpt lat="34.4641138" lon="8.410673"><ele>404.3333333333333</ele><time>2026-04-30T18:35:43.741Z</time></trkpt><trkpt lat="34.4639951" lon="8.4108665"><ele>404.0</ele><time>2026-04-30T18:35:44.738Z</time></trkpt><trkpt lat="34.4638733" lon="8.4110587"><ele>403.66666666666663</ele><time>2026-04-30T18:35:45.742Z</time></trkpt><trkpt lat="34.4637539" lon="8.4112515"><ele>403.33333333333337</ele><time>2026-04-30T18:35:46.711Z</time></trkpt><trkpt lat="34.4636378" lon="8.4114469"><ele>403.0</ele><time>2026-04-30T18:35:47.745Z</time></trkpt><trkpt lat="34.4635191" lon="8.4116396"><ele>403.0</ele><time>2026-04-30T18:35:48.732Z</time></trkpt><trkpt lat="34.4634019" lon="8.4118308"><ele>403.0</ele><time>2026-04-30T18:35:49.687Z</time></trkpt><trkpt lat="34.4632842" lon="8.4120282"><ele>403.0</ele><time>2026-04-30T18:35:50.732Z</time></trkpt><trkpt lat="34.4631595" lon="8.4122168"><ele>403.0</ele><time>2026-04-30T18:35:51.707Z</time></trkpt><trkpt lat="34.4630407" lon="8.412411"><ele>403.0</ele><time>2026-04-30T18:35:52.723Z</time></trkpt><trkpt lat="34.4629218" lon="8.4126021"><ele>403.0</ele><time>2026-04-30T18:35:53.742Z</time></trkpt><trkpt lat="34.4628042" lon="8.4127948"><ele>403.0</ele><time>2026-04-30T18:35:54.738Z</time></trkpt><trkpt lat="34.4626792" lon="8.4129873"><ele>403.0</ele><time>2026-04-30T18:35:55.697Z</time></trkpt><trkpt lat="34.4625557" lon="8.4131808"><ele>403.0</ele><time>2026-04-30T18:35:56.733Z</time></trkpt><trkpt lat="34.4624346" lon="8.4133729"><ele>402.6666666666667</ele><time>2026-04-30T18:35:57.738Z</time></trkpt><trkpt lat="34.4623154" lon="8.4135679"><ele>402.33333333333337</ele><time>2026-04-30T18:35:58.737Z</time></trkpt><trkpt lat="34.462194" lon="8.4137625"><ele>402.0</ele><time>2026-04-30T18:35:59.743Z</time></trkpt><trkpt lat="34.4620739" lon="8.4139535"><ele>401.66666666666663</ele><time>2026-04-30T18:36:00.728Z</time></trkpt><trkpt lat="34.4619579" lon="8.4141501"><ele>401.3333333333333</ele><time>2026-04-30T18:36:01.718Z</time></trkpt><trkpt lat="34.4618418" lon="8.4143414"><ele>401.0</ele><time>2026-04-30T18:36:02.735Z</time></trkpt><trkpt lat="34.4617255" lon="8.414538"><ele>401.3333333333333</ele><time>2026-04-30T18:36:03.75Z</time></trkpt><trkpt lat="34.4616043" lon="8.4147313"><ele>401.66666666666663</ele><time>2026-04-30T18:36:04.738Z</time></trkpt><trkpt lat="34.4614836" lon="8.4149197"><ele>402.0</ele><time>2026-04-30T18:36:05.734Z</time></trkpt><trkpt lat="34.4613645" lon="8.4151087"><ele>402.66666666666663</ele><time>2026-04-30T18:36:06.722Z</time></trkpt><trkpt lat="34.4612443" lon="8.4153022"><ele>403.3333333333333</ele><time>2026-04-30T18:36:07.743Z</time></trkpt><trkpt lat="34.4611228" lon="8.4154911"><ele>404.0</ele><time>2026-04-30T18:36:08.715Z</time></trkpt><trkpt lat="34.4610007" lon="8.4156879"><ele>404.0</ele><time>2026-04-30T18:36:09.72Z</time></trkpt><trkpt lat="34.4608841" lon="8.415882"><ele>404.0</ele><time>2026-04-30T18:36:10.749Z</time></trkpt><trkpt lat="34.4607668" lon="8.4160743"><ele>404.0</ele><time>2026-04-30T18:36:11.697Z</time></trkpt><trkpt lat="34.4606478" lon="8.416266"><ele>404.0</ele><time>2026-04-30T18:36:12.721Z</time></trkpt><trkpt lat="34.4605258" lon="8.4164601"><ele>404.0</ele><time>2026-04-30T18:36:13.682Z</time></trkpt><trkpt lat="34.4604075" lon="8.4166551"><ele>404.0</ele><time>2026-04-30T18:36:14.753Z</time></trkpt><trkpt lat="34.4602854" lon="8.416851"><ele>403.66666666666663</ele><time>2026-04-30T18:36:15.738Z</time></trkpt><trkpt lat="34.4601657" lon="8.4170487"><ele>403.33333333333337</ele><time>2026-04-30T18:36:16.744Z</time></trkpt><trkpt lat="34.4600427" lon="8.417239"><ele>403.0</ele><time>2026-04-30T18:36:17.739Z</time></trkpt><trkpt lat="34.4599177" lon="8.4174361"><ele>403.33333333333337</ele><time>2026-04-30T18:36:18.73Z</time></trkpt><trkpt lat="34.459795" lon="8.4176328"><ele>403.66666666666663</ele><time>2026-04-30T18:36:19.735Z</time></trkpt><trkpt lat="34.4596727" lon="8.4178299"><ele>404.0</ele><time>2026-04-30T18:36:20.74Z</time></trkpt><trkpt lat="34.4595477" lon="8.4180308"><ele>404.0</ele><time>2026-04-30T18:36:21.75Z</time></trkpt><trkpt lat="34.4594271" lon="8.4182365"><ele>404.0</ele><time>2026-04-30T18:36:22.739Z</time></trkpt><trkpt lat="34.4593046" lon="8.418435"><ele>404.0</ele><time>2026-04-30T18:36:23.737Z</time></trkpt><trkpt lat="34.4591787" lon="8.4186324"><ele>404.3333333333333</ele><time>2026-04-30T18:36:24.702Z</time></trkpt><trkpt lat="34.4590552" lon="8.4188327"><ele>404.66666666666663</ele><time>2026-04-30T18:36:25.712Z</time></trkpt><trkpt lat="34.4589332" lon="8.4190296"><ele>405.0</ele><time>2026-04-30T18:36:26.725Z</time></trkpt><trkpt lat="34.458809" lon="8.4192295"><ele>405.33333333333337</ele><time>2026-04-30T18:36:27.735Z</time></trkpt><trkpt lat="34.4586857" lon="8.4194248"><ele>405.6666666666667</ele><time>2026-04-30T18:36:28.717Z</time></trkpt><trkpt lat="34.4585632" lon="8.4196186"><ele>406.0</ele><time>2026-04-30T18:36:29.741Z</time></trkpt><trkpt lat="34.4584383" lon="8.4198143"><ele>406.0</ele><time>2026-04-30T18:36:30.74Z</time></trkpt><trkpt lat="34.4583152" lon="8.4200118"><ele>406.0</ele><time>2026-04-30T18:36:31.735Z</time></trkpt><trkpt lat="34.4581899" lon="8.4202086"><ele>406.0</ele><time>2026-04-30T18:36:32.737Z</time></trkpt><trkpt lat="34.4580675" lon="8.420403"><ele>404.6666666666667</ele><time>2026-04-30T18:36:33.72Z</time></trkpt><trkpt lat="34.4579463" lon="8.4205998"><ele>403.33333333333337</ele><time>2026-04-30T18:36:34.734Z</time></trkpt><trkpt lat="34.4578243" lon="8.4207942"><ele>402.0</ele><time>2026-04-30T18:36:35.71Z</time></trkpt><trkpt lat="34.4577014" lon="8.4209918"><ele>402.0</ele><time>2026-04-30T18:36:36.712Z</time></trkpt><trkpt lat="34.4575783" lon="8.4211888"><ele>402.0</ele><time>2026-04-30T18:36:37.738Z</time></trkpt><trkpt lat="34.4574519" lon="8.4213906"><ele>402.0</ele><time>2026-04-30T18:36:38.735Z</time></trkpt><trkpt lat="34.4573293" lon="8.4215948"><ele>402.0</ele><time>2026-04-30T18:36:39.727Z</time></trkpt><trkpt lat="34.4572014" lon="8.4217875"><ele>402.0</ele><time>2026-04-30T18:36:40.753Z</time></trkpt><trkpt lat="34.4570774" lon="8.4219893"><ele>402.0</ele><time>2026-04-30T18:36:41.726Z</time></trkpt><trkpt lat="34.4569559" lon="8.422186"><ele>402.66666666666663</ele><time>2026-04-30T18:36:42.735Z</time></trkpt><trkpt lat="34.4568284" lon="8.4223831"><ele>403.3333333333333</ele><time>2026-04-30T18:36:43.732Z</time></trkpt><trkpt lat="34.4567055" lon="8.4225801"><ele>404.0</ele><time>2026-04-30T18:36:44.727Z</time></trkpt><trkpt lat="34.4565858" lon="8.4227737"><ele>404.0</ele><time>2026-04-30T18:36:45.707Z</time></trkpt><trkpt lat="34.456466" lon="8.4229717"><ele>404.0</ele><time>2026-04-30T18:36:46.74Z</time></trkpt><trkpt lat="34.4563424" lon="8.4231695"><ele>404.0</ele><time>2026-04-30T18:36:47.74Z</time></trkpt><trkpt lat="34.45622" lon="8.42337"><ele>403.0</ele><time>2026-04-30T18:36:48.744Z</time></trkpt><trkpt lat="34.4560955" lon="8.4235709"><ele>402.0</ele><time>2026-04-30T18:36:49.728Z</time></trkpt><trkpt lat="34.4559702" lon="8.4237655"><ele>401.0</ele><time>2026-04-30T18:36:50.694Z</time></trkpt><trkpt lat="34.4558467" lon="8.423961"><ele>400.3333333333333</ele><time>2026-04-30T18:36:51.711Z</time></trkpt><trkpt lat="34.4557254" lon="8.4241592"><ele>399.66666666666663</ele><time>2026-04-30T18:36:52.696Z</time></trkpt><trkpt lat="34.4556025" lon="8.4243587"><ele>399.0</ele><time>2026-04-30T18:36:53.737Z</time></trkpt><trkpt lat="34.4554798" lon="8.4245559"><ele>399.33333333333337</ele><time>2026-04-30T18:36:54.726Z</time></trkpt><trkpt lat="34.4553584" lon="8.4247539"><ele>399.6666666666667</ele><time>2026-04-30T18:36:55.735Z</time></trkpt><trkpt lat="34.4552346" lon="8.4249509"><ele>400.0</ele><time>2026-04-30T18:36:56.71Z</time></trkpt><trkpt lat="34.4551152" lon="8.4251487"><ele>400.0</ele><time>2026-04-30T18:36:57.713Z</time></trkpt><trkpt lat="34.4549942" lon="8.4253496"><ele>400.0</ele><time>2026-04-30T18:36:58.727Z</time></trkpt><trkpt lat="34.4548681" lon="8.4255428"><ele>400.0</ele><time>2026-04-30T18:36:59.719Z</time></trkpt><trkpt lat="34.4547424" lon="8.4257365"><ele>399.6666666666667</ele><time>2026-04-30T18:37:00.727Z</time></trkpt><trkpt lat="34.4546171" lon="8.4259363"><ele>399.33333333333337</ele><time>2026-04-30T18:37:01.703Z</time></trkpt><trkpt lat="34.4544959" lon="8.4261299"><ele>399.0</ele><time>2026-04-30T18:37:02.703Z</time></trkpt><trkpt lat="34.454373" lon="8.4263294"><ele>399.0</ele><time>2026-04-30T18:37:03.727Z</time></trkpt><trkpt lat="34.4542568" lon="8.426529"><ele>399.0</ele><time>2026-04-30T18:37:04.745Z</time></trkpt><trkpt lat="34.4541338" lon="8.4267267"><ele>399.0</ele><time>2026-04-30T18:37:05.731Z</time></trkpt><trkpt lat="34.4540115" lon="8.426925"><ele>399.0</ele><time>2026-04-30T18:37:06.715Z</time></trkpt><trkpt lat="34.4538885" lon="8.4271278"><ele>399.0</ele><time>2026-04-30T18:37:07.685Z</time></trkpt><trkpt lat="34.4537651" lon="8.4273262"><ele>399.0</ele><time>2026-04-30T18:37:08.747Z</time></trkpt><trkpt lat="34.45364" lon="8.4275215"><ele>399.0</ele><time>2026-04-30T18:37:09.686Z</time></trkpt><trkpt lat="34.453518" lon="8.4277137"><ele>399.0</ele><time>2026-04-30T18:37:10.679Z</time></trkpt><trkpt lat="34.4533941" lon="8.427907"><ele>399.0</ele><time>2026-04-30T18:37:11.693Z</time></trkpt><trkpt lat="34.453275" lon="8.4281069"><ele>399.0</ele><time>2026-04-30T18:37:12.739Z</time></trkpt><trkpt lat="34.4531507" lon="8.4283062"><ele>399.0</ele><time>2026-04-30T18:37:13.726Z</time></trkpt><trkpt lat="34.453027" lon="8.4285087"><ele>399.0</ele><time>2026-04-30T18:37:14.722Z</time></trkpt><trkpt lat="34.4529026" lon="8.4287034"><ele>399.0</ele><time>2026-04-30T18:37:15.729Z</time></trkpt><trkpt lat="34.4527778" lon="8.4288978"><ele>399.0</ele><time>2026-04-30T18:37:16.694Z</time></trkpt><trkpt lat="34.4526534" lon="8.4290984"><ele>399.0</ele><time>2026-04-30T18:37:17.699Z</time></trkpt><trkpt lat="34.4525282" lon="8.4292922"><ele>399.0</ele><time>2026-04-30T18:37:18.729Z</time></trkpt><trkpt lat="34.4524065" lon="8.4294901"><ele>399.0</ele><time>2026-04-30T18:37:19.744Z</time></trkpt><trkpt lat="34.4522868" lon="8.4296883"><ele>399.0</ele><time>2026-04-30T18:37:20.707Z</time></trkpt><trkpt lat="34.4521651" lon="8.4298845"><ele>399.0</ele><time>2026-04-30T18:37:21.712Z</time></trkpt><trkpt lat="34.4520443" lon="8.4300794"><ele>399.0</ele><time>2026-04-30T18:37:22.698Z</time></trkpt><trkpt lat="34.4519214" lon="8.4302769"><ele>399.0</ele><time>2026-04-30T18:37:23.726Z</time></trkpt><trkpt lat="34.4517984" lon="8.4304755"><ele>399.33333333333337</ele><time>2026-04-30T18:37:24.712Z</time></trkpt><trkpt lat="34.4516749" lon="8.430673"><ele>399.6666666666667</ele><time>2026-04-30T18:37:25.732Z</time></trkpt><trkpt lat="34.4515487" lon="8.4308733"><ele>400.0</ele><time>2026-04-30T18:37:26.729Z</time></trkpt><trkpt lat="34.451427" lon="8.4310697"><ele>400.0</ele><time>2026-04-30T18:37:27.703Z</time></trkpt><trkpt lat="34.4513032" lon="8.4312703"><ele>400.0</ele><time>2026-04-30T18:37:28.709Z</time></trkpt><trkpt lat="34.4511809" lon="8.4314642"><ele>400.0</ele><time>2026-04-30T18:37:29.703Z</time></trkpt><trkpt lat="34.451062" lon="8.4316613"><ele>399.6666666666667</ele><time>2026-04-30T18:37:30.74Z</time></trkpt><trkpt lat="34.4509409" lon="8.43186"><ele>399.33333333333337</ele><time>2026-04-30T18:37:31.721Z</time></trkpt><trkpt lat="34.4508174" lon="8.4320606"><ele>399.0</ele><time>2026-04-30T18:37:32.703Z</time></trkpt><trkpt lat="34.4506975" lon="8.432255"><ele>398.33333333333337</ele><time>2026-04-30T18:37:33.702Z</time></trkpt><trkpt lat="34.4505735" lon="8.4324515"><ele>397.6666666666667</ele><time>2026-04-30T18:37:34.71Z</time></trkpt><trkpt lat="34.4504479" lon="8.4326513"><ele>397.0</ele><time>2026-04-30T18:37:35.68Z</time></trkpt><trkpt lat="34.4503188" lon="8.4328498"><ele>396.6666666666667</ele><time>2026-04-30T18:37:36.684Z</time></trkpt><trkpt lat="34.4501946" lon="8.4330394"><ele>396.33333333333337</ele><time>2026-04-30T18:37:37.726Z</time></trkpt><trkpt lat="34.4500703" lon="8.4332363"><ele>396.0</ele><time>2026-04-30T18:37:38.724Z</time></trkpt><trkpt lat="34.4499513" lon="8.4334384"><ele>396.0</ele><time>2026-04-30T18:37:39.716Z</time></trkpt><trkpt lat="34.4498309" lon="8.4336321"><ele>396.0</ele><time>2026-04-30T18:37:40.719Z</time></trkpt><trkpt lat="34.4497124" lon="8.4338317"><ele>396.0</ele><time>2026-04-30T18:37:41.692Z</time></trkpt><trkpt lat="34.4495935" lon="8.4340218"><ele>396.33333333333337</ele><time>2026-04-30T18:37:42.702Z</time></trkpt><trkpt lat="34.4494835" lon="8.4342018"><ele>396.6666666666667</ele><time>2026-04-30T18:37:43.73Z</time></trkpt><trkpt lat="34.4493732" lon="8.4343808"><ele>397.0</ele><time>2026-04-30T18:37:44.703Z</time></trkpt><trkpt lat="34.4492656" lon="8.43456"><ele>397.0</ele><time>2026-04-30T18:37:45.736Z</time></trkpt><trkpt lat="34.4491559" lon="8.4347408"><ele>397.0</ele><time>2026-04-30T18:37:46.714Z</time></trkpt><trkpt lat="34.4490419" lon="8.4349216"><ele>397.0</ele><time>2026-04-30T18:37:47.738Z</time></trkpt><trkpt lat="34.4489258" lon="8.4350998"><ele>397.0</ele><time>2026-04-30T18:37:48.738Z</time></trkpt><trkpt lat="34.4488104" lon="8.4352836"><ele>397.0</ele><time>2026-04-30T18:37:49.735Z</time></trkpt><trkpt lat="34.448698" lon="8.4354706"><ele>397.0</ele><time>2026-04-30T18:37:50.748Z</time></trkpt><trkpt lat="34.4485852" lon="8.4356488"><ele>395.6666666666667</ele><time>2026-04-30T18:37:51.743Z</time></trkpt><trkpt lat="34.4484761" lon="8.4358236"><ele>394.33333333333337</ele><time>2026-04-30T18:37:52.71Z</time></trkpt><trkpt lat="34.448368" lon="8.4359929"><ele>393.0</ele><time>2026-04-30T18:37:53.73Z</time></trkpt><trkpt lat="34.4482619" lon="8.4361635"><ele>392.66666666666663</ele><time>2026-04-30T18:37:54.732Z</time></trkpt><trkpt lat="34.4481563" lon="8.4363374"><ele>392.3333333333333</ele><time>2026-04-30T18:37:55.727Z</time></trkpt><trkpt lat="34.4480496" lon="8.4365127"><ele>392.0</ele><time>2026-04-30T18:37:56.734Z</time></trkpt><trkpt lat="34.4479429" lon="8.4366821"><ele>392.66666666666663</ele><time>2026-04-30T18:37:57.722Z</time></trkpt><trkpt lat="34.4478382" lon="8.4368522"><ele>393.33333333333337</ele><time>2026-04-30T18:37:58.717Z</time></trkpt><trkpt lat="34.4477314" lon="8.4370244"><ele>394.0</ele><time>2026-04-30T18:37:59.715Z</time></trkpt><trkpt lat="34.4476234" lon="8.4371981"><ele>394.0</ele><time>2026-04-30T18:38:00.738Z</time></trkpt><trkpt lat="34.4475173" lon="8.437369"><ele>394.0</ele><time>2026-04-30T18:38:01.72Z</time></trkpt><trkpt lat="34.4474102" lon="8.437537"><ele>394.0</ele><time>2026-04-30T18:38:02.722Z</time></trkpt><trkpt lat="34.4473" lon="8.4377084"><ele>394.0</ele><time>2026-04-30T18:38:03.709Z</time></trkpt><trkpt lat="34.4471942" lon="8.4378857"><ele>394.0</ele><time>2026-04-30T18:38:04.729Z</time></trkpt><trkpt lat="34.4470812" lon="8.4380563"><ele>394.0</ele><time>2026-04-30T18:38:05.731Z</time></trkpt><trkpt lat="34.4469708" lon="8.4382351"><ele>393.0</ele><time>2026-04-30T18:38:06.743Z</time></trkpt><trkpt lat="34.4468602" lon="8.4384161"><ele>392.0</ele><time>2026-04-30T18:38:07.745Z</time></trkpt><trkpt lat="34.446745" lon="8.4385983"><ele>391.0</ele><time>2026-04-30T18:38:08.735Z</time></trkpt><trkpt lat="34.4466284" lon="8.4387803"><ele>390.6666666666667</ele><time>2026-04-30T18:38:09.727Z</time></trkpt><trkpt lat="34.4465168" lon="8.4389649"><ele>390.33333333333337</ele><time>2026-04-30T18:38:10.699Z</time></trkpt><trkpt lat="34.4464019" lon="8.4391534"><ele>390.0</ele><time>2026-04-30T18:38:11.715Z</time></trkpt><trkpt lat="34.446288" lon="8.4393352"><ele>389.66666666666663</ele><time>2026-04-30T18:38:12.706Z</time></trkpt><trkpt lat="34.4461692" lon="8.439515"><ele>389.3333333333333</ele><time>2026-04-30T18:38:13.742Z</time></trkpt><trkpt lat="34.4460565" lon="8.4396934"><ele>389.0</ele><time>2026-04-30T18:38:14.711Z</time></trkpt><trkpt lat="34.445948" lon="8.4398727"><ele>389.0</ele><time>2026-04-30T18:38:15.732Z</time></trkpt><trkpt lat="34.4458377" lon="8.4400495"><ele>389.0</ele><time>2026-04-30T18:38:16.732Z</time></trkpt><trkpt lat="34.4457282" lon="8.4402236"><ele>389.0</ele><time>2026-04-30T18:38:17.704Z</time></trkpt><trkpt lat="34.4456175" lon="8.4404014"><ele>389.0</ele><time>2026-04-30T18:38:18.733Z</time></trkpt><trkpt lat="34.4455059" lon="8.4405801"><ele>389.0</ele><time>2026-04-30T18:38:19.734Z</time></trkpt><trkpt lat="34.4453921" lon="8.4407653"><ele>389.0</ele><time>2026-04-30T18:38:20.73Z</time></trkpt><trkpt lat="34.4452807" lon="8.4409479"><ele>389.0</ele><time>2026-04-30T18:38:21.737Z</time></trkpt><trkpt lat="34.4451657" lon="8.4411324"><ele>389.0</ele><time>2026-04-30T18:38:22.709Z</time></trkpt><trkpt lat="34.4450458" lon="8.4413206"><ele>389.0</ele><time>2026-04-30T18:38:23.733Z</time></trkpt><trkpt lat="34.4449264" lon="8.4415137"><ele>388.66666666666663</ele><time>2026-04-30T18:38:24.723Z</time></trkpt><trkpt lat="34.4448093" lon="8.4417054"><ele>388.33333333333337</ele><time>2026-04-30T18:38:25.736Z</time></trkpt><trkpt lat="34.4446895" lon="8.4418984"><ele>388.0</ele><time>2026-04-30T18:38:26.747Z</time></trkpt><trkpt lat="34.4445669" lon="8.4420926"><ele>388.0</ele><time>2026-04-30T18:38:27.737Z</time></trkpt><trkpt lat="34.4444438" lon="8.4422871"><ele>388.0</ele><time>2026-04-30T18:38:28.726Z</time></trkpt><trkpt lat="34.4443205" lon="8.4424853"><ele>388.0</ele><time>2026-04-30T18:38:29.745Z</time></trkpt><trkpt lat="34.4441934" lon="8.4426861"><ele>388.0</ele><time>2026-04-30T18:38:30.703Z</time></trkpt><trkpt lat="34.4440691" lon="8.4428828"><ele>388.0</ele><time>2026-04-30T18:38:31.728Z</time></trkpt><trkpt lat="34.4439517" lon="8.4430738"><ele>388.0</ele><time>2026-04-30T18:38:32.727Z</time></trkpt><trkpt lat="34.4438296" lon="8.443266"><ele>388.0</ele><time>2026-04-30T18:38:33.731Z</time></trkpt><trkpt lat="34.4437125" lon="8.4434587"><ele>388.0</ele><time>2026-04-30T18:38:34.731Z</time></trkpt><trkpt lat="34.4435917" lon="8.4436491"><ele>388.0</ele><time>2026-04-30T18:38:35.736Z</time></trkpt><trkpt lat="34.4434748" lon="8.4438388"><ele>388.0</ele><time>2026-04-30T18:38:36.731Z</time></trkpt><trkpt lat="34.4433576" lon="8.444031"><ele>388.0</ele><time>2026-04-30T18:38:37.71Z</time></trkpt><trkpt lat="34.4432408" lon="8.4442183"><ele>388.0</ele><time>2026-04-30T18:38:38.7Z</time></trkpt><trkpt lat="34.4431251" lon="8.4444094"><ele>388.0</ele><time>2026-04-30T18:38:39.688Z</time></trkpt><trkpt lat="34.4430062" lon="8.4445993"><ele>388.0</ele><time>2026-04-30T18:38:40.728Z</time></trkpt><trkpt lat="34.442886" lon="8.4447832"><ele>388.0</ele><time>2026-04-30T18:38:41.727Z</time></trkpt><trkpt lat="34.4427664" lon="8.4449705"><ele>388.0</ele><time>2026-04-30T18:38:42.728Z</time></trkpt><trkpt lat="34.4426509" lon="8.4451606"><ele>388.0</ele><time>2026-04-30T18:38:43.733Z</time></trkpt><trkpt lat="34.4425389" lon="8.4453536"><ele>388.0</ele><time>2026-04-30T18:38:44.714Z</time></trkpt><trkpt lat="34.4424268" lon="8.4455421"><ele>388.0</ele><time>2026-04-30T18:38:45.735Z</time></trkpt><trkpt lat="34.4423056" lon="8.4457266"><ele>388.0</ele><time>2026-04-30T18:38:46.699Z</time></trkpt><trkpt lat="34.4421881" lon="8.4459161"><ele>388.0</ele><time>2026-04-30T18:38:47.746Z</time></trkpt><trkpt lat="34.4420685" lon="8.4461004"><ele>388.0</ele><time>2026-04-30T18:38:48.747Z</time></trkpt><trkpt lat="34.4419505" lon="8.4462866"><ele>388.0</ele><time>2026-04-30T18:38:49.716Z</time></trkpt><trkpt lat="34.4418351" lon="8.4464763"><ele>388.0</ele><time>2026-04-30T18:38:50.755Z</time></trkpt><trkpt lat="34.4417194" lon="8.4466664"><ele>388.0</ele><time>2026-04-30T18:38:51.732Z</time></trkpt><trkpt lat="34.4416029" lon="8.4468586"><ele>388.0</ele><time>2026-04-30T18:38:52.685Z</time></trkpt><trkpt lat="34.4414853" lon="8.4470491"><ele>388.0</ele><time>2026-04-30T18:38:53.705Z</time></trkpt><trkpt lat="34.4413658" lon="8.4472433"><ele>389.0</ele><time>2026-04-30T18:38:54.716Z</time></trkpt><trkpt lat="34.4412458" lon="8.4474374"><ele>390.0</ele><time>2026-04-30T18:38:55.718Z</time></trkpt><trkpt lat="34.4411271" lon="8.4476268"><ele>391.0</ele><time>2026-04-30T18:38:56.738Z</time></trkpt><trkpt lat="34.4410057" lon="8.4478166"><ele>390.0</ele><time>2026-04-30T18:38:57.719Z</time></trkpt><trkpt lat="34.4408862" lon="8.4480124"><ele>389.0</ele><time>2026-04-30T18:38:58.737Z</time></trkpt><trkpt lat="34.4407668" lon="8.4482086"><ele>388.0</ele><time>2026-04-30T18:38:59.724Z</time></trkpt><trkpt lat="34.4406516" lon="8.4484006"><ele>388.0</ele><time>2026-04-30T18:39:00.736Z</time></trkpt><trkpt lat="34.4405349" lon="8.4485897"><ele>388.0</ele><time>2026-04-30T18:39:01.751Z</time></trkpt><trkpt lat="34.4404221" lon="8.4487768"><ele>388.0</ele><time>2026-04-30T18:39:02.713Z</time></trkpt><trkpt lat="34.4403063" lon="8.4489605"><ele>388.33333333333337</ele><time>2026-04-30T18:39:03.724Z</time></trkpt><trkpt lat="34.4401918" lon="8.4491431"><ele>388.66666666666663</ele><time>2026-04-30T18:39:04.718Z</time></trkpt><trkpt lat="34.4400744" lon="8.4493265"><ele>389.0</ele><time>2026-04-30T18:39:05.716Z</time></trkpt><trkpt lat="34.4399637" lon="8.4495107"><ele>389.0</ele><time>2026-04-30T18:39:06.732Z</time></trkpt><trkpt lat="34.4398489" lon="8.4496966"><ele>389.0</ele><time>2026-04-30T18:39:07.704Z</time></trkpt><trkpt lat="34.4397368" lon="8.449886"><ele>389.0</ele><time>2026-04-30T18:39:08.719Z</time></trkpt><trkpt lat="34.4396209" lon="8.4500723"><ele>389.0</ele><time>2026-04-30T18:39:09.732Z</time></trkpt><trkpt lat="34.4395027" lon="8.4502547"><ele>389.0</ele><time>2026-04-30T18:39:10.739Z</time></trkpt><trkpt lat="34.4393832" lon="8.4504352"><ele>389.0</ele><time>2026-04-30T18:39:11.745Z</time></trkpt><trkpt lat="34.4392688" lon="8.4506185"><ele>389.0</ele><time>2026-04-30T18:39:12.738Z</time></trkpt><trkpt lat="34.4391492" lon="8.4507984"><ele>389.0</ele><time>2026-04-30T18:39:13.722Z</time></trkpt><trkpt lat="34.4390345" lon="8.4509814"><ele>389.0</ele><time>2026-04-30T18:39:14.712Z</time></trkpt><trkpt lat="34.4389217" lon="8.4511655"><ele>390.0</ele><time>2026-04-30T18:39:15.725Z</time></trkpt><trkpt lat="34.4388104" lon="8.4513529"><ele>391.0</ele><time>2026-04-30T18:39:16.721Z</time></trkpt><trkpt lat="34.4386958" lon="8.4515355"><ele>392.0</ele><time>2026-04-30T18:39:17.736Z</time></trkpt><trkpt lat="34.4385817" lon="8.4517157"><ele>392.0</ele><time>2026-04-30T18:39:18.728Z</time></trkpt><trkpt lat="34.4384675" lon="8.4518971"><ele>392.0</ele><time>2026-04-30T18:39:19.735Z</time></trkpt><trkpt lat="34.4383555" lon="8.4520771"><ele>392.0</ele><time>2026-04-30T18:39:20.732Z</time></trkpt><trkpt lat="34.4382405" lon="8.4522565"><ele>392.0</ele><time>2026-04-30T18:39:21.718Z</time></trkpt><trkpt lat="34.4381296" lon="8.4524393"><ele>392.0</ele><time>2026-04-30T18:39:22.73Z</time></trkpt><trkpt lat="34.4380188" lon="8.4526232"><ele>392.0</ele><time>2026-04-30T18:39:23.739Z</time></trkpt><trkpt lat="34.4379062" lon="8.4528128"><ele>392.3333333333333</ele><time>2026-04-30T18:39:24.733Z</time></trkpt><trkpt lat="34.4377885" lon="8.4530057"><ele>392.66666666666663</ele><time>2026-04-30T18:39:25.74Z</time></trkpt><trkpt lat="34.4376729" lon="8.4531963"><ele>393.0</ele><time>2026-04-30T18:39:26.718Z</time></trkpt><trkpt lat="34.4375511" lon="8.4533886"><ele>393.0</ele><time>2026-04-30T18:39:27.723Z</time></trkpt><trkpt lat="34.4374314" lon="8.453577"><ele>393.0</ele><time>2026-04-30T18:39:28.711Z</time></trkpt><trkpt lat="34.437313" lon="8.4537689"><ele>393.0</ele><time>2026-04-30T18:39:29.692Z</time></trkpt><trkpt lat="34.4371949" lon="8.4539631"><ele>393.66666666666663</ele><time>2026-04-30T18:39:30.715Z</time></trkpt><trkpt lat="34.4370779" lon="8.4541502"><ele>394.3333333333333</ele><time>2026-04-30T18:39:31.728Z</time></trkpt><trkpt lat="34.4369599" lon="8.4543414"><ele>395.0</ele><time>2026-04-30T18:39:32.739Z</time></trkpt><trkpt lat="34.4368412" lon="8.4545304"><ele>395.0</ele><time>2026-04-30T18:39:33.725Z</time></trkpt><trkpt lat="34.4367247" lon="8.4547171"><ele>395.0</ele><time>2026-04-30T18:39:34.71Z</time></trkpt><trkpt lat="34.436608" lon="8.4549051"><ele>395.0</ele><time>2026-04-30T18:39:35.728Z</time></trkpt><trkpt lat="34.4364907" lon="8.4550886"><ele>395.0</ele><time>2026-04-30T18:39:36.726Z</time></trkpt><trkpt lat="34.436374" lon="8.4552796"><ele>395.0</ele><time>2026-04-30T18:39:37.734Z</time></trkpt><trkpt lat="34.4362516" lon="8.4554736"><ele>395.0</ele><time>2026-04-30T18:39:38.731Z</time></trkpt><trkpt lat="34.4361345" lon="8.4556627"><ele>395.3333333333333</ele><time>2026-04-30T18:39:39.724Z</time></trkpt><trkpt lat="34.4360184" lon="8.4558518"><ele>395.66666666666663</ele><time>2026-04-30T18:39:40.709Z</time></trkpt><trkpt lat="34.4359002" lon="8.4560478"><ele>396.0</ele><time>2026-04-30T18:39:41.726Z</time></trkpt><trkpt lat="34.4357816" lon="8.4562424"><ele>396.0</ele><time>2026-04-30T18:39:42.71Z</time></trkpt><trkpt lat="34.4356665" lon="8.4564301"><ele>396.0</ele><time>2026-04-30T18:39:43.735Z</time></trkpt><trkpt lat="34.4355474" lon="8.4566221"><ele>396.0</ele><time>2026-04-30T18:39:44.72Z</time></trkpt><trkpt lat="34.4354246" lon="8.4568118"><ele>396.0</ele><time>2026-04-30T18:39:45.713Z</time></trkpt><trkpt lat="34.4353053" lon="8.4569986"><ele>396.0</ele><time>2026-04-30T18:39:46.705Z</time></trkpt><trkpt lat="34.435185" lon="8.4571846"><ele>396.0</ele><time>2026-04-30T18:39:47.737Z</time></trkpt><trkpt lat="34.4350679" lon="8.4573779"><ele>396.33333333333337</ele><time>2026-04-30T18:39:48.714Z</time></trkpt><trkpt lat="34.4349437" lon="8.4575669"><ele>396.6666666666667</ele><time>2026-04-30T18:39:49.719Z</time></trkpt><trkpt lat="34.434822" lon="8.4577563"><ele>397.0</ele><time>2026-04-30T18:39:50.74Z</time></trkpt><trkpt lat="34.4347045" lon="8.4579508"><ele>397.33333333333337</ele><time>2026-04-30T18:39:51.736Z</time></trkpt><trkpt lat="34.4345811" lon="8.4581544"><ele>397.66666666666663</ele><time>2026-04-30T18:39:52.737Z</time></trkpt><trkpt lat="34.4344445" lon="8.4583679"><ele>398.0</ele><time>2026-04-30T18:39:53.681Z</time></trkpt><trkpt lat="34.4343169" lon="8.4585827"><ele>398.0</ele><time>2026-04-30T18:39:54.716Z</time></trkpt><trkpt lat="34.4341813" lon="8.4588079"><ele>398.0</ele><time>2026-04-30T18:39:55.727Z</time></trkpt><trkpt lat="34.4340433" lon="8.459026"><ele>398.0</ele><time>2026-04-30T18:39:56.731Z</time></trkpt><trkpt lat="34.4339063" lon="8.459249"><ele>398.0</ele><time>2026-04-30T18:39:57.687Z</time></trkpt><trkpt lat="34.4337671" lon="8.4594753"><ele>398.3333333333333</ele><time>2026-04-30T18:39:58.72Z</time></trkpt><trkpt lat="34.4336281" lon="8.4596967"><ele>398.66666666666663</ele><time>2026-04-30T18:39:59.729Z</time></trkpt><trkpt lat="34.4334925" lon="8.4599052"><ele>399.0</ele><time>2026-04-30T18:40:00.726Z</time></trkpt><trkpt lat="34.4333605" lon="8.4601044"><ele>399.0</ele><time>2026-04-30T18:40:01.724Z</time></trkpt><trkpt lat="34.4332395" lon="8.4603044"><ele>399.0</ele><time>2026-04-30T18:40:02.732Z</time></trkpt><trkpt lat="34.4331152" lon="8.4605046"><ele>399.0</ele><time>2026-04-30T18:40:03.735Z</time></trkpt><trkpt lat="34.4329883" lon="8.46071"><ele>399.33333333333337</ele><time>2026-04-30T18:40:04.708Z</time></trkpt><trkpt lat="34.4328551" lon="8.4609179"><ele>399.6666666666667</ele><time>2026-04-30T18:40:05.733Z</time></trkpt><trkpt lat="34.4327304" lon="8.4611276"><ele>400.0</ele><time>2026-04-30T18:40:06.692Z</time></trkpt><trkpt lat="34.4326032" lon="8.4613361"><ele>400.0</ele><time>2026-04-30T18:40:07.73Z</time></trkpt><trkpt lat="34.4324752" lon="8.4615379"><ele>400.0</ele><time>2026-04-30T18:40:08.737Z</time></trkpt><trkpt lat="34.4323484" lon="8.4617435"><ele>400.0</ele><time>2026-04-30T18:40:09.734Z</time></trkpt><trkpt lat="34.4322229" lon="8.4619525"><ele>400.33333333333337</ele><time>2026-04-30T18:40:10.727Z</time></trkpt><trkpt lat="34.4320935" lon="8.4621538"><ele>400.66666666666663</ele><time>2026-04-30T18:40:11.687Z</time></trkpt><trkpt lat="34.4319664" lon="8.462358"><ele>401.0</ele><time>2026-04-30T18:40:12.68Z</time></trkpt><trkpt lat="34.4318432" lon="8.4625656"><ele>401.0</ele><time>2026-04-30T18:40:13.728Z</time></trkpt><trkpt lat="34.4317178" lon="8.4627672"><ele>401.0</ele><time>2026-04-30T18:40:14.733Z</time></trkpt><trkpt lat="34.4315926" lon="8.462968"><ele>401.0</ele><time>2026-04-30T18:40:15.737Z</time></trkpt><trkpt lat="34.4314701" lon="8.4631609"><ele>401.0</ele><time>2026-04-30T18:40:16.709Z</time></trkpt><trkpt lat="34.4313477" lon="8.4633547"><ele>401.0</ele><time>2026-04-30T18:40:17.732Z</time></trkpt><trkpt lat="34.4312277" lon="8.4635474"><ele>401.0</ele><time>2026-04-30T18:40:18.725Z</time></trkpt><trkpt lat="34.431112" lon="8.4637359"><ele>402.3333333333333</ele><time>2026-04-30T18:40:19.724Z</time></trkpt><trkpt lat="34.4309933" lon="8.4639208"><ele>403.66666666666663</ele><time>2026-04-30T18:40:20.73Z</time></trkpt><trkpt lat="34.4308791" lon="8.464107"><ele>405.0</ele><time>2026-04-30T18:40:21.739Z</time></trkpt><trkpt lat="34.4307612" lon="8.4642883"><ele>405.0</ele><time>2026-04-30T18:40:22.733Z</time></trkpt><trkpt lat="34.430645" lon="8.4644719"><ele>405.0</ele><time>2026-04-30T18:40:23.705Z</time></trkpt><trkpt lat="34.4305271" lon="8.4646585"><ele>405.0</ele><time>2026-04-30T18:40:24.74Z</time></trkpt><trkpt lat="34.4304025" lon="8.464844"><ele>404.66666666666663</ele><time>2026-04-30T18:40:25.728Z</time></trkpt><trkpt lat="34.4302766" lon="8.4650275"><ele>404.3333333333333</ele><time>2026-04-30T18:40:26.731Z</time></trkpt><trkpt lat="34.4301591" lon="8.4651957"><ele>404.0</ele><time>2026-04-30T18:40:27.713Z</time></trkpt><trkpt lat="34.4300427" lon="8.4653636"><ele>404.3333333333333</ele><time>2026-04-30T18:40:28.731Z</time></trkpt><trkpt lat="34.4299325" lon="8.4655372"><ele>404.66666666666663</ele><time>2026-04-30T18:40:29.729Z</time></trkpt><trkpt lat="34.4298221" lon="8.4657024"><ele>405.0</ele><time>2026-04-30T18:40:30.728Z</time></trkpt><trkpt lat="34.4297117" lon="8.4658708"><ele>406.33333333333337</ele><time>2026-04-30T18:40:31.734Z</time></trkpt><trkpt lat="34.4296025" lon="8.466042"><ele>407.6666666666667</ele><time>2026-04-30T18:40:32.727Z</time></trkpt><trkpt lat="34.4294969" lon="8.4662077"><ele>409.0</ele><time>2026-04-30T18:40:33.696Z</time></trkpt><trkpt lat="34.4294004" lon="8.4663753"><ele>410.0</ele><time>2026-04-30T18:40:34.743Z</time></trkpt><trkpt lat="34.4293069" lon="8.4665387"><ele>411.0</ele><time>2026-04-30T18:40:35.741Z</time></trkpt><trkpt lat="34.4292159" lon="8.4667001"><ele>412.0</ele><time>2026-04-30T18:40:36.732Z</time></trkpt><trkpt lat="34.4291223" lon="8.466858"><ele>412.0</ele><time>2026-04-30T18:40:37.74Z</time></trkpt><trkpt lat="34.4290316" lon="8.4670159"><ele>412.0</ele><time>2026-04-30T18:40:38.698Z</time></trkpt><trkpt lat="34.4289387" lon="8.4671738"><ele>412.0</ele><time>2026-04-30T18:40:39.726Z</time></trkpt><trkpt lat="34.4288424" lon="8.467332"><ele>411.6666666666667</ele><time>2026-04-30T18:40:40.739Z</time></trkpt><trkpt lat="34.4287485" lon="8.4674956"><ele>411.33333333333337</ele><time>2026-04-30T18:40:41.736Z</time></trkpt><trkpt lat="34.4286495" lon="8.4676624"><ele>411.0</ele><time>2026-04-30T18:40:42.718Z</time></trkpt><trkpt lat="34.4285446" lon="8.467833"><ele>410.66666666666663</ele><time>2026-04-30T18:40:43.746Z</time></trkpt><trkpt lat="34.4284402" lon="8.468009"><ele>410.3333333333333</ele><time>2026-04-30T18:40:44.714Z</time></trkpt><trkpt lat="34.428332" lon="8.4681869"><ele>410.0</ele><time>2026-04-30T18:40:45.733Z</time></trkpt><trkpt lat="34.4282279" lon="8.4683597"><ele>410.0</ele><time>2026-04-30T18:40:46.726Z</time></trkpt><trkpt lat="34.4281256" lon="8.4685368"><ele>410.0</ele><time>2026-04-30T18:40:47.733Z</time></trkpt><trkpt lat="34.4280235" lon="8.4687043"><ele>410.0</ele><time>2026-04-30T18:40:48.696Z</time></trkpt><trkpt lat="34.4279187" lon="8.468873"><ele>410.3333333333333</ele><time>2026-04-30T18:40:49.705Z</time></trkpt><trkpt lat="34.4278162" lon="8.4690434"><ele>410.66666666666663</ele><time>2026-04-30T18:40:50.689Z</time></trkpt><trkpt lat="34.4277181" lon="8.4692087"><ele>411.0</ele><time>2026-04-30T18:40:51.703Z</time></trkpt><trkpt lat="34.4276189" lon="8.4693753"><ele>411.0</ele><time>2026-04-30T18:40:52.687Z</time></trkpt><trkpt lat="34.4275205" lon="8.469534"><ele>411.0</ele><time>2026-04-30T18:40:53.713Z</time></trkpt><trkpt lat="34.4274212" lon="8.4696945"><ele>411.0</ele><time>2026-04-30T18:40:54.7Z</time></trkpt><trkpt lat="34.4273234" lon="8.4698549"><ele>411.0</ele><time>2026-04-30T18:40:55.718Z</time></trkpt><trkpt lat="34.4272232" lon="8.4700147"><ele>411.0</ele><time>2026-04-30T18:40:56.712Z</time></trkpt><trkpt lat="34.4271215" lon="8.4701715"><ele>411.0</ele><time>2026-04-30T18:40:57.714Z</time></trkpt><trkpt lat="34.4270193" lon="8.4703325"><ele>410.33333333333337</ele><time>2026-04-30T18:40:58.687Z</time></trkpt><trkpt lat="34.4269181" lon="8.4704933"><ele>409.6666666666667</ele><time>2026-04-30T18:40:59.734Z</time></trkpt><trkpt lat="34.4268159" lon="8.4706534"><ele>409.0</ele><time>2026-04-30T18:41:00.73Z</time></trkpt><trkpt lat="34.4267177" lon="8.4708183"><ele>409.0</ele><time>2026-04-30T18:41:01.727Z</time></trkpt><trkpt lat="34.4266141" lon="8.4709848"><ele>409.0</ele><time>2026-04-30T18:41:02.744Z</time></trkpt><trkpt lat="34.4265089" lon="8.4711522"><ele>409.0</ele><time>2026-04-30T18:41:03.705Z</time></trkpt><trkpt lat="34.4264037" lon="8.4713173"><ele>410.0</ele><time>2026-04-30T18:41:04.694Z</time></trkpt><trkpt lat="34.4263016" lon="8.4714856"><ele>411.0</ele><time>2026-04-30T18:41:05.723Z</time></trkpt><trkpt lat="34.4261922" lon="8.4716522"><ele>412.0</ele><time>2026-04-30T18:41:06.731Z</time></trkpt><trkpt lat="34.426082" lon="8.4718234"><ele>412.0</ele><time>2026-04-30T18:41:07.697Z</time></trkpt><trkpt lat="34.425975" lon="8.4719953"><ele>412.0</ele><time>2026-04-30T18:41:08.733Z</time></trkpt><trkpt lat="34.4258654" lon="8.472175"><ele>412.0</ele><time>2026-04-30T18:41:09.732Z</time></trkpt><trkpt lat="34.4257514" lon="8.4723566"><ele>412.33333333333337</ele><time>2026-04-30T18:41:10.72Z</time></trkpt><trkpt lat="34.4256306" lon="8.472549"><ele>412.66666666666663</ele><time>2026-04-30T18:41:11.731Z</time></trkpt><trkpt lat="34.4255137" lon="8.4727407"><ele>413.0</ele><time>2026-04-30T18:41:12.688Z</time></trkpt><trkpt lat="34.425397" lon="8.4729295"><ele>412.66666666666663</ele><time>2026-04-30T18:41:13.714Z</time></trkpt><trkpt lat="34.4252771" lon="8.4731188"><ele>412.33333333333337</ele><time>2026-04-30T18:41:14.686Z</time></trkpt><trkpt lat="34.4251595" lon="8.4733092"><ele>412.0</ele><time>2026-04-30T18:41:15.712Z</time></trkpt><trkpt lat="34.4250473" lon="8.4734948"><ele>412.0</ele><time>2026-04-30T18:41:16.733Z</time></trkpt><trkpt lat="34.4249316" lon="8.4736813"><ele>412.0</ele><time>2026-04-30T18:41:17.741Z</time></trkpt><trkpt lat="34.424814" lon="8.4738692"><ele>412.0</ele><time>2026-04-30T18:41:18.718Z</time></trkpt><trkpt lat="34.4246916" lon="8.4740595"><ele>412.0</ele><time>2026-04-30T18:41:19.734Z</time></trkpt><trkpt lat="34.4245749" lon="8.474251"><ele>412.0</ele><time>2026-04-30T18:41:20.733Z</time></trkpt><trkpt lat="34.4244566" lon="8.4744365"><ele>412.0</ele><time>2026-04-30T18:41:21.733Z</time></trkpt><trkpt lat="34.4243411" lon="8.4746247"><ele>413.0</ele><time>2026-04-30T18:41:22.721Z</time></trkpt><trkpt lat="34.4242252" lon="8.4748126"><ele>414.0</ele><time>2026-04-30T18:41:23.699Z</time></trkpt><trkpt lat="34.4241124" lon="8.475001"><ele>415.0</ele><time>2026-04-30T18:41:24.691Z</time></trkpt><trkpt lat="34.4239988" lon="8.4751897"><ele>415.0</ele><time>2026-04-30T18:41:25.716Z</time></trkpt><trkpt lat="34.4238854" lon="8.4753771"><ele>415.0</ele><time>2026-04-30T18:41:26.74Z</time></trkpt><trkpt lat="34.4237624" lon="8.4755644"><ele>415.0</ele><time>2026-04-30T18:41:27.7Z</time></trkpt><trkpt lat="34.4236414" lon="8.4757519"><ele>415.0</ele><time>2026-04-30T18:41:28.731Z</time></trkpt><trkpt lat="34.4235171" lon="8.4759375"><ele>415.0</ele><time>2026-04-30T18:41:29.71Z</time></trkpt><trkpt lat="34.4233971" lon="8.476127"><ele>415.0</ele><time>2026-04-30T18:41:30.741Z</time></trkpt><trkpt lat="34.4232802" lon="8.4763201"><ele>415.0</ele><time>2026-04-30T18:41:31.735Z</time></trkpt><trkpt lat="34.4231578" lon="8.4765168"><ele>415.0</ele><time>2026-04-30T18:41:32.726Z</time></trkpt><trkpt lat="34.4230345" lon="8.4767139"><ele>415.0</ele><time>2026-04-30T18:41:33.748Z</time></trkpt><trkpt lat="34.4229124" lon="8.4769087"><ele>414.6666666666667</ele><time>2026-04-30T18:41:34.705Z</time></trkpt><trkpt lat="34.4227874" lon="8.4771047"><ele>414.33333333333337</ele><time>2026-04-30T18:41:35.722Z</time></trkpt><trkpt lat="34.4226632" lon="8.4773029"><ele>414.0</ele><time>2026-04-30T18:41:36.729Z</time></trkpt><trkpt lat="34.4225397" lon="8.4775063"><ele>414.0</ele><time>2026-04-30T18:41:37.736Z</time></trkpt><trkpt lat="34.422415" lon="8.4777054"><ele>414.0</ele><time>2026-04-30T18:41:38.718Z</time></trkpt><trkpt lat="34.4222911" lon="8.477897"><ele>414.0</ele><time>2026-04-30T18:41:39.674Z</time></trkpt><trkpt lat="34.4221735" lon="8.4780901"><ele>413.0</ele><time>2026-04-30T18:41:40.729Z</time></trkpt><trkpt lat="34.4220534" lon="8.4782821"><ele>412.0</ele><time>2026-04-30T18:41:41.737Z</time></trkpt><trkpt lat="34.4219348" lon="8.4784743"><ele>411.0</ele><time>2026-04-30T18:41:42.741Z</time></trkpt><trkpt lat="34.421815" lon="8.4786709"><ele>412.0</ele><time>2026-04-30T18:41:43.726Z</time></trkpt><trkpt lat="34.4216931" lon="8.478863"><ele>413.0</ele><time>2026-04-30T18:41:44.699Z</time></trkpt><trkpt lat="34.4215709" lon="8.4790476"><ele>414.0</ele><time>2026-04-30T18:41:45.732Z</time></trkpt><trkpt lat="34.421446" lon="8.4792333"><ele>414.0</ele><time>2026-04-30T18:41:46.717Z</time></trkpt><trkpt lat="34.4213202" lon="8.4794162"><ele>414.0</ele><time>2026-04-30T18:41:47.743Z</time></trkpt><trkpt lat="34.4211953" lon="8.4795969"><ele>414.0</ele><time>2026-04-30T18:41:48.707Z</time></trkpt><trkpt lat="34.4210685" lon="8.4797756"><ele>415.66666666666663</ele><time>2026-04-30T18:41:49.748Z</time></trkpt><trkpt lat="34.4209389" lon="8.4799523"><ele>417.3333333333333</ele><time>2026-04-30T18:41:50.737Z</time></trkpt><trkpt lat="34.4208063" lon="8.4801295"><ele>419.0</ele><time>2026-04-30T18:41:51.72Z</time></trkpt><trkpt lat="34.42068" lon="8.4803076"><ele>417.66666666666663</ele><time>2026-04-30T18:41:52.722Z</time></trkpt><trkpt lat="34.4205498" lon="8.480481"><ele>416.33333333333337</ele><time>2026-04-30T18:41:53.682Z</time></trkpt><trkpt lat="34.4204246" lon="8.4806541"><ele>415.0</ele><time>2026-04-30T18:41:54.695Z</time></trkpt><trkpt lat="34.4202975" lon="8.4808327"><ele>413.33333333333337</ele><time>2026-04-30T18:41:55.678Z</time></trkpt><trkpt lat="34.4201693" lon="8.4810137"><ele>411.66666666666663</ele><time>2026-04-30T18:41:56.708Z</time></trkpt><trkpt lat="34.4200452" lon="8.48119"><ele>410.0</ele><time>2026-04-30T18:41:57.721Z</time></trkpt><trkpt lat="34.4199208" lon="8.4813704"><ele>410.0</ele><time>2026-04-30T18:41:58.707Z</time></trkpt><trkpt lat="34.419799" lon="8.4815539"><ele>410.0</ele><time>2026-04-30T18:41:59.707Z</time></trkpt><trkpt lat="34.419681" lon="8.4817458"><ele>410.0</ele><time>2026-04-30T18:42:00.727Z</time></trkpt><trkpt lat="34.4195627" lon="8.4819341"><ele>411.66666666666663</ele><time>2026-04-30T18:42:01.726Z</time></trkpt><trkpt lat="34.4194471" lon="8.4821281"><ele>413.33333333333337</ele><time>2026-04-30T18:42:02.723Z</time></trkpt><trkpt lat="34.4193339" lon="8.4823276"><ele>415.0</ele><time>2026-04-30T18:42:03.741Z</time></trkpt><trkpt lat="34.4192237" lon="8.4825277"><ele>415.0</ele><time>2026-04-30T18:42:04.714Z</time></trkpt><trkpt lat="34.4191139" lon="8.4827222"><ele>415.0</ele><time>2026-04-30T18:42:05.73Z</time></trkpt><trkpt lat="34.4190089" lon="8.4829171"><ele>415.0</ele><time>2026-04-30T18:42:06.743Z</time></trkpt><trkpt lat="34.4189037" lon="8.4831059"><ele>416.33333333333337</ele><time>2026-04-30T18:42:07.741Z</time></trkpt><trkpt lat="34.4187985" lon="8.4832949"><ele>417.66666666666663</ele><time>2026-04-30T18:42:08.727Z</time></trkpt><trkpt lat="34.4186954" lon="8.4834894"><ele>419.0</ele><time>2026-04-30T18:42:09.738Z</time></trkpt><trkpt lat="34.4185924" lon="8.4836804"><ele>418.66666666666663</ele><time>2026-04-30T18:42:10.741Z</time></trkpt><trkpt lat="34.4184879" lon="8.4838703"><ele>418.33333333333337</ele><time>2026-04-30T18:42:11.724Z</time></trkpt><trkpt lat="34.4183851" lon="8.4840608"><ele>418.0</ele><time>2026-04-30T18:42:12.73Z</time></trkpt><trkpt lat="34.4182831" lon="8.4842496"><ele>418.0</ele><time>2026-04-30T18:42:13.731Z</time></trkpt><trkpt lat="34.4181823" lon="8.4844306"><ele>418.0</ele><time>2026-04-30T18:42:14.727Z</time></trkpt><trkpt lat="34.418082" lon="8.4846179"><ele>418.0</ele><time>2026-04-30T18:42:15.733Z</time></trkpt><trkpt lat="34.4179855" lon="8.4847949"><ele>419.0</ele><time>2026-04-30T18:42:16.737Z</time></trkpt><trkpt lat="34.4178933" lon="8.4849634"><ele>420.0</ele><time>2026-04-30T18:42:17.726Z</time></trkpt><trkpt lat="34.4178058" lon="8.4851265"><ele>421.0</ele><time>2026-04-30T18:42:18.737Z</time></trkpt><trkpt lat="34.4177143" lon="8.4852935"><ele>422.6666666666667</ele><time>2026-04-30T18:42:19.708Z</time></trkpt><trkpt lat="34.4176258" lon="8.4854559"><ele>424.33333333333337</ele><time>2026-04-30T18:42:20.723Z</time></trkpt><trkpt lat="34.4175349" lon="8.4856174"><ele>426.0</ele><time>2026-04-30T18:42:21.726Z</time></trkpt><trkpt lat="34.4174414" lon="8.4857807"><ele>426.0</ele><time>2026-04-30T18:42:22.728Z</time></trkpt><trkpt lat="34.4173471" lon="8.4859476"><ele>426.0</ele><time>2026-04-30T18:42:23.718Z</time></trkpt><trkpt lat="34.4172602" lon="8.4861124"><ele>426.0</ele><time>2026-04-30T18:42:24.687Z</time></trkpt><trkpt lat="34.4171712" lon="8.4862781"><ele>429.33333333333337</ele><time>2026-04-30T18:42:25.704Z</time></trkpt><trkpt lat="34.4170821" lon="8.4864405"><ele>432.6666666666667</ele><time>2026-04-30T18:42:26.704Z</time></trkpt><trkpt lat="34.4169919" lon="8.4866048"><ele>436.0</ele><time>2026-04-30T18:42:27.691Z</time></trkpt><trkpt lat="34.4169034" lon="8.4867716"><ele>436.0</ele><time>2026-04-30T18:42:28.683Z</time></trkpt><trkpt lat="34.4168135" lon="8.4869376"><ele>436.0</ele><time>2026-04-30T18:42:29.685Z</time></trkpt><trkpt lat="34.4167245" lon="8.487101"><ele>436.0</ele><time>2026-04-30T18:42:30.685Z</time></trkpt><trkpt lat="34.4166361" lon="8.4872659"><ele>433.6666666666667</ele><time>2026-04-30T18:42:31.695Z</time></trkpt><trkpt lat="34.4165467" lon="8.4874302"><ele>431.33333333333337</ele><time>2026-04-30T18:42:32.685Z</time></trkpt><trkpt lat="34.4164553" lon="8.4875991"><ele>429.0</ele><time>2026-04-30T18:42:33.687Z</time></trkpt><trkpt lat="34.4163613" lon="8.4877686"><ele>427.66666666666663</ele><time>2026-04-30T18:42:34.689Z</time></trkpt><trkpt lat="34.416267" lon="8.4879362"><ele>426.3333333333333</ele><time>2026-04-30T18:42:35.698Z</time></trkpt><trkpt lat="34.4161712" lon="8.4881108"><ele>425.0</ele><time>2026-04-30T18:42:36.702Z</time></trkpt><trkpt lat="34.4160772" lon="8.4882803"><ele>425.0</ele><time>2026-04-30T18:42:37.692Z</time></trkpt><trkpt lat="34.4159834" lon="8.488454"><ele>425.0</ele><time>2026-04-30T18:42:38.696Z</time></trkpt><trkpt lat="34.4158899" lon="8.4886343"><ele>425.0</ele><time>2026-04-30T18:42:39.703Z</time></trkpt><trkpt lat="34.4157931" lon="8.48881"><ele>424.66666666666663</ele><time>2026-04-30T18:42:40.689Z</time></trkpt><trkpt lat="34.4156964" lon="8.4889927"><ele>424.33333333333337</ele><time>2026-04-30T18:42:41.698Z</time></trkpt><trkpt lat="34.4155961" lon="8.4891782"><ele>424.0</ele><time>2026-04-30T18:42:42.692Z</time></trkpt><trkpt lat="34.4154948" lon="8.4893605"><ele>424.6666666666667</ele><time>2026-04-30T18:42:43.689Z</time></trkpt><trkpt lat="34.4153942" lon="8.4895323"><ele>425.33333333333337</ele><time>2026-04-30T18:42:44.691Z</time></trkpt><trkpt lat="34.4152939" lon="8.4897032"><ele>426.0</ele><time>2026-04-30T18:42:45.682Z</time></trkpt><trkpt lat="34.4151959" lon="8.4898695"><ele>426.66666666666663</ele><time>2026-04-30T18:42:46.69Z</time></trkpt><trkpt lat="34.4150921" lon="8.4900314"><ele>427.3333333333333</ele><time>2026-04-30T18:42:47.692Z</time></trkpt><trkpt lat="34.4149866" lon="8.4901949"><ele>428.0</ele><time>2026-04-30T18:42:48.698Z</time></trkpt><trkpt lat="34.4148792" lon="8.4903503"><ele>428.0</ele><time>2026-04-30T18:42:49.676Z</time></trkpt><trkpt lat="34.4147689" lon="8.4905121"><ele>428.0</ele><time>2026-04-30T18:42:50.691Z</time></trkpt><trkpt lat="34.4146582" lon="8.490669"><ele>428.0</ele><time>2026-04-30T18:42:51.688Z</time></trkpt><trkpt lat="34.4145443" lon="8.4908288"><ele>428.0</ele><time>2026-04-30T18:42:52.689Z</time></trkpt><trkpt lat="34.4144213" lon="8.4909856"><ele>428.0</ele><time>2026-04-30T18:42:53.71Z</time></trkpt><trkpt lat="34.4142924" lon="8.4911418"><ele>428.0</ele><time>2026-04-30T18:42:54.69Z</time></trkpt><trkpt lat="34.4141539" lon="8.4912995"><ele>426.66666666666663</ele><time>2026-04-30T18:42:55.687Z</time></trkpt><trkpt lat="34.414002" lon="8.4914589"><ele>425.33333333333337</ele><time>2026-04-30T18:42:56.681Z</time></trkpt><trkpt lat="34.4138503" lon="8.4916172"><ele>424.0</ele><time>2026-04-30T18:42:57.683Z</time></trkpt><trkpt lat="34.4136945" lon="8.4917735"><ele>424.0</ele><time>2026-04-30T18:42:58.679Z</time></trkpt><trkpt lat="34.4135337" lon="8.4919286"><ele>424.0</ele><time>2026-04-30T18:42:59.687Z</time></trkpt><trkpt lat="34.4133732" lon="8.4920814"><ele>424.0</ele><time>2026-04-30T18:43:00.684Z</time></trkpt><trkpt lat="34.4132039" lon="8.4922285"><ele>423.33333333333337</ele><time>2026-04-30T18:43:01.689Z</time></trkpt><trkpt lat="34.4130339" lon="8.4923761"><ele>422.66666666666663</ele><time>2026-04-30T18:43:02.679Z</time></trkpt><trkpt lat="34.4128573" lon="8.4925155"><ele>422.0</ele><time>2026-04-30T18:43:03.687Z</time></trkpt><trkpt lat="34.4126733" lon="8.4926523"><ele>422.0</ele><time>2026-04-30T18:43:04.693Z</time></trkpt><trkpt lat="34.41248" lon="8.4927794"><ele>422.0</ele><time>2026-04-30T18:43:05.692Z</time></trkpt><trkpt lat="34.4122879" lon="8.4929004"><ele>422.0</ele><time>2026-04-30T18:43:06.682Z</time></trkpt><trkpt lat="34.4120978" lon="8.4930183"><ele>424.0</ele><time>2026-04-30T18:43:07.69Z</time></trkpt><trkpt lat="34.411908" lon="8.4931381"><ele>426.0</ele><time>2026-04-30T18:43:08.691Z</time></trkpt><trkpt lat="34.4117188" lon="8.4932521"><ele>428.0</ele><time>2026-04-30T18:43:09.692Z</time></trkpt><trkpt lat="34.4115319" lon="8.4933637"><ele>428.0</ele><time>2026-04-30T18:43:10.693Z</time></trkpt><trkpt lat="34.4113502" lon="8.4934674"><ele>428.0</ele><time>2026-04-30T18:43:11.683Z</time></trkpt><trkpt lat="34.4111703" lon="8.4935764"><ele>428.0</ele><time>2026-04-30T18:43:12.698Z</time></trkpt><trkpt lat="34.4109992" lon="8.4936882"><ele>429.0</ele><time>2026-04-30T18:43:13.684Z</time></trkpt><trkpt lat="34.4108315" lon="8.4938054"><ele>430.0</ele><time>2026-04-30T18:43:14.679Z</time></trkpt><trkpt lat="34.4106676" lon="8.4939271"><ele>431.0</ele><time>2026-04-30T18:43:15.679Z</time></trkpt><trkpt lat="34.410513" lon="8.4940587"><ele>430.3333333333333</ele><time>2026-04-30T18:43:16.687Z</time></trkpt><trkpt lat="34.4103658" lon="8.4942012"><ele>429.66666666666663</ele><time>2026-04-30T18:43:17.678Z</time></trkpt><trkpt lat="34.4102269" lon="8.4943477"><ele>429.0</ele><time>2026-04-30T18:43:18.682Z</time></trkpt><trkpt lat="34.4100955" lon="8.4945121"><ele>429.66666666666663</ele><time>2026-04-30T18:43:19.683Z</time></trkpt><trkpt lat="34.4099723" lon="8.4946808"><ele>430.3333333333333</ele><time>2026-04-30T18:43:20.688Z</time></trkpt><trkpt lat="34.4098559" lon="8.4948615"><ele>431.0</ele><time>2026-04-30T18:43:21.699Z</time></trkpt><trkpt lat="34.4097466" lon="8.4950382"><ele>431.3333333333333</ele><time>2026-04-30T18:43:22.684Z</time></trkpt><trkpt lat="34.4096357" lon="8.4952202"><ele>431.66666666666663</ele><time>2026-04-30T18:43:23.69Z</time></trkpt><trkpt lat="34.4095303" lon="8.4954067"><ele>432.0</ele><time>2026-04-30T18:43:24.68Z</time></trkpt><trkpt lat="34.409416" lon="8.4955882"><ele>433.0</ele><time>2026-04-30T18:43:25.711Z</time></trkpt><trkpt lat="34.4093013" lon="8.4957733"><ele>434.0</ele><time>2026-04-30T18:43:26.694Z</time></trkpt><trkpt lat="34.4091907" lon="8.4959582"><ele>435.0</ele><time>2026-04-30T18:43:27.688Z</time></trkpt><trkpt lat="34.4090764" lon="8.4961417"><ele>435.0</ele><time>2026-04-30T18:43:28.683Z</time></trkpt><trkpt lat="34.4089621" lon="8.4963282"><ele>435.0</ele><time>2026-04-30T18:43:29.697Z</time></trkpt><trkpt lat="34.408849" lon="8.4965088"><ele>435.0</ele><time>2026-04-30T18:43:30.69Z</time></trkpt><trkpt lat="34.4087381" lon="8.4966926"><ele>435.0</ele><time>2026-04-30T18:43:31.683Z</time></trkpt><trkpt lat="34.4086274" lon="8.4968783"><ele>435.0</ele><time>2026-04-30T18:43:32.697Z</time></trkpt><trkpt lat="34.4085136" lon="8.4970651"><ele>435.0</ele><time>2026-04-30T18:43:33.688Z</time></trkpt><trkpt lat="34.4084026" lon="8.4972444"><ele>435.33333333333337</ele><time>2026-04-30T18:43:34.684Z</time></trkpt><trkpt lat="34.4082862" lon="8.4974325"><ele>435.6666666666667</ele><time>2026-04-30T18:43:35.683Z</time></trkpt><trkpt lat="34.4081724" lon="8.4976191"><ele>436.0</ele><time>2026-04-30T18:43:36.685Z</time></trkpt><trkpt lat="34.4080547" lon="8.4978074"><ele>436.33333333333337</ele><time>2026-04-30T18:43:37.694Z</time></trkpt><trkpt lat="34.4079362" lon="8.4979878"><ele>436.66666666666663</ele><time>2026-04-30T18:43:38.687Z</time></trkpt><trkpt lat="34.4078175" lon="8.4981703"><ele>437.0</ele><time>2026-04-30T18:43:39.691Z</time></trkpt><trkpt lat="34.4076985" lon="8.4983499"><ele>437.0</ele><time>2026-04-30T18:43:40.688Z</time></trkpt><trkpt lat="34.4075764" lon="8.4985249"><ele>437.0</ele><time>2026-04-30T18:43:41.697Z</time></trkpt><trkpt lat="34.4074606" lon="8.4987031"><ele>437.0</ele><time>2026-04-30T18:43:42.701Z</time></trkpt><trkpt lat="34.4073399" lon="8.4988813"><ele>436.3333333333333</ele><time>2026-04-30T18:43:43.678Z</time></trkpt><trkpt lat="34.4072228" lon="8.4990596"><ele>435.66666666666663</ele><time>2026-04-30T18:43:44.685Z</time></trkpt><trkpt lat="34.4071062" lon="8.499245"><ele>435.0</ele><time>2026-04-30T18:43:45.681Z</time></trkpt><trkpt lat="34.4069902" lon="8.4994325"><ele>434.0</ele><time>2026-04-30T18:43:46.675Z</time></trkpt><trkpt lat="34.4068678" lon="8.4996108"><ele>433.0</ele><time>2026-04-30T18:43:47.685Z</time></trkpt><trkpt lat="34.406749" lon="8.4997853"><ele>432.0</ele><time>2026-04-30T18:43:48.686Z</time></trkpt><trkpt lat="34.4066331" lon="8.4999635"><ele>432.0</ele><time>2026-04-30T18:43:49.677Z</time></trkpt><trkpt lat="34.4065153" lon="8.5001412"><ele>432.0</ele><time>2026-04-30T18:43:50.692Z</time></trkpt><trkpt lat="34.4063974" lon="8.500316"><ele>432.0</ele><time>2026-04-30T18:43:51.687Z</time></trkpt><trkpt lat="34.4062798" lon="8.5004979"><ele>431.0</ele><time>2026-04-30T18:43:52.693Z</time></trkpt><trkpt lat="34.4061604" lon="8.5006789"><ele>430.0</ele><time>2026-04-30T18:43:53.686Z</time></trkpt><trkpt lat="34.4060399" lon="8.5008586"><ele>429.0</ele><time>2026-04-30T18:43:54.686Z</time></trkpt><trkpt lat="34.4059211" lon="8.5010371"><ele>429.0</ele><time>2026-04-30T18:43:55.71Z</time></trkpt><trkpt lat="34.4058046" lon="8.5012181"><ele>429.0</ele><time>2026-04-30T18:43:56.688Z</time></trkpt><trkpt lat="34.4056873" lon="8.5013993"><ele>429.0</ele><time>2026-04-30T18:43:57.692Z</time></trkpt><trkpt lat="34.4055716" lon="8.5015799"><ele>429.33333333333337</ele><time>2026-04-30T18:43:58.687Z</time></trkpt><trkpt lat="34.4054504" lon="8.5017547"><ele>429.6666666666667</ele><time>2026-04-30T18:43:59.686Z</time></trkpt><trkpt lat="34.4053324" lon="8.5019347"><ele>430.0</ele><time>2026-04-30T18:44:00.688Z</time></trkpt><trkpt lat="34.4052127" lon="8.5021164"><ele>430.0</ele><time>2026-04-30T18:44:01.688Z</time></trkpt><trkpt lat="34.4050926" lon="8.5022961"><ele>430.0</ele><time>2026-04-30T18:44:02.689Z</time></trkpt><trkpt lat="34.4049745" lon="8.5024717"><ele>430.0</ele><time>2026-04-30T18:44:03.689Z</time></trkpt><trkpt lat="34.4048518" lon="8.5026473"><ele>430.0</ele><time>2026-04-30T18:44:04.683Z</time></trkpt><trkpt lat="34.4047353" lon="8.5028259"><ele>430.0</ele><time>2026-04-30T18:44:05.688Z</time></trkpt><trkpt lat="34.4046175" lon="8.503008"><ele>430.0</ele><time>2026-04-30T18:44:06.692Z</time></trkpt><trkpt lat="34.4045002" lon="8.5031828"><ele>431.6666666666667</ele><time>2026-04-30T18:44:07.686Z</time></trkpt><trkpt lat="34.4043853" lon="8.5033601"><ele>433.33333333333337</ele><time>2026-04-30T18:44:08.684Z</time></trkpt><trkpt lat="34.4042664" lon="8.5035374"><ele>435.0</ele><time>2026-04-30T18:44:09.682Z</time></trkpt><trkpt lat="34.4041468" lon="8.5037146"><ele>435.66666666666663</ele><time>2026-04-30T18:44:10.685Z</time></trkpt><trkpt lat="34.4040286" lon="8.5038934"><ele>436.3333333333333</ele><time>2026-04-30T18:44:11.682Z</time></trkpt><trkpt lat="34.4039084" lon="8.5040687"><ele>437.0</ele><time>2026-04-30T18:44:12.688Z</time></trkpt><trkpt lat="34.4037924" lon="8.5042456"><ele>438.0</ele><time>2026-04-30T18:44:13.679Z</time></trkpt><trkpt lat="34.403668" lon="8.5044207"><ele>439.0</ele><time>2026-04-30T18:44:14.679Z</time></trkpt><trkpt lat="34.4035416" lon="8.504591"><ele>440.0</ele><time>2026-04-30T18:44:15.683Z</time></trkpt><trkpt lat="34.4034166" lon="8.5047548"><ele>441.66666666666663</ele><time>2026-04-30T18:44:16.683Z</time></trkpt><trkpt lat="34.4032836" lon="8.504915"><ele>443.33333333333337</ele><time>2026-04-30T18:44:17.678Z</time></trkpt><trkpt lat="34.403144" lon="8.5050648"><ele>445.0</ele><time>2026-04-30T18:44:18.679Z</time></trkpt><trkpt lat="34.4029965" lon="8.5052156"><ele>446.33333333333337</ele><time>2026-04-30T18:44:19.681Z</time></trkpt><trkpt lat="34.4028485" lon="8.5053553"><ele>447.66666666666663</ele><time>2026-04-30T18:44:20.698Z</time></trkpt><trkpt lat="34.4026975" lon="8.5054993"><ele>449.0</ele><time>2026-04-30T18:44:21.743Z</time></trkpt><trkpt lat="34.4025532" lon="8.5056406"><ele>449.66666666666663</ele><time>2026-04-30T18:44:22.69Z</time></trkpt><trkpt lat="34.4024024" lon="8.5057802"><ele>450.33333333333337</ele><time>2026-04-30T18:44:23.685Z</time></trkpt><trkpt lat="34.4022521" lon="8.5059197"><ele>451.0</ele><time>2026-04-30T18:44:24.679Z</time></trkpt><trkpt lat="34.4020976" lon="8.5060559"><ele>451.0</ele><time>2026-04-30T18:44:25.688Z</time></trkpt><trkpt lat="34.4019409" lon="8.5061892"><ele>451.0</ele><time>2026-04-30T18:44:26.687Z</time></trkpt><trkpt lat="34.4017922" lon="8.5063151"><ele>451.0</ele><time>2026-04-30T18:44:27.686Z</time></trkpt><trkpt lat="34.4016547" lon="8.5064334"><ele>452.33333333333337</ele><time>2026-04-30T18:44:28.688Z</time></trkpt><trkpt lat="34.4015177" lon="8.5065526"><ele>453.66666666666663</ele><time>2026-04-30T18:44:29.676Z</time></trkpt><trkpt lat="34.4013809" lon="8.5066701"><ele>455.0</ele><time>2026-04-30T18:44:30.739Z</time></trkpt><trkpt lat="34.4012458" lon="8.5067902"><ele>455.3333333333333</ele><time>2026-04-30T18:44:31.732Z</time></trkpt><trkpt lat="34.4011056" lon="8.5069115"><ele>455.66666666666663</ele><time>2026-04-30T18:44:32.686Z</time></trkpt><trkpt lat="34.4009671" lon="8.5070348"><ele>456.0</ele><time>2026-04-30T18:44:33.725Z</time></trkpt><trkpt lat="34.4008322" lon="8.5071591"><ele>457.66666666666663</ele><time>2026-04-30T18:44:34.721Z</time></trkpt><trkpt lat="34.4006977" lon="8.5072904"><ele>459.3333333333333</ele><time>2026-04-30T18:44:35.732Z</time></trkpt><trkpt lat="34.4005688" lon="8.5074257"><ele>461.0</ele><time>2026-04-30T18:44:36.678Z</time></trkpt><trkpt lat="34.4004439" lon="8.5075702"><ele>461.66666666666663</ele><time>2026-04-30T18:44:37.73Z</time></trkpt><trkpt lat="34.4003237" lon="8.5077165"><ele>462.33333333333337</ele><time>2026-04-30T18:44:38.727Z</time></trkpt><trkpt lat="34.4002045" lon="8.5078755"><ele>463.0</ele><time>2026-04-30T18:44:39.734Z</time></trkpt><trkpt lat="34.4000948" lon="8.5080434"><ele>463.33333333333337</ele><time>2026-04-30T18:44:40.726Z</time></trkpt><trkpt lat="34.3999912" lon="8.508218"><ele>463.66666666666663</ele><time>2026-04-30T18:44:41.737Z</time></trkpt><trkpt lat="34.3998966" lon="8.508408"><ele>464.0</ele><time>2026-04-30T18:44:42.739Z</time></trkpt><trkpt lat="34.3998127" lon="8.5086008"><ele>465.66666666666663</ele><time>2026-04-30T18:44:43.73Z</time></trkpt><trkpt lat="34.399739" lon="8.5088063"><ele>467.33333333333337</ele><time>2026-04-30T18:44:44.706Z</time></trkpt><trkpt lat="34.3996733" lon="8.5090081"><ele>469.0</ele><time>2026-04-30T18:44:45.711Z</time></trkpt><trkpt lat="34.3996129" lon="8.5092177"><ele>469.33333333333337</ele><time>2026-04-30T18:44:46.708Z</time></trkpt><trkpt lat="34.3995561" lon="8.509417"><ele>469.66666666666663</ele><time>2026-04-30T18:44:47.708Z</time></trkpt><trkpt lat="34.3994996" lon="8.5096183"><ele>470.0</ele><time>2026-04-30T18:44:48.722Z</time></trkpt><trkpt lat="34.3994447" lon="8.5098173"><ele>470.66666666666663</ele><time>2026-04-30T18:44:49.729Z</time></trkpt><trkpt lat="34.3993871" lon="8.510016"><ele>471.33333333333337</ele><time>2026-04-30T18:44:50.712Z</time></trkpt><trkpt lat="34.3993248" lon="8.510216"><ele>472.0</ele><time>2026-04-30T18:44:51.741Z</time></trkpt><trkpt lat="34.3992657" lon="8.5104124"><ele>473.0</ele><time>2026-04-30T18:44:52.732Z</time></trkpt><trkpt lat="34.3992098" lon="8.5106056"><ele>474.0</ele><time>2026-04-30T18:44:53.733Z</time></trkpt><trkpt lat="34.3991583" lon="8.5107992"><ele>475.0</ele><time>2026-04-30T18:44:54.72Z</time></trkpt><trkpt lat="34.3991098" lon="8.5109926"><ele>475.0</ele><time>2026-04-30T18:44:55.742Z</time></trkpt><trkpt lat="34.3990616" lon="8.5111779"><ele>475.0</ele><time>2026-04-30T18:44:56.729Z</time></trkpt><trkpt lat="34.3990121" lon="8.5113661"><ele>475.0</ele><time>2026-04-30T18:44:57.742Z</time></trkpt><trkpt lat="34.398969" lon="8.5115493"><ele>475.33333333333337</ele><time>2026-04-30T18:44:58.724Z</time></trkpt><trkpt lat="34.3989408" lon="8.5117477"><ele>475.66666666666663</ele><time>2026-04-30T18:44:59.723Z</time></trkpt><trkpt lat="34.3989229" lon="8.5119449"><ele>476.0</ele><time>2026-04-30T18:45:00.732Z</time></trkpt><trkpt lat="34.3989184" lon="8.5121501"><ele>476.66666666666663</ele><time>2026-04-30T18:45:01.733Z</time></trkpt><trkpt lat="34.3989231" lon="8.5123567"><ele>477.33333333333337</ele><time>2026-04-30T18:45:02.717Z</time></trkpt><trkpt lat="34.3989323" lon="8.5125682"><ele>478.0</ele><time>2026-04-30T18:45:03.683Z</time></trkpt><trkpt lat="34.3989509" lon="8.5127782"><ele>479.0</ele><time>2026-04-30T18:45:04.679Z</time></trkpt><trkpt lat="34.3989867" lon="8.5129814"><ele>480.0</ele><time>2026-04-30T18:45:05.73Z</time></trkpt><trkpt lat="34.3990312" lon="8.5131888"><ele>481.0</ele><time>2026-04-30T18:45:06.73Z</time></trkpt><trkpt lat="34.3990916" lon="8.5133943"><ele>481.0</ele><time>2026-04-30T18:45:07.737Z</time></trkpt><trkpt lat="34.3991546" lon="8.5136"><ele>481.0</ele><time>2026-04-30T18:45:08.72Z</time></trkpt><trkpt lat="34.3992335" lon="8.5137987"><ele>481.0</ele><time>2026-04-30T18:45:09.736Z</time></trkpt><trkpt lat="34.3993236" lon="8.5139935"><ele>481.0</ele><time>2026-04-30T18:45:10.735Z</time></trkpt><trkpt lat="34.3994304" lon="8.5141791"><ele>481.0</ele><time>2026-04-30T18:45:11.735Z</time></trkpt><trkpt lat="34.3995506" lon="8.5143532"><ele>481.0</ele><time>2026-04-30T18:45:12.714Z</time></trkpt><trkpt lat="34.399676" lon="8.5145216"><ele>481.6666666666667</ele><time>2026-04-30T18:45:13.712Z</time></trkpt><trkpt lat="34.3998129" lon="8.5146796"><ele>482.33333333333337</ele><time>2026-04-30T18:45:14.717Z</time></trkpt><trkpt lat="34.3999593" lon="8.5148256"><ele>483.0</ele><time>2026-04-30T18:45:15.727Z</time></trkpt><trkpt lat="34.4001139" lon="8.5149616"><ele>483.0</ele><time>2026-04-30T18:45:16.73Z</time></trkpt><trkpt lat="34.4002725" lon="8.5150842"><ele>483.0</ele><time>2026-04-30T18:45:17.732Z</time></trkpt><trkpt lat="34.400435" lon="8.5152085"><ele>483.0</ele><time>2026-04-30T18:45:18.734Z</time></trkpt><trkpt lat="34.4005936" lon="8.5153301"><ele>484.66666666666663</ele><time>2026-04-30T18:45:19.741Z</time></trkpt><trkpt lat="34.4007552" lon="8.5154471"><ele>486.3333333333333</ele><time>2026-04-30T18:45:20.73Z</time></trkpt><trkpt lat="34.400912" lon="8.5155618"><ele>488.0</ele><time>2026-04-30T18:45:21.737Z</time></trkpt><trkpt lat="34.4010711" lon="8.5156825"><ele>488.0</ele><time>2026-04-30T18:45:22.701Z</time></trkpt><trkpt lat="34.4012276" lon="8.5158007"><ele>488.0</ele><time>2026-04-30T18:45:23.739Z</time></trkpt><trkpt lat="34.4013868" lon="8.5159228"><ele>488.0</ele><time>2026-04-30T18:45:24.735Z</time></trkpt><trkpt lat="34.4015458" lon="8.5160425"><ele>488.0</ele><time>2026-04-30T18:45:25.713Z</time></trkpt><trkpt lat="34.401699" lon="8.5161562"><ele>488.0</ele><time>2026-04-30T18:45:26.726Z</time></trkpt><trkpt lat="34.4018568" lon="8.5162703"><ele>488.0</ele><time>2026-04-30T18:45:27.68Z</time></trkpt><trkpt lat="34.4020131" lon="8.5163859"><ele>488.3333333333333</ele><time>2026-04-30T18:45:28.677Z</time></trkpt><trkpt lat="34.4021676" lon="8.5165035"><ele>488.66666666666663</ele><time>2026-04-30T18:45:29.683Z</time></trkpt><trkpt lat="34.4023258" lon="8.5166207"><ele>489.0</ele><time>2026-04-30T18:45:30.691Z</time></trkpt><trkpt lat="34.4024872" lon="8.5167435"><ele>489.0</ele><time>2026-04-30T18:45:31.706Z</time></trkpt><trkpt lat="34.4026497" lon="8.5168608"><ele>489.0</ele><time>2026-04-30T18:45:32.718Z</time></trkpt><trkpt lat="34.4028115" lon="8.5169802"><ele>489.0</ele><time>2026-04-30T18:45:33.694Z</time></trkpt><trkpt lat="34.4029726" lon="8.5170997"><ele>490.33333333333337</ele><time>2026-04-30T18:45:34.688Z</time></trkpt><trkpt lat="34.4031358" lon="8.5172202"><ele>491.6666666666667</ele><time>2026-04-30T18:45:35.717Z</time></trkpt><trkpt lat="34.403303" lon="8.517346"><ele>493.0</ele><time>2026-04-30T18:45:36.717Z</time></trkpt><trkpt lat="34.4034683" lon="8.5174695"><ele>493.0</ele><time>2026-04-30T18:45:37.712Z</time></trkpt><trkpt lat="34.4036376" lon="8.5175933"><ele>493.0</ele><time>2026-04-30T18:45:38.707Z</time></trkpt><trkpt lat="34.4038107" lon="8.5177167"><ele>493.0</ele><time>2026-04-30T18:45:39.715Z</time></trkpt><trkpt lat="34.4039793" lon="8.5178361"><ele>492.33333333333337</ele><time>2026-04-30T18:45:40.677Z</time></trkpt><trkpt lat="34.4041474" lon="8.5179612"><ele>491.66666666666663</ele><time>2026-04-30T18:45:41.667Z</time></trkpt><trkpt lat="34.4043173" lon="8.5180851"><ele>491.0</ele><time>2026-04-30T18:45:42.674Z</time></trkpt><trkpt lat="34.4044826" lon="8.5182093"><ele>491.0</ele><time>2026-04-30T18:45:43.706Z</time></trkpt><trkpt lat="34.4046412" lon="8.5183365"><ele>491.0</ele><time>2026-04-30T18:45:44.69Z</time></trkpt><trkpt lat="34.4047965" lon="8.5184627"><ele>491.0</ele><time>2026-04-30T18:45:45.708Z</time></trkpt><trkpt lat="34.4049476" lon="8.5185941"><ele>491.66666666666663</ele><time>2026-04-30T18:45:46.706Z</time></trkpt><trkpt lat="34.4050925" lon="8.5187449"><ele>492.33333333333337</ele><time>2026-04-30T18:45:47.711Z</time></trkpt><trkpt lat="34.4052365" lon="8.518904"><ele>493.0</ele><time>2026-04-30T18:45:48.717Z</time></trkpt><trkpt lat="34.4053735" lon="8.5190726"><ele>493.0</ele><time>2026-04-30T18:45:49.717Z</time></trkpt><trkpt lat="34.4055053" lon="8.5192498"><ele>493.0</ele><time>2026-04-30T18:45:50.7Z</time></trkpt><trkpt lat="34.4056359" lon="8.519439"><ele>493.0</ele><time>2026-04-30T18:45:51.714Z</time></trkpt><trkpt lat="34.4057545" lon="8.5196391"><ele>493.33333333333337</ele><time>2026-04-30T18:45:52.717Z</time></trkpt><trkpt lat="34.40588" lon="8.5198528"><ele>493.66666666666663</ele><time>2026-04-30T18:45:53.714Z</time></trkpt><trkpt lat="34.4059904" lon="8.5200782"><ele>494.0</ele><time>2026-04-30T18:45:54.717Z</time></trkpt><trkpt lat="34.4060901" lon="8.5203069"><ele>494.0</ele><time>2026-04-30T18:45:55.705Z</time></trkpt><trkpt lat="34.4061852" lon="8.5205411"><ele>494.0</ele><time>2026-04-30T18:45:56.703Z</time></trkpt><trkpt lat="34.4062658" lon="8.5207752"><ele>494.0</ele><time>2026-04-30T18:45:57.682Z</time></trkpt><trkpt lat="34.4063357" lon="8.5210132"><ele>494.0</ele><time>2026-04-30T18:45:58.716Z</time></trkpt><trkpt lat="34.4063968" lon="8.521256"><ele>494.0</ele><time>2026-04-30T18:45:59.704Z</time></trkpt><trkpt lat="34.4064417" lon="8.521502"><ele>494.0</ele><time>2026-04-30T18:46:00.699Z</time></trkpt><trkpt lat="34.4064714" lon="8.5217492"><ele>494.0</ele><time>2026-04-30T18:46:01.711Z</time></trkpt><trkpt lat="34.4064945" lon="8.5219958"><ele>494.0</ele><time>2026-04-30T18:46:02.709Z</time></trkpt><trkpt lat="34.406512" lon="8.5222477"><ele>494.0</ele><time>2026-04-30T18:46:03.73Z</time></trkpt><trkpt lat="34.4065187" lon="8.5225015"><ele>493.0</ele><time>2026-04-30T18:46:04.718Z</time></trkpt><trkpt lat="34.4065248" lon="8.522755"><ele>492.0</ele><time>2026-04-30T18:46:05.742Z</time></trkpt><trkpt lat="34.4065274" lon="8.5230038"><ele>491.0</ele><time>2026-04-30T18:46:06.744Z</time></trkpt><trkpt lat="34.4065315" lon="8.5232532"><ele>490.66666666666663</ele><time>2026-04-30T18:46:07.681Z</time></trkpt><trkpt lat="34.4065235" lon="8.5234955"><ele>490.33333333333337</ele><time>2026-04-30T18:46:08.715Z</time></trkpt><trkpt lat="34.4065128" lon="8.5237362"><ele>490.0</ele><time>2026-04-30T18:46:09.735Z</time></trkpt><trkpt lat="34.4064936" lon="8.5239801"><ele>489.0</ele><time>2026-04-30T18:46:10.735Z</time></trkpt><trkpt lat="34.4064678" lon="8.5242166"><ele>488.0</ele><time>2026-04-30T18:46:11.727Z</time></trkpt><trkpt lat="34.4064308" lon="8.5244569"><ele>487.0</ele><time>2026-04-30T18:46:12.719Z</time></trkpt><trkpt lat="34.4063903" lon="8.5246968"><ele>487.0</ele><time>2026-04-30T18:46:13.723Z</time></trkpt><trkpt lat="34.4063411" lon="8.5249378"><ele>487.0</ele><time>2026-04-30T18:46:14.678Z</time></trkpt><trkpt lat="34.4062806" lon="8.5251737"><ele>487.0</ele><time>2026-04-30T18:46:15.694Z</time></trkpt><trkpt lat="34.4062155" lon="8.525403"><ele>485.6666666666667</ele><time>2026-04-30T18:46:16.699Z</time></trkpt><trkpt lat="34.4061428" lon="8.5256392"><ele>484.33333333333337</ele><time>2026-04-30T18:46:17.71Z</time></trkpt><trkpt lat="34.4060643" lon="8.5258642"><ele>483.0</ele><time>2026-04-30T18:46:18.715Z</time></trkpt><trkpt lat="34.4059739" lon="8.526087"><ele>483.0</ele><time>2026-04-30T18:46:19.715Z</time></trkpt><trkpt lat="34.4058769" lon="8.5263036"><ele>483.0</ele><time>2026-04-30T18:46:20.708Z</time></trkpt><trkpt lat="34.405772" lon="8.5265063"><ele>483.0</ele><time>2026-04-30T18:46:21.715Z</time></trkpt><trkpt lat="34.4056588" lon="8.5267034"><ele>483.0</ele><time>2026-04-30T18:46:22.717Z</time></trkpt><trkpt lat="34.4055404" lon="8.5268936"><ele>483.0</ele><time>2026-04-30T18:46:23.688Z</time></trkpt><trkpt lat="34.4054191" lon="8.5270792"><ele>483.0</ele><time>2026-04-30T18:46:24.702Z</time></trkpt><trkpt lat="34.4052946" lon="8.5272648"><ele>481.66666666666663</ele><time>2026-04-30T18:46:25.709Z</time></trkpt><trkpt lat="34.4051629" lon="8.5274457"><ele>480.3333333333333</ele><time>2026-04-30T18:46:26.702Z</time></trkpt><trkpt lat="34.4050301" lon="8.5276251"><ele>479.0</ele><time>2026-04-30T18:46:27.706Z</time></trkpt><trkpt lat="34.4049002" lon="8.5278008"><ele>478.3333333333333</ele><time>2026-04-30T18:46:28.702Z</time></trkpt><trkpt lat="34.4047697" lon="8.527978"><ele>477.66666666666663</ele><time>2026-04-30T18:46:29.725Z</time></trkpt><trkpt lat="34.4046393" lon="8.5281533"><ele>477.0</ele><time>2026-04-30T18:46:30.745Z</time></trkpt><trkpt lat="34.4045083" lon="8.5283245"><ele>477.0</ele><time>2026-04-30T18:46:31.745Z</time></trkpt><trkpt lat="34.4043794" lon="8.5284926"><ele>477.0</ele><time>2026-04-30T18:46:32.719Z</time></trkpt><trkpt lat="34.4042479" lon="8.5286635"><ele>477.0</ele><time>2026-04-30T18:46:33.751Z</time></trkpt><trkpt lat="34.4041175" lon="8.52884"><ele>476.66666666666663</ele><time>2026-04-30T18:46:34.739Z</time></trkpt><trkpt lat="34.4039827" lon="8.5290142"><ele>476.3333333333333</ele><time>2026-04-30T18:46:35.716Z</time></trkpt><trkpt lat="34.403851" lon="8.5291928"><ele>476.0</ele><time>2026-04-30T18:46:36.736Z</time></trkpt><trkpt lat="34.4037229" lon="8.5293674"><ele>475.3333333333333</ele><time>2026-04-30T18:46:37.732Z</time></trkpt><trkpt lat="34.4035939" lon="8.5295327"><ele>474.66666666666663</ele><time>2026-04-30T18:46:38.746Z</time></trkpt><trkpt lat="34.4034703" lon="8.5296943"><ele>474.0</ele><time>2026-04-30T18:46:39.701Z</time></trkpt><trkpt lat="34.4033562" lon="8.5298458"><ele>473.33333333333337</ele><time>2026-04-30T18:46:40.707Z</time></trkpt><trkpt lat="34.4032499" lon="8.5299903"><ele>472.6666666666667</ele><time>2026-04-30T18:46:41.712Z</time></trkpt><trkpt lat="34.4031456" lon="8.5301346"><ele>472.0</ele><time>2026-04-30T18:46:42.703Z</time></trkpt><trkpt lat="34.403047" lon="8.5302727"><ele>470.75</ele><time>2026-04-30T18:46:43.692Z</time></trkpt><trkpt lat="34.4029525" lon="8.5304186"><ele>469.5</ele><time>2026-04-30T18:46:44.689Z</time></trkpt><trkpt lat="34.4028669" lon="8.5305643"><ele>468.25</ele><time>2026-04-30T18:46:45.7Z</time></trkpt><trkpt lat="34.4027906" lon="8.5307133"><ele>467.0</ele><time>2026-04-30T18:46:46.706Z</time></trkpt><trkpt lat="34.4027233" lon="8.5308675"><ele>467.0</ele><time>2026-04-30T18:46:47.696Z</time></trkpt><trkpt lat="34.4026587" lon="8.531027"><ele>467.0</ele><time>2026-04-30T18:46:48.704Z</time></trkpt><trkpt lat="34.4026038" lon="8.5312021"><ele>467.0</ele><time>2026-04-30T18:46:49.703Z</time></trkpt><trkpt lat="34.402559" lon="8.5313766"><ele>465.3333333333333</ele><time>2026-04-30T18:46:50.722Z</time></trkpt><trkpt lat="34.4025181" lon="8.5315641"><ele>463.66666666666663</ele><time>2026-04-30T18:46:51.687Z</time></trkpt><trkpt lat="34.4024955" lon="8.5317511"><ele>462.0</ele><time>2026-04-30T18:46:52.696Z</time></trkpt><trkpt lat="34.4024892" lon="8.531952"><ele>459.66666666666663</ele><time>2026-04-30T18:46:53.718Z</time></trkpt><trkpt lat="34.4024945" lon="8.5321433"><ele>457.3333333333333</ele><time>2026-04-30T18:46:54.72Z</time></trkpt><trkpt lat="34.4025019" lon="8.5323372"><ele>455.0</ele><time>2026-04-30T18:46:55.673Z</time></trkpt><trkpt lat="34.4025262" lon="8.5325388"><ele>455.0</ele><time>2026-04-30T18:46:56.676Z</time></trkpt><trkpt lat="34.4025669" lon="8.5327303"><ele>455.0</ele><time>2026-04-30T18:46:57.679Z</time></trkpt><trkpt lat="34.4026163" lon="8.5329372"><ele>455.0</ele><time>2026-04-30T18:46:58.716Z</time></trkpt><trkpt lat="34.4026799" lon="8.533136"><ele>453.3333333333333</ele><time>2026-04-30T18:46:59.693Z</time></trkpt><trkpt lat="34.402756" lon="8.5333306"><ele>451.66666666666663</ele><time>2026-04-30T18:47:00.721Z</time></trkpt><trkpt lat="34.4028354" lon="8.5335188"><ele>450.0</ele><time>2026-04-30T18:47:01.719Z</time></trkpt><trkpt lat="34.402911" lon="8.5337039"><ele>448.66666666666663</ele><time>2026-04-30T18:47:02.719Z</time></trkpt><trkpt lat="34.4029845" lon="8.5338881"><ele>447.3333333333333</ele><time>2026-04-30T18:47:03.712Z</time></trkpt><trkpt lat="34.4030503" lon="8.5340693"><ele>446.0</ele><time>2026-04-30T18:47:04.72Z</time></trkpt><trkpt lat="34.4030988" lon="8.5342479"><ele>445.66666666666663</ele><time>2026-04-30T18:47:05.756Z</time></trkpt><trkpt lat="34.4031256" lon="8.5344365"><ele>445.33333333333337</ele><time>2026-04-30T18:47:06.726Z</time></trkpt><trkpt lat="34.4031454" lon="8.5346103"><ele>445.0</ele><time>2026-04-30T18:47:07.731Z</time></trkpt><trkpt lat="34.4031684" lon="8.5347945"><ele>443.33333333333337</ele><time>2026-04-30T18:47:08.722Z</time></trkpt><trkpt lat="34.4031911" lon="8.534984"><ele>441.66666666666663</ele><time>2026-04-30T18:47:09.722Z</time></trkpt><trkpt lat="34.4032114" lon="8.5351779"><ele>440.0</ele><time>2026-04-30T18:47:10.727Z</time></trkpt><trkpt lat="34.4032318" lon="8.5353771"><ele>438.0</ele><time>2026-04-30T18:47:11.737Z</time></trkpt><trkpt lat="34.403247" lon="8.5355661"><ele>436.0</ele><time>2026-04-30T18:47:12.707Z</time></trkpt><trkpt lat="34.4032705" lon="8.53576"><ele>434.0</ele><time>2026-04-30T18:47:13.734Z</time></trkpt><trkpt lat="34.4032945" lon="8.5359453"><ele>434.0</ele><time>2026-04-30T18:47:14.742Z</time></trkpt><trkpt lat="34.4033375" lon="8.5361322"><ele>434.0</ele><time>2026-04-30T18:47:15.733Z</time></trkpt><trkpt lat="34.403392" lon="8.53632"><ele>434.0</ele><time>2026-04-30T18:47:16.699Z</time></trkpt><trkpt lat="34.4034565" lon="8.5365106"><ele>432.0</ele><time>2026-04-30T18:47:17.735Z</time></trkpt><trkpt lat="34.4035287" lon="8.5366935"><ele>430.0</ele><time>2026-04-30T18:47:18.684Z</time></trkpt><trkpt lat="34.4036012" lon="8.536878"><ele>428.0</ele><time>2026-04-30T18:47:19.734Z</time></trkpt><trkpt lat="34.4036781" lon="8.5370641"><ele>425.66666666666663</ele><time>2026-04-30T18:47:20.739Z</time></trkpt><trkpt lat="34.4037611" lon="8.5372488"><ele>423.33333333333337</ele><time>2026-04-30T18:47:21.703Z</time></trkpt><trkpt lat="34.4038432" lon="8.5374342"><ele>421.0</ele><time>2026-04-30T18:47:22.71Z</time></trkpt><trkpt lat="34.4039298" lon="8.5376228"><ele>420.6666666666667</ele><time>2026-04-30T18:47:23.732Z</time></trkpt><trkpt lat="34.4040192" lon="8.5378069"><ele>420.33333333333337</ele><time>2026-04-30T18:47:24.731Z</time></trkpt><trkpt lat="34.4041" lon="8.537992"><ele>420.0</ele><time>2026-04-30T18:47:25.728Z</time></trkpt><trkpt lat="34.4041829" lon="8.5381763"><ele>418.33333333333337</ele><time>2026-04-30T18:47:26.703Z</time></trkpt><trkpt lat="34.4042689" lon="8.5383634"><ele>416.6666666666667</ele><time>2026-04-30T18:47:27.713Z</time></trkpt><trkpt lat="34.404353" lon="8.5385478"><ele>415.0</ele><time>2026-04-30T18:47:28.719Z</time></trkpt><trkpt lat="34.404449" lon="8.5387293"><ele>413.0</ele><time>2026-04-30T18:47:29.737Z</time></trkpt><trkpt lat="34.4045535" lon="8.5388988"><ele>411.0</ele><time>2026-04-30T18:47:30.72Z</time></trkpt><trkpt lat="34.4046612" lon="8.5390661"><ele>409.0</ele><time>2026-04-30T18:47:31.728Z</time></trkpt><trkpt lat="34.4047728" lon="8.5392316"><ele>408.0</ele><time>2026-04-30T18:47:32.732Z</time></trkpt><trkpt lat="34.4048863" lon="8.5393997"><ele>407.0</ele><time>2026-04-30T18:47:33.717Z</time></trkpt><trkpt lat="34.4050004" lon="8.5395667"><ele>406.0</ele><time>2026-04-30T18:47:34.74Z</time></trkpt><trkpt lat="34.4051164" lon="8.539732"><ele>404.33333333333337</ele><time>2026-04-30T18:47:35.738Z</time></trkpt><trkpt lat="34.4052333" lon="8.5399043"><ele>402.66666666666663</ele><time>2026-04-30T18:47:36.733Z</time></trkpt><trkpt lat="34.4053502" lon="8.5400776"><ele>401.0</ele><time>2026-04-30T18:47:37.734Z</time></trkpt><trkpt lat="34.4054687" lon="8.5402541"><ele>397.3333333333333</ele><time>2026-04-30T18:47:38.708Z</time></trkpt><trkpt lat="34.405587" lon="8.5404257"><ele>393.66666666666663</ele><time>2026-04-30T18:47:39.735Z</time></trkpt><trkpt lat="34.4056999" lon="8.5406018"><ele>390.0</ele><time>2026-04-30T18:47:40.71Z</time></trkpt><trkpt lat="34.4058103" lon="8.5407798"><ele>390.0</ele><time>2026-04-30T18:47:41.727Z</time></trkpt><trkpt lat="34.4059015" lon="8.5409519"><ele>390.0</ele><time>2026-04-30T18:47:42.729Z</time></trkpt><trkpt lat="34.4059819" lon="8.5411126"><ele>390.0</ele><time>2026-04-30T18:47:43.72Z</time></trkpt><trkpt lat="34.4060534" lon="8.5412655"><ele>389.0</ele><time>2026-04-30T18:47:44.718Z</time></trkpt><trkpt lat="34.406107" lon="8.541415"><ele>388.0</ele><time>2026-04-30T18:47:45.738Z</time></trkpt><trkpt lat="34.4061423" lon="8.5415695"><ele>387.0</ele><time>2026-04-30T18:47:46.714Z</time></trkpt><trkpt lat="34.4061513" lon="8.541725"><ele>386.0</ele><time>2026-04-30T18:47:47.761Z</time></trkpt><trkpt lat="34.4061382" lon="8.5418957"><ele>383.25</ele><time>2026-04-30T18:47:48.728Z</time></trkpt><trkpt lat="34.4061013" lon="8.542058"><ele>380.5</ele><time>2026-04-30T18:47:49.709Z</time></trkpt><trkpt lat="34.4060548" lon="8.5422205"><ele>377.75</ele><time>2026-04-30T18:47:50.73Z</time></trkpt><trkpt lat="34.4060096" lon="8.5423812"><ele>375.0</ele><time>2026-04-30T18:47:51.725Z</time></trkpt><trkpt lat="34.4059742" lon="8.5425294"><ele>375.0</ele><time>2026-04-30T18:47:52.717Z</time></trkpt><trkpt lat="34.4059501" lon="8.5426841"><ele>375.0</ele><time>2026-04-30T18:47:53.707Z</time></trkpt><trkpt lat="34.4059406" lon="8.5428391"><ele>375.0</ele><time>2026-04-30T18:47:54.723Z</time></trkpt><trkpt lat="34.4059418" lon="8.5429878"><ele>375.0</ele><time>2026-04-30T18:47:55.687Z</time></trkpt><trkpt lat="34.4059681" lon="8.5431416"><ele>371.5</ele><time>2026-04-30T18:47:56.703Z</time></trkpt><trkpt lat="34.4060177" lon="8.5432813"><ele>368.0</ele><time>2026-04-30T18:47:57.732Z</time></trkpt><trkpt lat="34.4060861" lon="8.5434125"><ele>364.5</ele><time>2026-04-30T18:47:58.734Z</time></trkpt><trkpt lat="34.4061701" lon="8.5435358"><ele>361.0</ele><time>2026-04-30T18:47:59.729Z</time></trkpt><trkpt lat="34.4062645" lon="8.5436473"><ele>360.25</ele><time>2026-04-30T18:48:00.73Z</time></trkpt><trkpt lat="34.4063685" lon="8.5437609"><ele>359.5</ele><time>2026-04-30T18:48:01.698Z</time></trkpt><trkpt lat="34.4064725" lon="8.5438787"><ele>358.75</ele><time>2026-04-30T18:48:02.726Z</time></trkpt><trkpt lat="34.4065779" lon="8.5439928"><ele>358.0</ele><time>2026-04-30T18:48:03.748Z</time></trkpt><trkpt lat="34.4066708" lon="8.5441117"><ele>358.0</ele><time>2026-04-30T18:48:04.729Z</time></trkpt><trkpt lat="34.4067591" lon="8.5442277"><ele>358.0</ele><time>2026-04-30T18:48:05.738Z</time></trkpt><trkpt lat="34.4068253" lon="8.5443507"><ele>358.0</ele><time>2026-04-30T18:48:06.736Z</time></trkpt><trkpt lat="34.4068774" lon="8.5444672"><ele>358.0</ele><time>2026-04-30T18:48:07.739Z</time></trkpt><trkpt lat="34.4069144" lon="8.5445921"><ele>355.75</ele><time>2026-04-30T18:48:08.733Z</time></trkpt><trkpt lat="34.4069292" lon="8.544738"><ele>353.5</ele><time>2026-04-30T18:48:09.733Z</time></trkpt><trkpt lat="34.4069228" lon="8.5449044"><ele>351.25</ele><time>2026-04-30T18:48:10.732Z</time></trkpt><trkpt lat="34.4068857" lon="8.5450736"><ele>349.0</ele><time>2026-04-30T18:48:11.701Z</time></trkpt><trkpt lat="34.4068375" lon="8.5452393"><ele>346.0</ele><time>2026-04-30T18:48:12.73Z</time></trkpt><trkpt lat="34.4067951" lon="8.5453895"><ele>343.0</ele><time>2026-04-30T18:48:13.739Z</time></trkpt><trkpt lat="34.40676" lon="8.545535"><ele>340.0</ele><time>2026-04-30T18:48:14.699Z</time></trkpt><trkpt lat="34.4067414" lon="8.5456733"><ele>337.0</ele><time>2026-04-30T18:48:15.711Z</time></trkpt><trkpt lat="34.406733" lon="8.5458178"><ele>337.0</ele><time>2026-04-30T18:48:16.712Z</time></trkpt><trkpt lat="34.4067413" lon="8.5459669"><ele>337.0</ele><time>2026-04-30T18:48:17.737Z</time></trkpt><trkpt lat="34.4067654" lon="8.546116"><ele>337.0</ele><time>2026-04-30T18:48:18.684Z</time></trkpt><trkpt lat="34.4068056" lon="8.5462652"><ele>337.0</ele><time>2026-04-30T18:48:19.694Z</time></trkpt><trkpt lat="34.4068738" lon="8.5463975"><ele>334.75</ele><time>2026-04-30T18:48:20.734Z</time></trkpt><trkpt lat="34.4069625" lon="8.5465341"><ele>332.5</ele><time>2026-04-30T18:48:21.706Z</time></trkpt><trkpt lat="34.4070605" lon="8.5466555"><ele>330.25</ele><time>2026-04-30T18:48:22.698Z</time></trkpt><trkpt lat="34.4071663" lon="8.5467698"><ele>328.0</ele><time>2026-04-30T18:48:23.709Z</time></trkpt><trkpt lat="34.4072713" lon="8.5468775"><ele>327.75</ele><time>2026-04-30T18:48:24.729Z</time></trkpt><trkpt lat="34.4073686" lon="8.54699"><ele>327.5</ele><time>2026-04-30T18:48:25.705Z</time></trkpt><trkpt lat="34.4074529" lon="8.5471139"><ele>327.25</ele><time>2026-04-30T18:48:26.743Z</time></trkpt><trkpt lat="34.4075258" lon="8.5472439"><ele>327.0</ele><time>2026-04-30T18:48:27.703Z</time></trkpt><trkpt lat="34.4075783" lon="8.5473867"><ele>325.0</ele><time>2026-04-30T18:48:28.727Z</time></trkpt><trkpt lat="34.407622" lon="8.5475401"><ele>323.0</ele><time>2026-04-30T18:48:29.746Z</time></trkpt><trkpt lat="34.4076408" lon="8.5477092"><ele>321.0</ele><time>2026-04-30T18:48:30.725Z</time></trkpt><trkpt lat="34.4076394" lon="8.5478796"><ele>319.0</ele><time>2026-04-30T18:48:31.712Z</time></trkpt><trkpt lat="34.4076117" lon="8.5480551"><ele>317.5</ele><time>2026-04-30T18:48:32.724Z</time></trkpt><trkpt lat="34.4075577" lon="8.5482197"><ele>316.0</ele><time>2026-04-30T18:48:33.727Z</time></trkpt><trkpt lat="34.407494" lon="8.5483716"><ele>314.5</ele><time>2026-04-30T18:48:34.71Z</time></trkpt><trkpt lat="34.4074386" lon="8.5485227"><ele>313.0</ele><time>2026-04-30T18:48:35.738Z</time></trkpt><trkpt lat="34.4073863" lon="8.5486747"><ele>311.25</ele><time>2026-04-30T18:48:36.717Z</time></trkpt><trkpt lat="34.4073459" lon="8.5488275"><ele>309.5</ele><time>2026-04-30T18:48:37.72Z</time></trkpt><trkpt lat="34.4073178" lon="8.5489763"><ele>307.75</ele><time>2026-04-30T18:48:38.727Z</time></trkpt><trkpt lat="34.4073162" lon="8.5491252"><ele>306.0</ele><time>2026-04-30T18:48:39.73Z</time></trkpt><trkpt lat="34.407334" lon="8.5492855"><ele>306.0</ele><time>2026-04-30T18:48:40.733Z</time></trkpt><trkpt lat="34.4073666" lon="8.5494506"><ele>306.0</ele><time>2026-04-30T18:48:41.737Z</time></trkpt><trkpt lat="34.4074112" lon="8.5496271"><ele>306.0</ele><time>2026-04-30T18:48:42.729Z</time></trkpt><trkpt lat="34.4074582" lon="8.5497955"><ele>306.0</ele><time>2026-04-30T18:48:43.713Z</time></trkpt><trkpt lat="34.4075159" lon="8.5499594"><ele>304.25</ele><time>2026-04-30T18:48:44.69Z</time></trkpt><trkpt lat="34.407579" lon="8.5501179"><ele>302.5</ele><time>2026-04-30T18:48:45.673Z</time></trkpt><trkpt lat="34.4076556" lon="8.5502683"><ele>300.75</ele><time>2026-04-30T18:48:46.667Z</time></trkpt><trkpt lat="34.4077571" lon="8.5504071"><ele>299.0</ele><time>2026-04-30T18:48:47.676Z</time></trkpt><trkpt lat="34.4078701" lon="8.5505468"><ele>296.6666666666667</ele><time>2026-04-30T18:48:48.67Z</time></trkpt><trkpt lat="34.4080045" lon="8.5506808"><ele>294.3333333333333</ele><time>2026-04-30T18:48:49.678Z</time></trkpt><trkpt lat="34.4081473" lon="8.5508133"><ele>292.0</ele><time>2026-04-30T18:48:50.699Z</time></trkpt><trkpt lat="34.4082928" lon="8.5509443"><ele>292.0</ele><time>2026-04-30T18:48:51.688Z</time></trkpt><trkpt lat="34.4084356" lon="8.5510766"><ele>292.0</ele><time>2026-04-30T18:48:52.694Z</time></trkpt><trkpt lat="34.4085754" lon="8.551196"><ele>292.0</ele><time>2026-04-30T18:48:53.695Z</time></trkpt><trkpt lat="34.4087142" lon="8.5513182"><ele>290.0</ele><time>2026-04-30T18:48:54.746Z</time></trkpt><trkpt lat="34.4088493" lon="8.5514395"><ele>288.0</ele><time>2026-04-30T18:48:55.671Z</time></trkpt><trkpt lat="34.4089859" lon="8.551562"><ele>286.0</ele><time>2026-04-30T18:48:56.675Z</time></trkpt><trkpt lat="34.4091127" lon="8.5516817"><ele>286.0</ele><time>2026-04-30T18:48:57.682Z</time></trkpt><trkpt lat="34.4092369" lon="8.5518106"><ele>286.0</ele><time>2026-04-30T18:48:58.686Z</time></trkpt><trkpt lat="34.4093566" lon="8.5519458"><ele>286.0</ele><time>2026-04-30T18:48:59.701Z</time></trkpt><trkpt lat="34.4094635" lon="8.5520949"><ele>285.0</ele><time>2026-04-30T18:49:00.675Z</time></trkpt><trkpt lat="34.4095589" lon="8.5522586"><ele>284.0</ele><time>2026-04-30T18:49:01.673Z</time></trkpt><trkpt lat="34.409644" lon="8.5524315"><ele>283.0</ele><time>2026-04-30T18:49:02.701Z</time></trkpt><trkpt lat="34.4097144" lon="8.5526181"><ele>283.0</ele><time>2026-04-30T18:49:03.672Z</time></trkpt><trkpt lat="34.4097708" lon="8.5528169"><ele>283.0</ele><time>2026-04-30T18:49:04.728Z</time></trkpt><trkpt lat="34.4098298" lon="8.5530284"><ele>283.0</ele><time>2026-04-30T18:49:05.755Z</time></trkpt><trkpt lat="34.4098782" lon="8.5532291"><ele>281.66666666666663</ele><time>2026-04-30T18:49:06.717Z</time></trkpt><trkpt lat="34.409923" lon="8.5534274"><ele>280.3333333333333</ele><time>2026-04-30T18:49:07.672Z</time></trkpt><trkpt lat="34.4099668" lon="8.5536215"><ele>279.0</ele><time>2026-04-30T18:49:08.672Z</time></trkpt><trkpt lat="34.4100127" lon="8.5538211"><ele>277.0</ele><time>2026-04-30T18:49:09.688Z</time></trkpt><trkpt lat="34.4100661" lon="8.5540265"><ele>275.0</ele><time>2026-04-30T18:49:10.732Z</time></trkpt><trkpt lat="34.4101229" lon="8.5542418"><ele>273.0</ele><time>2026-04-30T18:49:11.722Z</time></trkpt><trkpt lat="34.4101835" lon="8.5544839"><ele>272.6666666666667</ele><time>2026-04-30T18:49:12.703Z</time></trkpt><trkpt lat="34.4102453" lon="8.5547309"><ele>272.33333333333337</ele><time>2026-04-30T18:49:13.729Z</time></trkpt><trkpt lat="34.410293" lon="8.5549843"><ele>272.0</ele><time>2026-04-30T18:49:14.681Z</time></trkpt><trkpt lat="34.4103433" lon="8.555217"><ele>272.0</ele><time>2026-04-30T18:49:15.693Z</time></trkpt><trkpt lat="34.4103969" lon="8.5554557"><ele>272.0</ele><time>2026-04-30T18:49:16.714Z</time></trkpt><trkpt lat="34.4104586" lon="8.5556733"><ele>272.0</ele><time>2026-04-30T18:49:17.709Z</time></trkpt><trkpt lat="34.4105358" lon="8.5558908"><ele>272.0</ele><time>2026-04-30T18:49:18.71Z</time></trkpt><trkpt lat="34.4106272" lon="8.556093"><ele>272.0</ele><time>2026-04-30T18:49:19.725Z</time></trkpt><trkpt lat="34.4107259" lon="8.556298"><ele>272.0</ele><time>2026-04-30T18:49:20.717Z</time></trkpt><trkpt lat="34.4108261" lon="8.5564982"><ele>270.6666666666667</ele><time>2026-04-30T18:49:21.754Z</time></trkpt><trkpt lat="34.410916" lon="8.5566949"><ele>269.3333333333333</ele><time>2026-04-30T18:49:22.742Z</time></trkpt><trkpt lat="34.4110061" lon="8.5568931"><ele>268.0</ele><time>2026-04-30T18:49:23.699Z</time></trkpt><trkpt lat="34.4110922" lon="8.5570722"><ele>266.3333333333333</ele><time>2026-04-30T18:49:24.729Z</time></trkpt><trkpt lat="34.4111781" lon="8.5572441"><ele>264.6666666666667</ele><time>2026-04-30T18:49:25.723Z</time></trkpt><trkpt lat="34.411258" lon="8.5574138"><ele>263.0</ele><time>2026-04-30T18:49:26.714Z</time></trkpt><trkpt lat="34.4113322" lon="8.5575818"><ele>262.6666666666667</ele><time>2026-04-30T18:49:27.693Z</time></trkpt><trkpt lat="34.4114035" lon="8.5577572"><ele>262.3333333333333</ele><time>2026-04-30T18:49:28.701Z</time></trkpt><trkpt lat="34.4114734" lon="8.5579407"><ele>262.0</ele><time>2026-04-30T18:49:29.717Z</time></trkpt><trkpt lat="34.4115424" lon="8.5581335"><ele>259.66666666666663</ele><time>2026-04-30T18:49:30.71Z</time></trkpt><trkpt lat="34.411601" lon="8.5583337"><ele>257.3333333333333</ele><time>2026-04-30T18:49:31.728Z</time></trkpt><trkpt lat="34.4116537" lon="8.5585496"><ele>255.0</ele><time>2026-04-30T18:49:32.695Z</time></trkpt><trkpt lat="34.4116947" lon="8.5587694"><ele>254.0</ele><time>2026-04-30T18:49:33.691Z</time></trkpt><trkpt lat="34.4117245" lon="8.5589917"><ele>253.0</ele><time>2026-04-30T18:49:34.716Z</time></trkpt><trkpt lat="34.4117647" lon="8.5592168"><ele>252.0</ele><time>2026-04-30T18:49:35.709Z</time></trkpt><trkpt lat="34.4118112" lon="8.5594455"><ele>250.66666666666669</ele><time>2026-04-30T18:49:36.705Z</time></trkpt><trkpt lat="34.4118652" lon="8.5596843"><ele>249.33333333333334</ele><time>2026-04-30T18:49:37.717Z</time></trkpt><trkpt lat="34.4119283" lon="8.5599228"><ele>248.0</ele><time>2026-04-30T18:49:38.722Z</time></trkpt><trkpt lat="34.4119903" lon="8.5601506"><ele>247.66666666666669</ele><time>2026-04-30T18:49:39.701Z</time></trkpt><trkpt lat="34.412056" lon="8.5603826"><ele>247.33333333333331</ele><time>2026-04-30T18:49:40.729Z</time></trkpt><trkpt lat="34.4121253" lon="8.5606161"><ele>247.0</ele><time>2026-04-30T18:49:41.687Z</time></trkpt><trkpt lat="34.4121947" lon="8.5608378"><ele>247.0</ele><time>2026-04-30T18:49:42.727Z</time></trkpt><trkpt lat="34.4122655" lon="8.5610658"><ele>247.0</ele><time>2026-04-30T18:49:43.739Z</time></trkpt><trkpt lat="34.4123418" lon="8.5612798"><ele>247.0</ele><time>2026-04-30T18:49:44.74Z</time></trkpt><trkpt lat="34.4124275" lon="8.56148"><ele>247.66666666666666</ele><time>2026-04-30T18:49:45.715Z</time></trkpt><trkpt lat="34.4125166" lon="8.5616749"><ele>248.33333333333331</ele><time>2026-04-30T18:49:46.679Z</time></trkpt><trkpt lat="34.4126192" lon="8.5618574"><ele>249.0</ele><time>2026-04-30T18:49:47.724Z</time></trkpt><trkpt lat="34.4127298" lon="8.5620262"><ele>250.0</ele><time>2026-04-30T18:49:48.714Z</time></trkpt><trkpt lat="34.4128414" lon="8.562188"><ele>251.0</ele><time>2026-04-30T18:49:49.712Z</time></trkpt><trkpt lat="34.4129554" lon="8.5623473"><ele>252.0</ele><time>2026-04-30T18:49:50.743Z</time></trkpt><trkpt lat="34.4130724" lon="8.5624965"><ele>252.66666666666669</ele><time>2026-04-30T18:49:51.733Z</time></trkpt><trkpt lat="34.4131964" lon="8.5626473"><ele>253.33333333333334</ele><time>2026-04-30T18:49:52.705Z</time></trkpt><trkpt lat="34.4133183" lon="8.562796"><ele>254.0</ele><time>2026-04-30T18:49:53.752Z</time></trkpt><trkpt lat="34.4134402" lon="8.5629473"><ele>254.66666666666669</ele><time>2026-04-30T18:49:54.739Z</time></trkpt><trkpt lat="34.4135635" lon="8.5631026"><ele>255.33333333333331</ele><time>2026-04-30T18:49:55.732Z</time></trkpt><trkpt lat="34.4136896" lon="8.5632586"><ele>256.0</ele><time>2026-04-30T18:49:56.723Z</time></trkpt><trkpt lat="34.4138173" lon="8.5634187"><ele>254.66666666666666</ele><time>2026-04-30T18:49:57.699Z</time></trkpt><trkpt lat="34.4139432" lon="8.56358"><ele>253.33333333333331</ele><time>2026-04-30T18:49:58.73Z</time></trkpt><trkpt lat="34.4140674" lon="8.563744"><ele>252.0</ele><time>2026-04-30T18:49:59.711Z</time></trkpt><trkpt lat="34.4141897" lon="8.5639044"><ele>251.66666666666669</ele><time>2026-04-30T18:50:00.726Z</time></trkpt><trkpt lat="34.4143038" lon="8.5640649"><ele>251.33333333333334</ele><time>2026-04-30T18:50:01.704Z</time></trkpt><trkpt lat="34.4144182" lon="8.5642336"><ele>251.0</ele><time>2026-04-30T18:50:02.73Z</time></trkpt><trkpt lat="34.4145307" lon="8.5644043"><ele>251.33333333333334</ele><time>2026-04-30T18:50:03.723Z</time></trkpt><trkpt lat="34.4146426" lon="8.5645748"><ele>251.66666666666669</ele><time>2026-04-30T18:50:04.732Z</time></trkpt><trkpt lat="34.4147503" lon="8.5647547"><ele>252.0</ele><time>2026-04-30T18:50:05.758Z</time></trkpt><trkpt lat="34.4148545" lon="8.5649418"><ele>251.0</ele><time>2026-04-30T18:50:06.735Z</time></trkpt><trkpt lat="34.414956" lon="8.5651385"><ele>250.0</ele><time>2026-04-30T18:50:07.737Z</time></trkpt><trkpt lat="34.4150604" lon="8.565344"><ele>249.0</ele><time>2026-04-30T18:50:08.733Z</time></trkpt><trkpt lat="34.4151616" lon="8.5655522"><ele>249.0</ele><time>2026-04-30T18:50:09.729Z</time></trkpt><trkpt lat="34.415262" lon="8.5657725"><ele>249.0</ele><time>2026-04-30T18:50:10.717Z</time></trkpt><trkpt lat="34.4153588" lon="8.5659914"><ele>249.0</ele><time>2026-04-30T18:50:11.734Z</time></trkpt><trkpt lat="34.4154491" lon="8.5662127"><ele>248.33333333333331</ele><time>2026-04-30T18:50:12.721Z</time></trkpt><trkpt lat="34.4155365" lon="8.5664369"><ele>247.66666666666666</ele><time>2026-04-30T18:50:13.726Z</time></trkpt><trkpt lat="34.4156258" lon="8.5666581"><ele>247.0</ele><time>2026-04-30T18:50:14.699Z</time></trkpt><trkpt lat="34.4157143" lon="8.5668779"><ele>248.0</ele><time>2026-04-30T18:50:15.728Z</time></trkpt><trkpt lat="34.4157995" lon="8.5670906"><ele>249.0</ele><time>2026-04-30T18:50:16.733Z</time></trkpt><trkpt lat="34.4158947" lon="8.5673046"><ele>250.0</ele><time>2026-04-30T18:50:17.73Z</time></trkpt><trkpt lat="34.415986" lon="8.5675152"><ele>250.0</ele><time>2026-04-30T18:50:18.734Z</time></trkpt><trkpt lat="34.4160857" lon="8.5677226"><ele>250.0</ele><time>2026-04-30T18:50:19.697Z</time></trkpt><trkpt lat="34.4161883" lon="8.5679304"><ele>250.0</ele><time>2026-04-30T18:50:20.725Z</time></trkpt><trkpt lat="34.4162924" lon="8.5681395"><ele>249.33333333333331</ele><time>2026-04-30T18:50:21.735Z</time></trkpt><trkpt lat="34.4163983" lon="8.5683423"><ele>248.66666666666669</ele><time>2026-04-30T18:50:22.711Z</time></trkpt><trkpt lat="34.4165097" lon="8.5685479"><ele>248.0</ele><time>2026-04-30T18:50:23.731Z</time></trkpt><trkpt lat="34.4166217" lon="8.568752"><ele>248.0</ele><time>2026-04-30T18:50:24.687Z</time></trkpt><trkpt lat="34.4167324" lon="8.5689556"><ele>248.0</ele><time>2026-04-30T18:50:25.695Z</time></trkpt><trkpt lat="34.4168492" lon="8.5691567"><ele>248.0</ele><time>2026-04-30T18:50:26.729Z</time></trkpt><trkpt lat="34.4169667" lon="8.569354"><ele>249.0</ele><time>2026-04-30T18:50:27.699Z</time></trkpt><trkpt lat="34.4170806" lon="8.5695514"><ele>250.0</ele><time>2026-04-30T18:50:28.746Z</time></trkpt><trkpt lat="34.4171853" lon="8.5697496"><ele>251.0</ele><time>2026-04-30T18:50:29.741Z</time></trkpt><trkpt lat="34.4172815" lon="8.569951"><ele>247.33333333333334</ele><time>2026-04-30T18:50:30.684Z</time></trkpt><trkpt lat="34.4173681" lon="8.5701572"><ele>243.66666666666669</ele><time>2026-04-30T18:50:31.728Z</time></trkpt><trkpt lat="34.4174409" lon="8.5703649"><ele>240.0</ele><time>2026-04-30T18:50:32.734Z</time></trkpt><trkpt lat="34.4175065" lon="8.5705867"><ele>240.0</ele><time>2026-04-30T18:50:33.701Z</time></trkpt><trkpt lat="34.4175615" lon="8.5708074"><ele>240.0</ele><time>2026-04-30T18:50:34.711Z</time></trkpt><trkpt lat="34.4176141" lon="8.5710344"><ele>240.0</ele><time>2026-04-30T18:50:35.694Z</time></trkpt><trkpt lat="34.4176617" lon="8.5712724"><ele>239.0</ele><time>2026-04-30T18:50:36.749Z</time></trkpt><trkpt lat="34.417706" lon="8.5715086"><ele>238.0</ele><time>2026-04-30T18:50:37.727Z</time></trkpt><trkpt lat="34.4177522" lon="8.5717408"><ele>237.0</ele><time>2026-04-30T18:50:38.716Z</time></trkpt><trkpt lat="34.4177959" lon="8.5719772"><ele>237.66666666666669</ele><time>2026-04-30T18:50:39.703Z</time></trkpt><trkpt lat="34.4178427" lon="8.5722058"><ele>238.33333333333334</ele><time>2026-04-30T18:50:40.721Z</time></trkpt><trkpt lat="34.4178849" lon="8.5724377"><ele>239.0</ele><time>2026-04-30T18:50:41.736Z</time></trkpt><trkpt lat="34.4179249" lon="8.5726733"><ele>238.66666666666669</ele><time>2026-04-30T18:50:42.7Z</time></trkpt><trkpt lat="34.4179622" lon="8.5729038"><ele>238.33333333333331</ele><time>2026-04-30T18:50:43.715Z</time></trkpt><trkpt lat="34.418001" lon="8.5731379"><ele>238.0</ele><time>2026-04-30T18:50:44.715Z</time></trkpt><trkpt lat="34.4180422" lon="8.573366"><ele>236.66666666666666</ele><time>2026-04-30T18:50:45.739Z</time></trkpt><trkpt lat="34.4180804" lon="8.5735945"><ele>235.33333333333331</ele><time>2026-04-30T18:50:46.684Z</time></trkpt><trkpt lat="34.4181127" lon="8.5738251"><ele>234.0</ele><time>2026-04-30T18:50:47.681Z</time></trkpt><trkpt lat="34.4181377" lon="8.5740615"><ele>234.0</ele><time>2026-04-30T18:50:48.72Z</time></trkpt><trkpt lat="34.4181557" lon="8.5742985"><ele>234.0</ele><time>2026-04-30T18:50:49.714Z</time></trkpt><trkpt lat="34.4181567" lon="8.5745378"><ele>234.0</ele><time>2026-04-30T18:50:50.721Z</time></trkpt><trkpt lat="34.4181475" lon="8.5747753"><ele>233.33333333333331</ele><time>2026-04-30T18:50:51.701Z</time></trkpt><trkpt lat="34.4181367" lon="8.5750096"><ele>232.66666666666666</ele><time>2026-04-30T18:50:52.729Z</time></trkpt><trkpt lat="34.4181387" lon="8.5752407"><ele>232.0</ele><time>2026-04-30T18:50:53.715Z</time></trkpt><trkpt lat="34.4181456" lon="8.5754735"><ele>231.66666666666666</ele><time>2026-04-30T18:50:54.747Z</time></trkpt><trkpt lat="34.418163" lon="8.5757069"><ele>231.33333333333331</ele><time>2026-04-30T18:50:55.72Z</time></trkpt><trkpt lat="34.4181957" lon="8.5759378"><ele>231.0</ele><time>2026-04-30T18:50:56.714Z</time></trkpt><trkpt lat="34.4182362" lon="8.5761663"><ele>232.0</ele><time>2026-04-30T18:50:57.724Z</time></trkpt><trkpt lat="34.418282" lon="8.576387"><ele>233.0</ele><time>2026-04-30T18:50:58.736Z</time></trkpt><trkpt lat="34.4183426" lon="8.5766072"><ele>234.0</ele><time>2026-04-30T18:50:59.753Z</time></trkpt><trkpt lat="34.4184046" lon="8.57682"><ele>235.33333333333331</ele><time>2026-04-30T18:51:00.743Z</time></trkpt><trkpt lat="34.4184781" lon="8.5770278"><ele>236.66666666666666</ele><time>2026-04-30T18:51:01.73Z</time></trkpt><trkpt lat="34.4185616" lon="8.5772362"><ele>238.0</ele><time>2026-04-30T18:51:02.724Z</time></trkpt><trkpt lat="34.4186507" lon="8.5774441"><ele>238.0</ele><time>2026-04-30T18:51:03.742Z</time></trkpt><trkpt lat="34.4187436" lon="8.5776506"><ele>238.0</ele><time>2026-04-30T18:51:04.739Z</time></trkpt><trkpt lat="34.4188446" lon="8.5778458"><ele>238.0</ele><time>2026-04-30T18:51:05.717Z</time></trkpt><trkpt lat="34.4189493" lon="8.5780411"><ele>235.0</ele><time>2026-04-30T18:51:06.722Z</time></trkpt><trkpt lat="34.4190549" lon="8.5782294"><ele>232.0</ele><time>2026-04-30T18:51:07.702Z</time></trkpt><trkpt lat="34.4191614" lon="8.5784044"><ele>229.0</ele><time>2026-04-30T18:51:08.726Z</time></trkpt><trkpt lat="34.4192627" lon="8.5785807"><ele>228.66666666666666</ele><time>2026-04-30T18:51:09.726Z</time></trkpt><trkpt lat="34.4193643" lon="8.57875"><ele>228.33333333333331</ele><time>2026-04-30T18:51:10.725Z</time></trkpt><trkpt lat="34.4194556" lon="8.5789332"><ele>228.0</ele><time>2026-04-30T18:51:11.729Z</time></trkpt><trkpt lat="34.419538" lon="8.5791294"><ele>228.0</ele><time>2026-04-30T18:51:12.7Z</time></trkpt><trkpt lat="34.4196112" lon="8.57933"><ele>228.0</ele><time>2026-04-30T18:51:13.688Z</time></trkpt><trkpt lat="34.419673" lon="8.5795329"><ele>228.0</ele><time>2026-04-30T18:51:14.712Z</time></trkpt><trkpt lat="34.4197244" lon="8.5797397"><ele>227.33333333333331</ele><time>2026-04-30T18:51:15.729Z</time></trkpt><trkpt lat="34.4197657" lon="8.5799555"><ele>226.66666666666666</ele><time>2026-04-30T18:51:16.726Z</time></trkpt><trkpt lat="34.4197968" lon="8.5801844"><ele>226.0</ele><time>2026-04-30T18:51:17.7Z</time></trkpt><trkpt lat="34.4198103" lon="8.580416"><ele>225.66666666666666</ele><time>2026-04-30T18:51:18.714Z</time></trkpt><trkpt lat="34.4198135" lon="8.5806362"><ele>225.33333333333331</ele><time>2026-04-30T18:51:19.716Z</time></trkpt><trkpt lat="34.419805" lon="8.5808579"><ele>225.0</ele><time>2026-04-30T18:51:20.68Z</time></trkpt><trkpt lat="34.4197854" lon="8.5810772"><ele>224.66666666666669</ele><time>2026-04-30T18:51:21.684Z</time></trkpt><trkpt lat="34.4197491" lon="8.5812891"><ele>224.33333333333334</ele><time>2026-04-30T18:51:22.688Z</time></trkpt><trkpt lat="34.4197025" lon="8.5815075"><ele>224.0</ele><time>2026-04-30T18:51:23.713Z</time></trkpt><trkpt lat="34.4196415" lon="8.5817274"><ele>223.0</ele><time>2026-04-30T18:51:24.679Z</time></trkpt><trkpt lat="34.4195713" lon="8.5819442"><ele>222.0</ele><time>2026-04-30T18:51:25.69Z</time></trkpt><trkpt lat="34.4194897" lon="8.5821552"><ele>221.0</ele><time>2026-04-30T18:51:26.725Z</time></trkpt><trkpt lat="34.4193872" lon="8.582367"><ele>220.66666666666669</ele><time>2026-04-30T18:51:27.684Z</time></trkpt><trkpt lat="34.4192735" lon="8.5825628"><ele>220.33333333333331</ele><time>2026-04-30T18:51:28.688Z</time></trkpt><trkpt lat="34.4191581" lon="8.5827658"><ele>220.0</ele><time>2026-04-30T18:51:29.731Z</time></trkpt><trkpt lat="34.4190487" lon="8.5829721"><ele>220.0</ele><time>2026-04-30T18:51:30.729Z</time></trkpt><trkpt lat="34.418934" lon="8.5831765"><ele>220.0</ele><time>2026-04-30T18:51:31.672Z</time></trkpt><trkpt lat="34.4188148" lon="8.5833826"><ele>220.0</ele><time>2026-04-30T18:51:32.708Z</time></trkpt><trkpt lat="34.4186955" lon="8.5835875"><ele>220.33333333333331</ele><time>2026-04-30T18:51:33.737Z</time></trkpt><trkpt lat="34.418575" lon="8.5837925"><ele>220.66666666666669</ele><time>2026-04-30T18:51:34.717Z</time></trkpt><trkpt lat="34.4184561" lon="8.5839973"><ele>221.0</ele><time>2026-04-30T18:51:35.733Z</time></trkpt><trkpt lat="34.4183424" lon="8.5841985"><ele>221.0</ele><time>2026-04-30T18:51:36.735Z</time></trkpt><trkpt lat="34.4182271" lon="8.5844032"><ele>221.0</ele><time>2026-04-30T18:51:37.708Z</time></trkpt><trkpt lat="34.4181144" lon="8.5846052"><ele>221.0</ele><time>2026-04-30T18:51:38.713Z</time></trkpt><trkpt lat="34.4180101" lon="8.5848115"><ele>221.66666666666669</ele><time>2026-04-30T18:51:39.736Z</time></trkpt><trkpt lat="34.4179099" lon="8.5850205"><ele>222.33333333333331</ele><time>2026-04-30T18:51:40.683Z</time></trkpt><trkpt lat="34.4178228" lon="8.5852306"><ele>223.0</ele><time>2026-04-30T18:51:41.678Z</time></trkpt><trkpt lat="34.4177481" lon="8.5854453"><ele>223.0</ele><time>2026-04-30T18:51:42.71Z</time></trkpt><trkpt lat="34.4176918" lon="8.5856589"><ele>223.0</ele><time>2026-04-30T18:51:43.709Z</time></trkpt><trkpt lat="34.4176335" lon="8.5858735"><ele>223.0</ele><time>2026-04-30T18:51:44.676Z</time></trkpt><trkpt lat="34.4175831" lon="8.5860956"><ele>222.0</ele><time>2026-04-30T18:51:45.734Z</time></trkpt><trkpt lat="34.4175317" lon="8.5863189"><ele>221.0</ele><time>2026-04-30T18:51:46.698Z</time></trkpt><trkpt lat="34.4174785" lon="8.5865378"><ele>220.0</ele><time>2026-04-30T18:51:47.735Z</time></trkpt><trkpt lat="34.4174277" lon="8.5867628"><ele>220.0</ele><time>2026-04-30T18:51:48.68Z</time></trkpt><trkpt lat="34.4173797" lon="8.5869851"><ele>220.0</ele><time>2026-04-30T18:51:49.709Z</time></trkpt><trkpt lat="34.4173284" lon="8.5872027"><ele>220.0</ele><time>2026-04-30T18:51:50.685Z</time></trkpt><trkpt lat="34.4172781" lon="8.5874237"><ele>219.33333333333331</ele><time>2026-04-30T18:51:51.703Z</time></trkpt><trkpt lat="34.4172293" lon="8.587639"><ele>218.66666666666669</ele><time>2026-04-30T18:51:52.686Z</time></trkpt><trkpt lat="34.4171836" lon="8.5878493"><ele>218.0</ele><time>2026-04-30T18:51:53.743Z</time></trkpt><trkpt lat="34.4171376" lon="8.5880629"><ele>217.66666666666669</ele><time>2026-04-30T18:51:54.729Z</time></trkpt><trkpt lat="34.4170924" lon="8.5882721"><ele>217.33333333333331</ele><time>2026-04-30T18:51:55.731Z</time></trkpt><trkpt lat="34.4170559" lon="8.5884935"><ele>217.0</ele><time>2026-04-30T18:51:56.709Z</time></trkpt><trkpt lat="34.4170285" lon="8.5887168"><ele>216.33333333333331</ele><time>2026-04-30T18:51:57.719Z</time></trkpt><trkpt lat="34.4170118" lon="8.5889538"><ele>215.66666666666669</ele><time>2026-04-30T18:51:58.721Z</time></trkpt><trkpt lat="34.4170108" lon="8.5891917"><ele>215.0</ele><time>2026-04-30T18:51:59.724Z</time></trkpt><trkpt lat="34.417027" lon="8.5894398"><ele>214.33333333333334</ele><time>2026-04-30T18:52:00.676Z</time></trkpt><trkpt lat="34.4170547" lon="8.5896843"><ele>213.66666666666669</ele><time>2026-04-30T18:52:01.724Z</time></trkpt><trkpt lat="34.4170941" lon="8.5899372"><ele>213.0</ele><time>2026-04-30T18:52:02.729Z</time></trkpt><trkpt lat="34.4171392" lon="8.5901904"><ele>211.66666666666669</ele><time>2026-04-30T18:52:03.739Z</time></trkpt><trkpt lat="34.4171856" lon="8.5904478"><ele>210.33333333333334</ele><time>2026-04-30T18:52:04.687Z</time></trkpt><trkpt lat="34.4172312" lon="8.5906991"><ele>209.0</ele><time>2026-04-30T18:52:05.741Z</time></trkpt><trkpt lat="34.4172772" lon="8.59095"><ele>208.66666666666669</ele><time>2026-04-30T18:52:06.74Z</time></trkpt><trkpt lat="34.4173216" lon="8.5912018"><ele>208.33333333333331</ele><time>2026-04-30T18:52:07.702Z</time></trkpt><trkpt lat="34.417365" lon="8.5914554"><ele>208.0</ele><time>2026-04-30T18:52:08.686Z</time></trkpt><trkpt lat="34.4174097" lon="8.5917033"><ele>208.0</ele><time>2026-04-30T18:52:09.724Z</time></trkpt><trkpt lat="34.4174545" lon="8.5919461"><ele>208.0</ele><time>2026-04-30T18:52:10.702Z</time></trkpt><trkpt lat="34.4174992" lon="8.5921755"><ele>208.0</ele><time>2026-04-30T18:52:11.705Z</time></trkpt><trkpt lat="34.417546" lon="8.5923785"><ele>208.0</ele><time>2026-04-30T18:52:12.727Z</time></trkpt><trkpt lat="34.4175854" lon="8.5925669"><ele>208.0</ele><time>2026-04-30T18:52:13.726Z</time></trkpt><trkpt lat="34.4176258" lon="8.5927484"><ele>208.0</ele><time>2026-04-30T18:52:14.728Z</time></trkpt><trkpt lat="34.4176618" lon="8.5929074"><ele>208.0</ele><time>2026-04-30T18:52:15.732Z</time></trkpt><trkpt lat="34.4177024" lon="8.593053"><ele>208.0</ele><time>2026-04-30T18:52:16.71Z</time></trkpt><trkpt lat="34.4177396" lon="8.5931985"><ele>208.0</ele><time>2026-04-30T18:52:17.703Z</time></trkpt><trkpt lat="34.4177759" lon="8.5933281"><ele>208.0</ele><time>2026-04-30T18:52:18.723Z</time></trkpt><trkpt lat="34.4178143" lon="8.593449"><ele>207.99999999999997</ele><time>2026-04-30T18:52:19.722Z</time></trkpt><trkpt lat="34.4178572" lon="8.5935482"><ele>208.0</ele><time>2026-04-30T18:52:20.738Z</time></trkpt><trkpt lat="34.417903" lon="8.5936472"><ele>208.0</ele><time>2026-04-30T18:52:21.731Z</time></trkpt><trkpt lat="34.417945" lon="8.5937278"><ele>208.0</ele><time>2026-04-30T18:52:22.725Z</time></trkpt><trkpt lat="34.4179834" lon="8.593807"><ele>207.99999999999997</ele><time>2026-04-30T18:52:23.732Z</time></trkpt><trkpt lat="34.4180382" lon="8.5938866"><ele>208.0</ele><time>2026-04-30T18:52:24.735Z</time></trkpt><trkpt lat="34.4181026" lon="8.5939719"><ele>208.4</ele><time>2026-04-30T18:52:25.737Z</time></trkpt><trkpt lat="34.4181701" lon="8.5940625"><ele>208.8</ele><time>2026-04-30T18:52:26.687Z</time></trkpt><trkpt lat="34.4182346" lon="8.594167"><ele>209.2</ele><time>2026-04-30T18:52:27.694Z</time></trkpt><trkpt lat="34.4183018" lon="8.59427"><ele>209.6</ele><time>2026-04-30T18:52:28.724Z</time></trkpt><trkpt lat="34.4183736" lon="8.5943792"><ele>210.0</ele><time>2026-04-30T18:52:29.688Z</time></trkpt><trkpt lat="34.4184514" lon="8.5944902"><ele>209.6</ele><time>2026-04-30T18:52:30.726Z</time></trkpt><trkpt lat="34.4185251" lon="8.5946035"><ele>209.2</ele><time>2026-04-30T18:52:31.715Z</time></trkpt><trkpt lat="34.4185931" lon="8.5947012"><ele>208.8</ele><time>2026-04-30T18:52:32.698Z</time></trkpt><trkpt lat="34.4186548" lon="8.5947825"><ele>208.4</ele><time>2026-04-30T18:52:33.73Z</time></trkpt><trkpt lat="34.4187079" lon="8.5948546"><ele>208.0</ele><time>2026-04-30T18:52:34.726Z</time></trkpt><trkpt lat="34.4187561" lon="8.5949262"><ele>208.0</ele><time>2026-04-30T18:52:35.739Z</time></trkpt><trkpt lat="34.4188383" lon="8.5950492"><ele>208.0</ele><time>2026-04-30T18:52:37.722Z</time></trkpt><trkpt lat="34.4188901" lon="8.5951346"><ele>208.0</ele><time>2026-04-30T18:52:38.731Z</time></trkpt><trkpt lat="34.4189643" lon="8.5952434"><ele>208.0</ele><time>2026-04-30T18:52:39.722Z</time></trkpt><trkpt lat="34.4190529" lon="8.5953622"><ele>207.66666666666666</ele><time>2026-04-30T18:52:40.717Z</time></trkpt><trkpt lat="34.4191514" lon="8.5955047"><ele>207.33333333333331</ele><time>2026-04-30T18:52:41.727Z</time></trkpt><trkpt lat="34.4192529" lon="8.5956536"><ele>207.0</ele><time>2026-04-30T18:52:42.733Z</time></trkpt><trkpt lat="34.419354" lon="8.5958067"><ele>207.0</ele><time>2026-04-30T18:52:43.715Z</time></trkpt><trkpt lat="34.4194581" lon="8.5959649"><ele>207.0</ele><time>2026-04-30T18:52:44.729Z</time></trkpt><trkpt lat="34.4195624" lon="8.5961204"><ele>207.0</ele><time>2026-04-30T18:52:45.709Z</time></trkpt><trkpt lat="34.4196676" lon="8.5962718"><ele>206.33333333333331</ele><time>2026-04-30T18:52:46.706Z</time></trkpt><trkpt lat="34.4197785" lon="8.5964299"><ele>205.66666666666666</ele><time>2026-04-30T18:52:47.744Z</time></trkpt><trkpt lat="34.419893" lon="8.5965941"><ele>205.0</ele><time>2026-04-30T18:52:48.724Z</time></trkpt><trkpt lat="34.4200063" lon="8.5967621"><ele>205.0</ele><time>2026-04-30T18:52:49.685Z</time></trkpt><trkpt lat="34.4201192" lon="8.5969344"><ele>205.0</ele><time>2026-04-30T18:52:50.734Z</time></trkpt><trkpt lat="34.4202353" lon="8.5971102"><ele>205.0</ele><time>2026-04-30T18:52:51.679Z</time></trkpt><trkpt lat="34.4203513" lon="8.5972948"><ele>204.0</ele><time>2026-04-30T18:52:52.712Z</time></trkpt><trkpt lat="34.4204692" lon="8.5974785"><ele>203.0</ele><time>2026-04-30T18:52:53.737Z</time></trkpt><trkpt lat="34.4205885" lon="8.5976635"><ele>202.0</ele><time>2026-04-30T18:52:54.715Z</time></trkpt><trkpt lat="34.4207116" lon="8.5978482"><ele>201.33333333333331</ele><time>2026-04-30T18:52:55.736Z</time></trkpt><trkpt lat="34.4208317" lon="8.5980305"><ele>200.66666666666669</ele><time>2026-04-30T18:52:56.71Z</time></trkpt><trkpt lat="34.4209566" lon="8.5982169"><ele>200.0</ele><time>2026-04-30T18:52:57.731Z</time></trkpt><trkpt lat="34.4210827" lon="8.5984059"><ele>200.0</ele><time>2026-04-30T18:52:58.726Z</time></trkpt><trkpt lat="34.421207" lon="8.5985963"><ele>200.0</ele><time>2026-04-30T18:52:59.702Z</time></trkpt><trkpt lat="34.421329" lon="8.5987871"><ele>200.0</ele><time>2026-04-30T18:53:00.728Z</time></trkpt><trkpt lat="34.4214571" lon="8.598978"><ele>199.66666666666669</ele><time>2026-04-30T18:53:01.714Z</time></trkpt><trkpt lat="34.4215798" lon="8.5991694"><ele>199.33333333333331</ele><time>2026-04-30T18:53:02.719Z</time></trkpt><trkpt lat="34.4217107" lon="8.5993608"><ele>199.0</ele><time>2026-04-30T18:53:03.731Z</time></trkpt><trkpt lat="34.4218394" lon="8.5995518"><ele>199.0</ele><time>2026-04-30T18:53:04.73Z</time></trkpt><trkpt lat="34.4219668" lon="8.5997465"><ele>199.0</ele><time>2026-04-30T18:53:05.737Z</time></trkpt><trkpt lat="34.4220891" lon="8.5999375"><ele>199.0</ele><time>2026-04-30T18:53:06.737Z</time></trkpt><trkpt lat="34.4222152" lon="8.6001237"><ele>199.66666666666666</ele><time>2026-04-30T18:53:07.734Z</time></trkpt><trkpt lat="34.4223413" lon="8.6003086"><ele>200.33333333333331</ele><time>2026-04-30T18:53:08.739Z</time></trkpt><trkpt lat="34.4224672" lon="8.6004966"><ele>201.0</ele><time>2026-04-30T18:53:09.737Z</time></trkpt><trkpt lat="34.4225917" lon="8.6006779"><ele>201.0</ele><time>2026-04-30T18:53:10.728Z</time></trkpt><trkpt lat="34.4227171" lon="8.6008615"><ele>201.0</ele><time>2026-04-30T18:53:11.731Z</time></trkpt><trkpt lat="34.4228374" lon="8.6010427"><ele>201.0</ele><time>2026-04-30T18:53:12.722Z</time></trkpt><trkpt lat="34.4229561" lon="8.6012234"><ele>201.0</ele><time>2026-04-30T18:53:13.731Z</time></trkpt><trkpt lat="34.4230731" lon="8.601405"><ele>201.0</ele><time>2026-04-30T18:53:14.735Z</time></trkpt><trkpt lat="34.4231869" lon="8.6015824"><ele>201.0</ele><time>2026-04-30T18:53:15.73Z</time></trkpt><trkpt lat="34.4232994" lon="8.6017669"><ele>201.0</ele><time>2026-04-30T18:53:16.722Z</time></trkpt><trkpt lat="34.4234044" lon="8.6019479"><ele>201.0</ele><time>2026-04-30T18:53:17.726Z</time></trkpt><trkpt lat="34.4235102" lon="8.6021321"><ele>201.0</ele><time>2026-04-30T18:53:18.736Z</time></trkpt><trkpt lat="34.4236168" lon="8.6023114"><ele>201.0</ele><time>2026-04-30T18:53:19.739Z</time></trkpt><trkpt lat="34.4237228" lon="8.6024845"><ele>201.0</ele><time>2026-04-30T18:53:20.734Z</time></trkpt><trkpt lat="34.4238234" lon="8.6026587"><ele>201.0</ele><time>2026-04-30T18:53:21.735Z</time></trkpt><trkpt lat="34.4239252" lon="8.6028383"><ele>201.66666666666669</ele><time>2026-04-30T18:53:22.724Z</time></trkpt><trkpt lat="34.4240245" lon="8.6030109"><ele>202.33333333333334</ele><time>2026-04-30T18:53:23.746Z</time></trkpt><trkpt lat="34.4241238" lon="8.6031868"><ele>203.0</ele><time>2026-04-30T18:53:24.693Z</time></trkpt><trkpt lat="34.4242245" lon="8.6033633"><ele>203.0</ele><time>2026-04-30T18:53:25.714Z</time></trkpt><trkpt lat="34.424325" lon="8.6035385"><ele>203.0</ele><time>2026-04-30T18:53:26.683Z</time></trkpt><trkpt lat="34.4244274" lon="8.6037136"><ele>203.0</ele><time>2026-04-30T18:53:27.746Z</time></trkpt><trkpt lat="34.4245308" lon="8.6038852"><ele>203.0</ele><time>2026-04-30T18:53:28.671Z</time></trkpt><trkpt lat="34.4246303" lon="8.6040546"><ele>203.0</ele><time>2026-04-30T18:53:29.682Z</time></trkpt><trkpt lat="34.4247274" lon="8.604232"><ele>203.0</ele><time>2026-04-30T18:53:30.754Z</time></trkpt><trkpt lat="34.4248292" lon="8.6044021"><ele>202.66666666666669</ele><time>2026-04-30T18:53:31.688Z</time></trkpt><trkpt lat="34.424934" lon="8.6045779"><ele>202.33333333333331</ele><time>2026-04-30T18:53:32.665Z</time></trkpt><trkpt lat="34.4250362" lon="8.604752"><ele>202.0</ele><time>2026-04-30T18:53:33.675Z</time></trkpt><trkpt lat="34.4251379" lon="8.6049193"><ele>202.0</ele><time>2026-04-30T18:53:34.708Z</time></trkpt><trkpt lat="34.4252389" lon="8.6050907"><ele>202.0</ele><time>2026-04-30T18:53:35.674Z</time></trkpt><trkpt lat="34.4253413" lon="8.6052653"><ele>202.0</ele><time>2026-04-30T18:53:36.682Z</time></trkpt><trkpt lat="34.4254362" lon="8.6054358"><ele>203.33333333333331</ele><time>2026-04-30T18:53:37.674Z</time></trkpt><trkpt lat="34.4255329" lon="8.605608"><ele>204.66666666666669</ele><time>2026-04-30T18:53:38.706Z</time></trkpt><trkpt lat="34.4256267" lon="8.6057726"><ele>206.0</ele><time>2026-04-30T18:53:39.735Z</time></trkpt><trkpt lat="34.4257191" lon="8.605932"><ele>206.0</ele><time>2026-04-30T18:53:40.684Z</time></trkpt><trkpt lat="34.4258123" lon="8.606087"><ele>206.0</ele><time>2026-04-30T18:53:41.704Z</time></trkpt><trkpt lat="34.4259025" lon="8.6062482"><ele>206.0</ele><time>2026-04-30T18:53:42.684Z</time></trkpt><trkpt lat="34.4259922" lon="8.606406"><ele>205.0</ele><time>2026-04-30T18:53:43.692Z</time></trkpt><trkpt lat="34.426083" lon="8.6065663"><ele>204.0</ele><time>2026-04-30T18:53:44.728Z</time></trkpt><trkpt lat="34.4261746" lon="8.6067227"><ele>203.0</ele><time>2026-04-30T18:53:45.688Z</time></trkpt><trkpt lat="34.4262597" lon="8.6068813"><ele>205.66666666666669</ele><time>2026-04-30T18:53:46.737Z</time></trkpt><trkpt lat="34.4263504" lon="8.6070397"><ele>208.33333333333331</ele><time>2026-04-30T18:53:47.728Z</time></trkpt><trkpt lat="34.4264405" lon="8.6072054"><ele>211.0</ele><time>2026-04-30T18:53:48.744Z</time></trkpt><trkpt lat="34.4265287" lon="8.6073822"><ele>211.0</ele><time>2026-04-30T18:53:49.715Z</time></trkpt><trkpt lat="34.4266139" lon="8.6075552"><ele>211.0</ele><time>2026-04-30T18:53:50.685Z</time></trkpt><trkpt lat="34.4266974" lon="8.6077268"><ele>211.0</ele><time>2026-04-30T18:53:51.718Z</time></trkpt><trkpt lat="34.4267789" lon="8.6079"><ele>210.0</ele><time>2026-04-30T18:53:52.716Z</time></trkpt><trkpt lat="34.4268574" lon="8.6080771"><ele>209.0</ele><time>2026-04-30T18:53:53.73Z</time></trkpt><trkpt lat="34.4269322" lon="8.6082541"><ele>208.0</ele><time>2026-04-30T18:53:54.74Z</time></trkpt><trkpt lat="34.4270095" lon="8.6084248"><ele>208.0</ele><time>2026-04-30T18:53:55.715Z</time></trkpt><trkpt lat="34.4270891" lon="8.6085974"><ele>208.0</ele><time>2026-04-30T18:53:56.711Z</time></trkpt><trkpt lat="34.4271585" lon="8.6087683"><ele>208.0</ele><time>2026-04-30T18:53:57.689Z</time></trkpt><trkpt lat="34.4272344" lon="8.6089313"><ele>207.66666666666666</ele><time>2026-04-30T18:53:58.72Z</time></trkpt><trkpt lat="34.427308" lon="8.6090982"><ele>207.33333333333331</ele><time>2026-04-30T18:53:59.719Z</time></trkpt><trkpt lat="34.4273835" lon="8.6092638"><ele>207.0</ele><time>2026-04-30T18:54:00.723Z</time></trkpt><trkpt lat="34.4274604" lon="8.6094295"><ele>207.0</ele><time>2026-04-30T18:54:01.715Z</time></trkpt><trkpt lat="34.4275406" lon="8.6095873"><ele>207.0</ele><time>2026-04-30T18:54:02.707Z</time></trkpt><trkpt lat="34.4276214" lon="8.6097481"><ele>207.0</ele><time>2026-04-30T18:54:03.687Z</time></trkpt><trkpt lat="34.4277095" lon="8.6098995"><ele>207.0</ele><time>2026-04-30T18:54:04.721Z</time></trkpt><trkpt lat="34.4278011" lon="8.6100554"><ele>207.0</ele><time>2026-04-30T18:54:05.726Z</time></trkpt><trkpt lat="34.4278941" lon="8.6102116"><ele>207.0</ele><time>2026-04-30T18:54:06.722Z</time></trkpt><trkpt lat="34.4279855" lon="8.6103731"><ele>207.33333333333331</ele><time>2026-04-30T18:54:07.7Z</time></trkpt><trkpt lat="34.4280765" lon="8.6105433"><ele>207.66666666666666</ele><time>2026-04-30T18:54:08.685Z</time></trkpt><trkpt lat="34.4281699" lon="8.6107109"><ele>208.0</ele><time>2026-04-30T18:54:09.683Z</time></trkpt><trkpt lat="34.4282641" lon="8.6108849"><ele>208.0</ele><time>2026-04-30T18:54:10.691Z</time></trkpt><trkpt lat="34.4283606" lon="8.6110556"><ele>208.0</ele><time>2026-04-30T18:54:11.676Z</time></trkpt><trkpt lat="34.4284568" lon="8.6112356"><ele>208.0</ele><time>2026-04-30T18:54:12.668Z</time></trkpt><trkpt lat="34.4285548" lon="8.6114159"><ele>208.33333333333331</ele><time>2026-04-30T18:54:13.673Z</time></trkpt><trkpt lat="34.4286513" lon="8.6115974"><ele>208.66666666666669</ele><time>2026-04-30T18:54:14.674Z</time></trkpt><trkpt lat="34.4287495" lon="8.6117816"><ele>209.0</ele><time>2026-04-30T18:54:15.676Z</time></trkpt><trkpt lat="34.4288497" lon="8.6119534"><ele>208.0</ele><time>2026-04-30T18:54:16.694Z</time></trkpt><trkpt lat="34.4289436" lon="8.612135"><ele>207.0</ele><time>2026-04-30T18:54:17.68Z</time></trkpt><trkpt lat="34.4290386" lon="8.612307"><ele>206.0</ele><time>2026-04-30T18:54:18.689Z</time></trkpt><trkpt lat="34.4291305" lon="8.6124816"><ele>206.0</ele><time>2026-04-30T18:54:19.73Z</time></trkpt><trkpt lat="34.4292237" lon="8.6126456"><ele>206.0</ele><time>2026-04-30T18:54:20.72Z</time></trkpt><trkpt lat="34.4293134" lon="8.6128124"><ele>206.0</ele><time>2026-04-30T18:54:21.719Z</time></trkpt><trkpt lat="34.4294042" lon="8.6129766"><ele>206.0</ele><time>2026-04-30T18:54:22.689Z</time></trkpt><trkpt lat="34.4294942" lon="8.613144"><ele>206.0</ele><time>2026-04-30T18:54:23.71Z</time></trkpt><trkpt lat="34.429587" lon="8.6133098"><ele>206.0</ele><time>2026-04-30T18:54:24.724Z</time></trkpt><trkpt lat="34.429682" lon="8.6134798"><ele>207.0</ele><time>2026-04-30T18:54:25.68Z</time></trkpt><trkpt lat="34.4297788" lon="8.6136464"><ele>208.0</ele><time>2026-04-30T18:54:26.703Z</time></trkpt><trkpt lat="34.4298728" lon="8.6138161"><ele>209.0</ele><time>2026-04-30T18:54:27.705Z</time></trkpt><trkpt lat="34.4299636" lon="8.6139843"><ele>209.0</ele><time>2026-04-30T18:54:28.719Z</time></trkpt><trkpt lat="34.4300514" lon="8.6141556"><ele>209.0</ele><time>2026-04-30T18:54:29.738Z</time></trkpt><trkpt lat="34.4301442" lon="8.6143192"><ele>209.0</ele><time>2026-04-30T18:54:30.73Z</time></trkpt><trkpt lat="34.4302346" lon="8.6144846"><ele>209.33333333333334</ele><time>2026-04-30T18:54:31.728Z</time></trkpt><trkpt lat="34.4303244" lon="8.6146492"><ele>209.66666666666669</ele><time>2026-04-30T18:54:32.736Z</time></trkpt><trkpt lat="34.4304157" lon="8.6148168"><ele>210.0</ele><time>2026-04-30T18:54:33.709Z</time></trkpt><trkpt lat="34.4305073" lon="8.6149814"><ele>210.0</ele><time>2026-04-30T18:54:34.709Z</time></trkpt><trkpt lat="34.4305941" lon="8.6151453"><ele>210.0</ele><time>2026-04-30T18:54:35.709Z</time></trkpt><trkpt lat="34.4306851" lon="8.6153134"><ele>210.0</ele><time>2026-04-30T18:54:36.734Z</time></trkpt><trkpt lat="34.43078" lon="8.615487"><ele>210.0</ele><time>2026-04-30T18:54:37.734Z</time></trkpt><trkpt lat="34.4308762" lon="8.6156628"><ele>210.0</ele><time>2026-04-30T18:54:38.685Z</time></trkpt><trkpt lat="34.430979" lon="8.6158376"><ele>210.0</ele><time>2026-04-30T18:54:39.728Z</time></trkpt><trkpt lat="34.431078" lon="8.6160161"><ele>210.33333333333331</ele><time>2026-04-30T18:54:40.71Z</time></trkpt><trkpt lat="34.4311743" lon="8.6161932"><ele>210.66666666666666</ele><time>2026-04-30T18:54:41.701Z</time></trkpt><trkpt lat="34.4312718" lon="8.6163691"><ele>211.0</ele><time>2026-04-30T18:54:42.727Z</time></trkpt><trkpt lat="34.4313667" lon="8.6165477"><ele>209.66666666666666</ele><time>2026-04-30T18:54:43.714Z</time></trkpt><trkpt lat="34.4314644" lon="8.6167236"><ele>208.33333333333331</ele><time>2026-04-30T18:54:44.701Z</time></trkpt><trkpt lat="34.4315614" lon="8.6168995"><ele>207.0</ele><time>2026-04-30T18:54:45.698Z</time></trkpt><trkpt lat="34.4316591" lon="8.6170742"><ele>206.66666666666669</ele><time>2026-04-30T18:54:46.701Z</time></trkpt><trkpt lat="34.4317577" lon="8.6172526"><ele>206.33333333333334</ele><time>2026-04-30T18:54:47.717Z</time></trkpt><trkpt lat="34.431862" lon="8.617427"><ele>206.0</ele><time>2026-04-30T18:54:48.706Z</time></trkpt><trkpt lat="34.4319599" lon="8.6176054"><ele>206.0</ele><time>2026-04-30T18:54:49.71Z</time></trkpt><trkpt lat="34.4320582" lon="8.6177797"><ele>206.0</ele><time>2026-04-30T18:54:50.722Z</time></trkpt><trkpt lat="34.4321577" lon="8.6179582"><ele>206.0</ele><time>2026-04-30T18:54:51.678Z</time></trkpt><trkpt lat="34.4322592" lon="8.6181371"><ele>206.66666666666669</ele><time>2026-04-30T18:54:52.675Z</time></trkpt><trkpt lat="34.4323624" lon="8.618313"><ele>207.33333333333331</ele><time>2026-04-30T18:54:53.698Z</time></trkpt><trkpt lat="34.4324661" lon="8.618488"><ele>208.0</ele><time>2026-04-30T18:54:54.728Z</time></trkpt><trkpt lat="34.4325686" lon="8.6186604"><ele>208.0</ele><time>2026-04-30T18:54:55.738Z</time></trkpt><trkpt lat="34.4326698" lon="8.6188328"><ele>208.0</ele><time>2026-04-30T18:54:56.715Z</time></trkpt><trkpt lat="34.4327706" lon="8.6190032"><ele>208.0</ele><time>2026-04-30T18:54:57.702Z</time></trkpt><trkpt lat="34.4328696" lon="8.619176"><ele>208.0</ele><time>2026-04-30T18:54:58.716Z</time></trkpt><trkpt lat="34.4329687" lon="8.619345"><ele>208.0</ele><time>2026-04-30T18:54:59.719Z</time></trkpt><trkpt lat="34.4330698" lon="8.6195184"><ele>208.0</ele><time>2026-04-30T18:55:00.707Z</time></trkpt><trkpt lat="34.4331723" lon="8.6196922"><ele>208.0</ele><time>2026-04-30T18:55:01.729Z</time></trkpt><trkpt lat="34.4332743" lon="8.6198652"><ele>208.0</ele><time>2026-04-30T18:55:02.73Z</time></trkpt><trkpt lat="34.4333777" lon="8.6200342"><ele>208.0</ele><time>2026-04-30T18:55:03.72Z</time></trkpt><trkpt lat="34.4334812" lon="8.6202064"><ele>207.33333333333331</ele><time>2026-04-30T18:55:04.734Z</time></trkpt><trkpt lat="34.4335836" lon="8.6203816"><ele>206.66666666666669</ele><time>2026-04-30T18:55:05.733Z</time></trkpt><trkpt lat="34.4336867" lon="8.6205584"><ele>206.0</ele><time>2026-04-30T18:55:06.707Z</time></trkpt><trkpt lat="34.4337895" lon="8.6207339"><ele>206.0</ele><time>2026-04-30T18:55:07.71Z</time></trkpt><trkpt lat="34.4338914" lon="8.6209066"><ele>206.0</ele><time>2026-04-30T18:55:08.76Z</time></trkpt><trkpt lat="34.4339971" lon="8.6210783"><ele>206.0</ele><time>2026-04-30T18:55:09.727Z</time></trkpt><trkpt lat="34.4341013" lon="8.6212502"><ele>206.0</ele><time>2026-04-30T18:55:10.719Z</time></trkpt><trkpt lat="34.434208" lon="8.621428"><ele>206.0</ele><time>2026-04-30T18:55:11.707Z</time></trkpt><trkpt lat="34.434314" lon="8.6216057"><ele>206.0</ele><time>2026-04-30T18:55:12.73Z</time></trkpt><trkpt lat="34.4344213" lon="8.6217866"><ele>206.0</ele><time>2026-04-30T18:55:13.737Z</time></trkpt><trkpt lat="34.434529" lon="8.6219663"><ele>206.0</ele><time>2026-04-30T18:55:14.709Z</time></trkpt><trkpt lat="34.4346401" lon="8.6221469"><ele>206.0</ele><time>2026-04-30T18:55:15.726Z</time></trkpt><trkpt lat="34.4347474" lon="8.6223282"><ele>206.0</ele><time>2026-04-30T18:55:16.727Z</time></trkpt><trkpt lat="34.4348597" lon="8.62251"><ele>206.0</ele><time>2026-04-30T18:55:17.722Z</time></trkpt><trkpt lat="34.4349691" lon="8.622689"><ele>206.0</ele><time>2026-04-30T18:55:18.725Z</time></trkpt><trkpt lat="34.4350805" lon="8.6228706"><ele>205.33333333333334</ele><time>2026-04-30T18:55:19.717Z</time></trkpt><trkpt lat="34.4351899" lon="8.6230528"><ele>204.66666666666669</ele><time>2026-04-30T18:55:20.704Z</time></trkpt><trkpt lat="34.4352962" lon="8.6232338"><ele>204.0</ele><time>2026-04-30T18:55:21.74Z</time></trkpt><trkpt lat="34.4354079" lon="8.623415"><ele>204.33333333333331</ele><time>2026-04-30T18:55:22.729Z</time></trkpt><trkpt lat="34.4355192" lon="8.6236017"><ele>204.66666666666666</ele><time>2026-04-30T18:55:23.722Z</time></trkpt><trkpt lat="34.4356286" lon="8.6237875"><ele>205.0</ele><time>2026-04-30T18:55:24.73Z</time></trkpt><trkpt lat="34.4357421" lon="8.6239818"><ele>205.33333333333331</ele><time>2026-04-30T18:55:25.705Z</time></trkpt><trkpt lat="34.4358542" lon="8.6241703"><ele>205.66666666666669</ele><time>2026-04-30T18:55:26.736Z</time></trkpt><trkpt lat="34.4359678" lon="8.6243607"><ele>206.0</ele><time>2026-04-30T18:55:27.718Z</time></trkpt><trkpt lat="34.4360871" lon="8.6245543"><ele>205.66666666666669</ele><time>2026-04-30T18:55:28.733Z</time></trkpt><trkpt lat="34.4362047" lon="8.6247483"><ele>205.33333333333331</ele><time>2026-04-30T18:55:29.732Z</time></trkpt><trkpt lat="34.4363269" lon="8.624944"><ele>205.0</ele><time>2026-04-30T18:55:30.72Z</time></trkpt><trkpt lat="34.4364517" lon="8.6251414"><ele>205.0</ele><time>2026-04-30T18:55:31.685Z</time></trkpt><trkpt lat="34.4365785" lon="8.6253418"><ele>205.0</ele><time>2026-04-30T18:55:32.734Z</time></trkpt><trkpt lat="34.4367023" lon="8.6255428"><ele>205.0</ele><time>2026-04-30T18:55:33.709Z</time></trkpt><trkpt lat="34.4368266" lon="8.6257479"><ele>205.0</ele><time>2026-04-30T18:55:34.723Z</time></trkpt><trkpt lat="34.4369487" lon="8.6259516"><ele>205.0</ele><time>2026-04-30T18:55:35.705Z</time></trkpt><trkpt lat="34.4370704" lon="8.6261534"><ele>205.0</ele><time>2026-04-30T18:55:36.736Z</time></trkpt><trkpt lat="34.4371909" lon="8.6263552"><ele>204.66666666666666</ele><time>2026-04-30T18:55:37.722Z</time></trkpt><trkpt lat="34.4373102" lon="8.626558"><ele>204.33333333333331</ele><time>2026-04-30T18:55:38.703Z</time></trkpt><trkpt lat="34.4374296" lon="8.6267564"><ele>204.0</ele><time>2026-04-30T18:55:39.703Z</time></trkpt><trkpt lat="34.4375479" lon="8.6269537"><ele>203.33333333333331</ele><time>2026-04-30T18:55:40.714Z</time></trkpt><trkpt lat="34.4376677" lon="8.6271454"><ele>202.66666666666666</ele><time>2026-04-30T18:55:41.738Z</time></trkpt><trkpt lat="34.4377825" lon="8.6273349"><ele>202.0</ele><time>2026-04-30T18:55:42.693Z</time></trkpt><trkpt lat="34.4378976" lon="8.6275208"><ele>202.33333333333331</ele><time>2026-04-30T18:55:43.722Z</time></trkpt><trkpt lat="34.4380139" lon="8.627706"><ele>202.66666666666669</ele><time>2026-04-30T18:55:44.691Z</time></trkpt><trkpt lat="34.438123" lon="8.6278931"><ele>203.0</ele><time>2026-04-30T18:55:45.698Z</time></trkpt><trkpt lat="34.4382358" lon="8.6280782"><ele>203.0</ele><time>2026-04-30T18:55:46.719Z</time></trkpt><trkpt lat="34.4383473" lon="8.6282632"><ele>203.0</ele><time>2026-04-30T18:55:47.705Z</time></trkpt><trkpt lat="34.4384611" lon="8.6284481"><ele>203.0</ele><time>2026-04-30T18:55:48.726Z</time></trkpt><trkpt lat="34.4385705" lon="8.6286293"><ele>202.66666666666669</ele><time>2026-04-30T18:55:49.723Z</time></trkpt><trkpt lat="34.438683" lon="8.6288035"><ele>202.33333333333331</ele><time>2026-04-30T18:55:50.737Z</time></trkpt><trkpt lat="34.4387893" lon="8.6289801"><ele>202.0</ele><time>2026-04-30T18:55:51.715Z</time></trkpt><trkpt lat="34.4388932" lon="8.6291568"><ele>202.0</ele><time>2026-04-30T18:55:52.705Z</time></trkpt><trkpt lat="34.4390002" lon="8.6293231"><ele>202.0</ele><time>2026-04-30T18:55:53.73Z</time></trkpt><trkpt lat="34.4391022" lon="8.629486"><ele>202.0</ele><time>2026-04-30T18:55:54.678Z</time></trkpt><trkpt lat="34.4391991" lon="8.6296444"><ele>202.25</ele><time>2026-04-30T18:55:55.713Z</time></trkpt><trkpt lat="34.4392891" lon="8.629798"><ele>202.5</ele><time>2026-04-30T18:55:56.728Z</time></trkpt><trkpt lat="34.4393739" lon="8.6299409"><ele>202.75</ele><time>2026-04-30T18:55:57.737Z</time></trkpt><trkpt lat="34.4394611" lon="8.6300643"><ele>203.0</ele><time>2026-04-30T18:55:58.723Z</time></trkpt><trkpt lat="34.4395237" lon="8.6301668"><ele>203.0</ele><time>2026-04-30T18:55:59.701Z</time></trkpt><trkpt lat="34.4395681" lon="8.630246"><ele>203.0</ele><time>2026-04-30T18:56:00.726Z</time></trkpt><trkpt lat="34.4396113" lon="8.6303143"><ele>203.0</ele><time>2026-04-30T18:56:01.712Z</time></trkpt><trkpt lat="34.4396529" lon="8.6303777"><ele>203.0</ele><time>2026-04-30T18:56:02.734Z</time></trkpt><trkpt lat="34.439693" lon="8.630442"><ele>203.0</ele><time>2026-04-30T18:56:03.724Z</time></trkpt><trkpt lat="34.4397316" lon="8.6305154"><ele>203.0</ele><time>2026-04-30T18:56:04.703Z</time></trkpt><trkpt lat="34.4397838" lon="8.6305944"><ele>203.0</ele><time>2026-04-30T18:56:05.717Z</time></trkpt><trkpt lat="34.4398443" lon="8.6306898"><ele>202.4</ele><time>2026-04-30T18:56:06.735Z</time></trkpt><trkpt lat="34.4399084" lon="8.6307928"><ele>201.8</ele><time>2026-04-30T18:56:07.699Z</time></trkpt><trkpt lat="34.4399699" lon="8.6309003"><ele>201.2</ele><time>2026-04-30T18:56:08.727Z</time></trkpt><trkpt lat="34.4400287" lon="8.6310034"><ele>200.6</ele><time>2026-04-30T18:56:09.725Z</time></trkpt><trkpt lat="34.4400885" lon="8.6310953"><ele>200.0</ele><time>2026-04-30T18:56:10.73Z</time></trkpt><trkpt lat="34.4401427" lon="8.6311761"><ele>200.00000000000003</ele><time>2026-04-30T18:56:11.727Z</time></trkpt><trkpt lat="34.44019" lon="8.6312496"><ele>200.0</ele><time>2026-04-30T18:56:12.729Z</time></trkpt><trkpt lat="34.4402322" lon="8.6313236"><ele>200.0</ele><time>2026-04-30T18:56:13.728Z</time></trkpt><trkpt lat="34.440271" lon="8.6313905"><ele>200.0</ele><time>2026-04-30T18:56:14.715Z</time></trkpt><trkpt lat="34.4403139" lon="8.6314666"><ele>200.00000000000003</ele><time>2026-04-30T18:56:15.733Z</time></trkpt><trkpt lat="34.4403726" lon="8.6315623"><ele>200.0</ele><time>2026-04-30T18:56:16.686Z</time></trkpt><trkpt lat="34.4404434" lon="8.6316714"><ele>200.25</ele><time>2026-04-30T18:56:17.722Z</time></trkpt><trkpt lat="34.4405191" lon="8.6317916"><ele>200.5</ele><time>2026-04-30T18:56:18.669Z</time></trkpt><trkpt lat="34.4405914" lon="8.6319198"><ele>200.75</ele><time>2026-04-30T18:56:19.708Z</time></trkpt><trkpt lat="34.4406697" lon="8.6320462"><ele>201.0</ele><time>2026-04-30T18:56:20.723Z</time></trkpt><trkpt lat="34.4407596" lon="8.632188"><ele>199.66666666666669</ele><time>2026-04-30T18:56:21.719Z</time></trkpt><trkpt lat="34.4408484" lon="8.6323311"><ele>198.33333333333334</ele><time>2026-04-30T18:56:22.677Z</time></trkpt><trkpt lat="34.4409409" lon="8.6324784"><ele>197.0</ele><time>2026-04-30T18:56:23.717Z</time></trkpt><trkpt lat="34.4410349" lon="8.6326354"><ele>197.0</ele><time>2026-04-30T18:56:24.702Z</time></trkpt><trkpt lat="34.441127" lon="8.6327912"><ele>197.0</ele><time>2026-04-30T18:56:25.725Z</time></trkpt><trkpt lat="34.4412242" lon="8.6329475"><ele>197.0</ele><time>2026-04-30T18:56:26.72Z</time></trkpt><trkpt lat="34.4413227" lon="8.6331012"><ele>197.33333333333334</ele><time>2026-04-30T18:56:27.722Z</time></trkpt><trkpt lat="34.4414253" lon="8.6332612"><ele>197.66666666666669</ele><time>2026-04-30T18:56:28.712Z</time></trkpt><trkpt lat="34.4415281" lon="8.6334171"><ele>198.0</ele><time>2026-04-30T18:56:29.723Z</time></trkpt><trkpt lat="34.4416279" lon="8.6335772"><ele>197.33333333333331</ele><time>2026-04-30T18:56:30.722Z</time></trkpt><trkpt lat="34.441728" lon="8.6337409"><ele>196.66666666666666</ele><time>2026-04-30T18:56:31.733Z</time></trkpt><trkpt lat="34.4418278" lon="8.6339006"><ele>196.0</ele><time>2026-04-30T18:56:32.72Z</time></trkpt><trkpt lat="34.44193" lon="8.6340596"><ele>196.0</ele><time>2026-04-30T18:56:33.701Z</time></trkpt><trkpt lat="34.4420304" lon="8.6342213"><ele>196.0</ele><time>2026-04-30T18:56:34.729Z</time></trkpt><trkpt lat="34.4421295" lon="8.6343822"><ele>196.0</ele><time>2026-04-30T18:56:35.735Z</time></trkpt><trkpt lat="34.4422299" lon="8.634543"><ele>197.0</ele><time>2026-04-30T18:56:36.705Z</time></trkpt><trkpt lat="34.4423302" lon="8.6347027"><ele>198.0</ele><time>2026-04-30T18:56:37.712Z</time></trkpt><trkpt lat="34.4424262" lon="8.6348568"><ele>199.0</ele><time>2026-04-30T18:56:38.695Z</time></trkpt><trkpt lat="34.4425248" lon="8.6350027"><ele>199.0</ele><time>2026-04-30T18:56:39.724Z</time></trkpt><trkpt lat="34.442627" lon="8.635156"><ele>199.0</ele><time>2026-04-30T18:56:40.697Z</time></trkpt><trkpt lat="34.4427288" lon="8.6353108"><ele>199.0</ele><time>2026-04-30T18:56:41.726Z</time></trkpt><trkpt lat="34.442829" lon="8.6354651"><ele>198.0</ele><time>2026-04-30T18:56:42.712Z</time></trkpt><trkpt lat="34.4429269" lon="8.6356181"><ele>197.0</ele><time>2026-04-30T18:56:43.695Z</time></trkpt><trkpt lat="34.4430241" lon="8.6357719"><ele>196.0</ele><time>2026-04-30T18:56:44.714Z</time></trkpt><trkpt lat="34.443124" lon="8.6359277"><ele>196.0</ele><time>2026-04-30T18:56:45.69Z</time></trkpt><trkpt lat="34.4432227" lon="8.6360871"><ele>196.0</ele><time>2026-04-30T18:56:46.711Z</time></trkpt><trkpt lat="34.4433215" lon="8.6362492"><ele>196.0</ele><time>2026-04-30T18:56:47.714Z</time></trkpt><trkpt lat="34.4434247" lon="8.636408"><ele>195.33333333333331</ele><time>2026-04-30T18:56:48.716Z</time></trkpt><trkpt lat="34.4435202" lon="8.6365769"><ele>194.66666666666669</ele><time>2026-04-30T18:56:49.709Z</time></trkpt><trkpt lat="34.4436109" lon="8.6367496"><ele>194.0</ele><time>2026-04-30T18:56:50.712Z</time></trkpt><trkpt lat="34.4436953" lon="8.6369285"><ele>194.33333333333334</ele><time>2026-04-30T18:56:51.713Z</time></trkpt><trkpt lat="34.4437667" lon="8.6371154"><ele>194.66666666666669</ele><time>2026-04-30T18:56:52.706Z</time></trkpt><trkpt lat="34.4438308" lon="8.6373114"><ele>195.0</ele><time>2026-04-30T18:56:53.734Z</time></trkpt><trkpt lat="34.443889" lon="8.6375176"><ele>195.33333333333331</ele><time>2026-04-30T18:56:54.703Z</time></trkpt><trkpt lat="34.4439389" lon="8.6377273"><ele>195.66666666666666</ele><time>2026-04-30T18:56:55.684Z</time></trkpt><trkpt lat="34.4439739" lon="8.6379572"><ele>196.0</ele><time>2026-04-30T18:56:56.698Z</time></trkpt><trkpt lat="34.4440018" lon="8.6381951"><ele>196.0</ele><time>2026-04-30T18:56:57.724Z</time></trkpt><trkpt lat="34.4440179" lon="8.63845"><ele>196.0</ele><time>2026-04-30T18:56:58.716Z</time></trkpt><trkpt lat="34.4440233" lon="8.638707"><ele>196.0</ele><time>2026-04-30T18:56:59.721Z</time></trkpt><trkpt lat="34.4440274" lon="8.6389564"><ele>195.66666666666666</ele><time>2026-04-30T18:57:00.723Z</time></trkpt><trkpt lat="34.4440278" lon="8.6391966"><ele>195.33333333333331</ele><time>2026-04-30T18:57:01.723Z</time></trkpt><trkpt lat="34.4440248" lon="8.6394301"><ele>195.0</ele><time>2026-04-30T18:57:02.716Z</time></trkpt><trkpt lat="34.4440255" lon="8.6396626"><ele>195.0</ele><time>2026-04-30T18:57:03.726Z</time></trkpt><trkpt lat="34.4440285" lon="8.6398894"><ele>195.0</ele><time>2026-04-30T18:57:04.71Z</time></trkpt><trkpt lat="34.4440313" lon="8.6401205"><ele>195.0</ele><time>2026-04-30T18:57:05.703Z</time></trkpt><trkpt lat="34.4440357" lon="8.6403474"><ele>195.0</ele><time>2026-04-30T18:57:06.712Z</time></trkpt><trkpt lat="34.4440417" lon="8.6405748"><ele>195.0</ele><time>2026-04-30T18:57:07.726Z</time></trkpt><trkpt lat="34.4440456" lon="8.6408038"><ele>195.0</ele><time>2026-04-30T18:57:08.729Z</time></trkpt><trkpt lat="34.4440543" lon="8.6410339"><ele>195.33333333333331</ele><time>2026-04-30T18:57:09.7Z</time></trkpt><trkpt lat="34.4440654" lon="8.6412688"><ele>195.66666666666666</ele><time>2026-04-30T18:57:10.715Z</time></trkpt><trkpt lat="34.4440751" lon="8.6415036"><ele>196.0</ele><time>2026-04-30T18:57:11.71Z</time></trkpt><trkpt lat="34.444083" lon="8.6417418"><ele>196.0</ele><time>2026-04-30T18:57:12.71Z</time></trkpt><trkpt lat="34.4440931" lon="8.64198"><ele>196.0</ele><time>2026-04-30T18:57:13.692Z</time></trkpt><trkpt lat="34.4441046" lon="8.6422177"><ele>196.0</ele><time>2026-04-30T18:57:14.703Z</time></trkpt><trkpt lat="34.444113" lon="8.6424571"><ele>196.0</ele><time>2026-04-30T18:57:15.722Z</time></trkpt><trkpt lat="34.4441215" lon="8.6426951"><ele>196.0</ele><time>2026-04-30T18:57:16.722Z</time></trkpt><trkpt lat="34.4441291" lon="8.6429335"><ele>196.0</ele><time>2026-04-30T18:57:17.729Z</time></trkpt><trkpt lat="34.4441392" lon="8.6431813"><ele>196.0</ele><time>2026-04-30T18:57:18.729Z</time></trkpt><trkpt lat="34.4441537" lon="8.6434222"><ele>196.0</ele><time>2026-04-30T18:57:19.699Z</time></trkpt><trkpt lat="34.4441638" lon="8.6436651"><ele>196.0</ele><time>2026-04-30T18:57:20.744Z</time></trkpt><trkpt lat="34.4441751" lon="8.6439086"><ele>196.0</ele><time>2026-04-30T18:57:21.728Z</time></trkpt><trkpt lat="34.4441876" lon="8.6441567"><ele>196.0</ele><time>2026-04-30T18:57:22.722Z</time></trkpt><trkpt lat="34.4442021" lon="8.6444133"><ele>196.0</ele><time>2026-04-30T18:57:23.723Z</time></trkpt><trkpt lat="34.4442184" lon="8.6446718"><ele>196.33333333333331</ele><time>2026-04-30T18:57:24.722Z</time></trkpt><trkpt lat="34.4442313" lon="8.6449327"><ele>196.66666666666669</ele><time>2026-04-30T18:57:25.732Z</time></trkpt><trkpt lat="34.4442437" lon="8.6451954"><ele>197.0</ele><time>2026-04-30T18:57:26.703Z</time></trkpt><trkpt lat="34.4442531" lon="8.6454507"><ele>197.0</ele><time>2026-04-30T18:57:27.731Z</time></trkpt><trkpt lat="34.4442686" lon="8.6457061"><ele>197.0</ele><time>2026-04-30T18:57:28.722Z</time></trkpt><trkpt lat="34.4442841" lon="8.6459603"><ele>197.0</ele><time>2026-04-30T18:57:29.723Z</time></trkpt><trkpt lat="34.4442985" lon="8.6462153"><ele>197.0</ele><time>2026-04-30T18:57:30.717Z</time></trkpt><trkpt lat="34.444316" lon="8.6464707"><ele>197.0</ele><time>2026-04-30T18:57:31.722Z</time></trkpt><trkpt lat="34.4443346" lon="8.6467244"><ele>197.0</ele><time>2026-04-30T18:57:32.693Z</time></trkpt><trkpt lat="34.4443481" lon="8.6469756"><ele>197.33333333333334</ele><time>2026-04-30T18:57:33.714Z</time></trkpt><trkpt lat="34.4443598" lon="8.6472279"><ele>197.66666666666669</ele><time>2026-04-30T18:57:34.733Z</time></trkpt><trkpt lat="34.4443747" lon="8.6474827"><ele>198.0</ele><time>2026-04-30T18:57:35.728Z</time></trkpt><trkpt lat="34.4443874" lon="8.6477286"><ele>198.33333333333331</ele><time>2026-04-30T18:57:36.725Z</time></trkpt><trkpt lat="34.4443991" lon="8.6479781"><ele>198.66666666666666</ele><time>2026-04-30T18:57:37.732Z</time></trkpt><trkpt lat="34.4444171" lon="8.6482298"><ele>199.0</ele><time>2026-04-30T18:57:38.73Z</time></trkpt><trkpt lat="34.4444344" lon="8.6484878"><ele>199.0</ele><time>2026-04-30T18:57:39.719Z</time></trkpt><trkpt lat="34.4444506" lon="8.6487437"><ele>199.0</ele><time>2026-04-30T18:57:40.727Z</time></trkpt><trkpt lat="34.4444674" lon="8.6489957"><ele>199.0</ele><time>2026-04-30T18:57:41.722Z</time></trkpt><trkpt lat="34.4444863" lon="8.6492487"><ele>199.66666666666666</ele><time>2026-04-30T18:57:42.734Z</time></trkpt><trkpt lat="34.4445028" lon="8.6494975"><ele>200.33333333333331</ele><time>2026-04-30T18:57:43.699Z</time></trkpt><trkpt lat="34.4445183" lon="8.6497481"><ele>201.0</ele><time>2026-04-30T18:57:44.73Z</time></trkpt><trkpt lat="34.4445366" lon="8.6499988"><ele>201.0</ele><time>2026-04-30T18:57:45.73Z</time></trkpt><trkpt lat="34.444556" lon="8.6502501"><ele>201.0</ele><time>2026-04-30T18:57:46.7Z</time></trkpt><trkpt lat="34.4445729" lon="8.6504985"><ele>201.0</ele><time>2026-04-30T18:57:47.725Z</time></trkpt><trkpt lat="34.444589" lon="8.6507484"><ele>201.0</ele><time>2026-04-30T18:57:48.744Z</time></trkpt><trkpt lat="34.4446016" lon="8.6509916"><ele>201.0</ele><time>2026-04-30T18:57:49.727Z</time></trkpt><trkpt lat="34.4446157" lon="8.6512384"><ele>201.0</ele><time>2026-04-30T18:57:50.734Z</time></trkpt><trkpt lat="34.4446319" lon="8.6514849"><ele>201.0</ele><time>2026-04-30T18:57:51.701Z</time></trkpt><trkpt lat="34.444644" lon="8.6517274"><ele>201.0</ele><time>2026-04-30T18:57:52.725Z</time></trkpt><trkpt lat="34.4446599" lon="8.6519723"><ele>201.0</ele><time>2026-04-30T18:57:53.698Z</time></trkpt><trkpt lat="34.4446719" lon="8.6522164"><ele>201.33333333333331</ele><time>2026-04-30T18:57:54.728Z</time></trkpt><trkpt lat="34.444691" lon="8.6524591"><ele>201.66666666666666</ele><time>2026-04-30T18:57:55.718Z</time></trkpt><trkpt lat="34.4447068" lon="8.6527008"><ele>202.0</ele><time>2026-04-30T18:57:56.718Z</time></trkpt><trkpt lat="34.44472" lon="8.6529463"><ele>202.66666666666666</ele><time>2026-04-30T18:57:57.716Z</time></trkpt><trkpt lat="34.4447326" lon="8.6531937"><ele>203.33333333333331</ele><time>2026-04-30T18:57:58.715Z</time></trkpt><trkpt lat="34.4447484" lon="8.6534398"><ele>204.0</ele><time>2026-04-30T18:57:59.698Z</time></trkpt><trkpt lat="34.4447666" lon="8.6536845"><ele>204.33333333333331</ele><time>2026-04-30T18:58:00.712Z</time></trkpt><trkpt lat="34.4447804" lon="8.6539283"><ele>204.66666666666666</ele><time>2026-04-30T18:58:01.721Z</time></trkpt><trkpt lat="34.4447934" lon="8.6541657"><ele>205.0</ele><time>2026-04-30T18:58:02.692Z</time></trkpt><trkpt lat="34.4448111" lon="8.6544025"><ele>204.66666666666666</ele><time>2026-04-30T18:58:03.717Z</time></trkpt><trkpt lat="34.4448271" lon="8.6546394"><ele>204.33333333333331</ele><time>2026-04-30T18:58:04.728Z</time></trkpt><trkpt lat="34.4448397" lon="8.65487"><ele>204.0</ele><time>2026-04-30T18:58:05.741Z</time></trkpt><trkpt lat="34.4448551" lon="8.6551001"><ele>204.33333333333331</ele><time>2026-04-30T18:58:06.733Z</time></trkpt><trkpt lat="34.4448736" lon="8.6553314"><ele>204.66666666666666</ele><time>2026-04-30T18:58:07.739Z</time></trkpt><trkpt lat="34.4448927" lon="8.6555587"><ele>205.0</ele><time>2026-04-30T18:58:08.717Z</time></trkpt><trkpt lat="34.4449145" lon="8.6557865"><ele>205.0</ele><time>2026-04-30T18:58:09.728Z</time></trkpt><trkpt lat="34.4449334" lon="8.656018"><ele>205.0</ele><time>2026-04-30T18:58:10.683Z</time></trkpt><trkpt lat="34.44495" lon="8.6562471"><ele>205.0</ele><time>2026-04-30T18:58:11.727Z</time></trkpt><trkpt lat="34.4449664" lon="8.6564764"><ele>204.33333333333331</ele><time>2026-04-30T18:58:12.704Z</time></trkpt><trkpt lat="34.4449814" lon="8.6566982"><ele>203.66666666666669</ele><time>2026-04-30T18:58:13.727Z</time></trkpt><trkpt lat="34.4449972" lon="8.6569283"><ele>203.0</ele><time>2026-04-30T18:58:14.722Z</time></trkpt><trkpt lat="34.44502" lon="8.6571614"><ele>203.0</ele><time>2026-04-30T18:58:15.721Z</time></trkpt><trkpt lat="34.445039" lon="8.6573927"><ele>203.0</ele><time>2026-04-30T18:58:16.704Z</time></trkpt><trkpt lat="34.4450568" lon="8.6576232"><ele>203.0</ele><time>2026-04-30T18:58:17.68Z</time></trkpt><trkpt lat="34.4450741" lon="8.6578565"><ele>203.33333333333334</ele><time>2026-04-30T18:58:18.731Z</time></trkpt><trkpt lat="34.4450907" lon="8.6580916"><ele>203.66666666666669</ele><time>2026-04-30T18:58:19.713Z</time></trkpt><trkpt lat="34.4451095" lon="8.6583253"><ele>204.0</ele><time>2026-04-30T18:58:20.701Z</time></trkpt><trkpt lat="34.4451256" lon="8.6585574"><ele>204.0</ele><time>2026-04-30T18:58:21.712Z</time></trkpt><trkpt lat="34.4451435" lon="8.6587903"><ele>204.0</ele><time>2026-04-30T18:58:22.72Z</time></trkpt><trkpt lat="34.4451651" lon="8.6590185"><ele>204.0</ele><time>2026-04-30T18:58:23.734Z</time></trkpt><trkpt lat="34.4451865" lon="8.6592524"><ele>203.66666666666669</ele><time>2026-04-30T18:58:24.724Z</time></trkpt><trkpt lat="34.4452052" lon="8.6594833"><ele>203.33333333333334</ele><time>2026-04-30T18:58:25.729Z</time></trkpt><trkpt lat="34.4452268" lon="8.659714"><ele>203.0</ele><time>2026-04-30T18:58:26.711Z</time></trkpt><trkpt lat="34.4452442" lon="8.6599461"><ele>203.0</ele><time>2026-04-30T18:58:27.706Z</time></trkpt><trkpt lat="34.4452621" lon="8.6601807"><ele>203.0</ele><time>2026-04-30T18:58:28.718Z</time></trkpt><trkpt lat="34.4452824" lon="8.6604171"><ele>203.0</ele><time>2026-04-30T18:58:29.709Z</time></trkpt><trkpt lat="34.4453009" lon="8.6606474"><ele>203.0</ele><time>2026-04-30T18:58:30.694Z</time></trkpt><trkpt lat="34.4453224" lon="8.6608852"><ele>203.0</ele><time>2026-04-30T18:58:31.712Z</time></trkpt><trkpt lat="34.4453457" lon="8.6611174"><ele>203.0</ele><time>2026-04-30T18:58:32.7Z</time></trkpt><trkpt lat="34.4453655" lon="8.6613503"><ele>203.66666666666669</ele><time>2026-04-30T18:58:33.722Z</time></trkpt><trkpt lat="34.4453854" lon="8.6615872"><ele>204.33333333333331</ele><time>2026-04-30T18:58:34.722Z</time></trkpt><trkpt lat="34.4454069" lon="8.6618191"><ele>205.0</ele><time>2026-04-30T18:58:35.7Z</time></trkpt><trkpt lat="34.4454296" lon="8.6620494"><ele>205.0</ele><time>2026-04-30T18:58:36.727Z</time></trkpt><trkpt lat="34.4454527" lon="8.6622789"><ele>205.0</ele><time>2026-04-30T18:58:37.7Z</time></trkpt><trkpt lat="34.4454731" lon="8.6625078"><ele>205.0</ele><time>2026-04-30T18:58:38.721Z</time></trkpt><trkpt lat="34.4454912" lon="8.6627354"><ele>205.33333333333331</ele><time>2026-04-30T18:58:39.725Z</time></trkpt><trkpt lat="34.4455077" lon="8.66296"><ele>205.66666666666669</ele><time>2026-04-30T18:58:40.728Z</time></trkpt><trkpt lat="34.4455278" lon="8.6631844"><ele>206.0</ele><time>2026-04-30T18:58:41.716Z</time></trkpt><trkpt lat="34.4455486" lon="8.6634056"><ele>206.0</ele><time>2026-04-30T18:58:42.715Z</time></trkpt><trkpt lat="34.4455676" lon="8.6636286"><ele>206.0</ele><time>2026-04-30T18:58:43.719Z</time></trkpt><trkpt lat="34.445589" lon="8.6638494"><ele>206.0</ele><time>2026-04-30T18:58:44.728Z</time></trkpt><trkpt lat="34.4456134" lon="8.6640727"><ele>206.0</ele><time>2026-04-30T18:58:45.729Z</time></trkpt><trkpt lat="34.4456317" lon="8.6642985"><ele>206.0</ele><time>2026-04-30T18:58:46.697Z</time></trkpt><trkpt lat="34.4456517" lon="8.664521"><ele>206.0</ele><time>2026-04-30T18:58:47.736Z</time></trkpt><trkpt lat="34.445673" lon="8.6647328"><ele>206.0</ele><time>2026-04-30T18:58:48.715Z</time></trkpt><trkpt lat="34.4456926" lon="8.6649489"><ele>206.0</ele><time>2026-04-30T18:58:49.721Z</time></trkpt><trkpt lat="34.4457149" lon="8.6651679"><ele>206.0</ele><time>2026-04-30T18:58:50.702Z</time></trkpt><trkpt lat="34.4457371" lon="8.6653848"><ele>206.0</ele><time>2026-04-30T18:58:51.716Z</time></trkpt><trkpt lat="34.4457594" lon="8.6656072"><ele>206.0</ele><time>2026-04-30T18:58:52.726Z</time></trkpt><trkpt lat="34.4457855" lon="8.6658359"><ele>206.0</ele><time>2026-04-30T18:58:53.735Z</time></trkpt><trkpt lat="34.4458086" lon="8.6660644"><ele>206.33333333333334</ele><time>2026-04-30T18:58:54.705Z</time></trkpt><trkpt lat="34.4458332" lon="8.6662928"><ele>206.66666666666669</ele><time>2026-04-30T18:58:55.736Z</time></trkpt><trkpt lat="34.4458601" lon="8.6665228"><ele>207.0</ele><time>2026-04-30T18:58:56.664Z</time></trkpt><trkpt lat="34.4458854" lon="8.6667471"><ele>206.0</ele><time>2026-04-30T18:58:57.698Z</time></trkpt><trkpt lat="34.445912" lon="8.6669698"><ele>205.0</ele><time>2026-04-30T18:58:58.679Z</time></trkpt><trkpt lat="34.4459404" lon="8.6671952"><ele>204.0</ele><time>2026-04-30T18:58:59.718Z</time></trkpt><trkpt lat="34.4459692" lon="8.6674143"><ele>204.0</ele><time>2026-04-30T18:59:00.714Z</time></trkpt><trkpt lat="34.4460016" lon="8.6676393"><ele>204.0</ele><time>2026-04-30T18:59:01.684Z</time></trkpt><trkpt lat="34.4460283" lon="8.6678546"><ele>204.0</ele><time>2026-04-30T18:59:02.722Z</time></trkpt><trkpt lat="34.4460567" lon="8.6680784"><ele>204.0</ele><time>2026-04-30T18:59:03.712Z</time></trkpt><trkpt lat="34.4460865" lon="8.668295"><ele>204.0</ele><time>2026-04-30T18:59:04.705Z</time></trkpt><trkpt lat="34.4461154" lon="8.6685146"><ele>204.0</ele><time>2026-04-30T18:59:05.719Z</time></trkpt><trkpt lat="34.4461491" lon="8.6687405"><ele>203.66666666666669</ele><time>2026-04-30T18:59:06.728Z</time></trkpt><trkpt lat="34.4461857" lon="8.6689637"><ele>203.33333333333334</ele><time>2026-04-30T18:59:07.725Z</time></trkpt><trkpt lat="34.4462194" lon="8.6691862"><ele>203.0</ele><time>2026-04-30T18:59:08.715Z</time></trkpt><trkpt lat="34.4462568" lon="8.6694113"><ele>203.33333333333334</ele><time>2026-04-30T18:59:09.693Z</time></trkpt><trkpt lat="34.4462917" lon="8.6696433"><ele>203.66666666666669</ele><time>2026-04-30T18:59:10.694Z</time></trkpt><trkpt lat="34.4463283" lon="8.6698722"><ele>204.0</ele><time>2026-04-30T18:59:11.728Z</time></trkpt><trkpt lat="34.4463693" lon="8.6701054"><ele>204.66666666666669</ele><time>2026-04-30T18:59:12.727Z</time></trkpt><trkpt lat="34.4464072" lon="8.6703392"><ele>205.33333333333334</ele><time>2026-04-30T18:59:13.7Z</time></trkpt><trkpt lat="34.4464424" lon="8.6705711"><ele>206.0</ele><time>2026-04-30T18:59:14.713Z</time></trkpt><trkpt lat="34.44648" lon="8.6707947"><ele>206.0</ele><time>2026-04-30T18:59:15.724Z</time></trkpt><trkpt lat="34.4465155" lon="8.6710238"><ele>206.0</ele><time>2026-04-30T18:59:16.699Z</time></trkpt><trkpt lat="34.446549" lon="8.6712464"><ele>206.0</ele><time>2026-04-30T18:59:17.718Z</time></trkpt><trkpt lat="34.4465857" lon="8.6714692"><ele>206.66666666666669</ele><time>2026-04-30T18:59:18.703Z</time></trkpt><trkpt lat="34.4466182" lon="8.6716909"><ele>207.33333333333331</ele><time>2026-04-30T18:59:19.725Z</time></trkpt><trkpt lat="34.4466495" lon="8.6719087"><ele>208.0</ele><time>2026-04-30T18:59:20.715Z</time></trkpt><trkpt lat="34.4466799" lon="8.6721206"><ele>208.0</ele><time>2026-04-30T18:59:21.703Z</time></trkpt><trkpt lat="34.4467141" lon="8.6723308"><ele>208.0</ele><time>2026-04-30T18:59:22.677Z</time></trkpt><trkpt lat="34.4467454" lon="8.6725413"><ele>208.0</ele><time>2026-04-30T18:59:23.684Z</time></trkpt><trkpt lat="34.4467765" lon="8.6727517"><ele>208.33333333333331</ele><time>2026-04-30T18:59:24.709Z</time></trkpt><trkpt lat="34.4468068" lon="8.6729586"><ele>208.66666666666669</ele><time>2026-04-30T18:59:25.714Z</time></trkpt><trkpt lat="34.4468379" lon="8.6731671"><ele>209.0</ele><time>2026-04-30T18:59:26.717Z</time></trkpt><trkpt lat="34.4468696" lon="8.6733753"><ele>209.0</ele><time>2026-04-30T18:59:27.676Z</time></trkpt><trkpt lat="34.4469018" lon="8.673581"><ele>209.0</ele><time>2026-04-30T18:59:28.682Z</time></trkpt><trkpt lat="34.4469315" lon="8.673787"><ele>209.0</ele><time>2026-04-30T18:59:29.722Z</time></trkpt><trkpt lat="34.4469631" lon="8.6739858"><ele>208.66666666666669</ele><time>2026-04-30T18:59:30.686Z</time></trkpt><trkpt lat="34.4469949" lon="8.6741816"><ele>208.33333333333331</ele><time>2026-04-30T18:59:31.703Z</time></trkpt><trkpt lat="34.4470317" lon="8.6743712"><ele>208.0</ele><time>2026-04-30T18:59:32.711Z</time></trkpt><trkpt lat="34.4470669" lon="8.6745662"><ele>208.0</ele><time>2026-04-30T18:59:33.738Z</time></trkpt><trkpt lat="34.447107" lon="8.6747589"><ele>208.0</ele><time>2026-04-30T18:59:34.717Z</time></trkpt><trkpt lat="34.4471471" lon="8.6749537"><ele>208.0</ele><time>2026-04-30T18:59:35.691Z</time></trkpt><trkpt lat="34.4471932" lon="8.6751454"><ele>207.33333333333331</ele><time>2026-04-30T18:59:36.701Z</time></trkpt><trkpt lat="34.447235" lon="8.6753341"><ele>206.66666666666669</ele><time>2026-04-30T18:59:37.715Z</time></trkpt><trkpt lat="34.4472801" lon="8.6755285"><ele>206.0</ele><time>2026-04-30T18:59:38.721Z</time></trkpt><trkpt lat="34.4473251" lon="8.675718"><ele>206.0</ele><time>2026-04-30T18:59:39.722Z</time></trkpt><trkpt lat="34.4473754" lon="8.6759115"><ele>206.0</ele><time>2026-04-30T18:59:40.69Z</time></trkpt><trkpt lat="34.4474264" lon="8.6761072"><ele>206.0</ele><time>2026-04-30T18:59:41.721Z</time></trkpt><trkpt lat="34.4474795" lon="8.6762972"><ele>206.0</ele><time>2026-04-30T18:59:42.708Z</time></trkpt><trkpt lat="34.4475256" lon="8.6764896"><ele>206.0</ele><time>2026-04-30T18:59:43.711Z</time></trkpt><trkpt lat="34.4475773" lon="8.6766856"><ele>206.0</ele><time>2026-04-30T18:59:44.724Z</time></trkpt><trkpt lat="34.4476285" lon="8.6768802"><ele>205.66666666666669</ele><time>2026-04-30T18:59:45.695Z</time></trkpt><trkpt lat="34.4476744" lon="8.6770789"><ele>205.33333333333331</ele><time>2026-04-30T18:59:46.703Z</time></trkpt><trkpt lat="34.4477205" lon="8.6772793"><ele>205.0</ele><time>2026-04-30T18:59:47.718Z</time></trkpt><trkpt lat="34.4477693" lon="8.6774818"><ele>205.0</ele><time>2026-04-30T18:59:48.703Z</time></trkpt><trkpt lat="34.4478182" lon="8.6776817"><ele>205.0</ele><time>2026-04-30T18:59:49.68Z</time></trkpt><trkpt lat="34.4478678" lon="8.6778809"><ele>205.0</ele><time>2026-04-30T18:59:50.697Z</time></trkpt><trkpt lat="34.4479144" lon="8.6780818"><ele>205.0</ele><time>2026-04-30T18:59:51.7Z</time></trkpt><trkpt lat="34.4479615" lon="8.6782846"><ele>205.0</ele><time>2026-04-30T18:59:52.704Z</time></trkpt><trkpt lat="34.4480095" lon="8.6784874"><ele>205.0</ele><time>2026-04-30T18:59:53.725Z</time></trkpt><trkpt lat="34.4480555" lon="8.6786923"><ele>205.0</ele><time>2026-04-30T18:59:54.715Z</time></trkpt><trkpt lat="34.448105" lon="8.6789059"><ele>205.0</ele><time>2026-04-30T18:59:55.719Z</time></trkpt><trkpt lat="34.4481546" lon="8.6791195"><ele>205.0</ele><time>2026-04-30T18:59:56.734Z</time></trkpt><trkpt lat="34.4482105" lon="8.6793332"><ele>205.0</ele><time>2026-04-30T18:59:57.675Z</time></trkpt><trkpt lat="34.4482612" lon="8.6795436"><ele>205.0</ele><time>2026-04-30T18:59:58.721Z</time></trkpt><trkpt lat="34.4483143" lon="8.6797529"><ele>205.0</ele><time>2026-04-30T18:59:59.713Z</time></trkpt><trkpt lat="34.4483671" lon="8.6799533"><ele>205.0</ele><time>2026-04-30T19:00:00.705Z</time></trkpt><trkpt lat="34.4484162" lon="8.6801593"><ele>205.0</ele><time>2026-04-30T19:00:01.721Z</time></trkpt><trkpt lat="34.4484639" lon="8.680367"><ele>205.0</ele><time>2026-04-30T19:00:02.73Z</time></trkpt><trkpt lat="34.4485147" lon="8.6805713"><ele>205.33333333333331</ele><time>2026-04-30T19:00:03.694Z</time></trkpt><trkpt lat="34.4485631" lon="8.6807748"><ele>205.66666666666669</ele><time>2026-04-30T19:00:04.701Z</time></trkpt><trkpt lat="34.4486122" lon="8.6809761"><ele>206.0</ele><time>2026-04-30T19:00:05.707Z</time></trkpt><trkpt lat="34.4486603" lon="8.6811826"><ele>206.33333333333334</ele><time>2026-04-30T19:00:06.716Z</time></trkpt><trkpt lat="34.4487103" lon="8.6813876"><ele>206.66666666666669</ele><time>2026-04-30T19:00:07.712Z</time></trkpt><trkpt lat="34.4487613" lon="8.6815904"><ele>207.0</ele><time>2026-04-30T19:00:08.711Z</time></trkpt><trkpt lat="34.4488097" lon="8.6817966"><ele>207.0</ele><time>2026-04-30T19:00:09.715Z</time></trkpt><trkpt lat="34.4488621" lon="8.6820045"><ele>207.0</ele><time>2026-04-30T19:00:10.718Z</time></trkpt><trkpt lat="34.4489137" lon="8.6822135"><ele>207.0</ele><time>2026-04-30T19:00:11.715Z</time></trkpt><trkpt lat="34.448967" lon="8.6824205"><ele>207.0</ele><time>2026-04-30T19:00:12.703Z</time></trkpt><trkpt lat="34.4490159" lon="8.6826286"><ele>207.0</ele><time>2026-04-30T19:00:13.698Z</time></trkpt><trkpt lat="34.4490657" lon="8.6828385"><ele>207.0</ele><time>2026-04-30T19:00:14.718Z</time></trkpt><trkpt lat="34.449115" lon="8.6830449"><ele>207.0</ele><time>2026-04-30T19:00:15.719Z</time></trkpt><trkpt lat="34.4491671" lon="8.6832534"><ele>207.0</ele><time>2026-04-30T19:00:16.698Z</time></trkpt><trkpt lat="34.4492208" lon="8.6834594"><ele>207.0</ele><time>2026-04-30T19:00:17.715Z</time></trkpt><trkpt lat="34.4492741" lon="8.6836672"><ele>208.0</ele><time>2026-04-30T19:00:18.718Z</time></trkpt><trkpt lat="34.4493251" lon="8.6838678"><ele>209.0</ele><time>2026-04-30T19:00:19.729Z</time></trkpt><trkpt lat="34.4493759" lon="8.6840693"><ele>210.0</ele><time>2026-04-30T19:00:20.721Z</time></trkpt><trkpt lat="34.4494211" lon="8.6842699"><ele>209.66666666666669</ele><time>2026-04-30T19:00:21.731Z</time></trkpt><trkpt lat="34.4494662" lon="8.6844657"><ele>209.33333333333334</ele><time>2026-04-30T19:00:22.719Z</time></trkpt><trkpt lat="34.4495134" lon="8.6846685"><ele>209.0</ele><time>2026-04-30T19:00:23.7Z</time></trkpt><trkpt lat="34.4495536" lon="8.6848728"><ele>209.0</ele><time>2026-04-30T19:00:24.681Z</time></trkpt><trkpt lat="34.4495929" lon="8.6850831"><ele>209.0</ele><time>2026-04-30T19:00:25.664Z</time></trkpt><trkpt lat="34.4496175" lon="8.685293"><ele>209.0</ele><time>2026-04-30T19:00:26.687Z</time></trkpt><trkpt lat="34.4496302" lon="8.6855043"><ele>209.33333333333334</ele><time>2026-04-30T19:00:27.691Z</time></trkpt><trkpt lat="34.4496429" lon="8.6857226"><ele>209.66666666666669</ele><time>2026-04-30T19:00:28.703Z</time></trkpt><trkpt lat="34.449644" lon="8.6859389"><ele>210.0</ele><time>2026-04-30T19:00:29.718Z</time></trkpt><trkpt lat="34.4496255" lon="8.6861538"><ele>209.66666666666669</ele><time>2026-04-30T19:00:30.687Z</time></trkpt><trkpt lat="34.4495983" lon="8.6863626"><ele>209.33333333333334</ele><time>2026-04-30T19:00:31.696Z</time></trkpt><trkpt lat="34.4495648" lon="8.6865724"><ele>209.0</ele><time>2026-04-30T19:00:32.71Z</time></trkpt><trkpt lat="34.449513" lon="8.6867929"><ele>209.33333333333334</ele><time>2026-04-30T19:00:33.705Z</time></trkpt><trkpt lat="34.4494545" lon="8.6870096"><ele>209.66666666666669</ele><time>2026-04-30T19:00:34.717Z</time></trkpt><trkpt lat="34.4493847" lon="8.6872288"><ele>210.0</ele><time>2026-04-30T19:00:35.714Z</time></trkpt><trkpt lat="34.4493072" lon="8.6874361"><ele>210.0</ele><time>2026-04-30T19:00:36.698Z</time></trkpt><trkpt lat="34.44922" lon="8.6876456"><ele>210.0</ele><time>2026-04-30T19:00:37.705Z</time></trkpt><trkpt lat="34.4491239" lon="8.6878487"><ele>210.0</ele><time>2026-04-30T19:00:38.702Z</time></trkpt><trkpt lat="34.4490293" lon="8.6880498"><ele>210.0</ele><time>2026-04-30T19:00:39.702Z</time></trkpt><trkpt lat="34.4489336" lon="8.6882554"><ele>210.0</ele><time>2026-04-30T19:00:40.714Z</time></trkpt><trkpt lat="34.4488366" lon="8.6884632"><ele>210.0</ele><time>2026-04-30T19:00:41.673Z</time></trkpt><trkpt lat="34.4487425" lon="8.6886661"><ele>210.66666666666669</ele><time>2026-04-30T19:00:42.725Z</time></trkpt><trkpt lat="34.4486511" lon="8.6888633"><ele>211.33333333333334</ele><time>2026-04-30T19:00:43.701Z</time></trkpt><trkpt lat="34.4485564" lon="8.6890607"><ele>212.0</ele><time>2026-04-30T19:00:44.695Z</time></trkpt><trkpt lat="34.4484636" lon="8.6892551"><ele>212.33333333333334</ele><time>2026-04-30T19:00:45.698Z</time></trkpt><trkpt lat="34.4483736" lon="8.6894388"><ele>212.66666666666669</ele><time>2026-04-30T19:00:46.705Z</time></trkpt><trkpt lat="34.4482863" lon="8.689623"><ele>213.0</ele><time>2026-04-30T19:00:47.702Z</time></trkpt><trkpt lat="34.4482038" lon="8.6898021"><ele>213.0</ele><time>2026-04-30T19:00:48.696Z</time></trkpt><trkpt lat="34.4481243" lon="8.6899773"><ele>213.0</ele><time>2026-04-30T19:00:49.699Z</time></trkpt><trkpt lat="34.4480441" lon="8.690153"><ele>213.0</ele><time>2026-04-30T19:00:50.711Z</time></trkpt><trkpt lat="34.4479582" lon="8.6903273"><ele>213.33333333333331</ele><time>2026-04-30T19:00:51.691Z</time></trkpt><trkpt lat="34.4478757" lon="8.6904989"><ele>213.66666666666666</ele><time>2026-04-30T19:00:52.682Z</time></trkpt><trkpt lat="34.4477921" lon="8.6906703"><ele>214.0</ele><time>2026-04-30T19:00:53.715Z</time></trkpt><trkpt lat="34.4477089" lon="8.6908433"><ele>214.0</ele><time>2026-04-30T19:00:54.71Z</time></trkpt><trkpt lat="34.4476266" lon="8.6910133"><ele>214.0</ele><time>2026-04-30T19:00:55.698Z</time></trkpt><trkpt lat="34.4475396" lon="8.6911819"><ele>214.0</ele><time>2026-04-30T19:00:56.683Z</time></trkpt><trkpt lat="34.4474505" lon="8.6913538"><ele>214.66666666666666</ele><time>2026-04-30T19:00:57.694Z</time></trkpt><trkpt lat="34.4473606" lon="8.6915263"><ele>215.33333333333331</ele><time>2026-04-30T19:00:58.695Z</time></trkpt><trkpt lat="34.4472673" lon="8.6916966"><ele>216.0</ele><time>2026-04-30T19:00:59.708Z</time></trkpt><trkpt lat="34.4471769" lon="8.691866"><ele>216.33333333333331</ele><time>2026-04-30T19:01:00.705Z</time></trkpt><trkpt lat="34.4470891" lon="8.6920377"><ele>216.66666666666666</ele><time>2026-04-30T19:01:01.682Z</time></trkpt><trkpt lat="34.4470014" lon="8.6922125"><ele>217.0</ele><time>2026-04-30T19:01:02.715Z</time></trkpt><trkpt lat="34.4469088" lon="8.6923888"><ele>217.0</ele><time>2026-04-30T19:01:03.702Z</time></trkpt><trkpt lat="34.4468149" lon="8.6925701"><ele>217.0</ele><time>2026-04-30T19:01:04.704Z</time></trkpt><trkpt lat="34.4467261" lon="8.6927543"><ele>217.0</ele><time>2026-04-30T19:01:05.698Z</time></trkpt><trkpt lat="34.446637" lon="8.692948"><ele>217.66666666666666</ele><time>2026-04-30T19:01:06.691Z</time></trkpt><trkpt lat="34.4465439" lon="8.6931434"><ele>218.33333333333331</ele><time>2026-04-30T19:01:07.71Z</time></trkpt><trkpt lat="34.4464486" lon="8.6933397"><ele>219.0</ele><time>2026-04-30T19:01:08.698Z</time></trkpt><trkpt lat="34.4463537" lon="8.6935334"><ele>218.66666666666669</ele><time>2026-04-30T19:01:09.706Z</time></trkpt><trkpt lat="34.4462608" lon="8.6937261"><ele>218.33333333333334</ele><time>2026-04-30T19:01:10.707Z</time></trkpt><trkpt lat="34.4461616" lon="8.693922"><ele>218.0</ele><time>2026-04-30T19:01:11.701Z</time></trkpt><trkpt lat="34.4460656" lon="8.6941157"><ele>218.0</ele><time>2026-04-30T19:01:12.693Z</time></trkpt><trkpt lat="34.445971" lon="8.6943115"><ele>218.0</ele><time>2026-04-30T19:01:13.681Z</time></trkpt><trkpt lat="34.4458753" lon="8.694503"><ele>218.0</ele><time>2026-04-30T19:01:14.733Z</time></trkpt><trkpt lat="34.4457794" lon="8.6946921"><ele>218.66666666666669</ele><time>2026-04-30T19:01:15.719Z</time></trkpt><trkpt lat="34.4456856" lon="8.6948777"><ele>219.33333333333331</ele><time>2026-04-30T19:01:16.702Z</time></trkpt><trkpt lat="34.4456033" lon="8.6950631"><ele>220.0</ele><time>2026-04-30T19:01:17.697Z</time></trkpt><trkpt lat="34.4455172" lon="8.6952448"><ele>219.33333333333331</ele><time>2026-04-30T19:01:18.712Z</time></trkpt><trkpt lat="34.4454341" lon="8.6954273"><ele>218.66666666666669</ele><time>2026-04-30T19:01:19.726Z</time></trkpt><trkpt lat="34.445352" lon="8.6956076"><ele>218.0</ele><time>2026-04-30T19:01:20.722Z</time></trkpt><trkpt lat="34.4452688" lon="8.6957874"><ele>218.0</ele><time>2026-04-30T19:01:21.711Z</time></trkpt><trkpt lat="34.4451868" lon="8.6959726"><ele>218.0</ele><time>2026-04-30T19:01:22.721Z</time></trkpt><trkpt lat="34.44511" lon="8.6961538"><ele>218.0</ele><time>2026-04-30T19:01:23.719Z</time></trkpt><trkpt lat="34.4450344" lon="8.6963399"><ele>218.66666666666669</ele><time>2026-04-30T19:01:24.734Z</time></trkpt><trkpt lat="34.4449551" lon="8.6965286"><ele>219.33333333333331</ele><time>2026-04-30T19:01:25.689Z</time></trkpt><trkpt lat="34.4448775" lon="8.6967211"><ele>220.0</ele><time>2026-04-30T19:01:26.725Z</time></trkpt><trkpt lat="34.4447964" lon="8.6969128"><ele>219.33333333333331</ele><time>2026-04-30T19:01:27.686Z</time></trkpt><trkpt lat="34.444718" lon="8.6971033"><ele>218.66666666666669</ele><time>2026-04-30T19:01:28.726Z</time></trkpt><trkpt lat="34.444644" lon="8.697304"><ele>218.0</ele><time>2026-04-30T19:01:29.725Z</time></trkpt><trkpt lat="34.4445737" lon="8.6975012"><ele>218.0</ele><time>2026-04-30T19:01:30.735Z</time></trkpt><trkpt lat="34.4445118" lon="8.6977055"><ele>218.0</ele><time>2026-04-30T19:01:31.687Z</time></trkpt><trkpt lat="34.4444499" lon="8.6979119"><ele>218.0</ele><time>2026-04-30T19:01:32.702Z</time></trkpt><trkpt lat="34.4443855" lon="8.6981191"><ele>218.33333333333334</ele><time>2026-04-30T19:01:33.697Z</time></trkpt><trkpt lat="34.4443246" lon="8.6983285"><ele>218.66666666666669</ele><time>2026-04-30T19:01:34.716Z</time></trkpt><trkpt lat="34.4442667" lon="8.6985335"><ele>219.0</ele><time>2026-04-30T19:01:35.721Z</time></trkpt><trkpt lat="34.444204" lon="8.6987386"><ele>220.0</ele><time>2026-04-30T19:01:36.7Z</time></trkpt><trkpt lat="34.4441432" lon="8.6989403"><ele>221.0</ele><time>2026-04-30T19:01:37.709Z</time></trkpt><trkpt lat="34.4440804" lon="8.6991487"><ele>222.0</ele><time>2026-04-30T19:01:38.72Z</time></trkpt><trkpt lat="34.4440162" lon="8.6993569"><ele>223.33333333333331</ele><time>2026-04-30T19:01:39.713Z</time></trkpt><trkpt lat="34.4439521" lon="8.6995505"><ele>224.66666666666666</ele><time>2026-04-30T19:01:40.719Z</time></trkpt><trkpt lat="34.4438841" lon="8.6997444"><ele>226.0</ele><time>2026-04-30T19:01:41.702Z</time></trkpt><trkpt lat="34.443816" lon="8.6999423"><ele>225.33333333333331</ele><time>2026-04-30T19:01:42.712Z</time></trkpt><trkpt lat="34.4437486" lon="8.7001374"><ele>224.66666666666669</ele><time>2026-04-30T19:01:43.688Z</time></trkpt><trkpt lat="34.4436848" lon="8.700334"><ele>224.0</ele><time>2026-04-30T19:01:44.736Z</time></trkpt><trkpt lat="34.4436196" lon="8.7005317"><ele>224.0</ele><time>2026-04-30T19:01:45.718Z</time></trkpt><trkpt lat="34.4435591" lon="8.7007278"><ele>224.0</ele><time>2026-04-30T19:01:46.697Z</time></trkpt><trkpt lat="34.4435017" lon="8.7009302"><ele>224.0</ele><time>2026-04-30T19:01:47.7Z</time></trkpt><trkpt lat="34.4434473" lon="8.7011363"><ele>224.66666666666669</ele><time>2026-04-30T19:01:48.716Z</time></trkpt><trkpt lat="34.4433903" lon="8.7013479"><ele>225.33333333333331</ele><time>2026-04-30T19:01:49.701Z</time></trkpt><trkpt lat="34.4433323" lon="8.7015657"><ele>226.0</ele><time>2026-04-30T19:01:50.692Z</time></trkpt><trkpt lat="34.4432763" lon="8.7017824"><ele>226.66666666666666</ele><time>2026-04-30T19:01:51.705Z</time></trkpt><trkpt lat="34.4432189" lon="8.7019961"><ele>227.33333333333331</ele><time>2026-04-30T19:01:52.698Z</time></trkpt><trkpt lat="34.4431605" lon="8.7022103"><ele>228.0</ele><time>2026-04-30T19:01:53.719Z</time></trkpt><trkpt lat="34.443095" lon="8.7024254"><ele>228.0</ele><time>2026-04-30T19:01:54.702Z</time></trkpt><trkpt lat="34.4430292" lon="8.7026404"><ele>228.0</ele><time>2026-04-30T19:01:55.724Z</time></trkpt><trkpt lat="34.4429597" lon="8.7028565"><ele>228.0</ele><time>2026-04-30T19:01:56.723Z</time></trkpt><trkpt lat="34.4428935" lon="8.7030721"><ele>226.66666666666669</ele><time>2026-04-30T19:01:57.701Z</time></trkpt><trkpt lat="34.4428292" lon="8.7032948"><ele>225.33333333333334</ele><time>2026-04-30T19:01:58.665Z</time></trkpt><trkpt lat="34.4427652" lon="8.7035222"><ele>224.0</ele><time>2026-04-30T19:01:59.708Z</time></trkpt><trkpt lat="34.4427019" lon="8.7037692"><ele>223.66666666666669</ele><time>2026-04-30T19:02:00.698Z</time></trkpt><trkpt lat="34.4426444" lon="8.7040184"><ele>223.33333333333331</ele><time>2026-04-30T19:02:01.691Z</time></trkpt><trkpt lat="34.4425822" lon="8.7042677"><ele>223.0</ele><time>2026-04-30T19:02:02.694Z</time></trkpt><trkpt lat="34.442523" lon="8.7045145"><ele>223.66666666666666</ele><time>2026-04-30T19:02:03.683Z</time></trkpt><trkpt lat="34.4424623" lon="8.7047568"><ele>224.33333333333331</ele><time>2026-04-30T19:02:04.702Z</time></trkpt><trkpt lat="34.4424017" lon="8.7049894"><ele>225.0</ele><time>2026-04-30T19:02:05.714Z</time></trkpt><trkpt lat="34.4423487" lon="8.7052217"><ele>225.33333333333331</ele><time>2026-04-30T19:02:06.695Z</time></trkpt><trkpt lat="34.4422935" lon="8.7054497"><ele>225.66666666666666</ele><time>2026-04-30T19:02:07.712Z</time></trkpt><trkpt lat="34.4422421" lon="8.7056751"><ele>226.0</ele><time>2026-04-30T19:02:08.701Z</time></trkpt><trkpt lat="34.4421947" lon="8.7059029"><ele>226.33333333333331</ele><time>2026-04-30T19:02:09.694Z</time></trkpt><trkpt lat="34.4421408" lon="8.7061276"><ele>226.66666666666669</ele><time>2026-04-30T19:02:10.708Z</time></trkpt><trkpt lat="34.4420823" lon="8.7063562"><ele>227.0</ele><time>2026-04-30T19:02:11.686Z</time></trkpt><trkpt lat="34.4420196" lon="8.7065839"><ele>226.0</ele><time>2026-04-30T19:02:12.708Z</time></trkpt><trkpt lat="34.4419543" lon="8.7068088"><ele>225.0</ele><time>2026-04-30T19:02:13.706Z</time></trkpt><trkpt lat="34.441887" lon="8.7070364"><ele>224.0</ele><time>2026-04-30T19:02:14.701Z</time></trkpt><trkpt lat="34.4418179" lon="8.7072585"><ele>224.0</ele><time>2026-04-30T19:02:15.705Z</time></trkpt><trkpt lat="34.4417482" lon="8.7074771"><ele>224.0</ele><time>2026-04-30T19:02:16.717Z</time></trkpt><trkpt lat="34.4416802" lon="8.7077005"><ele>224.0</ele><time>2026-04-30T19:02:17.709Z</time></trkpt><trkpt lat="34.4416099" lon="8.7079199"><ele>224.0</ele><time>2026-04-30T19:02:18.693Z</time></trkpt><trkpt lat="34.4415376" lon="8.7081337"><ele>224.0</ele><time>2026-04-30T19:02:19.673Z</time></trkpt><trkpt lat="34.4414727" lon="8.7083575"><ele>224.0</ele><time>2026-04-30T19:02:20.679Z</time></trkpt><trkpt lat="34.4414036" lon="8.7085754"><ele>224.33333333333334</ele><time>2026-04-30T19:02:21.669Z</time></trkpt><trkpt lat="34.44133" lon="8.7087863"><ele>224.66666666666669</ele><time>2026-04-30T19:02:22.689Z</time></trkpt><trkpt lat="34.4412659" lon="8.7089982"><ele>225.0</ele><time>2026-04-30T19:02:23.672Z</time></trkpt><trkpt lat="34.441204" lon="8.7092057"><ele>223.66666666666669</ele><time>2026-04-30T19:02:24.67Z</time></trkpt><trkpt lat="34.4411357" lon="8.7094146"><ele>222.33333333333334</ele><time>2026-04-30T19:02:25.712Z</time></trkpt><trkpt lat="34.4410663" lon="8.7096164"><ele>221.0</ele><time>2026-04-30T19:02:26.675Z</time></trkpt><trkpt lat="34.4410059" lon="8.7098158"><ele>221.0</ele><time>2026-04-30T19:02:27.692Z</time></trkpt><trkpt lat="34.4409451" lon="8.710015"><ele>221.0</ele><time>2026-04-30T19:02:28.712Z</time></trkpt><trkpt lat="34.4408828" lon="8.7102123"><ele>221.0</ele><time>2026-04-30T19:02:29.716Z</time></trkpt><trkpt lat="34.4408238" lon="8.7104112"><ele>221.0</ele><time>2026-04-30T19:02:30.71Z</time></trkpt><trkpt lat="34.4407583" lon="8.7106078"><ele>221.0</ele><time>2026-04-30T19:02:31.694Z</time></trkpt><trkpt lat="34.4406964" lon="8.7108067"><ele>221.0</ele><time>2026-04-30T19:02:32.726Z</time></trkpt><trkpt lat="34.4406313" lon="8.7110041"><ele>222.0</ele><time>2026-04-30T19:02:33.689Z</time></trkpt><trkpt lat="34.4405721" lon="8.7112005"><ele>223.0</ele><time>2026-04-30T19:02:34.711Z</time></trkpt><trkpt lat="34.4405107" lon="8.7113952"><ele>224.0</ele><time>2026-04-30T19:02:35.721Z</time></trkpt><trkpt lat="34.4404494" lon="8.7115973"><ele>223.0</ele><time>2026-04-30T19:02:36.714Z</time></trkpt><trkpt lat="34.4403809" lon="8.7117989"><ele>222.0</ele><time>2026-04-30T19:02:37.715Z</time></trkpt><trkpt lat="34.4403182" lon="8.7120044"><ele>221.0</ele><time>2026-04-30T19:02:38.682Z</time></trkpt><trkpt lat="34.4402514" lon="8.7122139"><ele>221.0</ele><time>2026-04-30T19:02:39.707Z</time></trkpt><trkpt lat="34.4401859" lon="8.7124193"><ele>221.0</ele><time>2026-04-30T19:02:40.718Z</time></trkpt><trkpt lat="34.4401196" lon="8.7126273"><ele>221.0</ele><time>2026-04-30T19:02:41.704Z</time></trkpt><trkpt lat="34.4400516" lon="8.7128359"><ele>222.33333333333334</ele><time>2026-04-30T19:02:42.711Z</time></trkpt><trkpt lat="34.4399805" lon="8.7130406"><ele>223.66666666666669</ele><time>2026-04-30T19:02:43.721Z</time></trkpt><trkpt lat="34.4399123" lon="8.7132437"><ele>225.0</ele><time>2026-04-30T19:02:44.684Z</time></trkpt><trkpt lat="34.4398461" lon="8.713453"><ele>225.66666666666669</ele><time>2026-04-30T19:02:45.67Z</time></trkpt><trkpt lat="34.4397768" lon="8.7136597"><ele>226.33333333333334</ele><time>2026-04-30T19:02:46.714Z</time></trkpt><trkpt lat="34.4397097" lon="8.7138613"><ele>227.0</ele><time>2026-04-30T19:02:47.721Z</time></trkpt><trkpt lat="34.4396396" lon="8.7140589"><ele>226.33333333333334</ele><time>2026-04-30T19:02:48.726Z</time></trkpt><trkpt lat="34.4395706" lon="8.7142598"><ele>225.66666666666669</ele><time>2026-04-30T19:02:49.714Z</time></trkpt><trkpt lat="34.4395041" lon="8.7144589"><ele>225.0</ele><time>2026-04-30T19:02:50.735Z</time></trkpt><trkpt lat="34.4394422" lon="8.7146536"><ele>225.0</ele><time>2026-04-30T19:02:51.728Z</time></trkpt><trkpt lat="34.4393829" lon="8.7148478"><ele>225.0</ele><time>2026-04-30T19:02:52.722Z</time></trkpt><trkpt lat="34.4393219" lon="8.7150467"><ele>225.0</ele><time>2026-04-30T19:02:53.711Z</time></trkpt><trkpt lat="34.4392658" lon="8.7152406"><ele>225.0</ele><time>2026-04-30T19:02:54.733Z</time></trkpt><trkpt lat="34.4392115" lon="8.7154372"><ele>225.0</ele><time>2026-04-30T19:02:55.725Z</time></trkpt><trkpt lat="34.4391562" lon="8.7156278"><ele>225.0</ele><time>2026-04-30T19:02:56.72Z</time></trkpt><trkpt lat="34.4391058" lon="8.7158275"><ele>225.0</ele><time>2026-04-30T19:02:57.729Z</time></trkpt><trkpt lat="34.439053" lon="8.7160281"><ele>225.0</ele><time>2026-04-30T19:02:58.716Z</time></trkpt><trkpt lat="34.4389983" lon="8.7162295"><ele>225.0</ele><time>2026-04-30T19:02:59.699Z</time></trkpt><trkpt lat="34.4389434" lon="8.7164256"><ele>225.33333333333331</ele><time>2026-04-30T19:03:00.706Z</time></trkpt><trkpt lat="34.4388893" lon="8.7166225"><ele>225.66666666666666</ele><time>2026-04-30T19:03:01.673Z</time></trkpt><trkpt lat="34.438837" lon="8.7168194"><ele>226.0</ele><time>2026-04-30T19:03:02.665Z</time></trkpt><trkpt lat="34.4387847" lon="8.7170191"><ele>226.0</ele><time>2026-04-30T19:03:03.66Z</time></trkpt><trkpt lat="34.4387277" lon="8.7172179"><ele>226.0</ele><time>2026-04-30T19:03:04.67Z</time></trkpt><trkpt lat="34.438671" lon="8.7174152"><ele>226.0</ele><time>2026-04-30T19:03:05.701Z</time></trkpt><trkpt lat="34.4386123" lon="8.7176101"><ele>225.66666666666666</ele><time>2026-04-30T19:03:06.672Z</time></trkpt><trkpt lat="34.4385557" lon="8.717805"><ele>225.33333333333331</ele><time>2026-04-30T19:03:07.683Z</time></trkpt><trkpt lat="34.438499" lon="8.7179999"><ele>225.0</ele><time>2026-04-30T19:03:08.679Z</time></trkpt><trkpt lat="34.4384381" lon="8.7181915"><ele>225.0</ele><time>2026-04-30T19:03:09.673Z</time></trkpt><trkpt lat="34.4383843" lon="8.7183795"><ele>225.0</ele><time>2026-04-30T19:03:10.677Z</time></trkpt><trkpt lat="34.4383275" lon="8.7185714"><ele>225.0</ele><time>2026-04-30T19:03:11.676Z</time></trkpt><trkpt lat="34.4382764" lon="8.7187639"><ele>225.66666666666669</ele><time>2026-04-30T19:03:12.679Z</time></trkpt><trkpt lat="34.4382179" lon="8.7189649"><ele>226.33333333333334</ele><time>2026-04-30T19:03:13.676Z</time></trkpt><trkpt lat="34.4381594" lon="8.7191657"><ele>227.0</ele><time>2026-04-30T19:03:14.69Z</time></trkpt><trkpt lat="34.4381009" lon="8.7193725"><ele>226.66666666666669</ele><time>2026-04-30T19:03:15.676Z</time></trkpt><trkpt lat="34.4380446" lon="8.7195767"><ele>226.33333333333331</ele><time>2026-04-30T19:03:16.678Z</time></trkpt><trkpt lat="34.4379882" lon="8.7197692"><ele>226.0</ele><time>2026-04-30T19:03:17.671Z</time></trkpt><trkpt lat="34.4379293" lon="8.7199521"><ele>226.0</ele><time>2026-04-30T19:03:18.683Z</time></trkpt><trkpt lat="34.4378757" lon="8.7201255"><ele>226.0</ele><time>2026-04-30T19:03:19.668Z</time></trkpt><trkpt lat="34.4378161" lon="8.7202995"><ele>226.0</ele><time>2026-04-30T19:03:20.692Z</time></trkpt><trkpt lat="34.4377564" lon="8.7204759"><ele>226.33333333333331</ele><time>2026-04-30T19:03:21.678Z</time></trkpt><trkpt lat="34.4377025" lon="8.7206521"><ele>226.66666666666669</ele><time>2026-04-30T19:03:22.679Z</time></trkpt><trkpt lat="34.437645" lon="8.7208243"><ele>227.0</ele><time>2026-04-30T19:03:23.673Z</time></trkpt><trkpt lat="34.4375848" lon="8.7210009"><ele>227.66666666666669</ele><time>2026-04-30T19:03:24.679Z</time></trkpt><trkpt lat="34.4375283" lon="8.7211755"><ele>228.33333333333331</ele><time>2026-04-30T19:03:25.676Z</time></trkpt><trkpt lat="34.4374715" lon="8.7213584"><ele>229.0</ele><time>2026-04-30T19:03:26.672Z</time></trkpt><trkpt lat="34.4374125" lon="8.7215432"><ele>229.0</ele><time>2026-04-30T19:03:27.673Z</time></trkpt><trkpt lat="34.4373525" lon="8.7217271"><ele>229.0</ele><time>2026-04-30T19:03:28.694Z</time></trkpt><trkpt lat="34.437292" lon="8.7219127"><ele>229.0</ele><time>2026-04-30T19:03:29.676Z</time></trkpt><trkpt lat="34.4372298" lon="8.722101"><ele>229.0</ele><time>2026-04-30T19:03:30.678Z</time></trkpt><trkpt lat="34.4371705" lon="8.7222894"><ele>229.0</ele><time>2026-04-30T19:03:31.676Z</time></trkpt><trkpt lat="34.4371132" lon="8.7224733"><ele>229.0</ele><time>2026-04-30T19:03:32.673Z</time></trkpt><trkpt lat="34.4370548" lon="8.722659"><ele>229.66666666666666</ele><time>2026-04-30T19:03:33.681Z</time></trkpt><trkpt lat="34.4369899" lon="8.7228428"><ele>230.33333333333331</ele><time>2026-04-30T19:03:34.683Z</time></trkpt><trkpt lat="34.4369197" lon="8.7230351"><ele>231.0</ele><time>2026-04-30T19:03:35.681Z</time></trkpt><trkpt lat="34.4368564" lon="8.7232177"><ele>231.0</ele><time>2026-04-30T19:03:36.679Z</time></trkpt><trkpt lat="34.4367906" lon="8.7234071"><ele>231.0</ele><time>2026-04-30T19:03:37.665Z</time></trkpt><trkpt lat="34.4367271" lon="8.723597"><ele>231.0</ele><time>2026-04-30T19:03:38.674Z</time></trkpt><trkpt lat="34.4366665" lon="8.7237806"><ele>230.33333333333331</ele><time>2026-04-30T19:03:39.676Z</time></trkpt><trkpt lat="34.4366061" lon="8.723955"><ele>229.66666666666666</ele><time>2026-04-30T19:03:40.703Z</time></trkpt><trkpt lat="34.4365463" lon="8.7241305"><ele>229.0</ele><time>2026-04-30T19:03:41.67Z</time></trkpt><trkpt lat="34.4364837" lon="8.7243029"><ele>229.0</ele><time>2026-04-30T19:03:42.671Z</time></trkpt><trkpt lat="34.4364228" lon="8.7244747"><ele>229.0</ele><time>2026-04-30T19:03:43.674Z</time></trkpt><trkpt lat="34.4363612" lon="8.724651"><ele>229.0</ele><time>2026-04-30T19:03:44.671Z</time></trkpt><trkpt lat="34.4363007" lon="8.7248241"><ele>229.0</ele><time>2026-04-30T19:03:45.674Z</time></trkpt><trkpt lat="34.4362385" lon="8.725002"><ele>229.0</ele><time>2026-04-30T19:03:46.67Z</time></trkpt><trkpt lat="34.436176" lon="8.7251818"><ele>229.0</ele><time>2026-04-30T19:03:47.669Z</time></trkpt><trkpt lat="34.4361124" lon="8.7253647"><ele>229.33333333333331</ele><time>2026-04-30T19:03:48.674Z</time></trkpt><trkpt lat="34.4360448" lon="8.7255512"><ele>229.66666666666669</ele><time>2026-04-30T19:03:49.68Z</time></trkpt><trkpt lat="34.4359819" lon="8.7257393"><ele>230.0</ele><time>2026-04-30T19:03:50.69Z</time></trkpt><trkpt lat="34.4359133" lon="8.7259272"><ele>231.0</ele><time>2026-04-30T19:03:51.671Z</time></trkpt><trkpt lat="34.4358424" lon="8.7261251"><ele>232.0</ele><time>2026-04-30T19:03:52.678Z</time></trkpt><trkpt lat="34.4357714" lon="8.7263246"><ele>233.0</ele><time>2026-04-30T19:03:53.684Z</time></trkpt><trkpt lat="34.4357008" lon="8.7265238"><ele>233.0</ele><time>2026-04-30T19:03:54.682Z</time></trkpt><trkpt lat="34.4356258" lon="8.7267269"><ele>233.0</ele><time>2026-04-30T19:03:55.681Z</time></trkpt><trkpt lat="34.4355539" lon="8.726936"><ele>233.0</ele><time>2026-04-30T19:03:56.703Z</time></trkpt><trkpt lat="34.4354792" lon="8.727144"><ele>233.0</ele><time>2026-04-30T19:03:57.684Z</time></trkpt><trkpt lat="34.4354047" lon="8.7273537"><ele>233.0</ele><time>2026-04-30T19:03:58.682Z</time></trkpt><trkpt lat="34.4353287" lon="8.7275614"><ele>233.0</ele><time>2026-04-30T19:03:59.678Z</time></trkpt><trkpt lat="34.4352535" lon="8.7277672"><ele>233.0</ele><time>2026-04-30T19:04:00.676Z</time></trkpt><trkpt lat="34.4351774" lon="8.727972"><ele>233.0</ele><time>2026-04-30T19:04:01.675Z</time></trkpt><trkpt lat="34.435104" lon="8.7281759"><ele>233.0</ele><time>2026-04-30T19:04:02.676Z</time></trkpt><trkpt lat="34.4350307" lon="8.7283804"><ele>234.0</ele><time>2026-04-30T19:04:03.672Z</time></trkpt><trkpt lat="34.4349632" lon="8.7285861"><ele>235.0</ele><time>2026-04-30T19:04:04.675Z</time></trkpt><trkpt lat="34.4348911" lon="8.7287881"><ele>236.0</ele><time>2026-04-30T19:04:05.671Z</time></trkpt><trkpt lat="34.4348203" lon="8.7289862"><ele>236.0</ele><time>2026-04-30T19:04:06.672Z</time></trkpt><trkpt lat="34.4347481" lon="8.7291848"><ele>236.0</ele><time>2026-04-30T19:04:07.671Z</time></trkpt><trkpt lat="34.4346791" lon="8.7293819"><ele>236.0</ele><time>2026-04-30T19:04:08.705Z</time></trkpt><trkpt lat="34.4346131" lon="8.7295746"><ele>236.0</ele><time>2026-04-30T19:04:09.676Z</time></trkpt><trkpt lat="34.4345457" lon="8.7297648"><ele>236.0</ele><time>2026-04-30T19:04:10.675Z</time></trkpt><trkpt lat="34.4344795" lon="8.7299581"><ele>236.0</ele><time>2026-04-30T19:04:11.664Z</time></trkpt><trkpt lat="34.4344078" lon="8.7301475"><ele>236.66666666666669</ele><time>2026-04-30T19:04:12.678Z</time></trkpt><trkpt lat="34.4343437" lon="8.7303339"><ele>237.33333333333331</ele><time>2026-04-30T19:04:13.674Z</time></trkpt><trkpt lat="34.4342773" lon="8.7305208"><ele>238.0</ele><time>2026-04-30T19:04:14.674Z</time></trkpt><trkpt lat="34.4342119" lon="8.7307089"><ele>238.0</ele><time>2026-04-30T19:04:15.683Z</time></trkpt><trkpt lat="34.4341438" lon="8.730897"><ele>238.0</ele><time>2026-04-30T19:04:16.677Z</time></trkpt><trkpt lat="34.4340761" lon="8.7310845"><ele>238.0</ele><time>2026-04-30T19:04:17.688Z</time></trkpt><trkpt lat="34.4340076" lon="8.7312684"><ele>238.33333333333331</ele><time>2026-04-30T19:04:18.673Z</time></trkpt><trkpt lat="34.4339442" lon="8.731453"><ele>238.66666666666669</ele><time>2026-04-30T19:04:19.687Z</time></trkpt><trkpt lat="34.4338814" lon="8.7316425"><ele>239.0</ele><time>2026-04-30T19:04:20.677Z</time></trkpt><trkpt lat="34.4338164" lon="8.7318273"><ele>238.66666666666669</ele><time>2026-04-30T19:04:21.708Z</time></trkpt><trkpt lat="34.4337532" lon="8.7320137"><ele>238.33333333333331</ele><time>2026-04-30T19:04:22.672Z</time></trkpt><trkpt lat="34.4336877" lon="8.7322023"><ele>238.0</ele><time>2026-04-30T19:04:23.674Z</time></trkpt><trkpt lat="34.4336157" lon="8.7323967"><ele>238.0</ele><time>2026-04-30T19:04:24.672Z</time></trkpt><trkpt lat="34.4335448" lon="8.732595"><ele>238.0</ele><time>2026-04-30T19:04:25.676Z</time></trkpt><trkpt lat="34.4334722" lon="8.7327986"><ele>238.0</ele><time>2026-04-30T19:04:26.68Z</time></trkpt><trkpt lat="34.4333983" lon="8.7330052"><ele>238.66666666666666</ele><time>2026-04-30T19:04:27.674Z</time></trkpt><trkpt lat="34.4333261" lon="8.7332077"><ele>239.33333333333331</ele><time>2026-04-30T19:04:28.684Z</time></trkpt><trkpt lat="34.4332544" lon="8.733417"><ele>240.0</ele><time>2026-04-30T19:04:29.679Z</time></trkpt><trkpt lat="34.4331787" lon="8.7336216"><ele>240.33333333333331</ele><time>2026-04-30T19:04:30.674Z</time></trkpt><trkpt lat="34.4331081" lon="8.7338302"><ele>240.66666666666666</ele><time>2026-04-30T19:04:31.675Z</time></trkpt><trkpt lat="34.4330358" lon="8.7340344"><ele>241.0</ele><time>2026-04-30T19:04:32.695Z</time></trkpt><trkpt lat="34.4329666" lon="8.7342306"><ele>241.33333333333331</ele><time>2026-04-30T19:04:33.676Z</time></trkpt><trkpt lat="34.4329038" lon="8.7344187"><ele>241.66666666666669</ele><time>2026-04-30T19:04:34.677Z</time></trkpt><trkpt lat="34.43284" lon="8.7346037"><ele>242.0</ele><time>2026-04-30T19:04:35.677Z</time></trkpt><trkpt lat="34.4327768" lon="8.7347872"><ele>242.0</ele><time>2026-04-30T19:04:36.673Z</time></trkpt><trkpt lat="34.4327114" lon="8.7349685"><ele>242.0</ele><time>2026-04-30T19:04:37.681Z</time></trkpt><trkpt lat="34.4326476" lon="8.7351445"><ele>242.0</ele><time>2026-04-30T19:04:38.676Z</time></trkpt><trkpt lat="34.4325859" lon="8.7353259"><ele>242.33333333333334</ele><time>2026-04-30T19:04:39.691Z</time></trkpt><trkpt lat="34.4325204" lon="8.7355083"><ele>242.66666666666669</ele><time>2026-04-30T19:04:40.681Z</time></trkpt><trkpt lat="34.4324528" lon="8.735692"><ele>243.0</ele><time>2026-04-30T19:04:41.679Z</time></trkpt><trkpt lat="34.4323913" lon="8.7358732"><ele>243.33333333333331</ele><time>2026-04-30T19:04:42.694Z</time></trkpt><trkpt lat="34.4323238" lon="8.7360574"><ele>243.66666666666666</ele><time>2026-04-30T19:04:43.671Z</time></trkpt><trkpt lat="34.4322583" lon="8.7362429"><ele>244.0</ele><time>2026-04-30T19:04:44.699Z</time></trkpt><trkpt lat="34.4321944" lon="8.7364254"><ele>243.66666666666666</ele><time>2026-04-30T19:04:45.664Z</time></trkpt><trkpt lat="34.4321283" lon="8.7366185"><ele>243.33333333333331</ele><time>2026-04-30T19:04:46.672Z</time></trkpt><trkpt lat="34.4320617" lon="8.7368083"><ele>243.0</ele><time>2026-04-30T19:04:47.676Z</time></trkpt><trkpt lat="34.431999" lon="8.7370063"><ele>243.0</ele><time>2026-04-30T19:04:48.677Z</time></trkpt><trkpt lat="34.431933" lon="8.7371941"><ele>243.0</ele><time>2026-04-30T19:04:49.672Z</time></trkpt><trkpt lat="34.4318653" lon="8.7373892"><ele>243.0</ele><time>2026-04-30T19:04:50.691Z</time></trkpt><trkpt lat="34.4317976" lon="8.7375825"><ele>243.33333333333331</ele><time>2026-04-30T19:04:51.672Z</time></trkpt><trkpt lat="34.4317246" lon="8.7377717"><ele>243.66666666666666</ele><time>2026-04-30T19:04:52.676Z</time></trkpt><trkpt lat="34.431655" lon="8.7379605"><ele>244.0</ele><time>2026-04-30T19:04:53.67Z</time></trkpt><trkpt lat="34.4315905" lon="8.7381549"><ele>244.0</ele><time>2026-04-30T19:04:54.672Z</time></trkpt><trkpt lat="34.4315328" lon="8.7383476"><ele>244.0</ele><time>2026-04-30T19:04:55.67Z</time></trkpt><trkpt lat="34.4314655" lon="8.7385427"><ele>244.0</ele><time>2026-04-30T19:04:56.672Z</time></trkpt><trkpt lat="34.4313941" lon="8.7387407"><ele>243.66666666666666</ele><time>2026-04-30T19:04:57.673Z</time></trkpt><trkpt lat="34.4313236" lon="8.738942"><ele>243.33333333333331</ele><time>2026-04-30T19:04:58.671Z</time></trkpt><trkpt lat="34.4312543" lon="8.7391456"><ele>243.0</ele><time>2026-04-30T19:04:59.677Z</time></trkpt><trkpt lat="34.4311813" lon="8.7393463"><ele>244.33333333333331</ele><time>2026-04-30T19:05:00.675Z</time></trkpt><trkpt lat="34.4311104" lon="8.7395528"><ele>245.66666666666666</ele><time>2026-04-30T19:05:01.68Z</time></trkpt><trkpt lat="34.4310408" lon="8.7397565"><ele>247.0</ele><time>2026-04-30T19:05:02.675Z</time></trkpt><trkpt lat="34.4309658" lon="8.7399551"><ele>247.0</ele><time>2026-04-30T19:05:03.676Z</time></trkpt><trkpt lat="34.430899" lon="8.7401562"><ele>247.0</ele><time>2026-04-30T19:05:04.669Z</time></trkpt><trkpt lat="34.4308319" lon="8.7403574"><ele>247.0</ele><time>2026-04-30T19:05:05.676Z</time></trkpt><trkpt lat="34.430767" lon="8.7405496"><ele>247.33333333333331</ele><time>2026-04-30T19:05:06.675Z</time></trkpt><trkpt lat="34.4306983" lon="8.7407381"><ele>247.66666666666669</ele><time>2026-04-30T19:05:07.697Z</time></trkpt><trkpt lat="34.4306315" lon="8.7409276"><ele>248.0</ele><time>2026-04-30T19:05:08.671Z</time></trkpt><trkpt lat="34.4305662" lon="8.7411184"><ele>248.33333333333334</ele><time>2026-04-30T19:05:09.673Z</time></trkpt><trkpt lat="34.4304981" lon="8.7413017"><ele>248.66666666666669</ele><time>2026-04-30T19:05:10.677Z</time></trkpt><trkpt lat="34.4304323" lon="8.7414842"><ele>249.0</ele><time>2026-04-30T19:05:11.679Z</time></trkpt><trkpt lat="34.4303742" lon="8.741668"><ele>249.0</ele><time>2026-04-30T19:05:12.678Z</time></trkpt><trkpt lat="34.4303135" lon="8.7418395"><ele>249.0</ele><time>2026-04-30T19:05:13.676Z</time></trkpt><trkpt lat="34.4302571" lon="8.7419997"><ele>249.0</ele><time>2026-04-30T19:05:14.677Z</time></trkpt><trkpt lat="34.4302125" lon="8.7421509"><ele>249.0</ele><time>2026-04-30T19:05:15.673Z</time></trkpt><trkpt lat="34.4301705" lon="8.7422953"><ele>249.5</ele><time>2026-04-30T19:05:16.672Z</time></trkpt><trkpt lat="34.4301244" lon="8.7424192"><ele>250.0</ele><time>2026-04-30T19:05:17.676Z</time></trkpt><trkpt lat="34.430082" lon="8.7425475"><ele>250.5</ele><time>2026-04-30T19:05:18.675Z</time></trkpt><trkpt lat="34.4300357" lon="8.7426862"><ele>251.0</ele><time>2026-04-30T19:05:19.68Z</time></trkpt><trkpt lat="34.4299871" lon="8.742819"><ele>251.0</ele><time>2026-04-30T19:05:20.671Z</time></trkpt><trkpt lat="34.4299409" lon="8.7429448"><ele>251.00000000000003</ele><time>2026-04-30T19:05:21.671Z</time></trkpt><trkpt lat="34.4298968" lon="8.7430631"><ele>251.00000000000003</ele><time>2026-04-30T19:05:22.67Z</time></trkpt><trkpt lat="34.4298643" lon="8.7431575"><ele>251.0</ele><time>2026-04-30T19:05:23.695Z</time></trkpt><trkpt lat="34.4298151" lon="8.7432774"><ele>251.0</ele><time>2026-04-30T19:05:25.672Z</time></trkpt><trkpt lat="34.429772" lon="8.7433872"><ele>251.0</ele><time>2026-04-30T19:05:27.667Z</time></trkpt><trkpt lat="34.429725" lon="8.7435245"><ele>251.00000000000003</ele><time>2026-04-30T19:05:29.677Z</time></trkpt><trkpt lat="34.4296881" lon="8.7436393"><ele>251.00000000000003</ele><time>2026-04-30T19:05:31.66Z</time></trkpt><trkpt lat="34.4296458" lon="8.7437482"><ele>251.0</ele><time>2026-04-30T19:05:33.687Z</time></trkpt><trkpt lat="34.4296132" lon="8.743855"><ele>251.0</ele><time>2026-04-30T19:05:35.666Z</time></trkpt><trkpt lat="34.4295727" lon="8.7439773"><ele>251.33333333333334</ele><time>2026-04-30T19:05:37.693Z</time></trkpt><trkpt lat="34.4295356" lon="8.7440959"><ele>251.66666666666669</ele><time>2026-04-30T19:05:39.679Z</time></trkpt><trkpt lat="34.4295103" lon="8.7441972"><ele>252.0</ele><time>2026-04-30T19:05:41.676Z</time></trkpt><trkpt lat="34.4294856" lon="8.7442803"><ele>252.33333333333331</ele><time>2026-04-30T19:05:43.676Z</time></trkpt><trkpt lat="34.4294516" lon="8.7443688"><ele>252.66666666666666</ele><time>2026-04-30T19:05:45.678Z</time></trkpt><trkpt lat="34.429421" lon="8.7444614"><ele>253.0</ele><time>2026-04-30T19:05:47.674Z</time></trkpt><trkpt lat="34.429397" lon="8.7445489"><ele>253.42857142857144</ele><time>2026-04-30T19:05:49.68Z</time></trkpt><trkpt lat="34.429368" lon="8.7446217"><ele>253.85714285714286</ele><time>2026-04-30T19:05:51.678Z</time></trkpt><trkpt lat="34.429329" lon="8.7447055"><ele>254.28571428571428</ele><time>2026-04-30T19:05:54.687Z</time></trkpt><trkpt lat="34.4292909" lon="8.7447755"><ele>254.71428571428572</ele><time>2026-04-30T19:05:57.669Z</time></trkpt><trkpt lat="34.4292391" lon="8.744856"><ele>255.1428571428571</ele><time>2026-04-30T19:06:01.672Z</time></trkpt><trkpt lat="34.4292001" lon="8.7449352"><ele>255.57142857142856</ele><time>2026-04-30T19:08:05.679Z</time></trkpt><trkpt lat="34.429178" lon="8.7450147"><ele>256.0</ele><time>2026-04-30T19:08:08.675Z</time></trkpt><trkpt lat="34.4291477" lon="8.7451075"><ele>256.40000000000003</ele><time>2026-04-30T19:08:10.677Z</time></trkpt><trkpt lat="34.4291174" lon="8.7452195"><ele>256.8</ele><time>2026-04-30T19:08:12.677Z</time></trkpt><trkpt lat="34.4290906" lon="8.7453041"><ele>257.20000000000005</ele><time>2026-04-30T19:08:14.683Z</time></trkpt><trkpt lat="34.4290549" lon="8.7454059"><ele>257.6</ele><time>2026-04-30T19:08:17.702Z</time></trkpt><trkpt lat="34.4290139" lon="8.7455141"><ele>258.0</ele><time>2026-04-30T19:08:20.685Z</time></trkpt><trkpt lat="34.4289668" lon="8.7456221"><ele>258.0</ele><time>2026-04-30T19:08:22.677Z</time></trkpt><trkpt lat="34.4289342" lon="8.7457336"><ele>258.0</ele><time>2026-04-30T19:08:24.673Z</time></trkpt><trkpt lat="34.4288983" lon="8.7458483"><ele>258.0</ele><time>2026-04-30T19:08:26.681Z</time></trkpt><trkpt lat="34.4288621" lon="8.7459654"><ele>258.0</ele><time>2026-04-30T19:08:28.667Z</time></trkpt><trkpt lat="34.428827" lon="8.7460842"><ele>258.0</ele><time>2026-04-30T19:08:30.688Z</time></trkpt><trkpt lat="34.4287831" lon="8.7461974"><ele>258.2</ele><time>2026-04-30T19:08:32.673Z</time></trkpt><trkpt lat="34.4287355" lon="8.7463174"><ele>258.4</ele><time>2026-04-30T19:08:34.679Z</time></trkpt><trkpt lat="34.4286881" lon="8.7464398"><ele>258.59999999999997</ele><time>2026-04-30T19:08:36.673Z</time></trkpt><trkpt lat="34.4286499" lon="8.7465404"><ele>258.8</ele><time>2026-04-30T19:08:38.68Z</time></trkpt><trkpt lat="34.4286239" lon="8.7466272"><ele>259.0</ele><time>2026-04-30T19:08:40.68Z</time></trkpt><trkpt lat="34.4286008" lon="8.7467005"><ele>259.0</ele><time>2026-04-30T19:08:42.67Z</time></trkpt><trkpt lat="34.4285737" lon="8.7468267"><ele>259.0</ele><time>2026-04-30T19:08:44.675Z</time></trkpt><trkpt lat="34.4285274" lon="8.7469508"><ele>259.0</ele><time>2026-04-30T19:08:46.667Z</time></trkpt><trkpt lat="34.4285037" lon="8.7470242"><ele>259.0</ele><time>2026-04-30T19:08:47.673Z</time></trkpt><trkpt lat="34.4284609" lon="8.7471493"><ele>259.0</ele><time>2026-04-30T19:08:49.696Z</time></trkpt><trkpt lat="34.4284118" lon="8.7472817"><ele>259.25</ele><time>2026-04-30T19:08:51.728Z</time></trkpt><trkpt lat="34.4283615" lon="8.7474178"><ele>259.5</ele><time>2026-04-30T19:08:53.695Z</time></trkpt><trkpt lat="34.4283253" lon="8.7475476"><ele>259.75</ele><time>2026-04-30T19:08:55.705Z</time></trkpt><trkpt lat="34.4282861" lon="8.7476642"><ele>260.0</ele><time>2026-04-30T19:08:57.719Z</time></trkpt><trkpt lat="34.4282352" lon="8.7477964"><ele>260.33333333333337</ele><time>2026-04-30T19:08:59.74Z</time></trkpt><trkpt lat="34.4281875" lon="8.7479112"><ele>260.6666666666667</ele><time>2026-04-30T19:09:01.715Z</time></trkpt><trkpt lat="34.4281609" lon="8.7480222"><ele>261.0</ele><time>2026-04-30T19:09:03.73Z</time></trkpt><trkpt lat="34.4281326" lon="8.7481046"><ele>261.3333333333333</ele><time>2026-04-30T19:09:05.701Z</time></trkpt><trkpt lat="34.4281063" lon="8.7481771"><ele>261.66666666666663</ele><time>2026-04-30T19:09:07.72Z</time></trkpt><trkpt lat="34.4280715" lon="8.7482855"><ele>262.0</ele><time>2026-04-30T19:09:09.718Z</time></trkpt><trkpt lat="34.4280343" lon="8.7484191"><ele>262.0</ele><time>2026-04-30T19:09:11.719Z</time></trkpt><trkpt lat="34.4279928" lon="8.7485758"><ele>262.0</ele><time>2026-04-30T19:09:13.723Z</time></trkpt><trkpt lat="34.4279577" lon="8.7486709"><ele>262.0</ele><time>2026-04-30T19:09:14.702Z</time></trkpt><trkpt lat="34.4279238" lon="8.7487678"><ele>262.0</ele><time>2026-04-30T19:09:15.672Z</time></trkpt><trkpt lat="34.4278916" lon="8.748871"><ele>262.0</ele><time>2026-04-30T19:09:16.773Z</time></trkpt><trkpt lat="34.4278565" lon="8.7489677"><ele>261.8333333333333</ele><time>2026-04-30T19:09:17.727Z</time></trkpt><trkpt lat="34.4278246" lon="8.7490662"><ele>261.66666666666663</ele><time>2026-04-30T19:09:18.733Z</time></trkpt><trkpt lat="34.4277926" lon="8.7491683"><ele>261.5</ele><time>2026-04-30T19:09:19.73Z</time></trkpt><trkpt lat="34.4277616" lon="8.7492658"><ele>261.3333333333333</ele><time>2026-04-30T19:09:20.721Z</time></trkpt><trkpt lat="34.4277275" lon="8.7493622"><ele>261.1666666666667</ele><time>2026-04-30T19:09:21.72Z</time></trkpt><trkpt lat="34.4276981" lon="8.7494551"><ele>261.0</ele><time>2026-04-30T19:09:22.715Z</time></trkpt><trkpt lat="34.427671" lon="8.7495519"><ele>261.0</ele><time>2026-04-30T19:09:23.725Z</time></trkpt><trkpt lat="34.4276386" lon="8.7496528"><ele>261.0</ele><time>2026-04-30T19:09:24.719Z</time></trkpt><trkpt lat="34.427606" lon="8.7497484"><ele>261.0</ele><time>2026-04-30T19:09:25.721Z</time></trkpt><trkpt lat="34.4275724" lon="8.7498446"><ele>261.0</ele><time>2026-04-30T19:09:26.723Z</time></trkpt><trkpt lat="34.4275373" lon="8.749946"><ele>261.0</ele><time>2026-04-30T19:09:27.725Z</time></trkpt><trkpt lat="34.4274984" lon="8.7500446"><ele>261.0</ele><time>2026-04-30T19:09:28.709Z</time></trkpt><trkpt lat="34.427459" lon="8.7501366"><ele>261.40000000000003</ele><time>2026-04-30T19:09:29.724Z</time></trkpt><trkpt lat="34.4274248" lon="8.750237"><ele>261.8</ele><time>2026-04-30T19:09:30.73Z</time></trkpt><trkpt lat="34.4273878" lon="8.7503376"><ele>262.20000000000005</ele><time>2026-04-30T19:09:31.721Z</time></trkpt><trkpt lat="34.4273504" lon="8.7504428"><ele>262.6</ele><time>2026-04-30T19:09:32.725Z</time></trkpt><trkpt lat="34.4273092" lon="8.7505454"><ele>263.0</ele><time>2026-04-30T19:09:33.719Z</time></trkpt><trkpt lat="34.4272716" lon="8.7506506"><ele>263.0</ele><time>2026-04-30T19:09:34.711Z</time></trkpt><trkpt lat="34.4272334" lon="8.750757"><ele>263.0</ele><time>2026-04-30T19:09:35.729Z</time></trkpt><trkpt lat="34.4272009" lon="8.7508655"><ele>263.0</ele><time>2026-04-30T19:09:36.683Z</time></trkpt><trkpt lat="34.4271622" lon="8.7509714"><ele>263.0</ele><time>2026-04-30T19:09:37.722Z</time></trkpt><trkpt lat="34.4271274" lon="8.7510695"><ele>263.0</ele><time>2026-04-30T19:09:38.724Z</time></trkpt><trkpt lat="34.4270964" lon="8.751166"><ele>263.5</ele><time>2026-04-30T19:09:39.725Z</time></trkpt><trkpt lat="34.4270631" lon="8.7512618"><ele>264.0</ele><time>2026-04-30T19:09:40.718Z</time></trkpt><trkpt lat="34.4270248" lon="8.7513535"><ele>264.5</ele><time>2026-04-30T19:09:41.688Z</time></trkpt><trkpt lat="34.4269855" lon="8.7514526"><ele>265.0</ele><time>2026-04-30T19:09:42.718Z</time></trkpt><trkpt lat="34.4269505" lon="8.7515592"><ele>265.5</ele><time>2026-04-30T19:09:43.699Z</time></trkpt><trkpt lat="34.4269152" lon="8.7516609"><ele>266.0</ele><time>2026-04-30T19:09:44.717Z</time></trkpt><trkpt lat="34.4268766" lon="8.7517636"><ele>266.0</ele><time>2026-04-30T19:09:45.703Z</time></trkpt><trkpt lat="34.4268394" lon="8.7518681"><ele>266.0</ele><time>2026-04-30T19:09:46.725Z</time></trkpt><trkpt lat="34.4268032" lon="8.7519665"><ele>266.0</ele><time>2026-04-30T19:09:47.724Z</time></trkpt><trkpt lat="34.4267704" lon="8.7520523"><ele>266.0</ele><time>2026-04-30T19:09:48.714Z</time></trkpt><trkpt lat="34.4267445" lon="8.7521312"><ele>266.0</ele><time>2026-04-30T19:09:49.736Z</time></trkpt><trkpt lat="34.426708" lon="8.7522504"><ele>266.0</ele><time>2026-04-30T19:09:51.689Z</time></trkpt><trkpt lat="34.4266615" lon="8.7523862"><ele>266.1666666666667</ele><time>2026-04-30T19:09:53.707Z</time></trkpt><trkpt lat="34.4266304" lon="8.7524654"><ele>266.33333333333337</ele><time>2026-04-30T19:09:54.69Z</time></trkpt><trkpt lat="34.4265974" lon="8.7525538"><ele>266.5</ele><time>2026-04-30T19:09:55.711Z</time></trkpt><trkpt lat="34.4265659" lon="8.7526473"><ele>266.6666666666667</ele><time>2026-04-30T19:09:56.723Z</time></trkpt><trkpt lat="34.426531" lon="8.7527508"><ele>266.8333333333333</ele><time>2026-04-30T19:09:57.726Z</time></trkpt><trkpt lat="34.4264973" lon="8.7528638"><ele>267.0</ele><time>2026-04-30T19:09:58.717Z</time></trkpt><trkpt lat="34.4264584" lon="8.7529731"><ele>267.4</ele><time>2026-04-30T19:09:59.702Z</time></trkpt><trkpt lat="34.426421" lon="8.7530881"><ele>267.79999999999995</ele><time>2026-04-30T19:10:00.706Z</time></trkpt><trkpt lat="34.4263746" lon="8.7532024"><ele>268.2</ele><time>2026-04-30T19:10:01.722Z</time></trkpt><trkpt lat="34.4263309" lon="8.7533077"><ele>268.59999999999997</ele><time>2026-04-30T19:10:02.707Z</time></trkpt><trkpt lat="34.4262951" lon="8.7534156"><ele>269.0</ele><time>2026-04-30T19:10:03.734Z</time></trkpt><trkpt lat="34.4262561" lon="8.7535253"><ele>269.2</ele><time>2026-04-30T19:10:04.719Z</time></trkpt><trkpt lat="34.4262193" lon="8.7536351"><ele>269.4</ele><time>2026-04-30T19:10:05.696Z</time></trkpt><trkpt lat="34.426178" lon="8.7537536"><ele>269.6</ele><time>2026-04-30T19:10:06.716Z</time></trkpt><trkpt lat="34.4261418" lon="8.7538671"><ele>269.8</ele><time>2026-04-30T19:10:07.695Z</time></trkpt><trkpt lat="34.4260983" lon="8.7539748"><ele>270.0</ele><time>2026-04-30T19:10:08.723Z</time></trkpt><trkpt lat="34.4260614" lon="8.7540804"><ele>270.0</ele><time>2026-04-30T19:10:09.73Z</time></trkpt><trkpt lat="34.4260279" lon="8.7541903"><ele>270.0</ele><time>2026-04-30T19:10:10.713Z</time></trkpt><trkpt lat="34.4259899" lon="8.7543048"><ele>270.0</ele><time>2026-04-30T19:10:11.717Z</time></trkpt><trkpt lat="34.4259466" lon="8.7544132"><ele>270.0</ele><time>2026-04-30T19:10:12.721Z</time></trkpt><trkpt lat="34.4259025" lon="8.7545247"><ele>270.0</ele><time>2026-04-30T19:10:13.696Z</time></trkpt><trkpt lat="34.4258605" lon="8.7546393"><ele>269.8</ele><time>2026-04-30T19:10:14.72Z</time></trkpt><trkpt lat="34.4258184" lon="8.754755"><ele>269.6</ele><time>2026-04-30T19:10:15.696Z</time></trkpt><trkpt lat="34.4257809" lon="8.7548771"><ele>269.4</ele><time>2026-04-30T19:10:16.74Z</time></trkpt><trkpt lat="34.4257365" lon="8.755"><ele>269.2</ele><time>2026-04-30T19:10:17.719Z</time></trkpt><trkpt lat="34.4256877" lon="8.7551259"><ele>269.0</ele><time>2026-04-30T19:10:18.719Z</time></trkpt><trkpt lat="34.4256374" lon="8.7552461"><ele>269.8</ele><time>2026-04-30T19:10:19.733Z</time></trkpt><trkpt lat="34.4255853" lon="8.7553735"><ele>270.59999999999997</ele><time>2026-04-30T19:10:20.712Z</time></trkpt><trkpt lat="34.4255422" lon="8.7554981"><ele>271.4</ele><time>2026-04-30T19:10:21.725Z</time></trkpt><trkpt lat="34.425502" lon="8.7556175"><ele>272.2</ele><time>2026-04-30T19:10:22.721Z</time></trkpt><trkpt lat="34.4254666" lon="8.7557416"><ele>273.0</ele><time>2026-04-30T19:10:23.722Z</time></trkpt><trkpt lat="34.4254292" lon="8.755849"><ele>273.0</ele><time>2026-04-30T19:10:24.679Z</time></trkpt><trkpt lat="34.4253941" lon="8.7559614"><ele>273.0</ele><time>2026-04-30T19:10:25.723Z</time></trkpt><trkpt lat="34.4253586" lon="8.7560653"><ele>273.0</ele><time>2026-04-30T19:10:26.732Z</time></trkpt><trkpt lat="34.4253195" lon="8.7561727"><ele>273.0</ele><time>2026-04-30T19:10:27.692Z</time></trkpt><trkpt lat="34.4252792" lon="8.756288"><ele>273.0</ele><time>2026-04-30T19:10:28.718Z</time></trkpt><trkpt lat="34.4252415" lon="8.7564019"><ele>273.2</ele><time>2026-04-30T19:10:29.709Z</time></trkpt><trkpt lat="34.425201" lon="8.7565198"><ele>273.4</ele><time>2026-04-30T19:10:30.728Z</time></trkpt><trkpt lat="34.4251648" lon="8.7566339"><ele>273.59999999999997</ele><time>2026-04-30T19:10:31.732Z</time></trkpt><trkpt lat="34.4251325" lon="8.7567447"><ele>273.8</ele><time>2026-04-30T19:10:32.705Z</time></trkpt><trkpt lat="34.4250944" lon="8.7568532"><ele>274.0</ele><time>2026-04-30T19:10:33.695Z</time></trkpt><trkpt lat="34.4250526" lon="8.7569648"><ele>274.2</ele><time>2026-04-30T19:10:34.738Z</time></trkpt><trkpt lat="34.425016" lon="8.7570786"><ele>274.4</ele><time>2026-04-30T19:10:35.699Z</time></trkpt><trkpt lat="34.4249779" lon="8.7571905"><ele>274.6</ele><time>2026-04-30T19:10:36.721Z</time></trkpt><trkpt lat="34.4249431" lon="8.7573023"><ele>274.8</ele><time>2026-04-30T19:10:37.713Z</time></trkpt><trkpt lat="34.4249052" lon="8.7574143"><ele>275.0</ele><time>2026-04-30T19:10:38.722Z</time></trkpt><trkpt lat="34.424868" lon="8.7575271"><ele>275.0</ele><time>2026-04-30T19:10:39.725Z</time></trkpt><trkpt lat="34.4248311" lon="8.7576456"><ele>275.0</ele><time>2026-04-30T19:10:40.73Z</time></trkpt><trkpt lat="34.4247934" lon="8.7577555"><ele>275.0</ele><time>2026-04-30T19:10:41.725Z</time></trkpt><trkpt lat="34.4247566" lon="8.7578584"><ele>275.0</ele><time>2026-04-30T19:10:42.732Z</time></trkpt><trkpt lat="34.4247218" lon="8.75795"><ele>275.0</ele><time>2026-04-30T19:10:43.704Z</time></trkpt><trkpt lat="34.4246909" lon="8.7580235"><ele>275.0</ele><time>2026-04-30T19:10:44.715Z</time></trkpt><trkpt lat="34.4246503" lon="8.758137"><ele>274.83333333333337</ele><time>2026-04-30T19:10:46.8Z</time></trkpt><trkpt lat="34.4246259" lon="8.7582147"><ele>274.6666666666667</ele><time>2026-04-30T19:10:48.772Z</time></trkpt><trkpt lat="34.4246031" lon="8.7582866"><ele>274.5</ele><time>2026-04-30T19:10:50.778Z</time></trkpt><trkpt lat="34.4245788" lon="8.7583868"><ele>274.3333333333333</ele><time>2026-04-30T19:10:52.761Z</time></trkpt><trkpt lat="34.4245517" lon="8.7584593"><ele>274.16666666666663</ele><time>2026-04-30T19:10:54.797Z</time></trkpt><trkpt lat="34.4245259" lon="8.7585373"><ele>274.0</ele><time>2026-04-30T19:10:57.784Z</time></trkpt><trkpt lat="34.4244738" lon="8.758645"><ele>274.59999999999997</ele><time>2026-04-30T19:11:06.73Z</time></trkpt><trkpt lat="34.4244436" lon="8.7587508"><ele>275.2</ele><time>2026-04-30T19:11:08.719Z</time></trkpt><trkpt lat="34.4244098" lon="8.7588415"><ele>275.79999999999995</ele><time>2026-04-30T19:11:10.702Z</time></trkpt><trkpt lat="34.4243808" lon="8.7589487"><ele>276.4</ele><time>2026-04-30T19:11:12.725Z</time></trkpt><trkpt lat="34.424337" lon="8.7590658"><ele>277.0</ele><time>2026-04-30T19:11:14.705Z</time></trkpt><trkpt lat="34.4242959" lon="8.7592035"><ele>277.0</ele><time>2026-04-30T19:11:16.72Z</time></trkpt><trkpt lat="34.4242549" lon="8.7593423"><ele>277.0</ele><time>2026-04-30T19:11:18.733Z</time></trkpt><trkpt lat="34.4242287" lon="8.7594201"><ele>277.0</ele><time>2026-04-30T19:11:19.712Z</time></trkpt><trkpt lat="34.424204" lon="8.7595048"><ele>277.0</ele><time>2026-04-30T19:11:20.719Z</time></trkpt><trkpt lat="34.4241775" lon="8.7595891"><ele>277.0</ele><time>2026-04-30T19:11:21.726Z</time></trkpt><trkpt lat="34.4241477" lon="8.7596733"><ele>277.0</ele><time>2026-04-30T19:11:22.705Z</time></trkpt><trkpt lat="34.424123" lon="8.759761"><ele>277.2857142857143</ele><time>2026-04-30T19:11:23.719Z</time></trkpt><trkpt lat="34.4240983" lon="8.7598479"><ele>277.57142857142856</ele><time>2026-04-30T19:11:24.699Z</time></trkpt><trkpt lat="34.4240722" lon="8.7599269"><ele>277.85714285714283</ele><time>2026-04-30T19:11:25.729Z</time></trkpt><trkpt lat="34.4240451" lon="8.7600092"><ele>278.1428571428571</ele><time>2026-04-30T19:11:26.713Z</time></trkpt><trkpt lat="34.4240226" lon="8.7600887"><ele>278.42857142857144</ele><time>2026-04-30T19:11:27.722Z</time></trkpt><trkpt lat="34.4240045" lon="8.7601692"><ele>278.71428571428567</ele><time>2026-04-30T19:11:28.727Z</time></trkpt><trkpt lat="34.4239818" lon="8.7602477"><ele>279.0</ele><time>2026-04-30T19:11:29.722Z</time></trkpt><trkpt lat="34.423956" lon="8.7603225"><ele>279.0</ele><time>2026-04-30T19:11:30.722Z</time></trkpt><trkpt lat="34.4239299" lon="8.760401"><ele>279.0</ele><time>2026-04-30T19:11:31.726Z</time></trkpt><trkpt lat="34.423903" lon="8.7604867"><ele>279.0</ele><time>2026-04-30T19:11:32.698Z</time></trkpt><trkpt lat="34.4238748" lon="8.7605726"><ele>279.0</ele><time>2026-04-30T19:11:33.717Z</time></trkpt><trkpt lat="34.4238399" lon="8.7606535"><ele>279.0</ele><time>2026-04-30T19:11:34.748Z</time></trkpt><trkpt lat="34.4238091" lon="8.7607407"><ele>279.0</ele><time>2026-04-30T19:11:35.729Z</time></trkpt><trkpt lat="34.4237805" lon="8.7608357"><ele>279.0</ele><time>2026-04-30T19:11:36.725Z</time></trkpt><trkpt lat="34.4237539" lon="8.7609325"><ele>279.0</ele><time>2026-04-30T19:11:37.721Z</time></trkpt><trkpt lat="34.4237245" lon="8.7610301"><ele>279.0</ele><time>2026-04-30T19:11:38.672Z</time></trkpt><trkpt lat="34.423692" lon="8.7611291"><ele>279.0</ele><time>2026-04-30T19:11:39.709Z</time></trkpt><trkpt lat="34.4236632" lon="8.7612142"><ele>279.0</ele><time>2026-04-30T19:11:40.663Z</time></trkpt><trkpt lat="34.4236333" lon="8.7612985"><ele>279.0</ele><time>2026-04-30T19:11:41.721Z</time></trkpt><trkpt lat="34.4236088" lon="8.7613815"><ele>279.5</ele><time>2026-04-30T19:11:42.679Z</time></trkpt><trkpt lat="34.4235781" lon="8.7614504"><ele>280.0</ele><time>2026-04-30T19:11:43.671Z</time></trkpt><trkpt lat="34.4235407" lon="8.7615145"><ele>280.5</ele><time>2026-04-30T19:11:44.676Z</time></trkpt><trkpt lat="34.4234697" lon="8.7615962"><ele>281.0</ele><time>2026-04-30T19:11:46.708Z</time></trkpt><trkpt lat="34.4233974" lon="8.7616547"><ele>281.5</ele><time>2026-04-30T19:11:48.7Z</time></trkpt><trkpt lat="34.4233191" lon="8.7616825"><ele>282.0</ele><time>2026-04-30T19:11:50.719Z</time></trkpt><trkpt lat="34.4232449" lon="8.761697"><ele>282.0</ele><time>2026-04-30T19:11:52.716Z</time></trkpt><trkpt lat="34.4231633" lon="8.7617274"><ele>282.0</ele><time>2026-04-30T19:11:54.694Z</time></trkpt><trkpt lat="34.4231106" lon="8.7618144"><ele>282.0</ele><time>2026-04-30T19:11:56.729Z</time></trkpt><trkpt lat="34.4230756" lon="8.761935"><ele>282.0</ele><time>2026-04-30T19:11:58.703Z</time></trkpt><trkpt lat="34.4230573" lon="8.7620828"><ele>282.0</ele><time>2026-04-30T19:12:00.677Z</time></trkpt><trkpt lat="34.4230517" lon="8.7621697"><ele>281.8333333333333</ele><time>2026-04-30T19:12:01.714Z</time></trkpt><trkpt lat="34.4230443" lon="8.7622584"><ele>281.6666666666667</ele><time>2026-04-30T19:12:02.715Z</time></trkpt><trkpt lat="34.4230406" lon="8.7623511"><ele>281.5</ele><time>2026-04-30T19:12:03.694Z</time></trkpt><trkpt lat="34.4230287" lon="8.7624448"><ele>281.33333333333337</ele><time>2026-04-30T19:12:04.703Z</time></trkpt><trkpt lat="34.4230167" lon="8.7625421"><ele>281.1666666666667</ele><time>2026-04-30T19:12:05.71Z</time></trkpt><trkpt lat="34.4230106" lon="8.7626406"><ele>281.0</ele><time>2026-04-30T19:12:06.715Z</time></trkpt><trkpt lat="34.4230034" lon="8.7627341"><ele>281.0</ele><time>2026-04-30T19:12:07.685Z</time></trkpt><trkpt lat="34.4229908" lon="8.7628192"><ele>281.0</ele><time>2026-04-30T19:12:08.719Z</time></trkpt><trkpt lat="34.422979" lon="8.762906"><ele>281.0</ele><time>2026-04-30T19:12:09.692Z</time></trkpt><trkpt lat="34.4229663" lon="8.7629949"><ele>281.0</ele><time>2026-04-30T19:12:10.702Z</time></trkpt><trkpt lat="34.4229509" lon="8.7630945"><ele>281.0</ele><time>2026-04-30T19:12:11.663Z</time></trkpt><trkpt lat="34.4229327" lon="8.7631891"><ele>281.0</ele><time>2026-04-30T19:12:12.719Z</time></trkpt><trkpt lat="34.422917" lon="8.7632817"><ele>280.83333333333337</ele><time>2026-04-30T19:12:13.706Z</time></trkpt><trkpt lat="34.4228986" lon="8.7633752"><ele>280.6666666666667</ele><time>2026-04-30T19:12:14.696Z</time></trkpt><trkpt lat="34.4228811" lon="8.7634665"><ele>280.5</ele><time>2026-04-30T19:12:15.674Z</time></trkpt><trkpt lat="34.4228675" lon="8.7635532"><ele>280.3333333333333</ele><time>2026-04-30T19:12:16.669Z</time></trkpt><trkpt lat="34.4228481" lon="8.7636447"><ele>280.16666666666663</ele><time>2026-04-30T19:12:17.686Z</time></trkpt><trkpt lat="34.422829" lon="8.7637402"><ele>280.0</ele><time>2026-04-30T19:12:18.714Z</time></trkpt><trkpt lat="34.4228121" lon="8.7638291"><ele>280.3333333333333</ele><time>2026-04-30T19:12:19.709Z</time></trkpt><trkpt lat="34.4227957" lon="8.7639222"><ele>280.66666666666663</ele><time>2026-04-30T19:12:20.686Z</time></trkpt><trkpt lat="34.422783" lon="8.7640201"><ele>281.0</ele><time>2026-04-30T19:12:21.71Z</time></trkpt><trkpt lat="34.42277" lon="8.7641157"><ele>281.3333333333333</ele><time>2026-04-30T19:12:22.697Z</time></trkpt><trkpt lat="34.4227546" lon="8.7642093"><ele>281.6666666666667</ele><time>2026-04-30T19:12:23.702Z</time></trkpt><trkpt lat="34.4227346" lon="8.764304"><ele>282.0</ele><time>2026-04-30T19:12:24.7Z</time></trkpt><trkpt lat="34.4227234" lon="8.7643917"><ele>282.14285714285717</ele><time>2026-04-30T19:12:25.697Z</time></trkpt><trkpt lat="34.4227064" lon="8.7644741"><ele>282.2857142857143</ele><time>2026-04-30T19:12:26.686Z</time></trkpt><trkpt lat="34.4226926" lon="8.7645517"><ele>282.42857142857144</ele><time>2026-04-30T19:12:27.685Z</time></trkpt><trkpt lat="34.4226758" lon="8.7646325"><ele>282.57142857142856</ele><time>2026-04-30T19:12:28.688Z</time></trkpt><trkpt lat="34.4226576" lon="8.7647215"><ele>282.7142857142857</ele><time>2026-04-30T19:12:29.684Z</time></trkpt><trkpt lat="34.4226397" lon="8.7648095"><ele>282.8571428571429</ele><time>2026-04-30T19:12:30.682Z</time></trkpt><trkpt lat="34.4226253" lon="8.7649011"><ele>283.0</ele><time>2026-04-30T19:12:31.692Z</time></trkpt><trkpt lat="34.4226074" lon="8.7649927"><ele>283.0</ele><time>2026-04-30T19:12:32.69Z</time></trkpt><trkpt lat="34.4225891" lon="8.765088"><ele>283.0</ele><time>2026-04-30T19:12:33.721Z</time></trkpt><trkpt lat="34.4225789" lon="8.7651822"><ele>283.0</ele><time>2026-04-30T19:12:34.741Z</time></trkpt><trkpt lat="34.4225636" lon="8.7652739"><ele>283.0</ele><time>2026-04-30T19:12:35.703Z</time></trkpt><trkpt lat="34.4225483" lon="8.7653647"><ele>283.0</ele><time>2026-04-30T19:12:36.709Z</time></trkpt><trkpt lat="34.4225349" lon="8.765451"><ele>283.0</ele><time>2026-04-30T19:12:37.7Z</time></trkpt><trkpt lat="34.4225197" lon="8.7655451"><ele>283.0</ele><time>2026-04-30T19:12:38.722Z</time></trkpt><trkpt lat="34.4225023" lon="8.7656358"><ele>283.0</ele><time>2026-04-30T19:12:39.695Z</time></trkpt><trkpt lat="34.4224913" lon="8.7657292"><ele>283.0</ele><time>2026-04-30T19:12:40.721Z</time></trkpt><trkpt lat="34.42247" lon="8.765824"><ele>283.0</ele><time>2026-04-30T19:12:41.695Z</time></trkpt><trkpt lat="34.4224508" lon="8.7659181"><ele>283.0</ele><time>2026-04-30T19:12:42.684Z</time></trkpt><trkpt lat="34.4224328" lon="8.7660102"><ele>283.0</ele><time>2026-04-30T19:12:43.724Z</time></trkpt><trkpt lat="34.4224179" lon="8.7660993"><ele>283.0</ele><time>2026-04-30T19:12:44.693Z</time></trkpt><trkpt lat="34.4224087" lon="8.7661795"><ele>283.0</ele><time>2026-04-30T19:12:45.676Z</time></trkpt><trkpt lat="34.4223959" lon="8.7662684"><ele>283.0</ele><time>2026-04-30T19:12:46.712Z</time></trkpt><trkpt lat="34.4223841" lon="8.7663512"><ele>283.0</ele><time>2026-04-30T19:12:47.726Z</time></trkpt><trkpt lat="34.422368" lon="8.7664304"><ele>283.0</ele><time>2026-04-30T19:12:48.749Z</time></trkpt><trkpt lat="34.422352" lon="8.766513"><ele>283.0</ele><time>2026-04-30T19:12:49.693Z</time></trkpt><trkpt lat="34.4223316" lon="8.7665905"><ele>283.0</ele><time>2026-04-30T19:12:50.688Z</time></trkpt><trkpt lat="34.4223136" lon="8.7666676"><ele>283.0</ele><time>2026-04-30T19:12:51.697Z</time></trkpt><trkpt lat="34.4222965" lon="8.7667418"><ele>283.0</ele><time>2026-04-30T19:12:52.696Z</time></trkpt><trkpt lat="34.4222666" lon="8.7668981"><ele>283.0</ele><time>2026-04-30T19:12:54.715Z</time></trkpt><trkpt lat="34.4222484" lon="8.7669847"><ele>283.0</ele><time>2026-04-30T19:12:55.706Z</time></trkpt><trkpt lat="34.4222273" lon="8.7670784"><ele>283.0</ele><time>2026-04-30T19:12:56.723Z</time></trkpt><trkpt lat="34.4222111" lon="8.7671711"><ele>283.0</ele><time>2026-04-30T19:12:57.704Z</time></trkpt><trkpt lat="34.4221955" lon="8.7672617"><ele>283.0</ele><time>2026-04-30T19:12:58.71Z</time></trkpt><trkpt lat="34.4221794" lon="8.767349"><ele>283.0</ele><time>2026-04-30T19:12:59.695Z</time></trkpt><trkpt lat="34.4221615" lon="8.7674397"><ele>283.0</ele><time>2026-04-30T19:13:00.681Z</time></trkpt><trkpt lat="34.4221433" lon="8.7675321"><ele>283.0</ele><time>2026-04-30T19:13:01.719Z</time></trkpt><trkpt lat="34.4221214" lon="8.7676222"><ele>283.0</ele><time>2026-04-30T19:13:02.711Z</time></trkpt><trkpt lat="34.4220944" lon="8.7677114"><ele>283.0</ele><time>2026-04-30T19:13:03.718Z</time></trkpt><trkpt lat="34.4220735" lon="8.7678026"><ele>283.0</ele><time>2026-04-30T19:13:04.714Z</time></trkpt><trkpt lat="34.4220511" lon="8.7678939"><ele>283.0</ele><time>2026-04-30T19:13:05.702Z</time></trkpt><trkpt lat="34.4220284" lon="8.7679919"><ele>283.0</ele><time>2026-04-30T19:13:06.722Z</time></trkpt><trkpt lat="34.4220077" lon="8.7680961"><ele>283.0</ele><time>2026-04-30T19:13:07.718Z</time></trkpt><trkpt lat="34.4219842" lon="8.768203"><ele>283.0</ele><time>2026-04-30T19:13:08.729Z</time></trkpt><trkpt lat="34.4219605" lon="8.7683055"><ele>283.0</ele><time>2026-04-30T19:13:09.723Z</time></trkpt><trkpt lat="34.4219369" lon="8.7684135"><ele>283.0</ele><time>2026-04-30T19:13:10.712Z</time></trkpt><trkpt lat="34.4219094" lon="8.7685185"><ele>283.0</ele><time>2026-04-30T19:13:11.724Z</time></trkpt><trkpt lat="34.4218812" lon="8.7686191"><ele>283.0</ele><time>2026-04-30T19:13:12.727Z</time></trkpt><trkpt lat="34.4218574" lon="8.7687276"><ele>283.0</ele><time>2026-04-30T19:13:13.714Z</time></trkpt><trkpt lat="34.4218325" lon="8.768834"><ele>283.0</ele><time>2026-04-30T19:13:14.7Z</time></trkpt><trkpt lat="34.4218068" lon="8.7689407"><ele>283.3333333333333</ele><time>2026-04-30T19:13:15.669Z</time></trkpt><trkpt lat="34.4217832" lon="8.7690484"><ele>283.66666666666663</ele><time>2026-04-30T19:13:16.715Z</time></trkpt><trkpt lat="34.4217567" lon="8.7691546"><ele>284.0</ele><time>2026-04-30T19:13:17.723Z</time></trkpt><trkpt lat="34.4217299" lon="8.7692561"><ele>284.3333333333333</ele><time>2026-04-30T19:13:18.695Z</time></trkpt><trkpt lat="34.4217027" lon="8.7693575"><ele>284.6666666666667</ele><time>2026-04-30T19:13:19.717Z</time></trkpt><trkpt lat="34.4216781" lon="8.7694514"><ele>285.0</ele><time>2026-04-30T19:13:20.695Z</time></trkpt><trkpt lat="34.4216538" lon="8.7695435"><ele>285.1666666666667</ele><time>2026-04-30T19:13:21.682Z</time></trkpt><trkpt lat="34.4216256" lon="8.7696328"><ele>285.3333333333333</ele><time>2026-04-30T19:13:22.71Z</time></trkpt><trkpt lat="34.4216043" lon="8.7697157"><ele>285.5</ele><time>2026-04-30T19:13:23.717Z</time></trkpt><trkpt lat="34.4215852" lon="8.7697975"><ele>285.66666666666663</ele><time>2026-04-30T19:13:24.711Z</time></trkpt><trkpt lat="34.4215635" lon="8.769873"><ele>285.8333333333333</ele><time>2026-04-30T19:13:25.67Z</time></trkpt><trkpt lat="34.4215337" lon="8.7700139"><ele>286.0</ele><time>2026-04-30T19:13:27.711Z</time></trkpt><trkpt lat="34.4215091" lon="8.7701424"><ele>285.16666666666663</ele><time>2026-04-30T19:13:29.684Z</time></trkpt><trkpt lat="34.4214799" lon="8.7702554"><ele>284.3333333333333</ele><time>2026-04-30T19:13:31.705Z</time></trkpt><trkpt lat="34.4214577" lon="8.7703501"><ele>283.5</ele><time>2026-04-30T19:13:33.722Z</time></trkpt><trkpt lat="34.421433" lon="8.7704458"><ele>282.6666666666667</ele><time>2026-04-30T19:13:35.698Z</time></trkpt><trkpt lat="34.4214124" lon="8.7705348"><ele>281.83333333333337</ele><time>2026-04-30T19:13:37.718Z</time></trkpt><trkpt lat="34.4213949" lon="8.7706129"><ele>281.0</ele><time>2026-04-30T19:13:39.711Z</time></trkpt><trkpt lat="34.4213652" lon="8.7706931"><ele>281.0</ele><time>2026-04-30T19:13:41.713Z</time></trkpt><trkpt lat="34.4213251" lon="8.7707836"><ele>281.0</ele><time>2026-04-30T19:13:43.724Z</time></trkpt><trkpt lat="34.4212883" lon="8.7709079"><ele>281.0</ele><time>2026-04-30T19:13:45.671Z</time></trkpt><trkpt lat="34.4212545" lon="8.7710405"><ele>281.0</ele><time>2026-04-30T19:13:47.725Z</time></trkpt><trkpt lat="34.4212391" lon="8.7711167"><ele>281.0</ele><time>2026-04-30T19:13:48.724Z</time></trkpt><trkpt lat="34.4212209" lon="8.771195"><ele>281.0</ele><time>2026-04-30T19:13:49.727Z</time></trkpt><trkpt lat="34.4211985" lon="8.771279"><ele>281.5</ele><time>2026-04-30T19:13:50.716Z</time></trkpt><trkpt lat="34.4211815" lon="8.7713687"><ele>282.0</ele><time>2026-04-30T19:13:51.717Z</time></trkpt><trkpt lat="34.4211663" lon="8.7714595"><ele>282.5</ele><time>2026-04-30T19:13:52.719Z</time></trkpt><trkpt lat="34.4211526" lon="8.7715461"><ele>283.0</ele><time>2026-04-30T19:13:53.718Z</time></trkpt><trkpt lat="34.4211397" lon="8.7716364"><ele>283.5</ele><time>2026-04-30T19:13:54.723Z</time></trkpt><trkpt lat="34.4211301" lon="8.7717284"><ele>284.0</ele><time>2026-04-30T19:13:55.713Z</time></trkpt><trkpt lat="34.421119" lon="8.7718244"><ele>284.0</ele><time>2026-04-30T19:13:56.676Z</time></trkpt><trkpt lat="34.4211121" lon="8.771921"><ele>284.0</ele><time>2026-04-30T19:13:57.699Z</time></trkpt><trkpt lat="34.4211024" lon="8.7720155"><ele>284.0</ele><time>2026-04-30T19:13:58.693Z</time></trkpt><trkpt lat="34.4210982" lon="8.7721109"><ele>284.0</ele><time>2026-04-30T19:13:59.692Z</time></trkpt><trkpt lat="34.4210966" lon="8.7722037"><ele>284.0</ele><time>2026-04-30T19:14:00.674Z</time></trkpt><trkpt lat="34.4210913" lon="8.7722987"><ele>284.0</ele><time>2026-04-30T19:14:01.688Z</time></trkpt><trkpt lat="34.421084" lon="8.7723999"><ele>284.0</ele><time>2026-04-30T19:14:02.692Z</time></trkpt><trkpt lat="34.4210759" lon="8.7725082"><ele>284.0</ele><time>2026-04-30T19:14:03.685Z</time></trkpt><trkpt lat="34.4210682" lon="8.77261"><ele>284.0</ele><time>2026-04-30T19:14:04.708Z</time></trkpt><trkpt lat="34.4210621" lon="8.7727226"><ele>284.0</ele><time>2026-04-30T19:14:05.707Z</time></trkpt><trkpt lat="34.4210551" lon="8.7728387"><ele>284.0</ele><time>2026-04-30T19:14:06.689Z</time></trkpt><trkpt lat="34.4210509" lon="8.7729509"><ele>284.2</ele><time>2026-04-30T19:14:07.709Z</time></trkpt><trkpt lat="34.4210435" lon="8.7730643"><ele>284.4</ele><time>2026-04-30T19:14:08.703Z</time></trkpt><trkpt lat="34.4210356" lon="8.7731826"><ele>284.6</ele><time>2026-04-30T19:14:09.719Z</time></trkpt><trkpt lat="34.4210314" lon="8.7733043"><ele>284.8</ele><time>2026-04-30T19:14:10.69Z</time></trkpt><trkpt lat="34.4210237" lon="8.7734257"><ele>285.0</ele><time>2026-04-30T19:14:11.716Z</time></trkpt><trkpt lat="34.4210201" lon="8.7735409"><ele>285.8</ele><time>2026-04-30T19:14:12.701Z</time></trkpt><trkpt lat="34.4210133" lon="8.773651"><ele>286.6</ele><time>2026-04-30T19:14:13.703Z</time></trkpt><trkpt lat="34.4210112" lon="8.7737661"><ele>287.4</ele><time>2026-04-30T19:14:14.714Z</time></trkpt><trkpt lat="34.4210071" lon="8.7738846"><ele>288.2</ele><time>2026-04-30T19:14:15.719Z</time></trkpt><trkpt lat="34.4210026" lon="8.7740076"><ele>289.0</ele><time>2026-04-30T19:14:16.717Z</time></trkpt><trkpt lat="34.4209955" lon="8.7741394"><ele>289.0</ele><time>2026-04-30T19:14:17.705Z</time></trkpt><trkpt lat="34.4209871" lon="8.7742706"><ele>289.0</ele><time>2026-04-30T19:14:18.71Z</time></trkpt><trkpt lat="34.4209773" lon="8.774401"><ele>289.0</ele><time>2026-04-30T19:14:19.683Z</time></trkpt><trkpt lat="34.4209666" lon="8.7745325"><ele>289.0</ele><time>2026-04-30T19:14:20.705Z</time></trkpt><trkpt lat="34.4209591" lon="8.7746612"><ele>289.0</ele><time>2026-04-30T19:14:21.713Z</time></trkpt><trkpt lat="34.4209517" lon="8.774801"><ele>289.25</ele><time>2026-04-30T19:14:22.705Z</time></trkpt><trkpt lat="34.4209454" lon="8.7749416"><ele>289.5</ele><time>2026-04-30T19:14:23.714Z</time></trkpt><trkpt lat="34.4209366" lon="8.7750848"><ele>289.75</ele><time>2026-04-30T19:14:24.716Z</time></trkpt><trkpt lat="34.4209225" lon="8.7752333"><ele>290.0</ele><time>2026-04-30T19:14:25.712Z</time></trkpt><trkpt lat="34.4209095" lon="8.7753871"><ele>289.5</ele><time>2026-04-30T19:14:26.723Z</time></trkpt><trkpt lat="34.4208965" lon="8.7755362"><ele>289.0</ele><time>2026-04-30T19:14:27.711Z</time></trkpt><trkpt lat="34.4208856" lon="8.7756882"><ele>288.5</ele><time>2026-04-30T19:14:28.698Z</time></trkpt><trkpt lat="34.4208734" lon="8.7758457"><ele>288.0</ele><time>2026-04-30T19:14:29.688Z</time></trkpt><trkpt lat="34.4208654" lon="8.7760086"><ele>287.75</ele><time>2026-04-30T19:14:30.703Z</time></trkpt><trkpt lat="34.4208614" lon="8.776166"><ele>287.5</ele><time>2026-04-30T19:14:31.694Z</time></trkpt><trkpt lat="34.4208561" lon="8.7763264"><ele>287.25</ele><time>2026-04-30T19:14:32.693Z</time></trkpt><trkpt lat="34.4208515" lon="8.7764791"><ele>287.0</ele><time>2026-04-30T19:14:33.713Z</time></trkpt><trkpt lat="34.4208457" lon="8.7766359"><ele>287.0</ele><time>2026-04-30T19:14:34.686Z</time></trkpt><trkpt lat="34.4208354" lon="8.7767824"><ele>287.0</ele><time>2026-04-30T19:14:35.71Z</time></trkpt><trkpt lat="34.4208252" lon="8.7769258"><ele>287.0</ele><time>2026-04-30T19:14:36.71Z</time></trkpt><trkpt lat="34.4208161" lon="8.7770667"><ele>287.0</ele><time>2026-04-30T19:14:37.688Z</time></trkpt><trkpt lat="34.4208087" lon="8.777203"><ele>286.8</ele><time>2026-04-30T19:14:38.701Z</time></trkpt><trkpt lat="34.420802" lon="8.7773381"><ele>286.6</ele><time>2026-04-30T19:14:39.713Z</time></trkpt><trkpt lat="34.4207925" lon="8.7774671"><ele>286.40000000000003</ele><time>2026-04-30T19:14:40.696Z</time></trkpt><trkpt lat="34.4207857" lon="8.7775936"><ele>286.2</ele><time>2026-04-30T19:14:41.713Z</time></trkpt><trkpt lat="34.4207794" lon="8.7777116"><ele>286.0</ele><time>2026-04-30T19:14:42.72Z</time></trkpt><trkpt lat="34.4207668" lon="8.7778171"><ele>286.40000000000003</ele><time>2026-04-30T19:14:43.717Z</time></trkpt><trkpt lat="34.4207584" lon="8.7779136"><ele>286.8</ele><time>2026-04-30T19:14:44.662Z</time></trkpt><trkpt lat="34.4207524" lon="8.7780039"><ele>287.20000000000005</ele><time>2026-04-30T19:14:45.713Z</time></trkpt><trkpt lat="34.4207345" lon="8.7781364"><ele>287.6</ele><time>2026-04-30T19:14:47.71Z</time></trkpt><trkpt lat="34.4207205" lon="8.7782385"><ele>288.0</ele><time>2026-04-30T19:14:49.71Z</time></trkpt><trkpt lat="34.4206978" lon="8.7783643"><ele>288.0</ele><time>2026-04-30T19:14:51.693Z</time></trkpt><trkpt lat="34.42068" lon="8.7784983"><ele>288.0</ele><time>2026-04-30T19:14:53.702Z</time></trkpt><trkpt lat="34.4206572" lon="8.7786404"><ele>288.0</ele><time>2026-04-30T19:14:55.684Z</time></trkpt><trkpt lat="34.4206125" lon="8.778769"><ele>288.0</ele><time>2026-04-30T19:14:57.716Z</time></trkpt><trkpt lat="34.4205692" lon="8.7788904"><ele>288.4</ele><time>2026-04-30T19:14:59.717Z</time></trkpt><trkpt lat="34.4205349" lon="8.7790077"><ele>288.8</ele><time>2026-04-30T19:15:01.717Z</time></trkpt><trkpt lat="34.4204847" lon="8.7791237"><ele>289.2</ele><time>2026-04-30T19:15:03.726Z</time></trkpt><trkpt lat="34.4204445" lon="8.7792218"><ele>289.6</ele><time>2026-04-30T19:15:05.708Z</time></trkpt><trkpt lat="34.4203996" lon="8.7793065"><ele>290.0</ele><time>2026-04-30T19:15:07.726Z</time></trkpt><trkpt lat="34.4203682" lon="8.7794092"><ele>291.33333333333337</ele><time>2026-04-30T19:15:09.712Z</time></trkpt><trkpt lat="34.4203379" lon="8.7795101"><ele>292.6666666666667</ele><time>2026-04-30T19:15:11.679Z</time></trkpt><trkpt lat="34.4203081" lon="8.7795862"><ele>294.0</ele><time>2026-04-30T19:15:13.717Z</time></trkpt><trkpt lat="34.4202759" lon="8.7796703"><ele>295.3333333333333</ele><time>2026-04-30T19:15:16.714Z</time></trkpt><trkpt lat="34.4202839" lon="8.7797538"><ele>296.66666666666663</ele><time>2026-04-30T19:15:38.714Z</time></trkpt><trkpt lat="34.4203344" lon="8.7796838"><ele>298.0</ele><time>2026-04-30T19:15:43.712Z</time></trkpt><trkpt lat="34.4203872" lon="8.7795613"><ele>298.0</ele><time>2026-04-30T19:15:45.692Z</time></trkpt><trkpt lat="34.4204096" lon="8.7794884"><ele>298.0</ele><time>2026-04-30T19:15:46.698Z</time></trkpt><trkpt lat="34.4204324" lon="8.7794028"><ele>298.0</ele><time>2026-04-30T19:15:47.717Z</time></trkpt><trkpt lat="34.4204611" lon="8.7793311"><ele>298.0</ele><time>2026-04-30T19:15:48.715Z</time></trkpt><trkpt lat="34.420486" lon="8.7792516"><ele>298.0</ele><time>2026-04-30T19:15:49.723Z</time></trkpt><trkpt lat="34.4205108" lon="8.7791786"><ele>298.0</ele><time>2026-04-30T19:15:50.729Z</time></trkpt><trkpt lat="34.4205363" lon="8.779107"><ele>298.0</ele><time>2026-04-30T19:15:51.723Z</time></trkpt><trkpt lat="34.4205931" lon="8.7789777"><ele>296.4</ele><time>2026-04-30T19:15:53.698Z</time></trkpt><trkpt lat="34.4206608" lon="8.7788627"><ele>294.8</ele><time>2026-04-30T19:15:55.723Z</time></trkpt><trkpt lat="34.4207333" lon="8.7787611"><ele>293.2</ele><time>2026-04-30T19:15:57.694Z</time></trkpt><trkpt lat="34.4208014" lon="8.7786711"><ele>291.6</ele><time>2026-04-30T19:15:59.709Z</time></trkpt><trkpt lat="34.4208624" lon="8.7785904"><ele>290.0</ele><time>2026-04-30T19:16:01.714Z</time></trkpt><trkpt lat="34.4208912" lon="8.7785074"><ele>290.0</ele><time>2026-04-30T19:16:03.729Z</time></trkpt><trkpt lat="34.4208847" lon="8.778416"><ele>290.0</ele><time>2026-04-30T19:16:05.714Z</time></trkpt><trkpt lat="34.4208337" lon="8.7783573"><ele>290.0</ele><time>2026-04-30T19:16:07.687Z</time></trkpt><trkpt lat="34.4207637" lon="8.7783759"><ele>290.0</ele><time>2026-04-30T19:16:09.705Z</time></trkpt><trkpt lat="34.4207012" lon="8.7784327"><ele>290.0</ele><time>2026-04-30T19:16:11.665Z</time></trkpt><trkpt lat="34.4206627" lon="8.7785171"><ele>290.0</ele><time>2026-04-30T19:16:13.719Z</time></trkpt><trkpt lat="34.4206461" lon="8.7785974"><ele>290.0</ele><time>2026-04-30T19:16:15.715Z</time></trkpt><trkpt lat="34.4206148" lon="8.7786808"><ele>290.0</ele><time>2026-04-30T19:16:19.676Z</time></trkpt><trkpt lat="34.4205945" lon="8.7787549"><ele>290.0</ele><time>2026-04-30T19:20:33.718Z</time></trkpt><trkpt lat="34.4205723" lon="8.7788302"><ele>290.0</ele><time>2026-04-30T19:20:35.703Z</time></trkpt><trkpt lat="34.4205486" lon="8.778936"><ele>290.0</ele><time>2026-04-30T19:20:37.662Z</time></trkpt><trkpt lat="34.4205266" lon="8.7790444"><ele>290.0</ele><time>2026-04-30T19:20:39.744Z</time></trkpt><trkpt lat="34.42049" lon="8.7791398"><ele>290.0</ele><time>2026-04-30T19:20:41.706Z</time></trkpt><trkpt lat="34.4204526" lon="8.7792426"><ele>291.6</ele><time>2026-04-30T19:20:43.698Z</time></trkpt><trkpt lat="34.4204045" lon="8.779373"><ele>293.2</ele><time>2026-04-30T19:20:45.675Z</time></trkpt><trkpt lat="34.4203761" lon="8.7794438"><ele>294.8</ele><time>2026-04-30T19:20:46.68Z</time></trkpt><trkpt lat="34.4203525" lon="8.7795158"><ele>296.4</ele><time>2026-04-30T19:20:47.676Z</time></trkpt><trkpt lat="34.4202977" lon="8.7796596"><ele>298.0</ele><time>2026-04-30T19:20:49.699Z</time></trkpt><trkpt lat="34.4201703" lon="8.7799989"><ele>298.0</ele><time>2026-04-30T19:20:54.724Z</time></trkpt><trkpt lat="34.4201445" lon="8.7800687"><ele>298.0</ele><time>2026-04-30T19:20:55.668Z</time></trkpt><trkpt lat="34.4200915" lon="8.7801944"><ele>298.0</ele><time>2026-04-30T19:20:57.694Z</time></trkpt><trkpt lat="34.4200464" lon="8.780341"><ele>298.0</ele><time>2026-04-30T19:20:59.665Z</time></trkpt><trkpt lat="34.4199966" lon="8.7804687"><ele>298.0</ele><time>2026-04-30T19:21:01.699Z</time></trkpt><trkpt lat="34.4199676" lon="8.7805427"><ele>297.7142857142857</ele><time>2026-04-30T19:21:02.684Z</time></trkpt><trkpt lat="34.4199379" lon="8.7806149"><ele>297.4285714285714</ele><time>2026-04-30T19:21:03.691Z</time></trkpt><trkpt lat="34.4199044" lon="8.7806859"><ele>297.1428571428571</ele><time>2026-04-30T19:21:04.699Z</time></trkpt><trkpt lat="34.419868" lon="8.7807561"><ele>296.85714285714283</ele><time>2026-04-30T19:21:05.711Z</time></trkpt><trkpt lat="34.419836" lon="8.7808287"><ele>296.57142857142856</ele><time>2026-04-30T19:21:06.684Z</time></trkpt><trkpt lat="34.4198035" lon="8.7809013"><ele>296.2857142857143</ele><time>2026-04-30T19:21:07.667Z</time></trkpt><trkpt lat="34.4197636" lon="8.7809662"><ele>296.0</ele><time>2026-04-30T19:21:08.675Z</time></trkpt><trkpt lat="34.4197286" lon="8.7810331"><ele>296.0</ele><time>2026-04-30T19:21:09.66Z</time></trkpt><trkpt lat="34.4196782" lon="8.7811587"><ele>296.0</ele><time>2026-04-30T19:21:11.673Z</time></trkpt><trkpt lat="34.4196199" lon="8.7812797"><ele>296.0</ele><time>2026-04-30T19:21:13.685Z</time></trkpt><trkpt lat="34.4195875" lon="8.7813469"><ele>296.0</ele><time>2026-04-30T19:21:14.677Z</time></trkpt><trkpt lat="34.4195548" lon="8.7814147"><ele>296.0</ele><time>2026-04-30T19:21:15.68Z</time></trkpt><trkpt lat="34.419525" lon="8.7814841"><ele>296.0</ele><time>2026-04-30T19:21:16.682Z</time></trkpt><trkpt lat="34.4194979" lon="8.7815538"><ele>295.83333333333337</ele><time>2026-04-30T19:21:17.679Z</time></trkpt><trkpt lat="34.4194744" lon="8.7816284"><ele>295.6666666666667</ele><time>2026-04-30T19:21:18.712Z</time></trkpt><trkpt lat="34.4194635" lon="8.7817079"><ele>295.5</ele><time>2026-04-30T19:21:19.682Z</time></trkpt><trkpt lat="34.4194294" lon="8.7818432"><ele>295.3333333333333</ele><time>2026-04-30T19:21:21.686Z</time></trkpt><trkpt lat="34.4194147" lon="8.7819205"><ele>295.16666666666663</ele><time>2026-04-30T19:21:22.715Z</time></trkpt><trkpt lat="34.4194028" lon="8.7820507"><ele>295.0</ele><time>2026-04-30T19:21:24.691Z</time></trkpt><trkpt lat="34.4194068" lon="8.7821753"><ele>294.5</ele><time>2026-04-30T19:21:26.684Z</time></trkpt><trkpt lat="34.4194082" lon="8.7822867"><ele>294.0</ele><time>2026-04-30T19:21:28.697Z</time></trkpt><trkpt lat="34.419379" lon="8.782378"><ele>293.5</ele><time>2026-04-30T19:21:30.705Z</time></trkpt><trkpt lat="34.4193178" lon="8.7824246"><ele>293.0</ele><time>2026-04-30T19:21:32.701Z</time></trkpt><trkpt lat="34.4192407" lon="8.7824"><ele>292.5</ele><time>2026-04-30T19:21:34.685Z</time></trkpt><trkpt lat="34.4191511" lon="8.7823603"><ele>292.0</ele><time>2026-04-30T19:21:36.698Z</time></trkpt><trkpt lat="34.4190648" lon="8.7823093"><ele>292.0</ele><time>2026-04-30T19:21:38.683Z</time></trkpt><trkpt lat="34.418985" lon="8.7822646"><ele>292.0</ele><time>2026-04-30T19:21:40.678Z</time></trkpt><trkpt lat="34.4189053" lon="8.7822029"><ele>292.0</ele><time>2026-04-30T19:21:42.701Z</time></trkpt><trkpt lat="34.4188166" lon="8.7821015"><ele>292.0</ele><time>2026-04-30T19:21:44.693Z</time></trkpt><trkpt lat="34.4187686" lon="8.7820427"><ele>292.0</ele><time>2026-04-30T19:21:45.709Z</time></trkpt><trkpt lat="34.4186668" lon="8.7819556"><ele>292.0</ele><time>2026-04-30T19:21:47.686Z</time></trkpt><trkpt lat="34.4186124" lon="8.7819065"><ele>292.0</ele><time>2026-04-30T19:21:48.706Z</time></trkpt><trkpt lat="34.4185634" lon="8.7818508"><ele>292.0</ele><time>2026-04-30T19:21:49.692Z</time></trkpt><trkpt lat="34.4185196" lon="8.7817937"><ele>292.0</ele><time>2026-04-30T19:21:50.698Z</time></trkpt><trkpt lat="34.4184705" lon="8.7817347"><ele>292.0</ele><time>2026-04-30T19:21:51.693Z</time></trkpt><trkpt lat="34.418409" lon="8.7816764"><ele>292.0</ele><time>2026-04-30T19:21:52.7Z</time></trkpt><trkpt lat="34.4183478" lon="8.7816231"><ele>292.0</ele><time>2026-04-30T19:21:53.694Z</time></trkpt><trkpt lat="34.4182867" lon="8.7815571"><ele>292.0</ele><time>2026-04-30T19:21:54.686Z</time></trkpt><trkpt lat="34.4182262" lon="8.7814926"><ele>292.0</ele><time>2026-04-30T19:21:55.735Z</time></trkpt><trkpt lat="34.4181692" lon="8.7814273"><ele>292.0</ele><time>2026-04-30T19:21:56.686Z</time></trkpt><trkpt lat="34.4181119" lon="8.7813658"><ele>292.0</ele><time>2026-04-30T19:21:57.701Z</time></trkpt><trkpt lat="34.4180535" lon="8.7813029"><ele>292.0</ele><time>2026-04-30T19:21:58.705Z</time></trkpt><trkpt lat="34.4179907" lon="8.7812403"><ele>292.0</ele><time>2026-04-30T19:21:59.707Z</time></trkpt><trkpt lat="34.4179358" lon="8.781174"><ele>292.0</ele><time>2026-04-30T19:22:00.694Z</time></trkpt><trkpt lat="34.4178854" lon="8.7811103"><ele>292.0</ele><time>2026-04-30T19:22:01.707Z</time></trkpt><trkpt lat="34.4178368" lon="8.7810439"><ele>292.0</ele><time>2026-04-30T19:22:02.687Z</time></trkpt><trkpt lat="34.417791" lon="8.7809838"><ele>292.0</ele><time>2026-04-30T19:22:03.695Z</time></trkpt><trkpt lat="34.4177293" lon="8.7808873"><ele>292.0</ele><time>2026-04-30T19:22:05.686Z</time></trkpt><trkpt lat="34.4176755" lon="8.7808093"><ele>292.0</ele><time>2026-04-30T19:22:08.704Z</time></trkpt><trkpt lat="34.4176308" lon="8.7807506"><ele>292.3333333333333</ele><time>2026-04-30T19:22:10.697Z</time></trkpt><trkpt lat="34.417566" lon="8.7807062"><ele>292.66666666666663</ele><time>2026-04-30T19:22:12.718Z</time></trkpt><trkpt lat="34.4174936" lon="8.7806821"><ele>293.0</ele><time>2026-04-30T19:22:14.685Z</time></trkpt><trkpt lat="34.4174212" lon="8.7806442"><ele>293.3333333333333</ele><time>2026-04-30T19:22:16.687Z</time></trkpt><trkpt lat="34.4173801" lon="8.7805769"><ele>293.6666666666667</ele><time>2026-04-30T19:22:18.706Z</time></trkpt><trkpt lat="34.4173441" lon="8.7804518"><ele>294.0</ele><time>2026-04-30T19:22:20.705Z</time></trkpt><trkpt lat="34.4173044" lon="8.7803094"><ele>294.0</ele><time>2026-04-30T19:22:22.701Z</time></trkpt><trkpt lat="34.4172567" lon="8.78019"><ele>294.0</ele><time>2026-04-30T19:22:24.671Z</time></trkpt><trkpt lat="34.4172214" lon="8.7801189"><ele>294.0</ele><time>2026-04-30T19:22:25.676Z</time></trkpt><trkpt lat="34.4171958" lon="8.7800489"><ele>294.0</ele><time>2026-04-30T19:22:26.685Z</time></trkpt><trkpt lat="34.4171684" lon="8.7799747"><ele>294.0</ele><time>2026-04-30T19:22:27.695Z</time></trkpt><trkpt lat="34.4171109" lon="8.7798303"><ele>294.0</ele><time>2026-04-30T19:22:29.7Z</time></trkpt><trkpt lat="34.4170762" lon="8.7797605"><ele>293.3333333333333</ele><time>2026-04-30T19:22:30.66Z</time></trkpt><trkpt lat="34.4170445" lon="8.7796885"><ele>292.6666666666667</ele><time>2026-04-30T19:22:31.661Z</time></trkpt><trkpt lat="34.4169844" lon="8.7795846"><ele>292.0</ele><time>2026-04-30T19:22:33.727Z</time></trkpt><trkpt lat="34.4169285" lon="8.7795493"><ele>291.33333333333337</ele><time>2026-04-30T19:22:35.72Z</time></trkpt><trkpt lat="34.4168416" lon="8.779516"><ele>290.6666666666667</ele><time>2026-04-30T19:22:38.713Z</time></trkpt><trkpt lat="34.416756" lon="8.7795018"><ele>290.0</ele><time>2026-04-30T19:22:40.692Z</time></trkpt><trkpt lat="34.4166543" lon="8.779514"><ele>290.0</ele><time>2026-04-30T19:22:42.708Z</time></trkpt><trkpt lat="34.4165414" lon="8.779528"><ele>290.0</ele><time>2026-04-30T19:22:44.727Z</time></trkpt><trkpt lat="34.4164605" lon="8.7795391"><ele>290.0</ele><time>2026-04-30T19:22:45.699Z</time></trkpt><trkpt lat="34.4163815" lon="8.7795537"><ele>290.0</ele><time>2026-04-30T19:22:46.713Z</time></trkpt><trkpt lat="34.4163049" lon="8.7795625"><ele>290.0</ele><time>2026-04-30T19:22:47.716Z</time></trkpt><trkpt lat="34.4162319" lon="8.7795799"><ele>290.0</ele><time>2026-04-30T19:22:48.712Z</time></trkpt><trkpt lat="34.416159" lon="8.7795886"><ele>289.5</ele><time>2026-04-30T19:22:49.721Z</time></trkpt><trkpt lat="34.4160845" lon="8.7796027"><ele>289.0</ele><time>2026-04-30T19:22:50.713Z</time></trkpt><trkpt lat="34.4160106" lon="8.7796091"><ele>288.5</ele><time>2026-04-30T19:22:51.702Z</time></trkpt><trkpt lat="34.4159389" lon="8.7796184"><ele>288.0</ele><time>2026-04-30T19:22:52.684Z</time></trkpt><trkpt lat="34.4158462" lon="8.779635"><ele>287.5</ele><time>2026-04-30T19:22:54.713Z</time></trkpt><trkpt lat="34.415769" lon="8.7796192"><ele>287.0</ele><time>2026-04-30T19:22:57.706Z</time></trkpt><trkpt lat="34.4156815" lon="8.779638"><ele>287.0</ele><time>2026-04-30T19:22:59.72Z</time></trkpt><trkpt lat="34.4155747" lon="8.7796368"><ele>287.0</ele><time>2026-04-30T19:23:01.715Z</time></trkpt><trkpt lat="34.415462" lon="8.7795996"><ele>287.0</ele><time>2026-04-30T19:23:03.667Z</time></trkpt><trkpt lat="34.4153705" lon="8.7795371"><ele>287.0</ele><time>2026-04-30T19:23:05.709Z</time></trkpt><trkpt lat="34.4153142" lon="8.7794668"><ele>287.0</ele><time>2026-04-30T19:23:07.713Z</time></trkpt><trkpt lat="34.4152508" lon="8.7793929"><ele>287.1666666666667</ele><time>2026-04-30T19:23:10.708Z</time></trkpt><trkpt lat="34.4151812" lon="8.7793389"><ele>287.33333333333337</ele><time>2026-04-30T19:23:13.695Z</time></trkpt><trkpt lat="34.4151228" lon="8.7792713"><ele>287.5</ele><time>2026-04-30T19:23:15.717Z</time></trkpt><trkpt lat="34.4150663" lon="8.7791901"><ele>287.6666666666667</ele><time>2026-04-30T19:23:17.72Z</time></trkpt><trkpt lat="34.4150133" lon="8.7791071"><ele>287.8333333333333</ele><time>2026-04-30T19:23:19.719Z</time></trkpt><trkpt lat="34.4149739" lon="8.779031"><ele>288.0</ele><time>2026-04-30T19:23:21.715Z</time></trkpt><trkpt lat="34.4149377" lon="8.7789677"><ele>288.0</ele><time>2026-04-30T19:23:23.685Z</time></trkpt><trkpt lat="34.4148991" lon="8.7788943"><ele>288.0</ele><time>2026-04-30T19:23:26.718Z</time></trkpt><trkpt lat="34.4149387" lon="8.7789854"><ele>288.0</ele><time>2026-04-30T19:23:37.686Z</time></trkpt><trkpt lat="34.4149901" lon="8.7790747"><ele>288.0</ele><time>2026-04-30T19:23:40.71Z</time></trkpt><trkpt lat="34.4150438" lon="8.7791433"><ele>288.0</ele><time>2026-04-30T19:23:42.706Z</time></trkpt><trkpt lat="34.4150826" lon="8.7792189"><ele>288.0</ele><time>2026-04-30T19:23:44.712Z</time></trkpt><trkpt lat="34.415146" lon="8.7792947"><ele>288.0</ele><time>2026-04-30T19:23:47.714Z</time></trkpt><trkpt lat="34.4152015" lon="8.7793486"><ele>288.0</ele><time>2026-04-30T19:23:50.712Z</time></trkpt><trkpt lat="34.4151615" lon="8.7794098"><ele>288.0</ele><time>2026-04-30T19:23:54.719Z</time></trkpt><trkpt lat="34.4151022" lon="8.7794586"><ele>288.0</ele><time>2026-04-30T19:23:57.707Z</time></trkpt><trkpt lat="34.4150403" lon="8.7794889"><ele>288.0</ele><time>2026-04-30T19:24:00.693Z</time></trkpt><trkpt lat="34.4149829" lon="8.7795223"><ele>288.0</ele><time>2026-04-30T19:24:15.683Z</time></trkpt><trkpt lat="34.4149151" lon="8.7795107"><ele>288.0</ele><time>2026-04-30T19:25:35.681Z</time></trkpt></trkseg></trk></gpx>